<?xml version='1.0' encoding='UTF-8'?><gpx version="1.1" creator="JPX - https://github.com/jenetics/jpx" xmlns="http://www.topografix.com/GPX/1/1"><trk><trkseg><trkpt lat="46.01762452696186" lon="11.890370429182575"><ele>270.25</ele><time>2026-04-23T09:31:45.027Z</time></trkpt><trkpt lat="46.017444326150276" lon="11.890404693831748"><ele>269.5</ele><time>2026-04-23T09:31:49.027Z</time></trkpt><trkpt lat="46.01732834452312" lon="11.890439393983714"><ele>268.75</ele><time>2026-04-23T09:33:18Z</time></trkpt><trkpt lat="46.017207296369406" lon="11.890428021046118"><ele>268.0</ele><time>2026-04-23T09:33:23Z</time></trkpt><trkpt lat="46.017114103715656" lon="11.890444465196067"><ele>268.0</ele><time>2026-04-23T09:33:25Z</time></trkpt><trkpt lat="46.01704866747128" lon="11.89038644779636"><ele>268.0</ele><time>2026-04-23T09:33:27Z</time></trkpt><trkpt lat="46.016997369903635" lon="11.890317723749822"><ele>268.0</ele><time>2026-04-23T09:33:29Z</time></trkpt><trkpt lat="46.016975418951404" lon="11.890218374832727"><ele>268.0</ele><time>2026-04-23T09:33:31Z</time></trkpt><trkpt lat="46.01700384190876" lon="11.89007860399794"><ele>268.0</ele><time>2026-04-23T09:33:33Z</time></trkpt><trkpt lat="46.01702136736675" lon="11.889926414392805"><ele>268.0</ele><time>2026-04-23T09:33:35Z</time></trkpt><trkpt lat="46.01707065462791" lon="11.88977879990113"><ele>268.2</ele><time>2026-04-23T09:33:37Z</time></trkpt><trkpt lat="46.01717389166044" lon="11.889732715179704"><ele>268.4</ele><time>2026-04-23T09:33:39Z</time></trkpt><trkpt lat="46.01727520888467" lon="11.889694584438425"><ele>268.59999999999997</ele><time>2026-04-23T09:33:41Z</time></trkpt><trkpt lat="46.01739480226001" lon="11.889668583498858"><ele>268.8</ele><time>2026-04-23T09:33:43Z</time></trkpt><trkpt lat="46.017506896884235" lon="11.889669990527674"><ele>269.0</ele><time>2026-04-23T09:33:45Z</time></trkpt><trkpt lat="46.017610359221756" lon="11.889632428866271"><ele>269.2</ele><time>2026-04-23T09:33:47Z</time></trkpt><trkpt lat="46.01764958745658" lon="11.889470444151438"><ele>269.4</ele><time>2026-04-23T09:33:55Z</time></trkpt><trkpt lat="46.01763709712367" lon="11.889296928024295"><ele>269.6</ele><time>2026-04-23T09:33:56.998Z</time></trkpt><trkpt lat="46.0176158809543" lon="11.889158289789293"><ele>269.8</ele><time>2026-04-23T09:33:58.998Z</time></trkpt><trkpt lat="46.017610196439335" lon="11.889029245283957"><ele>270.0</ele><time>2026-04-23T09:34:00.998Z</time></trkpt><trkpt lat="46.017597729970156" lon="11.888890291939534"><ele>270.0</ele><time>2026-04-23T09:34:02.998Z</time></trkpt><trkpt lat="46.01756831370315" lon="11.88875286952714"><ele>270.0</ele><time>2026-04-23T09:34:04.998Z</time></trkpt><trkpt lat="46.01755749487166" lon="11.888661917501981"><ele>270.0</ele><time>2026-04-23T09:34:06.998Z</time></trkpt><trkpt lat="46.017559602358375" lon="11.888562822581038"><ele>270.0</ele><time>2026-04-23T09:34:21.999Z</time></trkpt><trkpt lat="46.0173885261899" lon="11.888626815499979"><ele>270.0</ele><time>2026-04-23T09:34:23.999Z</time></trkpt><trkpt lat="46.017311573719695" lon="11.88867731692437"><ele>269.8</ele><time>2026-04-23T09:34:24.999Z</time></trkpt><trkpt lat="46.01722592207215" lon="11.888722206722447"><ele>269.6</ele><time>2026-04-23T09:34:25.999Z</time></trkpt><trkpt lat="46.017146321795074" lon="11.888741431919595"><ele>269.4</ele><time>2026-04-23T09:34:26.999Z</time></trkpt><trkpt lat="46.01704907888022" lon="11.888782446982901"><ele>269.2</ele><time>2026-04-23T09:34:27.999Z</time></trkpt><trkpt lat="46.0169353434623" lon="11.88882782735747"><ele>269.0</ele><time>2026-04-23T09:34:28.999Z</time></trkpt><trkpt lat="46.0168127839362" lon="11.88887410522332"><ele>269.0</ele><time>2026-04-23T09:34:29.999Z</time></trkpt><trkpt lat="46.01670196480102" lon="11.888919878083307"><ele>269.0</ele><time>2026-04-23T09:34:30.999Z</time></trkpt><trkpt lat="46.016593610807035" lon="11.888971729557644"><ele>269.0</ele><time>2026-04-23T09:34:31.999Z</time></trkpt><trkpt lat="46.01648185413374" lon="11.889029213018867"><ele>269.0</ele><time>2026-04-23T09:34:32.999Z</time></trkpt><trkpt lat="46.016367576651476" lon="11.889085134914861"><ele>267.75</ele><time>2026-04-23T09:34:33.999Z</time></trkpt><trkpt lat="46.01625011485834" lon="11.889141110376547"><ele>266.5</ele><time>2026-04-23T09:34:34.999Z</time></trkpt><trkpt lat="46.01613445907237" lon="11.889201945871417"><ele>265.25</ele><time>2026-04-23T09:34:35.999Z</time></trkpt><trkpt lat="46.01601953577041" lon="11.889266309955067"><ele>264.0</ele><time>2026-04-23T09:34:36.999Z</time></trkpt><trkpt lat="46.01590183370162" lon="11.889332148428444"><ele>264.5</ele><time>2026-04-23T09:34:38Z</time></trkpt><trkpt lat="46.01578458011523" lon="11.889395244663307"><ele>265.0</ele><time>2026-04-23T09:34:39Z</time></trkpt><trkpt lat="46.0156634800879" lon="11.889461654555895"><ele>265.5</ele><time>2026-04-23T09:34:40Z</time></trkpt><trkpt lat="46.01553295037667" lon="11.88953301434461"><ele>266.0</ele><time>2026-04-23T09:34:41Z</time></trkpt><trkpt lat="46.01539033101589" lon="11.88961063011316"><ele>266.0</ele><time>2026-04-23T09:34:42Z</time></trkpt><trkpt lat="46.015258479533024" lon="11.88968049733107"><ele>266.0</ele><time>2026-04-23T09:34:43Z</time></trkpt><trkpt lat="46.015143204486165" lon="11.88974616170844"><ele>266.0</ele><time>2026-04-23T09:34:44Z</time></trkpt><trkpt lat="46.01502698708902" lon="11.889806129928383"><ele>266.0</ele><time>2026-04-23T09:34:45Z</time></trkpt><trkpt lat="46.0149144479711" lon="11.889866105116276"><ele>266.25</ele><time>2026-04-23T09:34:46Z</time></trkpt><trkpt lat="46.01479909427455" lon="11.889922177987856"><ele>266.5</ele><time>2026-04-23T09:34:47Z</time></trkpt><trkpt lat="46.01468234456489" lon="11.889984446561133"><ele>266.75</ele><time>2026-04-23T09:34:48Z</time></trkpt><trkpt lat="46.01456428130451" lon="11.89004749913083"><ele>267.0</ele><time>2026-04-23T09:34:49Z</time></trkpt><trkpt lat="46.01444426012629" lon="11.890109976395655"><ele>267.0</ele><time>2026-04-23T09:34:50Z</time></trkpt><trkpt lat="46.01432255864667" lon="11.89017142004228"><ele>267.0</ele><time>2026-04-23T09:34:51Z</time></trkpt><trkpt lat="46.01420371359308" lon="11.890240042902176"><ele>267.0</ele><time>2026-04-23T09:34:52Z</time></trkpt><trkpt lat="46.014082566353885" lon="11.890304028882758"><ele>267.0</ele><time>2026-04-23T09:34:53Z</time></trkpt><trkpt lat="46.01396419501858" lon="11.890363592435456"><ele>267.0</ele><time>2026-04-23T09:34:54Z</time></trkpt><trkpt lat="46.013864882994206" lon="11.890420930696019"><ele>267.0</ele><time>2026-04-23T09:34:55Z</time></trkpt><trkpt lat="46.01378195579714" lon="11.890468261085587"><ele>267.0</ele><time>2026-04-23T09:34:56Z</time></trkpt><trkpt lat="46.01371526538909" lon="11.890497860634465"><ele>267.0</ele><time>2026-04-23T09:34:57Z</time></trkpt><trkpt lat="46.013596660637496" lon="11.890473757622928"><ele>267.0</ele><time>2026-04-23T09:34:59Z</time></trkpt><trkpt lat="46.01353865276169" lon="11.890408292991664"><ele>267.0</ele><time>2026-04-23T09:35:00Z</time></trkpt><trkpt lat="46.01350271950184" lon="11.890301302713105"><ele>267.0</ele><time>2026-04-23T09:35:01Z</time></trkpt><trkpt lat="46.013473289681755" lon="11.890170390513308"><ele>267.0</ele><time>2026-04-23T09:35:02Z</time></trkpt><trkpt lat="46.01343054436597" lon="11.890009492207872"><ele>267.0</ele><time>2026-04-23T09:35:03Z</time></trkpt><trkpt lat="46.01337258161848" lon="11.889817978856374"><ele>267.0</ele><time>2026-04-23T09:35:04Z</time></trkpt><trkpt lat="46.01331323823431" lon="11.889642571884457"><ele>267.0</ele><time>2026-04-23T09:35:05Z</time></trkpt><trkpt lat="46.01327891996259" lon="11.889479694429678"><ele>267.0</ele><time>2026-04-23T09:35:06Z</time></trkpt><trkpt lat="46.01323898641805" lon="11.889315430143167"><ele>267.0</ele><time>2026-04-23T09:35:07Z</time></trkpt><trkpt lat="46.01319392586532" lon="11.889139177478658"><ele>267.0</ele><time>2026-04-23T09:35:08Z</time></trkpt><trkpt lat="46.013151670805165" lon="11.888954491109791"><ele>267.25</ele><time>2026-04-23T09:35:09Z</time></trkpt><trkpt lat="46.013105116109365" lon="11.888767215034912"><ele>267.5</ele><time>2026-04-23T09:35:10Z</time></trkpt><trkpt lat="46.0130539256029" lon="11.888573309006611"><ele>267.75</ele><time>2026-04-23T09:35:11Z</time></trkpt><trkpt lat="46.01300099535017" lon="11.88837832150687"><ele>268.0</ele><time>2026-04-23T09:35:12Z</time></trkpt><trkpt lat="46.01295156699157" lon="11.888171659740237"><ele>268.0</ele><time>2026-04-23T09:35:13Z</time></trkpt><trkpt lat="46.01289861091153" lon="11.887958022587016"><ele>268.0</ele><time>2026-04-23T09:35:14Z</time></trkpt><trkpt lat="46.01284106395546" lon="11.887740671454337"><ele>268.0</ele><time>2026-04-23T09:35:15Z</time></trkpt><trkpt lat="46.01278703405239" lon="11.88752731790788"><ele>268.0</ele><time>2026-04-23T09:35:16Z</time></trkpt><trkpt lat="46.012728636763" lon="11.887318166933285"><ele>268.0</ele><time>2026-04-23T09:35:17Z</time></trkpt><trkpt lat="46.01267535428911" lon="11.887111427807275"><ele>268.0</ele><time>2026-04-23T09:35:18Z</time></trkpt><trkpt lat="46.01262290674517" lon="11.886910374376292"><ele>268.25</ele><time>2026-04-23T09:35:19Z</time></trkpt><trkpt lat="46.012575215154335" lon="11.886712019653709"><ele>268.5</ele><time>2026-04-23T09:35:20Z</time></trkpt><trkpt lat="46.01253102759665" lon="11.886522854951751"><ele>268.75</ele><time>2026-04-23T09:35:21Z</time></trkpt><trkpt lat="46.01248704470114" lon="11.886339905379447"><ele>269.0</ele><time>2026-04-23T09:35:22Z</time></trkpt><trkpt lat="46.01244169449525" lon="11.886157742896813"><ele>269.25</ele><time>2026-04-23T09:35:23Z</time></trkpt><trkpt lat="46.01239417614273" lon="11.885979300772817"><ele>269.5</ele><time>2026-04-23T09:35:24Z</time></trkpt><trkpt lat="46.01235203833024" lon="11.88580149884555"><ele>269.75</ele><time>2026-04-23T09:35:25Z</time></trkpt><trkpt lat="46.01230828354346" lon="11.885627658519985"><ele>270.0</ele><time>2026-04-23T09:35:26Z</time></trkpt><trkpt lat="46.01226207238074" lon="11.885456994753806"><ele>270.2</ele><time>2026-04-23T09:35:27Z</time></trkpt><trkpt lat="46.01221923044845" lon="11.885291379706324"><ele>270.4</ele><time>2026-04-23T09:35:28Z</time></trkpt><trkpt lat="46.012176407013" lon="11.885132542746431"><ele>270.6</ele><time>2026-04-23T09:35:29Z</time></trkpt><trkpt lat="46.01214883444209" lon="11.884989734125982"><ele>270.8</ele><time>2026-04-23T09:35:30Z</time></trkpt><trkpt lat="46.01211171262978" lon="11.884859137993235"><ele>271.0</ele><time>2026-04-23T09:35:31Z</time></trkpt><trkpt lat="46.012083178428675" lon="11.88475960544039"><ele>271.0</ele><time>2026-04-23T09:35:32Z</time></trkpt><trkpt lat="46.01206748410676" lon="11.884668303584707"><ele>271.0</ele><time>2026-04-23T09:35:33Z</time></trkpt><trkpt lat="46.012080692502124" lon="11.884575508966051"><ele>271.0</ele><time>2026-04-23T09:35:34Z</time></trkpt><trkpt lat="46.01207332055351" lon="11.88446228926753"><ele>271.0</ele><time>2026-04-23T09:35:35Z</time></trkpt><trkpt lat="46.01210985685083" lon="11.884354369191037"><ele>271.0</ele><time>2026-04-23T09:35:36Z</time></trkpt><trkpt lat="46.012092890281764" lon="11.884240265988016"><ele>271.0</ele><time>2026-04-23T09:35:37Z</time></trkpt><trkpt lat="46.012053170314594" lon="11.884156194564307"><ele>271.0</ele><time>2026-04-23T09:35:38Z</time></trkpt><trkpt lat="46.011978247238005" lon="11.884108851632169"><ele>271.0</ele><time>2026-04-23T09:35:39Z</time></trkpt><trkpt lat="46.011893935117136" lon="11.88410167833166"><ele>271.0</ele><time>2026-04-23T09:35:40Z</time></trkpt><trkpt lat="46.01179956466318" lon="11.884111011293024"><ele>271.0</ele><time>2026-04-23T09:35:41Z</time></trkpt><trkpt lat="46.01170260311296" lon="11.884094604072013"><ele>271.0</ele><time>2026-04-23T09:35:42Z</time></trkpt><trkpt lat="46.01161865081434" lon="11.884008353499889"><ele>271.0</ele><time>2026-04-23T09:35:43Z</time></trkpt><trkpt lat="46.01151494345972" lon="11.883916298005088"><ele>271.25</ele><time>2026-04-23T09:35:44Z</time></trkpt><trkpt lat="46.01141082418661" lon="11.88387904570956"><ele>271.5</ele><time>2026-04-23T09:35:45Z</time></trkpt><trkpt lat="46.01130724488075" lon="11.883867195595212"><ele>271.75</ele><time>2026-04-23T09:35:46Z</time></trkpt><trkpt lat="46.011191596551214" lon="11.883904834814288"><ele>272.0</ele><time>2026-04-23T09:35:47Z</time></trkpt><trkpt lat="46.01107737893793" lon="11.883973810439988"><ele>272.0</ele><time>2026-04-23T09:35:48Z</time></trkpt><trkpt lat="46.0109744417758" lon="11.884086984463176"><ele>272.0</ele><time>2026-04-23T09:35:49Z</time></trkpt><trkpt lat="46.01087827898614" lon="11.884242190245699"><ele>272.0</ele><time>2026-04-23T09:35:50Z</time></trkpt><trkpt lat="46.01078582769692" lon="11.884410293597382"><ele>272.0</ele><time>2026-04-23T09:35:51Z</time></trkpt><trkpt lat="46.01068984380571" lon="11.884573955960645"><ele>272.0</ele><time>2026-04-23T09:35:52Z</time></trkpt><trkpt lat="46.01059352808571" lon="11.8847246523824"><ele>272.0</ele><time>2026-04-23T09:35:53Z</time></trkpt><trkpt lat="46.010492379525715" lon="11.884861068103092"><ele>272.0</ele><time>2026-04-23T09:35:54Z</time></trkpt><trkpt lat="46.0103957918839" lon="11.884986973196332"><ele>272.0</ele><time>2026-04-23T09:35:55Z</time></trkpt><trkpt lat="46.0103013448373" lon="11.885097883294025"><ele>272.0</ele><time>2026-04-23T09:35:56Z</time></trkpt><trkpt lat="46.01021068139198" lon="11.885213217254403"><ele>272.0</ele><time>2026-04-23T09:35:57Z</time></trkpt><trkpt lat="46.01012774810034" lon="11.88530607231526"><ele>272.0</ele><time>2026-04-23T09:35:58Z</time></trkpt><trkpt lat="46.01004766123972" lon="11.88539090742227"><ele>272.0</ele><time>2026-04-23T09:35:59Z</time></trkpt><trkpt lat="46.00995643366587" lon="11.885431281529046"><ele>272.0</ele><time>2026-04-23T09:36:00Z</time></trkpt><trkpt lat="46.009858796406846" lon="11.885414986988197"><ele>272.0</ele><time>2026-04-23T09:36:01Z</time></trkpt><trkpt lat="46.00977322833851" lon="11.885350901593041"><ele>272.0</ele><time>2026-04-23T09:36:02Z</time></trkpt><trkpt lat="46.00970441143017" lon="11.885234845689991"><ele>272.0</ele><time>2026-04-23T09:36:03Z</time></trkpt><trkpt lat="46.00965640235974" lon="11.885099726381798"><ele>272.0</ele><time>2026-04-23T09:36:04Z</time></trkpt><trkpt lat="46.009620390105454" lon="11.884948865052932"><ele>272.0</ele><time>2026-04-23T09:36:05Z</time></trkpt><trkpt lat="46.00958610476414" lon="11.884786131403624"><ele>272.25</ele><time>2026-04-23T09:36:06Z</time></trkpt><trkpt lat="46.00954771922867" lon="11.884609381025642"><ele>272.5</ele><time>2026-04-23T09:36:07Z</time></trkpt><trkpt lat="46.009497563753264" lon="11.884419422254236"><ele>272.75</ele><time>2026-04-23T09:36:08Z</time></trkpt><trkpt lat="46.009440294448204" lon="11.88420645786955"><ele>273.0</ele><time>2026-04-23T09:36:09Z</time></trkpt><trkpt lat="46.009382026361635" lon="11.883984353506305"><ele>272.6666666666667</ele><time>2026-04-23T09:36:10Z</time></trkpt><trkpt lat="46.00932405767111" lon="11.883775698004452"><ele>272.33333333333337</ele><time>2026-04-23T09:36:11Z</time></trkpt><trkpt lat="46.00925859660892" lon="11.883554713541875"><ele>272.0</ele><time>2026-04-23T09:36:12Z</time></trkpt><trkpt lat="46.009189361907126" lon="11.883333770306303"><ele>272.33333333333337</ele><time>2026-04-23T09:36:13Z</time></trkpt><trkpt lat="46.00911787066145" lon="11.88310891241666"><ele>272.6666666666667</ele><time>2026-04-23T09:36:14Z</time></trkpt><trkpt lat="46.00904835740637" lon="11.882878614881092"><ele>273.0</ele><time>2026-04-23T09:36:15Z</time></trkpt><trkpt lat="46.00893191307893" lon="11.88268423694213"><ele>273.6666666666667</ele><time>2026-04-23T09:36:16Z</time></trkpt><trkpt lat="46.008891067152554" lon="11.882396992631627"><ele>274.33333333333337</ele><time>2026-04-23T09:36:17Z</time></trkpt><trkpt lat="46.008809682349906" lon="11.882151267623202"><ele>275.0</ele><time>2026-04-23T09:36:18Z</time></trkpt><trkpt lat="46.008722426165505" lon="11.881895740803282"><ele>274.0</ele><time>2026-04-23T09:36:19Z</time></trkpt><trkpt lat="46.008632130904246" lon="11.881625528808724"><ele>273.0</ele><time>2026-04-23T09:36:20Z</time></trkpt><trkpt lat="46.008547599819586" lon="11.88134080748421"><ele>272.0</ele><time>2026-04-23T09:36:21Z</time></trkpt><trkpt lat="46.008461380375444" lon="11.881053503590211"><ele>272.6666666666667</ele><time>2026-04-23T09:36:22Z</time></trkpt><trkpt lat="46.00838515969632" lon="11.880793177337718"><ele>273.3333333333333</ele><time>2026-04-23T09:36:23Z</time></trkpt><trkpt lat="46.00830582416415" lon="11.880532389007318"><ele>274.0</ele><time>2026-04-23T09:36:24Z</time></trkpt><trkpt lat="46.00822887759969" lon="11.880269694994404"><ele>274.66666666666663</ele><time>2026-04-23T09:36:25Z</time></trkpt><trkpt lat="46.00815132752462" lon="11.88000850111033"><ele>275.3333333333333</ele><time>2026-04-23T09:36:26Z</time></trkpt><trkpt lat="46.00807016332014" lon="11.879742238786667"><ele>276.0</ele><time>2026-04-23T09:36:27Z</time></trkpt><trkpt lat="46.007984251645105" lon="11.879475304591757"><ele>276.3333333333333</ele><time>2026-04-23T09:36:28Z</time></trkpt><trkpt lat="46.00789619509587" lon="11.879204503118318"><ele>276.66666666666663</ele><time>2026-04-23T09:36:29Z</time></trkpt><trkpt lat="46.00781111874252" lon="11.87893019542891"><ele>277.0</ele><time>2026-04-23T09:36:30Z</time></trkpt><trkpt lat="46.00772762195323" lon="11.878648687338638"><ele>276.66666666666663</ele><time>2026-04-23T09:36:31Z</time></trkpt><trkpt lat="46.0076472283762" lon="11.878362129683643"><ele>276.3333333333333</ele><time>2026-04-23T09:36:32Z</time></trkpt><trkpt lat="46.00757001754482" lon="11.878069188075441"><ele>276.0</ele><time>2026-04-23T09:36:33Z</time></trkpt><trkpt lat="46.007493488800876" lon="11.877756893936036"><ele>278.0</ele><time>2026-04-23T09:36:34Z</time></trkpt><trkpt lat="46.00743544621" lon="11.877433052207262"><ele>280.0</ele><time>2026-04-23T09:36:35Z</time></trkpt><trkpt lat="46.00738903323141" lon="11.877105654248785"><ele>280.0</ele><time>2026-04-23T09:36:36Z</time></trkpt><trkpt lat="46.00735340728509" lon="11.876781405597328"><ele>280.0</ele><time>2026-04-23T09:36:37Z</time></trkpt><trkpt lat="46.00732822727098" lon="11.876452977085355"><ele>282.0</ele><time>2026-04-23T09:36:38Z</time></trkpt><trkpt lat="46.00731142173881" lon="11.876119572734863"><ele>284.0</ele><time>2026-04-23T09:36:39Z</time></trkpt><trkpt lat="46.00730222723553" lon="11.875783020716899"><ele>285.0</ele><time>2026-04-23T09:36:40Z</time></trkpt><trkpt lat="46.00730457256884" lon="11.87544529508406"><ele>286.0</ele><time>2026-04-23T09:36:41Z</time></trkpt><trkpt lat="46.00731491728388" lon="11.875123302360725"><ele>286.0</ele><time>2026-04-23T09:36:42Z</time></trkpt><trkpt lat="46.007321452444494" lon="11.874813050978203"><ele>286.0</ele><time>2026-04-23T09:36:43Z</time></trkpt><trkpt lat="46.00732842452356" lon="11.874507550749751"><ele>286.0</ele><time>2026-04-23T09:36:44Z</time></trkpt><trkpt lat="46.00732835955497" lon="11.874198518877543"><ele>285.3333333333333</ele><time>2026-04-23T09:36:45Z</time></trkpt><trkpt lat="46.00731727024984" lon="11.873884334796482"><ele>284.6666666666667</ele><time>2026-04-23T09:36:46Z</time></trkpt><trkpt lat="46.007300027480305" lon="11.873569553416852"><ele>284.0</ele><time>2026-04-23T09:36:47Z</time></trkpt><trkpt lat="46.00727066939213" lon="11.873251656659399"><ele>284.0</ele><time>2026-04-23T09:36:48Z</time></trkpt><trkpt lat="46.00723340774527" lon="11.872934932506908"><ele>284.0</ele><time>2026-04-23T09:36:49Z</time></trkpt><trkpt lat="46.007186890208374" lon="11.87261827378477"><ele>284.0</ele><time>2026-04-23T09:36:50Z</time></trkpt><trkpt lat="46.00714626610712" lon="11.872296476637754"><ele>285.0</ele><time>2026-04-23T09:36:51Z</time></trkpt><trkpt lat="46.00708082802994" lon="11.871982009354044"><ele>286.0</ele><time>2026-04-23T09:36:52Z</time></trkpt><trkpt lat="46.00700620151978" lon="11.871669051377161"><ele>287.0</ele><time>2026-04-23T09:36:53Z</time></trkpt><trkpt lat="46.00692863921075" lon="11.871356608221468"><ele>288.0</ele><time>2026-04-23T09:36:54Z</time></trkpt><trkpt lat="46.006850736690865" lon="11.871043986275462"><ele>288.5</ele><time>2026-04-23T09:36:55Z</time></trkpt><trkpt lat="46.00675935052791" lon="11.870737136619665"><ele>289.0</ele><time>2026-04-23T09:36:56Z</time></trkpt><trkpt lat="46.006685303155415" lon="11.870424880703073"><ele>289.5</ele><time>2026-04-23T09:36:57Z</time></trkpt><trkpt lat="46.006611723697745" lon="11.870114337583129"><ele>290.0</ele><time>2026-04-23T09:36:58Z</time></trkpt><trkpt lat="46.00653593038071" lon="11.869805296083111"><ele>291.5</ele><time>2026-04-23T09:36:59Z</time></trkpt><trkpt lat="46.0064614495193" lon="11.869495043481113"><ele>293.0</ele><time>2026-04-23T09:37:00Z</time></trkpt><trkpt lat="46.00638716917752" lon="11.869186513160532"><ele>293.5</ele><time>2026-04-23T09:37:01Z</time></trkpt><trkpt lat="46.006313869724124" lon="11.868878949501957"><ele>294.0</ele><time>2026-04-23T09:37:02Z</time></trkpt><trkpt lat="46.00624250315811" lon="11.868572237492453"><ele>294.0</ele><time>2026-04-23T09:37:03Z</time></trkpt><trkpt lat="46.00617402811545" lon="11.868266263130826"><ele>294.0</ele><time>2026-04-23T09:37:04Z</time></trkpt><trkpt lat="46.0061048858789" lon="11.867939650415611"><ele>294.0</ele><time>2026-04-23T09:37:05Z</time></trkpt><trkpt lat="46.006031848418516" lon="11.867591995356133"><ele>294.0</ele><time>2026-04-23T09:37:06Z</time></trkpt><trkpt lat="46.00595749985174" lon="11.86724006526667"><ele>294.0</ele><time>2026-04-23T09:37:07Z</time></trkpt><trkpt lat="46.00588305472564" lon="11.866887261991087"><ele>294.0</ele><time>2026-04-23T09:37:08Z</time></trkpt><trkpt lat="46.00580851796827" lon="11.866531604851588"><ele>295.5</ele><time>2026-04-23T09:37:09Z</time></trkpt><trkpt lat="46.00573423927941" lon="11.866174276285511"><ele>297.0</ele><time>2026-04-23T09:37:10Z</time></trkpt><trkpt lat="46.00566220640093" lon="11.86581687861644"><ele>298.5</ele><time>2026-04-23T09:37:11Z</time></trkpt><trkpt lat="46.00559148834064" lon="11.865467353994323"><ele>300.0</ele><time>2026-04-23T09:37:12Z</time></trkpt><trkpt lat="46.00552142096023" lon="11.865122047802265"><ele>300.0</ele><time>2026-04-23T09:37:13Z</time></trkpt><trkpt lat="46.00545195535888" lon="11.864781097568752"><ele>300.0</ele><time>2026-04-23T09:37:14Z</time></trkpt><trkpt lat="46.005383441554315" lon="11.864445242675842"><ele>301.5</ele><time>2026-04-23T09:37:15Z</time></trkpt><trkpt lat="46.005314398183366" lon="11.864112131800496"><ele>303.0</ele><time>2026-04-23T09:37:16Z</time></trkpt><trkpt lat="46.005245989756006" lon="11.863781647376042"><ele>303.0</ele><time>2026-04-23T09:37:17Z</time></trkpt><trkpt lat="46.005178324749075" lon="11.863453468273919"><ele>303.0</ele><time>2026-04-23T09:37:18Z</time></trkpt><trkpt lat="46.005108693959215" lon="11.863126344273512"><ele>303.0</ele><time>2026-04-23T09:37:19Z</time></trkpt><trkpt lat="46.00503676189494" lon="11.862800420531121"><ele>303.0</ele><time>2026-04-23T09:37:20Z</time></trkpt><trkpt lat="46.004960814889444" lon="11.8624660939462"><ele>302.5</ele><time>2026-04-23T09:37:21Z</time></trkpt><trkpt lat="46.0048868781259" lon="11.86211408916779"><ele>302.0</ele><time>2026-04-23T09:37:22Z</time></trkpt><trkpt lat="46.00481359259351" lon="11.861748604737238"><ele>302.0</ele><time>2026-04-23T09:37:23Z</time></trkpt><trkpt lat="46.004738907502144" lon="11.861374406409322"><ele>302.0</ele><time>2026-04-23T09:37:24Z</time></trkpt><trkpt lat="46.00466033575326" lon="11.860990933907619"><ele>302.5</ele><time>2026-04-23T09:37:25Z</time></trkpt><trkpt lat="46.00457917354699" lon="11.860601828894094"><ele>303.0</ele><time>2026-04-23T09:37:26Z</time></trkpt><trkpt lat="46.00449578319186" lon="11.860207840068622"><ele>303.5</ele><time>2026-04-23T09:37:27Z</time></trkpt><trkpt lat="46.00441044289512" lon="11.859811011231688"><ele>304.0</ele><time>2026-04-23T09:37:28Z</time></trkpt><trkpt lat="46.004324881370124" lon="11.859409607211704"><ele>304.0</ele><time>2026-04-23T09:37:29Z</time></trkpt><trkpt lat="46.0042387481289" lon="11.859008715068144"><ele>304.0</ele><time>2026-04-23T09:37:30Z</time></trkpt><trkpt lat="46.004152247730815" lon="11.858613241559148"><ele>305.0</ele><time>2026-04-23T09:37:31Z</time></trkpt><trkpt lat="46.00406510885164" lon="11.858220444964335"><ele>306.0</ele><time>2026-04-23T09:37:32Z</time></trkpt><trkpt lat="46.0039799853382" lon="11.8578324165001"><ele>305.0</ele><time>2026-04-23T09:37:33Z</time></trkpt><trkpt lat="46.00389550949563" lon="11.857448429792887"><ele>304.0</ele><time>2026-04-23T09:37:34Z</time></trkpt><trkpt lat="46.00380816988018" lon="11.85706886150753"><ele>303.5</ele><time>2026-04-23T09:37:35Z</time></trkpt><trkpt lat="46.00371950307084" lon="11.856693320893896"><ele>303.0</ele><time>2026-04-23T09:37:36Z</time></trkpt><trkpt lat="46.003627766249174" lon="11.856310015810694"><ele>303.5</ele><time>2026-04-23T09:37:37Z</time></trkpt><trkpt lat="46.00353346942986" lon="11.855918590865546"><ele>304.0</ele><time>2026-04-23T09:37:38Z</time></trkpt><trkpt lat="46.0034326726949" lon="11.855524350000533"><ele>304.0</ele><time>2026-04-23T09:37:39.001Z</time></trkpt><trkpt lat="46.00332882959885" lon="11.855130168186731"><ele>304.0</ele><time>2026-04-23T09:37:40.001Z</time></trkpt><trkpt lat="46.00322706755162" lon="11.854735410289996"><ele>304.0</ele><time>2026-04-23T09:37:41.001Z</time></trkpt><trkpt lat="46.003129581191374" lon="11.85433720327167"><ele>304.0</ele><time>2026-04-23T09:37:42.001Z</time></trkpt><trkpt lat="46.00303862936286" lon="11.853937726709995"><ele>304.5</ele><time>2026-04-23T09:37:43.001Z</time></trkpt><trkpt lat="46.00295089468394" lon="11.85353470013218"><ele>305.0</ele><time>2026-04-23T09:37:44.001Z</time></trkpt><trkpt lat="46.00286118746987" lon="11.853130923163118"><ele>305.0</ele><time>2026-04-23T09:37:45.001Z</time></trkpt><trkpt lat="46.002768095337835" lon="11.852727550884504"><ele>305.0</ele><time>2026-04-23T09:37:46.001Z</time></trkpt><trkpt lat="46.00267272216714" lon="11.852323896748882"><ele>306.0</ele><time>2026-04-23T09:37:47.001Z</time></trkpt><trkpt lat="46.00257978947159" lon="11.851925118420187"><ele>307.0</ele><time>2026-04-23T09:37:48.001Z</time></trkpt><trkpt lat="46.002483770898685" lon="11.851524570927529"><ele>308.0</ele><time>2026-04-23T09:37:49.001Z</time></trkpt><trkpt lat="46.002386161655316" lon="11.851121702694037"><ele>309.0</ele><time>2026-04-23T09:37:50.001Z</time></trkpt><trkpt lat="46.002290107868546" lon="11.850721141574214"><ele>310.5</ele><time>2026-04-23T09:37:51.001Z</time></trkpt><trkpt lat="46.002195132511126" lon="11.850322141044515"><ele>312.0</ele><time>2026-04-23T09:37:52.001Z</time></trkpt><trkpt lat="46.00210029314508" lon="11.849921992739047"><ele>312.0</ele><time>2026-04-23T09:37:53.001Z</time></trkpt><trkpt lat="46.00200389871706" lon="11.849525108203473"><ele>312.0</ele><time>2026-04-23T09:37:54.001Z</time></trkpt><trkpt lat="46.001907200442055" lon="11.8491306113903"><ele>312.0</ele><time>2026-04-23T09:37:55.001Z</time></trkpt><trkpt lat="46.001811049144756" lon="11.848736696485881"><ele>312.0</ele><time>2026-04-23T09:37:56.001Z</time></trkpt><trkpt lat="46.00171649654608" lon="11.848342734803316"><ele>315.5</ele><time>2026-04-23T09:37:57.001Z</time></trkpt><trkpt lat="46.00162342899637" lon="11.847949782921173"><ele>319.0</ele><time>2026-04-23T09:37:58.001Z</time></trkpt><trkpt lat="46.00152978512989" lon="11.847557666870701"><ele>319.5</ele><time>2026-04-23T09:37:59.001Z</time></trkpt><trkpt lat="46.001436333908266" lon="11.84716706521773"><ele>320.0</ele><time>2026-04-23T09:38:00.001Z</time></trkpt><trkpt lat="46.001343405818815" lon="11.846775400537279"><ele>318.5</ele><time>2026-04-23T09:38:01.001Z</time></trkpt><trkpt lat="46.001255908753514" lon="11.84638173155195"><ele>317.0</ele><time>2026-04-23T09:38:02.001Z</time></trkpt><trkpt lat="46.001176546135575" lon="11.845985021427632"><ele>319.0</ele><time>2026-04-23T09:38:03.001Z</time></trkpt><trkpt lat="46.001106047090325" lon="11.845583093846368"><ele>321.0</ele><time>2026-04-23T09:38:04.001Z</time></trkpt><trkpt lat="46.00104707254204" lon="11.845175531938834"><ele>322.0</ele><time>2026-04-23T09:38:05.001Z</time></trkpt><trkpt lat="46.00099925110032" lon="11.84476234186732"><ele>323.0</ele><time>2026-04-23T09:38:06.001Z</time></trkpt><trkpt lat="46.000965457739284" lon="11.844346897875452"><ele>322.0</ele><time>2026-04-23T09:38:07.001Z</time></trkpt><trkpt lat="46.00094295365062" lon="11.843930269259834"><ele>321.0</ele><time>2026-04-23T09:38:08Z</time></trkpt><trkpt lat="46.00093156167915" lon="11.843513286404558"><ele>320.5</ele><time>2026-04-23T09:38:09Z</time></trkpt><trkpt lat="46.000929675620355" lon="11.843099759858378"><ele>320.0</ele><time>2026-04-23T09:38:10Z</time></trkpt><trkpt lat="46.000937206177355" lon="11.842686426898519"><ele>320.5</ele><time>2026-04-23T09:38:11Z</time></trkpt><trkpt lat="46.000959412755186" lon="11.842272514554118"><ele>321.0</ele><time>2026-04-23T09:38:12Z</time></trkpt><trkpt lat="46.00099334020902" lon="11.841858848944183"><ele>321.5</ele><time>2026-04-23T09:38:13Z</time></trkpt><trkpt lat="46.00103698410585" lon="11.841448437750149"><ele>322.0</ele><time>2026-04-23T09:38:14Z</time></trkpt><trkpt lat="46.0010963257323" lon="11.841040863188745"><ele>321.5</ele><time>2026-04-23T09:38:15Z</time></trkpt><trkpt lat="46.00116636600892" lon="11.840634668724324"><ele>321.0</ele><time>2026-04-23T09:38:16Z</time></trkpt><trkpt lat="46.00124348970343" lon="11.840261257493223"><ele>321.5</ele><time>2026-04-23T09:38:17Z</time></trkpt><trkpt lat="46.00132289335503" lon="11.83991150083356"><ele>322.0</ele><time>2026-04-23T09:38:18Z</time></trkpt><trkpt lat="46.00140435635596" lon="11.839582074513677"><ele>322.5</ele><time>2026-04-23T09:38:19Z</time></trkpt><trkpt lat="46.00148901112685" lon="11.83926357136291"><ele>323.0</ele><time>2026-04-23T09:38:20Z</time></trkpt><trkpt lat="46.00157276227144" lon="11.8389534901227"><ele>323.0</ele><time>2026-04-23T09:38:21Z</time></trkpt><trkpt lat="46.001656886047066" lon="11.838648673008677"><ele>323.0</ele><time>2026-04-23T09:38:22Z</time></trkpt><trkpt lat="46.001740794335305" lon="11.838353197742308"><ele>322.33333333333337</ele><time>2026-04-23T09:38:23Z</time></trkpt><trkpt lat="46.001822948979324" lon="11.83807728934217"><ele>321.6666666666667</ele><time>2026-04-23T09:38:24Z</time></trkpt><trkpt lat="46.00189950439041" lon="11.837842166936731"><ele>321.0</ele><time>2026-04-23T09:38:25Z</time></trkpt><trkpt lat="46.00197209359148" lon="11.83763173205311"><ele>320.75</ele><time>2026-04-23T09:38:26Z</time></trkpt><trkpt lat="46.00203980336217" lon="11.837440770723813"><ele>320.5</ele><time>2026-04-23T09:38:27Z</time></trkpt><trkpt lat="46.00210150934671" lon="11.837274837151616"><ele>320.25</ele><time>2026-04-23T09:38:28Z</time></trkpt><trkpt lat="46.00216194880186" lon="11.83713515865287"><ele>320.0</ele><time>2026-04-23T09:38:29Z</time></trkpt><trkpt lat="46.002214989799725" lon="11.837059602248253"><ele>320.0</ele><time>2026-04-23T09:38:30Z</time></trkpt><trkpt lat="46.00227185751734" lon="11.837019620694356"><ele>320.0</ele><time>2026-04-23T09:38:31Z</time></trkpt><trkpt lat="46.0023415232112" lon="11.836993725147781"><ele>320.0</ele><time>2026-04-23T09:38:32Z</time></trkpt><trkpt lat="46.002418092276486" lon="11.836949776814723"><ele>320.0</ele><time>2026-04-23T09:38:33Z</time></trkpt><trkpt lat="46.00249131916914" lon="11.836851935479505"><ele>320.0</ele><time>2026-04-23T09:38:34Z</time></trkpt><trkpt lat="46.0025403618809" lon="11.836725387043444"><ele>320.0</ele><time>2026-04-23T09:38:35Z</time></trkpt><trkpt lat="46.00254692910896" lon="11.836585172149515"><ele>320.0</ele><time>2026-04-23T09:38:36Z</time></trkpt><trkpt lat="46.00251736693373" lon="11.836421547975185"><ele>320.0</ele><time>2026-04-23T09:38:37Z</time></trkpt><trkpt lat="46.00246296333009" lon="11.836245917435425"><ele>320.0</ele><time>2026-04-23T09:38:38Z</time></trkpt><trkpt lat="46.00240032780138" lon="11.8360514459262"><ele>320.0</ele><time>2026-04-23T09:38:39Z</time></trkpt><trkpt lat="46.002349032958456" lon="11.835831471789424"><ele>320.0</ele><time>2026-04-23T09:38:40Z</time></trkpt><trkpt lat="46.00231235890286" lon="11.83556157786966"><ele>320.0</ele><time>2026-04-23T09:38:41Z</time></trkpt><trkpt lat="46.00228527362041" lon="11.835277504048513"><ele>320.0</ele><time>2026-04-23T09:38:42Z</time></trkpt><trkpt lat="46.002268812420624" lon="11.835027540355062"><ele>319.33333333333337</ele><time>2026-04-23T09:38:43Z</time></trkpt><trkpt lat="46.00225911006413" lon="11.834767014610518"><ele>318.6666666666667</ele><time>2026-04-23T09:38:44Z</time></trkpt><trkpt lat="46.00225656836265" lon="11.834493563638437"><ele>318.0</ele><time>2026-04-23T09:38:45Z</time></trkpt><trkpt lat="46.00225270817597" lon="11.834213374001378"><ele>318.0</ele><time>2026-04-23T09:38:46Z</time></trkpt><trkpt lat="46.00224846303799" lon="11.833923164985588"><ele>318.0</ele><time>2026-04-23T09:38:47Z</time></trkpt><trkpt lat="46.002241428228565" lon="11.833627794760789"><ele>318.0</ele><time>2026-04-23T09:38:48Z</time></trkpt><trkpt lat="46.002234765369494" lon="11.833327343364548"><ele>318.0</ele><time>2026-04-23T09:38:49Z</time></trkpt><trkpt lat="46.00222922924343" lon="11.833022785737151"><ele>318.0</ele><time>2026-04-23T09:38:50Z</time></trkpt><trkpt lat="46.002223582468716" lon="11.832714622407458"><ele>318.0</ele><time>2026-04-23T09:38:51Z</time></trkpt><trkpt lat="46.00221870170612" lon="11.832404766765169"><ele>318.0</ele><time>2026-04-23T09:38:52Z</time></trkpt><trkpt lat="46.00221505575538" lon="11.832091266862058"><ele>318.0</ele><time>2026-04-23T09:38:53Z</time></trkpt><trkpt lat="46.00220967626834" lon="11.831771769797035"><ele>318.0</ele><time>2026-04-23T09:38:54Z</time></trkpt><trkpt lat="46.002203393677085" lon="11.831430615573934"><ele>318.0</ele><time>2026-04-23T09:38:55Z</time></trkpt><trkpt lat="46.002213851967454" lon="11.831033978183843"><ele>318.0</ele><time>2026-04-23T09:38:56Z</time></trkpt><trkpt lat="46.00219135967246" lon="11.830605679268187"><ele>318.0</ele><time>2026-04-23T09:38:57Z</time></trkpt><trkpt lat="46.00220084133511" lon="11.830182569258483"><ele>318.0</ele><time>2026-04-23T09:38:58Z</time></trkpt><trkpt lat="46.002194977195394" lon="11.829798823037118"><ele>317.0</ele><time>2026-04-23T09:38:59Z</time></trkpt><trkpt lat="46.00217261798999" lon="11.829413082357227"><ele>316.0</ele><time>2026-04-23T09:39:00Z</time></trkpt><trkpt lat="46.00216874847649" lon="11.829014377117515"><ele>315.0</ele><time>2026-04-23T09:39:01Z</time></trkpt><trkpt lat="46.00216357424364" lon="11.828600385040446"><ele>314.0</ele><time>2026-04-23T09:39:02Z</time></trkpt><trkpt lat="46.00215547062928" lon="11.82816648526792"><ele>314.0</ele><time>2026-04-23T09:39:03Z</time></trkpt><trkpt lat="46.00214682902392" lon="11.827715209052899"><ele>314.0</ele><time>2026-04-23T09:39:04Z</time></trkpt><trkpt lat="46.00214010046886" lon="11.82728392036432"><ele>314.5</ele><time>2026-04-23T09:39:05Z</time></trkpt><trkpt lat="46.00213489878512" lon="11.826887919105566"><ele>315.0</ele><time>2026-04-23T09:39:06Z</time></trkpt><trkpt lat="46.00212998301474" lon="11.826506784591455"><ele>315.5</ele><time>2026-04-23T09:39:07Z</time></trkpt><trkpt lat="46.002125103235734" lon="11.82612647408614"><ele>316.0</ele><time>2026-04-23T09:39:08Z</time></trkpt><trkpt lat="46.002121086163676" lon="11.82574594390954"><ele>315.0</ele><time>2026-04-23T09:39:09.001Z</time></trkpt><trkpt lat="46.002115761728284" lon="11.825366301257471"><ele>314.0</ele><time>2026-04-23T09:39:10.001Z</time></trkpt><trkpt lat="46.00210897514274" lon="11.824982841266877"><ele>313.5</ele><time>2026-04-23T09:39:11.001Z</time></trkpt><trkpt lat="46.00210121387487" lon="11.824596094299617"><ele>313.0</ele><time>2026-04-23T09:39:12.001Z</time></trkpt><trkpt lat="46.00209298026288" lon="11.824203039351609"><ele>312.0</ele><time>2026-04-23T09:39:13.001Z</time></trkpt><trkpt lat="46.002102098004016" lon="11.82380761643802"><ele>311.0</ele><time>2026-04-23T09:39:14.001Z</time></trkpt><trkpt lat="46.00209613211645" lon="11.823409663614028"><ele>310.0</ele><time>2026-04-23T09:39:15.001Z</time></trkpt><trkpt lat="46.00209012007302" lon="11.823008631972447"><ele>309.0</ele><time>2026-04-23T09:39:16.001Z</time></trkpt><trkpt lat="46.00208388044515" lon="11.822592419396718"><ele>309.0</ele><time>2026-04-23T09:39:17.001Z</time></trkpt><trkpt lat="46.00207745492756" lon="11.822163807351295"><ele>309.0</ele><time>2026-04-23T09:39:18.001Z</time></trkpt><trkpt lat="46.00205485089009" lon="11.821722842891331"><ele>308.5</ele><time>2026-04-23T09:39:19.001Z</time></trkpt><trkpt lat="46.00205151364382" lon="11.821277936517808"><ele>308.0</ele><time>2026-04-23T09:39:20.001Z</time></trkpt><trkpt lat="46.00204503002964" lon="11.820836900132191"><ele>307.0</ele><time>2026-04-23T09:39:21.001Z</time></trkpt><trkpt lat="46.0020383006456" lon="11.820430341259685"><ele>306.0</ele><time>2026-04-23T09:39:22.001Z</time></trkpt><trkpt lat="46.002031513806706" lon="11.820046170723478"><ele>305.5</ele><time>2026-04-23T09:39:23.001Z</time></trkpt><trkpt lat="46.00202589370391" lon="11.81967237479241"><ele>305.0</ele><time>2026-04-23T09:39:24.001Z</time></trkpt><trkpt lat="46.002020014585" lon="11.819307624560386"><ele>305.0</ele><time>2026-04-23T09:39:25.001Z</time></trkpt><trkpt lat="46.00201309369011" lon="11.818945751717143"><ele>305.0</ele><time>2026-04-23T09:39:26.001Z</time></trkpt><trkpt lat="46.00200754160905" lon="11.818588706623299"><ele>304.0</ele><time>2026-04-23T09:39:27.001Z</time></trkpt><trkpt lat="46.00200546156238" lon="11.818230503025152"><ele>303.0</ele><time>2026-04-23T09:39:28.001Z</time></trkpt><trkpt lat="46.002001344821124" lon="11.817864511273202"><ele>303.0</ele><time>2026-04-23T09:39:29.001Z</time></trkpt><trkpt lat="46.00199714790314" lon="11.81748229408795"><ele>303.0</ele><time>2026-04-23T09:39:30.001Z</time></trkpt><trkpt lat="46.00199398298037" lon="11.817093358212892"><ele>303.0</ele><time>2026-04-23T09:39:31.001Z</time></trkpt><trkpt lat="46.001988016775954" lon="11.816696029461877"><ele>303.0</ele><time>2026-04-23T09:39:32.001Z</time></trkpt><trkpt lat="46.001979568847375" lon="11.816293544371987"><ele>301.5</ele><time>2026-04-23T09:39:33.001Z</time></trkpt><trkpt lat="46.00196981223788" lon="11.815885773318367"><ele>300.0</ele><time>2026-04-23T09:39:34.001Z</time></trkpt><trkpt lat="46.001962656240444" lon="11.815474177424772"><ele>299.5</ele><time>2026-04-23T09:39:35.001Z</time></trkpt><trkpt lat="46.00195542399092" lon="11.815060977717282"><ele>299.0</ele><time>2026-04-23T09:39:36.001Z</time></trkpt><trkpt lat="46.00194916741002" lon="11.81465037925765"><ele>298.5</ele><time>2026-04-23T09:39:37.001Z</time></trkpt><trkpt lat="46.00194544712642" lon="11.8142322920216"><ele>298.0</ele><time>2026-04-23T09:39:38.001Z</time></trkpt><trkpt lat="46.001940077237656" lon="11.813816466215766"><ele>298.0</ele><time>2026-04-23T09:39:39.001Z</time></trkpt><trkpt lat="46.00193461458287" lon="11.81340007566027"><ele>298.0</ele><time>2026-04-23T09:39:40.001Z</time></trkpt><trkpt lat="46.0019257105844" lon="11.81298365971415"><ele>296.0</ele><time>2026-04-23T09:39:41.001Z</time></trkpt><trkpt lat="46.00191656135463" lon="11.812581177978757"><ele>294.0</ele><time>2026-04-23T09:39:42.001Z</time></trkpt><trkpt lat="46.00190236895941" lon="11.81215402439024"><ele>293.0</ele><time>2026-04-23T09:39:43.001Z</time></trkpt><trkpt lat="46.00187781946958" lon="11.811767814017772"><ele>292.0</ele><time>2026-04-23T09:39:44.001Z</time></trkpt><trkpt lat="46.00184764512756" lon="11.811433998218785"><ele>292.0</ele><time>2026-04-23T09:39:45.001Z</time></trkpt><trkpt lat="46.00182401207084" lon="11.811127217163417"><ele>292.0</ele><time>2026-04-23T09:39:46.001Z</time></trkpt><trkpt lat="46.00180401165893" lon="11.810844571481942"><ele>292.0</ele><time>2026-04-23T09:39:47.001Z</time></trkpt><trkpt lat="46.00178818613527" lon="11.810581408059374"><ele>292.3333333333333</ele><time>2026-04-23T09:39:48.001Z</time></trkpt><trkpt lat="46.00176928903741" lon="11.8103178133334"><ele>292.6666666666667</ele><time>2026-04-23T09:39:49.001Z</time></trkpt><trkpt lat="46.00174712883792" lon="11.810046063696474"><ele>293.0</ele><time>2026-04-23T09:39:50.001Z</time></trkpt><trkpt lat="46.00172558987025" lon="11.80973658788542"><ele>293.0</ele><time>2026-04-23T09:39:51.001Z</time></trkpt><trkpt lat="46.0017001112418" lon="11.809406181631124"><ele>293.0</ele><time>2026-04-23T09:39:52.001Z</time></trkpt><trkpt lat="46.00167560610597" lon="11.809047482764136"><ele>293.0</ele><time>2026-04-23T09:39:53.001Z</time></trkpt><trkpt lat="46.001652958863566" lon="11.808668506115984"><ele>293.0</ele><time>2026-04-23T09:39:54.001Z</time></trkpt><trkpt lat="46.00162926354862" lon="11.808326481430049"><ele>293.0</ele><time>2026-04-23T09:39:55.001Z</time></trkpt><trkpt lat="46.001597831591695" lon="11.807985399595452"><ele>293.0</ele><time>2026-04-23T09:39:56.001Z</time></trkpt><trkpt lat="46.00154160006809" lon="11.807618156634119"><ele>292.5</ele><time>2026-04-23T09:39:57.001Z</time></trkpt><trkpt lat="46.00147465420522" lon="11.807242062973309"><ele>292.0</ele><time>2026-04-23T09:39:58.001Z</time></trkpt><trkpt lat="46.00139105095214" lon="11.806885957655672"><ele>293.0</ele><time>2026-04-23T09:39:59.001Z</time></trkpt><trkpt lat="46.00128540588016" lon="11.806521703688949"><ele>294.0</ele><time>2026-04-23T09:40:00.001Z</time></trkpt><trkpt lat="46.00115727088532" lon="11.806153466765155"><ele>294.5</ele><time>2026-04-23T09:40:01.001Z</time></trkpt><trkpt lat="46.00100763441265" lon="11.805793116958895"><ele>295.0</ele><time>2026-04-23T09:40:02.001Z</time></trkpt><trkpt lat="46.00083629489816" lon="11.805444927786745"><ele>301.0</ele><time>2026-04-23T09:40:03.001Z</time></trkpt><trkpt lat="46.00065144962265" lon="11.805111138489082"><ele>307.0</ele><time>2026-04-23T09:40:04.001Z</time></trkpt><trkpt lat="46.00044627763713" lon="11.804797555440729"><ele>307.0</ele><time>2026-04-23T09:40:05.001Z</time></trkpt><trkpt lat="46.00022450376122" lon="11.804489088436753"><ele>307.0</ele><time>2026-04-23T09:40:06.001Z</time></trkpt><trkpt lat="46.000001869299965" lon="11.804189981344388"><ele>304.0</ele><time>2026-04-23T09:40:07.001Z</time></trkpt><trkpt lat="45.99979762002824" lon="11.803918258991468"><ele>301.0</ele><time>2026-04-23T09:40:08.001Z</time></trkpt><trkpt lat="45.999605119391866" lon="11.803667421171843"><ele>296.0</ele><time>2026-04-23T09:40:09.001Z</time></trkpt><trkpt lat="45.99942261400661" lon="11.803421595152425"><ele>291.0</ele><time>2026-04-23T09:40:10.001Z</time></trkpt><trkpt lat="45.999240237260004" lon="11.80317641976836"><ele>293.0</ele><time>2026-04-23T09:40:11.001Z</time></trkpt><trkpt lat="45.999053757602645" lon="11.802913075011286"><ele>295.0</ele><time>2026-04-23T09:40:12.001Z</time></trkpt><trkpt lat="45.998862226689866" lon="11.802648305460659"><ele>295.0</ele><time>2026-04-23T09:40:13.001Z</time></trkpt><trkpt lat="45.99867065535644" lon="11.802374598192646"><ele>295.0</ele><time>2026-04-23T09:40:14.001Z</time></trkpt><trkpt lat="45.99848350858869" lon="11.802093038233165"><ele>295.0</ele><time>2026-04-23T09:40:15.001Z</time></trkpt><trkpt lat="45.998299112011075" lon="11.80180197014987"><ele>295.0</ele><time>2026-04-23T09:40:16.001Z</time></trkpt><trkpt lat="45.99811551559035" lon="11.801507668899893"><ele>295.0</ele><time>2026-04-23T09:40:17.001Z</time></trkpt><trkpt lat="45.99793189356899" lon="11.801204779004953"><ele>295.0</ele><time>2026-04-23T09:40:18.001Z</time></trkpt><trkpt lat="45.9977343506985" lon="11.80088657986611"><ele>292.5</ele><time>2026-04-23T09:40:19.001Z</time></trkpt><trkpt lat="45.9975483260541" lon="11.800594385493751"><ele>290.0</ele><time>2026-04-23T09:40:20.001Z</time></trkpt><trkpt lat="45.99737805042815" lon="11.800324731773648"><ele>293.0</ele><time>2026-04-23T09:40:21.001Z</time></trkpt><trkpt lat="45.99721651752868" lon="11.800063374636727"><ele>296.0</ele><time>2026-04-23T09:40:22.001Z</time></trkpt><trkpt lat="45.99705545506527" lon="11.799803444788171"><ele>296.0</ele><time>2026-04-23T09:40:23.001Z</time></trkpt><trkpt lat="45.996896551983916" lon="11.799548231514866"><ele>296.0</ele><time>2026-04-23T09:40:24.001Z</time></trkpt><trkpt lat="45.9967367600232" lon="11.799289704380623"><ele>293.5</ele><time>2026-04-23T09:40:25.001Z</time></trkpt><trkpt lat="45.99657134720826" lon="11.79902279660005"><ele>291.0</ele><time>2026-04-23T09:40:26.001Z</time></trkpt><trkpt lat="45.996404368757425" lon="11.79875162507809"><ele>288.5</ele><time>2026-04-23T09:40:27.001Z</time></trkpt><trkpt lat="45.9962404016934" lon="11.798491397090107"><ele>286.0</ele><time>2026-04-23T09:40:28.001Z</time></trkpt><trkpt lat="45.99607461296542" lon="11.798228409108683"><ele>286.0</ele><time>2026-04-23T09:40:29.001Z</time></trkpt><trkpt lat="45.99590812766385" lon="11.797964917859865"><ele>286.0</ele><time>2026-04-23T09:40:30.001Z</time></trkpt><trkpt lat="45.995741541175846" lon="11.797695925068394"><ele>287.0</ele><time>2026-04-23T09:40:31.001Z</time></trkpt><trkpt lat="45.995579737319346" lon="11.797436728662857"><ele>288.0</ele><time>2026-04-23T09:40:32.001Z</time></trkpt><trkpt lat="45.995419057564455" lon="11.797179567845756"><ele>288.0</ele><time>2026-04-23T09:40:33.001Z</time></trkpt><trkpt lat="45.99525878242101" lon="11.796917814984315"><ele>288.0</ele><time>2026-04-23T09:40:34.001Z</time></trkpt><trkpt lat="45.995103125811724" lon="11.796657962214978"><ele>287.6666666666667</ele><time>2026-04-23T09:40:35.001Z</time></trkpt><trkpt lat="45.9949585389445" lon="11.796411774724161"><ele>287.33333333333337</ele><time>2026-04-23T09:40:36.001Z</time></trkpt><trkpt lat="45.994822764141524" lon="11.796174528555078"><ele>287.0</ele><time>2026-04-23T09:40:37.001Z</time></trkpt><trkpt lat="45.99470569872261" lon="11.795924287068312"><ele>285.6666666666667</ele><time>2026-04-23T09:40:38.001Z</time></trkpt><trkpt lat="45.994579391503066" lon="11.795685951873718"><ele>284.3333333333333</ele><time>2026-04-23T09:40:39.001Z</time></trkpt><trkpt lat="45.99445556145382" lon="11.795445139899371"><ele>283.0</ele><time>2026-04-23T09:40:40.001Z</time></trkpt><trkpt lat="45.99433269476424" lon="11.795203983685893"><ele>282.0</ele><time>2026-04-23T09:40:41.001Z</time></trkpt><trkpt lat="45.99420065769006" lon="11.794973396861595"><ele>281.0</ele><time>2026-04-23T09:40:42.001Z</time></trkpt><trkpt lat="45.99408520731924" lon="11.794729229911841"><ele>280.0</ele><time>2026-04-23T09:40:43.001Z</time></trkpt><trkpt lat="45.993968332358236" lon="11.794485592651236"><ele>280.66666666666663</ele><time>2026-04-23T09:40:44.001Z</time></trkpt><trkpt lat="45.9938726481834" lon="11.794242510202862"><ele>281.3333333333333</ele><time>2026-04-23T09:40:45.001Z</time></trkpt><trkpt lat="45.993768334110776" lon="11.794022829818264"><ele>282.0</ele><time>2026-04-23T09:40:46.001Z</time></trkpt><trkpt lat="45.99365184643272" lon="11.793814981186685"><ele>282.0</ele><time>2026-04-23T09:40:47.001Z</time></trkpt><trkpt lat="45.99355967646639" lon="11.793580346928582"><ele>282.0</ele><time>2026-04-23T09:40:48.001Z</time></trkpt><trkpt lat="45.99345387479225" lon="11.793355982136772"><ele>282.0</ele><time>2026-04-23T09:40:49.001Z</time></trkpt><trkpt lat="45.9933435266068" lon="11.793128787049243"><ele>281.0</ele><time>2026-04-23T09:40:50.001Z</time></trkpt><trkpt lat="45.993224384124204" lon="11.792905757446885"><ele>280.0</ele><time>2026-04-23T09:40:51.001Z</time></trkpt><trkpt lat="45.99309532263043" lon="11.792690275376518"><ele>279.0</ele><time>2026-04-23T09:40:52.001Z</time></trkpt><trkpt lat="45.99295344935673" lon="11.792481827037559"><ele>279.0</ele><time>2026-04-23T09:40:53.001Z</time></trkpt><trkpt lat="45.992798119100904" lon="11.792288660035785"><ele>279.0</ele><time>2026-04-23T09:40:54.001Z</time></trkpt><trkpt lat="45.99263374288442" lon="11.792109898772482"><ele>279.0</ele><time>2026-04-23T09:40:55.001Z</time></trkpt><trkpt lat="45.99246571034928" lon="11.791943547226921"><ele>280.0</ele><time>2026-04-23T09:40:56.001Z</time></trkpt><trkpt lat="45.992300476523184" lon="11.791788094836436"><ele>281.0</ele><time>2026-04-23T09:40:57.001Z</time></trkpt><trkpt lat="45.9921390713192" lon="11.79164063127156"><ele>282.0</ele><time>2026-04-23T09:40:58.001Z</time></trkpt><trkpt lat="45.99198085619786" lon="11.791496082242787"><ele>282.0</ele><time>2026-04-23T09:40:59.001Z</time></trkpt><trkpt lat="45.99181352802881" lon="11.791367515841708"><ele>282.0</ele><time>2026-04-23T09:41:00.001Z</time></trkpt><trkpt lat="45.99165290606926" lon="11.791215638697496"><ele>282.0</ele><time>2026-04-23T09:41:01.001Z</time></trkpt><trkpt lat="45.991495515096936" lon="11.79106102636011"><ele>283.0</ele><time>2026-04-23T09:41:02.001Z</time></trkpt><trkpt lat="45.991350335550266" lon="11.790910450602864"><ele>284.0</ele><time>2026-04-23T09:41:03.001Z</time></trkpt><trkpt lat="45.99120665343596" lon="11.790751888002207"><ele>285.0</ele><time>2026-04-23T09:41:04.001Z</time></trkpt><trkpt lat="45.99106883302459" lon="11.790585362681483"><ele>285.0</ele><time>2026-04-23T09:41:05.001Z</time></trkpt><trkpt lat="45.99093191736396" lon="11.790413987431018"><ele>285.0</ele><time>2026-04-23T09:41:06.001Z</time></trkpt><trkpt lat="45.99079858750082" lon="11.790238216327857"><ele>285.0</ele><time>2026-04-23T09:41:07.001Z</time></trkpt><trkpt lat="45.99066617398107" lon="11.790061876058804"><ele>287.0</ele><time>2026-04-23T09:41:08.001Z</time></trkpt><trkpt lat="45.990536514369374" lon="11.789879536163614"><ele>289.0</ele><time>2026-04-23T09:41:09.001Z</time></trkpt><trkpt lat="45.990415832976055" lon="11.789704421984764"><ele>291.0</ele><time>2026-04-23T09:41:10.001Z</time></trkpt><trkpt lat="45.99030564540353" lon="11.789539838319616"><ele>291.0</ele><time>2026-04-23T09:41:11.001Z</time></trkpt><trkpt lat="45.990189878894356" lon="11.78936576150645"><ele>291.0</ele><time>2026-04-23T09:41:12.001Z</time></trkpt><trkpt lat="45.99005335485401" lon="11.789175493531438"><ele>291.0</ele><time>2026-04-23T09:41:13.001Z</time></trkpt><trkpt lat="45.98989849101306" lon="11.788970725154003"><ele>290.6666666666667</ele><time>2026-04-23T09:41:14.001Z</time></trkpt><trkpt lat="45.9897412436829" lon="11.788774933996931"><ele>290.33333333333337</ele><time>2026-04-23T09:41:15.001Z</time></trkpt><trkpt lat="45.98956723996911" lon="11.78859514085818"><ele>290.0</ele><time>2026-04-23T09:41:16.001Z</time></trkpt><trkpt lat="45.989363949177424" lon="11.788434938947592"><ele>287.33333333333337</ele><time>2026-04-23T09:41:17.001Z</time></trkpt><trkpt lat="45.989160727036236" lon="11.788297962266897"><ele>284.6666666666667</ele><time>2026-04-23T09:41:18.001Z</time></trkpt><trkpt lat="45.988978149469744" lon="11.788172491360616"><ele>282.0</ele><time>2026-04-23T09:41:19.001Z</time></trkpt><trkpt lat="45.98878904151202" lon="11.788045556716723"><ele>282.0</ele><time>2026-04-23T09:41:20.001Z</time></trkpt><trkpt lat="45.988592428021114" lon="11.78791459809849"><ele>282.0</ele><time>2026-04-23T09:41:21.001Z</time></trkpt><trkpt lat="45.98838554508933" lon="11.787783283422797"><ele>282.0</ele><time>2026-04-23T09:41:22.001Z</time></trkpt><trkpt lat="45.98817085273857" lon="11.787649894038392"><ele>280.5</ele><time>2026-04-23T09:41:23.001Z</time></trkpt><trkpt lat="45.98795429808766" lon="11.78751280613086"><ele>279.0</ele><time>2026-04-23T09:41:24.001Z</time></trkpt><trkpt lat="45.98775521495416" lon="11.78738099321166"><ele>279.0</ele><time>2026-04-23T09:41:25.001Z</time></trkpt><trkpt lat="45.98756060643397" lon="11.78725088205678"><ele>279.0</ele><time>2026-04-23T09:41:26.001Z</time></trkpt><trkpt lat="45.9873567073387" lon="11.78711782398512"><ele>279.0</ele><time>2026-04-23T09:41:27.001Z</time></trkpt><trkpt lat="45.98713741579529" lon="11.786981015118094"><ele>277.0</ele><time>2026-04-23T09:41:28.001Z</time></trkpt><trkpt lat="45.98690222360198" lon="11.78683648755426"><ele>275.0</ele><time>2026-04-23T09:41:29.001Z</time></trkpt><trkpt lat="45.98665967429576" lon="11.786689146310275"><ele>274.0</ele><time>2026-04-23T09:41:30.001Z</time></trkpt><trkpt lat="45.98639649870571" lon="11.78653479527989"><ele>273.0</ele><time>2026-04-23T09:41:31.001Z</time></trkpt><trkpt lat="45.986118854516775" lon="11.786365297005426"><ele>271.5</ele><time>2026-04-23T09:41:32.001Z</time></trkpt><trkpt lat="45.98583920315943" lon="11.786183044449004"><ele>270.0</ele><time>2026-04-23T09:41:33.001Z</time></trkpt><trkpt lat="45.985562118807806" lon="11.785994646329854"><ele>270.0</ele><time>2026-04-23T09:41:34.001Z</time></trkpt><trkpt lat="45.98527583302895" lon="11.785809434711796"><ele>270.0</ele><time>2026-04-23T09:41:35.001Z</time></trkpt><trkpt lat="45.98501592077342" lon="11.78564887866116"><ele>270.0</ele><time>2026-04-23T09:41:36.001Z</time></trkpt><trkpt lat="45.984770751245094" lon="11.785495592186141"><ele>270.0</ele><time>2026-04-23T09:41:37.001Z</time></trkpt><trkpt lat="45.98453156431258" lon="11.785337071748335"><ele>269.5</ele><time>2026-04-23T09:41:38.001Z</time></trkpt><trkpt lat="45.98430457302014" lon="11.785165734306714"><ele>269.0</ele><time>2026-04-23T09:41:39.001Z</time></trkpt><trkpt lat="45.984091227177046" lon="11.78497634495806"><ele>269.0</ele><time>2026-04-23T09:41:40.001Z</time></trkpt><trkpt lat="45.98388991884101" lon="11.784769338846813"><ele>269.0</ele><time>2026-04-23T09:41:41.001Z</time></trkpt><trkpt lat="45.98369656810667" lon="11.784546328226385"><ele>269.0</ele><time>2026-04-23T09:41:42.001Z</time></trkpt><trkpt lat="45.98351081503712" lon="11.784307093877066"><ele>269.0</ele><time>2026-04-23T09:41:43.001Z</time></trkpt><trkpt lat="45.98333530597148" lon="11.78405300334926"><ele>269.0</ele><time>2026-04-23T09:41:44.001Z</time></trkpt><trkpt lat="45.98317282466771" lon="11.783777003728435"><ele>269.0</ele><time>2026-04-23T09:41:45.001Z</time></trkpt><trkpt lat="45.983027852206284" lon="11.783488724689777"><ele>269.0</ele><time>2026-04-23T09:41:46.001Z</time></trkpt><trkpt lat="45.98290011121286" lon="11.783196201310691"><ele>269.0</ele><time>2026-04-23T09:41:47.001Z</time></trkpt><trkpt lat="45.98278608452641" lon="11.782887254543757"><ele>269.0</ele><time>2026-04-23T09:41:48.001Z</time></trkpt><trkpt lat="45.98268642119161" lon="11.782571614609516"><ele>269.0</ele><time>2026-04-23T09:41:49.001Z</time></trkpt><trkpt lat="45.98259763042149" lon="11.782252278854564"><ele>269.0</ele><time>2026-04-23T09:41:50.001Z</time></trkpt><trkpt lat="45.982517678806545" lon="11.781943391881587"><ele>269.0</ele><time>2026-04-23T09:41:51.001Z</time></trkpt><trkpt lat="45.98244198243518" lon="11.781641124872497"><ele>274.33333333333337</ele><time>2026-04-23T09:41:52.001Z</time></trkpt><trkpt lat="45.98237029911361" lon="11.78134995892821"><ele>279.6666666666667</ele><time>2026-04-23T09:41:53.001Z</time></trkpt><trkpt lat="45.98229908936156" lon="11.781063341848434"><ele>285.0</ele><time>2026-04-23T09:41:54.001Z</time></trkpt><trkpt lat="45.98222774523384" lon="11.78077581107377"><ele>300.6666666666667</ele><time>2026-04-23T09:41:55.02Z</time></trkpt><trkpt lat="45.98216068448547" lon="11.780500836242917"><ele>316.33333333333337</ele><time>2026-04-23T09:41:56.021Z</time></trkpt><trkpt lat="45.982095478765416" lon="11.780230001914108"><ele>332.0</ele><time>2026-04-23T09:41:57.02Z</time></trkpt><trkpt lat="45.98202591741757" lon="11.779957577115045"><ele>323.33333333333337</ele><time>2026-04-23T09:41:58.021Z</time></trkpt><trkpt lat="45.98195022555129" lon="11.779687688866474"><ele>314.6666666666667</ele><time>2026-04-23T09:41:59.019Z</time></trkpt><trkpt lat="45.98187280627377" lon="11.779417482696063"><ele>306.0</ele><time>2026-04-23T09:42:00.018Z</time></trkpt><trkpt lat="45.98097821701875" lon="11.777232354517817"><ele>288.0</ele><time>2026-04-23T09:42:07.001Z</time></trkpt><trkpt lat="45.98082884135408" lon="11.776889359181272"><ele>270.0</ele><time>2026-04-23T09:42:08.001Z</time></trkpt><trkpt lat="45.980743714014785" lon="11.776539211640433"><ele>270.0</ele><time>2026-04-23T09:42:09.001Z</time></trkpt><trkpt lat="45.980591464309654" lon="11.776165460051981"><ele>270.0</ele><time>2026-04-23T09:42:10.001Z</time></trkpt><trkpt lat="45.980444315904" lon="11.775790081491131"><ele>271.5</ele><time>2026-04-23T09:42:11.001Z</time></trkpt><trkpt lat="45.98031523073302" lon="11.77540663157793"><ele>273.0</ele><time>2026-04-23T09:42:12.001Z</time></trkpt><trkpt lat="45.98021685597664" lon="11.775030814465433"><ele>273.0</ele><time>2026-04-23T09:42:13.001Z</time></trkpt><trkpt lat="45.98014815781587" lon="11.77463571756652"><ele>273.0</ele><time>2026-04-23T09:42:14.001Z</time></trkpt><trkpt lat="45.980100054579665" lon="11.774209986599027"><ele>273.0</ele><time>2026-04-23T09:42:15.001Z</time></trkpt><trkpt lat="45.98007405555168" lon="11.773795451787796"><ele>273.0</ele><time>2026-04-23T09:42:16.001Z</time></trkpt><trkpt lat="45.98007488796686" lon="11.773367538144349"><ele>274.0</ele><time>2026-04-23T09:42:17.001Z</time></trkpt><trkpt lat="45.98009739947972" lon="11.77292737365294"><ele>275.0</ele><time>2026-04-23T09:42:18.001Z</time></trkpt><trkpt lat="45.98013581496251" lon="11.77247992695901"><ele>279.0</ele><time>2026-04-23T09:42:19.001Z</time></trkpt><trkpt lat="45.980185281933316" lon="11.772029074785165"><ele>283.0</ele><time>2026-04-23T09:42:20.001Z</time></trkpt><trkpt lat="45.9802328644294" lon="11.771588988178767"><ele>284.5</ele><time>2026-04-23T09:42:21.001Z</time></trkpt><trkpt lat="45.98026977655079" lon="11.771154941546252"><ele>286.0</ele><time>2026-04-23T09:42:22.001Z</time></trkpt><trkpt lat="45.98027957355317" lon="11.77072309835356"><ele>288.0</ele><time>2026-04-23T09:42:23.001Z</time></trkpt><trkpt lat="45.980265652875275" lon="11.770280265159357"><ele>290.0</ele><time>2026-04-23T09:42:24.001Z</time></trkpt><trkpt lat="45.98024875353589" lon="11.769822954418776"><ele>297.5</ele><time>2026-04-23T09:42:25.001Z</time></trkpt><trkpt lat="45.980233365267566" lon="11.769357498197143"><ele>305.0</ele><time>2026-04-23T09:42:26.001Z</time></trkpt><trkpt lat="45.98021764876036" lon="11.768884815104883"><ele>307.5</ele><time>2026-04-23T09:42:27.001Z</time></trkpt><trkpt lat="45.98020234114633" lon="11.768440447978032"><ele>310.0</ele><time>2026-04-23T09:42:28.001Z</time></trkpt><trkpt lat="45.98018849642615" lon="11.768036259336128"><ele>311.0</ele><time>2026-04-23T09:42:29.001Z</time></trkpt><trkpt lat="45.980175546356726" lon="11.767634598850284"><ele>312.0</ele><time>2026-04-23T09:42:30.001Z</time></trkpt><trkpt lat="45.98016288559713" lon="11.76723480419172"><ele>312.5</ele><time>2026-04-23T09:42:31.001Z</time></trkpt><trkpt lat="45.98015107209425" lon="11.766846051852841"><ele>313.0</ele><time>2026-04-23T09:42:32.001Z</time></trkpt><trkpt lat="45.98013810187141" lon="11.766475071245216"><ele>313.0</ele><time>2026-04-23T09:42:33.001Z</time></trkpt><trkpt lat="45.98012545413957" lon="11.766118057344832"><ele>313.0</ele><time>2026-04-23T09:42:34.001Z</time></trkpt><trkpt lat="45.98011488784877" lon="11.76576941712343"><ele>314.0</ele><time>2026-04-23T09:42:35.019Z</time></trkpt><trkpt lat="45.98010402538113" lon="11.765434008056548"><ele>315.0</ele><time>2026-04-23T09:42:36.021Z</time></trkpt><trkpt lat="45.98009223855919" lon="11.76510252340982"><ele>315.0</ele><time>2026-04-23T09:42:37.02Z</time></trkpt><trkpt lat="45.980080468137174" lon="11.764784950475244"><ele>315.0</ele><time>2026-04-23T09:42:38.02Z</time></trkpt><trkpt lat="45.98007234718008" lon="11.764490202145296"><ele>315.0</ele><time>2026-04-23T09:42:39.022Z</time></trkpt><trkpt lat="45.98006451548084" lon="11.76420349486406"><ele>313.6666666666667</ele><time>2026-04-23T09:42:40.001Z</time></trkpt><trkpt lat="45.98004701882996" lon="11.763957539649548"><ele>312.33333333333337</ele><time>2026-04-23T09:42:41.001Z</time></trkpt><trkpt lat="45.98002471322469" lon="11.7636892592433"><ele>311.0</ele><time>2026-04-23T09:42:42.001Z</time></trkpt><trkpt lat="45.9799921673502" lon="11.76341844889668"><ele>309.6666666666667</ele><time>2026-04-23T09:42:43.001Z</time></trkpt><trkpt lat="45.97994466461728" lon="11.763150091059462"><ele>308.3333333333333</ele><time>2026-04-23T09:42:44.001Z</time></trkpt><trkpt lat="45.97988364157103" lon="11.762883591347997"><ele>307.0</ele><time>2026-04-23T09:42:45.001Z</time></trkpt><trkpt lat="45.97981520558893" lon="11.76261743210377"><ele>306.0</ele><time>2026-04-23T09:42:46.001Z</time></trkpt><trkpt lat="45.97973751472161" lon="11.762354640656804"><ele>305.0</ele><time>2026-04-23T09:42:47.001Z</time></trkpt><trkpt lat="45.97964732171232" lon="11.762100076797624"><ele>304.0</ele><time>2026-04-23T09:42:48.001Z</time></trkpt><trkpt lat="45.97954518492147" lon="11.76185194743257"><ele>303.3333333333333</ele><time>2026-04-23T09:42:49.001Z</time></trkpt><trkpt lat="45.979434965593164" lon="11.761608593314698"><ele>302.6666666666667</ele><time>2026-04-23T09:42:50.001Z</time></trkpt><trkpt lat="45.979317844896705" lon="11.761378687158993"><ele>302.0</ele><time>2026-04-23T09:42:51.001Z</time></trkpt><trkpt lat="45.979200170034744" lon="11.761172396738804"><ele>301.33333333333337</ele><time>2026-04-23T09:42:52.001Z</time></trkpt><trkpt lat="45.97907843682202" lon="11.760985638843605"><ele>300.6666666666667</ele><time>2026-04-23T09:42:53.001Z</time></trkpt><trkpt lat="45.97895030222664" lon="11.760811828324584"><ele>300.0</ele><time>2026-04-23T09:42:54.001Z</time></trkpt><trkpt lat="45.97881763387358" lon="11.76064291830344"><ele>300.0</ele><time>2026-04-23T09:42:55.001Z</time></trkpt><trkpt lat="45.97867937199525" lon="11.7604797969122"><ele>300.0</ele><time>2026-04-23T09:42:56.001Z</time></trkpt><trkpt lat="45.9785346779127" lon="11.76032974499531"><ele>300.0</ele><time>2026-04-23T09:42:57.001Z</time></trkpt><trkpt lat="45.9783822813656" lon="11.760194508735971"><ele>298.6666666666667</ele><time>2026-04-23T09:42:58.001Z</time></trkpt><trkpt lat="45.978225355190474" lon="11.760067641424017"><ele>297.33333333333337</ele><time>2026-04-23T09:42:59.001Z</time></trkpt><trkpt lat="45.978064659406456" lon="11.759954740012121"><ele>296.0</ele><time>2026-04-23T09:43:00.001Z</time></trkpt><trkpt lat="45.977908210720535" lon="11.759863257488869"><ele>296.0</ele><time>2026-04-23T09:43:01.001Z</time></trkpt><trkpt lat="45.97775670886502" lon="11.759781550166627"><ele>296.0</ele><time>2026-04-23T09:43:02.001Z</time></trkpt><trkpt lat="45.97758848181815" lon="11.759704072946992"><ele>296.0</ele><time>2026-04-23T09:43:03.001Z</time></trkpt><trkpt lat="45.97739212815148" lon="11.759628211859381"><ele>298.6666666666667</ele><time>2026-04-23T09:43:04.001Z</time></trkpt><trkpt lat="45.97717264159284" lon="11.759561562995549"><ele>301.3333333333333</ele><time>2026-04-23T09:43:05.001Z</time></trkpt><trkpt lat="45.976961650430155" lon="11.759502394614637"><ele>304.0</ele><time>2026-04-23T09:43:06.001Z</time></trkpt><trkpt lat="45.97675190708458" lon="11.759461053770833"><ele>307.66666666666663</ele><time>2026-04-23T09:43:07.001Z</time></trkpt><trkpt lat="45.97654132064619" lon="11.759423531798845"><ele>311.3333333333333</ele><time>2026-04-23T09:43:08.001Z</time></trkpt><trkpt lat="45.97633053258899" lon="11.759385981717905"><ele>315.0</ele><time>2026-04-23T09:43:09.001Z</time></trkpt><trkpt lat="45.97610208928094" lon="11.759342291886266"><ele>303.5</ele><time>2026-04-23T09:43:10.001Z</time></trkpt><trkpt lat="45.97584958289013" lon="11.759307137565438"><ele>292.0</ele><time>2026-04-23T09:43:11.001Z</time></trkpt><trkpt lat="45.97557275971345" lon="11.759270578530566"><ele>292.0</ele><time>2026-04-23T09:43:12.001Z</time></trkpt><trkpt lat="45.97527909261344" lon="11.759229740797899"><ele>292.0</ele><time>2026-04-23T09:43:13.001Z</time></trkpt><trkpt lat="45.97498845965639" lon="11.759187615368145"><ele>293.0</ele><time>2026-04-23T09:43:14.001Z</time></trkpt><trkpt lat="45.97472168195193" lon="11.759150205378406"><ele>294.0</ele><time>2026-04-23T09:43:15.001Z</time></trkpt><trkpt lat="45.97445807507625" lon="11.75910712257047"><ele>294.0</ele><time>2026-04-23T09:43:16.001Z</time></trkpt><trkpt lat="45.974195699401854" lon="11.759064966023212"><ele>294.0</ele><time>2026-04-23T09:43:17.001Z</time></trkpt><trkpt lat="45.973936420485366" lon="11.759025044962238"><ele>297.0</ele><time>2026-04-23T09:43:18.001Z</time></trkpt><trkpt lat="45.97367507384289" lon="11.75898819712885"><ele>300.0</ele><time>2026-04-23T09:43:19.001Z</time></trkpt><trkpt lat="45.973412859355854" lon="11.758953521433948"><ele>297.5</ele><time>2026-04-23T09:43:20.001Z</time></trkpt><trkpt lat="45.97314750757203" lon="11.758917883956268"><ele>295.0</ele><time>2026-04-23T09:43:21.001Z</time></trkpt><trkpt lat="45.97287867447684" lon="11.758880711247578"><ele>295.0</ele><time>2026-04-23T09:43:22.001Z</time></trkpt><trkpt lat="45.97260634471692" lon="11.758841084128216"><ele>295.0</ele><time>2026-04-23T09:43:23.001Z</time></trkpt><trkpt lat="45.972333118250155" lon="11.758787833280795"><ele>295.5</ele><time>2026-04-23T09:43:24.001Z</time></trkpt><trkpt lat="45.972061540255446" lon="11.75870946133287"><ele>296.0</ele><time>2026-04-23T09:43:25.001Z</time></trkpt><trkpt lat="45.971804631833386" lon="11.758610046269476"><ele>293.0</ele><time>2026-04-23T09:43:26.001Z</time></trkpt><trkpt lat="45.971564406024335" lon="11.758488241565985"><ele>290.0</ele><time>2026-04-23T09:43:27.001Z</time></trkpt><trkpt lat="45.97131578691634" lon="11.758326465181032"><ele>290.0</ele><time>2026-04-23T09:43:28.001Z</time></trkpt><trkpt lat="45.971069762547835" lon="11.758138359307317"><ele>290.0</ele><time>2026-04-23T09:43:29.001Z</time></trkpt><trkpt lat="45.97084419241955" lon="11.757936243767368"><ele>289.5</ele><time>2026-04-23T09:43:30.001Z</time></trkpt><trkpt lat="45.97064887576547" lon="11.757721551868006"><ele>289.0</ele><time>2026-04-23T09:43:31.001Z</time></trkpt><trkpt lat="45.9704629979662" lon="11.757474466678133"><ele>287.5</ele><time>2026-04-23T09:43:32.001Z</time></trkpt><trkpt lat="45.97028388640536" lon="11.757199748385716"><ele>286.0</ele><time>2026-04-23T09:43:33.001Z</time></trkpt><trkpt lat="45.97011628124664" lon="11.756900826474665"><ele>284.0</ele><time>2026-04-23T09:43:34.001Z</time></trkpt><trkpt lat="45.96995751489981" lon="11.756578608374227"><ele>282.0</ele><time>2026-04-23T09:43:35.001Z</time></trkpt><trkpt lat="45.969801325659745" lon="11.756228855917875"><ele>283.0</ele><time>2026-04-23T09:43:36.001Z</time></trkpt><trkpt lat="45.96963812609896" lon="11.755868086464458"><ele>284.0</ele><time>2026-04-23T09:43:37.001Z</time></trkpt><trkpt lat="45.96946878438365" lon="11.75550398583794"><ele>285.0</ele><time>2026-04-23T09:43:38.001Z</time></trkpt><trkpt lat="45.96929770953297" lon="11.755142043192059"><ele>286.0</ele><time>2026-04-23T09:43:39.001Z</time></trkpt><trkpt lat="45.96913756196657" lon="11.754797433779956"><ele>287.0</ele><time>2026-04-23T09:43:40.001Z</time></trkpt><trkpt lat="45.968990914871995" lon="11.754473801963023"><ele>288.0</ele><time>2026-04-23T09:43:41.001Z</time></trkpt><trkpt lat="45.968853081420825" lon="11.754163941986093"><ele>296.0</ele><time>2026-04-23T09:43:42.001Z</time></trkpt><trkpt lat="45.96871936751406" lon="11.753872591833062"><ele>304.0</ele><time>2026-04-23T09:43:43.001Z</time></trkpt><trkpt lat="45.968587686429224" lon="11.753582680093961"><ele>325.0</ele><time>2026-04-23T09:43:44.001Z</time></trkpt><trkpt lat="45.96844691329625" lon="11.753271198758595"><ele>346.0</ele><time>2026-04-23T09:43:45.001Z</time></trkpt><trkpt lat="45.96830026522809" lon="11.75294439518721"><ele>370.0</ele><time>2026-04-23T09:43:46.016Z</time></trkpt><trkpt lat="45.96815203140783" lon="11.752614196446588"><ele>394.0</ele><time>2026-04-23T09:43:47.019Z</time></trkpt><trkpt lat="45.96799395007864" lon="11.752266081866123"><ele>394.0</ele><time>2026-04-23T09:43:48.019Z</time></trkpt><trkpt lat="45.967829941246045" lon="11.751903570256951"><ele>394.0</ele><time>2026-04-23T09:43:49.021Z</time></trkpt><trkpt lat="45.967662966109536" lon="11.7515317391662"><ele>411.0</ele><time>2026-04-23T09:43:50.02Z</time></trkpt><trkpt lat="45.96748857059649" lon="11.751145222577465"><ele>428.0</ele><time>2026-04-23T09:43:51.02Z</time></trkpt><trkpt lat="45.966077245144504" lon="11.748114726498963"><ele>631.0</ele><time>2026-04-23T09:43:55.715Z</time></trkpt><trkpt lat="45.96578173757841" lon="11.747470896210281"><ele>651.0</ele><time>2026-04-23T09:43:56.711Z</time></trkpt><trkpt lat="45.965483691347764" lon="11.7468215348648"><ele>651.0</ele><time>2026-04-23T09:43:57.715Z</time></trkpt><trkpt lat="45.96518691121225" lon="11.746174931994863"><ele>652.5</ele><time>2026-04-23T09:43:58.715Z</time></trkpt><trkpt lat="45.9650923" lon="11.7459688"><ele>654.0</ele><time>2026-04-23T09:43:59.715Z</time></trkpt><trkpt lat="45.953785143835425" lon="11.720975199725219"><ele>571.0</ele><time>2026-04-23T09:46:13.001Z</time></trkpt><trkpt lat="45.95376420521666" lon="11.720824282816197"><ele>488.0</ele><time>2026-04-23T09:46:14.001Z</time></trkpt><trkpt lat="45.9537665921629" lon="11.720664488414291"><ele>405.0</ele><time>2026-04-23T09:46:15.001Z</time></trkpt><trkpt lat="45.953796850943675" lon="11.720524518471334"><ele>322.0</ele><time>2026-04-23T09:46:16.001Z</time></trkpt><trkpt lat="45.95381811448827" lon="11.72040386053237"><ele>239.0</ele><time>2026-04-23T09:46:17.001Z</time></trkpt><trkpt lat="45.9538552016316" lon="11.720277296801765"><ele>234.5</ele><time>2026-04-23T09:46:18.001Z</time></trkpt><trkpt lat="45.953904566625376" lon="11.720134246676091"><ele>230.0</ele><time>2026-04-23T09:46:19.002Z</time></trkpt><trkpt lat="45.9539653102379" lon="11.719972239635855"><ele>225.5</ele><time>2026-04-23T09:46:20.002Z</time></trkpt><trkpt lat="45.954035148423415" lon="11.719803974163112"><ele>221.0</ele><time>2026-04-23T09:46:21.002Z</time></trkpt><trkpt lat="45.95409404107888" lon="11.719654069242816"><ele>221.0</ele><time>2026-04-23T09:46:22.002Z</time></trkpt><trkpt lat="45.954158100475084" lon="11.719495133288168"><ele>221.0</ele><time>2026-04-23T09:46:23.002Z</time></trkpt><trkpt lat="45.954218885292335" lon="11.719329403481225"><ele>221.0</ele><time>2026-04-23T09:46:24.001Z</time></trkpt><trkpt lat="45.954277132480755" lon="11.719162229629415"><ele>221.0</ele><time>2026-04-23T09:46:25.001Z</time></trkpt><trkpt lat="45.95430962507664" lon="11.719040449085956"><ele>227.4</ele><time>2026-04-23T09:46:26.001Z</time></trkpt><trkpt lat="45.95433278188653" lon="11.718936586206791"><ele>233.8</ele><time>2026-04-23T09:46:27.001Z</time></trkpt><trkpt lat="45.95435032968271" lon="11.718838004864391"><ele>240.20000000000002</ele><time>2026-04-23T09:46:28.001Z</time></trkpt><trkpt lat="45.954366422917786" lon="11.71873348775253"><ele>246.60000000000002</ele><time>2026-04-23T09:46:30.001Z</time></trkpt><trkpt lat="45.95438666033084" lon="11.718600822605653"><ele>253.0</ele><time>2026-04-23T09:46:33.001Z</time></trkpt><trkpt lat="45.9544111652358" lon="11.718404495922035"><ele>253.0</ele><time>2026-04-23T09:46:35.001Z</time></trkpt><trkpt lat="45.95440975630243" lon="11.718241400242768"><ele>253.0</ele><time>2026-04-23T09:46:36.001Z</time></trkpt><trkpt lat="45.95442211898725" lon="11.718076725877737"><ele>253.0</ele><time>2026-04-23T09:46:37.001Z</time></trkpt><trkpt lat="45.95445384545411" lon="11.717831828496383"><ele>253.0</ele><time>2026-04-23T09:46:38.001Z</time></trkpt><trkpt lat="45.95448415399789" lon="11.717574691948137"><ele>246.33333333333331</ele><time>2026-04-23T09:46:39.001Z</time></trkpt><trkpt lat="45.95450861212386" lon="11.717295185512576"><ele>239.66666666666669</ele><time>2026-04-23T09:46:40.001Z</time></trkpt><trkpt lat="45.954534387119594" lon="11.716985049196403"><ele>233.0</ele><time>2026-04-23T09:46:41.001Z</time></trkpt><trkpt lat="45.95455660940975" lon="11.716697431368173"><ele>228.0</ele><time>2026-04-23T09:46:42.001Z</time></trkpt><trkpt lat="45.95458194182002" lon="11.716373234176109"><ele>223.0</ele><time>2026-04-23T09:46:43.001Z</time></trkpt><trkpt lat="45.95461124055175" lon="11.71604660140051"><ele>221.5</ele><time>2026-04-23T09:46:44.001Z</time></trkpt><trkpt lat="45.95465145259054" lon="11.715698321085656"><ele>220.0</ele><time>2026-04-23T09:46:45.001Z</time></trkpt><trkpt lat="45.95470498468917" lon="11.71532679205574"><ele>223.5</ele><time>2026-04-23T09:46:46.001Z</time></trkpt><trkpt lat="45.9547606244198" lon="11.71498668475076"><ele>227.0</ele><time>2026-04-23T09:46:47.001Z</time></trkpt><trkpt lat="45.95483059244648" lon="11.714671628611946"><ele>223.0</ele><time>2026-04-23T09:46:48.001Z</time></trkpt><trkpt lat="45.95491620928705" lon="11.714364917444097"><ele>219.0</ele><time>2026-04-23T09:46:49.001Z</time></trkpt><trkpt lat="45.95502070150743" lon="11.71406528489257"><ele>229.0</ele><time>2026-04-23T09:46:50.001Z</time></trkpt><trkpt lat="45.95514252576701" lon="11.713776909872115"><ele>239.0</ele><time>2026-04-23T09:46:51Z</time></trkpt><trkpt lat="45.95528394247221" lon="11.713508574897254"><ele>239.0</ele><time>2026-04-23T09:46:52Z</time></trkpt><trkpt lat="45.95544584035585" lon="11.713251597981523"><ele>239.0</ele><time>2026-04-23T09:46:53Z</time></trkpt><trkpt lat="45.95563156431355" lon="11.712991649950052"><ele>243.0</ele><time>2026-04-23T09:46:54Z</time></trkpt><trkpt lat="45.9558287735981" lon="11.71271785749448"><ele>247.0</ele><time>2026-04-23T09:46:55Z</time></trkpt><trkpt lat="45.956021831654525" lon="11.712448880977872"><ele>247.0</ele><time>2026-04-23T09:46:56Z</time></trkpt><trkpt lat="45.956199891298" lon="11.712203307279198"><ele>247.0</ele><time>2026-04-23T09:46:57Z</time></trkpt><trkpt lat="45.956375385394026" lon="11.711967052728925"><ele>246.0</ele><time>2026-04-23T09:46:58Z</time></trkpt><trkpt lat="45.95656533963165" lon="11.711736201366538"><ele>245.0</ele><time>2026-04-23T09:46:59Z</time></trkpt><trkpt lat="45.95676758792185" lon="11.711515283869272"><ele>245.0</ele><time>2026-04-23T09:47:00Z</time></trkpt><trkpt lat="45.95697441858424" lon="11.711309258673916"><ele>245.0</ele><time>2026-04-23T09:47:01Z</time></trkpt><trkpt lat="45.95717396242679" lon="11.71112907788589"><ele>240.0</ele><time>2026-04-23T09:47:02Z</time></trkpt><trkpt lat="45.957371060699636" lon="11.710952525387702"><ele>235.0</ele><time>2026-04-23T09:47:03Z</time></trkpt><trkpt lat="45.957564961944016" lon="11.710778786958723"><ele>235.0</ele><time>2026-04-23T09:47:04Z</time></trkpt><trkpt lat="45.95775540519383" lon="11.71060648223163"><ele>235.0</ele><time>2026-04-23T09:47:05Z</time></trkpt><trkpt lat="45.95794531653934" lon="11.710428459092252"><ele>235.0</ele><time>2026-04-23T09:47:06Z</time></trkpt><trkpt lat="45.9581277089189" lon="11.710247170838597"><ele>235.0</ele><time>2026-04-23T09:47:07Z</time></trkpt><trkpt lat="45.95830575637861" lon="11.710078417034998"><ele>235.0</ele><time>2026-04-23T09:47:08Z</time></trkpt><trkpt lat="45.95847178017664" lon="11.709914020131599"><ele>232.0</ele><time>2026-04-23T09:47:09Z</time></trkpt><trkpt lat="45.9586354464606" lon="11.709761968803765"><ele>229.0</ele><time>2026-04-23T09:47:10Z</time></trkpt><trkpt lat="45.9588016547494" lon="11.709614065617933"><ele>226.0</ele><time>2026-04-23T09:47:11Z</time></trkpt><trkpt lat="45.95897229963684" lon="11.709461314972954"><ele>225.0</ele><time>2026-04-23T09:47:12Z</time></trkpt><trkpt lat="45.95915470764275" lon="11.709291973187808"><ele>224.0</ele><time>2026-04-23T09:47:13Z</time></trkpt><trkpt lat="45.95936025875971" lon="11.709121064864135"><ele>224.0</ele><time>2026-04-23T09:47:14Z</time></trkpt><trkpt lat="45.959551205855995" lon="11.708951052869404"><ele>224.0</ele><time>2026-04-23T09:47:15Z</time></trkpt><trkpt lat="45.95973046434641" lon="11.70878940982621"><ele>224.0</ele><time>2026-04-23T09:47:16Z</time></trkpt><trkpt lat="45.95990974535726" lon="11.708625918033139"><ele>220.66666666666669</ele><time>2026-04-23T09:47:17Z</time></trkpt><trkpt lat="45.960079052174706" lon="11.708471203274135"><ele>217.33333333333331</ele><time>2026-04-23T09:47:18Z</time></trkpt><trkpt lat="45.960227989613344" lon="11.708336277180642"><ele>214.0</ele><time>2026-04-23T09:47:19Z</time></trkpt><trkpt lat="45.96036990102674" lon="11.708225230700556"><ele>214.0</ele><time>2026-04-23T09:47:20Z</time></trkpt><trkpt lat="45.96051091766786" lon="11.708147585600507"><ele>214.0</ele><time>2026-04-23T09:47:21Z</time></trkpt><trkpt lat="45.96067947311547" lon="11.70810521945406"><ele>214.0</ele><time>2026-04-23T09:47:22Z</time></trkpt><trkpt lat="45.960855737777635" lon="11.708093117301194"><ele>214.33333333333331</ele><time>2026-04-23T09:47:23Z</time></trkpt><trkpt lat="45.96102680254532" lon="11.708113009986715"><ele>214.66666666666669</ele><time>2026-04-23T09:47:24Z</time></trkpt><trkpt lat="45.96121134729922" lon="11.70814083318524"><ele>215.0</ele><time>2026-04-23T09:47:25Z</time></trkpt><trkpt lat="45.961387470299215" lon="11.708161779866003"><ele>215.0</ele><time>2026-04-23T09:47:26Z</time></trkpt><trkpt lat="45.96151580477376" lon="11.708160948910576"><ele>215.0</ele><time>2026-04-23T09:47:27Z</time></trkpt><trkpt lat="45.96162863746454" lon="11.708131932418718"><ele>215.0</ele><time>2026-04-23T09:47:28Z</time></trkpt><trkpt lat="45.96173734058321" lon="11.708065634076213"><ele>215.0</ele><time>2026-04-23T09:47:29Z</time></trkpt><trkpt lat="45.96181975172323" lon="11.707969892660104"><ele>214.8</ele><time>2026-04-23T09:47:30Z</time></trkpt><trkpt lat="45.96187264505635" lon="11.707859099191849"><ele>214.6</ele><time>2026-04-23T09:47:31Z</time></trkpt><trkpt lat="45.96190178994966" lon="11.707725168090116"><ele>214.39999999999998</ele><time>2026-04-23T09:47:32Z</time></trkpt><trkpt lat="45.9619033238849" lon="11.707577612911633"><ele>214.2</ele><time>2026-04-23T09:47:33Z</time></trkpt><trkpt lat="45.96188522259328" lon="11.707433866361"><ele>214.0</ele><time>2026-04-23T09:47:34Z</time></trkpt><trkpt lat="45.96184247179858" lon="11.707313181421933"><ele>214.0</ele><time>2026-04-23T09:47:35Z</time></trkpt><trkpt lat="45.96177811125868" lon="11.707217264496988"><ele>213.99999999999997</ele><time>2026-04-23T09:47:36Z</time></trkpt><trkpt lat="45.96169783722492" lon="11.707137743659795"><ele>213.99999999999997</ele><time>2026-04-23T09:47:37Z</time></trkpt><trkpt lat="45.96159659728471" lon="11.707071842434965"><ele>214.0</ele><time>2026-04-23T09:47:38Z</time></trkpt><trkpt lat="45.961471366545794" lon="11.707012688505198"><ele>214.0</ele><time>2026-04-23T09:47:39Z</time></trkpt><trkpt lat="45.96131696360058" lon="11.706943165879162"><ele>213.66666666666666</ele><time>2026-04-23T09:47:40Z</time></trkpt><trkpt lat="45.9611424425731" lon="11.706857236682463"><ele>213.33333333333331</ele><time>2026-04-23T09:47:41Z</time></trkpt><trkpt lat="45.96097718467035" lon="11.706772768423297"><ele>213.0</ele><time>2026-04-23T09:47:42Z</time></trkpt><trkpt lat="45.96082182041758" lon="11.706695402453336"><ele>213.0</ele><time>2026-04-23T09:47:43Z</time></trkpt><trkpt lat="45.96066497075522" lon="11.706617005996259"><ele>213.0</ele><time>2026-04-23T09:47:44Z</time></trkpt><trkpt lat="45.96052179525214" lon="11.706556250372513"><ele>213.0</ele><time>2026-04-23T09:47:45Z</time></trkpt><trkpt lat="45.96038336248096" lon="11.706525064304994"><ele>213.0</ele><time>2026-04-23T09:47:46Z</time></trkpt><trkpt lat="45.960240721627606" lon="11.70652120469822"><ele>213.0</ele><time>2026-04-23T09:47:47Z</time></trkpt><trkpt lat="45.96008273785084" lon="11.706542677647041"><ele>213.0</ele><time>2026-04-23T09:47:48Z</time></trkpt><trkpt lat="45.95990023828555" lon="11.706570565333983"><ele>217.66666666666669</ele><time>2026-04-23T09:47:49Z</time></trkpt><trkpt lat="45.95970354901656" lon="11.706572699104349"><ele>222.33333333333334</ele><time>2026-04-23T09:47:50Z</time></trkpt><trkpt lat="45.959487778928235" lon="11.706549360538672"><ele>227.0</ele><time>2026-04-23T09:47:51Z</time></trkpt><trkpt lat="45.95929255858802" lon="11.706515881297982"><ele>226.75</ele><time>2026-04-23T09:47:52Z</time></trkpt><trkpt lat="45.959134174151195" lon="11.706492758376006"><ele>226.5</ele><time>2026-04-23T09:47:53Z</time></trkpt><trkpt lat="45.95899663261688" lon="11.706498426108624"><ele>226.25</ele><time>2026-04-23T09:47:54Z</time></trkpt><trkpt lat="45.95886262582957" lon="11.706532984270897"><ele>226.0</ele><time>2026-04-23T09:47:55Z</time></trkpt><trkpt lat="45.95874107169083" lon="11.706584539348514"><ele>226.0</ele><time>2026-04-23T09:47:56Z</time></trkpt><trkpt lat="45.958631420686196" lon="11.706647427911443"><ele>226.0</ele><time>2026-04-23T09:47:57Z</time></trkpt><trkpt lat="45.95850156779444" lon="11.706745064457152"><ele>226.0</ele><time>2026-04-23T09:47:58Z</time></trkpt><trkpt lat="45.958340443508376" lon="11.706876105048254"><ele>223.0</ele><time>2026-04-23T09:47:59Z</time></trkpt><trkpt lat="45.9581755216635" lon="11.707017926919733"><ele>220.0</ele><time>2026-04-23T09:48:00Z</time></trkpt><trkpt lat="45.95802789345336" lon="11.707162765530246"><ele>217.0</ele><time>2026-04-23T09:48:01Z</time></trkpt><trkpt lat="45.9579031447364" lon="11.70730234270527"><ele>217.0</ele><time>2026-04-23T09:48:02Z</time></trkpt><trkpt lat="45.95775938874567" lon="11.70742275210294"><ele>217.0</ele><time>2026-04-23T09:48:03Z</time></trkpt><trkpt lat="45.95759165633988" lon="11.707508442457035"><ele>217.0</ele><time>2026-04-23T09:48:04Z</time></trkpt><trkpt lat="45.95738878006051" lon="11.707592652198203"><ele>216.66666666666666</ele><time>2026-04-23T09:48:05Z</time></trkpt><trkpt lat="45.95719052442958" lon="11.70767701653528"><ele>216.33333333333331</ele><time>2026-04-23T09:48:06Z</time></trkpt><trkpt lat="45.95697569450043" lon="11.707782940999188"><ele>216.0</ele><time>2026-04-23T09:48:07Z</time></trkpt><trkpt lat="45.95674342924484" lon="11.707918501069889"><ele>222.5</ele><time>2026-04-23T09:48:08Z</time></trkpt><trkpt lat="45.956527649344125" lon="11.708040314892465"><ele>229.0</ele><time>2026-04-23T09:48:09Z</time></trkpt><trkpt lat="45.9563004715238" lon="11.708167040615134"><ele>229.0</ele><time>2026-04-23T09:48:10Z</time></trkpt><trkpt lat="45.95607277574987" lon="11.708294137207053"><ele>229.0</ele><time>2026-04-23T09:48:11Z</time></trkpt><trkpt lat="45.95587552014862" lon="11.708420248615266"><ele>231.0</ele><time>2026-04-23T09:48:12Z</time></trkpt><trkpt lat="45.955673168494705" lon="11.708585694759782"><ele>233.0</ele><time>2026-04-23T09:48:13Z</time></trkpt><trkpt lat="45.95548032778593" lon="11.708775019238681"><ele>233.0</ele><time>2026-04-23T09:48:14Z</time></trkpt><trkpt lat="45.95531786761091" lon="11.708952461424328"><ele>233.0</ele><time>2026-04-23T09:48:15Z</time></trkpt><trkpt lat="45.95516605015436" lon="11.709144453514448"><ele>233.0</ele><time>2026-04-23T09:48:16Z</time></trkpt><trkpt lat="45.95501488311087" lon="11.7093694013284"><ele>238.5</ele><time>2026-04-23T09:48:17Z</time></trkpt><trkpt lat="45.95487441307123" lon="11.70961701150972"><ele>244.0</ele><time>2026-04-23T09:48:18Z</time></trkpt><trkpt lat="45.9547331546056" lon="11.709894954215208"><ele>244.0</ele><time>2026-04-23T09:48:19Z</time></trkpt><trkpt lat="45.954598148091556" lon="11.71018492636915"><ele>244.0</ele><time>2026-04-23T09:48:20Z</time></trkpt><trkpt lat="45.954480302152454" lon="11.710482543012622"><ele>238.33333333333331</ele><time>2026-04-23T09:48:21Z</time></trkpt><trkpt lat="45.954379233343985" lon="11.710748446265594"><ele>232.66666666666669</ele><time>2026-04-23T09:48:22Z</time></trkpt><trkpt lat="45.95430576802944" lon="11.710943135709787"><ele>227.0</ele><time>2026-04-23T09:48:23Z</time></trkpt><trkpt lat="45.954252870897754" lon="11.711078394376617"><ele>225.39999999999998</ele><time>2026-04-23T09:48:24Z</time></trkpt><trkpt lat="45.954220316971366" lon="11.711173958207711"><ele>223.79999999999998</ele><time>2026-04-23T09:48:25Z</time></trkpt><trkpt lat="45.954175037441786" lon="11.711279414403922"><ele>222.2</ele><time>2026-04-23T09:48:27Z</time></trkpt><trkpt lat="45.95410712112609" lon="11.711256362297169"><ele>220.6</ele><time>2026-04-23T09:48:29Z</time></trkpt><trkpt lat="45.95413662877309" lon="11.71110377480038"><ele>219.0</ele><time>2026-04-23T09:48:31Z</time></trkpt><trkpt lat="45.954179033501966" lon="11.710949650812871"><ele>221.0</ele><time>2026-04-23T09:48:32Z</time></trkpt><trkpt lat="45.95423189698839" lon="11.71079330059865"><ele>223.0</ele><time>2026-04-23T09:48:33Z</time></trkpt><trkpt lat="45.95427838914499" lon="11.710585925723034"><ele>225.0</ele><time>2026-04-23T09:48:34Z</time></trkpt><trkpt lat="45.9543314609883" lon="11.710345240521443"><ele>227.0</ele><time>2026-04-23T09:48:35Z</time></trkpt><trkpt lat="45.954386461479864" lon="11.710091511254726"><ele>232.66666666666669</ele><time>2026-04-23T09:48:36Z</time></trkpt><trkpt lat="45.95445755106707" lon="11.70979786687294"><ele>238.33333333333331</ele><time>2026-04-23T09:48:37Z</time></trkpt><trkpt lat="45.95453909786957" lon="11.70952223546085"><ele>244.0</ele><time>2026-04-23T09:48:38Z</time></trkpt><trkpt lat="45.9546399945211" lon="11.709210733750234"><ele>249.33333333333331</ele><time>2026-04-23T09:48:39Z</time></trkpt><trkpt lat="45.954740945342884" lon="11.708940939479644"><ele>254.66666666666669</ele><time>2026-04-23T09:48:40Z</time></trkpt><trkpt lat="45.954814194543474" lon="11.708754609091612"><ele>260.0</ele><time>2026-04-23T09:48:41Z</time></trkpt><trkpt lat="45.95487290171564" lon="11.708608337823247"><ele>266.6</ele><time>2026-04-23T09:48:42Z</time></trkpt><trkpt lat="45.95492055624135" lon="11.708514671485629"><ele>273.2</ele><time>2026-04-23T09:48:43Z</time></trkpt><trkpt lat="45.954952801388984" lon="11.708379892455085"><ele>279.8</ele><time>2026-04-23T09:48:45Z</time></trkpt><trkpt lat="45.95484369785904" lon="11.70830452720948"><ele>286.4</ele><time>2026-04-23T09:48:47Z</time></trkpt><trkpt lat="45.954787160165" lon="11.708372686411645"><ele>293.0</ele><time>2026-04-23T09:48:48Z</time></trkpt><trkpt lat="45.954740517220266" lon="11.708501576587853"><ele>284.75</ele><time>2026-04-23T09:48:49Z</time></trkpt><trkpt lat="45.95467512079059" lon="11.70866052618648"><ele>276.5</ele><time>2026-04-23T09:48:50Z</time></trkpt><trkpt lat="45.95460933443942" lon="11.708792058117993"><ele>268.25</ele><time>2026-04-23T09:48:51Z</time></trkpt><trkpt lat="45.95449969059274" lon="11.70900567577795"><ele>260.0</ele><time>2026-04-23T09:48:52Z</time></trkpt><trkpt lat="45.9543869839386" lon="11.709209753981769"><ele>254.66666666666669</ele><time>2026-04-23T09:48:53Z</time></trkpt><trkpt lat="45.95426749900487" lon="11.709441153866495"><ele>249.33333333333331</ele><time>2026-04-23T09:48:54Z</time></trkpt><trkpt lat="45.9541428435985" lon="11.70970480634747"><ele>244.0</ele><time>2026-04-23T09:48:55Z</time></trkpt><trkpt lat="45.95403135126864" lon="11.709966586446068"><ele>252.0</ele><time>2026-04-23T09:48:56Z</time></trkpt><trkpt lat="45.95391555420228" lon="11.710263706534173"><ele>260.0</ele><time>2026-04-23T09:48:57Z</time></trkpt><trkpt lat="45.95381990208676" lon="11.71052163362374"><ele>268.0</ele><time>2026-04-23T09:48:58Z</time></trkpt><trkpt lat="45.95375252099747" lon="11.710749942079687"><ele>268.0</ele><time>2026-04-23T09:48:59Z</time></trkpt><trkpt lat="45.95370623551362" lon="11.710968788556963"><ele>268.0</ele><time>2026-04-23T09:49:00Z</time></trkpt><trkpt lat="45.95368639259514" lon="11.711180722633836"><ele>268.0</ele><time>2026-04-23T09:49:01Z</time></trkpt><trkpt lat="45.95367939757587" lon="11.711387557395918"><ele>265.4</ele><time>2026-04-23T09:49:02Z</time></trkpt><trkpt lat="45.953675175987854" lon="11.711563363270098"><ele>262.8</ele><time>2026-04-23T09:49:03Z</time></trkpt><trkpt lat="45.95366003733576" lon="11.711699528628657"><ele>260.2</ele><time>2026-04-23T09:49:04Z</time></trkpt><trkpt lat="45.95361185477804" lon="11.711830751342832"><ele>257.6</ele><time>2026-04-23T09:49:05Z</time></trkpt><trkpt lat="45.953534867067184" lon="11.711961487768871"><ele>255.0</ele><time>2026-04-23T09:49:06Z</time></trkpt><trkpt lat="45.95343307917143" lon="11.712119072636508"><ele>268.25</ele><time>2026-04-23T09:49:07Z</time></trkpt><trkpt lat="45.95333732809415" lon="11.712286457893086"><ele>281.5</ele><time>2026-04-23T09:49:08Z</time></trkpt><trkpt lat="45.95328219470755" lon="11.712439817625839"><ele>294.75</ele><time>2026-04-23T09:49:09Z</time></trkpt><trkpt lat="45.95325627675451" lon="11.71261300128312"><ele>308.0</ele><time>2026-04-23T09:49:10Z</time></trkpt><trkpt lat="45.953248467174795" lon="11.712817382702907"><ele>308.0</ele><time>2026-04-23T09:49:11Z</time></trkpt><trkpt lat="45.95323482579651" lon="11.713028502246226"><ele>308.0</ele><time>2026-04-23T09:49:12Z</time></trkpt><trkpt lat="45.95322798891963" lon="11.713159426026575"><ele>308.0</ele><time>2026-04-23T09:49:13Z</time></trkpt><trkpt lat="45.95322161786399" lon="11.713280376037519"><ele>308.0</ele><time>2026-04-23T09:49:14Z</time></trkpt><trkpt lat="45.953202100387195" lon="11.713416104457552"><ele>308.0</ele><time>2026-04-23T09:49:16Z</time></trkpt><trkpt lat="45.95317841079637" lon="11.71351803329053"><ele>308.0</ele><time>2026-04-23T09:49:18Z</time></trkpt><trkpt lat="45.95309453243069" lon="11.713443350587617"><ele>308.0</ele><time>2026-04-23T09:49:20Z</time></trkpt><trkpt lat="45.95311612952362" lon="11.713335560837113"><ele>308.0</ele><time>2026-04-23T09:49:21Z</time></trkpt><trkpt lat="45.95311689793821" lon="11.713162325184824"><ele>308.0</ele><time>2026-04-23T09:49:22Z</time></trkpt><trkpt lat="45.95312984582096" lon="11.71297277770285"><ele>308.0</ele><time>2026-04-23T09:49:23Z</time></trkpt><trkpt lat="45.95314220771252" lon="11.712773572423519"><ele>310.33333333333337</ele><time>2026-04-23T09:49:24Z</time></trkpt><trkpt lat="45.95314848135591" lon="11.712539320490366"><ele>312.6666666666667</ele><time>2026-04-23T09:49:25Z</time></trkpt><trkpt lat="45.95316704000854" lon="11.712336838465564"><ele>315.0</ele><time>2026-04-23T09:49:26Z</time></trkpt><trkpt lat="45.95321566682925" lon="11.712137415414368"><ele>315.0</ele><time>2026-04-23T09:49:27Z</time></trkpt><trkpt lat="45.95329524220417" lon="11.711910306568717"><ele>315.0</ele><time>2026-04-23T09:49:28Z</time></trkpt><trkpt lat="45.953377147207426" lon="11.711712680389697"><ele>315.0</ele><time>2026-04-23T09:49:29Z</time></trkpt><trkpt lat="45.9534261764225" lon="11.711538733114095"><ele>299.3333333333333</ele><time>2026-04-23T09:49:30Z</time></trkpt><trkpt lat="45.95344376118319" lon="11.7113439982673"><ele>283.66666666666663</ele><time>2026-04-23T09:49:31Z</time></trkpt><trkpt lat="45.95342109899266" lon="11.711103852110815"><ele>268.0</ele><time>2026-04-23T09:49:32Z</time></trkpt><trkpt lat="45.95342898090125" lon="11.710819219909736"><ele>268.0</ele><time>2026-04-23T09:49:33Z</time></trkpt><trkpt lat="45.9534492709749" lon="11.71051444562216"><ele>268.0</ele><time>2026-04-23T09:49:34Z</time></trkpt><trkpt lat="45.953479410451116" lon="11.710219830339067"><ele>268.0</ele><time>2026-04-23T09:49:35Z</time></trkpt><trkpt lat="45.953541377454066" lon="11.709904527324866"><ele>272.66666666666663</ele><time>2026-04-23T09:49:36Z</time></trkpt><trkpt lat="45.95356256384074" lon="11.709657410633216"><ele>277.3333333333333</ele><time>2026-04-23T09:49:37Z</time></trkpt><trkpt lat="45.953577277105175" lon="11.709443009081872"><ele>282.0</ele><time>2026-04-23T09:49:38Z</time></trkpt><trkpt lat="45.953637877484944" lon="11.709247130385801"><ele>290.6666666666667</ele><time>2026-04-23T09:49:39Z</time></trkpt><trkpt lat="45.95371649097223" lon="11.709050539095347"><ele>299.33333333333337</ele><time>2026-04-23T09:49:40Z</time></trkpt><trkpt lat="45.953814695354396" lon="11.708859449298679"><ele>308.0</ele><time>2026-04-23T09:49:41Z</time></trkpt><trkpt lat="45.9539255815783" lon="11.708680591695238"><ele>318.0</ele><time>2026-04-23T09:49:42Z</time></trkpt><trkpt lat="45.95400801314952" lon="11.708551921180126"><ele>328.0</ele><time>2026-04-23T09:49:43Z</time></trkpt><trkpt lat="45.95406575065576" lon="11.708460361516359"><ele>338.0</ele><time>2026-04-23T09:49:44Z</time></trkpt><trkpt lat="45.954131747657435" lon="11.708352969998158"><ele>348.0</ele><time>2026-04-23T09:49:46Z</time></trkpt><trkpt lat="45.95404407093218" lon="11.708245654615256"><ele>358.0</ele><time>2026-04-23T09:49:48Z</time></trkpt><trkpt lat="45.9539629954007" lon="11.708320890383039"><ele>358.0</ele><time>2026-04-23T09:49:49Z</time></trkpt><trkpt lat="45.95391737278376" lon="11.708430887274332"><ele>358.0</ele><time>2026-04-23T09:49:50Z</time></trkpt><trkpt lat="45.95387494808494" lon="11.708546798748337"><ele>358.0</ele><time>2026-04-23T09:49:51Z</time></trkpt><trkpt lat="45.95381565424501" lon="11.708652682008784"><ele>358.0</ele><time>2026-04-23T09:49:52Z</time></trkpt><trkpt lat="45.953737791478915" lon="11.708767340921803"><ele>358.0</ele><time>2026-04-23T09:49:53Z</time></trkpt><trkpt lat="45.95363291705381" lon="11.7089373044195"><ele>345.5</ele><time>2026-04-23T09:49:54Z</time></trkpt><trkpt lat="45.95355219535174" lon="11.70908283597439"><ele>333.0</ele><time>2026-04-23T09:49:55Z</time></trkpt><trkpt lat="45.95349497854501" lon="11.709248033088715"><ele>320.5</ele><time>2026-04-23T09:49:56Z</time></trkpt><trkpt lat="45.95345715643054" lon="11.709434634676994"><ele>308.0</ele><time>2026-04-23T09:49:57Z</time></trkpt><trkpt lat="45.95342759004642" lon="11.70963122248757"><ele>299.33333333333337</ele><time>2026-04-23T09:49:58Z</time></trkpt><trkpt lat="45.953401883909514" lon="11.709863538327278"><ele>290.6666666666667</ele><time>2026-04-23T09:49:59Z</time></trkpt><trkpt lat="45.95337334492172" lon="11.7101252975148"><ele>282.0</ele><time>2026-04-23T09:50:00Z</time></trkpt><trkpt lat="45.95332048076959" lon="11.710364840668099"><ele>303.3333333333333</ele><time>2026-04-23T09:50:01Z</time></trkpt><trkpt lat="45.95324833413541" lon="11.71063587612072"><ele>324.66666666666663</ele><time>2026-04-23T09:50:02Z</time></trkpt><trkpt lat="45.95318567384589" lon="11.710848240430165"><ele>346.0</ele><time>2026-04-23T09:50:03Z</time></trkpt><trkpt lat="45.95313157297874" lon="11.711056194681627"><ele>339.0</ele><time>2026-04-23T09:50:04Z</time></trkpt><trkpt lat="45.95309934808842" lon="11.711310256024813"><ele>332.0</ele><time>2026-04-23T09:50:05Z</time></trkpt><trkpt lat="45.95305988091841" lon="11.711567474543262"><ele>325.0</ele><time>2026-04-23T09:50:06Z</time></trkpt><trkpt lat="45.95302826778525" lon="11.711748345832715"><ele>322.5</ele><time>2026-04-23T09:50:07Z</time></trkpt><trkpt lat="45.95298912918723" lon="11.711919802914933"><ele>320.0</ele><time>2026-04-23T09:50:08Z</time></trkpt><trkpt lat="45.95292166841038" lon="11.712089508690186"><ele>317.5</ele><time>2026-04-23T09:50:09Z</time></trkpt><trkpt lat="45.95283363470786" lon="11.712276654058236"><ele>315.0</ele><time>2026-04-23T09:50:10Z</time></trkpt><trkpt lat="45.9527531850319" lon="11.712471146746253"><ele>315.0</ele><time>2026-04-23T09:50:11Z</time></trkpt><trkpt lat="45.95268623118728" lon="11.712654413084978"><ele>315.0</ele><time>2026-04-23T09:50:12Z</time></trkpt><trkpt lat="45.95263875505202" lon="11.712803532773508"><ele>315.0</ele><time>2026-04-23T09:50:13Z</time></trkpt><trkpt lat="45.95261727075381" lon="11.712971633689179"><ele>315.0</ele><time>2026-04-23T09:50:14Z</time></trkpt><trkpt lat="45.952626461641444" lon="11.713161594386621"><ele>312.6666666666667</ele><time>2026-04-23T09:50:15Z</time></trkpt><trkpt lat="45.95264924180297" lon="11.713376125633387"><ele>310.33333333333337</ele><time>2026-04-23T09:50:16Z</time></trkpt><trkpt lat="45.95269776296783" lon="11.7136005814278"><ele>308.0</ele><time>2026-04-23T09:50:17Z</time></trkpt><trkpt lat="45.952751491797486" lon="11.713837427110203"><ele>316.6666666666667</ele><time>2026-04-23T09:50:18Z</time></trkpt><trkpt lat="45.95278812083938" lon="11.714106454438857"><ele>325.3333333333333</ele><time>2026-04-23T09:50:19Z</time></trkpt><trkpt lat="45.95282537842302" lon="11.714319158066036"><ele>334.0</ele><time>2026-04-23T09:50:20Z</time></trkpt><trkpt lat="45.95282515094793" lon="11.714515978499238"><ele>335.0</ele><time>2026-04-23T09:50:21Z</time></trkpt><trkpt lat="45.95280876787332" lon="11.714686857696282"><ele>336.0</ele><time>2026-04-23T09:50:22Z</time></trkpt><trkpt lat="45.95277231847548" lon="11.714854802793264"><ele>337.0</ele><time>2026-04-23T09:50:23Z</time></trkpt><trkpt lat="45.95272245098293" lon="11.715045251863573"><ele>338.0</ele><time>2026-04-23T09:50:24Z</time></trkpt><trkpt lat="45.95268966048528" lon="11.71527224653682"><ele>328.33333333333337</ele><time>2026-04-23T09:50:25Z</time></trkpt><trkpt lat="45.952675186936695" lon="11.715548410706216"><ele>318.6666666666667</ele><time>2026-04-23T09:50:26Z</time></trkpt><trkpt lat="45.952658746584724" lon="11.715871075697835"><ele>309.0</ele><time>2026-04-23T09:50:27Z</time></trkpt><trkpt lat="45.95264336397862" lon="11.716176974409237"><ele>304.0</ele><time>2026-04-23T09:50:28Z</time></trkpt><trkpt lat="45.95262995515858" lon="11.716484118453728"><ele>299.0</ele><time>2026-04-23T09:50:29Z</time></trkpt><trkpt lat="45.952621710960166" lon="11.716724465744791"><ele>294.0</ele><time>2026-04-23T09:50:30Z</time></trkpt><trkpt lat="45.95260214236167" lon="11.716946944739059"><ele>287.25</ele><time>2026-04-23T09:50:31Z</time></trkpt><trkpt lat="45.95256420383562" lon="11.71717269663077"><ele>280.5</ele><time>2026-04-23T09:50:32Z</time></trkpt><trkpt lat="45.95251614609348" lon="11.717380548233393"><ele>273.75</ele><time>2026-04-23T09:50:33Z</time></trkpt><trkpt lat="45.952477274025064" lon="11.71750814089732"><ele>267.0</ele><time>2026-04-23T09:50:34Z</time></trkpt><trkpt lat="45.95241376971423" lon="11.717603502141374"><ele>287.0</ele><time>2026-04-23T09:50:36Z</time></trkpt><trkpt lat="45.952327199574036" lon="11.717510542383229"><ele>307.0</ele><time>2026-04-23T09:50:38Z</time></trkpt><trkpt lat="45.9523580634595" lon="11.71740243451483"><ele>327.0</ele><time>2026-04-23T09:50:39Z</time></trkpt><trkpt lat="45.95236363856827" lon="11.717262679442543"><ele>347.0</ele><time>2026-04-23T09:50:40Z</time></trkpt><trkpt lat="45.952402656614694" lon="11.717090257675064"><ele>367.0</ele><time>2026-04-23T09:50:41Z</time></trkpt><trkpt lat="45.952430503052724" lon="11.716932227701953"><ele>370.3333333333333</ele><time>2026-04-23T09:50:42Z</time></trkpt><trkpt lat="45.95245910734291" lon="11.716715326993587"><ele>373.6666666666667</ele><time>2026-04-23T09:50:43Z</time></trkpt><trkpt lat="45.95245966081886" lon="11.716515656299585"><ele>377.0</ele><time>2026-04-23T09:50:44Z</time></trkpt><trkpt lat="45.95244448570265" lon="11.71629024721132"><ele>376.6666666666667</ele><time>2026-04-23T09:50:45Z</time></trkpt><trkpt lat="45.95242569147194" lon="11.716013599250221"><ele>376.3333333333333</ele><time>2026-04-23T09:50:46Z</time></trkpt><trkpt lat="45.95241337532004" lon="11.715760607269488"><ele>376.0</ele><time>2026-04-23T09:50:47Z</time></trkpt><trkpt lat="45.95240968145532" lon="11.715588655340449"><ele>376.0</ele><time>2026-04-23T09:50:48Z</time></trkpt><trkpt lat="45.95240748781189" lon="11.715459684973052"><ele>376.0</ele><time>2026-04-23T09:50:49Z</time></trkpt><trkpt lat="45.95236132063877" lon="11.715306125546853"><ele>376.0</ele><time>2026-04-23T09:50:51Z</time></trkpt><trkpt lat="45.95240014457011" lon="11.715197403662785"><ele>376.0</ele><time>2026-04-23T09:50:52Z</time></trkpt><trkpt lat="45.952235923310326" lon="11.715316776218966"><ele>376.0</ele><time>2026-04-23T09:50:53Z</time></trkpt><trkpt lat="45.952195202988335" lon="11.715411142911519"><ele>376.0</ele><time>2026-04-23T09:50:54Z</time></trkpt><trkpt lat="45.95217795432166" lon="11.715550649714483"><ele>376.0</ele><time>2026-04-23T09:50:55Z</time></trkpt><trkpt lat="45.9521696976914" lon="11.715709136706863"><ele>376.0</ele><time>2026-04-23T09:50:56Z</time></trkpt><trkpt lat="45.95215755194666" lon="11.715875072470196"><ele>376.0</ele><time>2026-04-23T09:50:57Z</time></trkpt><trkpt lat="45.95214037586317" lon="11.71611883608922"><ele>376.3333333333333</ele><time>2026-04-23T09:50:58Z</time></trkpt><trkpt lat="45.95212815293497" lon="11.716346059163074"><ele>376.6666666666667</ele><time>2026-04-23T09:50:59Z</time></trkpt><trkpt lat="45.952113111404834" lon="11.716606393806389"><ele>377.0</ele><time>2026-04-23T09:51:00Z</time></trkpt><trkpt lat="45.952099780859605" lon="11.716898282129227"><ele>373.6666666666667</ele><time>2026-04-23T09:51:01Z</time></trkpt><trkpt lat="45.95209797624254" lon="11.717155883185706"><ele>370.3333333333333</ele><time>2026-04-23T09:51:02Z</time></trkpt><trkpt lat="45.952084433252935" lon="11.717418725842693"><ele>367.0</ele><time>2026-04-23T09:51:03Z</time></trkpt><trkpt lat="45.9520494483336" lon="11.717635604664185"><ele>360.0</ele><time>2026-04-23T09:51:04Z</time></trkpt><trkpt lat="45.95196546360992" lon="11.717830211486339"><ele>353.0</ele><time>2026-04-23T09:51:05Z</time></trkpt><trkpt lat="45.951883590527096" lon="11.718037407045435"><ele>346.0</ele><time>2026-04-23T09:51:06Z</time></trkpt><trkpt lat="45.95177903973538" lon="11.718251692711759"><ele>363.0</ele><time>2026-04-23T09:51:07Z</time></trkpt><trkpt lat="45.95164596497314" lon="11.718459757196309"><ele>380.0</ele><time>2026-04-23T09:51:08Z</time></trkpt><trkpt lat="45.95149113966966" lon="11.718710980646023"><ele>397.0</ele><time>2026-04-23T09:51:09Z</time></trkpt><trkpt lat="45.951327344749345" lon="11.718960888110471"><ele>397.0</ele><time>2026-04-23T09:51:10Z</time></trkpt><trkpt lat="45.95117717231194" lon="11.719208660757062"><ele>397.0</ele><time>2026-04-23T09:51:11Z</time></trkpt><trkpt lat="45.950997743490625" lon="11.719463540400008"><ele>406.0</ele><time>2026-04-23T09:51:12Z</time></trkpt><trkpt lat="45.95083293491842" lon="11.719735204280855"><ele>415.0</ele><time>2026-04-23T09:51:13Z</time></trkpt><trkpt lat="45.95068979346567" lon="11.719934567527467"><ele>415.0</ele><time>2026-04-23T09:51:14Z</time></trkpt><trkpt lat="45.95056457394357" lon="11.720107169451023"><ele>415.0</ele><time>2026-04-23T09:51:15Z</time></trkpt><trkpt lat="45.950416809953666" lon="11.720246268983303"><ele>415.0</ele><time>2026-04-23T09:51:16Z</time></trkpt><trkpt lat="45.950253831065694" lon="11.720400549298112"><ele>417.0</ele><time>2026-04-23T09:51:17Z</time></trkpt><trkpt lat="45.9500826751346" lon="11.720574656033557"><ele>419.0</ele><time>2026-04-23T09:51:18Z</time></trkpt><trkpt lat="45.94993455797193" lon="11.720696279084397"><ele>421.0</ele><time>2026-04-23T09:51:19Z</time></trkpt><trkpt lat="45.94980014016697" lon="11.720801850727293"><ele>421.0</ele><time>2026-04-23T09:51:20Z</time></trkpt><trkpt lat="45.94965923496463" lon="11.720874916726892"><ele>421.0</ele><time>2026-04-23T09:51:21Z</time></trkpt><trkpt lat="45.94948137252785" lon="11.720927084545076"><ele>421.0</ele><time>2026-04-23T09:51:22Z</time></trkpt><trkpt lat="45.94928887923307" lon="11.720965753490132"><ele>416.33333333333337</ele><time>2026-04-23T09:51:23Z</time></trkpt><trkpt lat="45.94913795240201" lon="11.721018010695563"><ele>411.66666666666663</ele><time>2026-04-23T09:51:24Z</time></trkpt><trkpt lat="45.94899948074275" lon="11.721111908871364"><ele>407.0</ele><time>2026-04-23T09:51:25Z</time></trkpt><trkpt lat="45.94886207490425" lon="11.721245023054623"><ele>407.0</ele><time>2026-04-23T09:51:26Z</time></trkpt><trkpt lat="45.94871310121565" lon="11.721407868076126"><ele>407.0</ele><time>2026-04-23T09:51:27Z</time></trkpt><trkpt lat="45.948600593081935" lon="11.721520373633512"><ele>407.0</ele><time>2026-04-23T09:51:28Z</time></trkpt><trkpt lat="45.9484875888398" lon="11.721610833752948"><ele>407.75</ele><time>2026-04-23T09:51:29Z</time></trkpt><trkpt lat="45.94836075083195" lon="11.721668205605512"><ele>408.5</ele><time>2026-04-23T09:51:30Z</time></trkpt><trkpt lat="45.948240274538634" lon="11.721698369356503"><ele>409.25</ele><time>2026-04-23T09:51:31Z</time></trkpt><trkpt lat="45.94812808812798" lon="11.7217861954113"><ele>410.0</ele><time>2026-04-23T09:51:32Z</time></trkpt><trkpt lat="45.94801288111583" lon="11.721932941425667"><ele>410.0</ele><time>2026-04-23T09:51:33Z</time></trkpt><trkpt lat="45.94790334397049" lon="11.72211948608054"><ele>410.0</ele><time>2026-04-23T09:51:34Z</time></trkpt><trkpt lat="45.947783306787564" lon="11.722345970041651"><ele>410.0</ele><time>2026-04-23T09:51:35Z</time></trkpt><trkpt lat="45.947644062650646" lon="11.722597939684228"><ele>414.2</ele><time>2026-04-23T09:51:36Z</time></trkpt><trkpt lat="45.94753992746046" lon="11.722781014075158"><ele>418.4</ele><time>2026-04-23T09:51:37Z</time></trkpt><trkpt lat="45.94747325603873" lon="11.722911167854205"><ele>422.6</ele><time>2026-04-23T09:51:38Z</time></trkpt><trkpt lat="45.94741968157077" lon="11.72300817311337"><ele>426.8</ele><time>2026-04-23T09:51:39Z</time></trkpt><trkpt lat="45.94737303934579" lon="11.723072141366142"><ele>431.0</ele><time>2026-04-23T09:51:40Z</time></trkpt><trkpt lat="45.94726415615777" lon="11.72303272542784"><ele>431.0</ele><time>2026-04-23T09:51:42Z</time></trkpt><trkpt lat="45.94728923755839" lon="11.72287179593312"><ele>431.0</ele><time>2026-04-23T09:51:44Z</time></trkpt><trkpt lat="45.947342747760985" lon="11.72277100279689"><ele>431.0</ele><time>2026-04-23T09:51:45Z</time></trkpt><trkpt lat="45.94742222788907" lon="11.722630481060769"><ele>431.0</ele><time>2026-04-23T09:51:46Z</time></trkpt><trkpt lat="45.947496088111585" lon="11.722512449270788"><ele>431.0</ele><time>2026-04-23T09:51:47Z</time></trkpt><trkpt lat="45.94760380683946" lon="11.72233100060681"><ele>430.3333333333333</ele><time>2026-04-23T09:51:48Z</time></trkpt><trkpt lat="45.94769481451228" lon="11.722098666125307"><ele>429.66666666666663</ele><time>2026-04-23T09:51:49Z</time></trkpt><trkpt lat="45.947792646883734" lon="11.721873151041622"><ele>429.0</ele><time>2026-04-23T09:51:50Z</time></trkpt><trkpt lat="45.947891186522654" lon="11.721675299329924"><ele>429.0</ele><time>2026-04-23T09:51:51Z</time></trkpt><trkpt lat="45.94800994351761" lon="11.721500947389163"><ele>429.0</ele><time>2026-04-23T09:51:52Z</time></trkpt><trkpt lat="45.94816053068337" lon="11.721356862862498"><ele>429.0</ele><time>2026-04-23T09:51:53Z</time></trkpt><trkpt lat="45.94832076895118" lon="11.721231508007282"><ele>432.0</ele><time>2026-04-23T09:51:54Z</time></trkpt><trkpt lat="45.948466348570484" lon="11.721080378491669"><ele>435.0</ele><time>2026-04-23T09:51:55Z</time></trkpt><trkpt lat="45.94859705467119" lon="11.720925424772185"><ele>438.0</ele><time>2026-04-23T09:51:56Z</time></trkpt><trkpt lat="45.948754984787506" lon="11.720792128110313"><ele>438.0</ele><time>2026-04-23T09:51:57Z</time></trkpt><trkpt lat="45.94894253923155" lon="11.720679956842558"><ele>438.0</ele><time>2026-04-23T09:51:58Z</time></trkpt><trkpt lat="45.94913615784696" lon="11.720597841668795"><ele>438.0</ele><time>2026-04-23T09:51:59Z</time></trkpt><trkpt lat="45.94930170267617" lon="11.720565312933452"><ele>439.0</ele><time>2026-04-23T09:52:00Z</time></trkpt><trkpt lat="45.949424098890354" lon="11.72052706824043"><ele>440.0</ele><time>2026-04-23T09:52:01Z</time></trkpt><trkpt lat="45.94951990269681" lon="11.720455725272853"><ele>441.0</ele><time>2026-04-23T09:52:02Z</time></trkpt><trkpt lat="45.94960625414577" lon="11.720324459214128"><ele>442.0</ele><time>2026-04-23T09:52:03Z</time></trkpt><trkpt lat="45.9497047473368" lon="11.720137325394482"><ele>442.0</ele><time>2026-04-23T09:52:04Z</time></trkpt><trkpt lat="45.94982270009263" lon="11.719916623512109"><ele>442.0</ele><time>2026-04-23T09:52:05Z</time></trkpt><trkpt lat="45.949968193809745" lon="11.71968886360499"><ele>442.0</ele><time>2026-04-23T09:52:06Z</time></trkpt><trkpt lat="45.9501201695149" lon="11.719470600262289"><ele>439.33333333333337</ele><time>2026-04-23T09:52:07Z</time></trkpt><trkpt lat="45.95026733226217" lon="11.719269805034918"><ele>436.66666666666663</ele><time>2026-04-23T09:52:08Z</time></trkpt><trkpt lat="45.95037298764551" lon="11.719113131145104"><ele>434.0</ele><time>2026-04-23T09:52:09Z</time></trkpt><trkpt lat="45.95045167718818" lon="11.71894759298642"><ele>434.0</ele><time>2026-04-23T09:52:10Z</time></trkpt><trkpt lat="45.950500022586375" lon="11.718770749220125"><ele>434.0</ele><time>2026-04-23T09:52:11Z</time></trkpt><trkpt lat="45.950521477589305" lon="11.718580654967916"><ele>434.0</ele><time>2026-04-23T09:52:12Z</time></trkpt><trkpt lat="45.95051437603937" lon="11.718366492277365"><ele>434.0</ele><time>2026-04-23T09:52:13Z</time></trkpt><trkpt lat="45.950504041345134" lon="11.71809779322653"><ele>438.0</ele><time>2026-04-23T09:52:14Z</time></trkpt><trkpt lat="45.950469563189934" lon="11.717823977580396"><ele>442.0</ele><time>2026-04-23T09:52:15Z</time></trkpt><trkpt lat="45.95041088172226" lon="11.717554417249012"><ele>446.0</ele><time>2026-04-23T09:52:16Z</time></trkpt><trkpt lat="45.95034967820682" lon="11.717314326312716"><ele>447.0</ele><time>2026-04-23T09:52:17Z</time></trkpt><trkpt lat="45.95030597718306" lon="11.71709181766572"><ele>448.0</ele><time>2026-04-23T09:52:18Z</time></trkpt><trkpt lat="45.95028078979862" lon="11.71685731772549"><ele>449.0</ele><time>2026-04-23T09:52:19Z</time></trkpt><trkpt lat="45.950285754640994" lon="11.716609337075589"><ele>449.3333333333333</ele><time>2026-04-23T09:52:20Z</time></trkpt><trkpt lat="45.95030055649906" lon="11.716332181949495"><ele>449.66666666666663</ele><time>2026-04-23T09:52:21Z</time></trkpt><trkpt lat="45.9503173834321" lon="11.716045462385143"><ele>450.0</ele><time>2026-04-23T09:52:22Z</time></trkpt><trkpt lat="45.950325362886794" lon="11.715803018993826"><ele>451.0</ele><time>2026-04-23T09:52:23Z</time></trkpt><trkpt lat="45.950366061858986" lon="11.715556563137238"><ele>452.0</ele><time>2026-04-23T09:52:24Z</time></trkpt><trkpt lat="45.95042281643078" lon="11.71526704792175"><ele>453.0</ele><time>2026-04-23T09:52:25Z</time></trkpt><trkpt lat="45.950488316341655" lon="11.714958741686717"><ele>453.59999999999997</ele><time>2026-04-23T09:52:25.999Z</time></trkpt><trkpt lat="45.95053681693863" lon="11.71474001397817"><ele>454.19999999999993</ele><time>2026-04-23T09:52:26.999Z</time></trkpt><trkpt lat="45.95056828421234" lon="11.714598712159027"><ele>454.8</ele><time>2026-04-23T09:52:27.999Z</time></trkpt><trkpt lat="45.950581563763656" lon="11.71450942960622"><ele>455.4</ele><time>2026-04-23T09:52:28.999Z</time></trkpt><trkpt lat="45.950589930569656" lon="11.714418914464726"><ele>456.0</ele><time>2026-04-23T09:52:29.999Z</time></trkpt><trkpt lat="45.9505432164489" lon="11.714325614089873"><ele>456.0</ele><time>2026-04-23T09:52:30.999Z</time></trkpt><trkpt lat="45.950455087890795" lon="11.714296264465709"><ele>456.0</ele><time>2026-04-23T09:52:31.999Z</time></trkpt><trkpt lat="45.950378042956636" lon="11.714382492155094"><ele>456.0</ele><time>2026-04-23T09:52:32.999Z</time></trkpt><trkpt lat="45.950325484863484" lon="11.71448200394522"><ele>456.0</ele><time>2026-04-23T09:52:33.999Z</time></trkpt><trkpt lat="45.95027709922695" lon="11.714591235504516"><ele>456.0</ele><time>2026-04-23T09:52:34.999Z</time></trkpt><trkpt lat="45.95024188912083" lon="11.714699250821864"><ele>456.0</ele><time>2026-04-23T09:52:35.999Z</time></trkpt><trkpt lat="45.95019859548147" lon="11.714854945306051"><ele>456.0</ele><time>2026-04-23T09:52:37Z</time></trkpt><trkpt lat="45.95012775306225" lon="11.715069659211531"><ele>456.0</ele><time>2026-04-23T09:52:38Z</time></trkpt><trkpt lat="45.950052721688515" lon="11.71525710882769"><ele>456.0</ele><time>2026-04-23T09:52:39Z</time></trkpt><trkpt lat="45.949954132445285" lon="11.715446900040186"><ele>460.33333333333337</ele><time>2026-04-23T09:52:40Z</time></trkpt><trkpt lat="45.94982463065045" lon="11.715628046536049"><ele>464.6666666666667</ele><time>2026-04-23T09:52:41Z</time></trkpt><trkpt lat="45.94968537620657" lon="11.715815047715026"><ele>469.0</ele><time>2026-04-23T09:52:42Z</time></trkpt><trkpt lat="45.94953927307744" lon="11.716009399996594"><ele>467.33333333333337</ele><time>2026-04-23T09:52:43Z</time></trkpt><trkpt lat="45.949391017598636" lon="11.716195553051042"><ele>465.66666666666663</ele><time>2026-04-23T09:52:44Z</time></trkpt><trkpt lat="45.949258327189696" lon="11.71634321329347"><ele>464.0</ele><time>2026-04-23T09:52:45Z</time></trkpt><trkpt lat="45.949118063237606" lon="11.71647112553359"><ele>467.66666666666663</ele><time>2026-04-23T09:52:46Z</time></trkpt><trkpt lat="45.94893917950565" lon="11.716604745634704"><ele>471.33333333333337</ele><time>2026-04-23T09:52:47Z</time></trkpt><trkpt lat="45.94876295174708" lon="11.716729680002391"><ele>475.0</ele><time>2026-04-23T09:52:48Z</time></trkpt><trkpt lat="45.9485873706029" lon="11.716890118233202"><ele>473.0</ele><time>2026-04-23T09:52:49Z</time></trkpt><trkpt lat="45.948414334444216" lon="11.717086260957236"><ele>471.0</ele><time>2026-04-23T09:52:50Z</time></trkpt><trkpt lat="45.94825398128493" lon="11.717292920510735"><ele>469.0</ele><time>2026-04-23T09:52:51Z</time></trkpt><trkpt lat="45.94811687613008" lon="11.717483613583545"><ele>471.0</ele><time>2026-04-23T09:52:52Z</time></trkpt><trkpt lat="45.947997737176166" lon="11.717677660502684"><ele>473.0</ele><time>2026-04-23T09:52:53Z</time></trkpt><trkpt lat="45.94788747156866" lon="11.717895430969063"><ele>475.0</ele><time>2026-04-23T09:52:54Z</time></trkpt><trkpt lat="45.947766666579014" lon="11.718137954143915"><ele>475.0</ele><time>2026-04-23T09:52:55Z</time></trkpt><trkpt lat="45.947633381529684" lon="11.718417538571115"><ele>475.0</ele><time>2026-04-23T09:52:56Z</time></trkpt><trkpt lat="45.94750316901735" lon="11.718684182679892"><ele>479.0</ele><time>2026-04-23T09:52:57Z</time></trkpt><trkpt lat="45.94738056766994" lon="11.718914714124635"><ele>483.0</ele><time>2026-04-23T09:52:58Z</time></trkpt><trkpt lat="45.94725255729549" lon="11.719136350477976"><ele>487.0</ele><time>2026-04-23T09:52:59Z</time></trkpt><trkpt lat="45.94710533818788" lon="11.719358103711276"><ele>486.0</ele><time>2026-04-23T09:53:00Z</time></trkpt><trkpt lat="45.94698237275904" lon="11.719553230690567"><ele>485.0</ele><time>2026-04-23T09:53:01Z</time></trkpt><trkpt lat="45.94690127435465" lon="11.719769144382846"><ele>484.0</ele><time>2026-04-23T09:53:02Z</time></trkpt><trkpt lat="45.94682943240635" lon="11.720022482194558"><ele>482.25</ele><time>2026-04-23T09:53:03Z</time></trkpt><trkpt lat="45.946777265324954" lon="11.720254576294785"><ele>480.5</ele><time>2026-04-23T09:53:04Z</time></trkpt><trkpt lat="45.946736613568675" lon="11.720431462249453"><ele>478.75</ele><time>2026-04-23T09:53:05Z</time></trkpt><trkpt lat="45.94667818294458" lon="11.720590341157024"><ele>477.0</ele><time>2026-04-23T09:53:06Z</time></trkpt><trkpt lat="45.94661022376591" lon="11.720703725463409"><ele>481.75</ele><time>2026-04-23T09:53:07Z</time></trkpt><trkpt lat="45.94653093735635" lon="11.72078296202311"><ele>486.5</ele><time>2026-04-23T09:53:08Z</time></trkpt><trkpt lat="45.94642817389302" lon="11.720837578521362"><ele>491.25</ele><time>2026-04-23T09:53:09Z</time></trkpt><trkpt lat="45.946284248675134" lon="11.720862701334902"><ele>496.0</ele><time>2026-04-23T09:53:10Z</time></trkpt><trkpt lat="45.94610172915592" lon="11.720884795672276"><ele>496.0</ele><time>2026-04-23T09:53:11Z</time></trkpt><trkpt lat="45.94590357552072" lon="11.720889255250231"><ele>496.0</ele><time>2026-04-23T09:53:12Z</time></trkpt><trkpt lat="45.945736262086605" lon="11.720957700105918"><ele>496.0</ele><time>2026-04-23T09:53:13Z</time></trkpt><trkpt lat="45.945575314980395" lon="11.721031759561242"><ele>494.6666666666667</ele><time>2026-04-23T09:53:14Z</time></trkpt><trkpt lat="45.94543855116687" lon="11.721123981607557"><ele>493.33333333333337</ele><time>2026-04-23T09:53:15Z</time></trkpt><trkpt lat="45.94530160267325" lon="11.721252414925337"><ele>492.0</ele><time>2026-04-23T09:53:16Z</time></trkpt><trkpt lat="45.94517244883742" lon="11.721426898212247"><ele>497.0</ele><time>2026-04-23T09:53:17Z</time></trkpt><trkpt lat="45.945040240194366" lon="11.721619407798636"><ele>502.0</ele><time>2026-04-23T09:53:18Z</time></trkpt><trkpt lat="45.94490753645603" lon="11.721754842193404"><ele>507.0</ele><time>2026-04-23T09:53:19Z</time></trkpt><trkpt lat="45.94475725783143" lon="11.721866292549446"><ele>503.75</ele><time>2026-04-23T09:53:20Z</time></trkpt><trkpt lat="45.94459027122698" lon="11.721951686471023"><ele>500.5</ele><time>2026-04-23T09:53:21Z</time></trkpt><trkpt lat="45.944460917999045" lon="11.722010400775977"><ele>497.25</ele><time>2026-04-23T09:53:22Z</time></trkpt><trkpt lat="45.94436777948303" lon="11.722044602790552"><ele>494.0</ele><time>2026-04-23T09:53:23Z</time></trkpt><trkpt lat="45.94429143358771" lon="11.722054740438336"><ele>493.99999999999994</ele><time>2026-04-23T09:53:24Z</time></trkpt><trkpt lat="45.94422133403966" lon="11.722032543131311"><ele>494.0</ele><time>2026-04-23T09:53:25Z</time></trkpt><trkpt lat="45.94415249257454" lon="11.721971833969066"><ele>494.0</ele><time>2026-04-23T09:53:26Z</time></trkpt><trkpt lat="45.94412292139748" lon="11.72185869664226"><ele>494.0</ele><time>2026-04-23T09:53:27Z</time></trkpt><trkpt lat="45.94413083895983" lon="11.721734925507832"><ele>493.99999999999994</ele><time>2026-04-23T09:53:28Z</time></trkpt><trkpt lat="45.94416427915358" lon="11.721576965848769"><ele>494.0</ele><time>2026-04-23T09:53:29Z</time></trkpt><trkpt lat="45.944206296188256" lon="11.721428256325098"><ele>498.3333333333333</ele><time>2026-04-23T09:53:30Z</time></trkpt><trkpt lat="45.94428839908482" lon="11.721267295451955"><ele>502.66666666666663</ele><time>2026-04-23T09:53:31Z</time></trkpt><trkpt lat="45.944375451711956" lon="11.721055198766386"><ele>507.0</ele><time>2026-04-23T09:53:32Z</time></trkpt><trkpt lat="45.94444469454996" lon="11.7208504017722"><ele>509.33333333333337</ele><time>2026-04-23T09:53:33Z</time></trkpt><trkpt lat="45.94450268313551" lon="11.720596875993854"><ele>511.6666666666667</ele><time>2026-04-23T09:53:34Z</time></trkpt><trkpt lat="45.9445500955445" lon="11.720305598729178"><ele>514.0</ele><time>2026-04-23T09:53:35Z</time></trkpt><trkpt lat="45.94458598553795" lon="11.720053439099802"><ele>515.0</ele><time>2026-04-23T09:53:36Z</time></trkpt><trkpt lat="45.9445887448354" lon="11.71987225980352"><ele>516.0</ele><time>2026-04-23T09:53:37Z</time></trkpt><trkpt lat="45.944591231361024" lon="11.719700619680019"><ele>517.0</ele><time>2026-04-23T09:53:38Z</time></trkpt><trkpt lat="45.9445693317742" lon="11.719545475994702"><ele>518.0</ele><time>2026-04-23T09:53:39Z</time></trkpt><trkpt lat="45.94452993551276" lon="11.719403736006514"><ele>520.0</ele><time>2026-04-23T09:53:40Z</time></trkpt><trkpt lat="45.944433435683756" lon="11.71930728751128"><ele>522.0</ele><time>2026-04-23T09:53:41Z</time></trkpt><trkpt lat="45.94430215506896" lon="11.719285556085373"><ele>524.0</ele><time>2026-04-23T09:53:42Z</time></trkpt><trkpt lat="45.94414796800632" lon="11.719253975295112"><ele>526.0</ele><time>2026-04-23T09:53:43Z</time></trkpt><trkpt lat="45.94396881929481" lon="11.719207098219098"><ele>527.3333333333334</ele><time>2026-04-23T09:53:44Z</time></trkpt><trkpt lat="45.94381030090164" lon="11.719156825100963"><ele>528.6666666666666</ele><time>2026-04-23T09:53:45Z</time></trkpt><trkpt lat="45.943642250603375" lon="11.719125251504794"><ele>530.0</ele><time>2026-04-23T09:53:46Z</time></trkpt><trkpt lat="45.94349377400616" lon="11.719137707312541"><ele>531.3333333333333</ele><time>2026-04-23T09:53:47Z</time></trkpt><trkpt lat="45.94334496859644" lon="11.719198622500532"><ele>532.6666666666666</ele><time>2026-04-23T09:53:48Z</time></trkpt><trkpt lat="45.94317189578121" lon="11.719290032251836"><ele>534.0</ele><time>2026-04-23T09:53:49Z</time></trkpt><trkpt lat="45.942986757349246" lon="11.71936866246615"><ele>535.0</ele><time>2026-04-23T09:53:50Z</time></trkpt><trkpt lat="45.942826029463454" lon="11.719403409099009"><ele>536.0</ele><time>2026-04-23T09:53:51Z</time></trkpt><trkpt lat="45.94267674213287" lon="11.71940639543005"><ele>537.0</ele><time>2026-04-23T09:53:52Z</time></trkpt><trkpt lat="45.942523870353945" lon="11.719368689307165"><ele>537.0</ele><time>2026-04-23T09:53:53Z</time></trkpt><trkpt lat="45.94237389514821" lon="11.719268852600521"><ele>537.0</ele><time>2026-04-23T09:53:54Z</time></trkpt><trkpt lat="45.94224331585611" lon="11.719227134064557"><ele>537.0</ele><time>2026-04-23T09:53:55Z</time></trkpt><trkpt lat="45.942140367629456" lon="11.719199970547782"><ele>537.0</ele><time>2026-04-23T09:53:56Z</time></trkpt><trkpt lat="45.942038998530194" lon="11.719203771746965"><ele>537.0</ele><time>2026-04-23T09:53:57Z</time></trkpt><trkpt lat="45.94194498187249" lon="11.719249558609103"><ele>537.0</ele><time>2026-04-23T09:53:58Z</time></trkpt><trkpt lat="45.941874954420314" lon="11.71933682099619"><ele>537.0</ele><time>2026-04-23T09:53:59Z</time></trkpt><trkpt lat="45.94181465001292" lon="11.719467692365857"><ele>537.0</ele><time>2026-04-23T09:54:00Z</time></trkpt><trkpt lat="45.941776182931406" lon="11.719624872268499"><ele>537.0</ele><time>2026-04-23T09:54:01Z</time></trkpt><trkpt lat="45.94176790798557" lon="11.71976135239367"><ele>537.8000000000001</ele><time>2026-04-23T09:54:02Z</time></trkpt><trkpt lat="45.94176643197841" lon="11.719916140628701"><ele>538.6</ele><time>2026-04-23T09:54:04Z</time></trkpt><trkpt lat="45.94167354536899" lon="11.719953631014148"><ele>539.4000000000001</ele><time>2026-04-23T09:54:06Z</time></trkpt><trkpt lat="45.94165952481001" lon="11.719812817116697"><ele>540.2</ele><time>2026-04-23T09:54:08Z</time></trkpt><trkpt lat="45.941675798123896" lon="11.719689215780257"><ele>541.0</ele><time>2026-04-23T09:54:09Z</time></trkpt><trkpt lat="45.941698709875446" lon="11.719530074147201"><ele>540.0</ele><time>2026-04-23T09:54:10Z</time></trkpt><trkpt lat="45.94170941581268" lon="11.719389175876003"><ele>539.0</ele><time>2026-04-23T09:54:11Z</time></trkpt><trkpt lat="45.94174503852842" lon="11.719187094962399"><ele>538.0</ele><time>2026-04-23T09:54:12Z</time></trkpt><trkpt lat="45.94178545727011" lon="11.718978143117406"><ele>537.0</ele><time>2026-04-23T09:54:13Z</time></trkpt><trkpt lat="45.94183547525518" lon="11.718802003379812"><ele>537.0</ele><time>2026-04-23T09:54:14Z</time></trkpt><trkpt lat="45.941898560273984" lon="11.718637814376406"><ele>537.0</ele><time>2026-04-23T09:54:15Z</time></trkpt><trkpt lat="45.94196583929009" lon="11.718520207508357"><ele>537.0</ele><time>2026-04-23T09:54:16Z</time></trkpt><trkpt lat="45.94205332588939" lon="11.718439076528878"><ele>537.0</ele><time>2026-04-23T09:54:17Z</time></trkpt><trkpt lat="45.94215699437075" lon="11.71838550274626"><ele>540.5</ele><time>2026-04-23T09:54:18Z</time></trkpt><trkpt lat="45.942267247375604" lon="11.718363695954972"><ele>544.0</ele><time>2026-04-23T09:54:19Z</time></trkpt><trkpt lat="45.942380154284066" lon="11.718375868644387"><ele>547.5</ele><time>2026-04-23T09:54:20Z</time></trkpt><trkpt lat="45.94251418220458" lon="11.718409669590473"><ele>551.0</ele><time>2026-04-23T09:54:21Z</time></trkpt><trkpt lat="45.94268457288618" lon="11.718449512314058"><ele>553.0</ele><time>2026-04-23T09:54:22Z</time></trkpt><trkpt lat="45.942881454086546" lon="11.718489836784153"><ele>555.0</ele><time>2026-04-23T09:54:23Z</time></trkpt><trkpt lat="45.943068690607134" lon="11.718519860472416"><ele>557.0</ele><time>2026-04-23T09:54:24Z</time></trkpt><trkpt lat="45.94324567239487" lon="11.718537382658484"><ele>555.3333333333333</ele><time>2026-04-23T09:54:25Z</time></trkpt><trkpt lat="45.94340435200644" lon="11.718539381549183"><ele>553.6666666666666</ele><time>2026-04-23T09:54:26Z</time></trkpt><trkpt lat="45.94357020314534" lon="11.718496338923615"><ele>552.0</ele><time>2026-04-23T09:54:27Z</time></trkpt><trkpt lat="45.94374626721299" lon="11.718414563311308"><ele>552.0</ele><time>2026-04-23T09:54:28Z</time></trkpt><trkpt lat="45.943948826841165" lon="11.718318407283752"><ele>552.0</ele><time>2026-04-23T09:54:29Z</time></trkpt><trkpt lat="45.94413794846227" lon="11.718219330428814"><ele>552.0</ele><time>2026-04-23T09:54:30Z</time></trkpt><trkpt lat="45.94428615870008" lon="11.718109143480957"><ele>551.25</ele><time>2026-04-23T09:54:31Z</time></trkpt><trkpt lat="45.94441238963353" lon="11.717982778347515"><ele>550.5</ele><time>2026-04-23T09:54:32Z</time></trkpt><trkpt lat="45.94450964285246" lon="11.717857750584999"><ele>549.75</ele><time>2026-04-23T09:54:33Z</time></trkpt><trkpt lat="45.94458259575886" lon="11.717722414512926"><ele>549.0</ele><time>2026-04-23T09:54:34Z</time></trkpt><trkpt lat="45.944638297135306" lon="11.71755255295796"><ele>549.0</ele><time>2026-04-23T09:54:35Z</time></trkpt><trkpt lat="45.94469304112019" lon="11.717334993074468"><ele>549.0</ele><time>2026-04-23T09:54:36Z</time></trkpt><trkpt lat="45.944762832442095" lon="11.717090432743985"><ele>549.0</ele><time>2026-04-23T09:54:37Z</time></trkpt><trkpt lat="45.94485444258462" lon="11.716868615331466"><ele>551.0</ele><time>2026-04-23T09:54:38Z</time></trkpt><trkpt lat="45.94496012183046" lon="11.716700495735356"><ele>553.0</ele><time>2026-04-23T09:54:39Z</time></trkpt><trkpt lat="45.945097733160374" lon="11.71652694577982"><ele>555.0</ele><time>2026-04-23T09:54:40Z</time></trkpt><trkpt lat="45.94525973618332" lon="11.716352973098338"><ele>555.0</ele><time>2026-04-23T09:54:41Z</time></trkpt><trkpt lat="45.945413502933214" lon="11.71622264985731"><ele>555.0</ele><time>2026-04-23T09:54:42Z</time></trkpt><trkpt lat="45.94558024455447" lon="11.71610301955079"><ele>555.0</ele><time>2026-04-23T09:54:43Z</time></trkpt><trkpt lat="45.94573476742277" lon="11.716003254844725"><ele>556.2</ele><time>2026-04-23T09:54:44Z</time></trkpt><trkpt lat="45.94583066621179" lon="11.715941659584999"><ele>557.4</ele><time>2026-04-23T09:54:45Z</time></trkpt><trkpt lat="45.94589960775686" lon="11.715875355952333"><ele>558.6</ele><time>2026-04-23T09:54:46Z</time></trkpt><trkpt lat="45.94594143241186" lon="11.715768607309977"><ele>559.8</ele><time>2026-04-23T09:54:47Z</time></trkpt><trkpt lat="45.945998613282846" lon="11.715609761594404"><ele>561.0</ele><time>2026-04-23T09:54:48Z</time></trkpt><trkpt lat="45.946033600394976" lon="11.715369688750641"><ele>563.3333333333334</ele><time>2026-04-23T09:54:49Z</time></trkpt><trkpt lat="45.94609047833182" lon="11.71516249621426"><ele>565.6666666666667</ele><time>2026-04-23T09:54:50Z</time></trkpt><trkpt lat="45.94616898965291" lon="11.714972724573938"><ele>568.0</ele><time>2026-04-23T09:54:51Z</time></trkpt><trkpt lat="45.946273284053056" lon="11.714791503683385"><ele>568.0</ele><time>2026-04-23T09:54:52Z</time></trkpt><trkpt lat="45.946410522222806" lon="11.714606780248454"><ele>568.0</ele><time>2026-04-23T09:54:53Z</time></trkpt><trkpt lat="45.94657299400088" lon="11.714403813534386"><ele>568.0</ele><time>2026-04-23T09:54:54Z</time></trkpt><trkpt lat="45.94673596279872" lon="11.714202983181217"><ele>569.0</ele><time>2026-04-23T09:54:55Z</time></trkpt><trkpt lat="45.94689781333515" lon="11.71401032215677"><ele>570.0</ele><time>2026-04-23T09:54:56Z</time></trkpt><trkpt lat="45.94708999844607" lon="11.713809164573654"><ele>571.0</ele><time>2026-04-23T09:54:57Z</time></trkpt><trkpt lat="45.947289361088785" lon="11.713621152857215"><ele>573.5</ele><time>2026-04-23T09:54:58Z</time></trkpt><trkpt lat="45.94748372141709" lon="11.713443665287432"><ele>576.0</ele><time>2026-04-23T09:54:59Z</time></trkpt><trkpt lat="45.94768423224203" lon="11.713253216031639"><ele>576.0</ele><time>2026-04-23T09:55:00Z</time></trkpt><trkpt lat="45.94785889646385" lon="11.71307673479208"><ele>576.0</ele><time>2026-04-23T09:55:01Z</time></trkpt><trkpt lat="45.948021704551316" lon="11.712890564648935"><ele>576.0</ele><time>2026-04-23T09:55:02Z</time></trkpt><trkpt lat="45.9482005580503" lon="11.712678548315447"><ele>572.6666666666666</ele><time>2026-04-23T09:55:03Z</time></trkpt><trkpt lat="45.94836011149458" lon="11.712449666093763"><ele>569.3333333333333</ele><time>2026-04-23T09:55:04Z</time></trkpt><trkpt lat="45.94846652340201" lon="11.712268994184946"><ele>566.0</ele><time>2026-04-23T09:55:05Z</time></trkpt><trkpt lat="45.94855265105533" lon="11.712153331757532"><ele>566.0</ele><time>2026-04-23T09:55:06Z</time></trkpt><trkpt lat="45.94861469762338" lon="11.712074168589673"><ele>566.0</ele><time>2026-04-23T09:55:07Z</time></trkpt><trkpt lat="45.948667534090205" lon="11.711946098240055"><ele>566.0</ele><time>2026-04-23T09:55:09Z</time></trkpt><trkpt lat="45.9486169227785" lon="11.71181393971038"><ele>566.0</ele><time>2026-04-23T09:55:11Z</time></trkpt><trkpt lat="45.948524216852476" lon="11.711883701998932"><ele>566.0</ele><time>2026-04-23T09:55:12Z</time></trkpt><trkpt lat="45.948465704411745" lon="11.711969677028623"><ele>566.0</ele><time>2026-04-23T09:55:13Z</time></trkpt><trkpt lat="45.94838648867852" lon="11.712105690295823"><ele>566.0</ele><time>2026-04-23T09:55:14Z</time></trkpt><trkpt lat="45.948301627419454" lon="11.71221144293546"><ele>566.0</ele><time>2026-04-23T09:55:15Z</time></trkpt><trkpt lat="45.948168392654644" lon="11.712311044010782"><ele>566.0</ele><time>2026-04-23T09:55:16Z</time></trkpt><trkpt lat="45.948020123030695" lon="11.712461484008436"><ele>573.6666666666666</ele><time>2026-04-23T09:55:17Z</time></trkpt><trkpt lat="45.947878899061166" lon="11.712568363381159"><ele>581.3333333333334</ele><time>2026-04-23T09:55:18Z</time></trkpt><trkpt lat="45.94769544633549" lon="11.71266470366752"><ele>589.0</ele><time>2026-04-23T09:55:19Z</time></trkpt><trkpt lat="45.94749990791348" lon="11.712776275981382"><ele>589.0</ele><time>2026-04-23T09:55:20Z</time></trkpt><trkpt lat="45.947323172207696" lon="11.712888826107154"><ele>589.0</ele><time>2026-04-23T09:55:21Z</time></trkpt><trkpt lat="45.94710888120601" lon="11.712994444051743"><ele>589.0</ele><time>2026-04-23T09:55:22Z</time></trkpt><trkpt lat="45.946874890302205" lon="11.713103809544375"><ele>595.0</ele><time>2026-04-23T09:55:23Z</time></trkpt><trkpt lat="45.94664047911963" lon="11.713211357984543"><ele>601.0</ele><time>2026-04-23T09:55:24Z</time></trkpt><trkpt lat="45.946389153994915" lon="11.71328958504285"><ele>601.0</ele><time>2026-04-23T09:55:25Z</time></trkpt><trkpt lat="45.94612890912019" lon="11.713411425407129"><ele>601.0</ele><time>2026-04-23T09:55:26Z</time></trkpt><trkpt lat="45.94588482587055" lon="11.71347822147678"><ele>596.5</ele><time>2026-04-23T09:55:27Z</time></trkpt><trkpt lat="45.94565886734518" lon="11.713515638742363"><ele>592.0</ele><time>2026-04-23T09:55:28Z</time></trkpt><trkpt lat="45.94543932515346" lon="11.713600716465136"><ele>592.0</ele><time>2026-04-23T09:55:29Z</time></trkpt><trkpt lat="45.94521069581756" lon="11.713749275106508"><ele>592.0</ele><time>2026-04-23T09:55:30Z</time></trkpt><trkpt lat="45.94496428389488" lon="11.713893328550746"><ele>596.0</ele><time>2026-04-23T09:55:31Z</time></trkpt><trkpt lat="45.94473707134357" lon="11.714019797845747"><ele>600.0</ele><time>2026-04-23T09:55:32Z</time></trkpt><trkpt lat="45.94455753849918" lon="11.714109809156236"><ele>604.0</ele><time>2026-04-23T09:55:33Z</time></trkpt><trkpt lat="45.94440035312539" lon="11.714183400604288"><ele>604.0</ele><time>2026-04-23T09:55:34Z</time></trkpt><trkpt lat="45.944270433177195" lon="11.714244668623309"><ele>604.0</ele><time>2026-04-23T09:55:35Z</time></trkpt><trkpt lat="45.94418133979606" lon="11.714285601568907"><ele>604.0</ele><time>2026-04-23T09:55:36Z</time></trkpt><trkpt lat="45.94411704984933" lon="11.71432175058364"><ele>604.0</ele><time>2026-04-23T09:55:37Z</time></trkpt><trkpt lat="45.94403746559963" lon="11.714276865855798"><ele>604.0</ele><time>2026-04-23T09:55:39Z</time></trkpt><trkpt lat="45.94404615626339" lon="11.714152107716526"><ele>604.0</ele><time>2026-04-23T09:55:41Z</time></trkpt><trkpt lat="45.94411067112574" lon="11.714158795453345"><ele>604.0</ele><time>2026-04-23T09:55:42Z</time></trkpt><trkpt lat="45.94418458080485" lon="11.714108249636837"><ele>604.0</ele><time>2026-04-23T09:55:43Z</time></trkpt><trkpt lat="45.94428052944315" lon="11.714016757824298"><ele>604.0</ele><time>2026-04-23T09:55:44Z</time></trkpt><trkpt lat="45.944377205070175" lon="11.713951678194862"><ele>604.0</ele><time>2026-04-23T09:55:45Z</time></trkpt><trkpt lat="45.94450924290221" lon="11.713869161311269"><ele>604.0</ele><time>2026-04-23T09:55:46Z</time></trkpt><trkpt lat="45.94466503097069" lon="11.713762451427602"><ele>604.0</ele><time>2026-04-23T09:55:47Z</time></trkpt><trkpt lat="45.94478527765998" lon="11.713672303695839"><ele>604.0</ele><time>2026-04-23T09:55:48Z</time></trkpt><trkpt lat="45.944932368222716" lon="11.713555443561846"><ele>607.6666666666667</ele><time>2026-04-23T09:55:49Z</time></trkpt><trkpt lat="45.94508517307278" lon="11.713414318829361"><ele>611.3333333333334</ele><time>2026-04-23T09:55:50Z</time></trkpt><trkpt lat="45.945215429091505" lon="11.713255871244908"><ele>615.0</ele><time>2026-04-23T09:55:51Z</time></trkpt><trkpt lat="45.94533124353859" lon="11.713100120186933"><ele>615.0</ele><time>2026-04-23T09:55:52Z</time></trkpt><trkpt lat="45.94545637150508" lon="11.712985878032754"><ele>615.0</ele><time>2026-04-23T09:55:53Z</time></trkpt><trkpt lat="45.94561438820136" lon="11.712900900213132"><ele>615.0</ele><time>2026-04-23T09:55:54Z</time></trkpt><trkpt lat="45.9458018267752" lon="11.712832079990303"><ele>618.0</ele><time>2026-04-23T09:55:55Z</time></trkpt><trkpt lat="45.9459741916301" lon="11.712761049973345"><ele>621.0</ele><time>2026-04-23T09:55:56Z</time></trkpt><trkpt lat="45.94611137215793" lon="11.712656057624818"><ele>624.0</ele><time>2026-04-23T09:55:57Z</time></trkpt><trkpt lat="45.94624516539866" lon="11.712502444484173"><ele>624.0</ele><time>2026-04-23T09:55:58Z</time></trkpt><trkpt lat="45.94638327384081" lon="11.712319600997189"><ele>624.0</ele><time>2026-04-23T09:55:59Z</time></trkpt><trkpt lat="45.94648433081721" lon="11.712207885396996"><ele>624.0</ele><time>2026-04-23T09:56:00Z</time></trkpt><trkpt lat="45.946557247457676" lon="11.712146852672532"><ele>624.0</ele><time>2026-04-23T09:56:01Z</time></trkpt><trkpt lat="45.94662383576679" lon="11.712038725003294"><ele>624.0</ele><time>2026-04-23T09:56:03Z</time></trkpt><trkpt lat="45.9465718626058" lon="11.71188842623753"><ele>624.0</ele><time>2026-04-23T09:56:05Z</time></trkpt><trkpt lat="45.94649026599868" lon="11.711926047428797"><ele>624.0</ele><time>2026-04-23T09:56:06Z</time></trkpt><trkpt lat="45.94643230410348" lon="11.71200802946953"><ele>624.0</ele><time>2026-04-23T09:56:07Z</time></trkpt><trkpt lat="45.94634879339396" lon="11.712138333168657"><ele>624.0</ele><time>2026-04-23T09:56:08Z</time></trkpt><trkpt lat="45.94626339195612" lon="11.712234147543368"><ele>624.0</ele><time>2026-04-23T09:56:09Z</time></trkpt><trkpt lat="45.94616309526906" lon="11.712329721948342"><ele>624.0</ele><time>2026-04-23T09:56:10Z</time></trkpt><trkpt lat="45.94603551564501" lon="11.712413254147476"><ele>624.0</ele><time>2026-04-23T09:56:11Z</time></trkpt><trkpt lat="45.94588231149688" lon="11.71246247201599"><ele>624.0</ele><time>2026-04-23T09:56:12Z</time></trkpt><trkpt lat="45.9456900912101" lon="11.712512352077281"><ele>628.6666666666666</ele><time>2026-04-23T09:56:13Z</time></trkpt><trkpt lat="45.94550188409157" lon="11.71254589504828"><ele>633.3333333333333</ele><time>2026-04-23T09:56:14Z</time></trkpt><trkpt lat="45.94529508013047" lon="11.71261967331124"><ele>638.0</ele><time>2026-04-23T09:56:15Z</time></trkpt><trkpt lat="45.94513668286664" lon="11.712726365444745"><ele>635.25</ele><time>2026-04-23T09:56:16Z</time></trkpt><trkpt lat="45.94500116241097" lon="11.712797054623639"><ele>632.5</ele><time>2026-04-23T09:56:17Z</time></trkpt><trkpt lat="45.94487528120531" lon="11.71283361869815"><ele>629.75</ele><time>2026-04-23T09:56:18Z</time></trkpt><trkpt lat="45.94472822730015" lon="11.712833819748138"><ele>627.0</ele><time>2026-04-23T09:56:19Z</time></trkpt><trkpt lat="45.94457255700105" lon="11.71281185525313"><ele>627.0</ele><time>2026-04-23T09:56:20Z</time></trkpt><trkpt lat="45.944461931753445" lon="11.71275927422666"><ele>627.0</ele><time>2026-04-23T09:56:21Z</time></trkpt><trkpt lat="45.94438360575086" lon="11.712642772297054"><ele>627.0</ele><time>2026-04-23T09:56:22Z</time></trkpt><trkpt lat="45.94429776348594" lon="11.712536711792392"><ele>627.0</ele><time>2026-04-23T09:56:23Z</time></trkpt><trkpt lat="45.944253666705066" lon="11.712440813475594"><ele>627.0</ele><time>2026-04-23T09:56:24Z</time></trkpt><trkpt lat="45.94424088084266" lon="11.712298811584839"><ele>631.0</ele><time>2026-04-23T09:56:26Z</time></trkpt><trkpt lat="45.944333946727006" lon="11.712211914763682"><ele>635.0</ele><time>2026-04-23T09:56:28Z</time></trkpt><trkpt lat="45.9443972316311" lon="11.71223747695536"><ele>639.0</ele><time>2026-04-23T09:56:29Z</time></trkpt><trkpt lat="45.94447595571128" lon="11.712291640753916"><ele>643.0</ele><time>2026-04-23T09:56:30Z</time></trkpt><trkpt lat="45.94459262336823" lon="11.712328280665444"><ele>647.0</ele><time>2026-04-23T09:56:31Z</time></trkpt><trkpt lat="45.94468599258829" lon="11.712342746108934"><ele>647.0</ele><time>2026-04-23T09:56:32Z</time></trkpt><trkpt lat="45.944796108335474" lon="11.71234702483564"><ele>647.0</ele><time>2026-04-23T09:56:33Z</time></trkpt><trkpt lat="45.944940982149674" lon="11.712331195736786"><ele>647.0</ele><time>2026-04-23T09:56:34Z</time></trkpt><trkpt lat="45.945074824872925" lon="11.712281866736491"><ele>647.0</ele><time>2026-04-23T09:56:35Z</time></trkpt><trkpt lat="45.94521428101945" lon="11.712201172590476"><ele>644.75</ele><time>2026-04-23T09:56:36Z</time></trkpt><trkpt lat="45.94536615949432" lon="11.71208906674782"><ele>642.5</ele><time>2026-04-23T09:56:37Z</time></trkpt><trkpt lat="45.9454867134807" lon="11.711986367726386"><ele>640.25</ele><time>2026-04-23T09:56:38Z</time></trkpt><trkpt lat="45.945584219940294" lon="11.711864524312826"><ele>638.0</ele><time>2026-04-23T09:56:39Z</time></trkpt><trkpt lat="45.94565881147482" lon="11.71169986498183"><ele>644.6666666666666</ele><time>2026-04-23T09:56:40Z</time></trkpt><trkpt lat="45.94573405762541" lon="11.711499373479624"><ele>651.3333333333334</ele><time>2026-04-23T09:56:41Z</time></trkpt><trkpt lat="45.94580022776045" lon="11.711277382728229"><ele>658.0</ele><time>2026-04-23T09:56:42Z</time></trkpt><trkpt lat="45.945856267852896" lon="11.711102273674976"><ele>658.5</ele><time>2026-04-23T09:56:43Z</time></trkpt><trkpt lat="45.945955568156855" lon="11.71095681046036"><ele>659.0</ele><time>2026-04-23T09:56:44Z</time></trkpt><trkpt lat="45.946073667206996" lon="11.710847832163063"><ele>659.5</ele><time>2026-04-23T09:56:45Z</time></trkpt><trkpt lat="45.94622333794755" lon="11.710746315287448"><ele>660.0</ele><time>2026-04-23T09:56:46Z</time></trkpt><trkpt lat="45.94641228968187" lon="11.710641007493228"><ele>660.0</ele><time>2026-04-23T09:56:47Z</time></trkpt><trkpt lat="45.946607047500024" lon="11.710538845979833"><ele>660.0</ele><time>2026-04-23T09:56:48Z</time></trkpt><trkpt lat="45.94675427404904" lon="11.710471411262624"><ele>660.0</ele><time>2026-04-23T09:56:49Z</time></trkpt><trkpt lat="45.94685711631105" lon="11.710421233935866"><ele>661.6</ele><time>2026-04-23T09:56:50Z</time></trkpt><trkpt lat="45.94693464657103" lon="11.710380105257824"><ele>663.2</ele><time>2026-04-23T09:56:51Z</time></trkpt><trkpt lat="45.94698275206914" lon="11.710319402063316"><ele>664.8</ele><time>2026-04-23T09:56:52Z</time></trkpt><trkpt lat="45.94698846008769" lon="11.710137527918697"><ele>666.4</ele><time>2026-04-23T09:56:54Z</time></trkpt><trkpt lat="45.9469059107478" lon="11.710087840469711"><ele>668.0</ele><time>2026-04-23T09:56:55Z</time></trkpt><trkpt lat="45.94681327376286" lon="11.71014348151202"><ele>670.0</ele><time>2026-04-23T09:56:56Z</time></trkpt><trkpt lat="45.946707116010124" lon="11.71021540809683"><ele>672.0</ele><time>2026-04-23T09:56:57Z</time></trkpt><trkpt lat="45.94659997002424" lon="11.710266372705306"><ele>674.0</ele><time>2026-04-23T09:56:58Z</time></trkpt><trkpt lat="45.94647387261333" lon="11.710313669262122"><ele>676.0</ele><time>2026-04-23T09:56:59Z</time></trkpt><trkpt lat="45.9462946472769" lon="11.710363278032979"><ele>672.6666666666667</ele><time>2026-04-23T09:57:00Z</time></trkpt><trkpt lat="45.946108778569375" lon="11.7103666406989"><ele>669.3333333333334</ele><time>2026-04-23T09:57:01Z</time></trkpt><trkpt lat="45.94589930979693" lon="11.710389817218639"><ele>666.0</ele><time>2026-04-23T09:57:02Z</time></trkpt><trkpt lat="45.94565561713201" lon="11.710416780416823"><ele>666.0</ele><time>2026-04-23T09:57:03Z</time></trkpt><trkpt lat="45.945419796800735" lon="11.710445174272804"><ele>666.0</ele><time>2026-04-23T09:57:04Z</time></trkpt><trkpt lat="45.9451916890629" lon="11.710481200775368"><ele>667.25</ele><time>2026-04-23T09:57:05Z</time></trkpt><trkpt lat="45.94501804424638" lon="11.710511404655303"><ele>668.5</ele><time>2026-04-23T09:57:06Z</time></trkpt><trkpt lat="45.94489284993594" lon="11.710532803508531"><ele>669.75</ele><time>2026-04-23T09:57:07Z</time></trkpt><trkpt lat="45.94481161943528" lon="11.710546630848793"><ele>671.0</ele><time>2026-04-23T09:57:08Z</time></trkpt><trkpt lat="45.94471779512041" lon="11.710542265285941"><ele>671.0</ele><time>2026-04-23T09:57:10Z</time></trkpt><trkpt lat="45.94472160303975" lon="11.710405555743035"><ele>671.0</ele><time>2026-04-23T09:57:12Z</time></trkpt><trkpt lat="45.94478245761069" lon="11.71034735962323"><ele>671.0</ele><time>2026-04-23T09:57:13Z</time></trkpt><trkpt lat="45.94487172235447" lon="11.710325615981331"><ele>671.0</ele><time>2026-04-23T09:57:14Z</time></trkpt><trkpt lat="45.94498680402663" lon="11.710289302239088"><ele>671.0</ele><time>2026-04-23T09:57:15Z</time></trkpt><trkpt lat="45.94508551502872" lon="11.710243763003461"><ele>675.0</ele><time>2026-04-23T09:57:16Z</time></trkpt><trkpt lat="45.9452282036036" lon="11.710172997125568"><ele>679.0</ele><time>2026-04-23T09:57:17Z</time></trkpt><trkpt lat="45.945422199602284" lon="11.71007263221901"><ele>683.0</ele><time>2026-04-23T09:57:18Z</time></trkpt><trkpt lat="45.94559848969495" lon="11.709982779171577"><ele>683.0</ele><time>2026-04-23T09:57:19Z</time></trkpt><trkpt lat="45.94581031546758" lon="11.709881955883306"><ele>683.0</ele><time>2026-04-23T09:57:20Z</time></trkpt><trkpt lat="45.94603547073514" lon="11.709776998628806"><ele>680.6666666666666</ele><time>2026-04-23T09:57:21Z</time></trkpt><trkpt lat="45.94624231969614" lon="11.709684556577253"><ele>678.3333333333334</ele><time>2026-04-23T09:57:22Z</time></trkpt><trkpt lat="45.94646127200897" lon="11.709579086969418"><ele>676.0</ele><time>2026-04-23T09:57:23Z</time></trkpt><trkpt lat="45.94665053247172" lon="11.709463140290488"><ele>680.0</ele><time>2026-04-23T09:57:24Z</time></trkpt><trkpt lat="45.94683719656211" lon="11.70932346343658"><ele>684.0</ele><time>2026-04-23T09:57:25Z</time></trkpt><trkpt lat="45.94702867577842" lon="11.709146503796983"><ele>688.0</ele><time>2026-04-23T09:57:26Z</time></trkpt><trkpt lat="45.94723590032003" lon="11.708937744169214"><ele>688.0</ele><time>2026-04-23T09:57:27Z</time></trkpt><trkpt lat="45.94745829087466" lon="11.708732242694737"><ele>688.0</ele><time>2026-04-23T09:57:28Z</time></trkpt><trkpt lat="45.94765283483666" lon="11.708551377173526"><ele>690.6666666666667</ele><time>2026-04-23T09:57:29Z</time></trkpt><trkpt lat="45.947825288441756" lon="11.70837891899664"><ele>693.3333333333334</ele><time>2026-04-23T09:57:30Z</time></trkpt><trkpt lat="45.94797533874165" lon="11.708211765333456"><ele>696.0</ele><time>2026-04-23T09:57:31Z</time></trkpt><trkpt lat="45.948100322992424" lon="11.708069598760797"><ele>696.0</ele><time>2026-04-23T09:57:32Z</time></trkpt><trkpt lat="45.94822242571274" lon="11.707951408244828"><ele>696.0</ele><time>2026-04-23T09:57:33Z</time></trkpt><trkpt lat="45.94835404742824" lon="11.707869455680129"><ele>696.0</ele><time>2026-04-23T09:57:34Z</time></trkpt><trkpt lat="45.94850531518153" lon="11.707805649189435"><ele>696.0</ele><time>2026-04-23T09:57:35Z</time></trkpt><trkpt lat="45.94867874789729" lon="11.70772746321034"><ele>697.6666666666666</ele><time>2026-04-23T09:57:36Z</time></trkpt><trkpt lat="45.94883934627431" lon="11.7076314002836"><ele>699.3333333333333</ele><time>2026-04-23T09:57:37Z</time></trkpt><trkpt lat="45.94897761186515" lon="11.707533571787819"><ele>701.0</ele><time>2026-04-23T09:57:38Z</time></trkpt><trkpt lat="45.949093058707234" lon="11.707422483804244"><ele>701.0</ele><time>2026-04-23T09:57:39Z</time></trkpt><trkpt lat="45.9491921281619" lon="11.707271629073922"><ele>701.0</ele><time>2026-04-23T09:57:40Z</time></trkpt><trkpt lat="45.94927961569958" lon="11.707084682753537"><ele>701.0</ele><time>2026-04-23T09:57:41Z</time></trkpt><trkpt lat="45.9493461013284" lon="11.706916359795155"><ele>701.0</ele><time>2026-04-23T09:57:42Z</time></trkpt><trkpt lat="45.9493804621403" lon="11.706820816710366"><ele>701.0</ele><time>2026-04-23T09:57:43Z</time></trkpt><trkpt lat="45.949414003828224" lon="11.706700502674005"><ele>701.0</ele><time>2026-04-23T09:57:45Z</time></trkpt><trkpt lat="45.94931266156536" lon="11.70658527531429"><ele>701.0</ele><time>2026-04-23T09:57:47Z</time></trkpt><trkpt lat="45.94924408526094" lon="11.706609231640318"><ele>701.0</ele><time>2026-04-23T09:57:48Z</time></trkpt><trkpt lat="45.94919075636857" lon="11.706792984680284"><ele>701.0</ele><time>2026-04-23T09:57:49Z</time></trkpt><trkpt lat="45.94912852326325" lon="11.706928068231477"><ele>701.0</ele><time>2026-04-23T09:57:50Z</time></trkpt><trkpt lat="45.949066836194675" lon="11.707025351373494"><ele>701.0</ele><time>2026-04-23T09:57:51Z</time></trkpt><trkpt lat="45.94898764138149" lon="11.707106578817076"><ele>701.0</ele><time>2026-04-23T09:57:52Z</time></trkpt><trkpt lat="45.9488773673568" lon="11.707172372712582"><ele>701.0</ele><time>2026-04-23T09:57:53Z</time></trkpt><trkpt lat="45.94873475197111" lon="11.70722417161343"><ele>701.0</ele><time>2026-04-23T09:57:54Z</time></trkpt><trkpt lat="45.94857644765237" lon="11.707262171081469"><ele>701.0</ele><time>2026-04-23T09:57:55Z</time></trkpt><trkpt lat="45.94843210588808" lon="11.70729612925816"><ele>701.0</ele><time>2026-04-23T09:57:56Z</time></trkpt><trkpt lat="45.9482527678251" lon="11.707344099032069"><ele>705.3333333333333</ele><time>2026-04-23T09:57:57Z</time></trkpt><trkpt lat="45.94805754052296" lon="11.707413414995045"><ele>709.6666666666666</ele><time>2026-04-23T09:57:58Z</time></trkpt><trkpt lat="45.94787779109689" lon="11.707504555261451"><ele>714.0</ele><time>2026-04-23T09:57:59Z</time></trkpt><trkpt lat="45.94767947467047" lon="11.7076243361345"><ele>711.6666666666666</ele><time>2026-04-23T09:58:00Z</time></trkpt><trkpt lat="45.94746659431495" lon="11.707773596113073"><ele>709.3333333333333</ele><time>2026-04-23T09:58:01Z</time></trkpt><trkpt lat="45.94728033651572" lon="11.707919493106472"><ele>707.0</ele><time>2026-04-23T09:58:02Z</time></trkpt><trkpt lat="45.94709116896478" lon="11.708043247345193"><ele>707.0</ele><time>2026-04-23T09:58:03Z</time></trkpt><trkpt lat="45.9468926605943" lon="11.708140788690617"><ele>707.0</ele><time>2026-04-23T09:58:04Z</time></trkpt><trkpt lat="45.94670319758652" lon="11.708215402109026"><ele>707.0</ele><time>2026-04-23T09:58:05Z</time></trkpt><trkpt lat="45.946518027155015" lon="11.708271145836125"><ele>712.3333333333333</ele><time>2026-04-23T09:58:06Z</time></trkpt><trkpt lat="45.946336691862264" lon="11.708313339810013"><ele>717.6666666666666</ele><time>2026-04-23T09:58:07Z</time></trkpt><trkpt lat="45.946152207509186" lon="11.708334697126954"><ele>723.0</ele><time>2026-04-23T09:58:08Z</time></trkpt><trkpt lat="45.94598194918928" lon="11.708323300775701"><ele>725.5</ele><time>2026-04-23T09:58:09Z</time></trkpt><trkpt lat="45.94583368672297" lon="11.70839149650063"><ele>728.0</ele><time>2026-04-23T09:58:10Z</time></trkpt><trkpt lat="45.945701827075666" lon="11.70846024689907"><ele>730.5</ele><time>2026-04-23T09:58:11Z</time></trkpt><trkpt lat="45.94556398239551" lon="11.708507228001926"><ele>733.0</ele><time>2026-04-23T09:58:12Z</time></trkpt><trkpt lat="45.94539173268323" lon="11.708522386180663"><ele>733.0</ele><time>2026-04-23T09:58:13Z</time></trkpt><trkpt lat="45.94518948794423" lon="11.708530840514866"><ele>733.0</ele><time>2026-04-23T09:58:14Z</time></trkpt><trkpt lat="45.94500018682585" lon="11.708565038820463"><ele>733.0</ele><time>2026-04-23T09:58:15Z</time></trkpt><trkpt lat="45.94480633564793" lon="11.708581059416504"><ele>726.6666666666667</ele><time>2026-04-23T09:58:16Z</time></trkpt><trkpt lat="45.94463285607356" lon="11.708578196937623"><ele>720.3333333333334</ele><time>2026-04-23T09:58:17Z</time></trkpt><trkpt lat="45.94448684981525" lon="11.708580148759168"><ele>714.0</ele><time>2026-04-23T09:58:18Z</time></trkpt><trkpt lat="45.94435167457251" lon="11.708607379876291"><ele>714.0</ele><time>2026-04-23T09:58:19Z</time></trkpt><trkpt lat="45.94422953444778" lon="11.708661685179106"><ele>714.0</ele><time>2026-04-23T09:58:20Z</time></trkpt><trkpt lat="45.94412246032933" lon="11.708740654626158"><ele>714.0</ele><time>2026-04-23T09:58:21Z</time></trkpt><trkpt lat="45.944032733629626" lon="11.708842478679415"><ele>714.0</ele><time>2026-04-23T09:58:22Z</time></trkpt><trkpt lat="45.943949571818536" lon="11.70896025544575"><ele>716.2</ele><time>2026-04-23T09:58:23Z</time></trkpt><trkpt lat="45.943865469253005" lon="11.70908853890632"><ele>718.4000000000001</ele><time>2026-04-23T09:58:24Z</time></trkpt><trkpt lat="45.94377003446895" lon="11.709203646261214"><ele>720.6</ele><time>2026-04-23T09:58:25Z</time></trkpt><trkpt lat="45.94368420653848" lon="11.70927531274863"><ele>722.8</ele><time>2026-04-23T09:58:26Z</time></trkpt><trkpt lat="45.9435990297591" lon="11.709323202677925"><ele>725.0</ele><time>2026-04-23T09:58:27Z</time></trkpt><trkpt lat="45.94350485401909" lon="11.709359996437959"><ele>725.0</ele><time>2026-04-23T09:58:28Z</time></trkpt><trkpt lat="45.94340204420393" lon="11.709375853518804"><ele>725.0</ele><time>2026-04-23T09:58:29Z</time></trkpt><trkpt lat="45.943284607075825" lon="11.70936608972514"><ele>725.0</ele><time>2026-04-23T09:58:30Z</time></trkpt><trkpt lat="45.94317505928139" lon="11.709337582373143"><ele>725.0</ele><time>2026-04-23T09:58:31Z</time></trkpt><trkpt lat="45.943099912298486" lon="11.709304283415731"><ele>725.0</ele><time>2026-04-23T09:58:32Z</time></trkpt><trkpt lat="45.94303298732074" lon="11.709271392334912"><ele>728.3333333333333</ele><time>2026-04-23T09:58:33Z</time></trkpt><trkpt lat="45.94295414690045" lon="11.70925211852692"><ele>731.6666666666666</ele><time>2026-04-23T09:58:34Z</time></trkpt><trkpt lat="45.942870250778654" lon="11.709250835877757"><ele>735.0</ele><time>2026-04-23T09:58:35Z</time></trkpt><trkpt lat="45.94278120244662" lon="11.709263638230205"><ele>738.3333333333334</ele><time>2026-04-23T09:58:36Z</time></trkpt><trkpt lat="45.94269161355543" lon="11.709288859304927"><ele>741.6666666666667</ele><time>2026-04-23T09:58:37Z</time></trkpt><trkpt lat="45.942595266255815" lon="11.709313119248684"><ele>745.0</ele><time>2026-04-23T09:58:38Z</time></trkpt><trkpt lat="45.94249396615547" lon="11.709345911439417"><ele>747.0</ele><time>2026-04-23T09:58:39Z</time></trkpt><trkpt lat="45.942385842279904" lon="11.709391722134587"><ele>749.0</ele><time>2026-04-23T09:58:40Z</time></trkpt><trkpt lat="45.94227332613444" lon="11.709462998707576"><ele>751.0</ele><time>2026-04-23T09:58:41Z</time></trkpt><trkpt lat="45.942173588514514" lon="11.70957314289952"><ele>753.0</ele><time>2026-04-23T09:58:42Z</time></trkpt><trkpt lat="45.94205872594165" lon="11.709732617477117"><ele>753.0</ele><time>2026-04-23T09:58:43Z</time></trkpt><trkpt lat="45.9419558671368" lon="11.709876751252974"><ele>753.0</ele><time>2026-04-23T09:58:44Z</time></trkpt><trkpt lat="45.94187867734954" lon="11.709996224216427"><ele>753.0</ele><time>2026-04-23T09:58:45Z</time></trkpt><trkpt lat="45.94181443384758" lon="11.71009212850384"><ele>753.0</ele><time>2026-04-23T09:58:46Z</time></trkpt><trkpt lat="45.9417659168269" lon="11.710159755122335"><ele>753.0</ele><time>2026-04-23T09:58:47Z</time></trkpt><trkpt lat="45.94171040503336" lon="11.710212011808933"><ele>753.0</ele><time>2026-04-23T09:58:48Z</time></trkpt><trkpt lat="45.94164279442597" lon="11.71023727195929"><ele>753.0</ele><time>2026-04-23T09:58:49Z</time></trkpt><trkpt lat="45.941577448372335" lon="11.710227068620632"><ele>753.0</ele><time>2026-04-23T09:58:50Z</time></trkpt><trkpt lat="45.94146319854857" lon="11.710142712593422"><ele>753.0</ele><time>2026-04-23T09:58:52Z</time></trkpt><trkpt lat="45.94140257565522" lon="11.710065409186688"><ele>753.0</ele><time>2026-04-23T09:58:53Z</time></trkpt><trkpt lat="45.94132942525425" lon="11.709975041461748"><ele>753.0</ele><time>2026-04-23T09:58:54Z</time></trkpt><trkpt lat="45.941270492859374" lon="11.709890241370958"><ele>753.0</ele><time>2026-04-23T09:58:55Z</time></trkpt><trkpt lat="45.94122082369397" lon="11.709799409651179"><ele>753.0</ele><time>2026-04-23T09:58:56Z</time></trkpt><trkpt lat="45.94115816349301" lon="11.709700261931948"><ele>753.0</ele><time>2026-04-23T09:58:57Z</time></trkpt><trkpt lat="45.94111219368455" lon="11.709587084954459"><ele>753.0</ele><time>2026-04-23T09:58:58Z</time></trkpt><trkpt lat="45.94108371807711" lon="11.709474648950577"><ele>753.0</ele><time>2026-04-23T09:58:59Z</time></trkpt><trkpt lat="45.9410678934839" lon="11.70936346378364"><ele>753.0</ele><time>2026-04-23T09:59:00Z</time></trkpt><trkpt lat="45.94103987126463" lon="11.709214079468545"><ele>754.4</ele><time>2026-04-23T09:59:02Z</time></trkpt><trkpt lat="45.94101999504681" lon="11.709112990725451"><ele>755.8</ele><time>2026-04-23T09:59:04Z</time></trkpt><trkpt lat="45.94096020011349" lon="11.709061266711634"><ele>757.2</ele><time>2026-04-23T09:59:05Z</time></trkpt><trkpt lat="45.94083205477271" lon="11.709207036170715"><ele>758.6</ele><time>2026-04-23T09:59:06Z</time></trkpt><trkpt lat="45.94075497918536" lon="11.709269199942016"><ele>760.0</ele><time>2026-04-23T09:59:07Z</time></trkpt><trkpt lat="45.94065630821114" lon="11.709343730422752"><ele>760.0</ele><time>2026-04-23T09:59:08Z</time></trkpt><trkpt lat="45.94058264566565" lon="11.709403757606742"><ele>760.0</ele><time>2026-04-23T09:59:09Z</time></trkpt><trkpt lat="45.94051211735384" lon="11.709459517793956"><ele>760.0</ele><time>2026-04-23T09:59:10Z</time></trkpt><trkpt lat="45.940435345770446" lon="11.709510260235689"><ele>760.0</ele><time>2026-04-23T09:59:11Z</time></trkpt><trkpt lat="45.94035310770009" lon="11.709568582927334"><ele>760.0</ele><time>2026-04-23T09:59:12Z</time></trkpt><trkpt lat="45.940272335873004" lon="11.709613008122815"><ele>760.0</ele><time>2026-04-23T09:59:13Z</time></trkpt><trkpt lat="45.94018457861368" lon="11.709655372826637"><ele>759.6</ele><time>2026-04-23T09:59:14Z</time></trkpt><trkpt lat="45.940114583184084" lon="11.709687330213015"><ele>759.2</ele><time>2026-04-23T09:59:15Z</time></trkpt><trkpt lat="45.94000054666763" lon="11.709732877234023"><ele>758.8</ele><time>2026-04-23T09:59:17Z</time></trkpt><trkpt lat="45.93993643430762" lon="11.70973528180989"><ele>758.4</ele><time>2026-04-23T09:59:18Z</time></trkpt><trkpt lat="45.939810547540404" lon="11.709767892190989"><ele>758.0</ele><time>2026-04-23T09:59:20Z</time></trkpt><trkpt lat="45.93973964312244" lon="11.709814952099485"><ele>759.1666666666666</ele><time>2026-04-23T09:59:21Z</time></trkpt><trkpt lat="45.939678429437926" lon="11.709837024368168"><ele>760.3333333333333</ele><time>2026-04-23T09:59:22Z</time></trkpt><trkpt lat="45.93955901701761" lon="11.709844750133247"><ele>761.5</ele><time>2026-04-23T09:59:24Z</time></trkpt><trkpt lat="45.9394976981992" lon="11.709716473927783"><ele>762.6666666666666</ele><time>2026-04-23T09:59:25Z</time></trkpt><trkpt lat="45.93945390463972" lon="11.709640539470028"><ele>763.8333333333334</ele><time>2026-04-23T09:59:26Z</time></trkpt><trkpt lat="45.93940191606431" lon="11.709565009446722"><ele>765.0</ele><time>2026-04-23T09:59:27Z</time></trkpt><trkpt lat="45.939364916387284" lon="11.709469053242346"><ele>765.4</ele><time>2026-04-23T09:59:28Z</time></trkpt><trkpt lat="45.93935387611804" lon="11.709352746889888"><ele>765.8</ele><time>2026-04-23T09:59:29Z</time></trkpt><trkpt lat="45.939301147880514" lon="11.709216565899757"><ele>766.2</ele><time>2026-04-23T09:59:30Z</time></trkpt><trkpt lat="45.93924975633036" lon="11.709128924380076"><ele>766.6</ele><time>2026-04-23T09:59:31Z</time></trkpt><trkpt lat="45.939199897855595" lon="11.709021102845856"><ele>767.0</ele><time>2026-04-23T09:59:32Z</time></trkpt><trkpt lat="45.939184900278875" lon="11.70887081223721"><ele>768.0</ele><time>2026-04-23T09:59:33Z</time></trkpt><trkpt lat="45.9391244907068" lon="11.70875373895934"><ele>769.0</ele><time>2026-04-23T09:59:34Z</time></trkpt><trkpt lat="45.939087136259076" lon="11.708638233186026"><ele>770.0</ele><time>2026-04-23T09:59:35Z</time></trkpt><trkpt lat="45.939056372073" lon="11.708499067155206"><ele>771.0</ele><time>2026-04-23T09:59:36Z</time></trkpt><trkpt lat="45.939037905963964" lon="11.708347954870112"><ele>772.0</ele><time>2026-04-23T09:59:37Z</time></trkpt><trkpt lat="45.93900264054877" lon="11.708168255470405"><ele>773.4000000000001</ele><time>2026-04-23T09:59:38Z</time></trkpt><trkpt lat="45.93897096566402" lon="11.708031726065729"><ele>774.8000000000001</ele><time>2026-04-23T09:59:39Z</time></trkpt><trkpt lat="45.938943778188104" lon="11.707891461312549"><ele>776.2</ele><time>2026-04-23T09:59:40Z</time></trkpt><trkpt lat="45.93887369910043" lon="11.70777394507062"><ele>777.6</ele><time>2026-04-23T09:59:41Z</time></trkpt><trkpt lat="45.93880910796557" lon="11.70765192161414"><ele>779.0</ele><time>2026-04-23T09:59:42Z</time></trkpt><trkpt lat="45.938732290435" lon="11.707530415365232"><ele>780.2</ele><time>2026-04-23T09:59:43Z</time></trkpt><trkpt lat="45.93864448216256" lon="11.707406975255328"><ele>781.4000000000001</ele><time>2026-04-23T09:59:44Z</time></trkpt><trkpt lat="45.93858191767198" lon="11.707275947515523"><ele>782.6</ele><time>2026-04-23T09:59:45Z</time></trkpt><trkpt lat="45.938519177136534" lon="11.707184228298233"><ele>783.8</ele><time>2026-04-23T09:59:46Z</time></trkpt><trkpt lat="45.938461254459895" lon="11.707065374963603"><ele>785.0</ele><time>2026-04-23T09:59:47Z</time></trkpt><trkpt lat="45.9384001330588" lon="11.70690764512818"><ele>785.75</ele><time>2026-04-23T09:59:48Z</time></trkpt><trkpt lat="45.93834643681845" lon="11.706725373621708"><ele>786.5</ele><time>2026-04-23T09:59:49Z</time></trkpt><trkpt lat="45.93830937530926" lon="11.706574640459891"><ele>787.25</ele><time>2026-04-23T09:59:50Z</time></trkpt><trkpt lat="45.938277346025416" lon="11.706434183364408"><ele>788.0</ele><time>2026-04-23T09:59:51Z</time></trkpt><trkpt lat="45.93822549648483" lon="11.706300705346425"><ele>788.0</ele><time>2026-04-23T09:59:52Z</time></trkpt><trkpt lat="45.93821672939371" lon="11.70612068002626"><ele>788.0</ele><time>2026-04-23T09:59:53Z</time></trkpt><trkpt lat="45.93817442353528" lon="11.705921311612716"><ele>788.0</ele><time>2026-04-23T09:59:54Z</time></trkpt><trkpt lat="45.93812951424232" lon="11.705709674521254"><ele>788.0</ele><time>2026-04-23T09:59:55Z</time></trkpt><trkpt lat="45.9380866691353" lon="11.70550954303452"><ele>790.0</ele><time>2026-04-23T09:59:56Z</time></trkpt><trkpt lat="45.938039987884146" lon="11.705298294243594"><ele>792.0</ele><time>2026-04-23T09:59:57Z</time></trkpt><trkpt lat="45.93799886812945" lon="11.7050813523587"><ele>794.0</ele><time>2026-04-23T09:59:58Z</time></trkpt><trkpt lat="45.937965344131605" lon="11.70486844707365"><ele>794.3333333333334</ele><time>2026-04-23T09:59:59Z</time></trkpt><trkpt lat="45.93793241576831" lon="11.704645334276435"><ele>794.6666666666667</ele><time>2026-04-23T10:00:00Z</time></trkpt><trkpt lat="45.937915422596504" lon="11.70439207631526"><ele>795.0</ele><time>2026-04-23T10:00:01Z</time></trkpt><trkpt lat="45.93790473148198" lon="11.704096661752585"><ele>796.3333333333333</ele><time>2026-04-23T10:00:02Z</time></trkpt><trkpt lat="45.937887373848085" lon="11.703840944658472"><ele>797.6666666666666</ele><time>2026-04-23T10:00:03Z</time></trkpt><trkpt lat="45.93786572313873" lon="11.703594390346538"><ele>799.0</ele><time>2026-04-23T10:00:04Z</time></trkpt><trkpt lat="45.93784428164961" lon="11.70335232910593"><ele>802.3333333333333</ele><time>2026-04-23T10:00:05Z</time></trkpt><trkpt lat="45.937817802079074" lon="11.703123678184598"><ele>805.6666666666667</ele><time>2026-04-23T10:00:06Z</time></trkpt><trkpt lat="45.93778911162801" lon="11.70290844558209"><ele>809.0</ele><time>2026-04-23T10:00:07Z</time></trkpt><trkpt lat="45.93775205800112" lon="11.702692674261897"><ele>814.3333333333334</ele><time>2026-04-23T10:00:08Z</time></trkpt><trkpt lat="45.93770512187423" lon="11.702461929923764"><ele>819.6666666666667</ele><time>2026-04-23T10:00:09Z</time></trkpt><trkpt lat="45.93765298905829" lon="11.702203713613038"><ele>825.0</ele><time>2026-04-23T10:00:10Z</time></trkpt><trkpt lat="45.937612944036026" lon="11.701919263143902"><ele>826.0</ele><time>2026-04-23T10:00:11Z</time></trkpt><trkpt lat="45.937583192438645" lon="11.701616070617044"><ele>827.0</ele><time>2026-04-23T10:00:12Z</time></trkpt><trkpt lat="45.9375551371673" lon="11.701347881632191"><ele>828.0</ele><time>2026-04-23T10:00:13Z</time></trkpt><trkpt lat="45.937531344798785" lon="11.701096852505694"><ele>830.3333333333333</ele><time>2026-04-23T10:00:14Z</time></trkpt><trkpt lat="45.93746946222637" lon="11.700855881099107"><ele>832.6666666666666</ele><time>2026-04-23T10:00:15Z</time></trkpt><trkpt lat="45.937371065871815" lon="11.70062387282198"><ele>835.0</ele><time>2026-04-23T10:00:16Z</time></trkpt><trkpt lat="45.93730133045582" lon="11.700376058340824"><ele>837.6666666666666</ele><time>2026-04-23T10:00:17Z</time></trkpt><trkpt lat="45.93726051175077" lon="11.700143053996797"><ele>840.3333333333333</ele><time>2026-04-23T10:00:18Z</time></trkpt><trkpt lat="45.93723455377719" lon="11.699891635067598"><ele>843.0</ele><time>2026-04-23T10:00:19Z</time></trkpt><trkpt lat="45.93721229631294" lon="11.699613231120392"><ele>846.6666666666667</ele><time>2026-04-23T10:00:20Z</time></trkpt><trkpt lat="45.937191475093215" lon="11.699298464754445"><ele>850.3333333333334</ele><time>2026-04-23T10:00:21Z</time></trkpt><trkpt lat="45.937164770341276" lon="11.698974512932113"><ele>854.0</ele><time>2026-04-23T10:00:22Z</time></trkpt><trkpt lat="45.937156084104025" lon="11.69864480186693"><ele>862.0</ele><time>2026-04-23T10:00:23Z</time></trkpt><trkpt lat="45.937133552146925" lon="11.698320572631426"><ele>870.0</ele><time>2026-04-23T10:00:24Z</time></trkpt><trkpt lat="45.937087936834715" lon="11.69798521000757"><ele>874.5</ele><time>2026-04-23T10:00:25Z</time></trkpt><trkpt lat="45.93705203985268" lon="11.697625992034173"><ele>879.0</ele><time>2026-04-23T10:00:26Z</time></trkpt><trkpt lat="45.937012968023645" lon="11.69726453600349"><ele>879.0</ele><time>2026-04-23T10:00:27Z</time></trkpt><trkpt lat="45.93699082794691" lon="11.696949218690765"><ele>879.0</ele><time>2026-04-23T10:00:28Z</time></trkpt><trkpt lat="45.936978520828724" lon="11.696684967397768"><ele>879.0</ele><time>2026-04-23T10:00:29Z</time></trkpt><trkpt lat="45.9369764545396" lon="11.696485495758616"><ele>880.5</ele><time>2026-04-23T10:00:30Z</time></trkpt><trkpt lat="45.93697274268889" lon="11.696322989177084"><ele>882.0</ele><time>2026-04-23T10:00:31Z</time></trkpt><trkpt lat="45.936979605117706" lon="11.696192696366918"><ele>883.5</ele><time>2026-04-23T10:00:32Z</time></trkpt><trkpt lat="45.936985895841346" lon="11.696058377265912"><ele>885.0</ele><time>2026-04-23T10:00:34Z</time></trkpt><trkpt lat="45.9370048611712" lon="11.695948174555621"><ele>886.5</ele><time>2026-04-23T10:00:37Z</time></trkpt><trkpt lat="45.937008518706016" lon="11.695849809348639"><ele>888.0</ele><time>2026-04-23T10:00:39Z</time></trkpt><trkpt lat="45.93689301309871" lon="11.69580935269833"><ele>889.5</ele><time>2026-04-23T10:00:40Z</time></trkpt><trkpt lat="45.93681252455218" lon="11.695834985838141"><ele>891.0</ele><time>2026-04-23T10:00:41Z</time></trkpt><trkpt lat="45.93674482283987" lon="11.695895127239142"><ele>892.5</ele><time>2026-04-23T10:00:42Z</time></trkpt><trkpt lat="45.936696792372466" lon="11.695977299767124"><ele>894.0</ele><time>2026-04-23T10:00:43Z</time></trkpt><trkpt lat="45.93666910964695" lon="11.696102821856737"><ele>895.5</ele><time>2026-04-23T10:00:44Z</time></trkpt><trkpt lat="45.93665947646151" lon="11.696251685683725"><ele>897.0</ele><time>2026-04-23T10:00:45Z</time></trkpt><trkpt lat="45.93664721189307" lon="11.696456845339451"><ele>897.0</ele><time>2026-04-23T10:00:46Z</time></trkpt><trkpt lat="45.936630336444125" lon="11.696684919872334"><ele>897.0</ele><time>2026-04-23T10:00:47Z</time></trkpt><trkpt lat="45.936613987183996" lon="11.69691690971121"><ele>897.0</ele><time>2026-04-23T10:00:48Z</time></trkpt><trkpt lat="45.93659332762803" lon="11.697199563291571"><ele>896.0</ele><time>2026-04-23T10:00:49Z</time></trkpt><trkpt lat="45.93655789260337" lon="11.69750078980622"><ele>895.0</ele><time>2026-04-23T10:00:50Z</time></trkpt><trkpt lat="45.93653539711284" lon="11.697799267217576"><ele>894.0</ele><time>2026-04-23T10:00:51Z</time></trkpt><trkpt lat="45.93648990839891" lon="11.69813076822708"><ele>892.0</ele><time>2026-04-23T10:00:52Z</time></trkpt><trkpt lat="45.93643251462708" lon="11.698479269871413"><ele>890.0</ele><time>2026-04-23T10:00:53Z</time></trkpt><trkpt lat="45.93637340864938" lon="11.698817233800659"><ele>888.5</ele><time>2026-04-23T10:00:54Z</time></trkpt><trkpt lat="45.93630281792796" lon="11.699169318808837"><ele>887.0</ele><time>2026-04-23T10:00:55Z</time></trkpt><trkpt lat="45.93623109131232" lon="11.699541031749987"><ele>884.0</ele><time>2026-04-23T10:00:56Z</time></trkpt><trkpt lat="45.93616427312435" lon="11.699939157000147"><ele>881.0</ele><time>2026-04-23T10:00:57Z</time></trkpt><trkpt lat="45.93609086972609" lon="11.700289801625498"><ele>879.3333333333334</ele><time>2026-04-23T10:00:58Z</time></trkpt><trkpt lat="45.93602571615442" lon="11.700564686209468"><ele>877.6666666666667</ele><time>2026-04-23T10:00:59Z</time></trkpt><trkpt lat="45.93598853139649" lon="11.700794922060611"><ele>876.0</ele><time>2026-04-23T10:01:00Z</time></trkpt><trkpt lat="45.935953082967345" lon="11.70099216011275"><ele>875.75</ele><time>2026-04-23T10:01:01Z</time></trkpt><trkpt lat="45.93590470669515" lon="11.70116944005821"><ele>875.5</ele><time>2026-04-23T10:01:02Z</time></trkpt><trkpt lat="45.93583214974623" lon="11.701323976198598"><ele>875.25</ele><time>2026-04-23T10:01:03Z</time></trkpt><trkpt lat="45.93574048398999" lon="11.701473273945169"><ele>875.0</ele><time>2026-04-23T10:01:04Z</time></trkpt><trkpt lat="45.935636782367844" lon="11.701615176596269"><ele>880.3333333333334</ele><time>2026-04-23T10:01:05Z</time></trkpt><trkpt lat="45.935505422267966" lon="11.701762484978683"><ele>885.6666666666667</ele><time>2026-04-23T10:01:06Z</time></trkpt><trkpt lat="45.93535226502728" lon="11.701917789425545"><ele>891.0</ele><time>2026-04-23T10:01:07Z</time></trkpt><trkpt lat="45.93520166544402" lon="11.702080211965884"><ele>891.0</ele><time>2026-04-23T10:01:08Z</time></trkpt><trkpt lat="45.935080430055706" lon="11.702202217918023"><ele>891.0</ele><time>2026-04-23T10:01:09Z</time></trkpt><trkpt lat="45.93495348703498" lon="11.702296646761564"><ele>891.0</ele><time>2026-04-23T10:01:10Z</time></trkpt><trkpt lat="45.93481534759382" lon="11.702355880865149"><ele>891.0</ele><time>2026-04-23T10:01:11Z</time></trkpt><trkpt lat="45.93466650316097" lon="11.702391587348345"><ele>895.5</ele><time>2026-04-23T10:01:12Z</time></trkpt><trkpt lat="45.934516665044775" lon="11.702404700654533"><ele>900.0</ele><time>2026-04-23T10:01:13Z</time></trkpt><trkpt lat="45.9343914387897" lon="11.702387016829613"><ele>904.5</ele><time>2026-04-23T10:01:14Z</time></trkpt><trkpt lat="45.9342850779097" lon="11.702339967639956"><ele>909.0</ele><time>2026-04-23T10:01:15Z</time></trkpt><trkpt lat="45.93418451620655" lon="11.702250190914652"><ele>912.3333333333333</ele><time>2026-04-23T10:01:16Z</time></trkpt><trkpt lat="45.93406980013397" lon="11.702122843003723"><ele>915.6666666666666</ele><time>2026-04-23T10:01:17Z</time></trkpt><trkpt lat="45.933940096941114" lon="11.701967969023492"><ele>919.0</ele><time>2026-04-23T10:01:18Z</time></trkpt><trkpt lat="45.9337836637594" lon="11.701795704759611"><ele>923.3333333333333</ele><time>2026-04-23T10:01:19Z</time></trkpt><trkpt lat="45.933618839916086" lon="11.701621845443475"><ele>927.6666666666667</ele><time>2026-04-23T10:01:20Z</time></trkpt><trkpt lat="45.933492310666" lon="11.701484071483709"><ele>932.0</ele><time>2026-04-23T10:01:21Z</time></trkpt><trkpt lat="45.933395246130225" lon="11.701408204740193"><ele>932.0</ele><time>2026-04-23T10:01:22Z</time></trkpt><trkpt lat="45.93331344788562" lon="11.70134515375074"><ele>932.0</ele><time>2026-04-23T10:01:23Z</time></trkpt><trkpt lat="45.93322926918406" lon="11.701335601400901"><ele>932.0</ele><time>2026-04-23T10:01:24Z</time></trkpt><trkpt lat="45.93313677486953" lon="11.701351199464606"><ele>932.0</ele><time>2026-04-23T10:01:25Z</time></trkpt><trkpt lat="45.9330709559577" lon="11.701476473858394"><ele>932.0</ele><time>2026-04-23T10:01:26Z</time></trkpt><trkpt lat="45.93301350401122" lon="11.701614015538214"><ele>932.0</ele><time>2026-04-23T10:01:27Z</time></trkpt><trkpt lat="45.932948548877064" lon="11.701788921367744"><ele>932.0</ele><time>2026-04-23T10:01:28Z</time></trkpt><trkpt lat="45.93289880678754" lon="11.701936046532476"><ele>932.0</ele><time>2026-04-23T10:01:29Z</time></trkpt><trkpt lat="45.93280760184572" lon="11.702023598820697"><ele>932.0</ele><time>2026-04-23T10:01:30Z</time></trkpt><trkpt lat="45.93269560864353" lon="11.702086342079308"><ele>932.5</ele><time>2026-04-23T10:01:31Z</time></trkpt><trkpt lat="45.93257572600213" lon="11.702064049264454"><ele>933.0</ele><time>2026-04-23T10:01:32Z</time></trkpt><trkpt lat="45.932444512828035" lon="11.702088463481912"><ele>933.5</ele><time>2026-04-23T10:01:33Z</time></trkpt><trkpt lat="45.932328476393316" lon="11.702087589557417"><ele>934.0</ele><time>2026-04-23T10:01:34Z</time></trkpt><trkpt lat="45.932233839719835" lon="11.702208380542011"><ele>934.0</ele><time>2026-04-23T10:01:35Z</time></trkpt><trkpt lat="45.93214765993537" lon="11.702338903099903"><ele>934.0</ele><time>2026-04-23T10:01:36Z</time></trkpt><trkpt lat="45.93204297995254" lon="11.702475981820985"><ele>934.0</ele><time>2026-04-23T10:01:37Z</time></trkpt><trkpt lat="45.93192335402529" lon="11.702667666384562"><ele>934.0</ele><time>2026-04-23T10:01:38Z</time></trkpt><trkpt lat="45.93180861007667" lon="11.702859118527488"><ele>939.3333333333333</ele><time>2026-04-23T10:01:39Z</time></trkpt><trkpt lat="45.93168066002549" lon="11.703100333190102"><ele>944.6666666666667</ele><time>2026-04-23T10:01:40Z</time></trkpt><trkpt lat="45.931563277017254" lon="11.703256035136404"><ele>950.0</ele><time>2026-04-23T10:01:41Z</time></trkpt><trkpt lat="45.93148037189087" lon="11.703393074326927"><ele>950.0</ele><time>2026-04-23T10:01:42Z</time></trkpt><trkpt lat="45.931392798135285" lon="11.703466406286042"><ele>950.0</ele><time>2026-04-23T10:01:43Z</time></trkpt><trkpt lat="45.93130169229015" lon="11.703507927541411"><ele>950.0</ele><time>2026-04-23T10:01:44Z</time></trkpt><trkpt lat="45.93118802307877" lon="11.703482456475573"><ele>950.0</ele><time>2026-04-23T10:01:45Z</time></trkpt><trkpt lat="45.93105426467698" lon="11.703475179831223"><ele>950.0</ele><time>2026-04-23T10:01:46Z</time></trkpt><trkpt lat="45.930907196388944" lon="11.703387265820453"><ele>951.5</ele><time>2026-04-23T10:01:47Z</time></trkpt><trkpt lat="45.930792538161576" lon="11.703324908789693"><ele>953.0</ele><time>2026-04-23T10:01:48Z</time></trkpt><trkpt lat="45.930677389927546" lon="11.70326176515124"><ele>954.5</ele><time>2026-04-23T10:01:49Z</time></trkpt><trkpt lat="45.9305792471631" lon="11.703132068518471"><ele>956.0</ele><time>2026-04-23T10:01:50Z</time></trkpt><trkpt lat="45.93049682679144" lon="11.702986073958696"><ele>956.0</ele><time>2026-04-23T10:01:51Z</time></trkpt><trkpt lat="45.93042087305414" lon="11.702888477345708"><ele>955.9999999999999</ele><time>2026-04-23T10:01:52Z</time></trkpt><trkpt lat="45.9303262857315" lon="11.70284283552978"><ele>955.9999999999999</ele><time>2026-04-23T10:01:53Z</time></trkpt><trkpt lat="45.93022112141681" lon="11.702857577847766"><ele>956.0</ele><time>2026-04-23T10:01:54Z</time></trkpt><trkpt lat="45.93013105224468" lon="11.702924914215401"><ele>956.0</ele><time>2026-04-23T10:01:55Z</time></trkpt><trkpt lat="45.930061859352044" lon="11.703036507784116"><ele>955.5</ele><time>2026-04-23T10:01:56Z</time></trkpt><trkpt lat="45.93000876192912" lon="11.703182056335114"><ele>955.0</ele><time>2026-04-23T10:01:57Z</time></trkpt><trkpt lat="45.929943268218416" lon="11.703375751443307"><ele>954.5</ele><time>2026-04-23T10:01:58Z</time></trkpt><trkpt lat="45.929879076779415" lon="11.703554160168773"><ele>954.0</ele><time>2026-04-23T10:01:59Z</time></trkpt><trkpt lat="45.92981731350397" lon="11.703717341594619"><ele>953.0</ele><time>2026-04-23T10:02:00Z</time></trkpt><trkpt lat="45.929745345740535" lon="11.70385089898841"><ele>952.0</ele><time>2026-04-23T10:02:01Z</time></trkpt><trkpt lat="45.929657147054094" lon="11.703948225033715"><ele>951.0</ele><time>2026-04-23T10:02:02Z</time></trkpt><trkpt lat="45.929541001040974" lon="11.704020977081493"><ele>950.0</ele><time>2026-04-23T10:02:03Z</time></trkpt><trkpt lat="45.92941744088736" lon="11.704060631206291"><ele>950.0</ele><time>2026-04-23T10:02:04Z</time></trkpt><trkpt lat="45.929298848767004" lon="11.704042904098337"><ele>950.0</ele><time>2026-04-23T10:02:05Z</time></trkpt><trkpt lat="45.92918714174619" lon="11.703976823695756"><ele>950.0</ele><time>2026-04-23T10:02:06Z</time></trkpt><trkpt lat="45.9290938149803" lon="11.703879547283973"><ele>950.0</ele><time>2026-04-23T10:02:07Z</time></trkpt><trkpt lat="45.92901827298602" lon="11.703761321041823"><ele>951.5</ele><time>2026-04-23T10:02:08Z</time></trkpt><trkpt lat="45.92896305226867" lon="11.703615714065373"><ele>953.0</ele><time>2026-04-23T10:02:09Z</time></trkpt><trkpt lat="45.92893758863282" lon="11.703439596150924"><ele>954.5</ele><time>2026-04-23T10:02:10Z</time></trkpt><trkpt lat="45.92893784127769" lon="11.703269114131317"><ele>956.0</ele><time>2026-04-23T10:02:11Z</time></trkpt><trkpt lat="45.928964191877476" lon="11.703117316092735"><ele>957.75</ele><time>2026-04-23T10:02:12Z</time></trkpt><trkpt lat="45.92901711245643" lon="11.702973449562391"><ele>959.5</ele><time>2026-04-23T10:02:13Z</time></trkpt><trkpt lat="45.92909494168361" lon="11.702842489211447"><ele>961.25</ele><time>2026-04-23T10:02:14Z</time></trkpt><trkpt lat="45.92920541327873" lon="11.702713851941791"><ele>963.0</ele><time>2026-04-23T10:02:15Z</time></trkpt><trkpt lat="45.929341662178665" lon="11.70256727277772"><ele>963.6666666666667</ele><time>2026-04-23T10:02:16Z</time></trkpt><trkpt lat="45.929499589581354" lon="11.702388301194283"><ele>964.3333333333334</ele><time>2026-04-23T10:02:17Z</time></trkpt><trkpt lat="45.929676848942854" lon="11.702182375920573"><ele>965.0</ele><time>2026-04-23T10:02:18Z</time></trkpt><trkpt lat="45.92985993183823" lon="11.701977290732044"><ele>971.5</ele><time>2026-04-23T10:02:19Z</time></trkpt><trkpt lat="45.930060987600534" lon="11.701753561748571"><ele>978.0</ele><time>2026-04-23T10:02:20Z</time></trkpt><trkpt lat="45.93027992114316" lon="11.701514605007846"><ele>978.0</ele><time>2026-04-23T10:02:21Z</time></trkpt><trkpt lat="45.93049254140752" lon="11.701277597006479"><ele>978.0</ele><time>2026-04-23T10:02:22Z</time></trkpt><trkpt lat="45.93071995279063" lon="11.701020190310803"><ele>981.0</ele><time>2026-04-23T10:02:23Z</time></trkpt><trkpt lat="45.93095660504971" lon="11.70075756543492"><ele>984.0</ele><time>2026-04-23T10:02:24Z</time></trkpt><trkpt lat="45.93117084281257" lon="11.700529056265221"><ele>984.0</ele><time>2026-04-23T10:02:25Z</time></trkpt><trkpt lat="45.931341577319785" lon="11.70034124849228"><ele>984.0</ele><time>2026-04-23T10:02:26Z</time></trkpt><trkpt lat="45.93148140872046" lon="11.700190272623061"><ele>984.0</ele><time>2026-04-23T10:02:27Z</time></trkpt><trkpt lat="45.93158928467543" lon="11.700068984561016"><ele>982.0</ele><time>2026-04-23T10:02:28Z</time></trkpt><trkpt lat="45.93166992027436" lon="11.699947299883277"><ele>980.0</ele><time>2026-04-23T10:02:29Z</time></trkpt><trkpt lat="45.93171779138996" lon="11.69980656693541"><ele>978.0</ele><time>2026-04-23T10:02:30Z</time></trkpt><trkpt lat="45.93173795963585" lon="11.699642373307238"><ele>976.0</ele><time>2026-04-23T10:02:31Z</time></trkpt><trkpt lat="45.93171936082901" lon="11.699461023277092"><ele>983.25</ele><time>2026-04-23T10:02:32Z</time></trkpt><trkpt lat="45.93168211462659" lon="11.699274487908324"><ele>990.5</ele><time>2026-04-23T10:02:33Z</time></trkpt><trkpt lat="45.931674125895825" lon="11.699108625655471"><ele>997.75</ele><time>2026-04-23T10:02:34Z</time></trkpt><trkpt lat="45.931672440264904" lon="11.698961676309251"><ele>1005.0</ele><time>2026-04-23T10:02:35Z</time></trkpt><trkpt lat="45.93172285377717" lon="11.6988364128324"><ele>1001.8</ele><time>2026-04-23T10:02:36Z</time></trkpt><trkpt lat="45.93180006719094" lon="11.698759062343564"><ele>998.6</ele><time>2026-04-23T10:02:37Z</time></trkpt><trkpt lat="45.93190094416909" lon="11.698714341381526"><ele>995.4000000000001</ele><time>2026-04-23T10:02:38Z</time></trkpt><trkpt lat="45.932028461215175" lon="11.698705742327483"><ele>992.2</ele><time>2026-04-23T10:02:39Z</time></trkpt><trkpt lat="45.932141018858424" lon="11.698693393982602"><ele>989.0</ele><time>2026-04-23T10:02:40Z</time></trkpt><trkpt lat="45.93224560982908" lon="11.698619228951204"><ele>995.0</ele><time>2026-04-23T10:02:41Z</time></trkpt><trkpt lat="45.932327176048744" lon="11.698489154265234"><ele>1001.0</ele><time>2026-04-23T10:02:42Z</time></trkpt><trkpt lat="45.93238702793966" lon="11.698320922864404"><ele>1007.0</ele><time>2026-04-23T10:02:43Z</time></trkpt><trkpt lat="45.93243710041547" lon="11.698154272928925"><ele>1013.0</ele><time>2026-04-23T10:02:44Z</time></trkpt><trkpt lat="45.93249798003262" lon="11.698033791038942"><ele>1012.5999999999999</ele><time>2026-04-23T10:02:45Z</time></trkpt><trkpt lat="45.93258804210805" lon="11.697949991583524"><ele>1012.1999999999999</ele><time>2026-04-23T10:02:46Z</time></trkpt><trkpt lat="45.93269317979143" lon="11.697941605719999"><ele>1011.8</ele><time>2026-04-23T10:02:47Z</time></trkpt><trkpt lat="45.93279665130946" lon="11.697985964540303"><ele>1011.4</ele><time>2026-04-23T10:02:48Z</time></trkpt><trkpt lat="45.932908427812286" lon="11.698068817883637"><ele>1011.0</ele><time>2026-04-23T10:02:49Z</time></trkpt><trkpt lat="45.93304007012714" lon="11.698173607326192"><ele>1011.0</ele><time>2026-04-23T10:02:50Z</time></trkpt><trkpt lat="45.93316361973967" lon="11.698239287924496"><ele>1011.0</ele><time>2026-04-23T10:02:51Z</time></trkpt><trkpt lat="45.93331061901303" lon="11.698266269080266"><ele>1011.0</ele><time>2026-04-23T10:02:52Z</time></trkpt><trkpt lat="45.93348133245471" lon="11.698271132311257"><ele>1010.25</ele><time>2026-04-23T10:02:53Z</time></trkpt><trkpt lat="45.93362710064839" lon="11.698251948563142"><ele>1009.5</ele><time>2026-04-23T10:02:54Z</time></trkpt><trkpt lat="45.93375827749482" lon="11.698193494338712"><ele>1008.75</ele><time>2026-04-23T10:02:55Z</time></trkpt><trkpt lat="45.93386507747642" lon="11.698084382974317"><ele>1008.0</ele><time>2026-04-23T10:02:56Z</time></trkpt><trkpt lat="45.933958583198496" lon="11.697925636535757"><ele>1010.0</ele><time>2026-04-23T10:02:57Z</time></trkpt><trkpt lat="45.93403400737432" lon="11.69773942967664"><ele>1012.0</ele><time>2026-04-23T10:02:58Z</time></trkpt><trkpt lat="45.9340754477471" lon="11.697571132526441"><ele>1014.0</ele><time>2026-04-23T10:02:59Z</time></trkpt><trkpt lat="45.93407995576046" lon="11.697402077699232"><ele>1016.0</ele><time>2026-04-23T10:03:00Z</time></trkpt><trkpt lat="45.93404857380071" lon="11.697237071338474"><ele>1016.0</ele><time>2026-04-23T10:03:01Z</time></trkpt><trkpt lat="45.93399658640678" lon="11.69706913212678"><ele>1015.9999999999999</ele><time>2026-04-23T10:03:02Z</time></trkpt><trkpt lat="45.933963017249845" lon="11.696923033393437"><ele>1015.9999999999999</ele><time>2026-04-23T10:03:03Z</time></trkpt><trkpt lat="45.93397658473244" lon="11.696774118919125"><ele>1016.0</ele><time>2026-04-23T10:03:04Z</time></trkpt><trkpt lat="45.934023323697915" lon="11.696638090719704"><ele>1016.0</ele><time>2026-04-23T10:03:05Z</time></trkpt><trkpt lat="45.93411075363985" lon="11.696511496677035"><ele>1017.5</ele><time>2026-04-23T10:03:06Z</time></trkpt><trkpt lat="45.93419728392308" lon="11.696372651335858"><ele>1019.0</ele><time>2026-04-23T10:03:07Z</time></trkpt><trkpt lat="45.93425348382959" lon="11.696204769878888"><ele>1020.5</ele><time>2026-04-23T10:03:08Z</time></trkpt><trkpt lat="45.934289306452136" lon="11.695984725510167"><ele>1022.0</ele><time>2026-04-23T10:03:09Z</time></trkpt><trkpt lat="45.934315405301746" lon="11.695722124927746"><ele>1016.0</ele><time>2026-04-23T10:03:10Z</time></trkpt><trkpt lat="45.93435087908245" lon="11.695450068506174"><ele>1010.0</ele><time>2026-04-23T10:03:11Z</time></trkpt><trkpt lat="45.93438376393976" lon="11.695206742810885"><ele>1004.0</ele><time>2026-04-23T10:03:12Z</time></trkpt><trkpt lat="45.93440300735418" lon="11.695012927752362"><ele>1004.0</ele><time>2026-04-23T10:03:13Z</time></trkpt><trkpt lat="45.93442173317066" lon="11.694870549357997"><ele>1004.0000000000001</ele><time>2026-04-23T10:03:14Z</time></trkpt><trkpt lat="45.934434571141146" lon="11.69476281861191"><ele>1004.0000000000001</ele><time>2026-04-23T10:03:15Z</time></trkpt><trkpt lat="45.934409954892764" lon="11.694620451806648"><ele>1004.0</ele><time>2026-04-23T10:03:17Z</time></trkpt><trkpt lat="45.93429293713638" lon="11.694680905195277"><ele>1004.0</ele><time>2026-04-23T10:03:19Z</time></trkpt><trkpt lat="45.93427264804022" lon="11.694783306930498"><ele>1004.0</ele><time>2026-04-23T10:03:20Z</time></trkpt><trkpt lat="45.93428768525429" lon="11.694908542323706"><ele>1004.0000000000001</ele><time>2026-04-23T10:03:21Z</time></trkpt><trkpt lat="45.93429024535801" lon="11.695073323909046"><ele>1004.0000000000001</ele><time>2026-04-23T10:03:22Z</time></trkpt><trkpt lat="45.93427627000768" lon="11.695230323902042"><ele>1004.0</ele><time>2026-04-23T10:03:23Z</time></trkpt><trkpt lat="45.93424106464332" lon="11.69541939197927"><ele>1004.0</ele><time>2026-04-23T10:03:24Z</time></trkpt><trkpt lat="45.93416901277749" lon="11.695616936026356"><ele>1008.5</ele><time>2026-04-23T10:03:25Z</time></trkpt><trkpt lat="45.93410579116943" lon="11.695790733820745"><ele>1013.0</ele><time>2026-04-23T10:03:26Z</time></trkpt><trkpt lat="45.934028561762446" lon="11.695968932705576"><ele>1017.5</ele><time>2026-04-23T10:03:27Z</time></trkpt><trkpt lat="45.933933046603244" lon="11.696165395490123"><ele>1022.0</ele><time>2026-04-23T10:03:28Z</time></trkpt><trkpt lat="45.93379328104837" lon="11.696360615177879"><ele>1022.0</ele><time>2026-04-23T10:03:29Z</time></trkpt><trkpt lat="45.93365641075144" lon="11.696552246047492"><ele>1022.0</ele><time>2026-04-23T10:03:30Z</time></trkpt><trkpt lat="45.93354352518638" lon="11.69670889102699"><ele>1022.0</ele><time>2026-04-23T10:03:31Z</time></trkpt><trkpt lat="45.93345668255754" lon="11.696832637228557"><ele>1024.0</ele><time>2026-04-23T10:03:32Z</time></trkpt><trkpt lat="45.93337824379567" lon="11.696921398726749"><ele>1026.0</ele><time>2026-04-23T10:03:33Z</time></trkpt><trkpt lat="45.93329370167569" lon="11.69696937191496"><ele>1028.0</ele><time>2026-04-23T10:03:34Z</time></trkpt><trkpt lat="45.933198150066985" lon="11.696970585386746"><ele>1030.0</ele><time>2026-04-23T10:03:35Z</time></trkpt><trkpt lat="45.93310698787372" lon="11.69691940975894"><ele>1032.0</ele><time>2026-04-23T10:03:36Z</time></trkpt><trkpt lat="45.9330334771442" lon="11.696802884156618"><ele>1033.5</ele><time>2026-04-23T10:03:37Z</time></trkpt><trkpt lat="45.93292545452723" lon="11.696658543995502"><ele>1035.0</ele><time>2026-04-23T10:03:38Z</time></trkpt><trkpt lat="45.93280075959813" lon="11.696533285979685"><ele>1036.5</ele><time>2026-04-23T10:03:39Z</time></trkpt><trkpt lat="45.932682371839924" lon="11.696411828211374"><ele>1038.0</ele><time>2026-04-23T10:03:40Z</time></trkpt><trkpt lat="45.932538651137094" lon="11.696287237835774"><ele>1040.2</ele><time>2026-04-23T10:03:41Z</time></trkpt><trkpt lat="45.932415338833074" lon="11.696206028859622"><ele>1042.4</ele><time>2026-04-23T10:03:42Z</time></trkpt><trkpt lat="45.932318174484536" lon="11.696152707309775"><ele>1044.6000000000001</ele><time>2026-04-23T10:03:43Z</time></trkpt><trkpt lat="45.93222313804642" lon="11.69613880913431"><ele>1046.8</ele><time>2026-04-23T10:03:44Z</time></trkpt><trkpt lat="45.93213072910726" lon="11.6961715823628"><ele>1049.0</ele><time>2026-04-23T10:03:45Z</time></trkpt><trkpt lat="45.932054989283685" lon="11.696268247403287"><ele>1049.0</ele><time>2026-04-23T10:03:46Z</time></trkpt><trkpt lat="45.93199700243657" lon="11.696402382135645"><ele>1049.0</ele><time>2026-04-23T10:03:47Z</time></trkpt><trkpt lat="45.93194109447691" lon="11.696545870064044"><ele>1049.0</ele><time>2026-04-23T10:03:48Z</time></trkpt><trkpt lat="45.93186819677933" lon="11.696641257474065"><ele>1049.0</ele><time>2026-04-23T10:03:49Z</time></trkpt><trkpt lat="45.93177328768677" lon="11.696678496124147"><ele>1049.0</ele><time>2026-04-23T10:03:50Z</time></trkpt><trkpt lat="45.93166066451052" lon="11.696683791886079"><ele>1050.6666666666667</ele><time>2026-04-23T10:03:51Z</time></trkpt><trkpt lat="45.931528543166195" lon="11.696656256437793"><ele>1052.3333333333333</ele><time>2026-04-23T10:03:52Z</time></trkpt><trkpt lat="45.93135997885179" lon="11.696620102660718"><ele>1054.0</ele><time>2026-04-23T10:03:53Z</time></trkpt><trkpt lat="45.931209163506765" lon="11.696597501318912"><ele>1054.0</ele><time>2026-04-23T10:03:54Z</time></trkpt><trkpt lat="45.931036466339364" lon="11.696569383835387"><ele>1054.0</ele><time>2026-04-23T10:03:55Z</time></trkpt><trkpt lat="45.93090278542074" lon="11.696548238017671"><ele>1054.0</ele><time>2026-04-23T10:03:56Z</time></trkpt><trkpt lat="45.93080325149622" lon="11.696523739815074"><ele>1054.0</ele><time>2026-04-23T10:03:57Z</time></trkpt><trkpt lat="45.93072464805933" lon="11.69645588888941"><ele>1055.25</ele><time>2026-04-23T10:03:58Z</time></trkpt><trkpt lat="45.93066075936681" lon="11.696342942552258"><ele>1056.5</ele><time>2026-04-23T10:03:59Z</time></trkpt><trkpt lat="45.930624492498055" lon="11.696196521293928"><ele>1057.75</ele><time>2026-04-23T10:04:00Z</time></trkpt><trkpt lat="45.9306262481952" lon="11.696030255139464"><ele>1059.0</ele><time>2026-04-23T10:04:01Z</time></trkpt><trkpt lat="45.93065818137175" lon="11.695845434693258"><ele>1060.3333333333333</ele><time>2026-04-23T10:04:02Z</time></trkpt><trkpt lat="45.9307030923535" lon="11.695636764482945"><ele>1061.6666666666665</ele><time>2026-04-23T10:04:03Z</time></trkpt><trkpt lat="45.93075059821907" lon="11.695412637822514"><ele>1063.0</ele><time>2026-04-23T10:04:04Z</time></trkpt><trkpt lat="45.93079955677873" lon="11.695170840032855"><ele>1063.3333333333333</ele><time>2026-04-23T10:04:05Z</time></trkpt><trkpt lat="45.93086678414344" lon="11.694923533313789"><ele>1063.6666666666667</ele><time>2026-04-23T10:04:06Z</time></trkpt><trkpt lat="45.93094555094872" lon="11.694728158809138"><ele>1064.0</ele><time>2026-04-23T10:04:07Z</time></trkpt><trkpt lat="45.93104172041028" lon="11.69454330962641"><ele>1067.3333333333335</ele><time>2026-04-23T10:04:08Z</time></trkpt><trkpt lat="45.931158057892794" lon="11.694366547285775"><ele>1070.6666666666667</ele><time>2026-04-23T10:04:09Z</time></trkpt><trkpt lat="45.93130281168985" lon="11.694203353418919"><ele>1074.0</ele><time>2026-04-23T10:04:10Z</time></trkpt><trkpt lat="45.931449380477616" lon="11.694043441658788"><ele>1074.0</ele><time>2026-04-23T10:04:11Z</time></trkpt><trkpt lat="45.93158662235006" lon="11.693873368450511"><ele>1074.0</ele><time>2026-04-23T10:04:12Z</time></trkpt><trkpt lat="45.931709623900794" lon="11.693677168008891"><ele>1074.0</ele><time>2026-04-23T10:04:13Z</time></trkpt><trkpt lat="45.93184224593997" lon="11.693455675654942"><ele>1078.6666666666667</ele><time>2026-04-23T10:04:14Z</time></trkpt><trkpt lat="45.931964203361694" lon="11.693252987404719"><ele>1083.3333333333335</ele><time>2026-04-23T10:04:15Z</time></trkpt><trkpt lat="45.932068233465664" lon="11.69306188111778"><ele>1088.0</ele><time>2026-04-23T10:04:16Z</time></trkpt><trkpt lat="45.93215566902964" lon="11.692850529448595"><ele>1087.6666666666667</ele><time>2026-04-23T10:04:17Z</time></trkpt><trkpt lat="45.93222438370296" lon="11.692613739314666"><ele>1087.3333333333333</ele><time>2026-04-23T10:04:18Z</time></trkpt><trkpt lat="45.932288708549706" lon="11.692337199581996"><ele>1087.0</ele><time>2026-04-23T10:04:19Z</time></trkpt><trkpt lat="45.932350006502176" lon="11.692035208389271"><ele>1085.6666666666665</ele><time>2026-04-23T10:04:20Z</time></trkpt><trkpt lat="45.932411851690325" lon="11.691751905736552"><ele>1084.3333333333333</ele><time>2026-04-23T10:04:21Z</time></trkpt><trkpt lat="45.932463824646156" lon="11.691501293226642"><ele>1083.0</ele><time>2026-04-23T10:04:22Z</time></trkpt><trkpt lat="45.932493107510744" lon="11.691244708680543"><ele>1082.0</ele><time>2026-04-23T10:04:23Z</time></trkpt><trkpt lat="45.932501928786415" lon="11.69095745561708"><ele>1081.0</ele><time>2026-04-23T10:04:24Z</time></trkpt><trkpt lat="45.93249679248258" lon="11.690638207238262"><ele>1080.0</ele><time>2026-04-23T10:04:25Z</time></trkpt><trkpt lat="45.93249738360152" lon="11.690319007317997"><ele>1082.0</ele><time>2026-04-23T10:04:26Z</time></trkpt><trkpt lat="45.932492745944394" lon="11.689972028030287"><ele>1084.0</ele><time>2026-04-23T10:04:27Z</time></trkpt><trkpt lat="45.932488671224185" lon="11.689669190397366"><ele>1087.0</ele><time>2026-04-23T10:04:28Z</time></trkpt><trkpt lat="45.93248487777581" lon="11.689403951210796"><ele>1090.0</ele><time>2026-04-23T10:04:29Z</time></trkpt><trkpt lat="45.93248334132437" lon="11.689174628100105"><ele>1093.0</ele><time>2026-04-23T10:04:30Z</time></trkpt><trkpt lat="45.93249115721803" lon="11.68895454854965"><ele>1093.0</ele><time>2026-04-23T10:04:31Z</time></trkpt><trkpt lat="45.93252069399937" lon="11.688729956581234"><ele>1093.0</ele><time>2026-04-23T10:04:32Z</time></trkpt><trkpt lat="45.93258021504081" lon="11.688487849944735"><ele>1093.0</ele><time>2026-04-23T10:04:33Z</time></trkpt><trkpt lat="45.93264125934118" lon="11.688208729908947"><ele>1100.3333333333333</ele><time>2026-04-23T10:04:34Z</time></trkpt><trkpt lat="45.93267091358253" lon="11.687947578370006"><ele>1107.6666666666667</ele><time>2026-04-23T10:04:35Z</time></trkpt><trkpt lat="45.932693327534736" lon="11.687660286654403"><ele>1115.0</ele><time>2026-04-23T10:04:36Z</time></trkpt><trkpt lat="45.93271805603445" lon="11.687375694776827"><ele>1118.3333333333335</ele><time>2026-04-23T10:04:37Z</time></trkpt><trkpt lat="45.932725149677104" lon="11.687127299103656"><ele>1121.6666666666667</ele><time>2026-04-23T10:04:38Z</time></trkpt><trkpt lat="45.93275995363567" lon="11.686891815515295"><ele>1125.0</ele><time>2026-04-23T10:04:39Z</time></trkpt><trkpt lat="45.932810080036944" lon="11.686649798900335"><ele>1127.3333333333333</ele><time>2026-04-23T10:04:40Z</time></trkpt><trkpt lat="45.9328607579479" lon="11.686417445726137"><ele>1129.6666666666665</ele><time>2026-04-23T10:04:41Z</time></trkpt><trkpt lat="45.93291611142427" lon="11.686211650114327"><ele>1132.0</ele><time>2026-04-23T10:04:42Z</time></trkpt><trkpt lat="45.93292548657131" lon="11.685996986119116"><ele>1132.0</ele><time>2026-04-23T10:04:43Z</time></trkpt><trkpt lat="45.93289913312253" lon="11.685780251082853"><ele>1132.0</ele><time>2026-04-23T10:04:44Z</time></trkpt><trkpt lat="45.93285062086108" lon="11.685558331949213"><ele>1132.0</ele><time>2026-04-23T10:04:45Z</time></trkpt><trkpt lat="45.9327963499585" lon="11.68534721002592"><ele>1134.6666666666665</ele><time>2026-04-23T10:04:46Z</time></trkpt><trkpt lat="45.93274237840868" lon="11.685144279816507"><ele>1137.3333333333333</ele><time>2026-04-23T10:04:47Z</time></trkpt><trkpt lat="45.932729460769934" lon="11.684903784345885"><ele>1140.0</ele><time>2026-04-23T10:04:48Z</time></trkpt><trkpt lat="45.93273368566028" lon="11.684660307393829"><ele>1140.0</ele><time>2026-04-23T10:04:49Z</time></trkpt><trkpt lat="45.93273958978594" lon="11.684447962210843"><ele>1140.0</ele><time>2026-04-23T10:04:50Z</time></trkpt><trkpt lat="45.932714358816085" lon="11.684232183257532"><ele>1140.0</ele><time>2026-04-23T10:04:51Z</time></trkpt><trkpt lat="45.93265016710215" lon="11.684023824278915"><ele>1143.6666666666667</ele><time>2026-04-23T10:04:52Z</time></trkpt><trkpt lat="45.932576771505836" lon="11.68382115104315"><ele>1147.3333333333335</ele><time>2026-04-23T10:04:53Z</time></trkpt><trkpt lat="45.9324688316253" lon="11.683651140705448"><ele>1151.0</ele><time>2026-04-23T10:04:54Z</time></trkpt><trkpt lat="45.932321397280795" lon="11.683537421602965"><ele>1143.6666666666667</ele><time>2026-04-23T10:04:55Z</time></trkpt><trkpt lat="45.93216516654365" lon="11.683418008914044"><ele>1136.3333333333333</ele><time>2026-04-23T10:04:56Z</time></trkpt><trkpt lat="45.93200762078006" lon="11.683265586820559"><ele>1129.0</ele><time>2026-04-23T10:04:57Z</time></trkpt><trkpt lat="45.931841369475535" lon="11.683132427324603"><ele>1130.0</ele><time>2026-04-23T10:04:58Z</time></trkpt><trkpt lat="45.931678123018436" lon="11.68300483009622"><ele>1131.0</ele><time>2026-04-23T10:04:59Z</time></trkpt><trkpt lat="45.93149863857514" lon="11.682889642735018"><ele>1132.0</ele><time>2026-04-23T10:05:00Z</time></trkpt><trkpt lat="45.931321083479396" lon="11.68274333748474"><ele>1132.0</ele><time>2026-04-23T10:05:01Z</time></trkpt><trkpt lat="45.93113423906598" lon="11.682595609124728"><ele>1132.0</ele><time>2026-04-23T10:05:02Z</time></trkpt><trkpt lat="45.93094186510843" lon="11.682450355254296"><ele>1132.0</ele><time>2026-04-23T10:05:03Z</time></trkpt><trkpt lat="45.93077954605025" lon="11.682299053185696"><ele>1125.6666666666665</ele><time>2026-04-23T10:05:04Z</time></trkpt><trkpt lat="45.93062227514115" lon="11.682201289728683"><ele>1119.3333333333333</ele><time>2026-04-23T10:05:05Z</time></trkpt><trkpt lat="45.93049125404668" lon="11.682077457920741"><ele>1113.0</ele><time>2026-04-23T10:05:06Z</time></trkpt><trkpt lat="45.9303865155229" lon="11.681935685727474"><ele>1113.75</ele><time>2026-04-23T10:05:07Z</time></trkpt><trkpt lat="45.93030229614763" lon="11.681779794590064"><ele>1114.5</ele><time>2026-04-23T10:05:08Z</time></trkpt><trkpt lat="45.93021491175031" lon="11.681646619606557"><ele>1115.25</ele><time>2026-04-23T10:05:09Z</time></trkpt><trkpt lat="45.93011769612202" lon="11.681537250990608"><ele>1116.0</ele><time>2026-04-23T10:05:10Z</time></trkpt><trkpt lat="45.929982233816865" lon="11.681523205662101"><ele>1116.0</ele><time>2026-04-23T10:05:11Z</time></trkpt><trkpt lat="45.92985735909114" lon="11.681535616171706"><ele>1116.0</ele><time>2026-04-23T10:05:12Z</time></trkpt><trkpt lat="45.92973326609182" lon="11.681552672095732"><ele>1116.0</ele><time>2026-04-23T10:05:13Z</time></trkpt><trkpt lat="45.92961698029756" lon="11.681518850427816"><ele>1116.0</ele><time>2026-04-23T10:05:14Z</time></trkpt><trkpt lat="45.92950344618796" lon="11.681444258183626"><ele>1116.0</ele><time>2026-04-23T10:05:15Z</time></trkpt><trkpt lat="45.92939447665581" lon="11.681331669688197"><ele>1116.0</ele><time>2026-04-23T10:05:16Z</time></trkpt><trkpt lat="45.92926966665308" lon="11.681213967311386"><ele>1116.0</ele><time>2026-04-23T10:05:17Z</time></trkpt><trkpt lat="45.929135519628794" lon="11.681086403990339"><ele>1116.0</ele><time>2026-04-23T10:05:18Z</time></trkpt><trkpt lat="45.92901399469905" lon="11.680964873670634"><ele>1116.75</ele><time>2026-04-23T10:05:19Z</time></trkpt><trkpt lat="45.92890225818518" lon="11.680867323445904"><ele>1117.5</ele><time>2026-04-23T10:05:20Z</time></trkpt><trkpt lat="45.92877377452534" lon="11.680815406775821"><ele>1118.25</ele><time>2026-04-23T10:05:21Z</time></trkpt><trkpt lat="45.92862565292111" lon="11.680817378474895"><ele>1119.0</ele><time>2026-04-23T10:05:22Z</time></trkpt><trkpt lat="45.92847338012343" lon="11.680859155233733"><ele>1115.3333333333333</ele><time>2026-04-23T10:05:23Z</time></trkpt><trkpt lat="45.92831007867042" lon="11.68092813808598"><ele>1111.6666666666665</ele><time>2026-04-23T10:05:24Z</time></trkpt><trkpt lat="45.92813781207541" lon="11.680995662596139"><ele>1108.0</ele><time>2026-04-23T10:05:25Z</time></trkpt><trkpt lat="45.92796884745361" lon="11.681050671296518"><ele>1104.75</ele><time>2026-04-23T10:05:26Z</time></trkpt><trkpt lat="45.92782074069487" lon="11.681108347911932"><ele>1101.5</ele><time>2026-04-23T10:05:27Z</time></trkpt><trkpt lat="45.92769356071713" lon="11.681177711551966"><ele>1098.25</ele><time>2026-04-23T10:05:28Z</time></trkpt><trkpt lat="45.92757657076991" lon="11.681237471841573"><ele>1095.0</ele><time>2026-04-23T10:05:29Z</time></trkpt><trkpt lat="45.92744905596487" lon="11.681257435218479"><ele>1095.0</ele><time>2026-04-23T10:05:30Z</time></trkpt><trkpt lat="45.927308049987346" lon="11.681240802675402"><ele>1095.0</ele><time>2026-04-23T10:05:31Z</time></trkpt><trkpt lat="45.927167249186944" lon="11.6812157382437"><ele>1095.0</ele><time>2026-04-23T10:05:32Z</time></trkpt><trkpt lat="45.9270297420626" lon="11.681227254170102"><ele>1095.0</ele><time>2026-04-23T10:05:33Z</time></trkpt><trkpt lat="45.926890963598126" lon="11.6812831537986"><ele>1095.0</ele><time>2026-04-23T10:05:34Z</time></trkpt><trkpt lat="45.92677203816855" lon="11.6813552006629"><ele>1095.0</ele><time>2026-04-23T10:05:35Z</time></trkpt><trkpt lat="45.92666090221668" lon="11.681405571792267"><ele>1095.0</ele><time>2026-04-23T10:05:36Z</time></trkpt><trkpt lat="45.92655778394366" lon="11.681415332106342"><ele>1095.0</ele><time>2026-04-23T10:05:37Z</time></trkpt><trkpt lat="45.926464415646834" lon="11.681386773834053"><ele>1095.0</ele><time>2026-04-23T10:05:38Z</time></trkpt><trkpt lat="45.92638519632087" lon="11.681315445235528"><ele>1094.6</ele><time>2026-04-23T10:05:39Z</time></trkpt><trkpt lat="45.92632782734951" lon="11.68122116401706"><ele>1094.2</ele><time>2026-04-23T10:05:40Z</time></trkpt><trkpt lat="45.92630196164514" lon="11.681095832046525"><ele>1093.8</ele><time>2026-04-23T10:05:41Z</time></trkpt><trkpt lat="45.926313317834435" lon="11.68094769478166"><ele>1093.4</ele><time>2026-04-23T10:05:42Z</time></trkpt><trkpt lat="45.92635420204492" lon="11.680788151320385"><ele>1093.0</ele><time>2026-04-23T10:05:43Z</time></trkpt><trkpt lat="45.92641192993986" lon="11.680596412228786"><ele>1094.6666666666665</ele><time>2026-04-23T10:05:44Z</time></trkpt><trkpt lat="45.926476883142264" lon="11.68037823257238"><ele>1096.3333333333333</ele><time>2026-04-23T10:05:45Z</time></trkpt><trkpt lat="45.92654633456446" lon="11.680151562783356"><ele>1098.0</ele><time>2026-04-23T10:05:46Z</time></trkpt><trkpt lat="45.92662475493468" lon="11.679941047114879"><ele>1098.0</ele><time>2026-04-23T10:05:47Z</time></trkpt><trkpt lat="45.92671463671874" lon="11.67971393607897"><ele>1098.0</ele><time>2026-04-23T10:05:48Z</time></trkpt><trkpt lat="45.926816673321525" lon="11.679472246516234"><ele>1098.0</ele><time>2026-04-23T10:05:49Z</time></trkpt><trkpt lat="45.92692034303247" lon="11.679212937930009"><ele>1106.3333333333333</ele><time>2026-04-23T10:05:50Z</time></trkpt><trkpt lat="45.92702163390898" lon="11.678961229472533"><ele>1114.6666666666665</ele><time>2026-04-23T10:05:51Z</time></trkpt><trkpt lat="45.92711075393102" lon="11.678744706978405"><ele>1123.0</ele><time>2026-04-23T10:05:52Z</time></trkpt><trkpt lat="45.92717988366126" lon="11.678569198933683"><ele>1123.0</ele><time>2026-04-23T10:05:53Z</time></trkpt><trkpt lat="45.927240502515836" lon="11.678428572173997"><ele>1123.0</ele><time>2026-04-23T10:05:54Z</time></trkpt><trkpt lat="45.92727295545757" lon="11.67828654457971"><ele>1123.0</ele><time>2026-04-23T10:05:55Z</time></trkpt><trkpt lat="45.92726751463684" lon="11.678146473513173"><ele>1123.0</ele><time>2026-04-23T10:05:56Z</time></trkpt><trkpt lat="45.92723205776229" lon="11.677999083037584"><ele>1123.0</ele><time>2026-04-23T10:05:57Z</time></trkpt><trkpt lat="45.92714030865214" lon="11.67787224358937"><ele>1123.75</ele><time>2026-04-23T10:05:58Z</time></trkpt><trkpt lat="45.92706538990366" lon="11.677718587804259"><ele>1124.5</ele><time>2026-04-23T10:05:59Z</time></trkpt><trkpt lat="45.92701468376254" lon="11.677555432221713"><ele>1125.25</ele><time>2026-04-23T10:06:00Z</time></trkpt><trkpt lat="45.92700155645161" lon="11.67739250017568"><ele>1126.0</ele><time>2026-04-23T10:06:01Z</time></trkpt><trkpt lat="45.92701400662751" lon="11.67722933360537"><ele>1126.0</ele><time>2026-04-23T10:06:02Z</time></trkpt><trkpt lat="45.92702855029977" lon="11.677058506355149"><ele>1126.0</ele><time>2026-04-23T10:06:03Z</time></trkpt><trkpt lat="45.92702080214184" lon="11.676904967955643"><ele>1126.0</ele><time>2026-04-23T10:06:04Z</time></trkpt><trkpt lat="45.92700711943" lon="11.676752265009574"><ele>1126.0</ele><time>2026-04-23T10:06:05Z</time></trkpt><trkpt lat="45.92693914963124" lon="11.67661275342027"><ele>1127.5</ele><time>2026-04-23T10:06:06Z</time></trkpt><trkpt lat="45.92683531391082" lon="11.67653855938642"><ele>1129.0</ele><time>2026-04-23T10:06:07Z</time></trkpt><trkpt lat="45.92672626658381" lon="11.676490477949846"><ele>1130.5</ele><time>2026-04-23T10:06:08Z</time></trkpt><trkpt lat="45.92660957010718" lon="11.67645911020382"><ele>1132.0</ele><time>2026-04-23T10:06:09Z</time></trkpt><trkpt lat="45.92648065204534" lon="11.676505175123479"><ele>1122.6666666666665</ele><time>2026-04-23T10:06:10Z</time></trkpt><trkpt lat="45.926337816616126" lon="11.676550373880712"><ele>1113.3333333333333</ele><time>2026-04-23T10:06:11Z</time></trkpt><trkpt lat="45.92618656523563" lon="11.67655767668386"><ele>1104.0</ele><time>2026-04-23T10:06:12Z</time></trkpt><trkpt lat="45.926026713919434" lon="11.676536548363845"><ele>1102.0</ele><time>2026-04-23T10:06:13Z</time></trkpt><trkpt lat="45.9258787020932" lon="11.676527552903666"><ele>1100.0</ele><time>2026-04-23T10:06:14Z</time></trkpt><trkpt lat="45.92574324003193" lon="11.676475760661097"><ele>1098.0</ele><time>2026-04-23T10:06:15Z</time></trkpt><trkpt lat="45.92562017157962" lon="11.676410882942786"><ele>1096.0</ele><time>2026-04-23T10:06:16Z</time></trkpt><trkpt lat="45.92551926477956" lon="11.676323895733866"><ele>1096.0</ele><time>2026-04-23T10:06:17Z</time></trkpt><trkpt lat="45.925423301249204" lon="11.676244390906836"><ele>1096.0</ele><time>2026-04-23T10:06:18Z</time></trkpt><trkpt lat="45.92531910388177" lon="11.676187754069385"><ele>1096.0</ele><time>2026-04-23T10:06:19Z</time></trkpt><trkpt lat="45.92519725331062" lon="11.676240722386277"><ele>1096.0</ele><time>2026-04-23T10:06:20Z</time></trkpt><trkpt lat="45.92507817828706" lon="11.676275527369178"><ele>1092.6</ele><time>2026-04-23T10:06:21Z</time></trkpt><trkpt lat="45.92497888266069" lon="11.676282494071875"><ele>1089.1999999999998</ele><time>2026-04-23T10:06:22Z</time></trkpt><trkpt lat="45.92487765651256" lon="11.676240603788086"><ele>1085.8000000000002</ele><time>2026-04-23T10:06:23Z</time></trkpt><trkpt lat="45.92478430306572" lon="11.676126848585877"><ele>1082.4</ele><time>2026-04-23T10:06:24Z</time></trkpt><trkpt lat="45.924675074080184" lon="11.676067468382215"><ele>1079.0</ele><time>2026-04-23T10:06:25Z</time></trkpt><trkpt lat="45.924564855180776" lon="11.676041630714165"><ele>1079.0</ele><time>2026-04-23T10:06:26Z</time></trkpt><trkpt lat="45.924433249073104" lon="11.67607014708924"><ele>1079.0</ele><time>2026-04-23T10:06:27Z</time></trkpt><trkpt lat="45.924288296063175" lon="11.6761360412908"><ele>1079.0</ele><time>2026-04-23T10:06:28Z</time></trkpt><trkpt lat="45.92412382129071" lon="11.676217737058677"><ele>1078.75</ele><time>2026-04-23T10:06:29Z</time></trkpt><trkpt lat="45.92398120339236" lon="11.676274421353124"><ele>1078.5</ele><time>2026-04-23T10:06:30Z</time></trkpt><trkpt lat="45.92384530245577" lon="11.676311125074262"><ele>1078.25</ele><time>2026-04-23T10:06:31Z</time></trkpt><trkpt lat="45.923703298185295" lon="11.67631319974524"><ele>1078.0</ele><time>2026-04-23T10:06:32Z</time></trkpt><trkpt lat="45.92355963132051" lon="11.676237957529413"><ele>1078.0</ele><time>2026-04-23T10:06:33Z</time></trkpt><trkpt lat="45.923413099852525" lon="11.676243498988313"><ele>1078.0</ele><time>2026-04-23T10:06:34Z</time></trkpt><trkpt lat="45.92325903354259" lon="11.676263908481399"><ele>1078.0</ele><time>2026-04-23T10:06:35Z</time></trkpt><trkpt lat="45.923076530231526" lon="11.676330624007845"><ele>1079.3333333333333</ele><time>2026-04-23T10:06:36Z</time></trkpt><trkpt lat="45.92290305798631" lon="11.676391975912521"><ele>1080.6666666666667</ele><time>2026-04-23T10:06:37Z</time></trkpt><trkpt lat="45.92272260658548" lon="11.676441181107556"><ele>1082.0</ele><time>2026-04-23T10:06:38Z</time></trkpt><trkpt lat="45.92252888678538" lon="11.676472701028898"><ele>1082.6666666666667</ele><time>2026-04-23T10:06:39Z</time></trkpt><trkpt lat="45.922332766367894" lon="11.676495719488011"><ele>1083.3333333333333</ele><time>2026-04-23T10:06:40Z</time></trkpt><trkpt lat="45.92213883956002" lon="11.676526902176805"><ele>1084.0</ele><time>2026-04-23T10:06:41Z</time></trkpt><trkpt lat="45.92196480292883" lon="11.676543477200028"><ele>1084.0</ele><time>2026-04-23T10:06:42Z</time></trkpt><trkpt lat="45.921805483178254" lon="11.676567555723336"><ele>1084.0</ele><time>2026-04-23T10:06:43Z</time></trkpt><trkpt lat="45.92167528695141" lon="11.676584480464484"><ele>1084.0</ele><time>2026-04-23T10:06:44Z</time></trkpt><trkpt lat="45.921548767298276" lon="11.67659497227152"><ele>1084.0</ele><time>2026-04-23T10:06:45Z</time></trkpt><trkpt lat="45.921428557986864" lon="11.676583108242953"><ele>1083.25</ele><time>2026-04-23T10:06:46Z</time></trkpt><trkpt lat="45.92131275576576" lon="11.676546704503078"><ele>1082.5</ele><time>2026-04-23T10:06:47Z</time></trkpt><trkpt lat="45.92119827397055" lon="11.676483803711761"><ele>1081.75</ele><time>2026-04-23T10:06:48Z</time></trkpt><trkpt lat="45.92108621764232" lon="11.6763886971246"><ele>1081.0</ele><time>2026-04-23T10:06:49Z</time></trkpt><trkpt lat="45.920972701364114" lon="11.676290241901578"><ele>1078.0</ele><time>2026-04-23T10:06:50Z</time></trkpt><trkpt lat="45.92085932023367" lon="11.676216216868834"><ele>1075.0</ele><time>2026-04-23T10:06:51Z</time></trkpt><trkpt lat="45.92073923618103" lon="11.676174850218763"><ele>1072.0</ele><time>2026-04-23T10:06:52Z</time></trkpt><trkpt lat="45.920610239963885" lon="11.676183661387052"><ele>1069.0</ele><time>2026-04-23T10:06:53Z</time></trkpt><trkpt lat="45.920474760021044" lon="11.676213087742743"><ele>1069.0</ele><time>2026-04-23T10:06:54Z</time></trkpt><trkpt lat="45.920319028641345" lon="11.676212010456595"><ele>1069.0</ele><time>2026-04-23T10:06:55Z</time></trkpt><trkpt lat="45.92014307240964" lon="11.676169205175137"><ele>1069.0</ele><time>2026-04-23T10:06:56Z</time></trkpt><trkpt lat="45.91994797732643" lon="11.676109683406763"><ele>1074.0</ele><time>2026-04-23T10:06:57Z</time></trkpt><trkpt lat="45.91977706346669" lon="11.676053605734726"><ele>1079.0</ele><time>2026-04-23T10:06:58Z</time></trkpt><trkpt lat="45.919621615897874" lon="11.67601324375175"><ele>1084.0</ele><time>2026-04-23T10:06:59Z</time></trkpt><trkpt lat="45.91948129266119" lon="11.675965012887422"><ele>1084.0</ele><time>2026-04-23T10:07:00Z</time></trkpt><trkpt lat="45.9193463558039" lon="11.675901613527907"><ele>1084.0</ele><time>2026-04-23T10:07:01Z</time></trkpt><trkpt lat="45.91922203760274" lon="11.675812674995553"><ele>1084.0</ele><time>2026-04-23T10:07:02Z</time></trkpt><trkpt lat="45.9191132953591" lon="11.675690941981545"><ele>1084.0</ele><time>2026-04-23T10:07:03Z</time></trkpt><trkpt lat="45.91901014101858" lon="11.675539529166763"><ele>1083.3333333333333</ele><time>2026-04-23T10:07:04Z</time></trkpt><trkpt lat="45.918915881906145" lon="11.675367293814979"><ele>1082.6666666666667</ele><time>2026-04-23T10:07:05Z</time></trkpt><trkpt lat="45.91882228442476" lon="11.675187287380174"><ele>1082.0</ele><time>2026-04-23T10:07:06Z</time></trkpt><trkpt lat="45.91872283592313" lon="11.675013496154753"><ele>1082.0</ele><time>2026-04-23T10:07:07Z</time></trkpt><trkpt lat="45.91861930982178" lon="11.67484571233184"><ele>1082.0</ele><time>2026-04-23T10:07:08Z</time></trkpt><trkpt lat="45.91852156565122" lon="11.674689228464374"><ele>1082.0</ele><time>2026-04-23T10:07:09Z</time></trkpt><trkpt lat="45.918421870273164" lon="11.674534667521607"><ele>1082.0</ele><time>2026-04-23T10:07:10Z</time></trkpt><trkpt lat="45.91828532148741" lon="11.674445750957751"><ele>1081.75</ele><time>2026-04-23T10:07:11Z</time></trkpt><trkpt lat="45.91815183199614" lon="11.6743703731939"><ele>1081.5</ele><time>2026-04-23T10:07:12Z</time></trkpt><trkpt lat="45.91801120528779" lon="11.674317261126653"><ele>1081.25</ele><time>2026-04-23T10:07:13Z</time></trkpt><trkpt lat="45.91785934187507" lon="11.674297739126713"><ele>1081.0</ele><time>2026-04-23T10:07:14Z</time></trkpt><trkpt lat="45.91770264042779" lon="11.674319333571194"><ele>1080.0</ele><time>2026-04-23T10:07:15Z</time></trkpt><trkpt lat="45.91755524465837" lon="11.674367680283543"><ele>1079.0</ele><time>2026-04-23T10:07:16Z</time></trkpt><trkpt lat="45.91741652385006" lon="11.674419185970994"><ele>1078.0</ele><time>2026-04-23T10:07:17Z</time></trkpt><trkpt lat="45.91727845575306" lon="11.674548684935491"><ele>1072.0</ele><time>2026-04-23T10:07:18Z</time></trkpt><trkpt lat="45.917122672730905" lon="11.67469875996704"><ele>1066.0</ele><time>2026-04-23T10:07:19Z</time></trkpt><trkpt lat="45.91699525832257" lon="11.674827748189148"><ele>1060.0</ele><time>2026-04-23T10:07:20Z</time></trkpt><trkpt lat="45.916869978813935" lon="11.674934075542373"><ele>1063.0</ele><time>2026-04-23T10:07:21Z</time></trkpt><trkpt lat="45.91673047101844" lon="11.675013045669743"><ele>1066.0</ele><time>2026-04-23T10:07:22Z</time></trkpt><trkpt lat="45.916572616594706" lon="11.675067811480893"><ele>1069.0</ele><time>2026-04-23T10:07:23Z</time></trkpt><trkpt lat="45.91640680466372" lon="11.675107481871832"><ele>1069.0</ele><time>2026-04-23T10:07:24Z</time></trkpt><trkpt lat="45.91623912824884" lon="11.675152194476498"><ele>1069.0</ele><time>2026-04-23T10:07:25Z</time></trkpt><trkpt lat="45.91607602780216" lon="11.67521443695531"><ele>1069.0</ele><time>2026-04-23T10:07:26Z</time></trkpt><trkpt lat="45.9159291206835" lon="11.675276287891124"><ele>1063.75</ele><time>2026-04-23T10:07:27Z</time></trkpt><trkpt lat="45.915792299353456" lon="11.675334585363064"><ele>1058.5</ele><time>2026-04-23T10:07:28Z</time></trkpt><trkpt lat="45.91566101199038" lon="11.675387549249232"><ele>1053.25</ele><time>2026-04-23T10:07:29Z</time></trkpt><trkpt lat="45.91552687432662" lon="11.675438312914386"><ele>1048.0</ele><time>2026-04-23T10:07:30Z</time></trkpt><trkpt lat="45.91538427085574" lon="11.67548176896372"><ele>1048.0</ele><time>2026-04-23T10:07:31Z</time></trkpt><trkpt lat="45.91525187591531" lon="11.675515248640947"><ele>1048.0</ele><time>2026-04-23T10:07:32Z</time></trkpt><trkpt lat="45.91515542710312" lon="11.67554202880567"><ele>1048.0</ele><time>2026-04-23T10:07:33Z</time></trkpt><trkpt lat="45.91506096316227" lon="11.675555210428023"><ele>1048.0</ele><time>2026-04-23T10:07:34Z</time></trkpt><trkpt lat="45.91497839262059" lon="11.675521591711906"><ele>1048.0</ele><time>2026-04-23T10:07:35Z</time></trkpt><trkpt lat="45.91490706373525" lon="11.675446536870222"><ele>1050.0</ele><time>2026-04-23T10:07:36Z</time></trkpt><trkpt lat="45.91486292231835" lon="11.675324349930946"><ele>1052.0</ele><time>2026-04-23T10:07:37Z</time></trkpt><trkpt lat="45.914845351946994" lon="11.675187746305983"><ele>1054.0</ele><time>2026-04-23T10:07:38Z</time></trkpt><trkpt lat="45.91486499223392" lon="11.675038208638076"><ele>1056.0</ele><time>2026-04-23T10:07:39Z</time></trkpt><trkpt lat="45.91490422222026" lon="11.674856174194774"><ele>1058.0</ele><time>2026-04-23T10:07:40Z</time></trkpt><trkpt lat="45.91494994861971" lon="11.674637592498856"><ele>1058.6666666666667</ele><time>2026-04-23T10:07:41Z</time></trkpt><trkpt lat="45.9149814485951" lon="11.674425194404456"><ele>1059.3333333333333</ele><time>2026-04-23T10:07:42Z</time></trkpt><trkpt lat="45.91499800459681" lon="11.674180348221055"><ele>1060.0</ele><time>2026-04-23T10:07:43Z</time></trkpt><trkpt lat="45.914990378056764" lon="11.673913553701142"><ele>1060.0</ele><time>2026-04-23T10:07:44Z</time></trkpt><trkpt lat="45.9149725193498" lon="11.673653453071358"><ele>1060.0</ele><time>2026-04-23T10:07:45Z</time></trkpt><trkpt lat="45.914952186994775" lon="11.673413235614726"><ele>1060.0</ele><time>2026-04-23T10:07:46Z</time></trkpt><trkpt lat="45.91494286835555" lon="11.673168172970275"><ele>1060.3333333333333</ele><time>2026-04-23T10:07:47Z</time></trkpt><trkpt lat="45.91493768796973" lon="11.672908973656345"><ele>1060.6666666666667</ele><time>2026-04-23T10:07:48Z</time></trkpt><trkpt lat="45.91493351362869" lon="11.672634438675118"><ele>1061.0</ele><time>2026-04-23T10:07:49Z</time></trkpt><trkpt lat="45.91493896874458" lon="11.672339125427625"><ele>1060.0</ele><time>2026-04-23T10:07:50Z</time></trkpt><trkpt lat="45.91495555748656" lon="11.672067529804107"><ele>1059.0</ele><time>2026-04-23T10:07:51Z</time></trkpt><trkpt lat="45.91497767391992" lon="11.671846284099646"><ele>1058.0</ele><time>2026-04-23T10:07:52Z</time></trkpt><trkpt lat="45.914995810357055" lon="11.671646834052789"><ele>1057.0</ele><time>2026-04-23T10:07:53Z</time></trkpt><trkpt lat="45.91498506875881" lon="11.671457202102113"><ele>1056.0</ele><time>2026-04-23T10:07:54Z</time></trkpt><trkpt lat="45.9149445350324" lon="11.671270479732222"><ele>1055.0</ele><time>2026-04-23T10:07:55Z</time></trkpt><trkpt lat="45.91487056061695" lon="11.671078297333645"><ele>1054.0</ele><time>2026-04-23T10:07:56Z</time></trkpt><trkpt lat="45.91477442734468" lon="11.670856896329676"><ele>1057.0</ele><time>2026-04-23T10:07:57Z</time></trkpt><trkpt lat="45.91467392337196" lon="11.67060554927228"><ele>1060.0</ele><time>2026-04-23T10:07:58Z</time></trkpt><trkpt lat="45.91458534653859" lon="11.670354382518168"><ele>1063.0</ele><time>2026-04-23T10:07:59Z</time></trkpt><trkpt lat="45.91448030115814" lon="11.670079801630758"><ele>1065.5</ele><time>2026-04-23T10:08:00Z</time></trkpt><trkpt lat="45.914352998386825" lon="11.669788343592035"><ele>1068.0</ele><time>2026-04-23T10:08:01Z</time></trkpt><trkpt lat="45.91422088633903" lon="11.669503742563142"><ele>1061.0</ele><time>2026-04-23T10:08:02Z</time></trkpt><trkpt lat="45.914107124529586" lon="11.669251603605261"><ele>1054.0</ele><time>2026-04-23T10:08:03Z</time></trkpt><trkpt lat="45.91402291389249" lon="11.669056030828658"><ele>1047.0</ele><time>2026-04-23T10:08:04Z</time></trkpt><trkpt lat="45.9139551801423" lon="11.668897389739072"><ele>1047.0</ele><time>2026-04-23T10:08:05Z</time></trkpt><trkpt lat="45.91389703413515" lon="11.66874650678074"><ele>1047.0</ele><time>2026-04-23T10:08:06Z</time></trkpt><trkpt lat="45.91385517136145" lon="11.668601764092099"><ele>1047.0</ele><time>2026-04-23T10:08:07Z</time></trkpt><trkpt lat="45.91384926787032" lon="11.668469484177798"><ele>1047.0</ele><time>2026-04-23T10:08:08Z</time></trkpt><trkpt lat="45.9138777318894" lon="11.668345921836913"><ele>1047.0</ele><time>2026-04-23T10:08:09Z</time></trkpt><trkpt lat="45.913931885590515" lon="11.66824832558503"><ele>1046.75</ele><time>2026-04-23T10:08:10Z</time></trkpt><trkpt lat="45.91401598468516" lon="11.668177163713073"><ele>1046.5</ele><time>2026-04-23T10:08:11Z</time></trkpt><trkpt lat="45.91412217405166" lon="11.668134488186139"><ele>1046.25</ele><time>2026-04-23T10:08:12Z</time></trkpt><trkpt lat="45.914243263956664" lon="11.668139916627648"><ele>1046.0</ele><time>2026-04-23T10:08:13Z</time></trkpt><trkpt lat="45.91437317731151" lon="11.668171300197129"><ele>1046.0</ele><time>2026-04-23T10:08:14Z</time></trkpt><trkpt lat="45.91452531849111" lon="11.668259012899462"><ele>1046.0</ele><time>2026-04-23T10:08:15Z</time></trkpt><trkpt lat="45.914690266757944" lon="11.668353533830638"><ele>1046.0</ele><time>2026-04-23T10:08:16Z</time></trkpt><trkpt lat="45.91485110924024" lon="11.66843646737857"><ele>1046.0</ele><time>2026-04-23T10:08:17Z</time></trkpt><trkpt lat="45.91500874432328" lon="11.668495585253938"><ele>1046.0</ele><time>2026-04-23T10:08:18Z</time></trkpt><trkpt lat="45.91517488521005" lon="11.668560161254888"><ele>1046.0</ele><time>2026-04-23T10:08:19Z</time></trkpt><trkpt lat="45.91534283319293" lon="11.668595514422218"><ele>1045.3333333333335</ele><time>2026-04-23T10:08:20Z</time></trkpt><trkpt lat="45.9155236246556" lon="11.668614225260718"><ele>1044.6666666666667</ele><time>2026-04-23T10:08:21Z</time></trkpt><trkpt lat="45.91572372406131" lon="11.668616219493638"><ele>1044.0</ele><time>2026-04-23T10:08:22Z</time></trkpt><trkpt lat="45.91593025473788" lon="11.66859484129339"><ele>1044.0</ele><time>2026-04-23T10:08:23Z</time></trkpt><trkpt lat="45.916119298360385" lon="11.668575988095272"><ele>1044.0</ele><time>2026-04-23T10:08:24Z</time></trkpt><trkpt lat="45.91626442610862" lon="11.668559219505847"><ele>1044.0</ele><time>2026-04-23T10:08:25Z</time></trkpt><trkpt lat="45.91639587191764" lon="11.66856667965734"><ele>1044.0</ele><time>2026-04-23T10:08:26Z</time></trkpt><trkpt lat="45.91652826420786" lon="11.6685241793221"><ele>1044.0</ele><time>2026-04-23T10:08:27Z</time></trkpt><trkpt lat="45.916652989798905" lon="11.668438232974568"><ele>1044.0</ele><time>2026-04-23T10:08:28Z</time></trkpt><trkpt lat="45.91676443711965" lon="11.668331581231188"><ele>1044.0</ele><time>2026-04-23T10:08:29Z</time></trkpt><trkpt lat="45.91686831303273" lon="11.668244949366544"><ele>1044.0</ele><time>2026-04-23T10:08:30Z</time></trkpt><trkpt lat="45.91699094581545" lon="11.668173720503184"><ele>1044.0</ele><time>2026-04-23T10:08:31Z</time></trkpt><trkpt lat="45.91713760656568" lon="11.668182119436588"><ele>1044.0</ele><time>2026-04-23T10:08:32Z</time></trkpt><trkpt lat="45.91728858735641" lon="11.668214978716609"><ele>1044.0</ele><time>2026-04-23T10:08:33Z</time></trkpt><trkpt lat="45.91746101577302" lon="11.668253710203205"><ele>1040.0</ele><time>2026-04-23T10:08:34Z</time></trkpt><trkpt lat="45.91765156978444" lon="11.66833561775584"><ele>1036.0</ele><time>2026-04-23T10:08:35Z</time></trkpt><trkpt lat="45.9178303821213" lon="11.668403023293527"><ele>1032.0</ele><time>2026-04-23T10:08:36Z</time></trkpt><trkpt lat="45.91801532631803" lon="11.668489328177325"><ele>1032.0</ele><time>2026-04-23T10:08:37Z</time></trkpt><trkpt lat="45.91817115130545" lon="11.668557577916005"><ele>1032.0</ele><time>2026-04-23T10:08:38Z</time></trkpt><trkpt lat="45.918318728510094" lon="11.66861557248575"><ele>1032.0</ele><time>2026-04-23T10:08:39Z</time></trkpt><trkpt lat="45.9184671065126" lon="11.668627480675823"><ele>1029.0</ele><time>2026-04-23T10:08:40Z</time></trkpt><trkpt lat="45.91861727015443" lon="11.668605865162807"><ele>1026.0</ele><time>2026-04-23T10:08:41Z</time></trkpt><trkpt lat="45.918756121898625" lon="11.66856798495423"><ele>1023.0</ele><time>2026-04-23T10:08:42Z</time></trkpt><trkpt lat="45.9188823422184" lon="11.668544038085104"><ele>1020.0</ele><time>2026-04-23T10:08:43Z</time></trkpt><trkpt lat="45.9190020176359" lon="11.668552348347564"><ele>1020.0</ele><time>2026-04-23T10:08:44Z</time></trkpt><trkpt lat="45.91911905370192" lon="11.668601576687525"><ele>1020.0</ele><time>2026-04-23T10:08:45Z</time></trkpt><trkpt lat="45.919243050467436" lon="11.668687746770045"><ele>1020.0</ele><time>2026-04-23T10:08:46Z</time></trkpt><trkpt lat="45.91937364198776" lon="11.668784722674488"><ele>1020.0</ele><time>2026-04-23T10:08:47Z</time></trkpt><trkpt lat="45.91948166444845" lon="11.668888218490363"><ele>1025.2</ele><time>2026-04-23T10:08:48Z</time></trkpt><trkpt lat="45.91956372933694" lon="11.668970678536814"><ele>1030.4</ele><time>2026-04-23T10:08:49Z</time></trkpt><trkpt lat="45.91964446709892" lon="11.669025416631408"><ele>1035.6</ele><time>2026-04-23T10:08:50Z</time></trkpt><trkpt lat="45.919730841025434" lon="11.669038096228318"><ele>1040.8</ele><time>2026-04-23T10:08:51Z</time></trkpt><trkpt lat="45.91981501240831" lon="11.669000586697804"><ele>1046.0</ele><time>2026-04-23T10:08:52Z</time></trkpt><trkpt lat="45.91988952106398" lon="11.668905595686311"><ele>1046.0</ele><time>2026-04-23T10:08:53Z</time></trkpt><trkpt lat="45.9199578200552" lon="11.668787467984435"><ele>1046.0</ele><time>2026-04-23T10:08:54Z</time></trkpt><trkpt lat="45.92003659714494" lon="11.668711162034569"><ele>1046.0</ele><time>2026-04-23T10:08:55Z</time></trkpt><trkpt lat="45.920132066415256" lon="11.668671720097237"><ele>1046.0</ele><time>2026-04-23T10:08:56Z</time></trkpt><trkpt lat="45.92022951035807" lon="11.668660667392084"><ele>1046.0</ele><time>2026-04-23T10:08:57Z</time></trkpt><trkpt lat="45.920312654301156" lon="11.668645566044393"><ele>1046.2</ele><time>2026-04-23T10:08:58Z</time></trkpt><trkpt lat="45.92037601394666" lon="11.668578095339146"><ele>1046.3999999999999</ele><time>2026-04-23T10:08:59Z</time></trkpt><trkpt lat="45.92042501559278" lon="11.668460916777677"><ele>1046.6</ele><time>2026-04-23T10:09:00Z</time></trkpt><trkpt lat="45.92046535387463" lon="11.668298599913888"><ele>1046.8</ele><time>2026-04-23T10:09:01Z</time></trkpt><trkpt lat="45.92047426571813" lon="11.668090513299791"><ele>1047.0</ele><time>2026-04-23T10:09:02Z</time></trkpt><trkpt lat="45.92046479063776" lon="11.667863131718883"><ele>1043.0</ele><time>2026-04-23T10:09:03Z</time></trkpt><trkpt lat="45.92048859867607" lon="11.667657419192315"><ele>1039.0</ele><time>2026-04-23T10:09:04Z</time></trkpt><trkpt lat="45.92053733678591" lon="11.667465136576379"><ele>1035.0</ele><time>2026-04-23T10:09:05Z</time></trkpt><trkpt lat="45.92057110219568" lon="11.667305664548826"><ele>1031.0</ele><time>2026-04-23T10:09:06Z</time></trkpt><trkpt lat="45.92059663568224" lon="11.66716413105647"><ele>1031.0</ele><time>2026-04-23T10:09:07Z</time></trkpt><trkpt lat="45.92065717434308" lon="11.667050471184362"><ele>1031.0</ele><time>2026-04-23T10:09:08Z</time></trkpt><trkpt lat="45.92073855803623" lon="11.666954750972026"><ele>1031.0</ele><time>2026-04-23T10:09:09Z</time></trkpt><trkpt lat="45.920842994856635" lon="11.666892476167865"><ele>1031.0</ele><time>2026-04-23T10:09:10Z</time></trkpt><trkpt lat="45.92097098725813" lon="11.666838376646956"><ele>1025.6666666666667</ele><time>2026-04-23T10:09:11Z</time></trkpt><trkpt lat="45.92110538870909" lon="11.666801117476055"><ele>1020.3333333333333</ele><time>2026-04-23T10:09:12Z</time></trkpt><trkpt lat="45.92125008585086" lon="11.666790188865333"><ele>1015.0</ele><time>2026-04-23T10:09:13Z</time></trkpt><trkpt lat="45.92141977811586" lon="11.666796449750889"><ele>1015.0</ele><time>2026-04-23T10:09:14Z</time></trkpt><trkpt lat="45.92156828543587" lon="11.66679275328573"><ele>1015.0</ele><time>2026-04-23T10:09:15Z</time></trkpt><trkpt lat="45.921676088013676" lon="11.666803043197202"><ele>1015.0</ele><time>2026-04-23T10:09:16Z</time></trkpt><trkpt lat="45.92178165103362" lon="11.666835780763435"><ele>1015.0</ele><time>2026-04-23T10:09:17Z</time></trkpt><trkpt lat="45.92188328962068" lon="11.666881012085442"><ele>1015.8</ele><time>2026-04-23T10:09:18Z</time></trkpt><trkpt lat="45.92198516434043" lon="11.66695600751381"><ele>1016.6</ele><time>2026-04-23T10:09:19Z</time></trkpt><trkpt lat="45.922074528290466" lon="11.667006661775083"><ele>1017.4000000000001</ele><time>2026-04-23T10:09:20Z</time></trkpt><trkpt lat="45.92216667277391" lon="11.667012928549726"><ele>1018.2</ele><time>2026-04-23T10:09:21Z</time></trkpt><trkpt lat="45.922245979794475" lon="11.666971453412435"><ele>1019.0</ele><time>2026-04-23T10:09:22Z</time></trkpt><trkpt lat="45.92230381083887" lon="11.666881759229277"><ele>1019.0</ele><time>2026-04-23T10:09:23Z</time></trkpt><trkpt lat="45.92232865134746" lon="11.666761809212572"><ele>1019.0</ele><time>2026-04-23T10:09:24Z</time></trkpt><trkpt lat="45.922315440859784" lon="11.666623154269155"><ele>1019.0</ele><time>2026-04-23T10:09:25Z</time></trkpt><trkpt lat="45.92226039978525" lon="11.666479427805749"><ele>1019.0</ele><time>2026-04-23T10:09:26Z</time></trkpt><trkpt lat="45.9221645291912" lon="11.666290566050936"><ele>1021.6666666666667</ele><time>2026-04-23T10:09:27Z</time></trkpt><trkpt lat="45.92206694978291" lon="11.666101102945658"><ele>1024.3333333333333</ele><time>2026-04-23T10:09:28Z</time></trkpt><trkpt lat="45.92197895444793" lon="11.665929305763257"><ele>1027.0</ele><time>2026-04-23T10:09:29Z</time></trkpt><trkpt lat="45.92186038702632" lon="11.665763205630684"><ele>1018.3333333333333</ele><time>2026-04-23T10:09:30Z</time></trkpt><trkpt lat="45.92172972913985" lon="11.665613382580627"><ele>1009.6666666666667</ele><time>2026-04-23T10:09:31Z</time></trkpt><trkpt lat="45.921613756923925" lon="11.66548193858947"><ele>1001.0</ele><time>2026-04-23T10:09:32Z</time></trkpt><trkpt lat="45.92153213622198" lon="11.665319773623771"><ele>1003.0</ele><time>2026-04-23T10:09:33Z</time></trkpt><trkpt lat="45.92147048602462" lon="11.66515354263469"><ele>1005.0</ele><time>2026-04-23T10:09:34Z</time></trkpt><trkpt lat="45.92143078019153" lon="11.664999752678387"><ele>1007.0</ele><time>2026-04-23T10:09:35Z</time></trkpt><trkpt lat="45.9213382209933" lon="11.664897152784587"><ele>1009.0</ele><time>2026-04-23T10:09:36Z</time></trkpt><trkpt lat="45.92121025492862" lon="11.664853140104032"><ele>1009.0</ele><time>2026-04-23T10:09:37Z</time></trkpt><trkpt lat="45.92107168683382" lon="11.664809551243149"><ele>1009.0</ele><time>2026-04-23T10:09:38Z</time></trkpt><trkpt lat="45.92094914504128" lon="11.664772129211961"><ele>1009.0</ele><time>2026-04-23T10:09:39Z</time></trkpt><trkpt lat="45.92083012828341" lon="11.664700253336887"><ele>1009.0</ele><time>2026-04-23T10:09:40Z</time></trkpt><trkpt lat="45.920726767957525" lon="11.664584118128415"><ele>1008.75</ele><time>2026-04-23T10:09:41Z</time></trkpt><trkpt lat="45.920650784741916" lon="11.664410472034263"><ele>1008.5</ele><time>2026-04-23T10:09:42Z</time></trkpt><trkpt lat="45.92056854948016" lon="11.664260943495968"><ele>1008.25</ele><time>2026-04-23T10:09:43Z</time></trkpt><trkpt lat="45.92045318274027" lon="11.664175773227566"><ele>1008.0</ele><time>2026-04-23T10:09:44Z</time></trkpt><trkpt lat="45.92031734544866" lon="11.664084420631955"><ele>1008.0</ele><time>2026-04-23T10:09:45Z</time></trkpt><trkpt lat="45.920172000820955" lon="11.664006442365231"><ele>1008.0</ele><time>2026-04-23T10:09:46Z</time></trkpt><trkpt lat="45.920038267864754" lon="11.66396042006225"><ele>1008.0</ele><time>2026-04-23T10:09:47Z</time></trkpt><trkpt lat="45.91992470995546" lon="11.663921513199899"><ele>1008.0</ele><time>2026-04-23T10:09:48Z</time></trkpt><trkpt lat="45.919819336952756" lon="11.663852484430295"><ele>1009.75</ele><time>2026-04-23T10:09:49Z</time></trkpt><trkpt lat="45.91972651587894" lon="11.663749967474216"><ele>1011.5</ele><time>2026-04-23T10:09:50Z</time></trkpt><trkpt lat="45.919625759247175" lon="11.663620568464875"><ele>1013.25</ele><time>2026-04-23T10:09:51Z</time></trkpt><trkpt lat="45.91950239906091" lon="11.663484360132193"><ele>1015.0</ele><time>2026-04-23T10:09:52Z</time></trkpt><trkpt lat="45.91936374904251" lon="11.663349529811644"><ele>1014.0</ele><time>2026-04-23T10:09:53Z</time></trkpt><trkpt lat="45.91923324975285" lon="11.663235316122439"><ele>1013.0</ele><time>2026-04-23T10:09:54Z</time></trkpt><trkpt lat="45.9191242809369" lon="11.663107436198509"><ele>1012.0</ele><time>2026-04-23T10:09:55Z</time></trkpt><trkpt lat="45.91903369872788" lon="11.662958912863868"><ele>1011.0</ele><time>2026-04-23T10:09:56Z</time></trkpt><trkpt lat="45.91894779946251" lon="11.66277280695858"><ele>1011.0</ele><time>2026-04-23T10:09:57Z</time></trkpt><trkpt lat="45.91883538258246" lon="11.662565222663774"><ele>1011.0</ele><time>2026-04-23T10:09:58Z</time></trkpt><trkpt lat="45.918692070797945" lon="11.662342384852648"><ele>1011.0</ele><time>2026-04-23T10:09:59Z</time></trkpt><trkpt lat="45.918550320221534" lon="11.662132527251652"><ele>1006.0</ele><time>2026-04-23T10:10:00Z</time></trkpt><trkpt lat="45.918405302312244" lon="11.661895860625684"><ele>1001.0</ele><time>2026-04-23T10:10:01Z</time></trkpt><trkpt lat="45.91825353167438" lon="11.661647790746695"><ele>996.0</ele><time>2026-04-23T10:10:02Z</time></trkpt><trkpt lat="45.918119887545735" lon="11.661449207433021"><ele>996.0</ele><time>2026-04-23T10:10:03Z</time></trkpt><trkpt lat="45.91799625729337" lon="11.66126905835638"><ele>996.0</ele><time>2026-04-23T10:10:04Z</time></trkpt><trkpt lat="45.91789636063018" lon="11.661088413855055"><ele>996.0</ele><time>2026-04-23T10:10:05Z</time></trkpt><trkpt lat="45.91781357739912" lon="11.660900433359545"><ele>998.5</ele><time>2026-04-23T10:10:06Z</time></trkpt><trkpt lat="45.91775232472475" lon="11.660744947975868"><ele>1001.0</ele><time>2026-04-23T10:10:07Z</time></trkpt><trkpt lat="45.91771304594322" lon="11.660619665940489"><ele>1003.5</ele><time>2026-04-23T10:10:08Z</time></trkpt><trkpt lat="45.91769160560293" lon="11.660508503652517"><ele>1006.0</ele><time>2026-04-23T10:10:09Z</time></trkpt><trkpt lat="45.91769233264259" lon="11.660408003635707"><ele>1008.5</ele><time>2026-04-23T10:10:10Z</time></trkpt><trkpt lat="45.917729338830284" lon="11.660330785466218"><ele>1011.0</ele><time>2026-04-23T10:10:11Z</time></trkpt><trkpt lat="45.91779777866302" lon="11.660268052257987"><ele>1011.0</ele><time>2026-04-23T10:10:12Z</time></trkpt><trkpt lat="45.91788959151589" lon="11.66019763764008"><ele>1010.9999999999999</ele><time>2026-04-23T10:10:13Z</time></trkpt><trkpt lat="45.917968440642" lon="11.660100245986945"><ele>1010.9999999999999</ele><time>2026-04-23T10:10:14Z</time></trkpt><trkpt lat="45.918037318200724" lon="11.659984051574677"><ele>1011.0</ele><time>2026-04-23T10:10:15Z</time></trkpt><trkpt lat="45.91809398559529" lon="11.659857365846227"><ele>1011.0</ele><time>2026-04-23T10:10:16Z</time></trkpt><trkpt lat="45.91812876406679" lon="11.659712395694639"><ele>1011.0</ele><time>2026-04-23T10:10:17Z</time></trkpt><trkpt lat="45.91813105533266" lon="11.65952098536371"><ele>1011.0</ele><time>2026-04-23T10:10:18Z</time></trkpt><trkpt lat="45.91811072031899" lon="11.659317186573565"><ele>1011.0</ele><time>2026-04-23T10:10:19Z</time></trkpt><trkpt lat="45.91809332211645" lon="11.659111527666928"><ele>1011.0</ele><time>2026-04-23T10:10:20Z</time></trkpt><trkpt lat="45.918016473683814" lon="11.658903925594803"><ele>1012.3333333333333</ele><time>2026-04-23T10:10:21Z</time></trkpt><trkpt lat="45.91793853522927" lon="11.658671811751418"><ele>1013.6666666666666</ele><time>2026-04-23T10:10:22Z</time></trkpt><trkpt lat="45.917825700015825" lon="11.658415395550948"><ele>1015.0</ele><time>2026-04-23T10:10:23Z</time></trkpt><trkpt lat="45.91771828662917" lon="11.658167013919401"><ele>1027.0</ele><time>2026-04-23T10:10:24Z</time></trkpt><trkpt lat="45.91760518931154" lon="11.657905991470605"><ele>1039.0</ele><time>2026-04-23T10:10:25Z</time></trkpt><trkpt lat="45.917479330687605" lon="11.657632866884311"><ele>1051.0</ele><time>2026-04-23T10:10:26Z</time></trkpt><trkpt lat="45.917382750220156" lon="11.65736950478063"><ele>1032.3333333333333</ele><time>2026-04-23T10:10:27Z</time></trkpt><trkpt lat="45.917282413146594" lon="11.657125466742988"><ele>1013.6666666666667</ele><time>2026-04-23T10:10:28Z</time></trkpt><trkpt lat="45.91719454922316" lon="11.656875011952017"><ele>995.0</ele><time>2026-04-23T10:10:29Z</time></trkpt><trkpt lat="45.91711372638375" lon="11.656680716500304"><ele>995.0</ele><time>2026-04-23T10:10:30Z</time></trkpt><trkpt lat="45.91703554471206" lon="11.656515289548452"><ele>995.0</ele><time>2026-04-23T10:10:31Z</time></trkpt><trkpt lat="45.91698390902383" lon="11.656327825250441"><ele>995.0</ele><time>2026-04-23T10:10:32Z</time></trkpt><trkpt lat="45.916936347220286" lon="11.656153179380384"><ele>995.0</ele><time>2026-04-23T10:10:33Z</time></trkpt><trkpt lat="45.91688300430221" lon="11.655989117165541"><ele>986.25</ele><time>2026-04-23T10:10:34Z</time></trkpt><trkpt lat="45.916761085788714" lon="11.655889642602233"><ele>977.5</ele><time>2026-04-23T10:10:35Z</time></trkpt><trkpt lat="45.91664290799407" lon="11.65576768874683"><ele>968.75</ele><time>2026-04-23T10:10:36Z</time></trkpt><trkpt lat="45.91650452930956" lon="11.655646422127578"><ele>960.0</ele><time>2026-04-23T10:10:37Z</time></trkpt><trkpt lat="45.91634101663364" lon="11.655503480486626"><ele>938.5</ele><time>2026-04-23T10:10:38Z</time></trkpt><trkpt lat="45.9161398702818" lon="11.655317178752739"><ele>917.0</ele><time>2026-04-23T10:10:39Z</time></trkpt><trkpt lat="45.91593351766864" lon="11.655123135638318"><ele>884.5</ele><time>2026-04-23T10:10:40Z</time></trkpt><trkpt lat="45.91571826057829" lon="11.654918117486366"><ele>852.0</ele><time>2026-04-23T10:10:41Z</time></trkpt><trkpt lat="45.91549710278606" lon="11.654711797360243"><ele>852.0</ele><time>2026-04-23T10:10:42Z</time></trkpt><trkpt lat="45.91530107233462" lon="11.654528873985617"><ele>852.0</ele><time>2026-04-23T10:10:43Z</time></trkpt><trkpt lat="45.91513150524927" lon="11.654373924630248"><ele>852.0</ele><time>2026-04-23T10:10:44Z</time></trkpt><trkpt lat="45.914988884849436" lon="11.654242781043079"><ele>876.75</ele><time>2026-04-23T10:10:45Z</time></trkpt><trkpt lat="45.91486871791525" lon="11.654131123598477"><ele>901.5</ele><time>2026-04-23T10:10:46Z</time></trkpt><trkpt lat="45.9147750863267" lon="11.6540452593662"><ele>926.25</ele><time>2026-04-23T10:10:47Z</time></trkpt><trkpt lat="45.914682931523" lon="11.653982957260094"><ele>951.0</ele><time>2026-04-23T10:10:48Z</time></trkpt><trkpt lat="45.914587909017094" lon="11.653964502848687"><ele>951.0</ele><time>2026-04-23T10:10:49Z</time></trkpt><trkpt lat="45.91448434752879" lon="11.653969142260767"><ele>951.0</ele><time>2026-04-23T10:10:50Z</time></trkpt><trkpt lat="45.91436717556545" lon="11.654007444012365"><ele>951.0</ele><time>2026-04-23T10:10:51Z</time></trkpt><trkpt lat="45.91424820109065" lon="11.654080548210501"><ele>951.0</ele><time>2026-04-23T10:10:52Z</time></trkpt><trkpt lat="45.91414745154035" lon="11.654185662472779"><ele>956.6666666666667</ele><time>2026-04-23T10:10:53Z</time></trkpt><trkpt lat="45.91402487928734" lon="11.654332369645605"><ele>962.3333333333334</ele><time>2026-04-23T10:10:54Z</time></trkpt><trkpt lat="45.913880442305526" lon="11.654495453736665"><ele>968.0</ele><time>2026-04-23T10:10:55Z</time></trkpt><trkpt lat="45.91372216828235" lon="11.654677852968106"><ele>968.0</ele><time>2026-04-23T10:10:56Z</time></trkpt><trkpt lat="45.9135828527321" lon="11.654838930048287"><ele>968.0</ele><time>2026-04-23T10:10:57Z</time></trkpt><trkpt lat="45.913449309140525" lon="11.65496879590313"><ele>968.0</ele><time>2026-04-23T10:10:58Z</time></trkpt><trkpt lat="45.91330666221346" lon="11.655067356477186"><ele>972.25</ele><time>2026-04-23T10:10:59Z</time></trkpt><trkpt lat="45.91317968062492" lon="11.655131902710695"><ele>976.5</ele><time>2026-04-23T10:11:00Z</time></trkpt><trkpt lat="45.91307932300091" lon="11.655194381296587"><ele>980.75</ele><time>2026-04-23T10:11:01Z</time></trkpt><trkpt lat="45.91298513272753" lon="11.655302702052587"><ele>985.0</ele><time>2026-04-23T10:11:02Z</time></trkpt><trkpt lat="45.91291242163099" lon="11.655444908151695"><ele>984.9999999999999</ele><time>2026-04-23T10:11:03Z</time></trkpt><trkpt lat="45.912869292641666" lon="11.655555859395864"><ele>985.0</ele><time>2026-04-23T10:11:04Z</time></trkpt><trkpt lat="45.9128231334711" lon="11.655627391208053"><ele>985.0</ele><time>2026-04-23T10:11:05Z</time></trkpt><trkpt lat="45.91275127679805" lon="11.655675214247406"><ele>985.0</ele><time>2026-04-23T10:11:06Z</time></trkpt><trkpt lat="45.91266095114236" lon="11.655675952670347"><ele>984.9999999999999</ele><time>2026-04-23T10:11:07Z</time></trkpt><trkpt lat="45.912562548461494" lon="11.655635918026556"><ele>985.0</ele><time>2026-04-23T10:11:08Z</time></trkpt><trkpt lat="45.91248261165351" lon="11.655580985199087"><ele>986.25</ele><time>2026-04-23T10:11:09Z</time></trkpt><trkpt lat="45.91238722685586" lon="11.655465307442592"><ele>987.5</ele><time>2026-04-23T10:11:10Z</time></trkpt><trkpt lat="45.91225387421485" lon="11.655359569092312"><ele>988.75</ele><time>2026-04-23T10:11:11Z</time></trkpt><trkpt lat="45.91214425515533" lon="11.65522761901687"><ele>990.0</ele><time>2026-04-23T10:11:12Z</time></trkpt><trkpt lat="45.91204520664226" lon="11.65507361351936"><ele>993.0</ele><time>2026-04-23T10:11:13Z</time></trkpt><trkpt lat="45.91194490516928" lon="11.654883130022553"><ele>996.0</ele><time>2026-04-23T10:11:14Z</time></trkpt><trkpt lat="45.91184028588415" lon="11.654691221670568"><ele>999.0</ele><time>2026-04-23T10:11:15Z</time></trkpt><trkpt lat="45.91170605161934" lon="11.654509108272952"><ele>1006.0</ele><time>2026-04-23T10:11:16Z</time></trkpt><trkpt lat="45.91154266990525" lon="11.654312394750919"><ele>1013.0</ele><time>2026-04-23T10:11:17Z</time></trkpt><trkpt lat="45.911390074900076" lon="11.654143442824918"><ele>1020.0</ele><time>2026-04-23T10:11:18Z</time></trkpt><trkpt lat="45.9112240152737" lon="11.65396250542469"><ele>1020.0</ele><time>2026-04-23T10:11:19Z</time></trkpt><trkpt lat="45.91103732755807" lon="11.653759225753172"><ele>1020.0</ele><time>2026-04-23T10:11:20Z</time></trkpt><trkpt lat="45.9108465268905" lon="11.65355462605284"><ele>1024.0</ele><time>2026-04-23T10:11:21Z</time></trkpt><trkpt lat="45.91067137188528" lon="11.653382057592578"><ele>1028.0</ele><time>2026-04-23T10:11:22Z</time></trkpt><trkpt lat="45.91048374551225" lon="11.653230274666878"><ele>1032.0</ele><time>2026-04-23T10:11:23Z</time></trkpt><trkpt lat="45.91026867913594" lon="11.653098747126165"><ele>1034.0</ele><time>2026-04-23T10:11:24Z</time></trkpt><trkpt lat="45.91006976551689" lon="11.65298171214657"><ele>1036.0</ele><time>2026-04-23T10:11:25Z</time></trkpt><trkpt lat="45.909912411311666" lon="11.652884593475148"><ele>1038.0</ele><time>2026-04-23T10:11:26Z</time></trkpt><trkpt lat="45.909777141562884" lon="11.652787078828583"><ele>1038.0</ele><time>2026-04-23T10:11:27Z</time></trkpt><trkpt lat="45.90966298249285" lon="11.652667070835978"><ele>1038.0</ele><time>2026-04-23T10:11:28Z</time></trkpt><trkpt lat="45.90956363567018" lon="11.652516944581869"><ele>1038.0</ele><time>2026-04-23T10:11:29Z</time></trkpt><trkpt lat="45.90946330488109" lon="11.65233443147991"><ele>1038.0</ele><time>2026-04-23T10:11:30Z</time></trkpt><trkpt lat="45.90934889416934" lon="11.65215367631355"><ele>1039.6666666666667</ele><time>2026-04-23T10:11:31Z</time></trkpt><trkpt lat="45.90924209287678" lon="11.651986017329504"><ele>1041.3333333333335</ele><time>2026-04-23T10:11:32Z</time></trkpt><trkpt lat="45.90908712563129" lon="11.65189101658067"><ele>1043.0</ele><time>2026-04-23T10:11:33Z</time></trkpt><trkpt lat="45.90891771140843" lon="11.651786702892375"><ele>1043.0</ele><time>2026-04-23T10:11:34Z</time></trkpt><trkpt lat="45.90877321293934" lon="11.65166722231388"><ele>1043.0</ele><time>2026-04-23T10:11:35Z</time></trkpt><trkpt lat="45.90865795691983" lon="11.651612691532957"><ele>1043.0</ele><time>2026-04-23T10:11:36Z</time></trkpt><trkpt lat="45.908564525471114" lon="11.6515354387141"><ele>1043.0</ele><time>2026-04-23T10:11:37Z</time></trkpt><trkpt lat="45.908494258349954" lon="11.651431905790202"><ele>1043.0</ele><time>2026-04-23T10:11:38Z</time></trkpt><trkpt lat="45.90844977284141" lon="11.651290022044542"><ele>1043.0</ele><time>2026-04-23T10:11:39Z</time></trkpt><trkpt lat="45.90845018882251" lon="11.651112871898132"><ele>1043.0</ele><time>2026-04-23T10:11:40Z</time></trkpt><trkpt lat="45.90842858036065" lon="11.650901649154706"><ele>1043.0</ele><time>2026-04-23T10:11:41Z</time></trkpt><trkpt lat="45.908415522062555" lon="11.650655792464136"><ele>1043.75</ele><time>2026-04-23T10:11:42Z</time></trkpt><trkpt lat="45.90840751547695" lon="11.650401939893461"><ele>1044.5</ele><time>2026-04-23T10:11:43Z</time></trkpt><trkpt lat="45.908400658353834" lon="11.65021393910896"><ele>1045.25</ele><time>2026-04-23T10:11:44Z</time></trkpt><trkpt lat="45.90837897650166" lon="11.65005058253721"><ele>1046.0</ele><time>2026-04-23T10:11:45Z</time></trkpt><trkpt lat="45.908349091710754" lon="11.649882125276681"><ele>1051.6666666666667</ele><time>2026-04-23T10:11:46Z</time></trkpt><trkpt lat="45.908239554092376" lon="11.649768578784503"><ele>1057.3333333333333</ele><time>2026-04-23T10:11:47Z</time></trkpt><trkpt lat="45.908117443169424" lon="11.649644440625341"><ele>1063.0</ele><time>2026-04-23T10:11:48Z</time></trkpt><trkpt lat="45.90797621895897" lon="11.649520070708444"><ele>1061.25</ele><time>2026-04-23T10:11:49Z</time></trkpt><trkpt lat="45.90786245236875" lon="11.649417505137505"><ele>1059.5</ele><time>2026-04-23T10:11:50Z</time></trkpt><trkpt lat="45.90776829680074" lon="11.649290830597474"><ele>1057.75</ele><time>2026-04-23T10:11:51Z</time></trkpt><trkpt lat="45.907676034195376" lon="11.649111933248768"><ele>1056.0</ele><time>2026-04-23T10:11:52Z</time></trkpt><trkpt lat="45.90757023001395" lon="11.64887075563486"><ele>1056.0</ele><time>2026-04-23T10:11:53Z</time></trkpt><trkpt lat="45.907449034260914" lon="11.648665202207317"><ele>1056.0</ele><time>2026-04-23T10:11:54Z</time></trkpt><trkpt lat="45.9073020264693" lon="11.648454445435055"><ele>1056.0</ele><time>2026-04-23T10:11:55Z</time></trkpt><trkpt lat="45.90712995803553" lon="11.648241340382587"><ele>1062.6666666666667</ele><time>2026-04-23T10:11:56Z</time></trkpt><trkpt lat="45.90697987493438" lon="11.648073701533573"><ele>1069.3333333333335</ele><time>2026-04-23T10:11:57Z</time></trkpt><trkpt lat="45.90683598490697" lon="11.64793641866894"><ele>1076.0</ele><time>2026-04-23T10:11:58Z</time></trkpt><trkpt lat="45.90670026893818" lon="11.64778494700233"><ele>1078.3333333333335</ele><time>2026-04-23T10:11:59Z</time></trkpt><trkpt lat="45.90657133546493" lon="11.6475727055198"><ele>1080.6666666666667</ele><time>2026-04-23T10:12:00Z</time></trkpt><trkpt lat="45.90643512564349" lon="11.647321578179417"><ele>1083.0</ele><time>2026-04-23T10:12:01Z</time></trkpt><trkpt lat="45.90631118523986" lon="11.64706112024146"><ele>1087.25</ele><time>2026-04-23T10:12:02Z</time></trkpt><trkpt lat="45.90621282871106" lon="11.646852540659514"><ele>1091.5</ele><time>2026-04-23T10:12:03Z</time></trkpt><trkpt lat="45.906136703056305" lon="11.646699080393057"><ele>1095.75</ele><time>2026-04-23T10:12:04Z</time></trkpt><trkpt lat="45.90605756197744" lon="11.646551965192046"><ele>1100.0</ele><time>2026-04-23T10:12:05Z</time></trkpt><trkpt lat="45.90594030137015" lon="11.646431486846035"><ele>1094.0</ele><time>2026-04-23T10:12:06Z</time></trkpt><trkpt lat="45.905793201994136" lon="11.646345149790687"><ele>1088.0</ele><time>2026-04-23T10:12:07Z</time></trkpt><trkpt lat="45.905655306994" lon="11.646217698310702"><ele>1082.0</ele><time>2026-04-23T10:12:08Z</time></trkpt><trkpt lat="45.90552804331797" lon="11.646152400618817"><ele>1085.0</ele><time>2026-04-23T10:12:09Z</time></trkpt><trkpt lat="45.905434717926084" lon="11.646052774232249"><ele>1088.0</ele><time>2026-04-23T10:12:10Z</time></trkpt><trkpt lat="45.905369403867056" lon="11.645946632506263"><ele>1091.0</ele><time>2026-04-23T10:12:11Z</time></trkpt><trkpt lat="45.90532711997215" lon="11.645834769913217"><ele>1094.0</ele><time>2026-04-23T10:12:12Z</time></trkpt><trkpt lat="45.90529519745082" lon="11.645711314773079"><ele>1097.0</ele><time>2026-04-23T10:12:13Z</time></trkpt><trkpt lat="45.905286723043886" lon="11.64559163034199"><ele>1097.0</ele><time>2026-04-23T10:12:14Z</time></trkpt><trkpt lat="45.905299454789194" lon="11.645473269270864"><ele>1097.0</ele><time>2026-04-23T10:12:15Z</time></trkpt><trkpt lat="45.90533574061895" lon="11.645341474838483"><ele>1097.0</ele><time>2026-04-23T10:12:16Z</time></trkpt><trkpt lat="45.90538236642543" lon="11.645203475096467"><ele>1097.0</ele><time>2026-04-23T10:12:17Z</time></trkpt><trkpt lat="45.90537593691544" lon="11.645000017149007"><ele>1097.0</ele><time>2026-04-23T10:12:18Z</time></trkpt><trkpt lat="45.90535649234111" lon="11.644766021834817"><ele>1100.0</ele><time>2026-04-23T10:12:19Z</time></trkpt><trkpt lat="45.90533932616699" lon="11.644559838162921"><ele>1103.0</ele><time>2026-04-23T10:12:20Z</time></trkpt><trkpt lat="45.905322264744214" lon="11.644300153763275"><ele>1106.0</ele><time>2026-04-23T10:12:21Z</time></trkpt><trkpt lat="45.905314641382354" lon="11.644020612034389"><ele>1109.6666666666667</ele><time>2026-04-23T10:12:22Z</time></trkpt><trkpt lat="45.90532441033526" lon="11.64373177552726"><ele>1113.3333333333333</ele><time>2026-04-23T10:12:23Z</time></trkpt><trkpt lat="45.90534778578415" lon="11.643396876841638"><ele>1117.0</ele><time>2026-04-23T10:12:24Z</time></trkpt><trkpt lat="45.90536821398905" lon="11.643070059704565"><ele>1118.6666666666665</ele><time>2026-04-23T10:12:25Z</time></trkpt><trkpt lat="45.905373604614965" lon="11.642764510258587"><ele>1120.3333333333333</ele><time>2026-04-23T10:12:26Z</time></trkpt><trkpt lat="45.90540515652464" lon="11.64249318977571"><ele>1122.0</ele><time>2026-04-23T10:12:27Z</time></trkpt><trkpt lat="45.905422908261855" lon="11.642268361896262"><ele>1122.0</ele><time>2026-04-23T10:12:28Z</time></trkpt><trkpt lat="45.905429824299745" lon="11.642066849280123"><ele>1122.0</ele><time>2026-04-23T10:12:29Z</time></trkpt><trkpt lat="45.90547582794014" lon="11.641876765925078"><ele>1122.0</ele><time>2026-04-23T10:12:30Z</time></trkpt><trkpt lat="45.90554234086537" lon="11.641684270860704"><ele>1122.0</ele><time>2026-04-23T10:12:31Z</time></trkpt><trkpt lat="45.90562865584118" lon="11.641458411492971"><ele>1121.0</ele><time>2026-04-23T10:12:32Z</time></trkpt><trkpt lat="45.90569615134826" lon="11.641207583082869"><ele>1120.0</ele><time>2026-04-23T10:12:33Z</time></trkpt><trkpt lat="45.90575933224733" lon="11.640978733445495"><ele>1119.0</ele><time>2026-04-23T10:12:34Z</time></trkpt><trkpt lat="45.90580745414443" lon="11.640761398063919"><ele>1122.25</ele><time>2026-04-23T10:12:35Z</time></trkpt><trkpt lat="45.90584754278487" lon="11.640556611299834"><ele>1125.5</ele><time>2026-04-23T10:12:36Z</time></trkpt><trkpt lat="45.90591513008285" lon="11.640379355020524"><ele>1128.75</ele><time>2026-04-23T10:12:37Z</time></trkpt><trkpt lat="45.905989332572425" lon="11.640221997935209"><ele>1132.0</ele><time>2026-04-23T10:12:38Z</time></trkpt><trkpt lat="45.90606946876596" lon="11.640063010430966"><ele>1132.0</ele><time>2026-04-23T10:12:39Z</time></trkpt><trkpt lat="45.90614691239049" lon="11.639884639966297"><ele>1132.0</ele><time>2026-04-23T10:12:40Z</time></trkpt><trkpt lat="45.906196825800365" lon="11.639714203361178"><ele>1132.0</ele><time>2026-04-23T10:12:41Z</time></trkpt><trkpt lat="45.90626580088158" lon="11.639579756417035"><ele>1132.0</ele><time>2026-04-23T10:12:42Z</time></trkpt><trkpt lat="45.90635069051308" lon="11.639472587603045"><ele>1122.6666666666665</ele><time>2026-04-23T10:12:43Z</time></trkpt><trkpt lat="45.9064598238311" lon="11.639370625980629"><ele>1113.3333333333333</ele><time>2026-04-23T10:12:44Z</time></trkpt><trkpt lat="45.9065909175474" lon="11.63925233293897"><ele>1104.0</ele><time>2026-04-23T10:12:45Z</time></trkpt><trkpt lat="45.90673371545203" lon="11.639106910611181"><ele>1110.3333333333333</ele><time>2026-04-23T10:12:46Z</time></trkpt><trkpt lat="45.9068617154536" lon="11.638936256154485"><ele>1116.6666666666665</ele><time>2026-04-23T10:12:47Z</time></trkpt><trkpt lat="45.90697489787786" lon="11.638750042570555"><ele>1123.0</ele><time>2026-04-23T10:12:48Z</time></trkpt><trkpt lat="45.90707647959104" lon="11.638531232596987"><ele>1123.0</ele><time>2026-04-23T10:12:49Z</time></trkpt><trkpt lat="45.9071827435146" lon="11.638336983642699"><ele>1123.0</ele><time>2026-04-23T10:12:50Z</time></trkpt><trkpt lat="45.907271687087224" lon="11.638147797791225"><ele>1123.0</ele><time>2026-04-23T10:12:51Z</time></trkpt><trkpt lat="45.907331790469804" lon="11.637984796621526"><ele>1123.0</ele><time>2026-04-23T10:12:52Z</time></trkpt><trkpt lat="45.907367628528405" lon="11.637839761858931"><ele>1123.0</ele><time>2026-04-23T10:12:53Z</time></trkpt><trkpt lat="45.90737856037667" lon="11.637689107675092"><ele>1123.0</ele><time>2026-04-23T10:12:54Z</time></trkpt><trkpt lat="45.90736643069399" lon="11.637548382763345"><ele>1123.0</ele><time>2026-04-23T10:12:55Z</time></trkpt><trkpt lat="45.907350611910736" lon="11.637406161454837"><ele>1123.0</ele><time>2026-04-23T10:12:56Z</time></trkpt><trkpt lat="45.90727551401142" lon="11.637260143642825"><ele>1125.3333333333333</ele><time>2026-04-23T10:12:57Z</time></trkpt><trkpt lat="45.90717590909968" lon="11.637121478184989"><ele>1127.6666666666667</ele><time>2026-04-23T10:12:58Z</time></trkpt><trkpt lat="45.90705144141367" lon="11.636979589456281"><ele>1130.0</ele><time>2026-04-23T10:12:59Z</time></trkpt><trkpt lat="45.906928156844046" lon="11.636804004571104"><ele>1130.0</ele><time>2026-04-23T10:13:00Z</time></trkpt><trkpt lat="45.90682997329623" lon="11.63668738736241"><ele>1130.0</ele><time>2026-04-23T10:13:01Z</time></trkpt><trkpt lat="45.90674386751894" lon="11.636604075315011"><ele>1130.0</ele><time>2026-04-23T10:13:02Z</time></trkpt><trkpt lat="45.90668178955036" lon="11.636484853906175"><ele>1130.0</ele><time>2026-04-23T10:13:03Z</time></trkpt><trkpt lat="45.90665071448514" lon="11.636320541080524"><ele>1124.0</ele><time>2026-04-23T10:13:04Z</time></trkpt><trkpt lat="45.906608784331" lon="11.636120080264071"><ele>1118.0</ele><time>2026-04-23T10:13:05Z</time></trkpt><trkpt lat="45.90657392894626" lon="11.635925736333709"><ele>1112.0</ele><time>2026-04-23T10:13:06Z</time></trkpt><trkpt lat="45.90654035517941" lon="11.635695281781269"><ele>1106.0</ele><time>2026-04-23T10:13:07Z</time></trkpt><trkpt lat="45.90650662725822" lon="11.635400507901338"><ele>1111.0</ele><time>2026-04-23T10:13:08Z</time></trkpt><trkpt lat="45.906474089432" lon="11.635079756289167"><ele>1116.0</ele><time>2026-04-23T10:13:09Z</time></trkpt><trkpt lat="45.90642823945072" lon="11.634760478226138"><ele>1118.6666666666667</ele><time>2026-04-23T10:13:10Z</time></trkpt><trkpt lat="45.9063581918672" lon="11.634430985189919"><ele>1121.3333333333335</ele><time>2026-04-23T10:13:11Z</time></trkpt><trkpt lat="45.90630654448848" lon="11.63414466385691"><ele>1124.0</ele><time>2026-04-23T10:13:12Z</time></trkpt><trkpt lat="45.9062727885629" lon="11.633872175943663"><ele>1126.6666666666667</ele><time>2026-04-23T10:13:13Z</time></trkpt><trkpt lat="45.90625312355222" lon="11.633613977681362"><ele>1129.3333333333333</ele><time>2026-04-23T10:13:14Z</time></trkpt><trkpt lat="45.906226171881464" lon="11.633392594276247"><ele>1132.0</ele><time>2026-04-23T10:13:15Z</time></trkpt><trkpt lat="45.9061872163111" lon="11.633197420261531"><ele>1132.0</ele><time>2026-04-23T10:13:16Z</time></trkpt><trkpt lat="45.906140042373686" lon="11.633038095812662"><ele>1132.0</ele><time>2026-04-23T10:13:17Z</time></trkpt><trkpt lat="45.906084324566685" lon="11.632899213111525"><ele>1132.0</ele><time>2026-04-23T10:13:18Z</time></trkpt><trkpt lat="45.906019615284166" lon="11.63278477577108"><ele>1132.0</ele><time>2026-04-23T10:13:19Z</time></trkpt><trkpt lat="45.90590602707308" lon="11.63274614088538"><ele>1128.5</ele><time>2026-04-23T10:13:20Z</time></trkpt><trkpt lat="45.9058025120497" lon="11.63274171558471"><ele>1125.0</ele><time>2026-04-23T10:13:21Z</time></trkpt><trkpt lat="45.905696831819306" lon="11.632798335000148"><ele>1121.5</ele><time>2026-04-23T10:13:22Z</time></trkpt><trkpt lat="45.90558622853644" lon="11.632905579203136"><ele>1118.0</ele><time>2026-04-23T10:13:23Z</time></trkpt><trkpt lat="45.90547195438374" lon="11.633046329836931"><ele>1113.0</ele><time>2026-04-23T10:13:24Z</time></trkpt><trkpt lat="45.9053891253632" lon="11.633159553395735"><ele>1108.0</ele><time>2026-04-23T10:13:25Z</time></trkpt><trkpt lat="45.90531267267456" lon="11.633250820802893"><ele>1103.0</ele><time>2026-04-23T10:13:26Z</time></trkpt><trkpt lat="45.90524357222059" lon="11.633332579851785"><ele>1098.0</ele><time>2026-04-23T10:13:27Z</time></trkpt><trkpt lat="45.90517582984804" lon="11.633387146203573"><ele>1093.0</ele><time>2026-04-23T10:13:28Z</time></trkpt><trkpt lat="45.90510374250932" lon="11.633391697128395"><ele>1092.0</ele><time>2026-04-23T10:13:29Z</time></trkpt><trkpt lat="45.90503004372632" lon="11.63335130410053"><ele>1091.0</ele><time>2026-04-23T10:13:30Z</time></trkpt><trkpt lat="45.90495457579615" lon="11.63325992267894"><ele>1090.0</ele><time>2026-04-23T10:13:31Z</time></trkpt><trkpt lat="45.904894989012746" lon="11.633120423580724"><ele>1089.0</ele><time>2026-04-23T10:13:32Z</time></trkpt><trkpt lat="45.904800500614236" lon="11.632937764817136"><ele>1096.6666666666667</ele><time>2026-04-23T10:13:33Z</time></trkpt><trkpt lat="45.904685730389595" lon="11.632707541169056"><ele>1104.3333333333335</ele><time>2026-04-23T10:13:34Z</time></trkpt><trkpt lat="45.9045754496476" lon="11.63248297003271"><ele>1112.0</ele><time>2026-04-23T10:13:35Z</time></trkpt><trkpt lat="45.9044555294348" lon="11.632284770171237"><ele>1112.0</ele><time>2026-04-23T10:13:36Z</time></trkpt><trkpt lat="45.904352760503066" lon="11.632096453922468"><ele>1112.0</ele><time>2026-04-23T10:13:37Z</time></trkpt><trkpt lat="45.90423610630364" lon="11.63195177361574"><ele>1112.0</ele><time>2026-04-23T10:13:38Z</time></trkpt><trkpt lat="45.904102287081194" lon="11.63184446568413"><ele>1110.3333333333335</ele><time>2026-04-23T10:13:39Z</time></trkpt><trkpt lat="45.90394199105963" lon="11.631777773819588"><ele>1108.6666666666667</ele><time>2026-04-23T10:13:40Z</time></trkpt><trkpt lat="45.903747512219184" lon="11.63168107262859"><ele>1107.0</ele><time>2026-04-23T10:13:41Z</time></trkpt><trkpt lat="45.90352107847823" lon="11.631591307906929"><ele>1099.6666666666667</ele><time>2026-04-23T10:13:42Z</time></trkpt><trkpt lat="45.90331707175299" lon="11.631443256257326"><ele>1092.3333333333335</ele><time>2026-04-23T10:13:43Z</time></trkpt><trkpt lat="45.90315319240122" lon="11.631337751614927"><ele>1085.0</ele><time>2026-04-23T10:13:44Z</time></trkpt><trkpt lat="45.90300342198474" lon="11.631240894617989"><ele>1095.0</ele><time>2026-04-23T10:13:45Z</time></trkpt><trkpt lat="45.90287038932871" lon="11.63113728074395"><ele>1105.0</ele><time>2026-04-23T10:13:46Z</time></trkpt><trkpt lat="45.90274396249277" lon="11.630991176208168"><ele>1115.0</ele><time>2026-04-23T10:13:47Z</time></trkpt><trkpt lat="45.902607258048874" lon="11.630791870278987"><ele>1112.0</ele><time>2026-04-23T10:13:48Z</time></trkpt><trkpt lat="45.90247644520096" lon="11.630587573435974"><ele>1109.0</ele><time>2026-04-23T10:13:49Z</time></trkpt><trkpt lat="45.902377870561615" lon="11.630410372381006"><ele>1106.0</ele><time>2026-04-23T10:13:50Z</time></trkpt><trkpt lat="45.90227986085186" lon="11.630250442040026"><ele>1106.0</ele><time>2026-04-23T10:13:51Z</time></trkpt><trkpt lat="45.9022071740889" lon="11.63010778255225"><ele>1106.0</ele><time>2026-04-23T10:13:52Z</time></trkpt><trkpt lat="45.90210825877871" lon="11.629996140437704"><ele>1106.0</ele><time>2026-04-23T10:13:53Z</time></trkpt><trkpt lat="45.90199179651621" lon="11.629932380889478"><ele>1106.0</ele><time>2026-04-23T10:13:54Z</time></trkpt><trkpt lat="45.90185899492267" lon="11.629927162212399"><ele>1099.3333333333335</ele><time>2026-04-23T10:13:55Z</time></trkpt><trkpt lat="45.901697632864085" lon="11.629956767416354"><ele>1092.6666666666667</ele><time>2026-04-23T10:13:56Z</time></trkpt><trkpt lat="45.90150124965117" lon="11.62998094977657"><ele>1086.0</ele><time>2026-04-23T10:13:57Z</time></trkpt><trkpt lat="45.901304610941764" lon="11.630000089456418"><ele>1086.0</ele><time>2026-04-23T10:13:58Z</time></trkpt><trkpt lat="45.90112354331931" lon="11.629999043902199"><ele>1086.0</ele><time>2026-04-23T10:13:59Z</time></trkpt><trkpt lat="45.90092182810129" lon="11.629968155896584"><ele>1086.0</ele><time>2026-04-23T10:14:00Z</time></trkpt><trkpt lat="45.90072210222197" lon="11.629919301613949"><ele>1083.6666666666667</ele><time>2026-04-23T10:14:01Z</time></trkpt><trkpt lat="45.90053491251096" lon="11.629867430789709"><ele>1081.3333333333335</ele><time>2026-04-23T10:14:02Z</time></trkpt><trkpt lat="45.90033599714222" lon="11.629842602286871"><ele>1079.0</ele><time>2026-04-23T10:14:03Z</time></trkpt><trkpt lat="45.90012813684799" lon="11.629841451184838"><ele>1079.0</ele><time>2026-04-23T10:14:04Z</time></trkpt><trkpt lat="45.899910073991" lon="11.629877233145624"><ele>1079.0</ele><time>2026-04-23T10:14:05Z</time></trkpt><trkpt lat="45.8996786805671" lon="11.629935385177719"><ele>1079.0</ele><time>2026-04-23T10:14:06Z</time></trkpt><trkpt lat="45.89948058080438" lon="11.629987144247"><ele>1079.0</ele><time>2026-04-23T10:14:07Z</time></trkpt><trkpt lat="45.89929556580822" lon="11.630038918273199"><ele>1079.0</ele><time>2026-04-23T10:14:08Z</time></trkpt><trkpt lat="45.89910952315893" lon="11.630084832855964"><ele>1081.0</ele><time>2026-04-23T10:14:09Z</time></trkpt><trkpt lat="45.898932964723954" lon="11.630132113449442"><ele>1083.0</ele><time>2026-04-23T10:14:10Z</time></trkpt><trkpt lat="45.89879979094552" lon="11.630165921226284"><ele>1085.0</ele><time>2026-04-23T10:14:11Z</time></trkpt><trkpt lat="45.89868367705466" lon="11.630195030109846"><ele>1087.0</ele><time>2026-04-23T10:14:12Z</time></trkpt><trkpt lat="45.89857777976339" lon="11.630218067156163"><ele>1087.0</ele><time>2026-04-23T10:14:13Z</time></trkpt><trkpt lat="45.89848365321756" lon="11.630243131743525"><ele>1087.0</ele><time>2026-04-23T10:14:14Z</time></trkpt><trkpt lat="45.898404511404266" lon="11.630266593964736"><ele>1087.0</ele><time>2026-04-23T10:14:15Z</time></trkpt><trkpt lat="45.898328824486235" lon="11.630284957630044"><ele>1087.0</ele><time>2026-04-23T10:14:16Z</time></trkpt><trkpt lat="45.898248535219054" lon="11.630304135159397"><ele>1087.0</ele><time>2026-04-23T10:14:17Z</time></trkpt><trkpt lat="45.89814415180562" lon="11.630312585838821"><ele>1087.0</ele><time>2026-04-23T10:14:18Z</time></trkpt><trkpt lat="45.89798864143852" lon="11.630351174172857"><ele>1088.0</ele><time>2026-04-23T10:14:19Z</time></trkpt><trkpt lat="45.897848843814785" lon="11.630386900107231"><ele>1089.0</ele><time>2026-04-23T10:14:20Z</time></trkpt><trkpt lat="45.89773160976748" lon="11.630448131788375"><ele>1090.0</ele><time>2026-04-23T10:14:21Z</time></trkpt><trkpt lat="45.89760593936024" lon="11.630479709727066"><ele>1091.0</ele><time>2026-04-23T10:14:22Z</time></trkpt><trkpt lat="45.89749309532152" lon="11.630577579423539"><ele>1091.0</ele><time>2026-04-23T10:14:23Z</time></trkpt><trkpt lat="45.8973827668583" lon="11.63063976733332"><ele>1091.0</ele><time>2026-04-23T10:14:24Z</time></trkpt><trkpt lat="45.897261494858434" lon="11.630658814770564"><ele>1091.0</ele><time>2026-04-23T10:14:25Z</time></trkpt><trkpt lat="45.89710887425521" lon="11.63067290263827"><ele>1091.0</ele><time>2026-04-23T10:14:26Z</time></trkpt><trkpt lat="45.896955406206956" lon="11.630680516500867"><ele>1091.0</ele><time>2026-04-23T10:14:27Z</time></trkpt><trkpt lat="45.89682411270978" lon="11.630697480831055"><ele>1091.0</ele><time>2026-04-23T10:14:28Z</time></trkpt><trkpt lat="45.89672009053959" lon="11.63071619557179"><ele>1091.0</ele><time>2026-04-23T10:14:29Z</time></trkpt><trkpt lat="45.896637217693204" lon="11.630724111426526"><ele>1091.0</ele><time>2026-04-23T10:14:30Z</time></trkpt><trkpt lat="45.89652069203377" lon="11.630681423898933"><ele>1091.0</ele><time>2026-04-23T10:14:32Z</time></trkpt><trkpt lat="45.89647248979304" lon="11.630533659685197"><ele>1090.6</ele><time>2026-04-23T10:14:34Z</time></trkpt><trkpt lat="45.8964939039133" lon="11.63042500370326"><ele>1090.1999999999998</ele><time>2026-04-23T10:14:35Z</time></trkpt><trkpt lat="45.89655367956715" lon="11.6303135798896"><ele>1089.8000000000002</ele><time>2026-04-23T10:14:36Z</time></trkpt><trkpt lat="45.896635315883785" lon="11.630184075029234"><ele>1089.4</ele><time>2026-04-23T10:14:37Z</time></trkpt><trkpt lat="45.8967313806251" lon="11.630067448434538"><ele>1089.0</ele><time>2026-04-23T10:14:38Z</time></trkpt><trkpt lat="45.89685601548771" lon="11.629898673628267"><ele>1089.0</ele><time>2026-04-23T10:14:39Z</time></trkpt><trkpt lat="45.89697886150316" lon="11.629733269672096"><ele>1089.0</ele><time>2026-04-23T10:14:40Z</time></trkpt><trkpt lat="45.89709769977652" lon="11.629579993808072"><ele>1089.0</ele><time>2026-04-23T10:14:41Z</time></trkpt><trkpt lat="45.89724284143421" lon="11.62941073445063"><ele>1087.3333333333333</ele><time>2026-04-23T10:14:42Z</time></trkpt><trkpt lat="45.897411783785316" lon="11.629228127000609"><ele>1085.6666666666665</ele><time>2026-04-23T10:14:43Z</time></trkpt><trkpt lat="45.89756960350979" lon="11.629058998924654"><ele>1084.0</ele><time>2026-04-23T10:14:44Z</time></trkpt><trkpt lat="45.89771235722865" lon="11.628904731829467"><ele>1084.0</ele><time>2026-04-23T10:14:45Z</time></trkpt><trkpt lat="45.89785088798538" lon="11.628778495819278"><ele>1084.0</ele><time>2026-04-23T10:14:46Z</time></trkpt><trkpt lat="45.89800111852158" lon="11.628672566069197"><ele>1084.0</ele><time>2026-04-23T10:14:47Z</time></trkpt><trkpt lat="45.89818432590933" lon="11.628574358910853"><ele>1078.0</ele><time>2026-04-23T10:14:48Z</time></trkpt><trkpt lat="45.898381010546224" lon="11.628468506976196"><ele>1072.0</ele><time>2026-04-23T10:14:49Z</time></trkpt><trkpt lat="45.89855078457676" lon="11.628359412263139"><ele>1066.0</ele><time>2026-04-23T10:14:50Z</time></trkpt><trkpt lat="45.898711231467345" lon="11.628251840826756"><ele>1066.0</ele><time>2026-04-23T10:14:51Z</time></trkpt><trkpt lat="45.898857820026876" lon="11.6281429461477"><ele>1066.0</ele><time>2026-04-23T10:14:52Z</time></trkpt><trkpt lat="45.89898311384338" lon="11.628048467748215"><ele>1066.0</ele><time>2026-04-23T10:14:53Z</time></trkpt><trkpt lat="45.89910407386494" lon="11.627962460479129"><ele>1066.0</ele><time>2026-04-23T10:14:54Z</time></trkpt><trkpt lat="45.89921216736966" lon="11.627880717100613"><ele>1066.6</ele><time>2026-04-23T10:14:55Z</time></trkpt><trkpt lat="45.89930178408836" lon="11.627794504021784"><ele>1067.1999999999998</ele><time>2026-04-23T10:14:56Z</time></trkpt><trkpt lat="45.899362815056314" lon="11.627673555268215"><ele>1067.8000000000002</ele><time>2026-04-23T10:14:57Z</time></trkpt><trkpt lat="45.89938174243985" lon="11.627530839334614"><ele>1068.4</ele><time>2026-04-23T10:14:58Z</time></trkpt><trkpt lat="45.899362365600204" lon="11.627383718851474"><ele>1069.0</ele><time>2026-04-23T10:14:59Z</time></trkpt><trkpt lat="45.89933568573396" lon="11.62721981917742"><ele>1069.0</ele><time>2026-04-23T10:15:00Z</time></trkpt><trkpt lat="45.8993014317921" lon="11.627087595940976"><ele>1069.0</ele><time>2026-04-23T10:15:01Z</time></trkpt><trkpt lat="45.8992749933246" lon="11.626961162609842"><ele>1069.0</ele><time>2026-04-23T10:15:02Z</time></trkpt><trkpt lat="45.899308462333764" lon="11.62679827350515"><ele>1069.0</ele><time>2026-04-23T10:15:03Z</time></trkpt><trkpt lat="45.89937625526319" lon="11.626620283813008"><ele>1069.0</ele><time>2026-04-23T10:15:04Z</time></trkpt><trkpt lat="45.89944593309682" lon="11.626430760349391"><ele>1068.0</ele><time>2026-04-23T10:15:05Z</time></trkpt><trkpt lat="45.899496977104675" lon="11.626206987520758"><ele>1067.0</ele><time>2026-04-23T10:15:06Z</time></trkpt><trkpt lat="45.899518353511354" lon="11.625949902141828"><ele>1066.0</ele><time>2026-04-23T10:15:07Z</time></trkpt><trkpt lat="45.89953612790949" lon="11.62573593865451"><ele>1066.0</ele><time>2026-04-23T10:15:08Z</time></trkpt><trkpt lat="45.899552296394624" lon="11.625571457674072"><ele>1066.0</ele><time>2026-04-23T10:15:09Z</time></trkpt><trkpt lat="45.89959131407499" lon="11.625413310259923"><ele>1066.0</ele><time>2026-04-23T10:15:10Z</time></trkpt><trkpt lat="45.89965633964133" lon="11.62527611634525"><ele>1066.0</ele><time>2026-04-23T10:15:11Z</time></trkpt><trkpt lat="45.89974534611214" lon="11.625156333360255"><ele>1063.25</ele><time>2026-04-23T10:15:12Z</time></trkpt><trkpt lat="45.89985525194151" lon="11.62506930598115"><ele>1060.5</ele><time>2026-04-23T10:15:13Z</time></trkpt><trkpt lat="45.89997186464396" lon="11.625028917684821"><ele>1057.75</ele><time>2026-04-23T10:15:14Z</time></trkpt><trkpt lat="45.90011191450633" lon="11.625027117199673"><ele>1055.0</ele><time>2026-04-23T10:15:15Z</time></trkpt><trkpt lat="45.90026768516274" lon="11.625035292975047"><ele>1055.0</ele><time>2026-04-23T10:15:16Z</time></trkpt><trkpt lat="45.90039570417999" lon="11.62504030449644"><ele>1055.0</ele><time>2026-04-23T10:15:17Z</time></trkpt><trkpt lat="45.90050377975" lon="11.625022621371865"><ele>1055.0</ele><time>2026-04-23T10:15:18Z</time></trkpt><trkpt lat="45.900597233435484" lon="11.624962686496481"><ele>1055.0</ele><time>2026-04-23T10:15:19Z</time></trkpt><trkpt lat="45.90066391012994" lon="11.624851847437899"><ele>1055.0</ele><time>2026-04-23T10:15:20Z</time></trkpt><trkpt lat="45.90071946308841" lon="11.624730821636458"><ele>1055.0</ele><time>2026-04-23T10:15:21Z</time></trkpt><trkpt lat="45.900711673935604" lon="11.624560369139864"><ele>1055.0</ele><time>2026-04-23T10:15:22Z</time></trkpt><trkpt lat="45.900684305184264" lon="11.624344217249947"><ele>1055.0</ele><time>2026-04-23T10:15:23Z</time></trkpt><trkpt lat="45.90065481607321" lon="11.624095840554572"><ele>1055.0</ele><time>2026-04-23T10:15:24Z</time></trkpt><trkpt lat="45.90063233117411" lon="11.623870572881119"><ele>1053.3333333333335</ele><time>2026-04-23T10:15:25Z</time></trkpt><trkpt lat="45.9006148266309" lon="11.623619038783556"><ele>1051.6666666666667</ele><time>2026-04-23T10:15:26Z</time></trkpt><trkpt lat="45.90062112680073" lon="11.623360323604066"><ele>1050.0</ele><time>2026-04-23T10:15:27Z</time></trkpt><trkpt lat="45.9006709252644" lon="11.623093553110609"><ele>1050.0</ele><time>2026-04-23T10:15:28Z</time></trkpt><trkpt lat="45.90069164019826" lon="11.622839618110444"><ele>1050.0</ele><time>2026-04-23T10:15:29Z</time></trkpt><trkpt lat="45.90070114292423" lon="11.622609934425203"><ele>1050.0</ele><time>2026-04-23T10:15:30Z</time></trkpt><trkpt lat="45.90070314627788" lon="11.622375093734146"><ele>1051.6666666666667</ele><time>2026-04-23T10:15:31Z</time></trkpt><trkpt lat="45.90065944864342" lon="11.622132995646947"><ele>1053.3333333333335</ele><time>2026-04-23T10:15:32Z</time></trkpt><trkpt lat="45.90059091859895" lon="11.62191207829846"><ele>1055.0</ele><time>2026-04-23T10:15:33Z</time></trkpt><trkpt lat="45.90048825640169" lon="11.621691766494104"><ele>1056.6666666666667</ele><time>2026-04-23T10:15:34Z</time></trkpt><trkpt lat="45.90034241674938" lon="11.621504203083607"><ele>1058.3333333333333</ele><time>2026-04-23T10:15:35Z</time></trkpt><trkpt lat="45.90019699285507" lon="11.62126206012886"><ele>1060.0</ele><time>2026-04-23T10:15:36Z</time></trkpt><trkpt lat="45.90000961403637" lon="11.62099714077132"><ele>1047.5</ele><time>2026-04-23T10:15:37Z</time></trkpt><trkpt lat="45.89982019848767" lon="11.62072878177084"><ele>1035.0</ele><time>2026-04-23T10:15:38Z</time></trkpt><trkpt lat="45.89960976535718" lon="11.620430335465775"><ele>1040.0</ele><time>2026-04-23T10:15:39Z</time></trkpt><trkpt lat="45.89941197015025" lon="11.620148530573548"><ele>1045.0</ele><time>2026-04-23T10:15:40Z</time></trkpt><trkpt lat="45.899200084994064" lon="11.619848279800093"><ele>1044.5</ele><time>2026-04-23T10:15:41Z</time></trkpt><trkpt lat="45.899001324150355" lon="11.619594875649833"><ele>1044.0</ele><time>2026-04-23T10:15:42Z</time></trkpt><trkpt lat="45.89884803812439" lon="11.619340348675111"><ele>1044.0</ele><time>2026-04-23T10:15:43Z</time></trkpt><trkpt lat="45.89869054820712" lon="11.619110002981486"><ele>1044.0</ele><time>2026-04-23T10:15:44Z</time></trkpt><trkpt lat="45.898530058345855" lon="11.618909111480416"><ele>1044.0</ele><time>2026-04-23T10:15:45Z</time></trkpt><trkpt lat="45.898396035324815" lon="11.61869833028319"><ele>1041.6666666666667</ele><time>2026-04-23T10:15:46Z</time></trkpt><trkpt lat="45.89827258656233" lon="11.618489453899532"><ele>1039.3333333333335</ele><time>2026-04-23T10:15:47Z</time></trkpt><trkpt lat="45.89816089768865" lon="11.618271714847966"><ele>1037.0</ele><time>2026-04-23T10:15:48Z</time></trkpt><trkpt lat="45.8980610079472" lon="11.618056378097235"><ele>1037.0</ele><time>2026-04-23T10:15:49Z</time></trkpt><trkpt lat="45.897981137710225" lon="11.617879642101842"><ele>1037.0</ele><time>2026-04-23T10:15:50Z</time></trkpt><trkpt lat="45.89791086000339" lon="11.617713808019763"><ele>1037.0</ele><time>2026-04-23T10:15:51Z</time></trkpt><trkpt lat="45.89780966850355" lon="11.617601661639855"><ele>1037.0</ele><time>2026-04-23T10:15:52Z</time></trkpt><trkpt lat="45.897677985505865" lon="11.617554004038736"><ele>1036.0</ele><time>2026-04-23T10:15:53Z</time></trkpt><trkpt lat="45.897527636297305" lon="11.617520000009222"><ele>1035.0</ele><time>2026-04-23T10:15:54Z</time></trkpt><trkpt lat="45.89734740993237" lon="11.617495266678366"><ele>1034.0</ele><time>2026-04-23T10:15:55Z</time></trkpt><trkpt lat="45.897189175304035" lon="11.617412167305446"><ele>1034.0</ele><time>2026-04-23T10:15:56Z</time></trkpt><trkpt lat="45.89704631765329" lon="11.617333337548253"><ele>1034.0</ele><time>2026-04-23T10:15:57Z</time></trkpt><trkpt lat="45.89689661929095" lon="11.617221024250837"><ele>1034.0</ele><time>2026-04-23T10:15:58Z</time></trkpt><trkpt lat="45.8967297464369" lon="11.617056383063543"><ele>1036.0</ele><time>2026-04-23T10:15:59Z</time></trkpt><trkpt lat="45.89653785448728" lon="11.616856341818377"><ele>1038.0</ele><time>2026-04-23T10:16:00Z</time></trkpt><trkpt lat="45.89635378035443" lon="11.616664784288671"><ele>1038.0</ele><time>2026-04-23T10:16:01Z</time></trkpt><trkpt lat="45.89614139038779" lon="11.616445754845"><ele>1038.0</ele><time>2026-04-23T10:16:02Z</time></trkpt><trkpt lat="45.89592151817548" lon="11.616219009333298"><ele>1038.5</ele><time>2026-04-23T10:16:03Z</time></trkpt><trkpt lat="45.8957187158569" lon="11.61603311097766"><ele>1039.0</ele><time>2026-04-23T10:16:04Z</time></trkpt><trkpt lat="45.895544857905506" lon="11.61583205631537"><ele>1039.0</ele><time>2026-04-23T10:16:05Z</time></trkpt><trkpt lat="45.89535778679286" lon="11.615666232941875"><ele>1039.0</ele><time>2026-04-23T10:16:06Z</time></trkpt><trkpt lat="45.89515167133925" lon="11.615510506736435"><ele>1041.0</ele><time>2026-04-23T10:16:07Z</time></trkpt><trkpt lat="45.894920086423646" lon="11.615393730860294"><ele>1043.0</ele><time>2026-04-23T10:16:08Z</time></trkpt><trkpt lat="45.89468302930209" lon="11.61526861855861"><ele>1043.0</ele><time>2026-04-23T10:16:09Z</time></trkpt><trkpt lat="45.89447346675061" lon="11.61516806049295"><ele>1043.0</ele><time>2026-04-23T10:16:10Z</time></trkpt><trkpt lat="45.89429678471885" lon="11.61508455130452"><ele>1043.0</ele><time>2026-04-23T10:16:11Z</time></trkpt><trkpt lat="45.89414958323474" lon="11.615011228866273"><ele>1038.75</ele><time>2026-04-23T10:16:12Z</time></trkpt><trkpt lat="45.89402990771263" lon="11.614954526244395"><ele>1034.5</ele><time>2026-04-23T10:16:13Z</time></trkpt><trkpt lat="45.89391202746782" lon="11.61491728594979"><ele>1030.25</ele><time>2026-04-23T10:16:14Z</time></trkpt><trkpt lat="45.89378615722485" lon="11.614925650818613"><ele>1026.0</ele><time>2026-04-23T10:16:15Z</time></trkpt><trkpt lat="45.89364760802648" lon="11.6149798638941"><ele>1026.0</ele><time>2026-04-23T10:16:16Z</time></trkpt><trkpt lat="45.89352547897234" lon="11.615068177781934"><ele>1026.0</ele><time>2026-04-23T10:16:17Z</time></trkpt><trkpt lat="45.893387096736504" lon="11.615206848729047"><ele>1026.0</ele><time>2026-04-23T10:16:18Z</time></trkpt><trkpt lat="45.89322305258147" lon="11.615386013135995"><ele>1020.6666666666667</ele><time>2026-04-23T10:16:19Z</time></trkpt><trkpt lat="45.893039636290084" lon="11.615576827376012"><ele>1015.3333333333334</ele><time>2026-04-23T10:16:20Z</time></trkpt><trkpt lat="45.89286823964497" lon="11.615748377862966"><ele>1010.0</ele><time>2026-04-23T10:16:21Z</time></trkpt><trkpt lat="45.89271520451317" lon="11.61591130792267"><ele>1009.0</ele><time>2026-04-23T10:16:22Z</time></trkpt><trkpt lat="45.892554575096696" lon="11.61607095579555"><ele>1008.0</ele><time>2026-04-23T10:16:23Z</time></trkpt><trkpt lat="45.89239394411276" lon="11.616203949561866"><ele>1007.0</ele><time>2026-04-23T10:16:24Z</time></trkpt><trkpt lat="45.89222680143311" lon="11.616313079443085"><ele>1007.0</ele><time>2026-04-23T10:16:25Z</time></trkpt><trkpt lat="45.89202513080636" lon="11.616423488514585"><ele>1007.0</ele><time>2026-04-23T10:16:26Z</time></trkpt><trkpt lat="45.89181995667225" lon="11.616523418051452"><ele>1007.0</ele><time>2026-04-23T10:16:27Z</time></trkpt><trkpt lat="45.89164185827022" lon="11.616612010443797"><ele>1011.3333333333334</ele><time>2026-04-23T10:16:28Z</time></trkpt><trkpt lat="45.891469400842325" lon="11.616673915645817"><ele>1015.6666666666667</ele><time>2026-04-23T10:16:29Z</time></trkpt><trkpt lat="45.891304325860794" lon="11.616711681775845"><ele>1020.0</ele><time>2026-04-23T10:16:30Z</time></trkpt><trkpt lat="45.891171602189225" lon="11.616750612032403"><ele>1020.0</ele><time>2026-04-23T10:16:31Z</time></trkpt><trkpt lat="45.89105830035869" lon="11.616754267402797"><ele>1020.0</ele><time>2026-04-23T10:16:32Z</time></trkpt><trkpt lat="45.89095917201081" lon="11.616771197234518"><ele>1020.0</ele><time>2026-04-23T10:16:33Z</time></trkpt><trkpt lat="45.89087055867202" lon="11.616777454057273"><ele>1020.0</ele><time>2026-04-23T10:16:34Z</time></trkpt><trkpt lat="45.89079785808995" lon="11.616709263247369"><ele>1020.0</ele><time>2026-04-23T10:16:35Z</time></trkpt><trkpt lat="45.8907440160333" lon="11.616601256604534"><ele>1020.6</ele><time>2026-04-23T10:16:36Z</time></trkpt><trkpt lat="45.89071473512464" lon="11.616461547630552"><ele>1021.2</ele><time>2026-04-23T10:16:37Z</time></trkpt><trkpt lat="45.89071313097608" lon="11.616317164830312"><ele>1021.8</ele><time>2026-04-23T10:16:38Z</time></trkpt><trkpt lat="45.89075688349704" lon="11.616187570552228"><ele>1022.4</ele><time>2026-04-23T10:16:39Z</time></trkpt><trkpt lat="45.890830483095904" lon="11.616080481602232"><ele>1023.0</ele><time>2026-04-23T10:16:40Z</time></trkpt><trkpt lat="45.89093770692295" lon="11.615980191746175"><ele>1023.0</ele><time>2026-04-23T10:16:41Z</time></trkpt><trkpt lat="45.89107388659408" lon="11.615882097253746"><ele>1023.0</ele><time>2026-04-23T10:16:42Z</time></trkpt><trkpt lat="45.89123399546113" lon="11.615787154257115"><ele>1023.0</ele><time>2026-04-23T10:16:43Z</time></trkpt><trkpt lat="45.89138549854425" lon="11.615698678617754"><ele>1023.0</ele><time>2026-04-23T10:16:44Z</time></trkpt><trkpt lat="45.89155282722972" lon="11.615568535016209"><ele>1023.0</ele><time>2026-04-23T10:16:45Z</time></trkpt><trkpt lat="45.89171513562682" lon="11.615403955834783"><ele>1023.0</ele><time>2026-04-23T10:16:46Z</time></trkpt><trkpt lat="45.89184721669932" lon="11.615237356893374"><ele>1026.0</ele><time>2026-04-23T10:16:47Z</time></trkpt><trkpt lat="45.89196546109779" lon="11.61505207318082"><ele>1029.0</ele><time>2026-04-23T10:16:48Z</time></trkpt><trkpt lat="45.892068665862865" lon="11.614829652506272"><ele>1032.0</ele><time>2026-04-23T10:16:49Z</time></trkpt><trkpt lat="45.89214993796175" lon="11.614607030845335"><ele>1029.6666666666667</ele><time>2026-04-23T10:16:50Z</time></trkpt><trkpt lat="45.89220299566309" lon="11.614387901378223"><ele>1027.3333333333335</ele><time>2026-04-23T10:16:51Z</time></trkpt><trkpt lat="45.89222966494733" lon="11.614155190437941"><ele>1025.0</ele><time>2026-04-23T10:16:52Z</time></trkpt><trkpt lat="45.89222706786573" lon="11.613892302074493"><ele>1027.6666666666667</ele><time>2026-04-23T10:16:53Z</time></trkpt><trkpt lat="45.892195468321205" lon="11.613603187101644"><ele>1030.3333333333333</ele><time>2026-04-23T10:16:54Z</time></trkpt><trkpt lat="45.89214609521301" lon="11.613320610903198"><ele>1033.0</ele><time>2026-04-23T10:16:55Z</time></trkpt><trkpt lat="45.89208906160039" lon="11.613065636378217"><ele>1033.0</ele><time>2026-04-23T10:16:56Z</time></trkpt><trkpt lat="45.89202309900758" lon="11.612829807981232"><ele>1033.0</ele><time>2026-04-23T10:16:57Z</time></trkpt><trkpt lat="45.8919691220945" lon="11.61262921934169"><ele>1033.0</ele><time>2026-04-23T10:16:58Z</time></trkpt><trkpt lat="45.89195857963221" lon="11.61243296058044"><ele>1032.5</ele><time>2026-04-23T10:16:59Z</time></trkpt><trkpt lat="45.89193983246645" lon="11.612271601185517"><ele>1032.0</ele><time>2026-04-23T10:17:00Z</time></trkpt><trkpt lat="45.891926912479256" lon="11.612125079591655"><ele>1031.5</ele><time>2026-04-23T10:17:01Z</time></trkpt><trkpt lat="45.89195950394192" lon="11.611973409191672"><ele>1031.0</ele><time>2026-04-23T10:17:02Z</time></trkpt><trkpt lat="45.89202136498549" lon="11.611801195191294"><ele>1028.0</ele><time>2026-04-23T10:17:03Z</time></trkpt><trkpt lat="45.89210042708118" lon="11.61163310198844"><ele>1025.0</ele><time>2026-04-23T10:17:04Z</time></trkpt><trkpt lat="45.89219268205938" lon="11.61148845577734"><ele>1022.0</ele><time>2026-04-23T10:17:05Z</time></trkpt><trkpt lat="45.89230081387072" lon="11.61137172257025"><ele>1019.0</ele><time>2026-04-23T10:17:06Z</time></trkpt><trkpt lat="45.89242020756739" lon="11.611272757885766"><ele>1019.0</ele><time>2026-04-23T10:17:07Z</time></trkpt><trkpt lat="45.89256857595636" lon="11.611192609763597"><ele>1019.0</ele><time>2026-04-23T10:17:08Z</time></trkpt><trkpt lat="45.89275406646208" lon="11.611121733129192"><ele>1019.0</ele><time>2026-04-23T10:17:09Z</time></trkpt><trkpt lat="45.89295003678289" lon="11.611062616173859"><ele>1019.0</ele><time>2026-04-23T10:17:10Z</time></trkpt><trkpt lat="45.89313337069015" lon="11.610986966854774"><ele>1019.0</ele><time>2026-04-23T10:17:11Z</time></trkpt><trkpt lat="45.89332927335441" lon="11.610870750446217"><ele>1019.0</ele><time>2026-04-23T10:17:12Z</time></trkpt><trkpt lat="45.89352232286856" lon="11.610712463881118"><ele>1028.6666666666667</ele><time>2026-04-23T10:17:13Z</time></trkpt><trkpt lat="45.893678611537126" lon="11.6105918733797"><ele>1038.3333333333333</ele><time>2026-04-23T10:17:14Z</time></trkpt><trkpt lat="45.89381861282955" lon="11.610474087087155"><ele>1048.0</ele><time>2026-04-23T10:17:15Z</time></trkpt><trkpt lat="45.893947945640754" lon="11.610329140454047"><ele>1051.0</ele><time>2026-04-23T10:17:16Z</time></trkpt><trkpt lat="45.89408520055783" lon="11.610135564918755"><ele>1054.0</ele><time>2026-04-23T10:17:17Z</time></trkpt><trkpt lat="45.89421871747352" lon="11.609909920003007"><ele>1057.0</ele><time>2026-04-23T10:17:18Z</time></trkpt><trkpt lat="45.89432748902496" lon="11.60972828260157"><ele>1057.0</ele><time>2026-04-23T10:17:19Z</time></trkpt><trkpt lat="45.894405102682576" lon="11.609537427980449"><ele>1057.0</ele><time>2026-04-23T10:17:20Z</time></trkpt><trkpt lat="45.89445670871104" lon="11.609331523493239"><ele>1057.0</ele><time>2026-04-23T10:17:21Z</time></trkpt><trkpt lat="45.89448616063022" lon="11.60909817467048"><ele>1051.3333333333333</ele><time>2026-04-23T10:17:22Z</time></trkpt><trkpt lat="45.89449887923227" lon="11.608819396698522"><ele>1045.6666666666667</ele><time>2026-04-23T10:17:23Z</time></trkpt><trkpt lat="45.89450141695554" lon="11.608503952121755"><ele>1040.0</ele><time>2026-04-23T10:17:24Z</time></trkpt><trkpt lat="45.89450601113344" lon="11.608220939042495"><ele>1038.6666666666667</ele><time>2026-04-23T10:17:25Z</time></trkpt><trkpt lat="45.894519982000915" lon="11.607967042114765"><ele>1037.3333333333333</ele><time>2026-04-23T10:17:26Z</time></trkpt><trkpt lat="45.89454794288482" lon="11.60773393460618"><ele>1036.0</ele><time>2026-04-23T10:17:27Z</time></trkpt><trkpt lat="45.89459032999418" lon="11.607510441989525"><ele>1036.0</ele><time>2026-04-23T10:17:28Z</time></trkpt><trkpt lat="45.89463369821791" lon="11.607293143154148"><ele>1036.0</ele><time>2026-04-23T10:17:29Z</time></trkpt><trkpt lat="45.894642652622515" lon="11.607070895515413"><ele>1036.0</ele><time>2026-04-23T10:17:30Z</time></trkpt><trkpt lat="45.894626415003145" lon="11.606802414719766"><ele>1036.0</ele><time>2026-04-23T10:17:31Z</time></trkpt><trkpt lat="45.894601910670374" lon="11.606487501170912"><ele>1036.0</ele><time>2026-04-23T10:17:32Z</time></trkpt><trkpt lat="45.894582209183504" lon="11.606203948414478"><ele>1036.0</ele><time>2026-04-23T10:17:33Z</time></trkpt><trkpt lat="45.89458569082947" lon="11.605956014690218"><ele>1036.0</ele><time>2026-04-23T10:17:34Z</time></trkpt><trkpt lat="45.894579203951686" lon="11.605732467110911"><ele>1036.0</ele><time>2026-04-23T10:17:35Z</time></trkpt><trkpt lat="45.894580832074254" lon="11.60552139611308"><ele>1036.0</ele><time>2026-04-23T10:17:36Z</time></trkpt><trkpt lat="45.894623478404725" lon="11.605329411951002"><ele>1036.0</ele><time>2026-04-23T10:17:37Z</time></trkpt><trkpt lat="45.8946815886358" lon="11.605140451143997"><ele>1030.3333333333333</ele><time>2026-04-23T10:17:38Z</time></trkpt><trkpt lat="45.894762063571584" lon="11.604965993011186"><ele>1024.6666666666667</ele><time>2026-04-23T10:17:39Z</time></trkpt><trkpt lat="45.89486935392644" lon="11.604800291419297"><ele>1019.0</ele><time>2026-04-23T10:17:40Z</time></trkpt><trkpt lat="45.89501092545361" lon="11.604624562560403"><ele>1026.6666666666667</ele><time>2026-04-23T10:17:41Z</time></trkpt><trkpt lat="45.89516569515913" lon="11.60444737402909"><ele>1034.3333333333333</ele><time>2026-04-23T10:17:42Z</time></trkpt><trkpt lat="45.895298583251545" lon="11.604288003739041"><ele>1042.0</ele><time>2026-04-23T10:17:43Z</time></trkpt><trkpt lat="45.89541027434384" lon="11.604120265707985"><ele>1042.0</ele><time>2026-04-23T10:17:44Z</time></trkpt><trkpt lat="45.89550915841743" lon="11.603918558653268"><ele>1042.0</ele><time>2026-04-23T10:17:45Z</time></trkpt><trkpt lat="45.895591556890764" lon="11.60366417297823"><ele>1042.0</ele><time>2026-04-23T10:17:46Z</time></trkpt><trkpt lat="45.895694755696766" lon="11.6033748407054"><ele>1026.0</ele><time>2026-04-23T10:17:47Z</time></trkpt><trkpt lat="45.8957964882533" lon="11.60304777082321"><ele>1010.0</ele><time>2026-04-23T10:17:48Z</time></trkpt><trkpt lat="45.89590009229472" lon="11.602714566023074"><ele>1013.0</ele><time>2026-04-23T10:17:49Z</time></trkpt><trkpt lat="45.89598705512697" lon="11.60243522927331"><ele>1016.0</ele><time>2026-04-23T10:17:50Z</time></trkpt><trkpt lat="45.89606188830597" lon="11.602197400252967"><ele>1019.0</ele><time>2026-04-23T10:17:51Z</time></trkpt><trkpt lat="45.89611799776801" lon="11.601976864230142"><ele>1019.0</ele><time>2026-04-23T10:17:52Z</time></trkpt><trkpt lat="45.896176954256035" lon="11.601810013661993"><ele>1019.0</ele><time>2026-04-23T10:17:53Z</time></trkpt><trkpt lat="45.89621756505326" lon="11.601653585545474"><ele>1019.0</ele><time>2026-04-23T10:17:54Z</time></trkpt><trkpt lat="45.89622437496496" lon="11.601493995934957"><ele>1019.0</ele><time>2026-04-23T10:17:55Z</time></trkpt><trkpt lat="45.896196592868755" lon="11.601335905251702"><ele>1019.0</ele><time>2026-04-23T10:17:56Z</time></trkpt><trkpt lat="45.89614704491548" lon="11.601178547739698"><ele>1019.0</ele><time>2026-04-23T10:17:57Z</time></trkpt><trkpt lat="45.8960562271753" lon="11.601053517462226"><ele>1019.0</ele><time>2026-04-23T10:17:58Z</time></trkpt><trkpt lat="45.895925150075584" lon="11.60101332309777"><ele>1019.0</ele><time>2026-04-23T10:17:59Z</time></trkpt><trkpt lat="45.89579212873015" lon="11.600986229879826"><ele>1017.0</ele><time>2026-04-23T10:18:00Z</time></trkpt><trkpt lat="45.89562526653502" lon="11.600938990886917"><ele>1015.0</ele><time>2026-04-23T10:18:01Z</time></trkpt><trkpt lat="45.89547500074268" lon="11.600911390132557"><ele>1013.0</ele><time>2026-04-23T10:18:02Z</time></trkpt><trkpt lat="45.895352077308196" lon="11.600885680056116"><ele>1011.0</ele><time>2026-04-23T10:18:03Z</time></trkpt><trkpt lat="45.89524600627723" lon="11.60085909368921"><ele>1011.0</ele><time>2026-04-23T10:18:04Z</time></trkpt><trkpt lat="45.895159919113915" lon="11.600768251669901"><ele>1010.9999999999999</ele><time>2026-04-23T10:18:05Z</time></trkpt><trkpt lat="45.89510344026964" lon="11.600649269971258"><ele>1010.9999999999999</ele><time>2026-04-23T10:18:06Z</time></trkpt><trkpt lat="45.89507397170501" lon="11.600497156611377"><ele>1011.0</ele><time>2026-04-23T10:18:07Z</time></trkpt><trkpt lat="45.89507950693031" lon="11.600337154102274"><ele>1011.0</ele><time>2026-04-23T10:18:08Z</time></trkpt><trkpt lat="45.89512181836461" lon="11.600152978356649"><ele>1018.3333333333333</ele><time>2026-04-23T10:18:09Z</time></trkpt><trkpt lat="45.8951842346481" lon="11.599915949619268"><ele>1025.6666666666665</ele><time>2026-04-23T10:18:10Z</time></trkpt><trkpt lat="45.895248062938364" lon="11.599645695146506"><ele>1033.0</ele><time>2026-04-23T10:18:11Z</time></trkpt><trkpt lat="45.89530257867569" lon="11.599396253184047"><ele>1033.6666666666665</ele><time>2026-04-23T10:18:12Z</time></trkpt><trkpt lat="45.895358344038165" lon="11.599127946278491"><ele>1034.3333333333333</ele><time>2026-04-23T10:18:13Z</time></trkpt><trkpt lat="45.89540516636271" lon="11.598835413603886"><ele>1035.0</ele><time>2026-04-23T10:18:14Z</time></trkpt><trkpt lat="45.89543611681787" lon="11.598554432822624"><ele>1035.0</ele><time>2026-04-23T10:18:15Z</time></trkpt><trkpt lat="45.895457656990864" lon="11.598280539544362"><ele>1035.0</ele><time>2026-04-23T10:18:16Z</time></trkpt><trkpt lat="45.895470081122845" lon="11.59796422306994"><ele>1035.0</ele><time>2026-04-23T10:18:17Z</time></trkpt><trkpt lat="45.89547000067614" lon="11.597613577479073"><ele>1035.6666666666667</ele><time>2026-04-23T10:18:18Z</time></trkpt><trkpt lat="45.89546743320375" lon="11.597292096744134"><ele>1036.3333333333335</ele><time>2026-04-23T10:18:19Z</time></trkpt><trkpt lat="45.89546697493638" lon="11.5970314173005"><ele>1037.0</ele><time>2026-04-23T10:18:20Z</time></trkpt><trkpt lat="45.89545332591216" lon="11.59680904745839"><ele>1037.0</ele><time>2026-04-23T10:18:21Z</time></trkpt><trkpt lat="45.89543649264186" lon="11.59656982518755"><ele>1037.0</ele><time>2026-04-23T10:18:22Z</time></trkpt><trkpt lat="45.89535887391499" lon="11.596323983662701"><ele>1037.0</ele><time>2026-04-23T10:18:23Z</time></trkpt><trkpt lat="45.89528517738566" lon="11.59603558008793"><ele>1041.3333333333335</ele><time>2026-04-23T10:18:24Z</time></trkpt><trkpt lat="45.89519258260572" lon="11.59574674391066"><ele>1045.6666666666667</ele><time>2026-04-23T10:18:25Z</time></trkpt><trkpt lat="45.89511759859836" lon="11.595500960204175"><ele>1050.0</ele><time>2026-04-23T10:18:26Z</time></trkpt><trkpt lat="45.89505897734158" lon="11.595272829184395"><ele>1038.6666666666667</ele><time>2026-04-23T10:18:27Z</time></trkpt><trkpt lat="45.8950229172169" lon="11.595055093435132"><ele>1027.3333333333335</ele><time>2026-04-23T10:18:28Z</time></trkpt><trkpt lat="45.89499388560297" lon="11.594840314325369"><ele>1016.0</ele><time>2026-04-23T10:18:29Z</time></trkpt><trkpt lat="45.89500782847753" lon="11.594621063689631"><ele>1016.3333333333334</ele><time>2026-04-23T10:18:30Z</time></trkpt><trkpt lat="45.895038787102365" lon="11.59440036084884"><ele>1016.6666666666667</ele><time>2026-04-23T10:18:31Z</time></trkpt><trkpt lat="45.89506624610381" lon="11.594186572306056"><ele>1017.0</ele><time>2026-04-23T10:18:32Z</time></trkpt><trkpt lat="45.89507363435072" lon="11.593969559795966"><ele>1017.0</ele><time>2026-04-23T10:18:33Z</time></trkpt><trkpt lat="45.89507535299304" lon="11.5937487125775"><ele>1017.0</ele><time>2026-04-23T10:18:34Z</time></trkpt><trkpt lat="45.895025422306006" lon="11.593531134397596"><ele>1017.0</ele><time>2026-04-23T10:18:35Z</time></trkpt><trkpt lat="45.894960207132776" lon="11.593324990660289"><ele>1019.0</ele><time>2026-04-23T10:18:36Z</time></trkpt><trkpt lat="45.89489071231111" lon="11.59311222000022"><ele>1021.0</ele><time>2026-04-23T10:18:37Z</time></trkpt><trkpt lat="45.89482226622374" lon="11.592896453450392"><ele>1023.0</ele><time>2026-04-23T10:18:38Z</time></trkpt><trkpt lat="45.894770735369995" lon="11.592696150880684"><ele>1025.5</ele><time>2026-04-23T10:18:39Z</time></trkpt><trkpt lat="45.894739219005125" lon="11.592506186345593"><ele>1028.0</ele><time>2026-04-23T10:18:40Z</time></trkpt><trkpt lat="45.89471791546459" lon="11.59231033136158"><ele>1030.5</ele><time>2026-04-23T10:18:41Z</time></trkpt><trkpt lat="45.89468888630052" lon="11.592105539341501"><ele>1033.0</ele><time>2026-04-23T10:18:42Z</time></trkpt><trkpt lat="45.89469804876072" lon="11.591890683315498"><ele>1033.6666666666665</ele><time>2026-04-23T10:18:43Z</time></trkpt><trkpt lat="45.89469524405413" lon="11.59166202371788"><ele>1034.3333333333333</ele><time>2026-04-23T10:18:44Z</time></trkpt><trkpt lat="45.89469279950182" lon="11.591420692849379"><ele>1035.0</ele><time>2026-04-23T10:18:45Z</time></trkpt><trkpt lat="45.8946762883717" lon="11.59114742066557"><ele>1036.3333333333333</ele><time>2026-04-23T10:18:46Z</time></trkpt><trkpt lat="45.89468881820625" lon="11.590853598732414"><ele>1037.6666666666665</ele><time>2026-04-23T10:18:47Z</time></trkpt><trkpt lat="45.89468694277396" lon="11.590590280363916"><ele>1039.0</ele><time>2026-04-23T10:18:48Z</time></trkpt><trkpt lat="45.89468498168691" lon="11.590314945700152"><ele>1039.3333333333333</ele><time>2026-04-23T10:18:49Z</time></trkpt><trkpt lat="45.89468276662774" lon="11.5900039539637"><ele>1039.6666666666667</ele><time>2026-04-23T10:18:50Z</time></trkpt><trkpt lat="45.89466470370873" lon="11.589677291853352"><ele>1040.0</ele><time>2026-04-23T10:18:51Z</time></trkpt><trkpt lat="45.89469890505327" lon="11.589394839448346"><ele>1039.3333333333335</ele><time>2026-04-23T10:18:52Z</time></trkpt><trkpt lat="45.89473086571623" lon="11.589141559915882"><ele>1038.6666666666667</ele><time>2026-04-23T10:18:53Z</time></trkpt><trkpt lat="45.89473338435875" lon="11.588896878021286"><ele>1038.0</ele><time>2026-04-23T10:18:54Z</time></trkpt><trkpt lat="45.894726074987794" lon="11.588668556046146"><ele>1037.3333333333333</ele><time>2026-04-23T10:18:55Z</time></trkpt><trkpt lat="45.89471109180392" lon="11.588412446193919"><ele>1036.6666666666665</ele><time>2026-04-23T10:18:56Z</time></trkpt><trkpt lat="45.894672494035916" lon="11.588169169726038"><ele>1036.0</ele><time>2026-04-23T10:18:57Z</time></trkpt><trkpt lat="45.8946363562426" lon="11.587957856962108"><ele>1038.0</ele><time>2026-04-23T10:18:58Z</time></trkpt><trkpt lat="45.8945864337972" lon="11.587765111451967"><ele>1040.0</ele><time>2026-04-23T10:18:59Z</time></trkpt><trkpt lat="45.894508943248745" lon="11.587619704816346"><ele>1042.0</ele><time>2026-04-23T10:19:00Z</time></trkpt><trkpt lat="45.89444059595037" lon="11.58748152138381"><ele>1044.0</ele><time>2026-04-23T10:19:01Z</time></trkpt><trkpt lat="45.89438408002382" lon="11.587344723968734"><ele>1044.0</ele><time>2026-04-23T10:19:02Z</time></trkpt><trkpt lat="45.894301568919055" lon="11.587200830268936"><ele>1044.0</ele><time>2026-04-23T10:19:03Z</time></trkpt><trkpt lat="45.89420529112111" lon="11.587054634563815"><ele>1044.0</ele><time>2026-04-23T10:19:04Z</time></trkpt><trkpt lat="45.8941423222091" lon="11.586865266742565"><ele>1044.0</ele><time>2026-04-23T10:19:05Z</time></trkpt><trkpt lat="45.89405502741883" lon="11.586680830337455"><ele>1045.0</ele><time>2026-04-23T10:19:06Z</time></trkpt><trkpt lat="45.89399401237981" lon="11.58646281717427"><ele>1046.0</ele><time>2026-04-23T10:19:07Z</time></trkpt><trkpt lat="45.89394214419933" lon="11.586226875924261"><ele>1047.0</ele><time>2026-04-23T10:19:08Z</time></trkpt><trkpt lat="45.89391890139925" lon="11.585971056121439"><ele>1047.0</ele><time>2026-04-23T10:19:09Z</time></trkpt><trkpt lat="45.893880953260286" lon="11.58570751286979"><ele>1047.0</ele><time>2026-04-23T10:19:10Z</time></trkpt><trkpt lat="45.89384034514456" lon="11.585433063593308"><ele>1047.0</ele><time>2026-04-23T10:19:11Z</time></trkpt><trkpt lat="45.89379906637137" lon="11.585152315936195"><ele>1051.0</ele><time>2026-04-23T10:19:12Z</time></trkpt><trkpt lat="45.89375839561635" lon="11.584867366694835"><ele>1055.0</ele><time>2026-04-23T10:19:13Z</time></trkpt><trkpt lat="45.89372331476539" lon="11.584621581852597"><ele>1059.0</ele><time>2026-04-23T10:19:14Z</time></trkpt><trkpt lat="45.89369423240996" lon="11.5844233021237"><ele>1061.0</ele><time>2026-04-23T10:19:15Z</time></trkpt><trkpt lat="45.89365275768861" lon="11.584260812239176"><ele>1063.0</ele><time>2026-04-23T10:19:16Z</time></trkpt><trkpt lat="45.89361343836585" lon="11.584116322316918"><ele>1065.0</ele><time>2026-04-23T10:19:17Z</time></trkpt><trkpt lat="45.8935729789609" lon="11.583980040392811"><ele>1067.0</ele><time>2026-04-23T10:19:18Z</time></trkpt><trkpt lat="45.89347457356729" lon="11.583894024769423"><ele>1069.0</ele><time>2026-04-23T10:19:19Z</time></trkpt><trkpt lat="45.89337526374025" lon="11.583826878691339"><ele>1063.0</ele><time>2026-04-23T10:19:20Z</time></trkpt><trkpt lat="45.893257156944266" lon="11.583781022908978"><ele>1057.0</ele><time>2026-04-23T10:19:21Z</time></trkpt><trkpt lat="45.893133142335294" lon="11.583748863594542"><ele>1051.0</ele><time>2026-04-23T10:19:22Z</time></trkpt><trkpt lat="45.89303199569338" lon="11.583701745065428"><ele>1045.0</ele><time>2026-04-23T10:19:23Z</time></trkpt><trkpt lat="45.892938527245676" lon="11.583669838533277"><ele>1045.0</ele><time>2026-04-23T10:19:24Z</time></trkpt><trkpt lat="45.89283979508647" lon="11.583633248517444"><ele>1045.0</ele><time>2026-04-23T10:19:25Z</time></trkpt><trkpt lat="45.89275705050489" lon="11.58354089262608"><ele>1045.0</ele><time>2026-04-23T10:19:26Z</time></trkpt><trkpt lat="45.892696397647434" lon="11.58341272812848"><ele>1045.0</ele><time>2026-04-23T10:19:27Z</time></trkpt><trkpt lat="45.89263969335633" lon="11.583268284415368"><ele>1045.0</ele><time>2026-04-23T10:19:28Z</time></trkpt><trkpt lat="45.89258436237952" lon="11.583096128115606"><ele>1044.0</ele><time>2026-04-23T10:19:29Z</time></trkpt><trkpt lat="45.89252245671828" lon="11.582901477407383"><ele>1043.0</ele><time>2026-04-23T10:19:30Z</time></trkpt><trkpt lat="45.892452760506565" lon="11.582672745596774"><ele>1042.0</ele><time>2026-04-23T10:19:31Z</time></trkpt><trkpt lat="45.892379489590006" lon="11.5824139852046"><ele>1042.0</ele><time>2026-04-23T10:19:32Z</time></trkpt><trkpt lat="45.892305070021955" lon="11.582192397572763"><ele>1042.0</ele><time>2026-04-23T10:19:33Z</time></trkpt><trkpt lat="45.89223813942629" lon="11.5819762108261"><ele>1042.0</ele><time>2026-04-23T10:19:34Z</time></trkpt><trkpt lat="45.89216254341345" lon="11.581751820345499"><ele>1046.3333333333333</ele><time>2026-04-23T10:19:35Z</time></trkpt><trkpt lat="45.892082332846314" lon="11.581504783606505"><ele>1050.6666666666667</ele><time>2026-04-23T10:19:36Z</time></trkpt><trkpt lat="45.89200670108717" lon="11.581252614162262"><ele>1055.0</ele><time>2026-04-23T10:19:37Z</time></trkpt><trkpt lat="45.891931744768385" lon="11.581015630422684"><ele>1057.5</ele><time>2026-04-23T10:19:38Z</time></trkpt><trkpt lat="45.89185436954011" lon="11.580808751005215"><ele>1060.0</ele><time>2026-04-23T10:19:39Z</time></trkpt><trkpt lat="45.89176740935096" lon="11.580632161539404"><ele>1062.5</ele><time>2026-04-23T10:19:40Z</time></trkpt><trkpt lat="45.89168969284015" lon="11.580483112409361"><ele>1065.0</ele><time>2026-04-23T10:19:41Z</time></trkpt><trkpt lat="45.89162711703134" lon="11.580354570773206"><ele>1060.4</ele><time>2026-04-23T10:19:42Z</time></trkpt><trkpt lat="45.891576774253835" lon="11.580235973355702"><ele>1055.8</ele><time>2026-04-23T10:19:43Z</time></trkpt><trkpt lat="45.89154847673521" lon="11.580113234105761"><ele>1051.2</ele><time>2026-04-23T10:19:44Z</time></trkpt><trkpt lat="45.891549265018924" lon="11.579988803630531"><ele>1046.6</ele><time>2026-04-23T10:19:45Z</time></trkpt><trkpt lat="45.89157314908216" lon="11.579862242686632"><ele>1042.0</ele><time>2026-04-23T10:19:46Z</time></trkpt><trkpt lat="45.891617524985385" lon="11.579736151103113"><ele>1042.0</ele><time>2026-04-23T10:19:47Z</time></trkpt><trkpt lat="45.891682718225404" lon="11.579607950846077"><ele>1042.0</ele><time>2026-04-23T10:19:48Z</time></trkpt><trkpt lat="45.89176149933567" lon="11.579461830827581"><ele>1042.0</ele><time>2026-04-23T10:19:49Z</time></trkpt><trkpt lat="45.891830902019535" lon="11.57929206120427"><ele>1042.0</ele><time>2026-04-23T10:19:50Z</time></trkpt><trkpt lat="45.89186929804881" lon="11.579082758045354"><ele>1047.0</ele><time>2026-04-23T10:19:51Z</time></trkpt><trkpt lat="45.89189764551728" lon="11.57887685536949"><ele>1052.0</ele><time>2026-04-23T10:19:52Z</time></trkpt><trkpt lat="45.89192403336647" lon="11.578702373602693"><ele>1057.0</ele><time>2026-04-23T10:19:53Z</time></trkpt><trkpt lat="45.89196349756362" lon="11.57857304516601"><ele>1062.0</ele><time>2026-04-23T10:19:54Z</time></trkpt><trkpt lat="45.89201910463987" lon="11.578472615394556"><ele>1062.0</ele><time>2026-04-23T10:19:55Z</time></trkpt><trkpt lat="45.89208870440434" lon="11.57840397229403"><ele>1062.0</ele><time>2026-04-23T10:19:56Z</time></trkpt><trkpt lat="45.892175990300785" lon="11.578363710541808"><ele>1062.0</ele><time>2026-04-23T10:19:57Z</time></trkpt><trkpt lat="45.89227837184934" lon="11.578335381674933"><ele>1062.0</ele><time>2026-04-23T10:19:58Z</time></trkpt><trkpt lat="45.892393830949665" lon="11.578298814571273"><ele>1062.0</ele><time>2026-04-23T10:19:59Z</time></trkpt><trkpt lat="45.89249908893325" lon="11.578265983397754"><ele>1062.0</ele><time>2026-04-23T10:20:00Z</time></trkpt><trkpt lat="45.892581332606795" lon="11.578201229715097"><ele>1062.0</ele><time>2026-04-23T10:20:01Z</time></trkpt><trkpt lat="45.89264071016135" lon="11.578085940263302"><ele>1062.0</ele><time>2026-04-23T10:20:02Z</time></trkpt><trkpt lat="45.8926678173768" lon="11.577930910301655"><ele>1062.0</ele><time>2026-04-23T10:20:03Z</time></trkpt><trkpt lat="45.89266494909553" lon="11.577769868951917"><ele>1062.0</ele><time>2026-04-23T10:20:04Z</time></trkpt><trkpt lat="45.89264223610743" lon="11.577596051585724"><ele>1059.5</ele><time>2026-04-23T10:20:05Z</time></trkpt><trkpt lat="45.89261913628145" lon="11.577414344726272"><ele>1057.0</ele><time>2026-04-23T10:20:06Z</time></trkpt><trkpt lat="45.8926062115302" lon="11.577256373462797"><ele>1054.5</ele><time>2026-04-23T10:20:07Z</time></trkpt><trkpt lat="45.89259732427762" lon="11.577099214291172"><ele>1052.0</ele><time>2026-04-23T10:20:08Z</time></trkpt><trkpt lat="45.89255976669898" lon="11.57693860139455"><ele>1052.0</ele><time>2026-04-23T10:20:09Z</time></trkpt><trkpt lat="45.89249184442026" lon="11.576791126241522"><ele>1052.0</ele><time>2026-04-23T10:20:10Z</time></trkpt><trkpt lat="45.892405781662994" lon="11.576652969751892"><ele>1052.0</ele><time>2026-04-23T10:20:11Z</time></trkpt><trkpt lat="45.89232858259388" lon="11.576501337757835"><ele>1052.0</ele><time>2026-04-23T10:20:12Z</time></trkpt><trkpt lat="45.892240084106646" lon="11.5763774911457"><ele>1052.0</ele><time>2026-04-23T10:20:13Z</time></trkpt><trkpt lat="45.8921945112008" lon="11.576231889963385"><ele>1052.0</ele><time>2026-04-23T10:20:14Z</time></trkpt><trkpt lat="45.89217467061924" lon="11.576080479637609"><ele>1052.0</ele><time>2026-04-23T10:20:15Z</time></trkpt><trkpt lat="45.89217594925443" lon="11.575913570630147"><ele>1052.0</ele><time>2026-04-23T10:20:16Z</time></trkpt><trkpt lat="45.89220454680873" lon="11.575743981845394"><ele>1053.5</ele><time>2026-04-23T10:20:17Z</time></trkpt><trkpt lat="45.892254627535785" lon="11.575579674800261"><ele>1055.0</ele><time>2026-04-23T10:20:18Z</time></trkpt><trkpt lat="45.89230173775793" lon="11.575409809470317"><ele>1056.5</ele><time>2026-04-23T10:20:19Z</time></trkpt><trkpt lat="45.89233796886218" lon="11.575224731801836"><ele>1058.0</ele><time>2026-04-23T10:20:20Z</time></trkpt><trkpt lat="45.89235613785337" lon="11.575033969498799"><ele>1058.0</ele><time>2026-04-23T10:20:21Z</time></trkpt><trkpt lat="45.8923526926975" lon="11.574845634446946"><ele>1058.0</ele><time>2026-04-23T10:20:22Z</time></trkpt><trkpt lat="45.892321278369785" lon="11.57466143321846"><ele>1058.0</ele><time>2026-04-23T10:20:23Z</time></trkpt><trkpt lat="45.89226695046594" lon="11.574484943478994"><ele>1058.0</ele><time>2026-04-23T10:20:24Z</time></trkpt><trkpt lat="45.892203148738574" lon="11.574320291507918"><ele>1058.25</ele><time>2026-04-23T10:20:25Z</time></trkpt><trkpt lat="45.892146001587015" lon="11.57417509610788"><ele>1058.5</ele><time>2026-04-23T10:20:26Z</time></trkpt><trkpt lat="45.89209754702609" lon="11.574035357518122"><ele>1058.75</ele><time>2026-04-23T10:20:27Z</time></trkpt><trkpt lat="45.8920658392859" lon="11.573875790363097"><ele>1059.0</ele><time>2026-04-23T10:20:28Z</time></trkpt><trkpt lat="45.892059915843994" lon="11.573706516828988"><ele>1058.75</ele><time>2026-04-23T10:20:29Z</time></trkpt><trkpt lat="45.892085655808195" lon="11.573546054514907"><ele>1058.5</ele><time>2026-04-23T10:20:30Z</time></trkpt><trkpt lat="45.89213414012349" lon="11.57339027997819"><ele>1058.25</ele><time>2026-04-23T10:20:31Z</time></trkpt><trkpt lat="45.89218075860157" lon="11.573220592354708"><ele>1058.0</ele><time>2026-04-23T10:20:32Z</time></trkpt><trkpt lat="45.89222487228402" lon="11.573042061428175"><ele>1058.0</ele><time>2026-04-23T10:20:33Z</time></trkpt><trkpt lat="45.892285174964925" lon="11.572860111987175"><ele>1058.0</ele><time>2026-04-23T10:20:34Z</time></trkpt><trkpt lat="45.89236836284635" lon="11.572690865611856"><ele>1058.0</ele><time>2026-04-23T10:20:35Z</time></trkpt><trkpt lat="45.89247186911641" lon="11.572544843703882"><ele>1058.0</ele><time>2026-04-23T10:20:36Z</time></trkpt><trkpt lat="45.89256235675685" lon="11.572403252644758"><ele>1063.75</ele><time>2026-04-23T10:20:37Z</time></trkpt><trkpt lat="45.89262721946867" lon="11.572257785535744"><ele>1069.5</ele><time>2026-04-23T10:20:38Z</time></trkpt><trkpt lat="45.892666738279544" lon="11.57210190016975"><ele>1075.25</ele><time>2026-04-23T10:20:39Z</time></trkpt><trkpt lat="45.89267489353741" lon="11.57194068459131"><ele>1081.0</ele><time>2026-04-23T10:20:40Z</time></trkpt><trkpt lat="45.89266529827375" lon="11.57176571550176"><ele>1081.0</ele><time>2026-04-23T10:20:41Z</time></trkpt><trkpt lat="45.89263589187837" lon="11.571569635884805"><ele>1081.0</ele><time>2026-04-23T10:20:42Z</time></trkpt><trkpt lat="45.892589237188" lon="11.57135971004972"><ele>1081.0</ele><time>2026-04-23T10:20:43Z</time></trkpt><trkpt lat="45.892542178817294" lon="11.57114069447778"><ele>1071.75</ele><time>2026-04-23T10:20:44Z</time></trkpt><trkpt lat="45.892513183681466" lon="11.5709403190752"><ele>1062.5</ele><time>2026-04-23T10:20:45Z</time></trkpt><trkpt lat="45.8925035654188" lon="11.570748074712046"><ele>1053.25</ele><time>2026-04-23T10:20:46Z</time></trkpt><trkpt lat="45.89250908279367" lon="11.570549763474467"><ele>1044.0</ele><time>2026-04-23T10:20:47Z</time></trkpt><trkpt lat="45.89253440925784" lon="11.570352328815323"><ele>1043.6666666666667</ele><time>2026-04-23T10:20:48Z</time></trkpt><trkpt lat="45.89257822390114" lon="11.570148513887672"><ele>1043.3333333333335</ele><time>2026-04-23T10:20:49Z</time></trkpt><trkpt lat="45.892634517737434" lon="11.569940224641085"><ele>1043.0</ele><time>2026-04-23T10:20:50Z</time></trkpt><trkpt lat="45.892687921946255" lon="11.569716955664914"><ele>1048.6666666666667</ele><time>2026-04-23T10:20:51Z</time></trkpt><trkpt lat="45.89274628587788" lon="11.569480531804379"><ele>1054.3333333333333</ele><time>2026-04-23T10:20:52Z</time></trkpt><trkpt lat="45.892827101304455" lon="11.569255763224584"><ele>1060.0</ele><time>2026-04-23T10:20:53Z</time></trkpt><trkpt lat="45.892914476605206" lon="11.569038683690431"><ele>1060.0</ele><time>2026-04-23T10:20:54Z</time></trkpt><trkpt lat="45.89300253568893" lon="11.568846847932004"><ele>1060.0</ele><time>2026-04-23T10:20:55Z</time></trkpt><trkpt lat="45.89309110432515" lon="11.568655195864734"><ele>1060.0</ele><time>2026-04-23T10:20:56Z</time></trkpt><trkpt lat="45.89318009383603" lon="11.568454128292165"><ele>1056.0</ele><time>2026-04-23T10:20:57Z</time></trkpt><trkpt lat="45.893260649052976" lon="11.568241128984537"><ele>1052.0</ele><time>2026-04-23T10:20:58Z</time></trkpt><trkpt lat="45.89333224094319" lon="11.568024660565449"><ele>1048.0</ele><time>2026-04-23T10:20:59Z</time></trkpt><trkpt lat="45.893396548898984" lon="11.567835826634925"><ele>1053.75</ele><time>2026-04-23T10:21:00Z</time></trkpt><trkpt lat="45.89346223054498" lon="11.567678217740724"><ele>1059.5</ele><time>2026-04-23T10:21:01Z</time></trkpt><trkpt lat="45.89353786865026" lon="11.567547450191386"><ele>1065.25</ele><time>2026-04-23T10:21:02Z</time></trkpt><trkpt lat="45.89362450718533" lon="11.56744407513771"><ele>1071.0</ele><time>2026-04-23T10:21:03Z</time></trkpt><trkpt lat="45.89372644688746" lon="11.567374201482746"><ele>1071.0</ele><time>2026-04-23T10:21:04Z</time></trkpt><trkpt lat="45.893839239005835" lon="11.567320036254868"><ele>1071.0</ele><time>2026-04-23T10:21:05Z</time></trkpt><trkpt lat="45.8939639928419" lon="11.56728227584345"><ele>1071.0</ele><time>2026-04-23T10:21:06Z</time></trkpt><trkpt lat="45.89409924831298" lon="11.567269298604392"><ele>1071.0</ele><time>2026-04-23T10:21:07Z</time></trkpt><trkpt lat="45.89424132240586" lon="11.567262758089525"><ele>1070.0</ele><time>2026-04-23T10:21:08Z</time></trkpt><trkpt lat="45.89436660084046" lon="11.567257356571545"><ele>1069.0</ele><time>2026-04-23T10:21:09Z</time></trkpt><trkpt lat="45.89448122276864" lon="11.567274759542078"><ele>1068.0</ele><time>2026-04-23T10:21:10Z</time></trkpt><trkpt lat="45.89457474376725" lon="11.567340505978063"><ele>1067.0</ele><time>2026-04-23T10:21:11Z</time></trkpt><trkpt lat="45.89468843096881" lon="11.567437332664035"><ele>1067.0</ele><time>2026-04-23T10:21:12Z</time></trkpt><trkpt lat="45.89481740465684" lon="11.56753126651462"><ele>1067.0</ele><time>2026-04-23T10:21:13Z</time></trkpt><trkpt lat="45.89495773816604" lon="11.567630706048956"><ele>1067.0</ele><time>2026-04-23T10:21:14Z</time></trkpt><trkpt lat="45.89508716743233" lon="11.567712321997988"><ele>1067.0</ele><time>2026-04-23T10:21:15Z</time></trkpt><trkpt lat="45.895206750035605" lon="11.567767229347654"><ele>1066.0</ele><time>2026-04-23T10:21:16Z</time></trkpt><trkpt lat="45.89532605316409" lon="11.567769942367704"><ele>1065.0</ele><time>2026-04-23T10:21:17Z</time></trkpt><trkpt lat="45.8954550414488" lon="11.567737305620803"><ele>1064.0</ele><time>2026-04-23T10:21:18Z</time></trkpt><trkpt lat="45.895590406605535" lon="11.567673033050687"><ele>1063.0</ele><time>2026-04-23T10:21:19Z</time></trkpt><trkpt lat="45.895741696331704" lon="11.567589513188269"><ele>1063.0</ele><time>2026-04-23T10:21:20Z</time></trkpt><trkpt lat="45.89587882685882" lon="11.567505924986168"><ele>1063.0</ele><time>2026-04-23T10:21:21Z</time></trkpt><trkpt lat="45.89600644353858" lon="11.567439067013114"><ele>1063.0</ele><time>2026-04-23T10:21:22Z</time></trkpt><trkpt lat="45.89613011776906" lon="11.567388320639855"><ele>1063.0</ele><time>2026-04-23T10:21:23Z</time></trkpt><trkpt lat="45.896253960352745" lon="11.567365858039421"><ele>1064.75</ele><time>2026-04-23T10:21:24Z</time></trkpt><trkpt lat="45.89638638150337" lon="11.56738553834792"><ele>1066.5</ele><time>2026-04-23T10:21:25Z</time></trkpt><trkpt lat="45.89652673672814" lon="11.56743909854682"><ele>1068.25</ele><time>2026-04-23T10:21:26Z</time></trkpt><trkpt lat="45.89667586625567" lon="11.567483746155938"><ele>1070.0</ele><time>2026-04-23T10:21:27Z</time></trkpt><trkpt lat="45.89682181181222" lon="11.567485404677317"><ele>1073.5</ele><time>2026-04-23T10:21:28Z</time></trkpt><trkpt lat="45.896958083835024" lon="11.567439418375317"><ele>1077.0</ele><time>2026-04-23T10:21:29Z</time></trkpt><trkpt lat="45.897098373050206" lon="11.56738029997885"><ele>1080.5</ele><time>2026-04-23T10:21:30Z</time></trkpt><trkpt lat="45.8972584902922" lon="11.567337701428578"><ele>1084.0</ele><time>2026-04-23T10:21:31Z</time></trkpt><trkpt lat="45.89739730312348" lon="11.567300205217872"><ele>1084.0</ele><time>2026-04-23T10:21:32Z</time></trkpt><trkpt lat="45.897497554462525" lon="11.56726916861785"><ele>1084.0</ele><time>2026-04-23T10:21:33Z</time></trkpt><trkpt lat="45.89758233952499" lon="11.567227323866522"><ele>1084.0</ele><time>2026-04-23T10:21:34Z</time></trkpt><trkpt lat="45.89764846837152" lon="11.56715605598326"><ele>1084.0</ele><time>2026-04-23T10:21:35Z</time></trkpt><trkpt lat="45.897694459259625" lon="11.56707248826806"><ele>1084.0</ele><time>2026-04-23T10:21:36Z</time></trkpt><trkpt lat="45.89770958490492" lon="11.566945941501745"><ele>1084.0</ele><time>2026-04-23T10:21:37Z</time></trkpt><trkpt lat="45.89767817135973" lon="11.566810606712945"><ele>1086.6000000000001</ele><time>2026-04-23T10:21:38Z</time></trkpt><trkpt lat="45.897603527978625" lon="11.566713319513017"><ele>1089.2</ele><time>2026-04-23T10:21:39Z</time></trkpt><trkpt lat="45.89752303051528" lon="11.56662274628384"><ele>1091.8000000000002</ele><time>2026-04-23T10:21:40Z</time></trkpt><trkpt lat="45.89744432314386" lon="11.566511006149488"><ele>1094.4</ele><time>2026-04-23T10:21:41Z</time></trkpt><trkpt lat="45.89736816911118" lon="11.566402024177862"><ele>1097.0</ele><time>2026-04-23T10:21:42Z</time></trkpt><trkpt lat="45.897306003646335" lon="11.566278780579509"><ele>1090.0</ele><time>2026-04-23T10:21:43Z</time></trkpt><trkpt lat="45.89731608922581" lon="11.566149096523764"><ele>1083.0</ele><time>2026-04-23T10:21:44Z</time></trkpt><trkpt lat="45.89732303326937" lon="11.566039940992265"><ele>1076.0</ele><time>2026-04-23T10:21:45Z</time></trkpt><trkpt lat="45.89737744333114" lon="11.565934092077608"><ele>1069.0</ele><time>2026-04-23T10:21:46Z</time></trkpt><trkpt lat="45.89745989425594" lon="11.565854415674679"><ele>1062.0</ele><time>2026-04-23T10:21:47Z</time></trkpt><trkpt lat="45.897572841318194" lon="11.56576184453896"><ele>1068.5</ele><time>2026-04-23T10:21:48Z</time></trkpt><trkpt lat="45.89769916760164" lon="11.565654570736227"><ele>1075.0</ele><time>2026-04-23T10:21:49Z</time></trkpt><trkpt lat="45.89780316138432" lon="11.565568753307893"><ele>1081.5</ele><time>2026-04-23T10:21:50Z</time></trkpt><trkpt lat="45.897923055588706" lon="11.565518452552887"><ele>1088.0</ele><time>2026-04-23T10:21:51Z</time></trkpt><trkpt lat="45.89805217855042" lon="11.5654979439234"><ele>1088.0</ele><time>2026-04-23T10:21:52Z</time></trkpt><trkpt lat="45.89818641991133" lon="11.565487977117407"><ele>1088.0</ele><time>2026-04-23T10:21:53Z</time></trkpt><trkpt lat="45.89832661281647" lon="11.565465250383987"><ele>1088.0</ele><time>2026-04-23T10:21:54Z</time></trkpt><trkpt lat="45.89847053781442" lon="11.565399508159423"><ele>1088.0</ele><time>2026-04-23T10:21:55Z</time></trkpt><trkpt lat="45.898630747344825" lon="11.565315769046085"><ele>1088.0</ele><time>2026-04-23T10:21:56Z</time></trkpt><trkpt lat="45.89876731731131" lon="11.565239406590248"><ele>1088.0</ele><time>2026-04-23T10:21:57Z</time></trkpt><trkpt lat="45.898884272304436" lon="11.565168985073099"><ele>1088.0</ele><time>2026-04-23T10:21:58Z</time></trkpt><trkpt lat="45.89896910402154" lon="11.56508303457507"><ele>1088.0</ele><time>2026-04-23T10:21:59Z</time></trkpt><trkpt lat="45.899029028926414" lon="11.564975753855752"><ele>1088.0</ele><time>2026-04-23T10:22:00Z</time></trkpt><trkpt lat="45.89908185610472" lon="11.564853099253835"><ele>1088.0</ele><time>2026-04-23T10:22:01Z</time></trkpt><trkpt lat="45.89909753917949" lon="11.564695273354245"><ele>1088.0</ele><time>2026-04-23T10:22:02Z</time></trkpt><trkpt lat="45.89908618118598" lon="11.56453618232247"><ele>1088.0</ele><time>2026-04-23T10:22:03Z</time></trkpt><trkpt lat="45.89902382988902" lon="11.564383421767007"><ele>1088.0</ele><time>2026-04-23T10:22:04Z</time></trkpt><trkpt lat="45.898954027904935" lon="11.564248358874755"><ele>1089.0</ele><time>2026-04-23T10:22:05Z</time></trkpt><trkpt lat="45.89888271603814" lon="11.564104479173734"><ele>1090.0</ele><time>2026-04-23T10:22:06Z</time></trkpt><trkpt lat="45.89877225592845" lon="11.563949240680527"><ele>1091.0</ele><time>2026-04-23T10:22:07Z</time></trkpt><trkpt lat="45.89867858504976" lon="11.563757738813711"><ele>1092.0</ele><time>2026-04-23T10:22:08Z</time></trkpt><trkpt lat="45.89860578613414" lon="11.563586974129908"><ele>1096.6666666666667</ele><time>2026-04-23T10:22:09Z</time></trkpt><trkpt lat="45.89854101808969" lon="11.563384520235791"><ele>1101.3333333333335</ele><time>2026-04-23T10:22:10Z</time></trkpt><trkpt lat="45.898437882365776" lon="11.5631980196901"><ele>1106.0</ele><time>2026-04-23T10:22:11Z</time></trkpt><trkpt lat="45.89832383329297" lon="11.563028412917047"><ele>1103.6666666666667</ele><time>2026-04-23T10:22:12Z</time></trkpt><trkpt lat="45.89817516393187" lon="11.562861417405255"><ele>1101.3333333333333</ele><time>2026-04-23T10:22:13Z</time></trkpt><trkpt lat="45.89802173693546" lon="11.562697272575488"><ele>1099.0</ele><time>2026-04-23T10:22:14Z</time></trkpt><trkpt lat="45.897884842730946" lon="11.562556990423413"><ele>1099.0</ele><time>2026-04-23T10:22:15Z</time></trkpt><trkpt lat="45.897740552603594" lon="11.562428497631617"><ele>1099.0</ele><time>2026-04-23T10:22:16Z</time></trkpt><trkpt lat="45.897598974636296" lon="11.56232614662323"><ele>1099.0</ele><time>2026-04-23T10:22:17Z</time></trkpt><trkpt lat="45.8975019381473" lon="11.562225756534774"><ele>1099.0</ele><time>2026-04-23T10:22:18Z</time></trkpt><trkpt lat="45.89741182991628" lon="11.562129670251704"><ele>1098.75</ele><time>2026-04-23T10:22:19Z</time></trkpt><trkpt lat="45.89733278842966" lon="11.562027351017205"><ele>1098.5</ele><time>2026-04-23T10:22:20Z</time></trkpt><trkpt lat="45.89725684072066" lon="11.561904977215173"><ele>1098.25</ele><time>2026-04-23T10:22:21Z</time></trkpt><trkpt lat="45.897171237195984" lon="11.561753721128811"><ele>1098.0</ele><time>2026-04-23T10:22:22Z</time></trkpt><trkpt lat="45.89707151055516" lon="11.561596433592042"><ele>1098.0</ele><time>2026-04-23T10:22:23Z</time></trkpt><trkpt lat="45.89697854477127" lon="11.561436416922723"><ele>1098.0</ele><time>2026-04-23T10:22:24Z</time></trkpt><trkpt lat="45.8968979437033" lon="11.56131004135426"><ele>1098.0</ele><time>2026-04-23T10:22:25Z</time></trkpt><trkpt lat="45.8968109085019" lon="11.561231573954522"><ele>1098.0</ele><time>2026-04-23T10:22:26Z</time></trkpt><trkpt lat="45.89671104231935" lon="11.561197095871933"><ele>1093.5</ele><time>2026-04-23T10:22:27Z</time></trkpt><trkpt lat="45.896599379812024" lon="11.561206913173631"><ele>1089.0</ele><time>2026-04-23T10:22:28Z</time></trkpt><trkpt lat="45.89648952784897" lon="11.561275424517738"><ele>1084.5</ele><time>2026-04-23T10:22:29Z</time></trkpt><trkpt lat="45.896385575497625" lon="11.56139460991214"><ele>1080.0</ele><time>2026-04-23T10:22:30Z</time></trkpt><trkpt lat="45.896269828032544" lon="11.561558962379495"><ele>1080.0</ele><time>2026-04-23T10:22:31Z</time></trkpt><trkpt lat="45.8961612920783" lon="11.56175359652466"><ele>1080.0</ele><time>2026-04-23T10:22:32Z</time></trkpt><trkpt lat="45.896079977441275" lon="11.561920447831612"><ele>1080.0</ele><time>2026-04-23T10:22:33Z</time></trkpt><trkpt lat="45.89600373811929" lon="11.562047097433158"><ele>1080.0</ele><time>2026-04-23T10:22:34Z</time></trkpt><trkpt lat="45.89591854244214" lon="11.562140980445996"><ele>1079.25</ele><time>2026-04-23T10:22:35Z</time></trkpt><trkpt lat="45.895827706642685" lon="11.5621914869558"><ele>1078.5</ele><time>2026-04-23T10:22:36Z</time></trkpt><trkpt lat="45.895708392336005" lon="11.562211348621899"><ele>1077.75</ele><time>2026-04-23T10:22:37Z</time></trkpt><trkpt lat="45.89556098272084" lon="11.562211082027714"><ele>1077.0</ele><time>2026-04-23T10:22:38Z</time></trkpt><trkpt lat="45.89538367973931" lon="11.562195415831884"><ele>1077.0</ele><time>2026-04-23T10:22:39Z</time></trkpt><trkpt lat="45.895206889182404" lon="11.56219003265314"><ele>1077.0</ele><time>2026-04-23T10:22:40Z</time></trkpt><trkpt lat="45.895056908873585" lon="11.562175735305628"><ele>1077.0</ele><time>2026-04-23T10:22:41Z</time></trkpt><trkpt lat="45.894920372544114" lon="11.56212344513959"><ele>1077.6666666666667</ele><time>2026-04-23T10:22:42Z</time></trkpt><trkpt lat="45.894787613911674" lon="11.562037689685948"><ele>1078.3333333333335</ele><time>2026-04-23T10:22:43Z</time></trkpt><trkpt lat="45.89463405133612" lon="11.561909058003144"><ele>1079.0</ele><time>2026-04-23T10:22:44Z</time></trkpt><trkpt lat="45.89446560949161" lon="11.561773117579355"><ele>1078.0</ele><time>2026-04-23T10:22:45Z</time></trkpt><trkpt lat="45.89432643391384" lon="11.561668994212459"><ele>1077.0</ele><time>2026-04-23T10:22:46Z</time></trkpt><trkpt lat="45.89421213298357" lon="11.56157241487073"><ele>1076.0</ele><time>2026-04-23T10:22:47Z</time></trkpt><trkpt lat="45.89412019860677" lon="11.561469324968202"><ele>1075.0</ele><time>2026-04-23T10:22:48Z</time></trkpt><trkpt lat="45.89403450107094" lon="11.561336146353153"><ele>1081.3333333333333</ele><time>2026-04-23T10:22:49Z</time></trkpt><trkpt lat="45.893958702823134" lon="11.561165830601087"><ele>1087.6666666666667</ele><time>2026-04-23T10:22:50Z</time></trkpt><trkpt lat="45.89387058708737" lon="11.56094644147652"><ele>1094.0</ele><time>2026-04-23T10:22:51Z</time></trkpt><trkpt lat="45.89376801043801" lon="11.560678836996209"><ele>1094.0</ele><time>2026-04-23T10:22:52Z</time></trkpt><trkpt lat="45.893664384846396" lon="11.560417376831497"><ele>1094.0</ele><time>2026-04-23T10:22:53Z</time></trkpt><trkpt lat="45.89357882936185" lon="11.560188167676504"><ele>1094.0</ele><time>2026-04-23T10:22:54Z</time></trkpt><trkpt lat="45.8934839117862" lon="11.559981656791232"><ele>1097.6666666666667</ele><time>2026-04-23T10:22:55Z</time></trkpt><trkpt lat="45.89336408436891" lon="11.559793069298063"><ele>1101.3333333333333</ele><time>2026-04-23T10:22:56Z</time></trkpt><trkpt lat="45.893216043319235" lon="11.559615960136659"><ele>1105.0</ele><time>2026-04-23T10:22:57Z</time></trkpt><trkpt lat="45.893043705583175" lon="11.55943723833498"><ele>1105.0</ele><time>2026-04-23T10:22:58Z</time></trkpt><trkpt lat="45.89286367583365" lon="11.55924787652632"><ele>1105.0</ele><time>2026-04-23T10:22:59Z</time></trkpt><trkpt lat="45.89269086007921" lon="11.559087583034325"><ele>1105.0</ele><time>2026-04-23T10:23:00Z</time></trkpt><trkpt lat="45.89254169458202" lon="11.558974404223672"><ele>1103.6</ele><time>2026-04-23T10:23:01Z</time></trkpt><trkpt lat="45.892430144986676" lon="11.558881145322497"><ele>1102.2</ele><time>2026-04-23T10:23:02Z</time></trkpt><trkpt lat="45.89233913072415" lon="11.558782113511763"><ele>1100.8</ele><time>2026-04-23T10:23:03Z</time></trkpt><trkpt lat="45.89226954217344" lon="11.55867155018045"><ele>1099.4</ele><time>2026-04-23T10:23:04Z</time></trkpt><trkpt lat="45.892226918751845" lon="11.55854472746953"><ele>1098.0</ele><time>2026-04-23T10:23:05Z</time></trkpt><trkpt lat="45.89220825626612" lon="11.558409499279946"><ele>1098.0</ele><time>2026-04-23T10:23:06Z</time></trkpt><trkpt lat="45.89220133277698" lon="11.558251157859887"><ele>1098.0</ele><time>2026-04-23T10:23:07Z</time></trkpt><trkpt lat="45.892200880267694" lon="11.558082928202667"><ele>1098.0</ele><time>2026-04-23T10:23:08Z</time></trkpt><trkpt lat="45.892191321003075" lon="11.557920272661605"><ele>1098.0</ele><time>2026-04-23T10:23:09Z</time></trkpt><trkpt lat="45.89215337602816" lon="11.557773507148452"><ele>1100.25</ele><time>2026-04-23T10:23:10Z</time></trkpt><trkpt lat="45.89210173709292" lon="11.557655054435596"><ele>1102.5</ele><time>2026-04-23T10:23:11Z</time></trkpt><trkpt lat="45.892018401057065" lon="11.557532837782492"><ele>1104.75</ele><time>2026-04-23T10:23:12Z</time></trkpt><trkpt lat="45.891900214504545" lon="11.557376124036148"><ele>1107.0</ele><time>2026-04-23T10:23:13Z</time></trkpt><trkpt lat="45.891781857200094" lon="11.557215976892381"><ele>1105.5</ele><time>2026-04-23T10:23:14Z</time></trkpt><trkpt lat="45.89168124485942" lon="11.557080740974845"><ele>1104.0</ele><time>2026-04-23T10:23:15Z</time></trkpt><trkpt lat="45.891571488476615" lon="11.55694021367591"><ele>1102.5</ele><time>2026-04-23T10:23:16Z</time></trkpt><trkpt lat="45.8914729703212" lon="11.55681941758411"><ele>1101.0</ele><time>2026-04-23T10:23:17Z</time></trkpt><trkpt lat="45.89140335495426" lon="11.556701302384942"><ele>1101.0</ele><time>2026-04-23T10:23:18Z</time></trkpt><trkpt lat="45.891354955920896" lon="11.556575997269528"><ele>1101.0</ele><time>2026-04-23T10:23:19Z</time></trkpt><trkpt lat="45.89132913286523" lon="11.556431322628008"><ele>1101.0</ele><time>2026-04-23T10:23:20Z</time></trkpt><trkpt lat="45.89132504709059" lon="11.55626635607721"><ele>1101.0</ele><time>2026-04-23T10:23:21Z</time></trkpt><trkpt lat="45.891366141159324" lon="11.556079558258324"><ele>1100.75</ele><time>2026-04-23T10:23:22Z</time></trkpt><trkpt lat="45.89137559169585" lon="11.55586340020101"><ele>1100.5</ele><time>2026-04-23T10:23:23Z</time></trkpt><trkpt lat="45.89140912042245" lon="11.555677328310793"><ele>1100.25</ele><time>2026-04-23T10:23:24Z</time></trkpt><trkpt lat="45.89144412653958" lon="11.55544700193966"><ele>1100.0</ele><time>2026-04-23T10:23:25Z</time></trkpt><trkpt lat="45.891476940084836" lon="11.555174572705878"><ele>1098.3333333333335</ele><time>2026-04-23T10:23:26Z</time></trkpt><trkpt lat="45.89150988659604" lon="11.554904953408686"><ele>1096.6666666666667</ele><time>2026-04-23T10:23:27Z</time></trkpt><trkpt lat="45.891539273179276" lon="11.55466048645753"><ele>1095.0</ele><time>2026-04-23T10:23:28Z</time></trkpt><trkpt lat="45.89157112682442" lon="11.554400136378375"><ele>1095.0</ele><time>2026-04-23T10:23:29Z</time></trkpt><trkpt lat="45.891603269814965" lon="11.55415076501077"><ele>1095.0</ele><time>2026-04-23T10:23:30Z</time></trkpt><trkpt lat="45.8916332792486" lon="11.553911308444702"><ele>1095.0</ele><time>2026-04-23T10:23:31Z</time></trkpt><trkpt lat="45.89167520342715" lon="11.553653757062946"><ele>1094.3333333333333</ele><time>2026-04-23T10:23:32Z</time></trkpt><trkpt lat="45.89173605621252" lon="11.55337401263573"><ele>1093.6666666666665</ele><time>2026-04-23T10:23:33Z</time></trkpt><trkpt lat="45.8918075789938" lon="11.553063857948878"><ele>1093.0</ele><time>2026-04-23T10:23:34Z</time></trkpt><trkpt lat="45.89187058387412" lon="11.55277157950882"><ele>1094.6666666666665</ele><time>2026-04-23T10:23:35Z</time></trkpt><trkpt lat="45.89192096295734" lon="11.552501018151856"><ele>1096.3333333333333</ele><time>2026-04-23T10:23:36Z</time></trkpt><trkpt lat="45.891956198084465" lon="11.55220205234859"><ele>1098.0</ele><time>2026-04-23T10:23:37Z</time></trkpt><trkpt lat="45.89199408106636" lon="11.55186842408641"><ele>1098.0</ele><time>2026-04-23T10:23:38Z</time></trkpt><trkpt lat="45.89203297637582" lon="11.551547845936739"><ele>1098.0</ele><time>2026-04-23T10:23:39Z</time></trkpt><trkpt lat="45.8920818543468" lon="11.551192908964197"><ele>1097.0</ele><time>2026-04-23T10:23:40Z</time></trkpt><trkpt lat="45.892129508135696" lon="11.550825822595845"><ele>1096.0</ele><time>2026-04-23T10:23:41Z</time></trkpt><trkpt lat="45.89217556740389" lon="11.550484400709891"><ele>1093.0</ele><time>2026-04-23T10:23:42Z</time></trkpt><trkpt lat="45.89222064561895" lon="11.550160407042158"><ele>1090.0</ele><time>2026-04-23T10:23:43Z</time></trkpt><trkpt lat="45.89226562920561" lon="11.54983132526869"><ele>1088.6666666666665</ele><time>2026-04-23T10:23:44Z</time></trkpt><trkpt lat="45.89230415191394" lon="11.549515144684676"><ele>1087.3333333333333</ele><time>2026-04-23T10:23:45Z</time></trkpt><trkpt lat="45.8923433447861" lon="11.549225522087951"><ele>1086.0</ele><time>2026-04-23T10:23:46Z</time></trkpt><trkpt lat="45.89238480557722" lon="11.548955481281707"><ele>1086.0</ele><time>2026-04-23T10:23:47Z</time></trkpt><trkpt lat="45.892416534724354" lon="11.548700546147197"><ele>1086.0</ele><time>2026-04-23T10:23:48Z</time></trkpt><trkpt lat="45.89244606103123" lon="11.548485440425871"><ele>1086.0</ele><time>2026-04-23T10:23:49Z</time></trkpt><trkpt lat="45.89246847180701" lon="11.54829852256995"><ele>1086.0</ele><time>2026-04-23T10:23:50Z</time></trkpt><trkpt lat="45.892478406874204" lon="11.548133503954096"><ele>1086.0</ele><time>2026-04-23T10:23:51Z</time></trkpt><trkpt lat="45.89248536078409" lon="11.548001530973519"><ele>1086.0</ele><time>2026-04-23T10:23:52Z</time></trkpt><trkpt lat="45.89250403318834" lon="11.547879283856895"><ele>1086.0</ele><time>2026-04-23T10:23:53Z</time></trkpt><trkpt lat="45.892511251907735" lon="11.547752357332486"><ele>1086.0</ele><time>2026-04-23T10:23:54Z</time></trkpt><trkpt lat="45.89251660046981" lon="11.547610275256144"><ele>1086.2</ele><time>2026-04-23T10:23:55Z</time></trkpt><trkpt lat="45.892538947925374" lon="11.547470138296266"><ele>1086.3999999999999</ele><time>2026-04-23T10:23:56Z</time></trkpt><trkpt lat="45.89257037563756" lon="11.547341723940884"><ele>1086.6</ele><time>2026-04-23T10:23:57Z</time></trkpt><trkpt lat="45.89261971481153" lon="11.547213642582978"><ele>1086.8</ele><time>2026-04-23T10:23:58Z</time></trkpt><trkpt lat="45.89268202607158" lon="11.547084904733003"><ele>1087.0</ele><time>2026-04-23T10:23:59Z</time></trkpt><trkpt lat="45.8927546775162" lon="11.546965719419372"><ele>1085.6</ele><time>2026-04-23T10:24:00Z</time></trkpt><trkpt lat="45.89284320649735" lon="11.546853181311333"><ele>1084.2</ele><time>2026-04-23T10:24:01Z</time></trkpt><trkpt lat="45.89291115355732" lon="11.546739391169684"><ele>1082.8</ele><time>2026-04-23T10:24:02Z</time></trkpt><trkpt lat="45.89296191427059" lon="11.546621639704624"><ele>1081.4</ele><time>2026-04-23T10:24:03Z</time></trkpt><trkpt lat="45.89299490514963" lon="11.546481823695062"><ele>1080.0</ele><time>2026-04-23T10:24:04Z</time></trkpt><trkpt lat="45.89300776450756" lon="11.546315106395207"><ele>1079.75</ele><time>2026-04-23T10:24:05Z</time></trkpt><trkpt lat="45.893009554485324" lon="11.54614033024021"><ele>1079.5</ele><time>2026-04-23T10:24:06Z</time></trkpt><trkpt lat="45.89299450443748" lon="11.54597420519195"><ele>1079.25</ele><time>2026-04-23T10:24:07Z</time></trkpt><trkpt lat="45.892955832856245" lon="11.54578797309829"><ele>1079.0</ele><time>2026-04-23T10:24:08Z</time></trkpt><trkpt lat="45.89291212554194" lon="11.545573310822903"><ele>1079.0</ele><time>2026-04-23T10:24:09Z</time></trkpt><trkpt lat="45.89285818261481" lon="11.545378701916942"><ele>1079.0</ele><time>2026-04-23T10:24:10Z</time></trkpt><trkpt lat="45.892804997995704" lon="11.54522834021578"><ele>1079.0</ele><time>2026-04-23T10:24:11Z</time></trkpt><trkpt lat="45.892788196138966" lon="11.545083911369163"><ele>1079.0</ele><time>2026-04-23T10:24:12Z</time></trkpt><trkpt lat="45.89278744597339" lon="11.544943341268668"><ele>1079.0</ele><time>2026-04-23T10:24:13Z</time></trkpt><trkpt lat="45.89280204234382" lon="11.544809535273073"><ele>1079.0</ele><time>2026-04-23T10:24:14Z</time></trkpt><trkpt lat="45.89280523369106" lon="11.54466336758797"><ele>1079.0</ele><time>2026-04-23T10:24:15Z</time></trkpt><trkpt lat="45.89280360919837" lon="11.544505488295808"><ele>1079.0</ele><time>2026-04-23T10:24:16Z</time></trkpt><trkpt lat="45.89275452268615" lon="11.5443611617694"><ele>1079.0</ele><time>2026-04-23T10:24:17Z</time></trkpt><trkpt lat="45.89267540869875" lon="11.544263910324466"><ele>1079.0</ele><time>2026-04-23T10:24:18Z</time></trkpt><trkpt lat="45.892593425369796" lon="11.544170699824514"><ele>1079.0</ele><time>2026-04-23T10:24:19Z</time></trkpt><trkpt lat="45.8925017440836" lon="11.544072258109598"><ele>1079.0</ele><time>2026-04-23T10:24:20Z</time></trkpt><trkpt lat="45.89242320136873" lon="11.543931402324098"><ele>1079.0</ele><time>2026-04-23T10:24:21Z</time></trkpt><trkpt lat="45.89234342749921" lon="11.543726165504351"><ele>1077.0</ele><time>2026-04-23T10:24:22Z</time></trkpt><trkpt lat="45.892255315788255" lon="11.543533937676061"><ele>1075.0</ele><time>2026-04-23T10:24:23Z</time></trkpt><trkpt lat="45.892167176771366" lon="11.543357592683602"><ele>1073.0</ele><time>2026-04-23T10:24:24Z</time></trkpt><trkpt lat="45.89204171902738" lon="11.543180780690358"><ele>1073.0</ele><time>2026-04-23T10:24:25Z</time></trkpt><trkpt lat="45.891898622446284" lon="11.542968998820774"><ele>1073.0</ele><time>2026-04-23T10:24:26Z</time></trkpt><trkpt lat="45.89176326514214" lon="11.542760125742832"><ele>1073.0</ele><time>2026-04-23T10:24:27Z</time></trkpt><trkpt lat="45.891616954648235" lon="11.5425866176385"><ele>1073.6666666666667</ele><time>2026-04-23T10:24:28Z</time></trkpt><trkpt lat="45.891449346503464" lon="11.542443374708762"><ele>1074.3333333333333</ele><time>2026-04-23T10:24:29Z</time></trkpt><trkpt lat="45.891279125248836" lon="11.542292119391872"><ele>1075.0</ele><time>2026-04-23T10:24:30Z</time></trkpt><trkpt lat="45.891115616222656" lon="11.542147381493248"><ele>1074.25</ele><time>2026-04-23T10:24:31Z</time></trkpt><trkpt lat="45.89099873545144" lon="11.542047536077225"><ele>1073.5</ele><time>2026-04-23T10:24:32Z</time></trkpt><trkpt lat="45.89088002683728" lon="11.541959290721366"><ele>1072.75</ele><time>2026-04-23T10:24:33Z</time></trkpt><trkpt lat="45.89077175914216" lon="11.541874609681457"><ele>1072.0</ele><time>2026-04-23T10:24:34Z</time></trkpt><trkpt lat="45.89067355863099" lon="11.541787838334805"><ele>1072.0</ele><time>2026-04-23T10:24:35Z</time></trkpt><trkpt lat="45.89056536646052" lon="11.54169442782262"><ele>1072.0</ele><time>2026-04-23T10:24:36Z</time></trkpt><trkpt lat="45.8904549059497" lon="11.541601987395804"><ele>1072.0</ele><time>2026-04-23T10:24:37Z</time></trkpt><trkpt lat="45.890341957104525" lon="11.541512873139744"><ele>1072.0</ele><time>2026-04-23T10:24:38Z</time></trkpt><trkpt lat="45.89022418890887" lon="11.541424003989041"><ele>1072.0</ele><time>2026-04-23T10:24:39Z</time></trkpt><trkpt lat="45.890108312103216" lon="11.541338765873833"><ele>1072.0</ele><time>2026-04-23T10:24:40Z</time></trkpt><trkpt lat="45.88998670280492" lon="11.541250037039626"><ele>1072.0</ele><time>2026-04-23T10:24:41Z</time></trkpt><trkpt lat="45.88984898456352" lon="11.541167133215408"><ele>1072.0</ele><time>2026-04-23T10:24:42Z</time></trkpt><trkpt lat="45.88968238270166" lon="11.541089164819162"><ele>1072.3333333333333</ele><time>2026-04-23T10:24:43Z</time></trkpt><trkpt lat="45.88950161052437" lon="11.541027930613199"><ele>1072.6666666666667</ele><time>2026-04-23T10:24:44Z</time></trkpt><trkpt lat="45.88933940344387" lon="11.540987094960942"><ele>1073.0</ele><time>2026-04-23T10:24:45Z</time></trkpt><trkpt lat="45.88916982263926" lon="11.540952553338245"><ele>1073.0</ele><time>2026-04-23T10:24:46Z</time></trkpt><trkpt lat="45.88899008566675" lon="11.54092837834685"><ele>1073.0</ele><time>2026-04-23T10:24:47Z</time></trkpt><trkpt lat="45.88880372340714" lon="11.540910418641486"><ele>1073.0</ele><time>2026-04-23T10:24:48Z</time></trkpt><trkpt lat="45.88861120580208" lon="11.540884629531073"><ele>1073.0</ele><time>2026-04-23T10:24:49Z</time></trkpt><trkpt lat="45.88842681284665" lon="11.54085945944963"><ele>1073.0</ele><time>2026-04-23T10:24:50Z</time></trkpt><trkpt lat="45.88826621492734" lon="11.54083766971191"><ele>1073.0</ele><time>2026-04-23T10:24:51Z</time></trkpt><trkpt lat="45.88811703776455" lon="11.540783753756852"><ele>1072.0</ele><time>2026-04-23T10:24:52Z</time></trkpt><trkpt lat="45.88798645525217" lon="11.54069468890212"><ele>1071.0</ele><time>2026-04-23T10:24:53Z</time></trkpt><trkpt lat="45.88787108765476" lon="11.540593723438679"><ele>1070.0</ele><time>2026-04-23T10:24:54Z</time></trkpt><trkpt lat="45.88775891667027" lon="11.54047829162822"><ele>1069.0</ele><time>2026-04-23T10:24:55Z</time></trkpt><trkpt lat="45.88764466726311" lon="11.5403622429181"><ele>1070.6666666666665</ele><time>2026-04-23T10:24:56Z</time></trkpt><trkpt lat="45.8875287296203" lon="11.540240860875493"><ele>1072.3333333333333</ele><time>2026-04-23T10:24:57Z</time></trkpt><trkpt lat="45.88740246683605" lon="11.540105948014457"><ele>1074.0</ele><time>2026-04-23T10:24:58Z</time></trkpt><trkpt lat="45.88726609782819" lon="11.539964395986667"><ele>1074.0</ele><time>2026-04-23T10:24:59Z</time></trkpt><trkpt lat="45.887123170619454" lon="11.53981504520408"><ele>1074.0</ele><time>2026-04-23T10:25:00Z</time></trkpt><trkpt lat="45.88697481760475" lon="11.539652746276635"><ele>1074.0</ele><time>2026-04-23T10:25:01Z</time></trkpt><trkpt lat="45.8868240367321" lon="11.53948238206007"><ele>1074.0</ele><time>2026-04-23T10:25:02Z</time></trkpt><trkpt lat="45.88667456999999" lon="11.539305946803704"><ele>1074.0</ele><time>2026-04-23T10:25:03Z</time></trkpt><trkpt lat="45.88652480490762" lon="11.539127353692678"><ele>1074.0</ele><time>2026-04-23T10:25:04Z</time></trkpt><trkpt lat="45.886378667309636" lon="11.538941926018538"><ele>1074.0</ele><time>2026-04-23T10:25:05Z</time></trkpt><trkpt lat="45.886219864412155" lon="11.5387256767189"><ele>1074.0</ele><time>2026-04-23T10:25:06Z</time></trkpt><trkpt lat="45.886064864654614" lon="11.538489095056043"><ele>1074.0</ele><time>2026-04-23T10:25:07Z</time></trkpt><trkpt lat="45.88593052753234" lon="11.538274634694845"><ele>1073.0</ele><time>2026-04-23T10:25:08Z</time></trkpt><trkpt lat="45.885786180382425" lon="11.538045682902155"><ele>1072.0</ele><time>2026-04-23T10:25:09Z</time></trkpt><trkpt lat="45.88563278323898" lon="11.537802651356111"><ele>1071.0</ele><time>2026-04-23T10:25:10Z</time></trkpt><trkpt lat="45.88547826564292" lon="11.537548392301812"><ele>1070.0</ele><time>2026-04-23T10:25:11Z</time></trkpt><trkpt lat="45.88531631240695" lon="11.537264901534705"><ele>1069.0</ele><time>2026-04-23T10:25:12Z</time></trkpt><trkpt lat="45.88516024693464" lon="11.537002588633868"><ele>1066.0</ele><time>2026-04-23T10:25:13Z</time></trkpt><trkpt lat="45.88500068694767" lon="11.536741318088874"><ele>1063.0</ele><time>2026-04-23T10:25:14Z</time></trkpt><trkpt lat="45.88483654771834" lon="11.536467799357235"><ele>1063.5</ele><time>2026-04-23T10:25:15Z</time></trkpt><trkpt lat="45.88467532612109" lon="11.536175920371319"><ele>1064.0</ele><time>2026-04-23T10:25:16Z</time></trkpt><trkpt lat="45.88451695079962" lon="11.535864590323627"><ele>1064.0</ele><time>2026-04-23T10:25:17Z</time></trkpt><trkpt lat="45.88436802170573" lon="11.53553449569508"><ele>1064.0</ele><time>2026-04-23T10:25:18Z</time></trkpt><trkpt lat="45.8842374268278" lon="11.535223126040693"><ele>1061.0</ele><time>2026-04-23T10:25:19Z</time></trkpt><trkpt lat="45.884114484189915" lon="11.534944291810303"><ele>1058.0</ele><time>2026-04-23T10:25:20Z</time></trkpt><trkpt lat="45.883985401907616" lon="11.534684679880138"><ele>1057.6666666666667</ele><time>2026-04-23T10:25:21Z</time></trkpt><trkpt lat="45.88384974373443" lon="11.534446494985415"><ele>1057.3333333333333</ele><time>2026-04-23T10:25:22Z</time></trkpt><trkpt lat="45.88370635145218" lon="11.534217537256122"><ele>1057.0</ele><time>2026-04-23T10:25:23Z</time></trkpt><trkpt lat="45.88356345053984" lon="11.534013197093833"><ele>1055.3333333333333</ele><time>2026-04-23T10:25:24Z</time></trkpt><trkpt lat="45.88340580707688" lon="11.533823223441694"><ele>1053.6666666666667</ele><time>2026-04-23T10:25:25Z</time></trkpt><trkpt lat="45.883218326989564" lon="11.533642489047041"><ele>1052.0</ele><time>2026-04-23T10:25:26Z</time></trkpt><trkpt lat="45.88300893935137" lon="11.533455184674295"><ele>1052.0</ele><time>2026-04-23T10:25:27Z</time></trkpt><trkpt lat="45.882785623356924" lon="11.53324997119799"><ele>1052.0</ele><time>2026-04-23T10:25:28Z</time></trkpt><trkpt lat="45.882572924274704" lon="11.533047604485326"><ele>1051.5</ele><time>2026-04-23T10:25:29Z</time></trkpt><trkpt lat="45.882376824401" lon="11.532851301671558"><ele>1051.0</ele><time>2026-04-23T10:25:30Z</time></trkpt><trkpt lat="45.88219451729568" lon="11.532639037940736"><ele>1051.0</ele><time>2026-04-23T10:25:31Z</time></trkpt><trkpt lat="45.882020570491896" lon="11.532399699207584"><ele>1051.0</ele><time>2026-04-23T10:25:32Z</time></trkpt><trkpt lat="45.881844733728585" lon="11.53212735905814"><ele>1046.0</ele><time>2026-04-23T10:25:33Z</time></trkpt><trkpt lat="45.88168875606483" lon="11.531869892495097"><ele>1041.0</ele><time>2026-04-23T10:25:34Z</time></trkpt><trkpt lat="45.88155597077237" lon="11.531637240350262"><ele>1036.0</ele><time>2026-04-23T10:25:35Z</time></trkpt><trkpt lat="45.88142768870869" lon="11.53139201975257"><ele>1036.3333333333333</ele><time>2026-04-23T10:25:36Z</time></trkpt><trkpt lat="45.88131523191282" lon="11.531127524379487"><ele>1036.6666666666667</ele><time>2026-04-23T10:25:37Z</time></trkpt><trkpt lat="45.881217739702244" lon="11.530842985991214"><ele>1037.0</ele><time>2026-04-23T10:25:38Z</time></trkpt><trkpt lat="45.881138962963874" lon="11.530544381496354"><ele>1038.0</ele><time>2026-04-23T10:25:39Z</time></trkpt><trkpt lat="45.88106659072082" lon="11.530231600233952"><ele>1039.0</ele><time>2026-04-23T10:25:40Z</time></trkpt><trkpt lat="45.88098654468781" lon="11.529894471743631"><ele>1036.3333333333333</ele><time>2026-04-23T10:25:41Z</time></trkpt><trkpt lat="45.88091224586697" lon="11.52959994721879"><ele>1033.6666666666667</ele><time>2026-04-23T10:25:42Z</time></trkpt><trkpt lat="45.880844330327776" lon="11.529329061453167"><ele>1031.0</ele><time>2026-04-23T10:25:43Z</time></trkpt><trkpt lat="45.88078791478082" lon="11.52909664343721"><ele>1031.0</ele><time>2026-04-23T10:25:44Z</time></trkpt><trkpt lat="45.880743692137855" lon="11.52888829601116"><ele>1031.0</ele><time>2026-04-23T10:25:45Z</time></trkpt><trkpt lat="45.88071308815928" lon="11.528709068797868"><ele>1031.0</ele><time>2026-04-23T10:25:46Z</time></trkpt><trkpt lat="45.88069063992971" lon="11.528572580528705"><ele>1031.0</ele><time>2026-04-23T10:25:47Z</time></trkpt><trkpt lat="45.88066968504167" lon="11.528421039163048"><ele>1031.3999999999999</ele><time>2026-04-23T10:25:49Z</time></trkpt><trkpt lat="45.88063840051372" lon="11.528308606195395"><ele>1031.8</ele><time>2026-04-23T10:25:51Z</time></trkpt><trkpt lat="45.8805605834068" lon="11.528233041901736"><ele>1032.1999999999998</ele><time>2026-04-23T10:25:53Z</time></trkpt><trkpt lat="45.880638450707806" lon="11.528164366635398"><ele>1032.6</ele><time>2026-04-23T10:25:54Z</time></trkpt><trkpt lat="45.880627915903844" lon="11.528073298303855"><ele>1033.0</ele><time>2026-04-23T10:25:56Z</time></trkpt><trkpt lat="45.88044708355858" lon="11.528077252422076"><ele>1033.0</ele><time>2026-04-23T10:25:57Z</time></trkpt><trkpt lat="45.88044485000742" lon="11.52798296660309"><ele>1033.0</ele><time>2026-04-23T10:26:23Z</time></trkpt><trkpt lat="45.880409676761" lon="11.527835514363444"><ele>1033.0</ele><time>2026-04-23T10:29:48Z</time></trkpt><trkpt lat="45.88043520675906" lon="11.527739379376827"><ele>1033.0</ele><time>2026-04-23T10:29:50Z</time></trkpt><trkpt lat="45.88049519392413" lon="11.527684488374938"><ele>1033.0</ele><time>2026-04-23T10:29:52Z</time></trkpt><trkpt lat="45.88055777709784" lon="11.527598946499564"><ele>1033.0</ele><time>2026-04-23T10:29:56Z</time></trkpt><trkpt lat="45.88054472862121" lon="11.52744217397482"><ele>1033.3333333333333</ele><time>2026-04-23T10:29:58Z</time></trkpt><trkpt lat="45.88052409281409" lon="11.52733032863828"><ele>1033.6666666666665</ele><time>2026-04-23T10:29:59Z</time></trkpt><trkpt lat="45.88050851643461" lon="11.527224209399424"><ele>1034.0</ele><time>2026-04-23T10:30:00Z</time></trkpt><trkpt lat="45.88049963817226" lon="11.527121537317969"><ele>1034.3333333333333</ele><time>2026-04-23T10:30:01Z</time></trkpt><trkpt lat="45.880489043449934" lon="11.527012468214593"><ele>1034.6666666666667</ele><time>2026-04-23T10:30:02Z</time></trkpt><trkpt lat="45.88047734673827" lon="11.526877228750875"><ele>1035.0</ele><time>2026-04-23T10:30:03Z</time></trkpt><trkpt lat="45.88046218508524" lon="11.526721535742992"><ele>1035.0</ele><time>2026-04-23T10:30:04Z</time></trkpt><trkpt lat="45.88046858671392" lon="11.526548181628028"><ele>1035.0</ele><time>2026-04-23T10:30:05Z</time></trkpt><trkpt lat="45.880430409840876" lon="11.526343244859222"><ele>1035.0</ele><time>2026-04-23T10:30:06Z</time></trkpt><trkpt lat="45.880442307592155" lon="11.526161594410649"><ele>1035.0</ele><time>2026-04-23T10:30:07Z</time></trkpt><trkpt lat="45.88047554011966" lon="11.525991891029738"><ele>1033.75</ele><time>2026-04-23T10:30:08Z</time></trkpt><trkpt lat="45.88045381351608" lon="11.525809823883382"><ele>1032.5</ele><time>2026-04-23T10:30:09Z</time></trkpt><trkpt lat="45.880465922446625" lon="11.525630351059615"><ele>1031.25</ele><time>2026-04-23T10:30:10Z</time></trkpt><trkpt lat="45.8804775487081" lon="11.525446285354393"><ele>1030.0</ele><time>2026-04-23T10:30:11Z</time></trkpt><trkpt lat="45.880491099704884" lon="11.525223553234447"><ele>1030.0</ele><time>2026-04-23T10:30:12Z</time></trkpt><trkpt lat="45.880538649282556" lon="11.524973296822479"><ele>1030.0</ele><time>2026-04-23T10:30:13Z</time></trkpt><trkpt lat="45.88055803864276" lon="11.524703923337267"><ele>1030.0</ele><time>2026-04-23T10:30:14Z</time></trkpt><trkpt lat="45.88057453858472" lon="11.524468054201076"><ele>1030.0</ele><time>2026-04-23T10:30:15Z</time></trkpt><trkpt lat="45.880589878621144" lon="11.52424732904116"><ele>1030.0</ele><time>2026-04-23T10:30:16Z</time></trkpt><trkpt lat="45.880602330953934" lon="11.524027699607505"><ele>1030.0</ele><time>2026-04-23T10:30:17Z</time></trkpt><trkpt lat="45.88061285140289" lon="11.523821654474432"><ele>1029.25</ele><time>2026-04-23T10:30:18Z</time></trkpt><trkpt lat="45.880619967957" lon="11.523629401685078"><ele>1028.5</ele><time>2026-04-23T10:30:19Z</time></trkpt><trkpt lat="45.8806244406761" lon="11.523443256255566"><ele>1027.75</ele><time>2026-04-23T10:30:20Z</time></trkpt><trkpt lat="45.88061999699775" lon="11.523245611951271"><ele>1027.0</ele><time>2026-04-23T10:30:21Z</time></trkpt><trkpt lat="45.88060879670304" lon="11.523044246134349"><ele>1027.25</ele><time>2026-04-23T10:30:22Z</time></trkpt><trkpt lat="45.88059011135832" lon="11.52284185334189"><ele>1027.5</ele><time>2026-04-23T10:30:23Z</time></trkpt><trkpt lat="45.88056789068071" lon="11.52263412239294"><ele>1027.75</ele><time>2026-04-23T10:30:24Z</time></trkpt><trkpt lat="45.88053648670684" lon="11.522419905892702"><ele>1028.0</ele><time>2026-04-23T10:30:24.999Z</time></trkpt><trkpt lat="45.88049276311608" lon="11.522187861720703"><ele>1028.6666666666667</ele><time>2026-04-23T10:30:25.999Z</time></trkpt><trkpt lat="45.8804421368282" lon="11.521935678218572"><ele>1029.3333333333333</ele><time>2026-04-23T10:30:26.999Z</time></trkpt><trkpt lat="45.88038463153599" lon="11.52166910632371"><ele>1030.0</ele><time>2026-04-23T10:30:27.999Z</time></trkpt><trkpt lat="45.88031971603919" lon="11.521418107363909"><ele>1029.6666666666665</ele><time>2026-04-23T10:30:28.999Z</time></trkpt><trkpt lat="45.88024245219972" lon="11.521169428621956"><ele>1029.3333333333333</ele><time>2026-04-23T10:30:29.999Z</time></trkpt><trkpt lat="45.88015265466778" lon="11.520917072364199"><ele>1029.0</ele><time>2026-04-23T10:30:30.999Z</time></trkpt><trkpt lat="45.88005849886489" lon="11.520664898043348"><ele>1026.0</ele><time>2026-04-23T10:30:31.999Z</time></trkpt><trkpt lat="45.87996499377729" lon="11.520411019264163"><ele>1023.0</ele><time>2026-04-23T10:30:32.999Z</time></trkpt><trkpt lat="45.879873892474876" lon="11.520149274608883"><ele>1020.0</ele><time>2026-04-23T10:30:33.999Z</time></trkpt><trkpt lat="45.87978672267606" lon="11.519881432139382"><ele>1018.6666666666667</ele><time>2026-04-23T10:30:34.999Z</time></trkpt><trkpt lat="45.87970861167327" lon="11.519601553019596"><ele>1017.3333333333334</ele><time>2026-04-23T10:30:35.999Z</time></trkpt><trkpt lat="45.879633600943244" lon="11.519315245787283"><ele>1016.0</ele><time>2026-04-23T10:30:36.999Z</time></trkpt><trkpt lat="45.87956604895622" lon="11.519042906454592"><ele>1016.3333333333334</ele><time>2026-04-23T10:30:37.999Z</time></trkpt><trkpt lat="45.87949948687141" lon="11.518779392995036"><ele>1016.6666666666667</ele><time>2026-04-23T10:30:38.999Z</time></trkpt><trkpt lat="45.879425801436724" lon="11.518521993206386"><ele>1017.0</ele><time>2026-04-23T10:30:40Z</time></trkpt><trkpt lat="45.8793622980313" lon="11.518260438141597"><ele>1017.0</ele><time>2026-04-23T10:30:41Z</time></trkpt><trkpt lat="45.879292212818854" lon="11.517985445430325"><ele>1017.0</ele><time>2026-04-23T10:30:42Z</time></trkpt><trkpt lat="45.879209412962894" lon="11.517678011266144"><ele>1017.0</ele><time>2026-04-23T10:30:43Z</time></trkpt><trkpt lat="45.87912405082056" lon="11.51734061580679"><ele>1014.0</ele><time>2026-04-23T10:30:44Z</time></trkpt><trkpt lat="45.87904227070826" lon="11.517014658297168"><ele>1011.0</ele><time>2026-04-23T10:30:45Z</time></trkpt><trkpt lat="45.87896476162217" lon="11.516719196522471"><ele>1011.0</ele><time>2026-04-23T10:30:46Z</time></trkpt><trkpt lat="45.878893369729234" lon="11.51645263620288"><ele>1011.0</ele><time>2026-04-23T10:30:47Z</time></trkpt><trkpt lat="45.878826464919115" lon="11.516198527133243"><ele>1011.0</ele><time>2026-04-23T10:30:48Z</time></trkpt><trkpt lat="45.87876382233675" lon="11.515959713821408"><ele>1012.0</ele><time>2026-04-23T10:30:49Z</time></trkpt><trkpt lat="45.87870395738031" lon="11.515735490605616"><ele>1013.0</ele><time>2026-04-23T10:30:50Z</time></trkpt><trkpt lat="45.8786653301819" lon="11.515512282331457"><ele>1014.0</ele><time>2026-04-23T10:30:51Z</time></trkpt><trkpt lat="45.87860813899712" lon="11.51530742932806"><ele>1014.3333333333333</ele><time>2026-04-23T10:30:52Z</time></trkpt><trkpt lat="45.878522648695565" lon="11.51512618851088"><ele>1014.6666666666666</ele><time>2026-04-23T10:30:53Z</time></trkpt><trkpt lat="45.87844156405326" lon="11.514935910725328"><ele>1015.0</ele><time>2026-04-23T10:30:54Z</time></trkpt><trkpt lat="45.87835589860989" lon="11.514738741550895"><ele>1013.3333333333333</ele><time>2026-04-23T10:30:55Z</time></trkpt><trkpt lat="45.87827399715431" lon="11.51453125003398"><ele>1011.6666666666667</ele><time>2026-04-23T10:30:56Z</time></trkpt><trkpt lat="45.87818912422394" lon="11.514322545923307"><ele>1010.0</ele><time>2026-04-23T10:30:57Z</time></trkpt><trkpt lat="45.878100092876394" lon="11.514107456443167"><ele>1010.0</ele><time>2026-04-23T10:30:58Z</time></trkpt><trkpt lat="45.878010710490564" lon="11.513890629887955"><ele>1010.0</ele><time>2026-04-23T10:30:59Z</time></trkpt><trkpt lat="45.877919766795294" lon="11.513672840542624"><ele>1010.0</ele><time>2026-04-23T10:31:00Z</time></trkpt><trkpt lat="45.877829501434064" lon="11.513459990692112"><ele>1009.25</ele><time>2026-04-23T10:31:01Z</time></trkpt><trkpt lat="45.877763728969136" lon="11.513264962829254"><ele>1008.5</ele><time>2026-04-23T10:31:02Z</time></trkpt><trkpt lat="45.87768050623724" lon="11.513136009021249"><ele>1007.75</ele><time>2026-04-23T10:31:03Z</time></trkpt><trkpt lat="45.87762369030271" lon="11.513003946087366"><ele>1007.0</ele><time>2026-04-23T10:31:04Z</time></trkpt><trkpt lat="45.87756151025005" lon="11.512886849800726"><ele>1006.6</ele><time>2026-04-23T10:31:05Z</time></trkpt><trkpt lat="45.87752855026629" lon="11.512751067465695"><ele>1006.2</ele><time>2026-04-23T10:31:06Z</time></trkpt><trkpt lat="45.87746549435262" lon="11.512624003053322"><ele>1005.8</ele><time>2026-04-23T10:31:07Z</time></trkpt><trkpt lat="45.87740175654783" lon="11.512493651832933"><ele>1005.4</ele><time>2026-04-23T10:31:08Z</time></trkpt><trkpt lat="45.87736807130286" lon="11.512333825848597"><ele>1005.0</ele><time>2026-04-23T10:31:09Z</time></trkpt><trkpt lat="45.877296222697055" lon="11.512208637103022"><ele>1005.0</ele><time>2026-04-23T10:31:10Z</time></trkpt><trkpt lat="45.87723792279273" lon="11.51207735575136"><ele>1005.0</ele><time>2026-04-23T10:31:11Z</time></trkpt><trkpt lat="45.87718538200044" lon="11.511940493546556"><ele>1005.0</ele><time>2026-04-23T10:31:12Z</time></trkpt><trkpt lat="45.87713150489184" lon="11.511807522427473"><ele>1005.0</ele><time>2026-04-23T10:31:13Z</time></trkpt><trkpt lat="45.87707751624635" lon="11.5116784815585"><ele>1005.0</ele><time>2026-04-23T10:31:14Z</time></trkpt><trkpt lat="45.877030793922806" lon="11.511557034823197"><ele>1005.0</ele><time>2026-04-23T10:31:15Z</time></trkpt><trkpt lat="45.87699003078971" lon="11.51144688003136"><ele>1005.0</ele><time>2026-04-23T10:31:16Z</time></trkpt><trkpt lat="45.87694770262685" lon="11.511356560205737"><ele>1005.0</ele><time>2026-04-23T10:31:17Z</time></trkpt><trkpt lat="45.876903727855236" lon="11.511262298392968"><ele>1005.0</ele><time>2026-04-23T10:31:18Z</time></trkpt><trkpt lat="45.87686630383774" lon="11.511160985264205"><ele>1005.0</ele><time>2026-04-23T10:31:19Z</time></trkpt><trkpt lat="45.87682086342068" lon="11.511060015840819"><ele>1005.0</ele><time>2026-04-23T10:31:20Z</time></trkpt><trkpt lat="45.876773519297494" lon="11.51095880956677"><ele>1005.0</ele><time>2026-04-23T10:31:21Z</time></trkpt><trkpt lat="45.87672795139479" lon="11.5108524817763"><ele>1005.0</ele><time>2026-04-23T10:31:22Z</time></trkpt><trkpt lat="45.87668184503943" lon="11.510745442786789"><ele>1005.0</ele><time>2026-04-23T10:31:23Z</time></trkpt><trkpt lat="45.87663718096856" lon="11.510639847562471"><ele>1005.0</ele><time>2026-04-23T10:31:24Z</time></trkpt><trkpt lat="45.876598267984505" lon="11.510544085359346"><ele>1005.0</ele><time>2026-04-23T10:31:25Z</time></trkpt><trkpt lat="45.87659186753077" lon="11.510440454034333"><ele>1005.0</ele><time>2026-04-23T10:31:26Z</time></trkpt><trkpt lat="45.87645710028771" lon="11.51041667700813"><ele>1005.0</ele><time>2026-04-23T10:31:28Z</time></trkpt><trkpt lat="45.87639009799811" lon="11.51043252417709"><ele>1005.0</ele><time>2026-04-23T10:31:30Z</time></trkpt><trkpt lat="45.876306926887985" lon="11.510459283762406"><ele>1005.0</ele><time>2026-04-23T10:31:32Z</time></trkpt><trkpt lat="45.876200290687684" lon="11.510491994904529"><ele>1005.0</ele><time>2026-04-23T10:31:34Z</time></trkpt><trkpt lat="45.876132892228085" lon="11.510518186190374"><ele>1005.0</ele><time>2026-04-23T10:31:35Z</time></trkpt><trkpt lat="45.876061609592675" lon="11.510530060799097"><ele>1005.0</ele><time>2026-04-23T10:31:36Z</time></trkpt><trkpt lat="45.875993939699754" lon="11.510553979813618"><ele>1004.4</ele><time>2026-04-23T10:31:37Z</time></trkpt><trkpt lat="45.875927062401374" lon="11.510589762388864"><ele>1003.8</ele><time>2026-04-23T10:31:38Z</time></trkpt><trkpt lat="45.875859390424296" lon="11.51062536267119"><ele>1003.2</ele><time>2026-04-23T10:31:39Z</time></trkpt><trkpt lat="45.87575283478886" lon="11.510646459741105"><ele>1002.6</ele><time>2026-04-23T10:31:41Z</time></trkpt><trkpt lat="45.87575474976752" lon="11.510823122905672"><ele>1002.0</ele><time>2026-04-23T10:31:44Z</time></trkpt><trkpt lat="45.87577169452754" lon="11.510964684029672"><ele>1002.0</ele><time>2026-04-23T10:31:46Z</time></trkpt><trkpt lat="45.87570764863149" lon="11.511106695905312"><ele>1002.0</ele><time>2026-04-23T10:31:48Z</time></trkpt><trkpt lat="45.87568293955106" lon="11.511204905347054"><ele>1002.0</ele><time>2026-04-23T10:31:49Z</time></trkpt><trkpt lat="45.87565712088707" lon="11.511297821449123"><ele>1002.0</ele><time>2026-04-23T10:31:50Z</time></trkpt><trkpt lat="45.875611960794316" lon="11.51145525242119"><ele>1002.0</ele><time>2026-04-23T10:31:52Z</time></trkpt><trkpt lat="45.875568368324224" lon="11.511596140176957"><ele>1002.0</ele><time>2026-04-23T10:31:54Z</time></trkpt><trkpt lat="45.87551797310002" lon="11.51174585818528"><ele>1002.0</ele><time>2026-04-23T10:31:56Z</time></trkpt><trkpt lat="45.87546910608122" lon="11.51190470532726"><ele>1002.0</ele><time>2026-04-23T10:31:58Z</time></trkpt><trkpt lat="45.87544591989375" lon="11.512075556294574"><ele>1002.0</ele><time>2026-04-23T10:32:00Z</time></trkpt><trkpt lat="45.87544478113516" lon="11.512186165926854"><ele>1002.0</ele><time>2026-04-23T10:32:01Z</time></trkpt><trkpt lat="45.87544815558854" lon="11.512306561649442"><ele>1001.8333333333334</ele><time>2026-04-23T10:32:02Z</time></trkpt><trkpt lat="45.87545306667354" lon="11.512429526714447"><ele>1001.6666666666667</ele><time>2026-04-23T10:32:03Z</time></trkpt><trkpt lat="45.87545750393589" lon="11.512563685235271"><ele>1001.5</ele><time>2026-04-23T10:32:04Z</time></trkpt><trkpt lat="45.875459110896166" lon="11.512698690042585"><ele>1001.3333333333334</ele><time>2026-04-23T10:32:05Z</time></trkpt><trkpt lat="45.87546064901451" lon="11.512819427078947"><ele>1001.1666666666667</ele><time>2026-04-23T10:32:06Z</time></trkpt><trkpt lat="45.87546362211264" lon="11.512939523705988"><ele>1001.0</ele><time>2026-04-23T10:32:07Z</time></trkpt><trkpt lat="45.87546468268532" lon="11.513069289553208"><ele>1001.0000000000001</ele><time>2026-04-23T10:32:08Z</time></trkpt><trkpt lat="45.875469165037764" lon="11.513203030465473"><ele>1001.0</ele><time>2026-04-23T10:32:09Z</time></trkpt><trkpt lat="45.87547491390804" lon="11.513336964951574"><ele>1001.0</ele><time>2026-04-23T10:32:10Z</time></trkpt><trkpt lat="45.87547707330153" lon="11.51345534541925"><ele>1001.0</ele><time>2026-04-23T10:32:11Z</time></trkpt><trkpt lat="45.8754753033126" lon="11.513566533568774"><ele>1001.0000000000001</ele><time>2026-04-23T10:32:12Z</time></trkpt><trkpt lat="45.875490394705906" lon="11.513688445323336"><ele>1001.0</ele><time>2026-04-23T10:32:13Z</time></trkpt><trkpt lat="45.875492314212615" lon="11.513834782434278"><ele>1001.5999999999999</ele><time>2026-04-23T10:32:14Z</time></trkpt><trkpt lat="45.87549416639143" lon="11.513981661902848"><ele>1002.1999999999999</ele><time>2026-04-23T10:32:15Z</time></trkpt><trkpt lat="45.87549554330117" lon="11.514128602092024"><ele>1002.8000000000001</ele><time>2026-04-23T10:32:16Z</time></trkpt><trkpt lat="45.875481210994415" lon="11.514275513511974"><ele>1003.4000000000001</ele><time>2026-04-23T10:32:17Z</time></trkpt><trkpt lat="45.87549036701797" lon="11.514397391093281"><ele>1004.0</ele><time>2026-04-23T10:32:18Z</time></trkpt><trkpt lat="45.875489423571594" lon="11.514528735373306"><ele>1004.1666666666667</ele><time>2026-04-23T10:32:20Z</time></trkpt><trkpt lat="45.87550222399988" lon="11.514630217560205"><ele>1004.3333333333334</ele><time>2026-04-23T10:32:23Z</time></trkpt><trkpt lat="45.87534861190722" lon="11.514620017223274"><ele>1004.5</ele><time>2026-04-23T10:32:25Z</time></trkpt><trkpt lat="45.875275888234334" lon="11.51462282234288"><ele>1004.6666666666667</ele><time>2026-04-23T10:32:26Z</time></trkpt><trkpt lat="45.87519898181943" lon="11.514625788800362"><ele>1004.8333333333334</ele><time>2026-04-23T10:32:27Z</time></trkpt><trkpt lat="45.87512877578849" lon="11.514628496809916"><ele>1005.0</ele><time>2026-04-23T10:32:28Z</time></trkpt><trkpt lat="45.875065726272325" lon="11.514630928774318"><ele>1005.3333333333334</ele><time>2026-04-23T10:32:29Z</time></trkpt><trkpt lat="45.87494460610215" lon="11.514635600661663"><ele>1005.6666666666667</ele><time>2026-04-23T10:32:31Z</time></trkpt><trkpt lat="45.87487846975077" lon="11.5146579901719"><ele>1006.0</ele><time>2026-04-23T10:32:32Z</time></trkpt><trkpt lat="45.87479710462596" lon="11.514646091333427"><ele>1006.3333333333334</ele><time>2026-04-23T10:32:33Z</time></trkpt><trkpt lat="45.874713015064216" lon="11.514631961231196"><ele>1006.6666666666667</ele><time>2026-04-23T10:32:34Z</time></trkpt><trkpt lat="45.87462801858276" lon="11.514606981352966"><ele>1007.0</ele><time>2026-04-23T10:32:35Z</time></trkpt><trkpt lat="45.8745501628053" lon="11.514586925596058"><ele>1007.0000000000001</ele><time>2026-04-23T10:32:36Z</time></trkpt><trkpt lat="45.874481048301085" lon="11.514600152390697"><ele>1007.0</ele><time>2026-04-23T10:32:37Z</time></trkpt><trkpt lat="45.87441272656208" lon="11.514635770215563"><ele>1007.0</ele><time>2026-04-23T10:32:38Z</time></trkpt><trkpt lat="45.874337169877336" lon="11.514671708994669"><ele>1007.0</ele><time>2026-04-23T10:32:39Z</time></trkpt><trkpt lat="45.87424762191908" lon="11.514687698347242"><ele>1007.0000000000001</ele><time>2026-04-23T10:32:40Z</time></trkpt><trkpt lat="45.87413889241295" lon="11.514686922266774"><ele>1007.0</ele><time>2026-04-23T10:32:41Z</time></trkpt><trkpt lat="45.874004123562784" lon="11.514688063914871"><ele>1006.6</ele><time>2026-04-23T10:32:42Z</time></trkpt><trkpt lat="45.8738754438062" lon="11.514686664340694"><ele>1006.2</ele><time>2026-04-23T10:32:43Z</time></trkpt><trkpt lat="45.873772459237145" lon="11.514701152065841"><ele>1005.8</ele><time>2026-04-23T10:32:44Z</time></trkpt><trkpt lat="45.873704301937586" lon="11.514706838111248"><ele>1005.4</ele><time>2026-04-23T10:32:45Z</time></trkpt><trkpt lat="45.87363169769879" lon="11.514674202871554"><ele>1005.0</ele><time>2026-04-23T10:32:47Z</time></trkpt><trkpt lat="45.87364265950548" lon="11.514492893783926"><ele>1004.8333333333334</ele><time>2026-04-23T10:32:50Z</time></trkpt><trkpt lat="45.87361903464901" lon="11.514393882003874"><ele>1004.6666666666667</ele><time>2026-04-23T10:32:51Z</time></trkpt><trkpt lat="45.87362217922204" lon="11.51427564056119"><ele>1004.5</ele><time>2026-04-23T10:32:52Z</time></trkpt><trkpt lat="45.87363119591078" lon="11.514136323014716"><ele>1004.3333333333334</ele><time>2026-04-23T10:32:53Z</time></trkpt><trkpt lat="45.87362923392066" lon="11.514022749310184"><ele>1004.1666666666667</ele><time>2026-04-23T10:32:54Z</time></trkpt><trkpt lat="45.87362995451341" lon="11.513916700158527"><ele>1004.0</ele><time>2026-04-23T10:32:55Z</time></trkpt><trkpt lat="45.87363720016954" lon="11.51380570595654"><ele>1003.9999999999999</ele><time>2026-04-23T10:32:56Z</time></trkpt><trkpt lat="45.873643705391586" lon="11.513690349974409"><ele>1004.0</ele><time>2026-04-23T10:32:57Z</time></trkpt><trkpt lat="45.873640607659325" lon="11.513587045404297"><ele>1003.9999999999999</ele><time>2026-04-23T10:32:58Z</time></trkpt><trkpt lat="45.873634626295164" lon="11.513481578600565"><ele>1003.9999999999999</ele><time>2026-04-23T10:32:59Z</time></trkpt><trkpt lat="45.87363225358486" lon="11.513374401221101"><ele>1004.0</ele><time>2026-04-23T10:33:00Z</time></trkpt><trkpt lat="45.87363102296728" lon="11.513268840577242"><ele>1003.9999999999999</ele><time>2026-04-23T10:33:01Z</time></trkpt><trkpt lat="45.87363392707081" lon="11.513165958649356"><ele>1003.9999999999999</ele><time>2026-04-23T10:33:02Z</time></trkpt><trkpt lat="45.87363566708853" lon="11.513060808846696"><ele>1004.0000000000001</ele><time>2026-04-23T10:33:03Z</time></trkpt><trkpt lat="45.87363706187785" lon="11.512956363123354"><ele>1004.0</ele><time>2026-04-23T10:33:04Z</time></trkpt><trkpt lat="45.87363910768347" lon="11.512852521450764"><ele>1004.0</ele><time>2026-04-23T10:33:05Z</time></trkpt><trkpt lat="45.87364077103941" lon="11.512748577313486"><ele>1004.0</ele><time>2026-04-23T10:33:06Z</time></trkpt><trkpt lat="45.87364068874802" lon="11.512648350184632"><ele>1004.0000000000001</ele><time>2026-04-23T10:33:07Z</time></trkpt><trkpt lat="45.87364092152174" lon="11.512476790861278"><ele>1004.0</ele><time>2026-04-23T10:33:09Z</time></trkpt><trkpt lat="45.873643835512325" lon="11.512286332552016"><ele>1003.8000000000001</ele><time>2026-04-23T10:33:11Z</time></trkpt><trkpt lat="45.873642417707885" lon="11.512160327683224"><ele>1003.6000000000001</ele><time>2026-04-23T10:33:12Z</time></trkpt><trkpt lat="45.873642529570034" lon="11.512019796311794"><ele>1003.4</ele><time>2026-04-23T10:33:13Z</time></trkpt><trkpt lat="45.873641882586575" lon="11.511876290301997"><ele>1003.2</ele><time>2026-04-23T10:33:14Z</time></trkpt><trkpt lat="45.8736380015109" lon="11.511748363438693"><ele>1003.0</ele><time>2026-04-23T10:33:15Z</time></trkpt><trkpt lat="45.87363847956423" lon="11.51161788312255"><ele>1002.5999999999999</ele><time>2026-04-23T10:33:17Z</time></trkpt><trkpt lat="45.87364677913016" lon="11.511502317740305"><ele>1002.1999999999999</ele><time>2026-04-23T10:33:20Z</time></trkpt><trkpt lat="45.87363396125188" lon="11.511388312391666"><ele>1001.8</ele><time>2026-04-23T10:33:23Z</time></trkpt><trkpt lat="45.87364570784314" lon="11.51127251054821"><ele>1001.4</ele><time>2026-04-23T10:33:40Z</time></trkpt><trkpt lat="45.873632993821325" lon="11.511167422109269"><ele>1001.0</ele><time>2026-04-23T10:33:48Z</time></trkpt><trkpt lat="45.87344137017858" lon="11.511178391391454"><ele>1000.6666666666667</ele><time>2026-04-23T10:33:49Z</time></trkpt><trkpt lat="45.87335796289933" lon="11.511198986394838"><ele>1000.3333333333334</ele><time>2026-04-23T10:33:50Z</time></trkpt><trkpt lat="45.87329245846099" lon="11.511220112072829"><ele>1000.0</ele><time>2026-04-23T10:33:51Z</time></trkpt><trkpt lat="45.87321916645301" lon="11.51124524701158"><ele>999.6666666666667</ele><time>2026-04-23T10:33:52Z</time></trkpt><trkpt lat="45.87313860898269" lon="11.511268036937095"><ele>999.3333333333334</ele><time>2026-04-23T10:33:53Z</time></trkpt><trkpt lat="45.873051380072795" lon="11.51129621200313"><ele>999.0</ele><time>2026-04-23T10:33:54Z</time></trkpt><trkpt lat="45.87295831915453" lon="11.511317579015605"><ele>999.0</ele><time>2026-04-23T10:33:55Z</time></trkpt><trkpt lat="45.8728646268222" lon="11.511342214299827"><ele>999.0000000000001</ele><time>2026-04-23T10:33:56Z</time></trkpt><trkpt lat="45.87277227312981" lon="11.511367585609749"><ele>999.0000000000001</ele><time>2026-04-23T10:33:57Z</time></trkpt><trkpt lat="45.87267561523887" lon="11.511393292312462"><ele>999.0</ele><time>2026-04-23T10:33:58Z</time></trkpt><trkpt lat="45.87257735688833" lon="11.511421345921239"><ele>999.0</ele><time>2026-04-23T10:33:59Z</time></trkpt><trkpt lat="45.87248073348398" lon="11.511450263602466"><ele>998.6</ele><time>2026-04-23T10:34:00Z</time></trkpt><trkpt lat="45.87238281946193" lon="11.511470206277089"><ele>998.2</ele><time>2026-04-23T10:34:01Z</time></trkpt><trkpt lat="45.87228381778232" lon="11.51149438746757"><ele>997.8000000000001</ele><time>2026-04-23T10:34:02Z</time></trkpt><trkpt lat="45.87219344499724" lon="11.511525027153043"><ele>997.4000000000001</ele><time>2026-04-23T10:34:03Z</time></trkpt><trkpt lat="45.872114974357615" lon="11.511554020058389"><ele>997.0</ele><time>2026-04-23T10:34:04Z</time></trkpt><trkpt lat="45.871997031705256" lon="11.511566767246535"><ele>996.9999999999999</ele><time>2026-04-23T10:34:06Z</time></trkpt><trkpt lat="45.87193190811632" lon="11.51154816568865"><ele>997.0</ele><time>2026-04-23T10:34:08Z</time></trkpt><trkpt lat="45.8719165305769" lon="11.511439607542965"><ele>997.0</ele><time>2026-04-23T10:34:09Z</time></trkpt><trkpt lat="45.87194056964684" lon="11.511311415742284"><ele>997.0</ele><time>2026-04-23T10:34:11Z</time></trkpt><trkpt lat="45.87195036960403" lon="11.511217372807122"><ele>996.9999999999999</ele><time>2026-04-23T10:34:12Z</time></trkpt><trkpt lat="45.871962902298755" lon="11.511114273312026"><ele>997.0</ele><time>2026-04-23T10:34:13Z</time></trkpt><trkpt lat="45.87197947690604" lon="11.511001752930468"><ele>996.9999999999999</ele><time>2026-04-23T10:34:14Z</time></trkpt><trkpt lat="45.8719947439512" lon="11.510908120143288"><ele>997.0</ele><time>2026-04-23T10:34:15Z</time></trkpt><trkpt lat="45.87201113183795" lon="11.510814193142256"><ele>996.9999999999999</ele><time>2026-04-23T10:34:16Z</time></trkpt><trkpt lat="45.872028295482274" lon="11.510719444579902"><ele>996.9999999999999</ele><time>2026-04-23T10:34:17Z</time></trkpt><trkpt lat="45.87204403771428" lon="11.510608590085406"><ele>997.0</ele><time>2026-04-23T10:34:18Z</time></trkpt><trkpt lat="45.87205637970744" lon="11.510491268946415"><ele>996.9999999999999</ele><time>2026-04-23T10:34:19Z</time></trkpt><trkpt lat="45.8720744859061" lon="11.510373883777532"><ele>996.9999999999999</ele><time>2026-04-23T10:34:20Z</time></trkpt><trkpt lat="45.872099076997365" lon="11.510253910754763"><ele>996.8</ele><time>2026-04-23T10:34:21Z</time></trkpt><trkpt lat="45.87212117273298" lon="11.510129803523222"><ele>996.6</ele><time>2026-04-23T10:34:22Z</time></trkpt><trkpt lat="45.872139604125096" lon="11.509989966398516"><ele>996.3999999999999</ele><time>2026-04-23T10:34:23Z</time></trkpt><trkpt lat="45.872160879422" lon="11.509827969539911"><ele>996.1999999999999</ele><time>2026-04-23T10:34:24Z</time></trkpt><trkpt lat="45.872216312849375" lon="11.509658407967555"><ele>996.0</ele><time>2026-04-23T10:34:25Z</time></trkpt><trkpt lat="45.87223667868035" lon="11.509508131571666"><ele>996.0</ele><time>2026-04-23T10:34:26Z</time></trkpt><trkpt lat="45.872252818871345" lon="11.509389035531477"><ele>996.0</ele><time>2026-04-23T10:34:27Z</time></trkpt><trkpt lat="45.872267890737916" lon="11.50927782252128"><ele>996.0</ele><time>2026-04-23T10:34:28Z</time></trkpt><trkpt lat="45.87228455084346" lon="11.509153181285555"><ele>996.0</ele><time>2026-04-23T10:34:29Z</time></trkpt><trkpt lat="45.87230017876494" lon="11.509037547507575"><ele>996.0</ele><time>2026-04-23T10:34:30Z</time></trkpt><trkpt lat="45.87231431519478" lon="11.50893295012108"><ele>996.0</ele><time>2026-04-23T10:34:31Z</time></trkpt><trkpt lat="45.87233097801179" lon="11.508816886989493"><ele>996.6666666666666</ele><time>2026-04-23T10:34:32Z</time></trkpt><trkpt lat="45.872354893585864" lon="11.508650153802622"><ele>997.3333333333333</ele><time>2026-04-23T10:34:33Z</time></trkpt><trkpt lat="45.87237563781268" lon="11.508509503369284"><ele>998.0</ele><time>2026-04-23T10:34:34Z</time></trkpt><trkpt lat="45.87238971813931" lon="11.508415355734273"><ele>998.6666666666666</ele><time>2026-04-23T10:34:35Z</time></trkpt><trkpt lat="45.87240854773783" lon="11.508290212355265"><ele>999.3333333333333</ele><time>2026-04-23T10:34:37.001Z</time></trkpt><trkpt lat="45.87241503143256" lon="11.508189203566205"><ele>1000.0</ele><time>2026-04-23T10:35:37Z</time></trkpt><trkpt lat="45.872441220162095" lon="11.508041087927037"><ele>1000.3333333333333</ele><time>2026-04-23T10:35:39Z</time></trkpt><trkpt lat="45.872465201641994" lon="11.507869031872385"><ele>1000.6666666666666</ele><time>2026-04-23T10:35:41Z</time></trkpt><trkpt lat="45.87247898680717" lon="11.507756367739436"><ele>1001.0</ele><time>2026-04-23T10:35:42Z</time></trkpt><trkpt lat="45.87250015246882" lon="11.50765426089217"><ele>1001.3333333333333</ele><time>2026-04-23T10:35:43Z</time></trkpt><trkpt lat="45.8725170968791" lon="11.5075630503296"><ele>1001.6666666666666</ele><time>2026-04-23T10:35:44Z</time></trkpt><trkpt lat="45.87254030263511" lon="11.50742824446358"><ele>1002.0</ele><time>2026-04-23T10:35:45Z</time></trkpt><trkpt lat="45.87256692723713" lon="11.507262989486344"><ele>1002.0</ele><time>2026-04-23T10:35:46Z</time></trkpt><trkpt lat="45.872602824089" lon="11.507117021462753"><ele>1002.0</ele><time>2026-04-23T10:35:47Z</time></trkpt><trkpt lat="45.87266354081137" lon="11.507012490645932"><ele>1002.0</ele><time>2026-04-23T10:35:48Z</time></trkpt><trkpt lat="45.872750716521736" lon="11.506905165988167"><ele>1002.0</ele><time>2026-04-23T10:35:49Z</time></trkpt><trkpt lat="45.872860629268054" lon="11.506781374004204"><ele>1002.2</ele><time>2026-04-23T10:35:50Z</time></trkpt><trkpt lat="45.87295342472731" lon="11.506676465028072"><ele>1002.4000000000001</ele><time>2026-04-23T10:35:51Z</time></trkpt><trkpt lat="45.87304108398904" lon="11.506580475924189"><ele>1002.5999999999999</ele><time>2026-04-23T10:35:52Z</time></trkpt><trkpt lat="45.873124751759306" lon="11.50648371081473"><ele>1002.8</ele><time>2026-04-23T10:35:53Z</time></trkpt><trkpt lat="45.87319520989244" lon="11.506383117926338"><ele>1003.0</ele><time>2026-04-23T10:35:54Z</time></trkpt><trkpt lat="45.87324482929038" lon="11.506258688569542"><ele>1003.4</ele><time>2026-04-23T10:35:55Z</time></trkpt><trkpt lat="45.87331544612635" lon="11.50614528466971"><ele>1003.8</ele><time>2026-04-23T10:35:56Z</time></trkpt><trkpt lat="45.87333490390619" lon="11.505986196417798"><ele>1004.2</ele><time>2026-04-23T10:35:57Z</time></trkpt><trkpt lat="45.87339036595959" lon="11.505879531179978"><ele>1004.6</ele><time>2026-04-23T10:35:58Z</time></trkpt><trkpt lat="45.87342070282229" lon="11.505784968550754"><ele>1005.0</ele><time>2026-04-23T10:35:59Z</time></trkpt><trkpt lat="45.8734740242058" lon="11.505720699882527"><ele>1006.2</ele><time>2026-04-23T10:36:00Z</time></trkpt><trkpt lat="45.873529013323584" lon="11.505610736457157"><ele>1007.4</ele><time>2026-04-23T10:36:02Z</time></trkpt><trkpt lat="45.87356220247126" lon="11.50549201123477"><ele>1008.5999999999999</ele><time>2026-04-23T10:36:04Z</time></trkpt><trkpt lat="45.8735014639771" lon="11.505370981368424"><ele>1009.8</ele><time>2026-04-23T10:36:05Z</time></trkpt><trkpt lat="45.87347037794178" lon="11.505234254983684"><ele>1011.0</ele><time>2026-04-23T10:36:06Z</time></trkpt><trkpt lat="45.87345585120067" lon="11.505093697018406"><ele>1011.0</ele><time>2026-04-23T10:36:07Z</time></trkpt><trkpt lat="45.873421277535904" lon="11.504949604770959"><ele>1010.9999999999999</ele><time>2026-04-23T10:36:08Z</time></trkpt><trkpt lat="45.87338185045212" lon="11.504797674464543"><ele>1010.9999999999999</ele><time>2026-04-23T10:36:09Z</time></trkpt><trkpt lat="45.873342673991324" lon="11.504654277487594"><ele>1011.0</ele><time>2026-04-23T10:36:10Z</time></trkpt><trkpt lat="45.87330119619564" lon="11.504514697428524"><ele>1011.0</ele><time>2026-04-23T10:36:11Z</time></trkpt><trkpt lat="45.87325755084532" lon="11.504371205184322"><ele>1011.0</ele><time>2026-04-23T10:36:12Z</time></trkpt><trkpt lat="45.873210353255644" lon="11.504212097704833"><ele>1011.0</ele><time>2026-04-23T10:36:13Z</time></trkpt><trkpt lat="45.87315431519616" lon="11.5040214204757"><ele>1011.0</ele><time>2026-04-23T10:36:14Z</time></trkpt><trkpt lat="45.87310559157516" lon="11.50385563186469"><ele>1011.0</ele><time>2026-04-23T10:36:15Z</time></trkpt><trkpt lat="45.87305511403795" lon="11.503691679323206"><ele>1011.25</ele><time>2026-04-23T10:36:16Z</time></trkpt><trkpt lat="45.87300618962067" lon="11.503533504685358"><ele>1011.5</ele><time>2026-04-23T10:36:17Z</time></trkpt><trkpt lat="45.872959235566334" lon="11.503390719951147"><ele>1011.75</ele><time>2026-04-23T10:36:18Z</time></trkpt><trkpt lat="45.872910789648245" lon="11.503250359434752"><ele>1012.0</ele><time>2026-04-23T10:36:19Z</time></trkpt><trkpt lat="45.87285549721596" lon="11.503101387559408"><ele>1012.0</ele><time>2026-04-23T10:36:20Z</time></trkpt><trkpt lat="45.87279668182574" lon="11.502948385519112"><ele>1012.0</ele><time>2026-04-23T10:36:21Z</time></trkpt><trkpt lat="45.87273602397473" lon="11.502792264289008"><ele>1012.0</ele><time>2026-04-23T10:36:22Z</time></trkpt><trkpt lat="45.87267349558489" lon="11.502631067560268"><ele>1012.0</ele><time>2026-04-23T10:36:23Z</time></trkpt><trkpt lat="45.87259410264243" lon="11.502491806286997"><ele>1010.5</ele><time>2026-04-23T10:36:24Z</time></trkpt><trkpt lat="45.87253644089633" lon="11.502342887989027"><ele>1009.0</ele><time>2026-04-23T10:36:25Z</time></trkpt><trkpt lat="45.872479272790585" lon="11.502198200747955"><ele>1007.5</ele><time>2026-04-23T10:36:26Z</time></trkpt><trkpt lat="45.87242320959171" lon="11.502054583885146"><ele>1006.0</ele><time>2026-04-23T10:36:27Z</time></trkpt><trkpt lat="45.872385998892234" lon="11.501891845009549"><ele>1005.75</ele><time>2026-04-23T10:36:28Z</time></trkpt><trkpt lat="45.87232307823265" lon="11.501740018535207"><ele>1005.5</ele><time>2026-04-23T10:36:29Z</time></trkpt><trkpt lat="45.87224953900006" lon="11.501591208743175"><ele>1005.25</ele><time>2026-04-23T10:36:30Z</time></trkpt><trkpt lat="45.87217080269065" lon="11.501447116535553"><ele>1005.0</ele><time>2026-04-23T10:36:31Z</time></trkpt><trkpt lat="45.87209109135537" lon="11.501305690456428"><ele>1005.5</ele><time>2026-04-23T10:36:32Z</time></trkpt><trkpt lat="45.87201212763584" lon="11.50117466827694"><ele>1006.0</ele><time>2026-04-23T10:36:33Z</time></trkpt><trkpt lat="45.871933220817525" lon="11.501056215097655"><ele>1006.5</ele><time>2026-04-23T10:36:34Z</time></trkpt><trkpt lat="45.871855835233944" lon="11.500943271597784"><ele>1007.0</ele><time>2026-04-23T10:36:35Z</time></trkpt><trkpt lat="45.87177691775143" lon="11.500828120993669"><ele>1004.5</ele><time>2026-04-23T10:36:36Z</time></trkpt><trkpt lat="45.87169475567926" lon="11.50070829990305"><ele>1002.0</ele><time>2026-04-23T10:36:37Z</time></trkpt><trkpt lat="45.87159967921116" lon="11.500615597059259"><ele>999.5</ele><time>2026-04-23T10:36:38Z</time></trkpt><trkpt lat="45.871508533710774" lon="11.500486205824826"><ele>997.0</ele><time>2026-04-23T10:36:39Z</time></trkpt><trkpt lat="45.87139587198596" lon="11.500325404910525"><ele>996.6666666666666</ele><time>2026-04-23T10:36:40Z</time></trkpt><trkpt lat="45.87128261281861" lon="11.500150254511178"><ele>996.3333333333333</ele><time>2026-04-23T10:36:41Z</time></trkpt><trkpt lat="45.871197981991656" lon="11.499958038649327"><ele>996.0</ele><time>2026-04-23T10:36:42Z</time></trkpt><trkpt lat="45.87110445491758" lon="11.499810203310254"><ele>996.0</ele><time>2026-04-23T10:36:43.001Z</time></trkpt><trkpt lat="45.87099894535941" lon="11.499689447448981"><ele>996.0</ele><time>2026-04-23T10:36:44.001Z</time></trkpt><trkpt lat="45.87091265329573" lon="11.499555829429301"><ele>996.0</ele><time>2026-04-23T10:36:45.001Z</time></trkpt><trkpt lat="45.87082827252309" lon="11.499422947558935"><ele>996.0</ele><time>2026-04-23T10:36:46.001Z</time></trkpt><trkpt lat="45.87073766790418" lon="11.499281362062966"><ele>995.0</ele><time>2026-04-23T10:36:47.001Z</time></trkpt><trkpt lat="45.870658281245696" lon="11.499114630811365"><ele>994.0</ele><time>2026-04-23T10:36:48.001Z</time></trkpt><trkpt lat="45.87056181984141" lon="11.498964561539264"><ele>993.0</ele><time>2026-04-23T10:36:49.001Z</time></trkpt><trkpt lat="45.87045212641343" lon="11.498790544626424"><ele>992.0</ele><time>2026-04-23T10:36:50.001Z</time></trkpt><trkpt lat="45.87029118209023" lon="11.498623592428228"><ele>992.0</ele><time>2026-04-23T10:36:51.001Z</time></trkpt><trkpt lat="45.870188020376965" lon="11.498448986070285"><ele>992.0</ele><time>2026-04-23T10:36:52.001Z</time></trkpt><trkpt lat="45.870095898125825" lon="11.498295398784805"><ele>992.0</ele><time>2026-04-23T10:36:53.001Z</time></trkpt><trkpt lat="45.87001051704984" lon="11.498154105567206"><ele>992.0</ele><time>2026-04-23T10:36:54.001Z</time></trkpt><trkpt lat="45.8699148967095" lon="11.498000871681588"><ele>989.75</ele><time>2026-04-23T10:36:55.001Z</time></trkpt><trkpt lat="45.86983278964947" lon="11.49782296005426"><ele>987.5</ele><time>2026-04-23T10:36:56.001Z</time></trkpt><trkpt lat="45.869741784431845" lon="11.497680948488586"><ele>985.25</ele><time>2026-04-23T10:36:57.001Z</time></trkpt><trkpt lat="45.869656185726285" lon="11.497547373666828"><ele>983.0</ele><time>2026-04-23T10:36:58.001Z</time></trkpt><trkpt lat="45.86957095322517" lon="11.497413793477165"><ele>983.0</ele><time>2026-04-23T10:36:59.001Z</time></trkpt><trkpt lat="45.86949321575164" lon="11.49729080322742"><ele>983.0</ele><time>2026-04-23T10:37:00.001Z</time></trkpt><trkpt lat="45.8694273897737" lon="11.497186658412698"><ele>983.0</ele><time>2026-04-23T10:37:01.001Z</time></trkpt><trkpt lat="45.86934510634978" lon="11.49708879894208"><ele>983.0</ele><time>2026-04-23T10:37:02.001Z</time></trkpt><trkpt lat="45.869295653914094" lon="11.496974730884697"><ele>983.0</ele><time>2026-04-23T10:37:03Z</time></trkpt><trkpt lat="45.86924498389293" lon="11.49689238977451"><ele>982.8333333333334</ele><time>2026-04-23T10:37:04Z</time></trkpt><trkpt lat="45.869187712022224" lon="11.496834175545475"><ele>982.6666666666667</ele><time>2026-04-23T10:37:05Z</time></trkpt><trkpt lat="45.869145849582964" lon="11.49676423563764"><ele>982.5</ele><time>2026-04-23T10:37:06Z</time></trkpt><trkpt lat="45.869087710827365" lon="11.496661089123357"><ele>982.3333333333333</ele><time>2026-04-23T10:37:08Z</time></trkpt><trkpt lat="45.86902695579197" lon="11.496551435890481"><ele>982.1666666666666</ele><time>2026-04-23T10:37:10Z</time></trkpt><trkpt lat="45.86895974339987" lon="11.49642632625964"><ele>982.0</ele><time>2026-04-23T10:37:11Z</time></trkpt><trkpt lat="45.86891159020959" lon="11.496289141422887"><ele>983.3333333333333</ele><time>2026-04-23T10:37:12Z</time></trkpt><trkpt lat="45.86884122426478" lon="11.496124684420016"><ele>984.6666666666667</ele><time>2026-04-23T10:37:13Z</time></trkpt><trkpt lat="45.86875907062674" lon="11.495910117581305"><ele>986.0</ele><time>2026-04-23T10:37:14Z</time></trkpt><trkpt lat="45.86868031399285" lon="11.495693122566658"><ele>986.0</ele><time>2026-04-23T10:37:15Z</time></trkpt><trkpt lat="45.868589989718295" lon="11.495426399792404"><ele>986.0</ele><time>2026-04-23T10:37:16Z</time></trkpt><trkpt lat="45.868496325318624" lon="11.495147061148307"><ele>986.0</ele><time>2026-04-23T10:37:17Z</time></trkpt><trkpt lat="45.868408348067206" lon="11.494874882284918"><ele>987.0</ele><time>2026-04-23T10:37:18Z</time></trkpt><trkpt lat="45.86832132817973" lon="11.494605022873195"><ele>988.0</ele><time>2026-04-23T10:37:19Z</time></trkpt><trkpt lat="45.868252978495185" lon="11.494367182244615"><ele>989.0</ele><time>2026-04-23T10:37:20Z</time></trkpt><trkpt lat="45.86820009864526" lon="11.494145490939601"><ele>991.6666666666667</ele><time>2026-04-23T10:37:21Z</time></trkpt><trkpt lat="45.8681597416127" lon="11.493920656911591"><ele>994.3333333333333</ele><time>2026-04-23T10:37:22Z</time></trkpt><trkpt lat="45.86813607049238" lon="11.49370434398183"><ele>997.0</ele><time>2026-04-23T10:37:23Z</time></trkpt><trkpt lat="45.86812814173943" lon="11.49349093258717"><ele>998.6666666666666</ele><time>2026-04-23T10:37:24Z</time></trkpt><trkpt lat="45.86814286939819" lon="11.49328476301159"><ele>1000.3333333333333</ele><time>2026-04-23T10:37:25Z</time></trkpt><trkpt lat="45.86817410255338" lon="11.493061189115249"><ele>1002.0</ele><time>2026-04-23T10:37:26Z</time></trkpt><trkpt lat="45.86821832173988" lon="11.492811520459082"><ele>1001.6666666666667</ele><time>2026-04-23T10:37:27Z</time></trkpt><trkpt lat="45.86827997601949" lon="11.49258874883199"><ele>1001.3333333333334</ele><time>2026-04-23T10:37:28Z</time></trkpt><trkpt lat="45.868352634399855" lon="11.492389417891394"><ele>1001.0</ele><time>2026-04-23T10:37:29Z</time></trkpt><trkpt lat="45.8684523050429" lon="11.49219471037728"><ele>1002.3333333333334</ele><time>2026-04-23T10:37:30Z</time></trkpt><trkpt lat="45.86856633376912" lon="11.491966467982587"><ele>1003.6666666666667</ele><time>2026-04-23T10:37:31Z</time></trkpt><trkpt lat="45.868692153342515" lon="11.491714624740384"><ele>1005.0</ele><time>2026-04-23T10:37:32Z</time></trkpt><trkpt lat="45.86880858702854" lon="11.49147870638318"><ele>1005.0</ele><time>2026-04-23T10:37:33Z</time></trkpt><trkpt lat="45.868911139653775" lon="11.491273578425233"><ele>1005.0</ele><time>2026-04-23T10:37:34Z</time></trkpt><trkpt lat="45.86900725978048" lon="11.491079582909109"><ele>1005.0</ele><time>2026-04-23T10:37:35Z</time></trkpt><trkpt lat="45.869097056307844" lon="11.49089465490357"><ele>1006.5</ele><time>2026-04-23T10:37:36Z</time></trkpt><trkpt lat="45.869186377114175" lon="11.490714551914765"><ele>1008.0</ele><time>2026-04-23T10:37:37Z</time></trkpt><trkpt lat="45.869273833162254" lon="11.490540041131265"><ele>1009.5</ele><time>2026-04-23T10:37:38Z</time></trkpt><trkpt lat="45.869351456584575" lon="11.49038515049418"><ele>1011.0</ele><time>2026-04-23T10:37:39Z</time></trkpt><trkpt lat="45.86942104859413" lon="11.490245117681154"><ele>1011.5</ele><time>2026-04-23T10:37:40Z</time></trkpt><trkpt lat="45.86949046542223" lon="11.490104166487853"><ele>1012.0</ele><time>2026-04-23T10:37:41Z</time></trkpt><trkpt lat="45.86956182205271" lon="11.489959276502855"><ele>1012.5</ele><time>2026-04-23T10:37:42Z</time></trkpt><trkpt lat="45.8696108154531" lon="11.489817327560417"><ele>1013.0</ele><time>2026-04-23T10:37:43Z</time></trkpt><trkpt lat="45.869674400995" lon="11.489714321748512"><ele>1014.8</ele><time>2026-04-23T10:37:44Z</time></trkpt><trkpt lat="45.86970879590534" lon="11.4895850408887"><ele>1016.5999999999999</ele><time>2026-04-23T10:37:45Z</time></trkpt><trkpt lat="45.86972157518618" lon="11.489436483970225"><ele>1018.4000000000001</ele><time>2026-04-23T10:37:46Z</time></trkpt><trkpt lat="45.869699769288104" lon="11.489296717121594"><ele>1020.2</ele><time>2026-04-23T10:37:47Z</time></trkpt><trkpt lat="45.86966237330204" lon="11.489179465374233"><ele>1022.0</ele><time>2026-04-23T10:37:48Z</time></trkpt><trkpt lat="45.86960070562449" lon="11.489036273411921"><ele>1022.0</ele><time>2026-04-23T10:37:49Z</time></trkpt><trkpt lat="45.86952339637511" lon="11.488871364677975"><ele>1022.0</ele><time>2026-04-23T10:37:50Z</time></trkpt><trkpt lat="45.86943662758141" lon="11.488685506893699"><ele>1022.0</ele><time>2026-04-23T10:37:51Z</time></trkpt><trkpt lat="45.86933096241375" lon="11.488456034345747"><ele>1022.0</ele><time>2026-04-23T10:37:52Z</time></trkpt><trkpt lat="45.86921686062927" lon="11.48821131821477"><ele>1022.0</ele><time>2026-04-23T10:37:53Z</time></trkpt><trkpt lat="45.869100602995154" lon="11.487966902969246"><ele>1022.0</ele><time>2026-04-23T10:37:54Z</time></trkpt><trkpt lat="45.8689698949777" lon="11.48769231606275"><ele>1022.5</ele><time>2026-04-23T10:37:55Z</time></trkpt><trkpt lat="45.8688304260783" lon="11.487395216081298"><ele>1023.0</ele><time>2026-04-23T10:37:56Z</time></trkpt><trkpt lat="45.86870737191552" lon="11.487134370673557"><ele>1022.6666666666667</ele><time>2026-04-23T10:37:57Z</time></trkpt><trkpt lat="45.86859111212055" lon="11.486892352981119"><ele>1022.3333333333334</ele><time>2026-04-23T10:37:58Z</time></trkpt><trkpt lat="45.868495077512414" lon="11.486686175191673"><ele>1022.0</ele><time>2026-04-23T10:37:59Z</time></trkpt><trkpt lat="45.86841286562697" lon="11.486515384347857"><ele>1021.25</ele><time>2026-04-23T10:38:00Z</time></trkpt><trkpt lat="45.86834250712826" lon="11.48636343744437"><ele>1020.5</ele><time>2026-04-23T10:38:01Z</time></trkpt><trkpt lat="45.86828427226092" lon="11.486218140385283"><ele>1019.75</ele><time>2026-04-23T10:38:02Z</time></trkpt><trkpt lat="45.86825284632847" lon="11.48607482341755"><ele>1019.0</ele><time>2026-04-23T10:38:03Z</time></trkpt><trkpt lat="45.86823824966215" lon="11.485921808641885"><ele>1019.0</ele><time>2026-04-23T10:38:04Z</time></trkpt><trkpt lat="45.86823775229333" lon="11.485788219443645"><ele>1019.0</ele><time>2026-04-23T10:38:05Z</time></trkpt><trkpt lat="45.86830768560433" lon="11.485687176511071"><ele>1019.0</ele><time>2026-04-23T10:38:06Z</time></trkpt><trkpt lat="45.868384983910886" lon="11.485568227653165"><ele>1019.0</ele><time>2026-04-23T10:38:07Z</time></trkpt><trkpt lat="45.86848373562792" lon="11.485407208637733"><ele>1018.0</ele><time>2026-04-23T10:38:08Z</time></trkpt><trkpt lat="45.868592560623654" lon="11.485293184713269"><ele>1017.0</ele><time>2026-04-23T10:38:09Z</time></trkpt><trkpt lat="45.868700771906155" lon="11.485148761313786"><ele>1016.0</ele><time>2026-04-23T10:38:10Z</time></trkpt><trkpt lat="45.86882604779514" lon="11.484978628451119"><ele>1016.0</ele><time>2026-04-23T10:38:11Z</time></trkpt><trkpt lat="45.86894380424775" lon="11.484813021420877"><ele>1016.0</ele><time>2026-04-23T10:38:12Z</time></trkpt><trkpt lat="45.869045287861326" lon="11.484655344323205"><ele>1016.0</ele><time>2026-04-23T10:38:13Z</time></trkpt><trkpt lat="45.86912391343513" lon="11.484506760288582"><ele>1016.0</ele><time>2026-04-23T10:38:14Z</time></trkpt><trkpt lat="45.86917950713315" lon="11.484339745432035"><ele>1015.5</ele><time>2026-04-23T10:38:15Z</time></trkpt><trkpt lat="45.86919145588229" lon="11.48414992098317"><ele>1015.0</ele><time>2026-04-23T10:38:16Z</time></trkpt><trkpt lat="45.86921087398212" lon="11.483948023272005"><ele>1014.5</ele><time>2026-04-23T10:38:17Z</time></trkpt><trkpt lat="45.8692119829128" lon="11.483704084216212"><ele>1014.0</ele><time>2026-04-23T10:38:18Z</time></trkpt><trkpt lat="45.86920496213409" lon="11.48347623455576"><ele>1014.0</ele><time>2026-04-23T10:38:19Z</time></trkpt><trkpt lat="45.86916208082454" lon="11.483265243102114"><ele>1014.0</ele><time>2026-04-23T10:38:20Z</time></trkpt><trkpt lat="45.8690993872689" lon="11.483056251141642"><ele>1014.0</ele><time>2026-04-23T10:38:21Z</time></trkpt><trkpt lat="45.86901325738684" lon="11.482848496132515"><ele>1014.0</ele><time>2026-04-23T10:38:22Z</time></trkpt><trkpt lat="45.86890728474091" lon="11.48264143502567"><ele>1014.0</ele><time>2026-04-23T10:38:23Z</time></trkpt><trkpt lat="45.86882467225384" lon="11.482474432789115"><ele>1014.0</ele><time>2026-04-23T10:38:24Z</time></trkpt><trkpt lat="45.8687615141659" lon="11.482309208229882"><ele>1014.0</ele><time>2026-04-23T10:38:25Z</time></trkpt><trkpt lat="45.86871650122143" lon="11.482145787031474"><ele>1014.0000000000001</ele><time>2026-04-23T10:38:26Z</time></trkpt><trkpt lat="45.86871143345241" lon="11.481985994070925"><ele>1014.0000000000001</ele><time>2026-04-23T10:38:27Z</time></trkpt><trkpt lat="45.86872942712065" lon="11.481839797158344"><ele>1014.0</ele><time>2026-04-23T10:38:28Z</time></trkpt><trkpt lat="45.86874960138878" lon="11.481694292296355"><ele>1014.0</ele><time>2026-04-23T10:38:29Z</time></trkpt><trkpt lat="45.86880566228165" lon="11.481569096873601"><ele>1014.0</ele><time>2026-04-23T10:38:30Z</time></trkpt><trkpt lat="45.86888657461875" lon="11.481426848025638"><ele>1014.0</ele><time>2026-04-23T10:38:31Z</time></trkpt><trkpt lat="45.868993772560614" lon="11.481258380488919"><ele>1014.0</ele><time>2026-04-23T10:38:32Z</time></trkpt><trkpt lat="45.86911290596032" lon="11.481054533058842"><ele>1012.6666666666667</ele><time>2026-04-23T10:38:33Z</time></trkpt><trkpt lat="45.869232087435826" lon="11.480845960924142"><ele>1011.3333333333334</ele><time>2026-04-23T10:38:34Z</time></trkpt><trkpt lat="45.86934227635398" lon="11.480649794744474"><ele>1010.0</ele><time>2026-04-23T10:38:35Z</time></trkpt><trkpt lat="45.86944295795581" lon="11.480472579397606"><ele>1009.0</ele><time>2026-04-23T10:38:36Z</time></trkpt><trkpt lat="45.86952550631754" lon="11.480300833572462"><ele>1008.0</ele><time>2026-04-23T10:38:37Z</time></trkpt><trkpt lat="45.86959091242927" lon="11.480149819441907"><ele>1007.0</ele><time>2026-04-23T10:38:38Z</time></trkpt><trkpt lat="45.869643949770435" lon="11.480033044610668"><ele>1006.0</ele><time>2026-04-23T10:38:39Z</time></trkpt><trkpt lat="45.86969385508812" lon="11.479928807021102"><ele>1005.9999999999999</ele><time>2026-04-23T10:38:40Z</time></trkpt><trkpt lat="45.86973588956209" lon="11.479833225938227"><ele>1006.0</ele><time>2026-04-23T10:38:41Z</time></trkpt><trkpt lat="45.86973117083385" lon="11.479729826816234"><ele>1006.0</ele><time>2026-04-23T10:38:42Z</time></trkpt><trkpt lat="45.869692842061944" lon="11.479651096840145"><ele>1006.0</ele><time>2026-04-23T10:38:43Z</time></trkpt><trkpt lat="45.86962819256056" lon="11.479568560761688"><ele>1005.9999999999999</ele><time>2026-04-23T10:38:44Z</time></trkpt><trkpt lat="45.8695405222697" lon="11.479457979514446"><ele>1006.0</ele><time>2026-04-23T10:38:45Z</time></trkpt><trkpt lat="45.86944704196007" lon="11.479311277482608"><ele>1006.0</ele><time>2026-04-23T10:38:46Z</time></trkpt><trkpt lat="45.86934961172261" lon="11.479187670663848"><ele>1006.0</ele><time>2026-04-23T10:38:47Z</time></trkpt><trkpt lat="45.86922842647235" lon="11.479062730694054"><ele>1006.0</ele><time>2026-04-23T10:38:48Z</time></trkpt><trkpt lat="45.86908581373909" lon="11.478886083745119"><ele>1003.0</ele><time>2026-04-23T10:38:49.001Z</time></trkpt><trkpt lat="45.8689309429076" lon="11.478723745127152"><ele>1000.0</ele><time>2026-04-23T10:38:50.001Z</time></trkpt><trkpt lat="45.868784228138615" lon="11.478569506263648"><ele>997.0</ele><time>2026-04-23T10:38:51.001Z</time></trkpt><trkpt lat="45.868636148917666" lon="11.478413735308921"><ele>997.0</ele><time>2026-04-23T10:38:52.001Z</time></trkpt><trkpt lat="45.868502671243064" lon="11.47827276445859"><ele>997.0</ele><time>2026-04-23T10:38:53.001Z</time></trkpt><trkpt lat="45.86837183000715" lon="11.478135338849059"><ele>997.0</ele><time>2026-04-23T10:38:54.001Z</time></trkpt><trkpt lat="45.86825024529222" lon="11.478007924607631"><ele>997.75</ele><time>2026-04-23T10:38:55.001Z</time></trkpt><trkpt lat="45.86813629882522" lon="11.47788873144941"><ele>998.5</ele><time>2026-04-23T10:38:56.001Z</time></trkpt><trkpt lat="45.868034373020556" lon="11.477782112441622"><ele>999.25</ele><time>2026-04-23T10:38:57.001Z</time></trkpt><trkpt lat="45.867923531961246" lon="11.477709802454797"><ele>1000.0</ele><time>2026-04-23T10:38:58.001Z</time></trkpt><trkpt lat="45.867846999022504" lon="11.477627419884351"><ele>999.9999999999999</ele><time>2026-04-23T10:38:59.001Z</time></trkpt><trkpt lat="45.86778778244016" lon="11.477561671462896"><ele>1000.0</ele><time>2026-04-23T10:39:00.001Z</time></trkpt><trkpt lat="45.86772420987265" lon="11.477500164660118"><ele>1000.0</ele><time>2026-04-23T10:39:01Z</time></trkpt><trkpt lat="45.867668367805095" lon="11.477399817064184"><ele>1000.0</ele><time>2026-04-23T10:39:02Z</time></trkpt><trkpt lat="45.86760752999279" lon="11.47733488150372"><ele>999.9999999999999</ele><time>2026-04-23T10:39:03Z</time></trkpt><trkpt lat="45.867540451326825" lon="11.477264200015743"><ele>1000.0</ele><time>2026-04-23T10:39:04Z</time></trkpt><trkpt lat="45.86746639906272" lon="11.47718618250623"><ele>999.8</ele><time>2026-04-23T10:39:05Z</time></trkpt><trkpt lat="45.86739110090414" lon="11.477106379959015"><ele>999.6</ele><time>2026-04-23T10:39:06Z</time></trkpt><trkpt lat="45.86731402509887" lon="11.477024649919926"><ele>999.4000000000001</ele><time>2026-04-23T10:39:07Z</time></trkpt><trkpt lat="45.86723338377508" lon="11.476939139069641"><ele>999.2</ele><time>2026-04-23T10:39:08Z</time></trkpt><trkpt lat="45.867152887062765" lon="11.476853781555315"><ele>999.0</ele><time>2026-04-23T10:39:09Z</time></trkpt><trkpt lat="45.867065601088974" lon="11.476761865486644"><ele>999.25</ele><time>2026-04-23T10:39:10Z</time></trkpt><trkpt lat="45.86697272370784" lon="11.476665190626585"><ele>999.5</ele><time>2026-04-23T10:39:11Z</time></trkpt><trkpt lat="45.86686588014539" lon="11.476553978565422"><ele>999.75</ele><time>2026-04-23T10:39:12Z</time></trkpt><trkpt lat="45.866729201473696" lon="11.476410240308011"><ele>1000.0</ele><time>2026-04-23T10:39:13Z</time></trkpt><trkpt lat="45.866562359654885" lon="11.476232095149744"><ele>999.0</ele><time>2026-04-23T10:39:14Z</time></trkpt><trkpt lat="45.86638168693495" lon="11.476041373988737"><ele>998.0</ele><time>2026-04-23T10:39:15Z</time></trkpt><trkpt lat="45.866180957762715" lon="11.47583241256908"><ele>998.0</ele><time>2026-04-23T10:39:16Z</time></trkpt><trkpt lat="45.8659853201355" lon="11.475628554475945"><ele>998.0</ele><time>2026-04-23T10:39:17Z</time></trkpt><trkpt lat="45.865807843776956" lon="11.475443307861363"><ele>997.0</ele><time>2026-04-23T10:39:18Z</time></trkpt><trkpt lat="45.865648170297796" lon="11.475270887719718"><ele>996.0</ele><time>2026-04-23T10:39:19Z</time></trkpt><trkpt lat="45.86549565845666" lon="11.475109764370252"><ele>995.0</ele><time>2026-04-23T10:39:20Z</time></trkpt><trkpt lat="45.865341764121936" lon="11.474967716786674"><ele>995.0</ele><time>2026-04-23T10:39:21Z</time></trkpt><trkpt lat="45.86520381212853" lon="11.474817674312957"><ele>995.0</ele><time>2026-04-23T10:39:22Z</time></trkpt><trkpt lat="45.86507606289025" lon="11.474685254444568"><ele>995.0</ele><time>2026-04-23T10:39:23Z</time></trkpt><trkpt lat="45.86495516826028" lon="11.474551136410584"><ele>995.25</ele><time>2026-04-23T10:39:24Z</time></trkpt><trkpt lat="45.86483596960027" lon="11.474432181669101"><ele>995.5</ele><time>2026-04-23T10:39:25Z</time></trkpt><trkpt lat="45.86472836059445" lon="11.47430963519015"><ele>995.75</ele><time>2026-04-23T10:39:26Z</time></trkpt><trkpt lat="45.86462222515955" lon="11.474187845745018"><ele>996.0</ele><time>2026-04-23T10:39:27Z</time></trkpt><trkpt lat="45.86451264635136" lon="11.474068495835509"><ele>996.0</ele><time>2026-04-23T10:39:28Z</time></trkpt><trkpt lat="45.864403151260404" lon="11.473957246793198"><ele>996.0</ele><time>2026-04-23T10:39:29Z</time></trkpt><trkpt lat="45.864312575447194" lon="11.473835203608747"><ele>996.0</ele><time>2026-04-23T10:39:30Z</time></trkpt><trkpt lat="45.864231184102316" lon="11.473726672169004"><ele>996.0</ele><time>2026-04-23T10:39:31Z</time></trkpt><trkpt lat="45.8641569853451" lon="11.473625284679338"><ele>995.8</ele><time>2026-04-23T10:39:32Z</time></trkpt><trkpt lat="45.86411028056646" lon="11.473503662119327"><ele>995.5999999999999</ele><time>2026-04-23T10:39:33Z</time></trkpt><trkpt lat="45.86406077285838" lon="11.47338686849406"><ele>995.4</ele><time>2026-04-23T10:39:34Z</time></trkpt><trkpt lat="45.86400838482527" lon="11.473255267487316"><ele>995.2</ele><time>2026-04-23T10:39:35Z</time></trkpt><trkpt lat="45.86396025451791" lon="11.473114406076455"><ele>995.0</ele><time>2026-04-23T10:39:36Z</time></trkpt><trkpt lat="45.86387897105193" lon="11.472979438042676"><ele>994.25</ele><time>2026-04-23T10:39:37Z</time></trkpt><trkpt lat="45.86374455835851" lon="11.472888270142535"><ele>993.5</ele><time>2026-04-23T10:39:38Z</time></trkpt><trkpt lat="45.86361929751892" lon="11.472792241217643"><ele>992.75</ele><time>2026-04-23T10:39:39Z</time></trkpt><trkpt lat="45.863502598640935" lon="11.47272025149309"><ele>992.0</ele><time>2026-04-23T10:39:40Z</time></trkpt><trkpt lat="45.86338938499916" lon="11.472647748665729"><ele>991.8</ele><time>2026-04-23T10:39:41Z</time></trkpt><trkpt lat="45.86328156853468" lon="11.47257740228345"><ele>991.6</ele><time>2026-04-23T10:39:42Z</time></trkpt><trkpt lat="45.86317981526653" lon="11.472516429366921"><ele>991.3999999999999</ele><time>2026-04-23T10:39:43Z</time></trkpt><trkpt lat="45.863094003455714" lon="11.472445962648733"><ele>991.1999999999999</ele><time>2026-04-23T10:39:44Z</time></trkpt><trkpt lat="45.86299947621809" lon="11.472415927920878"><ele>991.0</ele><time>2026-04-23T10:39:45Z</time></trkpt><trkpt lat="45.86293111033018" lon="11.472378580811975"><ele>990.9999999999999</ele><time>2026-04-23T10:39:46Z</time></trkpt><trkpt lat="45.86287095281714" lon="11.472341480145614"><ele>991.0</ele><time>2026-04-23T10:39:47Z</time></trkpt><trkpt lat="45.86275679004501" lon="11.472250344221436"><ele>991.0</ele><time>2026-04-23T10:39:49Z</time></trkpt><trkpt lat="45.86269371633054" lon="11.472167726034627"><ele>991.0</ele><time>2026-04-23T10:39:50Z</time></trkpt><trkpt lat="45.86264337768719" lon="11.472071090450644"><ele>990.9999999999999</ele><time>2026-04-23T10:39:51Z</time></trkpt><trkpt lat="45.86265887146694" lon="11.471960963722166"><ele>991.0</ele><time>2026-04-23T10:39:52Z</time></trkpt><trkpt lat="45.86266064627993" lon="11.471834177291283"><ele>989.0</ele><time>2026-04-23T10:39:53Z</time></trkpt><trkpt lat="45.862678101584585" lon="11.47167321115424"><ele>987.0</ele><time>2026-04-23T10:39:54Z</time></trkpt><trkpt lat="45.86270644358135" lon="11.471475000551306"><ele>985.0</ele><time>2026-04-23T10:39:55Z</time></trkpt><trkpt lat="45.86273954533452" lon="11.47123672542747"><ele>983.0</ele><time>2026-04-23T10:39:56Z</time></trkpt><trkpt lat="45.862765566647774" lon="11.471043059160428"><ele>980.3333333333334</ele><time>2026-04-23T10:39:57Z</time></trkpt><trkpt lat="45.86280169935576" lon="11.470774137812581"><ele>977.6666666666667</ele><time>2026-04-23T10:39:58Z</time></trkpt><trkpt lat="45.862846400559455" lon="11.470453881865097"><ele>975.0</ele><time>2026-04-23T10:39:59Z</time></trkpt><trkpt lat="45.86287915113157" lon="11.47012854859139"><ele>975.0</ele><time>2026-04-23T10:40:00Z</time></trkpt><trkpt lat="45.8629223503362" lon="11.469828613426984"><ele>975.0</ele><time>2026-04-23T10:40:01Z</time></trkpt><trkpt lat="45.86296638040256" lon="11.469513787189893"><ele>975.0</ele><time>2026-04-23T10:40:02Z</time></trkpt><trkpt lat="45.863003127526916" lon="11.469194737900752"><ele>975.0</ele><time>2026-04-23T10:40:03Z</time></trkpt><trkpt lat="45.86305464904577" lon="11.468919455627457"><ele>975.0</ele><time>2026-04-23T10:40:04Z</time></trkpt><trkpt lat="45.86309080265655" lon="11.468667990609706"><ele>975.0</ele><time>2026-04-23T10:40:05Z</time></trkpt><trkpt lat="45.86312087063947" lon="11.468424580103642"><ele>975.0</ele><time>2026-04-23T10:40:06Z</time></trkpt><trkpt lat="45.863129641200324" lon="11.468192701588237"><ele>975.0</ele><time>2026-04-23T10:40:07Z</time></trkpt><trkpt lat="45.86313717474115" lon="11.467967061322318"><ele>975.0</ele><time>2026-04-23T10:40:08Z</time></trkpt><trkpt lat="45.863151735234176" lon="11.467737380404214"><ele>974.6666666666667</ele><time>2026-04-23T10:40:09Z</time></trkpt><trkpt lat="45.863114926143545" lon="11.467491355714943"><ele>974.3333333333334</ele><time>2026-04-23T10:40:10Z</time></trkpt><trkpt lat="45.8630808914205" lon="11.467231679533342"><ele>974.0</ele><time>2026-04-23T10:40:11Z</time></trkpt><trkpt lat="45.86302171304984" lon="11.466956559373891"><ele>974.0</ele><time>2026-04-23T10:40:12Z</time></trkpt><trkpt lat="45.86296230397954" lon="11.466695385531295"><ele>974.0</ele><time>2026-04-23T10:40:13Z</time></trkpt><trkpt lat="45.86290143739334" lon="11.466450099939722"><ele>974.0</ele><time>2026-04-23T10:40:14Z</time></trkpt><trkpt lat="45.862850569538296" lon="11.466259368472217"><ele>973.5</ele><time>2026-04-23T10:40:15Z</time></trkpt><trkpt lat="45.862801548429" lon="11.466095798394763"><ele>973.0</ele><time>2026-04-23T10:40:16Z</time></trkpt><trkpt lat="45.86274553039716" lon="11.465942171174065"><ele>972.5</ele><time>2026-04-23T10:40:17Z</time></trkpt><trkpt lat="45.86265216323814" lon="11.465813857217764"><ele>972.0</ele><time>2026-04-23T10:40:18Z</time></trkpt><trkpt lat="45.86255993811536" lon="11.465681184475285"><ele>972.3333333333333</ele><time>2026-04-23T10:40:19Z</time></trkpt><trkpt lat="45.86243342721287" lon="11.465562594668206"><ele>972.6666666666666</ele><time>2026-04-23T10:40:20Z</time></trkpt><trkpt lat="45.86229164550968" lon="11.465424492102844"><ele>973.0</ele><time>2026-04-23T10:40:21Z</time></trkpt><trkpt lat="45.86216468122705" lon="11.465281660247992"><ele>973.0</ele><time>2026-04-23T10:40:22Z</time></trkpt><trkpt lat="45.86207537987379" lon="11.46512741917299"><ele>973.0</ele><time>2026-04-23T10:40:23Z</time></trkpt><trkpt lat="45.86199084717256" lon="11.465003123292494"><ele>973.0</ele><time>2026-04-23T10:40:24Z</time></trkpt><trkpt lat="45.861916687165134" lon="11.464865045749923"><ele>973.0</ele><time>2026-04-23T10:40:25Z</time></trkpt><trkpt lat="45.86186906703716" lon="11.46468574866184"><ele>972.0</ele><time>2026-04-23T10:40:26Z</time></trkpt><trkpt lat="45.861822285165054" lon="11.46445912255494"><ele>971.0</ele><time>2026-04-23T10:40:27Z</time></trkpt><trkpt lat="45.86176343340183" lon="11.4642438022127"><ele>970.0</ele><time>2026-04-23T10:40:28Z</time></trkpt><trkpt lat="45.86166868913639" lon="11.464067618425231"><ele>969.0</ele><time>2026-04-23T10:40:29Z</time></trkpt><trkpt lat="45.861541754525724" lon="11.463900047255242"><ele>968.0</ele><time>2026-04-23T10:40:30Z</time></trkpt><trkpt lat="45.86138664719735" lon="11.463730886355735"><ele>967.0</ele><time>2026-04-23T10:40:31Z</time></trkpt><trkpt lat="45.86124505519619" lon="11.463591240675523"><ele>967.0</ele><time>2026-04-23T10:40:32Z</time></trkpt><trkpt lat="45.86109206084737" lon="11.463471651791592"><ele>967.0</ele><time>2026-04-23T10:40:33Z</time></trkpt><trkpt lat="45.860921583330104" lon="11.463381390546163"><ele>967.0</ele><time>2026-04-23T10:40:34Z</time></trkpt><trkpt lat="45.86074802039448" lon="11.46332308761261"><ele>965.75</ele><time>2026-04-23T10:40:35Z</time></trkpt><trkpt lat="45.86061011174137" lon="11.463258389386016"><ele>964.5</ele><time>2026-04-23T10:40:36Z</time></trkpt><trkpt lat="45.86050773117029" lon="11.463204433880023"><ele>963.25</ele><time>2026-04-23T10:40:37Z</time></trkpt><trkpt lat="45.86041769501367" lon="11.46314057636705"><ele>962.0</ele><time>2026-04-23T10:40:38Z</time></trkpt><trkpt lat="45.860338120799696" lon="11.463065387833652"><ele>962.6</ele><time>2026-04-23T10:40:39Z</time></trkpt><trkpt lat="45.860293318572786" lon="11.462937126363018"><ele>963.2</ele><time>2026-04-23T10:40:40Z</time></trkpt><trkpt lat="45.86027475488299" lon="11.462791221852726"><ele>963.8</ele><time>2026-04-23T10:40:41Z</time></trkpt><trkpt lat="45.86028823869598" lon="11.462631664721883"><ele>964.4</ele><time>2026-04-23T10:40:42Z</time></trkpt><trkpt lat="45.860359650479126" lon="11.462489540919162"><ele>965.0</ele><time>2026-04-23T10:40:43Z</time></trkpt><trkpt lat="45.860427510040815" lon="11.46229312456545"><ele>962.3333333333334</ele><time>2026-04-23T10:40:44Z</time></trkpt><trkpt lat="45.860485662494675" lon="11.462050443778551"><ele>959.6666666666667</ele><time>2026-04-23T10:40:45Z</time></trkpt><trkpt lat="45.860569347605946" lon="11.46180724096069"><ele>957.0</ele><time>2026-04-23T10:40:46Z</time></trkpt><trkpt lat="45.86065007081145" lon="11.461558022141107"><ele>957.0</ele><time>2026-04-23T10:40:47Z</time></trkpt><trkpt lat="45.860737565066884" lon="11.461297961516294"><ele>957.0</ele><time>2026-04-23T10:40:48Z</time></trkpt><trkpt lat="45.86083330847128" lon="11.461078999057813"><ele>957.0</ele><time>2026-04-23T10:40:49Z</time></trkpt><trkpt lat="45.86087523168036" lon="11.460873693939257"><ele>956.75</ele><time>2026-04-23T10:40:50Z</time></trkpt><trkpt lat="45.860911593054865" lon="11.460676731613145"><ele>956.5</ele><time>2026-04-23T10:40:51Z</time></trkpt><trkpt lat="45.860912900848966" lon="11.460481916120491"><ele>956.25</ele><time>2026-04-23T10:40:52Z</time></trkpt><trkpt lat="45.86088918681345" lon="11.460282837058138"><ele>956.0</ele><time>2026-04-23T10:40:53Z</time></trkpt><trkpt lat="45.86082879545923" lon="11.460043477626966"><ele>956.0</ele><time>2026-04-23T10:40:54Z</time></trkpt><trkpt lat="45.86075533688902" lon="11.459761085212557"><ele>956.0</ele><time>2026-04-23T10:40:55Z</time></trkpt><trkpt lat="45.8606832837749" lon="11.45944370969207"><ele>956.0</ele><time>2026-04-23T10:40:56Z</time></trkpt><trkpt lat="45.860621459448936" lon="11.459129068701733"><ele>956.3333333333334</ele><time>2026-04-23T10:40:57Z</time></trkpt><trkpt lat="45.860559077933345" lon="11.458857881973195"><ele>956.6666666666667</ele><time>2026-04-23T10:40:58Z</time></trkpt><trkpt lat="45.860498267842004" lon="11.458602996432887"><ele>957.0</ele><time>2026-04-23T10:40:59Z</time></trkpt><trkpt lat="45.86041461381397" lon="11.458363496934691"><ele>955.6666666666667</ele><time>2026-04-23T10:41:00Z</time></trkpt><trkpt lat="45.86029995187123" lon="11.458119459353407"><ele>954.3333333333334</ele><time>2026-04-23T10:41:01Z</time></trkpt><trkpt lat="45.86015190148703" lon="11.457867822764731"><ele>953.0</ele><time>2026-04-23T10:41:02Z</time></trkpt><trkpt lat="45.86001685424685" lon="11.45763509394816"><ele>950.5</ele><time>2026-04-23T10:41:03Z</time></trkpt><trkpt lat="45.85991095615611" lon="11.457447256950994"><ele>948.0</ele><time>2026-04-23T10:41:04Z</time></trkpt><trkpt lat="45.85982543506048" lon="11.457307439649764"><ele>945.5</ele><time>2026-04-23T10:41:05Z</time></trkpt><trkpt lat="45.85972510571758" lon="11.457187530276011"><ele>943.0</ele><time>2026-04-23T10:41:06Z</time></trkpt><trkpt lat="45.85960302558861" lon="11.457101724421777"><ele>943.0</ele><time>2026-04-23T10:41:07Z</time></trkpt><trkpt lat="45.85946260347412" lon="11.457069251464556"><ele>943.0</ele><time>2026-04-23T10:41:08Z</time></trkpt><trkpt lat="45.859296216035425" lon="11.457083821652569"><ele>943.0</ele><time>2026-04-23T10:41:09Z</time></trkpt><trkpt lat="45.8590957166085" lon="11.457130853152872"><ele>941.0</ele><time>2026-04-23T10:41:10Z</time></trkpt><trkpt lat="45.85887930493072" lon="11.457179225086769"><ele>939.0</ele><time>2026-04-23T10:41:11Z</time></trkpt><trkpt lat="45.8586903958285" lon="11.45720005713317"><ele>937.0</ele><time>2026-04-23T10:41:12Z</time></trkpt><trkpt lat="45.85849269014194" lon="11.457188136045133"><ele>937.0</ele><time>2026-04-23T10:41:13Z</time></trkpt><trkpt lat="45.85827587579604" lon="11.457156534571451"><ele>937.0</ele><time>2026-04-23T10:41:14Z</time></trkpt><trkpt lat="45.85806554432366" lon="11.45713508891845"><ele>937.0</ele><time>2026-04-23T10:41:15Z</time></trkpt><trkpt lat="45.85787041720736" lon="11.457136197335371"><ele>937.0</ele><time>2026-04-23T10:41:16Z</time></trkpt><trkpt lat="45.85766409044108" lon="11.457163582779595"><ele>937.0</ele><time>2026-04-23T10:41:17Z</time></trkpt><trkpt lat="45.85742495030835" lon="11.457211966185836"><ele>937.0</ele><time>2026-04-23T10:41:18Z</time></trkpt><trkpt lat="45.85719114254088" lon="11.457255754744779"><ele>935.5</ele><time>2026-04-23T10:41:19Z</time></trkpt><trkpt lat="45.857013740306705" lon="11.457289345946705"><ele>934.0</ele><time>2026-04-23T10:41:20Z</time></trkpt><trkpt lat="45.85687498553031" lon="11.457314713181278"><ele>932.5</ele><time>2026-04-23T10:41:21Z</time></trkpt><trkpt lat="45.85676494012858" lon="11.457334443547408"><ele>931.0</ele><time>2026-04-23T10:41:22Z</time></trkpt><trkpt lat="45.85667182360244" lon="11.457351390554203"><ele>931.0</ele><time>2026-04-23T10:41:23Z</time></trkpt><trkpt lat="45.85657682782163" lon="11.457347301085054"><ele>930.9999999999999</ele><time>2026-04-23T10:41:24Z</time></trkpt><trkpt lat="45.85649250584239" lon="11.457302451619986"><ele>930.9999999999999</ele><time>2026-04-23T10:41:25Z</time></trkpt><trkpt lat="45.8564355623312" lon="11.457197384540372"><ele>931.0</ele><time>2026-04-23T10:41:26Z</time></trkpt><trkpt lat="45.85639407834142" lon="11.457072419573356"><ele>931.0</ele><time>2026-04-23T10:41:27Z</time></trkpt><trkpt lat="45.856349323058275" lon="11.456899331608467"><ele>931.0</ele><time>2026-04-23T10:41:28Z</time></trkpt><trkpt lat="45.85629369125553" lon="11.456708091439213"><ele>931.0</ele><time>2026-04-23T10:41:29Z</time></trkpt><trkpt lat="45.85622541396101" lon="11.456556025260454"><ele>931.0</ele><time>2026-04-23T10:41:30Z</time></trkpt><trkpt lat="45.85614657832194" lon="11.456434946102451"><ele>931.0</ele><time>2026-04-23T10:41:31Z</time></trkpt><trkpt lat="45.85604271066804" lon="11.456373143550472"><ele>927.5</ele><time>2026-04-23T10:41:32Z</time></trkpt><trkpt lat="45.85592556749044" lon="11.45636714356271"><ele>924.0</ele><time>2026-04-23T10:41:33Z</time></trkpt><trkpt lat="45.8557843519901" lon="11.456397683449786"><ele>920.5</ele><time>2026-04-23T10:41:34Z</time></trkpt><trkpt lat="45.855606315351125" lon="11.456445405065965"><ele>917.0</ele><time>2026-04-23T10:41:35Z</time></trkpt><trkpt lat="45.85540118157539" lon="11.456487699254941"><ele>917.0</ele><time>2026-04-23T10:41:36Z</time></trkpt><trkpt lat="45.85521302098135" lon="11.456520576468158"><ele>917.0</ele><time>2026-04-23T10:41:37Z</time></trkpt><trkpt lat="45.8550459036343" lon="11.456574526977269"><ele>917.0</ele><time>2026-04-23T10:41:38Z</time></trkpt><trkpt lat="45.854873507508294" lon="11.456653393026436"><ele>916.75</ele><time>2026-04-23T10:41:39Z</time></trkpt><trkpt lat="45.85472282692803" lon="11.456719932280484"><ele>916.5</ele><time>2026-04-23T10:41:40Z</time></trkpt><trkpt lat="45.854609119766884" lon="11.456766142074231"><ele>916.25</ele><time>2026-04-23T10:41:41Z</time></trkpt><trkpt lat="45.85451044175199" lon="11.456803199473441"><ele>916.0</ele><time>2026-04-23T10:41:42Z</time></trkpt><trkpt lat="45.854405722560685" lon="11.456778621238985"><ele>914.0</ele><time>2026-04-23T10:41:43Z</time></trkpt><trkpt lat="45.85428360681256" lon="11.456746129165467"><ele>912.0</ele><time>2026-04-23T10:41:44Z</time></trkpt><trkpt lat="45.85413592195907" lon="11.456688435767724"><ele>910.0</ele><time>2026-04-23T10:41:45Z</time></trkpt><trkpt lat="45.85399852342272" lon="11.456618310215726"><ele>908.0</ele><time>2026-04-23T10:41:46Z</time></trkpt><trkpt lat="45.8538581244879" lon="11.456526421238735"><ele>908.0</ele><time>2026-04-23T10:41:47Z</time></trkpt><trkpt lat="45.85370417048998" lon="11.456396806215468"><ele>908.0</ele><time>2026-04-23T10:41:48Z</time></trkpt><trkpt lat="45.853545530292116" lon="11.456249690312843"><ele>908.0</ele><time>2026-04-23T10:41:49Z</time></trkpt><trkpt lat="45.85340173257159" lon="11.45613491627925"><ele>910.0</ele><time>2026-04-23T10:41:50Z</time></trkpt><trkpt lat="45.85326227204888" lon="11.456078620299888"><ele>912.0</ele><time>2026-04-23T10:41:51Z</time></trkpt><trkpt lat="45.853124360571734" lon="11.45604663604696"><ele>914.0</ele><time>2026-04-23T10:41:52Z</time></trkpt><trkpt lat="45.852980255217524" lon="11.456063689222814"><ele>916.0</ele><time>2026-04-23T10:41:53Z</time></trkpt><trkpt lat="45.8528184784676" lon="11.45612239398359"><ele>916.0</ele><time>2026-04-23T10:41:54Z</time></trkpt><trkpt lat="45.852629501776285" lon="11.456219672359786"><ele>916.0</ele><time>2026-04-23T10:41:55Z</time></trkpt><trkpt lat="45.85241335713854" lon="11.456329532818057"><ele>916.0</ele><time>2026-04-23T10:41:56Z</time></trkpt><trkpt lat="45.85219388800618" lon="11.45643579544726"><ele>910.0</ele><time>2026-04-23T10:41:57Z</time></trkpt><trkpt lat="45.85199141967949" lon="11.456527599914413"><ele>904.0</ele><time>2026-04-23T10:41:58Z</time></trkpt><trkpt lat="45.85180389522588" lon="11.45661226776771"><ele>898.0</ele><time>2026-04-23T10:41:59Z</time></trkpt><trkpt lat="45.8516423078271" lon="11.456684784098316"><ele>898.0</ele><time>2026-04-23T10:42:00Z</time></trkpt><trkpt lat="45.85151189495048" lon="11.456746179058664"><ele>898.0</ele><time>2026-04-23T10:42:01Z</time></trkpt><trkpt lat="45.85140257623901" lon="11.456800662234448"><ele>898.0</ele><time>2026-04-23T10:42:02Z</time></trkpt><trkpt lat="45.8512945236342" lon="11.456822324576684"><ele>898.0</ele><time>2026-04-23T10:42:03Z</time></trkpt><trkpt lat="45.851187139212094" lon="11.456799082503666"><ele>898.0</ele><time>2026-04-23T10:42:04Z</time></trkpt><trkpt lat="45.85108664535124" lon="11.456730718299951"><ele>898.0</ele><time>2026-04-23T10:42:05Z</time></trkpt><trkpt lat="45.851031900235924" lon="11.456597381074557"><ele>898.0</ele><time>2026-04-23T10:42:06Z</time></trkpt><trkpt lat="45.85098968142223" lon="11.45646082022258"><ele>898.0</ele><time>2026-04-23T10:42:07Z</time></trkpt><trkpt lat="45.850958417030036" lon="11.456289524847309"><ele>898.0</ele><time>2026-04-23T10:42:08Z</time></trkpt><trkpt lat="45.85091371009704" lon="11.456076600636116"><ele>902.0</ele><time>2026-04-23T10:42:09Z</time></trkpt><trkpt lat="45.8508632748144" lon="11.455845781004145"><ele>906.0</ele><time>2026-04-23T10:42:10Z</time></trkpt><trkpt lat="45.850804278020995" lon="11.45564352896953"><ele>910.0</ele><time>2026-04-23T10:42:11Z</time></trkpt><trkpt lat="45.85070600555712" lon="11.455491433029392"><ele>908.3333333333333</ele><time>2026-04-23T10:42:12Z</time></trkpt><trkpt lat="45.85059050679977" lon="11.455319402427726"><ele>906.6666666666667</ele><time>2026-04-23T10:42:13Z</time></trkpt><trkpt lat="45.85050128362313" lon="11.455076414259638"><ele>905.0</ele><time>2026-04-23T10:42:14Z</time></trkpt><trkpt lat="45.850420281621574" lon="11.454840312470562"><ele>905.0</ele><time>2026-04-23T10:42:15Z</time></trkpt><trkpt lat="45.85034093731648" lon="11.454647205633805"><ele>905.0</ele><time>2026-04-23T10:42:16Z</time></trkpt><trkpt lat="45.850219334554495" lon="11.454480329741932"><ele>905.0</ele><time>2026-04-23T10:42:17Z</time></trkpt><trkpt lat="45.850095224601375" lon="11.454261106453101"><ele>909.0</ele><time>2026-04-23T10:42:18Z</time></trkpt><trkpt lat="45.849974476668386" lon="11.454037169755335"><ele>913.0</ele><time>2026-04-23T10:42:19Z</time></trkpt><trkpt lat="45.84987577731863" lon="11.453807473544215"><ele>917.0</ele><time>2026-04-23T10:42:20Z</time></trkpt><trkpt lat="45.84977364648687" lon="11.453624071527038"><ele>917.0</ele><time>2026-04-23T10:42:21Z</time></trkpt><trkpt lat="45.849709552483326" lon="11.453454737247382"><ele>917.0</ele><time>2026-04-23T10:42:22Z</time></trkpt><trkpt lat="45.84961974357905" lon="11.453338469149536"><ele>917.0</ele><time>2026-04-23T10:42:23Z</time></trkpt><trkpt lat="45.84951021896218" lon="11.453259574950838"><ele>917.0</ele><time>2026-04-23T10:42:24Z</time></trkpt><trkpt lat="45.849378127450386" lon="11.453247800444522"><ele>918.75</ele><time>2026-04-23T10:42:25Z</time></trkpt><trkpt lat="45.84923691823469" lon="11.453251858183854"><ele>920.5</ele><time>2026-04-23T10:42:26Z</time></trkpt><trkpt lat="45.84909030049703" lon="11.45327611837211"><ele>922.25</ele><time>2026-04-23T10:42:27Z</time></trkpt><trkpt lat="45.84894122961581" lon="11.45332451320101"><ele>924.0</ele><time>2026-04-23T10:42:28Z</time></trkpt><trkpt lat="45.848823477094335" lon="11.453376597973799"><ele>924.0</ele><time>2026-04-23T10:42:29Z</time></trkpt><trkpt lat="45.848733504294295" lon="11.45341368058518"><ele>924.0</ele><time>2026-04-23T10:42:30Z</time></trkpt><trkpt lat="45.848647046224315" lon="11.453410779081718"><ele>924.0</ele><time>2026-04-23T10:42:31Z</time></trkpt><trkpt lat="45.84857879671225" lon="11.453370700946598"><ele>924.0</ele><time>2026-04-23T10:42:32Z</time></trkpt><trkpt lat="45.848529930715216" lon="11.453287806844305"><ele>924.0</ele><time>2026-04-23T10:42:33Z</time></trkpt><trkpt lat="45.84851989643263" lon="11.453176857075443"><ele>924.0</ele><time>2026-04-23T10:42:34Z</time></trkpt><trkpt lat="45.84855561139321" lon="11.45306448482553"><ele>922.0</ele><time>2026-04-23T10:42:35Z</time></trkpt><trkpt lat="45.848616086283805" lon="11.452941624667442"><ele>920.0</ele><time>2026-04-23T10:42:36Z</time></trkpt><trkpt lat="45.848682737628344" lon="11.452809998175603"><ele>918.0</ele><time>2026-04-23T10:42:37Z</time></trkpt><trkpt lat="45.848738779882595" lon="11.452635661412028"><ele>916.0</ele><time>2026-04-23T10:42:38Z</time></trkpt><trkpt lat="45.84875684823834" lon="11.452403885513354"><ele>916.0</ele><time>2026-04-23T10:42:39Z</time></trkpt><trkpt lat="45.848742319531866" lon="11.452211551367471"><ele>916.0</ele><time>2026-04-23T10:42:40Z</time></trkpt><trkpt lat="45.84873159809384" lon="11.452040845191306"><ele>916.0</ele><time>2026-04-23T10:42:41Z</time></trkpt><trkpt lat="45.84870459186895" lon="11.451859529034463"><ele>916.0</ele><time>2026-04-23T10:42:42Z</time></trkpt><trkpt lat="45.848608873299916" lon="11.451709978613142"><ele>917.6666666666666</ele><time>2026-04-23T10:42:43Z</time></trkpt><trkpt lat="45.8484972214415" lon="11.451565077761472"><ele>919.3333333333333</ele><time>2026-04-23T10:42:44Z</time></trkpt><trkpt lat="45.84835516414482" lon="11.451410324912995"><ele>921.0</ele><time>2026-04-23T10:42:45Z</time></trkpt><trkpt lat="45.84819524195493" lon="11.451225303563056"><ele>922.3333333333333</ele><time>2026-04-23T10:42:46Z</time></trkpt><trkpt lat="45.84803910246794" lon="11.451036127542238"><ele>923.6666666666666</ele><time>2026-04-23T10:42:47Z</time></trkpt><trkpt lat="45.84787026054433" lon="11.450837946656296"><ele>925.0</ele><time>2026-04-23T10:42:48Z</time></trkpt><trkpt lat="45.847685693644024" lon="11.450626377458262"><ele>927.6666666666666</ele><time>2026-04-23T10:42:49Z</time></trkpt><trkpt lat="45.84752456671875" lon="11.450450726013983"><ele>930.3333333333333</ele><time>2026-04-23T10:42:50Z</time></trkpt><trkpt lat="45.847361089617515" lon="11.450306032470792"><ele>933.0</ele><time>2026-04-23T10:42:51Z</time></trkpt><trkpt lat="45.84716492533006" lon="11.450180307032506"><ele>933.0</ele><time>2026-04-23T10:42:52Z</time></trkpt><trkpt lat="45.8469422326682" lon="11.450059856098507"><ele>933.0</ele><time>2026-04-23T10:42:53Z</time></trkpt><trkpt lat="45.846717310567826" lon="11.449941923141296"><ele>935.6666666666667</ele><time>2026-04-23T10:42:53.999Z</time></trkpt><trkpt lat="45.84653057581684" lon="11.449835234867605"><ele>938.3333333333334</ele><time>2026-04-23T10:42:54.999Z</time></trkpt><trkpt lat="45.84637316351007" lon="11.449733411083995"><ele>941.0</ele><time>2026-04-23T10:42:55.999Z</time></trkpt><trkpt lat="45.84623956207028" lon="11.44961128345689"><ele>941.0</ele><time>2026-04-23T10:42:56.999Z</time></trkpt><trkpt lat="45.84612342611685" lon="11.449462301993886"><ele>941.0</ele><time>2026-04-23T10:42:57.999Z</time></trkpt><trkpt lat="45.84604488079848" lon="11.449285884378503"><ele>941.0</ele><time>2026-04-23T10:42:58.999Z</time></trkpt><trkpt lat="45.845989187622806" lon="11.449170978929732"><ele>941.0</ele><time>2026-04-23T10:42:59.999Z</time></trkpt><trkpt lat="45.84594256239176" lon="11.449068865057283"><ele>941.0</ele><time>2026-04-23T10:43:01Z</time></trkpt><trkpt lat="45.84594912654107" lon="11.448953058506357"><ele>940.9999999999999</ele><time>2026-04-23T10:43:02Z</time></trkpt><trkpt lat="45.84597782296424" lon="11.448837709319525"><ele>940.9999999999999</ele><time>2026-04-23T10:43:03Z</time></trkpt><trkpt lat="45.84605057019266" lon="11.448749374094305"><ele>941.0</ele><time>2026-04-23T10:43:04Z</time></trkpt><trkpt lat="45.84613902874166" lon="11.448624687418887"><ele>941.0</ele><time>2026-04-23T10:43:05Z</time></trkpt><trkpt lat="45.84627362302065" lon="11.448501192108152"><ele>943.5</ele><time>2026-04-23T10:43:06Z</time></trkpt><trkpt lat="45.84639288271108" lon="11.448417431219019"><ele>946.0</ele><time>2026-04-23T10:43:07Z</time></trkpt><trkpt lat="45.84649400383219" lon="11.448303386352668"><ele>948.5</ele><time>2026-04-23T10:43:08Z</time></trkpt><trkpt lat="45.84657532707026" lon="11.448120514657457"><ele>951.0</ele><time>2026-04-23T10:43:09Z</time></trkpt><trkpt lat="45.846695709828836" lon="11.44792294869597"><ele>952.3333333333333</ele><time>2026-04-23T10:43:10Z</time></trkpt><trkpt lat="45.84681571696174" lon="11.44768811126054"><ele>953.6666666666666</ele><time>2026-04-23T10:43:11Z</time></trkpt><trkpt lat="45.84693151473939" lon="11.447462511307762"><ele>955.0</ele><time>2026-04-23T10:43:12Z</time></trkpt><trkpt lat="45.84704124972746" lon="11.447249319209872"><ele>957.75</ele><time>2026-04-23T10:43:13Z</time></trkpt><trkpt lat="45.84712209950615" lon="11.447094016437392"><ele>960.5</ele><time>2026-04-23T10:43:14Z</time></trkpt><trkpt lat="45.847193283393466" lon="11.446966809704348"><ele>963.25</ele><time>2026-04-23T10:43:15Z</time></trkpt><trkpt lat="45.847267822417614" lon="11.446860334598211"><ele>966.0</ele><time>2026-04-23T10:43:16Z</time></trkpt><trkpt lat="45.84735950245002" lon="11.446785917756154"><ele>966.0</ele><time>2026-04-23T10:43:17Z</time></trkpt><trkpt lat="45.847456094034804" lon="11.446793280374212"><ele>966.0</ele><time>2026-04-23T10:43:18Z</time></trkpt><trkpt lat="45.84754665019486" lon="11.446854952811787"><ele>966.0</ele><time>2026-04-23T10:43:19Z</time></trkpt><trkpt lat="45.84765600706842" lon="11.446961045459101"><ele>966.0</ele><time>2026-04-23T10:43:20Z</time></trkpt><trkpt lat="45.84779416469638" lon="11.447106973449877"><ele>965.0</ele><time>2026-04-23T10:43:21Z</time></trkpt><trkpt lat="45.84791966656561" lon="11.447225179857215"><ele>964.0</ele><time>2026-04-23T10:43:22Z</time></trkpt><trkpt lat="45.848077509612516" lon="11.447344735613072"><ele>963.0</ele><time>2026-04-23T10:43:23Z</time></trkpt><trkpt lat="45.848242154235294" lon="11.44739315160578"><ele>963.0</ele><time>2026-04-23T10:43:24Z</time></trkpt><trkpt lat="45.84836305634467" lon="11.44740770478425"><ele>963.0</ele><time>2026-04-23T10:43:25Z</time></trkpt><trkpt lat="45.84845860391842" lon="11.447425343362221"><ele>963.0</ele><time>2026-04-23T10:43:26Z</time></trkpt><trkpt lat="45.84853324140762" lon="11.44743912186273"><ele>963.0</ele><time>2026-04-23T10:43:27Z</time></trkpt><trkpt lat="45.84866507460312" lon="11.447454416987169"><ele>963.0</ele><time>2026-04-23T10:43:29Z</time></trkpt><trkpt lat="45.84870179785195" lon="11.447344121978817"><ele>964.4</ele><time>2026-04-23T10:43:30Z</time></trkpt><trkpt lat="45.848693583237676" lon="11.447221919098974"><ele>965.8</ele><time>2026-04-23T10:43:31Z</time></trkpt><trkpt lat="45.84867865335301" lon="11.44710284009262"><ele>967.2</ele><time>2026-04-23T10:43:32Z</time></trkpt><trkpt lat="45.848561345398004" lon="11.447057527494925"><ele>968.6</ele><time>2026-04-23T10:43:33Z</time></trkpt><trkpt lat="45.84844329583845" lon="11.44700550690825"><ele>970.0</ele><time>2026-04-23T10:43:34Z</time></trkpt><trkpt lat="45.848340842324056" lon="11.446970674906911"><ele>971.75</ele><time>2026-04-23T10:43:35Z</time></trkpt><trkpt lat="45.848227611050476" lon="11.446890243505344"><ele>973.5</ele><time>2026-04-23T10:43:36Z</time></trkpt><trkpt lat="45.84807843829414" lon="11.446804364067493"><ele>975.25</ele><time>2026-04-23T10:43:37Z</time></trkpt><trkpt lat="45.84795364874187" lon="11.446722557795594"><ele>977.0</ele><time>2026-04-23T10:43:38Z</time></trkpt><trkpt lat="45.84784720362935" lon="11.446579962935033"><ele>977.0</ele><time>2026-04-23T10:43:39Z</time></trkpt><trkpt lat="45.84777116259701" lon="11.446385991698257"><ele>977.0</ele><time>2026-04-23T10:43:40Z</time></trkpt><trkpt lat="45.847713608200436" lon="11.446165997987793"><ele>977.0</ele><time>2026-04-23T10:43:41Z</time></trkpt><trkpt lat="45.84764668720245" lon="11.445969927932047"><ele>978.0</ele><time>2026-04-23T10:43:42Z</time></trkpt><trkpt lat="45.84755007293598" lon="11.445830628560007"><ele>979.0</ele><time>2026-04-23T10:43:43Z</time></trkpt><trkpt lat="45.84744361802883" lon="11.445681460175008"><ele>980.0</ele><time>2026-04-23T10:43:44Z</time></trkpt><trkpt lat="45.847287356272226" lon="11.445606437163955"><ele>980.0</ele><time>2026-04-23T10:43:45Z</time></trkpt><trkpt lat="45.84711590645569" lon="11.445532540297995"><ele>980.0</ele><time>2026-04-23T10:43:46Z</time></trkpt><trkpt lat="45.8469191454312" lon="11.445462786388674"><ele>980.0</ele><time>2026-04-23T10:43:47Z</time></trkpt><trkpt lat="45.84672943053885" lon="11.44540614445967"><ele>981.4</ele><time>2026-04-23T10:43:48Z</time></trkpt><trkpt lat="45.84659841597205" lon="11.445353301114801"><ele>982.8</ele><time>2026-04-23T10:43:49Z</time></trkpt><trkpt lat="45.84649394408115" lon="11.445293852286554"><ele>984.2</ele><time>2026-04-23T10:43:50Z</time></trkpt><trkpt lat="45.846416931047756" lon="11.44521012410106"><ele>985.6</ele><time>2026-04-23T10:43:51Z</time></trkpt><trkpt lat="45.84638298539915" lon="11.445085325341905"><ele>987.0</ele><time>2026-04-23T10:43:52Z</time></trkpt><trkpt lat="45.84633912876117" lon="11.44494150238625"><ele>987.0</ele><time>2026-04-23T10:43:53Z</time></trkpt><trkpt lat="45.84630606141489" lon="11.444749826831366"><ele>987.0</ele><time>2026-04-23T10:43:54Z</time></trkpt><trkpt lat="45.8462456823082" lon="11.444570819188943"><ele>987.0</ele><time>2026-04-23T10:43:55Z</time></trkpt><trkpt lat="45.84616170073854" lon="11.4444311380308"><ele>987.0</ele><time>2026-04-23T10:43:56Z</time></trkpt><trkpt lat="45.8460497177802" lon="11.444307712597562"><ele>988.5</ele><time>2026-04-23T10:43:57Z</time></trkpt><trkpt lat="45.84590253204285" lon="11.44421138943497"><ele>990.0</ele><time>2026-04-23T10:43:58Z</time></trkpt><trkpt lat="45.84576526220242" lon="11.444149276618912"><ele>991.5</ele><time>2026-04-23T10:43:59Z</time></trkpt><trkpt lat="45.84565957076974" lon="11.444062902093602"><ele>993.0</ele><time>2026-04-23T10:44:00Z</time></trkpt><trkpt lat="45.84558810660537" lon="11.44395121150367"><ele>993.5</ele><time>2026-04-23T10:44:01Z</time></trkpt><trkpt lat="45.845565268727995" lon="11.443793999837798"><ele>994.0</ele><time>2026-04-23T10:44:02Z</time></trkpt><trkpt lat="45.84554126944022" lon="11.443608375329784"><ele>994.5</ele><time>2026-04-23T10:44:03Z</time></trkpt><trkpt lat="45.84551169077035" lon="11.443396809966691"><ele>995.0</ele><time>2026-04-23T10:44:04Z</time></trkpt><trkpt lat="45.84548548465619" lon="11.443217986715847"><ele>995.0</ele><time>2026-04-23T10:44:05Z</time></trkpt><trkpt lat="45.84543028511622" lon="11.443051914567969"><ele>995.0</ele><time>2026-04-23T10:44:06Z</time></trkpt><trkpt lat="45.84532768738075" lon="11.442929391821536"><ele>995.0</ele><time>2026-04-23T10:44:07Z</time></trkpt><trkpt lat="45.845169142634525" lon="11.44290366956694"><ele>995.0</ele><time>2026-04-23T10:44:08Z</time></trkpt><trkpt lat="45.84504312361671" lon="11.442986313496496"><ele>996.0</ele><time>2026-04-23T10:44:09Z</time></trkpt><trkpt lat="45.844927336292464" lon="11.443040632173213"><ele>997.0</ele><time>2026-04-23T10:44:10Z</time></trkpt><trkpt lat="45.84480799801534" lon="11.44314626335816"><ele>998.0</ele><time>2026-04-23T10:44:11Z</time></trkpt><trkpt lat="45.844670306667894" lon="11.44328350318288"><ele>999.0</ele><time>2026-04-23T10:44:12Z</time></trkpt><trkpt lat="45.84454350685114" lon="11.443406927028928"><ele>999.0</ele><time>2026-04-23T10:44:13Z</time></trkpt><trkpt lat="45.84445662857841" lon="11.44348239629614"><ele>999.0000000000001</ele><time>2026-04-23T10:44:14Z</time></trkpt><trkpt lat="45.84436166392545" lon="11.443525355744672"><ele>999.0000000000001</ele><time>2026-04-23T10:44:15Z</time></trkpt><trkpt lat="45.84425211523387" lon="11.443533161797937"><ele>999.0</ele><time>2026-04-23T10:44:16Z</time></trkpt><trkpt lat="45.84414591558493" lon="11.443495455950508"><ele>999.0</ele><time>2026-04-23T10:44:17Z</time></trkpt><trkpt lat="45.84405409554942" lon="11.443415725233061"><ele>999.75</ele><time>2026-04-23T10:44:18Z</time></trkpt><trkpt lat="45.84398435892495" lon="11.443308125551582"><ele>1000.5</ele><time>2026-04-23T10:44:19Z</time></trkpt><trkpt lat="45.84396156355268" lon="11.443163123139943"><ele>1001.25</ele><time>2026-04-23T10:44:20Z</time></trkpt><trkpt lat="45.843947864420045" lon="11.442997271586192"><ele>1002.0</ele><time>2026-04-23T10:44:21Z</time></trkpt><trkpt lat="45.843928469124954" lon="11.442763801059575"><ele>1004.0</ele><time>2026-04-23T10:44:22Z</time></trkpt><trkpt lat="45.84391188863705" lon="11.4425394852431"><ele>1006.0</ele><time>2026-04-23T10:44:23Z</time></trkpt><trkpt lat="45.84389836131997" lon="11.442356475491922"><ele>1008.0</ele><time>2026-04-23T10:44:24Z</time></trkpt><trkpt lat="45.84388615562616" lon="11.442192374839827"><ele>1010.0</ele><time>2026-04-23T10:44:25Z</time></trkpt><trkpt lat="45.84387464453619" lon="11.442039221935731"><ele>1010.6</ele><time>2026-04-23T10:44:26Z</time></trkpt><trkpt lat="45.843863315047024" lon="11.441888485227146"><ele>1011.2</ele><time>2026-04-23T10:44:27Z</time></trkpt><trkpt lat="45.84385157138591" lon="11.441726891573577"><ele>1011.8</ele><time>2026-04-23T10:44:28Z</time></trkpt><trkpt lat="45.843842939429294" lon="11.44158629603155"><ele>1012.4</ele><time>2026-04-23T10:44:29Z</time></trkpt><trkpt lat="45.84383532610645" lon="11.441462291658338"><ele>1013.0</ele><time>2026-04-23T10:44:30Z</time></trkpt><trkpt lat="45.84382652450103" lon="11.441318934099051"><ele>1013.8</ele><time>2026-04-23T10:44:31Z</time></trkpt><trkpt lat="45.843802679167084" lon="11.441176118779602"><ele>1014.5999999999999</ele><time>2026-04-23T10:44:32Z</time></trkpt><trkpt lat="45.84378972976784" lon="11.441044813083579"><ele>1015.4000000000001</ele><time>2026-04-23T10:44:33Z</time></trkpt><trkpt lat="45.84374709997283" lon="11.440935150994786"><ele>1016.2</ele><time>2026-04-23T10:44:33.999Z</time></trkpt><trkpt lat="45.84368188287575" lon="11.440870172959892"><ele>1017.0</ele><time>2026-04-23T10:44:34.999Z</time></trkpt><trkpt lat="45.843576923112614" lon="11.44085061334315"><ele>1017.0</ele><time>2026-04-23T10:44:36.999Z</time></trkpt><trkpt lat="45.843470853228666" lon="11.440899918183554"><ele>1017.0</ele><time>2026-04-23T10:44:38.999Z</time></trkpt><trkpt lat="45.84340876276641" lon="11.440937935964829"><ele>1017.0</ele><time>2026-04-23T10:44:39.999Z</time></trkpt><trkpt lat="45.84334197854085" lon="11.440978903009638"><ele>1017.0</ele><time>2026-04-23T10:44:40.999Z</time></trkpt><trkpt lat="45.84325878865525" lon="11.441019963333519"><ele>1017.0</ele><time>2026-04-23T10:44:41.999Z</time></trkpt><trkpt lat="45.84315342742535" lon="11.441067391972176"><ele>1018.6</ele><time>2026-04-23T10:44:42.999Z</time></trkpt><trkpt lat="45.84306503424236" lon="11.441110364581233"><ele>1020.2</ele><time>2026-04-23T10:44:43.999Z</time></trkpt><trkpt lat="45.84299639401819" lon="11.441148440587169"><ele>1021.8</ele><time>2026-04-23T10:44:44.999Z</time></trkpt><trkpt lat="45.842884866729705" lon="11.441195314369713"><ele>1023.4</ele><time>2026-04-23T10:44:46.999Z</time></trkpt><trkpt lat="45.84276060552536" lon="11.441213021688943"><ele>1025.0</ele><time>2026-04-23T10:44:48.999Z</time></trkpt><trkpt lat="45.8426956683262" lon="11.441206729110583"><ele>1025.0</ele><time>2026-04-23T10:44:49.999Z</time></trkpt><trkpt lat="45.842633598342054" lon="11.441185086797274"><ele>1025.0</ele><time>2026-04-23T10:44:50.999Z</time></trkpt><trkpt lat="45.842560666139434" lon="11.441039719387854"><ele>1025.0</ele><time>2026-04-23T10:44:52.999Z</time></trkpt><trkpt lat="45.842561504848035" lon="11.440923791352198"><ele>1025.0</ele><time>2026-04-23T10:44:53.999Z</time></trkpt><trkpt lat="45.84261082884679" lon="11.440809924877827"><ele>1025.0</ele><time>2026-04-23T10:44:54.999Z</time></trkpt><trkpt lat="45.84264470851495" lon="11.440639336365"><ele>1027.6666666666667</ele><time>2026-04-23T10:44:55.999Z</time></trkpt><trkpt lat="45.84268618337201" lon="11.440430505823967"><ele>1030.3333333333333</ele><time>2026-04-23T10:44:56.999Z</time></trkpt><trkpt lat="45.84273048772997" lon="11.440205864593675"><ele>1033.0</ele><time>2026-04-23T10:44:57.999Z</time></trkpt><trkpt lat="45.842787131769306" lon="11.439915308520115"><ele>1035.0</ele><time>2026-04-23T10:44:58.999Z</time></trkpt><trkpt lat="45.842848545065785" lon="11.439595352511502"><ele>1037.0</ele><time>2026-04-23T10:44:59.999Z</time></trkpt><trkpt lat="45.842913075698625" lon="11.439262339242722"><ele>1037.0</ele><time>2026-04-23T10:45:00.999Z</time></trkpt><trkpt lat="45.84297870113871" lon="11.438926735440397"><ele>1037.0</ele><time>2026-04-23T10:45:01.999Z</time></trkpt><trkpt lat="45.84302296080734" lon="11.438619223253909"><ele>1039.0</ele><time>2026-04-23T10:45:02.999Z</time></trkpt><trkpt lat="45.84309061521151" lon="11.438307153701121"><ele>1041.0</ele><time>2026-04-23T10:45:03.999Z</time></trkpt><trkpt lat="45.84315624603549" lon="11.437961764051053"><ele>1043.3333333333333</ele><time>2026-04-23T10:45:04.999Z</time></trkpt><trkpt lat="45.84323804779564" lon="11.437628527840673"><ele>1045.6666666666665</ele><time>2026-04-23T10:45:05.999Z</time></trkpt><trkpt lat="45.84327964041778" lon="11.43734800148464"><ele>1048.0</ele><time>2026-04-23T10:45:07Z</time></trkpt><trkpt lat="45.84332607965002" lon="11.437122971744458"><ele>1049.0</ele><time>2026-04-23T10:45:08Z</time></trkpt><trkpt lat="45.84337375759791" lon="11.436958316081526"><ele>1050.0</ele><time>2026-04-23T10:45:09Z</time></trkpt><trkpt lat="45.84340622467184" lon="11.43679733079413"><ele>1051.0</ele><time>2026-04-23T10:45:10Z</time></trkpt><trkpt lat="45.8434396634574" lon="11.436631636812136"><ele>1052.0</ele><time>2026-04-23T10:45:11Z</time></trkpt><trkpt lat="45.843458015202415" lon="11.436467417951238"><ele>1052.0</ele><time>2026-04-23T10:45:12Z</time></trkpt><trkpt lat="45.84345703166221" lon="11.436323969529981"><ele>1052.0</ele><time>2026-04-23T10:45:13Z</time></trkpt><trkpt lat="45.843400737464535" lon="11.436187800768653"><ele>1052.0</ele><time>2026-04-23T10:45:14Z</time></trkpt><trkpt lat="45.843326487187745" lon="11.436059923866127"><ele>1052.0</ele><time>2026-04-23T10:45:15Z</time></trkpt><trkpt lat="45.843232193709476" lon="11.435920237911601"><ele>1051.3333333333335</ele><time>2026-04-23T10:45:16Z</time></trkpt><trkpt lat="45.84311349680304" lon="11.435788438607851"><ele>1050.6666666666667</ele><time>2026-04-23T10:45:17Z</time></trkpt><trkpt lat="45.8429676079374" lon="11.435640957771483"><ele>1050.0</ele><time>2026-04-23T10:45:18Z</time></trkpt><trkpt lat="45.84280893663634" lon="11.43544660433923"><ele>1050.5</ele><time>2026-04-23T10:45:19Z</time></trkpt><trkpt lat="45.8426233170945" lon="11.435280478330261"><ele>1051.0</ele><time>2026-04-23T10:45:20Z</time></trkpt><trkpt lat="45.84243311556945" lon="11.43508570455839"><ele>1051.0</ele><time>2026-04-23T10:45:21Z</time></trkpt><trkpt lat="45.842233867240246" lon="11.434883505432179"><ele>1051.0</ele><time>2026-04-23T10:45:22Z</time></trkpt><trkpt lat="45.842066641520084" lon="11.434688218780028"><ele>1051.0</ele><time>2026-04-23T10:45:23Z</time></trkpt><trkpt lat="45.84190234616545" lon="11.434521155490671"><ele>1051.0</ele><time>2026-04-23T10:45:24Z</time></trkpt><trkpt lat="45.8417312085443" lon="11.43437008287066"><ele>1051.0</ele><time>2026-04-23T10:45:25Z</time></trkpt><trkpt lat="45.841566706302736" lon="11.434205508237886"><ele>1051.0</ele><time>2026-04-23T10:45:26Z</time></trkpt><trkpt lat="45.841414484349535" lon="11.434055296312557"><ele>1051.0</ele><time>2026-04-23T10:45:27Z</time></trkpt><trkpt lat="45.84127938842762" lon="11.433916428817584"><ele>1051.0</ele><time>2026-04-23T10:45:28Z</time></trkpt><trkpt lat="45.84115795795909" lon="11.4337918714936"><ele>1051.3333333333333</ele><time>2026-04-23T10:45:29Z</time></trkpt><trkpt lat="45.84103427506268" lon="11.433672486017647"><ele>1051.6666666666667</ele><time>2026-04-23T10:45:30Z</time></trkpt><trkpt lat="45.84089795696461" lon="11.43356938055567"><ele>1052.0</ele><time>2026-04-23T10:45:31Z</time></trkpt><trkpt lat="45.84074733503762" lon="11.43348175695725"><ele>1050.6666666666667</ele><time>2026-04-23T10:45:32Z</time></trkpt><trkpt lat="45.84057777826887" lon="11.433414346772931"><ele>1049.3333333333333</ele><time>2026-04-23T10:45:33Z</time></trkpt><trkpt lat="45.840403089909984" lon="11.433316212390055"><ele>1048.0</ele><time>2026-04-23T10:45:34Z</time></trkpt><trkpt lat="45.84022890654429" lon="11.433176539447258"><ele>1048.5</ele><time>2026-04-23T10:45:35Z</time></trkpt><trkpt lat="45.84002835931632" lon="11.433010708329475"><ele>1049.0</ele><time>2026-04-23T10:45:36Z</time></trkpt><trkpt lat="45.83983612248844" lon="11.432851301562717"><ele>1049.3333333333335</ele><time>2026-04-23T10:45:37Z</time></trkpt><trkpt lat="45.83966598861471" lon="11.432710260971158"><ele>1049.6666666666667</ele><time>2026-04-23T10:45:38Z</time></trkpt><trkpt lat="45.83951084051908" lon="11.432573426488421"><ele>1050.0</ele><time>2026-04-23T10:45:39Z</time></trkpt><trkpt lat="45.8393434250292" lon="11.43245782768739"><ele>1050.3333333333333</ele><time>2026-04-23T10:45:40Z</time></trkpt><trkpt lat="45.83915362144074" lon="11.432361847060799"><ele>1050.6666666666665</ele><time>2026-04-23T10:45:41Z</time></trkpt><trkpt lat="45.83894985283484" lon="11.432295875895884"><ele>1051.0</ele><time>2026-04-23T10:45:42Z</time></trkpt><trkpt lat="45.838718867918054" lon="11.43224126954701"><ele>1051.0</ele><time>2026-04-23T10:45:43Z</time></trkpt><trkpt lat="45.83847489223298" lon="11.432188681570594"><ele>1051.0</ele><time>2026-04-23T10:45:44Z</time></trkpt><trkpt lat="45.838263379554206" lon="11.432146595488149"><ele>1050.3333333333333</ele><time>2026-04-23T10:45:45Z</time></trkpt><trkpt lat="45.83807917065619" lon="11.432106517128812"><ele>1049.6666666666667</ele><time>2026-04-23T10:45:46Z</time></trkpt><trkpt lat="45.837911666279034" lon="11.432098022227985"><ele>1049.0</ele><time>2026-04-23T10:45:47Z</time></trkpt><trkpt lat="45.83774680165335" lon="11.432105211382257"><ele>1049.6666666666667</ele><time>2026-04-23T10:45:48Z</time></trkpt><trkpt lat="45.83759005200869" lon="11.432121234327868"><ele>1050.3333333333333</ele><time>2026-04-23T10:45:49Z</time></trkpt><trkpt lat="45.83743460024228" lon="11.432161365623292"><ele>1051.0</ele><time>2026-04-23T10:45:50Z</time></trkpt><trkpt lat="45.8372648441605" lon="11.432233143605735"><ele>1051.0</ele><time>2026-04-23T10:45:51Z</time></trkpt><trkpt lat="45.837072471799964" lon="11.432336974485942"><ele>1051.0</ele><time>2026-04-23T10:45:52Z</time></trkpt><trkpt lat="45.836863388660426" lon="11.432448383900054"><ele>1051.0</ele><time>2026-04-23T10:45:53Z</time></trkpt><trkpt lat="45.83663702800594" lon="11.432560697298502"><ele>1049.0</ele><time>2026-04-23T10:45:54Z</time></trkpt><trkpt lat="45.83642926375473" lon="11.432661545144823"><ele>1047.0</ele><time>2026-04-23T10:45:55Z</time></trkpt><trkpt lat="45.83624155855586" lon="11.432752422989939"><ele>1045.0</ele><time>2026-04-23T10:45:56Z</time></trkpt><trkpt lat="45.83605693158012" lon="11.432827144981006"><ele>1045.0</ele><time>2026-04-23T10:45:57Z</time></trkpt><trkpt lat="45.83587036558878" lon="11.432883919975614"><ele>1045.0</ele><time>2026-04-23T10:45:58Z</time></trkpt><trkpt lat="45.83566861307978" lon="11.432917053812718"><ele>1045.0</ele><time>2026-04-23T10:45:59Z</time></trkpt><trkpt lat="45.83545101605813" lon="11.43292782422903"><ele>1045.0</ele><time>2026-04-23T10:46:00Z</time></trkpt><trkpt lat="45.83523086308593" lon="11.43292166111056"><ele>1045.0</ele><time>2026-04-23T10:46:01Z</time></trkpt><trkpt lat="45.83503208507075" lon="11.432919469364768"><ele>1045.0</ele><time>2026-04-23T10:46:02Z</time></trkpt><trkpt lat="45.834843023203454" lon="11.432937351814262"><ele>1044.3333333333333</ele><time>2026-04-23T10:46:03Z</time></trkpt><trkpt lat="45.83466363223243" lon="11.432973863266788"><ele>1043.6666666666667</ele><time>2026-04-23T10:46:04Z</time></trkpt><trkpt lat="45.834477570717695" lon="11.433040835823212"><ele>1043.0</ele><time>2026-04-23T10:46:05Z</time></trkpt><trkpt lat="45.834281574438116" lon="11.433140763306898"><ele>1041.3333333333335</ele><time>2026-04-23T10:46:06Z</time></trkpt><trkpt lat="45.834092337493885" lon="11.433274694671475"><ele>1039.6666666666667</ele><time>2026-04-23T10:46:07Z</time></trkpt><trkpt lat="45.83392813479086" lon="11.433428537493455"><ele>1038.0</ele><time>2026-04-23T10:46:08Z</time></trkpt><trkpt lat="45.83377633552369" lon="11.433593978098687"><ele>1038.0</ele><time>2026-04-23T10:46:09Z</time></trkpt><trkpt lat="45.833615089533794" lon="11.433789471776631"><ele>1038.0</ele><time>2026-04-23T10:46:10Z</time></trkpt><trkpt lat="45.8334456935381" lon="11.434006849970421"><ele>1038.0</ele><time>2026-04-23T10:46:11Z</time></trkpt><trkpt lat="45.83327134124294" lon="11.434216115611763"><ele>1037.6666666666667</ele><time>2026-04-23T10:46:12Z</time></trkpt><trkpt lat="45.83310779840053" lon="11.43439894350962"><ele>1037.3333333333335</ele><time>2026-04-23T10:46:13Z</time></trkpt><trkpt lat="45.832947524297126" lon="11.434568335344528"><ele>1037.0</ele><time>2026-04-23T10:46:14Z</time></trkpt><trkpt lat="45.83278300473972" lon="11.434718208930827"><ele>1037.0</ele><time>2026-04-23T10:46:15Z</time></trkpt><trkpt lat="45.83260528960527" lon="11.43485625671322"><ele>1037.0</ele><time>2026-04-23T10:46:16Z</time></trkpt><trkpt lat="45.83240415413541" lon="11.434992958643305"><ele>1037.0</ele><time>2026-04-23T10:46:17Z</time></trkpt><trkpt lat="45.83218964013178" lon="11.435112689165097"><ele>1037.0</ele><time>2026-04-23T10:46:18Z</time></trkpt><trkpt lat="45.83195533844322" lon="11.435227042294898"><ele>1037.0</ele><time>2026-04-23T10:46:19Z</time></trkpt><trkpt lat="45.831698326559305" lon="11.435329244119576"><ele>1036.5</ele><time>2026-04-23T10:46:20Z</time></trkpt><trkpt lat="45.83143448282171" lon="11.435430117780323"><ele>1036.0</ele><time>2026-04-23T10:46:21Z</time></trkpt><trkpt lat="45.83119233279095" lon="11.43552390453676"><ele>1033.5</ele><time>2026-04-23T10:46:22Z</time></trkpt><trkpt lat="45.830932334931646" lon="11.43560604429547"><ele>1031.0</ele><time>2026-04-23T10:46:23Z</time></trkpt><trkpt lat="45.830650431194" lon="11.435661753643215"><ele>1031.0</ele><time>2026-04-23T10:46:24Z</time></trkpt><trkpt lat="45.83035045092324" lon="11.435737896020079"><ele>1031.0</ele><time>2026-04-23T10:46:25Z</time></trkpt><trkpt lat="45.830044122286694" lon="11.435772669550012"><ele>1029.0</ele><time>2026-04-23T10:46:26Z</time></trkpt><trkpt lat="45.82973947180927" lon="11.435834796438474"><ele>1027.0</ele><time>2026-04-23T10:46:27Z</time></trkpt><trkpt lat="45.829448634023876" lon="11.435944295694549"><ele>1026.5</ele><time>2026-04-23T10:46:28Z</time></trkpt><trkpt lat="45.82914389742883" lon="11.436042282548998"><ele>1026.0</ele><time>2026-04-23T10:46:29Z</time></trkpt><trkpt lat="45.82883791945659" lon="11.436140554614608"><ele>1026.0</ele><time>2026-04-23T10:46:30Z</time></trkpt><trkpt lat="45.82855844373393" lon="11.436220022568241"><ele>1026.0</ele><time>2026-04-23T10:46:31Z</time></trkpt><trkpt lat="45.82829549936046" lon="11.436304290253819"><ele>1021.5</ele><time>2026-04-23T10:46:32Z</time></trkpt><trkpt lat="45.82805154709059" lon="11.436388019532636"><ele>1017.0</ele><time>2026-04-23T10:46:33Z</time></trkpt><trkpt lat="45.82782088457446" lon="11.436461879744085"><ele>1018.0</ele><time>2026-04-23T10:46:33.999Z</time></trkpt><trkpt lat="45.82759767012825" lon="11.43652864103043"><ele>1019.0</ele><time>2026-04-23T10:46:34.999Z</time></trkpt><trkpt lat="45.827357715757664" lon="11.436576208265762"><ele>1019.0</ele><time>2026-04-23T10:46:35.999Z</time></trkpt><trkpt lat="45.827095647640846" lon="11.436611993859986"><ele>1019.0</ele><time>2026-04-23T10:46:36.999Z</time></trkpt><trkpt lat="45.826816081169135" lon="11.436644035124923"><ele>1018.0</ele><time>2026-04-23T10:46:37.999Z</time></trkpt><trkpt lat="45.826527673050684" lon="11.43668298821738"><ele>1017.0</ele><time>2026-04-23T10:46:38.999Z</time></trkpt><trkpt lat="45.82625797759805" lon="11.436723812605818"><ele>1017.0</ele><time>2026-04-23T10:46:39.999Z</time></trkpt><trkpt lat="45.82601588102076" lon="11.436761978529972"><ele>1017.0</ele><time>2026-04-23T10:46:40.999Z</time></trkpt><trkpt lat="45.82580507596456" lon="11.436782861200909"><ele>1017.3333333333333</ele><time>2026-04-23T10:46:41.999Z</time></trkpt><trkpt lat="45.82561857946967" lon="11.436812787116995"><ele>1017.6666666666666</ele><time>2026-04-23T10:46:42.999Z</time></trkpt><trkpt lat="45.825447017416096" lon="11.436854326479436"><ele>1018.0</ele><time>2026-04-23T10:46:43.999Z</time></trkpt><trkpt lat="45.82528224803366" lon="11.436927217672741"><ele>1016.3333333333333</ele><time>2026-04-23T10:46:44.999Z</time></trkpt><trkpt lat="45.82511323653746" lon="11.437041324164026"><ele>1014.6666666666667</ele><time>2026-04-23T10:46:45.999Z</time></trkpt><trkpt lat="45.82492799919075" lon="11.437195612509594"><ele>1013.0</ele><time>2026-04-23T10:46:46.999Z</time></trkpt><trkpt lat="45.82472399849337" lon="11.437362961348162"><ele>1013.0</ele><time>2026-04-23T10:46:47.999Z</time></trkpt><trkpt lat="45.82451675279636" lon="11.437525994656335"><ele>1013.0</ele><time>2026-04-23T10:46:48.999Z</time></trkpt><trkpt lat="45.82432032123577" lon="11.43767457871841"><ele>1016.0</ele><time>2026-04-23T10:46:49.999Z</time></trkpt><trkpt lat="45.8241126318208" lon="11.437816827759974"><ele>1019.0</ele><time>2026-04-23T10:46:50.999Z</time></trkpt><trkpt lat="45.82387423378578" lon="11.437956247830362"><ele>1014.5</ele><time>2026-04-23T10:46:51.999Z</time></trkpt><trkpt lat="45.823616776799945" lon="11.438088904187852"><ele>1010.0</ele><time>2026-04-23T10:46:52.999Z</time></trkpt><trkpt lat="45.823367606087444" lon="11.43822231802997"><ele>1008.3333333333334</ele><time>2026-04-23T10:46:53.999Z</time></trkpt><trkpt lat="45.82315496247211" lon="11.438336489673084"><ele>1006.6666666666667</ele><time>2026-04-23T10:46:54.999Z</time></trkpt><trkpt lat="45.82296694526691" lon="11.43843566819264"><ele>1005.0</ele><time>2026-04-23T10:46:55.999Z</time></trkpt><trkpt lat="45.822791951384225" lon="11.438527021195139"><ele>1004.6666666666667</ele><time>2026-04-23T10:46:56.999Z</time></trkpt><trkpt lat="45.82262215638222" lon="11.438603863704648"><ele>1004.3333333333334</ele><time>2026-04-23T10:46:57.999Z</time></trkpt><trkpt lat="45.82245678886942" lon="11.438657139800188"><ele>1004.0</ele><time>2026-04-23T10:46:58.999Z</time></trkpt><trkpt lat="45.822297852950534" lon="11.438689022076224"><ele>1004.0</ele><time>2026-04-23T10:46:59.999Z</time></trkpt><trkpt lat="45.82214997152348" lon="11.438661655947104"><ele>1004.0</ele><time>2026-04-23T10:47:00.999Z</time></trkpt><trkpt lat="45.822003324988685" lon="11.438631818418726"><ele>1004.0</ele><time>2026-04-23T10:47:01.999Z</time></trkpt><trkpt lat="45.82185046384701" lon="11.438603913788233"><ele>1002.0</ele><time>2026-04-23T10:47:02.999Z</time></trkpt><trkpt lat="45.82168441532309" lon="11.438539969083928"><ele>1000.0</ele><time>2026-04-23T10:47:03.999Z</time></trkpt><trkpt lat="45.82149142502136" lon="11.438446270022686"><ele>998.0</ele><time>2026-04-23T10:47:04.999Z</time></trkpt><trkpt lat="45.821283903924765" lon="11.438320507277817"><ele>998.0</ele><time>2026-04-23T10:47:05.999Z</time></trkpt><trkpt lat="45.82108447290597" lon="11.438172385237369"><ele>998.0</ele><time>2026-04-23T10:47:06.999Z</time></trkpt><trkpt lat="45.82090951578326" lon="11.438020791606725"><ele>998.0</ele><time>2026-04-23T10:47:07.999Z</time></trkpt><trkpt lat="45.82071583427112" lon="11.437845698806932"><ele>1000.0</ele><time>2026-04-23T10:47:08.999Z</time></trkpt><trkpt lat="45.820501164537454" lon="11.437641843712091"><ele>1002.0</ele><time>2026-04-23T10:47:09.999Z</time></trkpt><trkpt lat="45.8202830883835" lon="11.43742621268336"><ele>1000.5</ele><time>2026-04-23T10:47:10.999Z</time></trkpt><trkpt lat="45.820083063375165" lon="11.437222827390471"><ele>999.0</ele><time>2026-04-23T10:47:11.999Z</time></trkpt><trkpt lat="45.819863495581934" lon="11.436996510139709"><ele>999.0</ele><time>2026-04-23T10:47:13Z</time></trkpt><trkpt lat="45.819632044827934" lon="11.436762346310177"><ele>999.0</ele><time>2026-04-23T10:47:14Z</time></trkpt><trkpt lat="45.81941766274208" lon="11.436552247094838"><ele>995.5</ele><time>2026-04-23T10:47:15Z</time></trkpt><trkpt lat="45.81921414023713" lon="11.436362784940176"><ele>992.0</ele><time>2026-04-23T10:47:16Z</time></trkpt><trkpt lat="45.81899982042509" lon="11.43619294955835"><ele>992.0</ele><time>2026-04-23T10:47:17Z</time></trkpt><trkpt lat="45.81875990555358" lon="11.43603636594436"><ele>992.0</ele><time>2026-04-23T10:47:18Z</time></trkpt><trkpt lat="45.81852391256377" lon="11.435897731976914"><ele>986.5</ele><time>2026-04-23T10:47:19Z</time></trkpt><trkpt lat="45.818308270641" lon="11.435771364160958"><ele>981.0</ele><time>2026-04-23T10:47:20Z</time></trkpt><trkpt lat="45.81810641876744" lon="11.435645632894412"><ele>981.0</ele><time>2026-04-23T10:47:21Z</time></trkpt><trkpt lat="45.81792159667383" lon="11.435526363743557"><ele>981.0</ele><time>2026-04-23T10:47:22Z</time></trkpt><trkpt lat="45.817752907659695" lon="11.43541456930697"><ele>981.0</ele><time>2026-04-23T10:47:23Z</time></trkpt><trkpt lat="45.81759687471634" lon="11.435294702546482"><ele>981.6666666666667</ele><time>2026-04-23T10:47:24Z</time></trkpt><trkpt lat="45.81745111788884" lon="11.435155897652958"><ele>982.3333333333334</ele><time>2026-04-23T10:47:25Z</time></trkpt><trkpt lat="45.817306740857866" lon="11.434996286362594"><ele>983.0</ele><time>2026-04-23T10:47:26Z</time></trkpt><trkpt lat="45.8171712838875" lon="11.434814782265475"><ele>981.3333333333334</ele><time>2026-04-23T10:47:27Z</time></trkpt><trkpt lat="45.81704493594416" lon="11.43460571470673"><ele>979.6666666666667</ele><time>2026-04-23T10:47:28Z</time></trkpt><trkpt lat="45.81690647545922" lon="11.434352000305244"><ele>978.0</ele><time>2026-04-23T10:47:29Z</time></trkpt><trkpt lat="45.81677018253392" lon="11.434096859876247"><ele>978.0</ele><time>2026-04-23T10:47:30Z</time></trkpt><trkpt lat="45.816632546214485" lon="11.433844182888173"><ele>978.0</ele><time>2026-04-23T10:47:31Z</time></trkpt><trkpt lat="45.816475285311256" lon="11.433557591824673"><ele>982.0</ele><time>2026-04-23T10:47:32Z</time></trkpt><trkpt lat="45.81632767671595" lon="11.433279370752363"><ele>986.0</ele><time>2026-04-23T10:47:33Z</time></trkpt><trkpt lat="45.81619106846338" lon="11.433022664422642"><ele>992.5</ele><time>2026-04-23T10:47:34Z</time></trkpt><trkpt lat="45.816068818105286" lon="11.43273393116487"><ele>999.0</ele><time>2026-04-23T10:47:35Z</time></trkpt><trkpt lat="45.81595014036175" lon="11.432410994267007"><ele>986.5</ele><time>2026-04-23T10:47:36Z</time></trkpt><trkpt lat="45.815844161456155" lon="11.432069577735628"><ele>974.0</ele><time>2026-04-23T10:47:37Z</time></trkpt><trkpt lat="45.815733806097825" lon="11.43168793240695"><ele>974.0</ele><time>2026-04-23T10:47:38Z</time></trkpt><trkpt lat="45.815632362382225" lon="11.4313212830638"><ele>974.0</ele><time>2026-04-23T10:47:39Z</time></trkpt><trkpt lat="45.815536818538135" lon="11.430973723769775"><ele>973.6666666666667</ele><time>2026-04-23T10:47:40Z</time></trkpt><trkpt lat="45.81545480255986" lon="11.430658705770123"><ele>973.3333333333333</ele><time>2026-04-23T10:47:41Z</time></trkpt><trkpt lat="45.81538368733214" lon="11.430386896867784"><ele>973.0</ele><time>2026-04-23T10:47:42Z</time></trkpt><trkpt lat="45.81531693989896" lon="11.43014618652941"><ele>976.0</ele><time>2026-04-23T10:47:43Z</time></trkpt><trkpt lat="45.81524280327244" lon="11.429918574528816"><ele>979.0</ele><time>2026-04-23T10:47:44Z</time></trkpt><trkpt lat="45.81515512015154" lon="11.429711757150447"><ele>982.0</ele><time>2026-04-23T10:47:45Z</time></trkpt><trkpt lat="45.81505200777459" lon="11.429520453523082"><ele>972.6666666666666</ele><time>2026-04-23T10:47:46Z</time></trkpt><trkpt lat="45.814927047451235" lon="11.429346092284206"><ele>963.3333333333333</ele><time>2026-04-23T10:47:47Z</time></trkpt><trkpt lat="45.8147836232835" lon="11.429193432541762"><ele>954.0</ele><time>2026-04-23T10:47:48Z</time></trkpt><trkpt lat="45.81462295695173" lon="11.42904862773948"><ele>954.0</ele><time>2026-04-23T10:47:49Z</time></trkpt><trkpt lat="45.81443755965654" lon="11.428910397330826"><ele>954.0</ele><time>2026-04-23T10:47:50Z</time></trkpt><trkpt lat="45.81422166878539" lon="11.428747511631016"><ele>950.5</ele><time>2026-04-23T10:47:51Z</time></trkpt><trkpt lat="45.814006483923144" lon="11.42857866146333"><ele>947.0</ele><time>2026-04-23T10:47:52Z</time></trkpt><trkpt lat="45.81379627328475" lon="11.428419215732987"><ele>947.0</ele><time>2026-04-23T10:47:53Z</time></trkpt><trkpt lat="45.81356536786871" lon="11.428249783164052"><ele>947.0</ele><time>2026-04-23T10:47:54Z</time></trkpt><trkpt lat="45.81332343519555" lon="11.428067784675152"><ele>945.5</ele><time>2026-04-23T10:47:55Z</time></trkpt><trkpt lat="45.813100843874885" lon="11.427897428271372"><ele>944.0</ele><time>2026-04-23T10:47:56Z</time></trkpt><trkpt lat="45.812887872506195" lon="11.42773604671979"><ele>944.0</ele><time>2026-04-23T10:47:57Z</time></trkpt><trkpt lat="45.81267960768665" lon="11.427574584695638"><ele>944.0</ele><time>2026-04-23T10:47:58Z</time></trkpt><trkpt lat="45.8124642978818" lon="11.427402293392204"><ele>940.0</ele><time>2026-04-23T10:47:59Z</time></trkpt><trkpt lat="45.8122337687873" lon="11.4272274286509"><ele>936.0</ele><time>2026-04-23T10:48:00Z</time></trkpt><trkpt lat="45.812006040833374" lon="11.427058281497857"><ele>933.0</ele><time>2026-04-23T10:48:01Z</time></trkpt><trkpt lat="45.811800142369755" lon="11.426897362687832"><ele>930.0</ele><time>2026-04-23T10:48:02Z</time></trkpt><trkpt lat="45.81161638275852" lon="11.426754262792052"><ele>927.0</ele><time>2026-04-23T10:48:03Z</time></trkpt><trkpt lat="45.81144556766891" lon="11.426628053982371"><ele>927.0</ele><time>2026-04-23T10:48:04Z</time></trkpt><trkpt lat="45.811288881993164" lon="11.426505741763489"><ele>927.0</ele><time>2026-04-23T10:48:05Z</time></trkpt><trkpt lat="45.81112645906415" lon="11.426404492276628"><ele>927.0</ele><time>2026-04-23T10:48:06Z</time></trkpt><trkpt lat="45.810950422150775" lon="11.426324235065781"><ele>922.0</ele><time>2026-04-23T10:48:07Z</time></trkpt><trkpt lat="45.810762083063544" lon="11.426265647174105"><ele>917.0</ele><time>2026-04-23T10:48:08Z</time></trkpt><trkpt lat="45.81056536921419" lon="11.426221565327314"><ele>912.0</ele><time>2026-04-23T10:48:09Z</time></trkpt><trkpt lat="45.81037076265593" lon="11.42617954017591"><ele>912.0</ele><time>2026-04-23T10:48:10Z</time></trkpt><trkpt lat="45.81019621779783" lon="11.426129120175835"><ele>912.0</ele><time>2026-04-23T10:48:11Z</time></trkpt><trkpt lat="45.81003165039524" lon="11.426065218544773"><ele>912.0</ele><time>2026-04-23T10:48:12Z</time></trkpt><trkpt lat="45.809878661170224" lon="11.425975780357996"><ele>910.6666666666667</ele><time>2026-04-23T10:48:13Z</time></trkpt><trkpt lat="45.80973896965764" lon="11.425845739834473"><ele>909.3333333333334</ele><time>2026-04-23T10:48:14Z</time></trkpt><trkpt lat="45.80960924265518" lon="11.425683167829984"><ele>908.0</ele><time>2026-04-23T10:48:15Z</time></trkpt><trkpt lat="45.80948690738719" lon="11.425488750387299"><ele>907.0</ele><time>2026-04-23T10:48:16Z</time></trkpt><trkpt lat="45.809379161785486" lon="11.425309351508137"><ele>906.0</ele><time>2026-04-23T10:48:17Z</time></trkpt><trkpt lat="45.809267537100226" lon="11.42516763500824"><ele>905.0</ele><time>2026-04-23T10:48:18Z</time></trkpt><trkpt lat="45.80913268432243" lon="11.425067457308707"><ele>905.0</ele><time>2026-04-23T10:48:19Z</time></trkpt><trkpt lat="45.8089838577104" lon="11.425002337113751"><ele>905.0</ele><time>2026-04-23T10:48:20Z</time></trkpt><trkpt lat="45.80882641196237" lon="11.424965500503609"><ele>905.0</ele><time>2026-04-23T10:48:21Z</time></trkpt><trkpt lat="45.80865670729638" lon="11.424958935119509"><ele>905.0</ele><time>2026-04-23T10:48:22Z</time></trkpt><trkpt lat="45.80851259726074" lon="11.424947585075737"><ele>905.0</ele><time>2026-04-23T10:48:23Z</time></trkpt><trkpt lat="45.80836450796214" lon="11.424907467318567"><ele>905.0</ele><time>2026-04-23T10:48:24Z</time></trkpt><trkpt lat="45.80823609098681" lon="11.424815355078998"><ele>905.0</ele><time>2026-04-23T10:48:25Z</time></trkpt><trkpt lat="45.808108741177705" lon="11.424705509046113"><ele>900.0</ele><time>2026-04-23T10:48:26Z</time></trkpt><trkpt lat="45.80797422429911" lon="11.424570022444236"><ele>895.0</ele><time>2026-04-23T10:48:27Z</time></trkpt><trkpt lat="45.807824207144265" lon="11.424446659310648"><ele>890.0</ele><time>2026-04-23T10:48:28Z</time></trkpt><trkpt lat="45.807696780236085" lon="11.424300168130912"><ele>891.3333333333334</ele><time>2026-04-23T10:48:29Z</time></trkpt><trkpt lat="45.80756484112994" lon="11.42418519394856"><ele>892.6666666666667</ele><time>2026-04-23T10:48:30Z</time></trkpt><trkpt lat="45.80741900901743" lon="11.424104983966757"><ele>894.0</ele><time>2026-04-23T10:48:31Z</time></trkpt><trkpt lat="45.80726649169203" lon="11.424055140346796"><ele>894.0</ele><time>2026-04-23T10:48:32Z</time></trkpt><trkpt lat="45.807110650020434" lon="11.424033420213481"><ele>894.0</ele><time>2026-04-23T10:48:33Z</time></trkpt><trkpt lat="45.80695373739736" lon="11.424014834135066"><ele>894.0</ele><time>2026-04-23T10:48:33.999Z</time></trkpt><trkpt lat="45.806797658817906" lon="11.423990895836669"><ele>895.75</ele><time>2026-04-23T10:48:34.999Z</time></trkpt><trkpt lat="45.80665267290264" lon="11.423943757685162"><ele>897.5</ele><time>2026-04-23T10:48:35.999Z</time></trkpt><trkpt lat="45.806516990007204" lon="11.423877195934873"><ele>899.25</ele><time>2026-04-23T10:48:36.999Z</time></trkpt><trkpt lat="45.80638953678933" lon="11.423783341226095"><ele>901.0</ele><time>2026-04-23T10:48:37.999Z</time></trkpt><trkpt lat="45.806277844568704" lon="11.423639593560633"><ele>896.0</ele><time>2026-04-23T10:48:38.999Z</time></trkpt><trkpt lat="45.80615817864925" lon="11.42350901829483"><ele>891.0</ele><time>2026-04-23T10:48:39.999Z</time></trkpt><trkpt lat="45.80603829705983" lon="11.42337787566569"><ele>886.0</ele><time>2026-04-23T10:48:40.999Z</time></trkpt><trkpt lat="45.80591683876635" lon="11.423246490486354"><ele>886.0</ele><time>2026-04-23T10:48:41.999Z</time></trkpt><trkpt lat="45.80579773078319" lon="11.423134804824208"><ele>886.0</ele><time>2026-04-23T10:48:42.999Z</time></trkpt><trkpt lat="45.805673729007935" lon="11.42304902887423"><ele>886.0</ele><time>2026-04-23T10:48:43.999Z</time></trkpt><trkpt lat="45.80554406847242" lon="11.422998467911555"><ele>886.0</ele><time>2026-04-23T10:48:44.999Z</time></trkpt><trkpt lat="45.80540545512043" lon="11.42298934733182"><ele>878.0</ele><time>2026-04-23T10:48:45.999Z</time></trkpt><trkpt lat="45.805260794468396" lon="11.42297417951828"><ele>870.0</ele><time>2026-04-23T10:48:46.999Z</time></trkpt><trkpt lat="45.80511078867379" lon="11.422967411401636"><ele>862.0</ele><time>2026-04-23T10:48:47.999Z</time></trkpt><trkpt lat="45.80495558895601" lon="11.422955190482348"><ele>862.0</ele><time>2026-04-23T10:48:48.999Z</time></trkpt><trkpt lat="45.804790976600714" lon="11.422937717342114"><ele>862.0</ele><time>2026-04-23T10:48:49.999Z</time></trkpt><trkpt lat="45.804619494361404" lon="11.422920928588885"><ele>862.0</ele><time>2026-04-23T10:48:50.999Z</time></trkpt><trkpt lat="45.80444072411099" lon="11.422907595256211"><ele>860.6666666666666</ele><time>2026-04-23T10:48:51.999Z</time></trkpt><trkpt lat="45.80425987016889" lon="11.422867160341006"><ele>859.3333333333333</ele><time>2026-04-23T10:48:52.999Z</time></trkpt><trkpt lat="45.80407811409217" lon="11.422849140213682"><ele>858.0</ele><time>2026-04-23T10:48:53.999Z</time></trkpt><trkpt lat="45.80389769620181" lon="11.422826493334895"><ele>858.0</ele><time>2026-04-23T10:48:54.999Z</time></trkpt><trkpt lat="45.803738025716655" lon="11.422778745453844"><ele>858.0</ele><time>2026-04-23T10:48:55.999Z</time></trkpt><trkpt lat="45.80361666361655" lon="11.422760335531018"><ele>858.0</ele><time>2026-04-23T10:48:56.999Z</time></trkpt><trkpt lat="45.80351975945014" lon="11.42270903418888"><ele>858.0</ele><time>2026-04-23T10:48:57.999Z</time></trkpt><trkpt lat="45.803440767362524" lon="11.422661902851736"><ele>858.5</ele><time>2026-04-23T10:48:58.999Z</time></trkpt><trkpt lat="45.80336803082252" lon="11.422622218114144"><ele>859.0</ele><time>2026-04-23T10:48:59.999Z</time></trkpt><trkpt lat="45.803303534483284" lon="11.42259879185438"><ele>859.5</ele><time>2026-04-23T10:49:00.999Z</time></trkpt><trkpt lat="45.80320215353996" lon="11.422564559330068"><ele>860.0</ele><time>2026-04-23T10:49:02.999Z</time></trkpt><trkpt lat="45.80311278090213" lon="11.422593697719396"><ele>860.5</ele><time>2026-04-23T10:49:35Z</time></trkpt><trkpt lat="45.80301214116003" lon="11.422557516939586"><ele>861.0</ele><time>2026-04-23T10:50:51Z</time></trkpt><trkpt lat="45.80291387130815" lon="11.422538467427158"><ele>861.0</ele><time>2026-04-23T10:50:52Z</time></trkpt><trkpt lat="45.80280911439986" lon="11.422510959769"><ele>860.9999999999999</ele><time>2026-04-23T10:50:53Z</time></trkpt><trkpt lat="45.80272239897285" lon="11.42247946780916"><ele>860.9999999999999</ele><time>2026-04-23T10:50:54Z</time></trkpt><trkpt lat="45.80262678640781" lon="11.422441669351679"><ele>861.0</ele><time>2026-04-23T10:50:55Z</time></trkpt><trkpt lat="45.80252184443371" lon="11.42240485959047"><ele>861.0</ele><time>2026-04-23T10:50:56Z</time></trkpt><trkpt lat="45.802402643985026" lon="11.422370593538341"><ele>862.25</ele><time>2026-04-23T10:50:57Z</time></trkpt><trkpt lat="45.80227296905799" lon="11.42233502304025"><ele>863.5</ele><time>2026-04-23T10:50:57.999Z</time></trkpt><trkpt lat="45.80215558214031" lon="11.42231785583348"><ele>864.75</ele><time>2026-04-23T10:50:58.999Z</time></trkpt><trkpt lat="45.802044727297975" lon="11.422323299721219"><ele>866.0</ele><time>2026-04-23T10:50:59.999Z</time></trkpt><trkpt lat="45.80194070884053" lon="11.422346889391171"><ele>866.0</ele><time>2026-04-23T10:51:00.999Z</time></trkpt><trkpt lat="45.8018423483183" lon="11.422382802066894"><ele>865.9999999999999</ele><time>2026-04-23T10:51:01.999Z</time></trkpt><trkpt lat="45.80174265621149" lon="11.422418223562367"><ele>865.9999999999999</ele><time>2026-04-23T10:51:02.999Z</time></trkpt><trkpt lat="45.801636762562794" lon="11.422464605248328"><ele>866.0</ele><time>2026-04-23T10:51:03.999Z</time></trkpt><trkpt lat="45.801530944916244" lon="11.422532065262287"><ele>866.0</ele><time>2026-04-23T10:51:04.999Z</time></trkpt><trkpt lat="45.80143980869215" lon="11.422612077429552"><ele>866.4</ele><time>2026-04-23T10:51:05.999Z</time></trkpt><trkpt lat="45.80136771592003" lon="11.42271305379302"><ele>866.8</ele><time>2026-04-23T10:51:06.999Z</time></trkpt><trkpt lat="45.80132690467956" lon="11.422837249183356"><ele>867.1999999999999</ele><time>2026-04-23T10:51:07.999Z</time></trkpt><trkpt lat="45.80128981139572" lon="11.422951897227591"><ele>867.5999999999999</ele><time>2026-04-23T10:51:08.999Z</time></trkpt><trkpt lat="45.80127363025563" lon="11.423081718512782"><ele>868.0</ele><time>2026-04-23T10:51:09.999Z</time></trkpt><trkpt lat="45.80127728565457" lon="11.423253271176902"><ele>868.0</ele><time>2026-04-23T10:51:10.999Z</time></trkpt><trkpt lat="45.801308741805485" lon="11.423456965613159"><ele>868.0</ele><time>2026-04-23T10:51:11.999Z</time></trkpt><trkpt lat="45.80134864304622" lon="11.423652321216599"><ele>868.0</ele><time>2026-04-23T10:51:12.999Z</time></trkpt><trkpt lat="45.801384792767706" lon="11.42382489074303"><ele>868.0</ele><time>2026-04-23T10:51:13.999Z</time></trkpt><trkpt lat="45.80139976784245" lon="11.423990583905196"><ele>868.75</ele><time>2026-04-23T10:51:14.999Z</time></trkpt><trkpt lat="45.80138629540059" lon="11.42415536551204"><ele>869.5</ele><time>2026-04-23T10:51:15.999Z</time></trkpt><trkpt lat="45.80134424693141" lon="11.424310130209168"><ele>870.25</ele><time>2026-04-23T10:51:16.999Z</time></trkpt><trkpt lat="45.801277261433306" lon="11.424456990027403"><ele>871.0</ele><time>2026-04-23T10:51:17.999Z</time></trkpt><trkpt lat="45.80116482496161" lon="11.424569078853517"><ele>874.5</ele><time>2026-04-23T10:51:18.999Z</time></trkpt><trkpt lat="45.801055518314755" lon="11.42470960380027"><ele>878.0</ele><time>2026-04-23T10:51:19.999Z</time></trkpt><trkpt lat="45.800952070238914" lon="11.424803495003552"><ele>881.5</ele><time>2026-04-23T10:51:20.999Z</time></trkpt><trkpt lat="45.800882309987784" lon="11.424913169678819"><ele>885.0</ele><time>2026-04-23T10:51:21.999Z</time></trkpt><trkpt lat="45.800840760277616" lon="11.425064861188828"><ele>877.5</ele><time>2026-04-23T10:51:22.999Z</time></trkpt><trkpt lat="45.800821187947896" lon="11.425265820907004"><ele>870.0</ele><time>2026-04-23T10:51:23.999Z</time></trkpt><trkpt lat="45.8008024752237" lon="11.425469236686647"><ele>862.5</ele><time>2026-04-23T10:51:25Z</time></trkpt><trkpt lat="45.80076490628343" lon="11.425626813620637"><ele>855.0</ele><time>2026-04-23T10:51:26Z</time></trkpt><trkpt lat="45.80070321463807" lon="11.425758967983544"><ele>855.0</ele><time>2026-04-23T10:51:27Z</time></trkpt><trkpt lat="45.80062435128462" lon="11.425857743054474"><ele>855.0</ele><time>2026-04-23T10:51:28Z</time></trkpt><trkpt lat="45.80052603741738" lon="11.42593480347759"><ele>855.0</ele><time>2026-04-23T10:51:29Z</time></trkpt><trkpt lat="45.800397434211945" lon="11.425988526881298"><ele>855.0</ele><time>2026-04-23T10:51:30Z</time></trkpt><trkpt lat="45.8002886980905" lon="11.426042139006602"><ele>855.0</ele><time>2026-04-23T10:51:31Z</time></trkpt><trkpt lat="45.80020300327143" lon="11.426122246778174"><ele>855.0</ele><time>2026-04-23T10:51:32Z</time></trkpt><trkpt lat="45.80013374562577" lon="11.426228906186752"><ele>855.0</ele><time>2026-04-23T10:51:33Z</time></trkpt><trkpt lat="45.80007501665785" lon="11.426351019021112"><ele>855.0</ele><time>2026-04-23T10:51:34Z</time></trkpt><trkpt lat="45.80003081987598" lon="11.426517323596476"><ele>855.0</ele><time>2026-04-23T10:51:35Z</time></trkpt><trkpt lat="45.80001494047428" lon="11.426727322480577"><ele>853.75</ele><time>2026-04-23T10:51:36Z</time></trkpt><trkpt lat="45.799975612455725" lon="11.426877092564498"><ele>852.5</ele><time>2026-04-23T10:51:37Z</time></trkpt><trkpt lat="45.79990875672342" lon="11.427011119192445"><ele>851.25</ele><time>2026-04-23T10:51:38Z</time></trkpt><trkpt lat="45.79980078094441" lon="11.4271369103874"><ele>850.0</ele><time>2026-04-23T10:51:39Z</time></trkpt><trkpt lat="45.79967841478194" lon="11.427271660588127"><ele>850.0</ele><time>2026-04-23T10:51:40Z</time></trkpt><trkpt lat="45.799585299848" lon="11.427386103738792"><ele>850.0</ele><time>2026-04-23T10:51:41Z</time></trkpt><trkpt lat="45.7995210091393" lon="11.427510692757012"><ele>850.0</ele><time>2026-04-23T10:51:42Z</time></trkpt><trkpt lat="45.79947546055514" lon="11.427656523524925"><ele>850.0</ele><time>2026-04-23T10:51:43Z</time></trkpt><trkpt lat="45.7994543140034" lon="11.427814913651146"><ele>852.5</ele><time>2026-04-23T10:51:44Z</time></trkpt><trkpt lat="45.79945970905894" lon="11.427981045179306"><ele>855.0</ele><time>2026-04-23T10:51:45Z</time></trkpt><trkpt lat="45.79947188812709" lon="11.428148777677714"><ele>857.5</ele><time>2026-04-23T10:51:46Z</time></trkpt><trkpt lat="45.79946313843704" lon="11.42831654633131"><ele>860.0</ele><time>2026-04-23T10:51:47Z</time></trkpt><trkpt lat="45.799433968552066" lon="11.428485305982905"><ele>860.0</ele><time>2026-04-23T10:51:48Z</time></trkpt><trkpt lat="45.7994005647525" lon="11.428638701830122"><ele>860.0</ele><time>2026-04-23T10:51:49Z</time></trkpt><trkpt lat="45.79936682352001" lon="11.42877143983642"><ele>860.0</ele><time>2026-04-23T10:51:50Z</time></trkpt><trkpt lat="45.79932965097586" lon="11.42890280076378"><ele>860.0</ele><time>2026-04-23T10:51:51Z</time></trkpt><trkpt lat="45.79928608723919" lon="11.429045262730819"><ele>860.0</ele><time>2026-04-23T10:51:52Z</time></trkpt><trkpt lat="45.799245648729354" lon="11.429225406359947"><ele>850.0</ele><time>2026-04-23T10:51:53Z</time></trkpt><trkpt lat="45.79917973795083" lon="11.429441427365258"><ele>840.0</ele><time>2026-04-23T10:51:54Z</time></trkpt><trkpt lat="45.79911110288169" lon="11.429634261408147"><ele>830.0</ele><time>2026-04-23T10:51:55Z</time></trkpt><trkpt lat="45.79904190425467" lon="11.429825395911204"><ele>830.0</ele><time>2026-04-23T10:51:56Z</time></trkpt><trkpt lat="45.79894590413195" lon="11.430034093692544"><ele>830.0</ele><time>2026-04-23T10:51:57Z</time></trkpt><trkpt lat="45.798844951051095" lon="11.430258783004026"><ele>830.0</ele><time>2026-04-23T10:51:58Z</time></trkpt><trkpt lat="45.79876320450083" lon="11.43045310227893"><ele>833.25</ele><time>2026-04-23T10:51:59Z</time></trkpt><trkpt lat="45.79868691619146" lon="11.430614570721414"><ele>836.5</ele><time>2026-04-23T10:52:00Z</time></trkpt><trkpt lat="45.798626493192295" lon="11.430773258048397"><ele>839.75</ele><time>2026-04-23T10:52:01Z</time></trkpt><trkpt lat="45.79859412098873" lon="11.430958779851528"><ele>843.0</ele><time>2026-04-23T10:52:02Z</time></trkpt><trkpt lat="45.798586161347984" lon="11.43117601203419"><ele>845.75</ele><time>2026-04-23T10:52:03Z</time></trkpt><trkpt lat="45.798579341718316" lon="11.4313694643869"><ele>848.5</ele><time>2026-04-23T10:52:04Z</time></trkpt><trkpt lat="45.79853823724796" lon="11.431545416180487"><ele>851.25</ele><time>2026-04-23T10:52:05Z</time></trkpt><trkpt lat="45.79847297893664" lon="11.431730571927023"><ele>854.0</ele><time>2026-04-23T10:52:06Z</time></trkpt><trkpt lat="45.798397092113916" lon="11.431895888865407"><ele>847.4000000000001</ele><time>2026-04-23T10:52:07Z</time></trkpt><trkpt lat="45.798339779403385" lon="11.43202221244919"><ele>840.8000000000001</ele><time>2026-04-23T10:52:08Z</time></trkpt><trkpt lat="45.79828646322004" lon="11.432138519427836"><ele>834.2</ele><time>2026-04-23T10:52:09Z</time></trkpt><trkpt lat="45.798235806970204" lon="11.432249742287532"><ele>827.5999999999999</ele><time>2026-04-23T10:52:10Z</time></trkpt><trkpt lat="45.798188103126236" lon="11.432357471296438"><ele>821.0</ele><time>2026-04-23T10:52:11Z</time></trkpt><trkpt lat="45.79814360039774" lon="11.432464922257594"><ele>821.0</ele><time>2026-04-23T10:52:12Z</time></trkpt><trkpt lat="45.79808118469208" lon="11.432596344006695"><ele>821.0</ele><time>2026-04-23T10:52:13Z</time></trkpt><trkpt lat="45.798012454246766" lon="11.432779584733213"><ele>821.0</ele><time>2026-04-23T10:52:14Z</time></trkpt><trkpt lat="45.79796685964484" lon="11.432965746187177"><ele>821.0</ele><time>2026-04-23T10:52:15Z</time></trkpt><trkpt lat="45.79792182317967" lon="11.433163262384754"><ele>823.25</ele><time>2026-04-23T10:52:16Z</time></trkpt><trkpt lat="45.79787585136446" lon="11.433376453041861"><ele>825.5</ele><time>2026-04-23T10:52:17Z</time></trkpt><trkpt lat="45.797836179325344" lon="11.43358418218079"><ele>827.75</ele><time>2026-04-23T10:52:18Z</time></trkpt><trkpt lat="45.797796304727704" lon="11.433775257517896"><ele>830.0</ele><time>2026-04-23T10:52:19Z</time></trkpt><trkpt lat="45.79775537773004" lon="11.433956321604041"><ele>832.0000000000001</ele><time>2026-04-23T10:52:20Z</time></trkpt><trkpt lat="45.79770944059349" lon="11.434109642876283"><ele>834.0</ele><time>2026-04-23T10:52:21Z</time></trkpt><trkpt lat="45.79765624896889" lon="11.434229289884986"><ele>836.0</ele><time>2026-04-23T10:52:22Z</time></trkpt><trkpt lat="45.7976105564977" lon="11.434311426564145"><ele>838.0</ele><time>2026-04-23T10:52:23Z</time></trkpt><trkpt lat="45.79756618870602" lon="11.434403831302276"><ele>840.0000000000001</ele><time>2026-04-23T10:52:25Z</time></trkpt><trkpt lat="45.79754784985066" lon="11.434518931839367"><ele>842.0</ele><time>2026-04-23T10:53:10.999Z</time></trkpt><trkpt lat="45.79753141566822" lon="11.434703658062235"><ele>833.2</ele><time>2026-04-23T10:53:12.999Z</time></trkpt><trkpt lat="45.79749514890932" lon="11.434847393348397"><ele>824.4000000000001</ele><time>2026-04-23T10:53:13.999Z</time></trkpt><trkpt lat="45.79745870700736" lon="11.43496444764141"><ele>815.5999999999999</ele><time>2026-04-23T10:53:14.999Z</time></trkpt><trkpt lat="45.797419616378164" lon="11.435085795330233"><ele>806.8</ele><time>2026-04-23T10:53:15.999Z</time></trkpt><trkpt lat="45.797366831361344" lon="11.435258153284538"><ele>798.0</ele><time>2026-04-23T10:53:16.999Z</time></trkpt><trkpt lat="45.797310170907636" lon="11.435440700327266"><ele>800.0</ele><time>2026-04-23T10:53:17.999Z</time></trkpt><trkpt lat="45.7972601066419" lon="11.435606440960292"><ele>802.0</ele><time>2026-04-23T10:53:18.999Z</time></trkpt><trkpt lat="45.79721345915011" lon="11.435782624348612"><ele>804.0</ele><time>2026-04-23T10:53:19.999Z</time></trkpt><trkpt lat="45.79715579218732" lon="11.435963612807067"><ele>806.0</ele><time>2026-04-23T10:53:20.999Z</time></trkpt><trkpt lat="45.797086266781164" lon="11.43616876952203"><ele>809.0</ele><time>2026-04-23T10:53:21.999Z</time></trkpt><trkpt lat="45.79701539398358" lon="11.43638866559696"><ele>812.0</ele><time>2026-04-23T10:53:22.999Z</time></trkpt><trkpt lat="45.796958630286994" lon="11.43656657167442"><ele>815.0</ele><time>2026-04-23T10:53:23.999Z</time></trkpt><trkpt lat="45.79691577093112" lon="11.436706975159165"><ele>818.0</ele><time>2026-04-23T10:53:24.999Z</time></trkpt><trkpt lat="45.79689211681039" lon="11.43683406318007"><ele>818.0000000000001</ele><time>2026-04-23T10:53:25.999Z</time></trkpt><trkpt lat="45.79688286102842" lon="11.436939288894727"><ele>818.0</ele><time>2026-04-23T10:53:26.999Z</time></trkpt><trkpt lat="45.796803885007805" lon="11.437050288078815"><ele>818.0</ele><time>2026-04-23T10:53:28.999Z</time></trkpt><trkpt lat="45.79672458780248" lon="11.437042452020226"><ele>818.0</ele><time>2026-04-23T10:53:29.999Z</time></trkpt><trkpt lat="45.79666166815613" lon="11.436962773843998"><ele>818.0000000000001</ele><time>2026-04-23T10:53:31Z</time></trkpt><trkpt lat="45.79664745999302" lon="11.436835128240798"><ele>818.0</ele><time>2026-04-23T10:53:32Z</time></trkpt><trkpt lat="45.796684261803684" lon="11.43671011747816"><ele>815.0</ele><time>2026-04-23T10:53:33Z</time></trkpt><trkpt lat="45.79675540532622" lon="11.436569429632476"><ele>812.0</ele><time>2026-04-23T10:53:34Z</time></trkpt><trkpt lat="45.7968214104914" lon="11.436433897575476"><ele>809.0</ele><time>2026-04-23T10:53:35Z</time></trkpt><trkpt lat="45.79688146652654" lon="11.436262107545907"><ele>806.0</ele><time>2026-04-23T10:53:36Z</time></trkpt><trkpt lat="45.79694020436572" lon="11.436042054910926"><ele>806.0</ele><time>2026-04-23T10:53:37Z</time></trkpt><trkpt lat="45.796986442908874" lon="11.435836036428114"><ele>806.0</ele><time>2026-04-23T10:53:38Z</time></trkpt><trkpt lat="45.79703501589648" lon="11.435619020837537"><ele>806.0</ele><time>2026-04-23T10:53:39Z</time></trkpt><trkpt lat="45.797077504368815" lon="11.435370271778911"><ele>803.3333333333334</ele><time>2026-04-23T10:53:40Z</time></trkpt><trkpt lat="45.79711597450681" lon="11.435092813412178"><ele>800.6666666666667</ele><time>2026-04-23T10:53:41Z</time></trkpt><trkpt lat="45.79715925560341" lon="11.434802655770994"><ele>798.0</ele><time>2026-04-23T10:53:42Z</time></trkpt><trkpt lat="45.797195774542175" lon="11.434510571230875"><ele>796.0</ele><time>2026-04-23T10:53:43Z</time></trkpt><trkpt lat="45.797236861208624" lon="11.434169968954869"><ele>794.0</ele><time>2026-04-23T10:53:44Z</time></trkpt><trkpt lat="45.79728830177225" lon="11.433855534094493"><ele>791.6666666666667</ele><time>2026-04-23T10:53:45Z</time></trkpt><trkpt lat="45.79733326905949" lon="11.43356090157078"><ele>789.3333333333333</ele><time>2026-04-23T10:53:46Z</time></trkpt><trkpt lat="45.79738080459271" lon="11.433251220727469"><ele>787.0</ele><time>2026-04-23T10:53:47Z</time></trkpt><trkpt lat="45.79740104208116" lon="11.432924993206399"><ele>783.3333333333333</ele><time>2026-04-23T10:53:48Z</time></trkpt><trkpt lat="45.79741560489772" lon="11.432649722205424"><ele>779.6666666666667</ele><time>2026-04-23T10:53:49Z</time></trkpt><trkpt lat="45.79743107081601" lon="11.432390374578489"><ele>776.0</ele><time>2026-04-23T10:53:50Z</time></trkpt><trkpt lat="45.79745355672418" lon="11.432142927430908"><ele>772.6666666666667</ele><time>2026-04-23T10:53:51Z</time></trkpt><trkpt lat="45.79748336990653" lon="11.43190728011613"><ele>769.3333333333334</ele><time>2026-04-23T10:53:52Z</time></trkpt><trkpt lat="45.79757412155216" lon="11.43168971197179"><ele>766.0</ele><time>2026-04-23T10:53:53Z</time></trkpt><trkpt lat="45.79766153402817" lon="11.431435617304501"><ele>775.3333333333334</ele><time>2026-04-23T10:53:54Z</time></trkpt><trkpt lat="45.7977500046796" lon="11.431232065727334"><ele>784.6666666666667</ele><time>2026-04-23T10:53:55Z</time></trkpt><trkpt lat="45.797801684906226" lon="11.431017073427313"><ele>794.0</ele><time>2026-04-23T10:53:56Z</time></trkpt><trkpt lat="45.79782826870898" lon="11.430782273010088"><ele>794.0</ele><time>2026-04-23T10:53:57Z</time></trkpt><trkpt lat="45.797854258421054" lon="11.43052429102852"><ele>794.0</ele><time>2026-04-23T10:53:58Z</time></trkpt><trkpt lat="45.79786870262814" lon="11.430276541094349"><ele>794.0</ele><time>2026-04-23T10:53:59Z</time></trkpt><trkpt lat="45.797891279815715" lon="11.430044469428687"><ele>791.75</ele><time>2026-04-23T10:54:00Z</time></trkpt><trkpt lat="45.79795254120557" lon="11.429825263041186"><ele>789.5</ele><time>2026-04-23T10:54:01Z</time></trkpt><trkpt lat="45.79801380785253" lon="11.429629885289815"><ele>787.25</ele><time>2026-04-23T10:54:02Z</time></trkpt><trkpt lat="45.79806374012994" lon="11.4294741817371"><ele>785.0</ele><time>2026-04-23T10:54:03Z</time></trkpt><trkpt lat="45.798104664152085" lon="11.429346806515973"><ele>782.6</ele><time>2026-04-23T10:54:04Z</time></trkpt><trkpt lat="45.79812844095211" lon="11.429222661908339"><ele>780.2</ele><time>2026-04-23T10:54:05Z</time></trkpt><trkpt lat="45.79811808065733" lon="11.429101070271576"><ele>777.8</ele><time>2026-04-23T10:54:06Z</time></trkpt><trkpt lat="45.79804604193879" lon="11.42901361850676"><ele>775.4</ele><time>2026-04-23T10:54:07Z</time></trkpt><trkpt lat="45.797943403824405" lon="11.429010481157905"><ele>773.0</ele><time>2026-04-23T10:54:08Z</time></trkpt><trkpt lat="45.79786090006567" lon="11.429067181072336"><ele>773.0</ele><time>2026-04-23T10:54:09Z</time></trkpt><trkpt lat="45.79780418297928" lon="11.429175628788641"><ele>773.0</ele><time>2026-04-23T10:54:10Z</time></trkpt><trkpt lat="45.79777733042388" lon="11.429316829058244"><ele>773.0</ele><time>2026-04-23T10:54:11Z</time></trkpt><trkpt lat="45.79775015180898" lon="11.429513022438037"><ele>773.0</ele><time>2026-04-23T10:54:12Z</time></trkpt><trkpt lat="45.79770696808235" lon="11.429757149961347"><ele>766.0</ele><time>2026-04-23T10:54:13Z</time></trkpt><trkpt lat="45.79765900411392" lon="11.42998134851373"><ele>759.0</ele><time>2026-04-23T10:54:14Z</time></trkpt><trkpt lat="45.797603729716904" lon="11.430250884875289"><ele>752.0</ele><time>2026-04-23T10:54:15Z</time></trkpt><trkpt lat="45.79754393686056" lon="11.430532447512277"><ele>752.0</ele><time>2026-04-23T10:54:16Z</time></trkpt><trkpt lat="45.797486372523615" lon="11.430770969807465"><ele>752.0</ele><time>2026-04-23T10:54:17Z</time></trkpt><trkpt lat="45.797407538426555" lon="11.430982640296678"><ele>752.0</ele><time>2026-04-23T10:54:18Z</time></trkpt><trkpt lat="45.797315247985296" lon="11.431171433404254"><ele>756.6666666666666</ele><time>2026-04-23T10:54:19Z</time></trkpt><trkpt lat="45.79720308897226" lon="11.431350681028585"><ele>761.3333333333334</ele><time>2026-04-23T10:54:20Z</time></trkpt><trkpt lat="45.79710049089586" lon="11.431523858705614"><ele>766.0</ele><time>2026-04-23T10:54:21Z</time></trkpt><trkpt lat="45.79702534782373" lon="11.431731772521369"><ele>766.0</ele><time>2026-04-23T10:54:22Z</time></trkpt><trkpt lat="45.79696417798896" lon="11.43199719552478"><ele>766.0</ele><time>2026-04-23T10:54:23Z</time></trkpt><trkpt lat="45.79691189410978" lon="11.432294328561888"><ele>766.0</ele><time>2026-04-23T10:54:24Z</time></trkpt><trkpt lat="45.796868445835685" lon="11.432591094719195"><ele>756.3333333333334</ele><time>2026-04-23T10:54:25Z</time></trkpt><trkpt lat="45.79682372382426" lon="11.432874770331225"><ele>746.6666666666666</ele><time>2026-04-23T10:54:26Z</time></trkpt><trkpt lat="45.79675760055878" lon="11.433131575249313"><ele>737.0</ele><time>2026-04-23T10:54:27Z</time></trkpt><trkpt lat="45.796668464856616" lon="11.433404396905313"><ele>737.0</ele><time>2026-04-23T10:54:28Z</time></trkpt><trkpt lat="45.79655776169338" lon="11.433717003971319"><ele>737.0</ele><time>2026-04-23T10:54:29Z</time></trkpt><trkpt lat="45.79644820550483" lon="11.434039232122213"><ele>742.5</ele><time>2026-04-23T10:54:30Z</time></trkpt><trkpt lat="45.796341478740345" lon="11.434365803823626"><ele>748.0</ele><time>2026-04-23T10:54:31Z</time></trkpt><trkpt lat="45.796228837910576" lon="11.434703364046506"><ele>750.0</ele><time>2026-04-23T10:54:32Z</time></trkpt><trkpt lat="45.796132692920146" lon="11.434984199841354"><ele>752.0</ele><time>2026-04-23T10:54:33Z</time></trkpt><trkpt lat="45.796050078016954" lon="11.435228320146178"><ele>754.0</ele><time>2026-04-23T10:54:34Z</time></trkpt><trkpt lat="45.79596463321297" lon="11.435459367513191"><ele>745.6666666666667</ele><time>2026-04-23T10:54:35Z</time></trkpt><trkpt lat="45.795861133954325" lon="11.4356675136334"><ele>737.3333333333334</ele><time>2026-04-23T10:54:36Z</time></trkpt><trkpt lat="45.795754407725525" lon="11.43585059130097"><ele>729.0</ele><time>2026-04-23T10:54:37Z</time></trkpt><trkpt lat="45.795674156531746" lon="11.43599329869612"><ele>729.0</ele><time>2026-04-23T10:54:38Z</time></trkpt><trkpt lat="45.79561403518416" lon="11.43610140606943"><ele>729.0</ele><time>2026-04-23T10:54:39Z</time></trkpt><trkpt lat="45.79556034188469" lon="11.43620607394693"><ele>729.0</ele><time>2026-04-23T10:54:40Z</time></trkpt><trkpt lat="45.79549807996139" lon="11.436256987711257"><ele>729.0</ele><time>2026-04-23T10:54:41Z</time></trkpt><trkpt lat="45.79543015667799" lon="11.436244919706763"><ele>729.0</ele><time>2026-04-23T10:54:42Z</time></trkpt><trkpt lat="45.79536983241157" lon="11.436177044096407"><ele>729.0</ele><time>2026-04-23T10:54:43Z</time></trkpt><trkpt lat="45.7953442429143" lon="11.436066550094008"><ele>729.0</ele><time>2026-04-23T10:54:44Z</time></trkpt><trkpt lat="45.79536910723784" lon="11.43596379910704"><ele>729.0</ele><time>2026-04-23T10:54:45Z</time></trkpt><trkpt lat="45.79543711712771" lon="11.435870693000496"><ele>729.0</ele><time>2026-04-23T10:54:46Z</time></trkpt><trkpt lat="45.795553016353004" lon="11.435743570003863"><ele>729.0</ele><time>2026-04-23T10:54:47Z</time></trkpt><trkpt lat="45.79565865773677" lon="11.43559343921951"><ele>725.6666666666666</ele><time>2026-04-23T10:54:48Z</time></trkpt><trkpt lat="45.79573429521186" lon="11.435433756025953"><ele>722.3333333333333</ele><time>2026-04-23T10:54:49Z</time></trkpt><trkpt lat="45.79578774605267" lon="11.43522317023643"><ele>719.0</ele><time>2026-04-23T10:54:50Z</time></trkpt><trkpt lat="45.79585532532399" lon="11.43495796836041"><ele>719.0</ele><time>2026-04-23T10:54:51Z</time></trkpt><trkpt lat="45.79591660667373" lon="11.434669528125136"><ele>719.0</ele><time>2026-04-23T10:54:52Z</time></trkpt><trkpt lat="45.79596719634448" lon="11.434437667476418"><ele>719.0</ele><time>2026-04-23T10:54:52.999Z</time></trkpt><trkpt lat="45.796013205132674" lon="11.434227168930652"><ele>723.5</ele><time>2026-04-23T10:54:53.999Z</time></trkpt><trkpt lat="45.79605479196174" lon="11.43403266942407"><ele>728.0</ele><time>2026-04-23T10:54:54.999Z</time></trkpt><trkpt lat="45.79609376243715" lon="11.43384980308884"><ele>732.5</ele><time>2026-04-23T10:54:55.999Z</time></trkpt><trkpt lat="45.796130761065676" lon="11.433676188709263"><ele>737.0</ele><time>2026-04-23T10:54:56.999Z</time></trkpt><trkpt lat="45.79616702306514" lon="11.433506031643068"><ele>737.0</ele><time>2026-04-23T10:54:57.999Z</time></trkpt><trkpt lat="45.79620679306943" lon="11.433323060907428"><ele>737.0</ele><time>2026-04-23T10:54:58.999Z</time></trkpt><trkpt lat="45.79624252216843" lon="11.433161172395472"><ele>737.0</ele><time>2026-04-23T10:54:59.999Z</time></trkpt><trkpt lat="45.79627600807308" lon="11.43300944798862"><ele>737.0</ele><time>2026-04-23T10:55:00.999Z</time></trkpt><trkpt lat="45.7963098298265" lon="11.432850189263403"><ele>734.25</ele><time>2026-04-23T10:55:01.999Z</time></trkpt><trkpt lat="45.796327017555676" lon="11.432685513129574"><ele>731.5</ele><time>2026-04-23T10:55:02.999Z</time></trkpt><trkpt lat="45.79631846654033" lon="11.432526994647763"><ele>728.75</ele><time>2026-04-23T10:55:03.999Z</time></trkpt><trkpt lat="45.79630575960723" lon="11.432362612913362"><ele>726.0</ele><time>2026-04-23T10:55:04.999Z</time></trkpt><trkpt lat="45.796292913148214" lon="11.43219642590285"><ele>724.5</ele><time>2026-04-23T10:55:05.999Z</time></trkpt><trkpt lat="45.796280320005145" lon="11.432030343269581"><ele>723.0</ele><time>2026-04-23T10:55:06.999Z</time></trkpt><trkpt lat="45.796273781040064" lon="11.431860720545918"><ele>721.5</ele><time>2026-04-23T10:55:07.999Z</time></trkpt><trkpt lat="45.796279674696976" lon="11.431675199898025"><ele>720.0</ele><time>2026-04-23T10:55:08.999Z</time></trkpt><trkpt lat="45.79629522699563" lon="11.431476450887725"><ele>717.0</ele><time>2026-04-23T10:55:09.999Z</time></trkpt><trkpt lat="45.796329783248304" lon="11.431282311302454"><ele>714.0</ele><time>2026-04-23T10:55:10.999Z</time></trkpt><trkpt lat="45.79637562126151" lon="11.431080846889826"><ele>711.0</ele><time>2026-04-23T10:55:11.999Z</time></trkpt><trkpt lat="45.79643132061315" lon="11.430885909733602"><ele>708.0</ele><time>2026-04-23T10:55:12.999Z</time></trkpt><trkpt lat="45.79648915253325" lon="11.430700403498905"><ele>708.0</ele><time>2026-04-23T10:55:13.999Z</time></trkpt><trkpt lat="45.7965334765176" lon="11.43051766626663"><ele>708.0</ele><time>2026-04-23T10:55:14.999Z</time></trkpt><trkpt lat="45.79660016771237" lon="11.430365638677856"><ele>708.0</ele><time>2026-04-23T10:55:15.999Z</time></trkpt><trkpt lat="45.796644826681415" lon="11.430209630228292"><ele>708.0</ele><time>2026-04-23T10:55:16.999Z</time></trkpt><trkpt lat="45.79666928977076" lon="11.43005599411301"><ele>705.75</ele><time>2026-04-23T10:55:17.999Z</time></trkpt><trkpt lat="45.79665557543761" lon="11.429885566345057"><ele>703.5</ele><time>2026-04-23T10:55:18.999Z</time></trkpt><trkpt lat="45.79664903796633" lon="11.42970690943644"><ele>701.25</ele><time>2026-04-23T10:55:19.999Z</time></trkpt><trkpt lat="45.79666882168384" lon="11.429534887171075"><ele>699.0</ele><time>2026-04-23T10:55:20.999Z</time></trkpt><trkpt lat="45.796687985695065" lon="11.429369702956865"><ele>697.4000000000001</ele><time>2026-04-23T10:55:21.999Z</time></trkpt><trkpt lat="45.796717747277356" lon="11.429205710320947"><ele>695.8</ele><time>2026-04-23T10:55:22.999Z</time></trkpt><trkpt lat="45.7967513113543" lon="11.42904663089317"><ele>694.2</ele><time>2026-04-23T10:55:23.999Z</time></trkpt><trkpt lat="45.79678681116118" lon="11.428898257887788"><ele>692.5999999999999</ele><time>2026-04-23T10:55:24.999Z</time></trkpt><trkpt lat="45.796820822700646" lon="11.428754769354535"><ele>691.0</ele><time>2026-04-23T10:55:25.999Z</time></trkpt><trkpt lat="45.796853431626275" lon="11.428624970351184"><ele>694.5</ele><time>2026-04-23T10:55:26.999Z</time></trkpt><trkpt lat="45.79689866014994" lon="11.428518902880974"><ele>698.0</ele><time>2026-04-23T10:55:27.999Z</time></trkpt><trkpt lat="45.79695120462192" lon="11.428428804004783"><ele>701.5</ele><time>2026-04-23T10:55:28.999Z</time></trkpt><trkpt lat="45.797009582573764" lon="11.428354357074898"><ele>705.0</ele><time>2026-04-23T10:55:29.999Z</time></trkpt><trkpt lat="45.797064359760604" lon="11.428290924429344"><ele>708.5</ele><time>2026-04-23T10:55:30.999Z</time></trkpt><trkpt lat="45.79711144146313" lon="11.428211485437071"><ele>712.0</ele><time>2026-04-23T10:55:31.999Z</time></trkpt><trkpt lat="45.797168545608635" lon="11.42814108597464"><ele>712.0</ele><time>2026-04-23T10:55:32.999Z</time></trkpt><trkpt lat="45.79719668137372" lon="11.428043373261179"><ele>712.0</ele><time>2026-04-23T10:55:33.999Z</time></trkpt><trkpt lat="45.79720997577103" lon="11.427934186382565"><ele>712.0</ele><time>2026-04-23T10:55:34.999Z</time></trkpt><trkpt lat="45.797134925960734" lon="11.427846422943007"><ele>712.0</ele><time>2026-04-23T10:55:35.999Z</time></trkpt><trkpt lat="45.797064678959345" lon="11.427811041599401"><ele>712.0</ele><time>2026-04-23T10:55:37Z</time></trkpt><trkpt lat="45.796987787469355" lon="11.427815922513968"><ele>712.0</ele><time>2026-04-23T10:55:38Z</time></trkpt><trkpt lat="45.796916912980656" lon="11.42788889312052"><ele>712.0</ele><time>2026-04-23T10:55:39Z</time></trkpt><trkpt lat="45.796863234320654" lon="11.428019940729675"><ele>712.0</ele><time>2026-04-23T10:55:40Z</time></trkpt><trkpt lat="45.79681491766622" lon="11.428206481495726"><ele>712.0</ele><time>2026-04-23T10:55:41Z</time></trkpt><trkpt lat="45.79674723000623" lon="11.428413574337617"><ele>712.0</ele><time>2026-04-23T10:55:42Z</time></trkpt><trkpt lat="45.79666212197555" lon="11.428595631833872"><ele>707.8</ele><time>2026-04-23T10:55:43Z</time></trkpt><trkpt lat="45.79659293523588" lon="11.428713950467266"><ele>703.6</ele><time>2026-04-23T10:55:44Z</time></trkpt><trkpt lat="45.796542424729935" lon="11.428830620422534"><ele>699.4</ele><time>2026-04-23T10:55:45Z</time></trkpt><trkpt lat="45.79650082971907" lon="11.428955812258605"><ele>695.1999999999999</ele><time>2026-04-23T10:55:46Z</time></trkpt><trkpt lat="45.79645949758633" lon="11.429088527341115"><ele>691.0</ele><time>2026-04-23T10:55:47Z</time></trkpt><trkpt lat="45.796421047554595" lon="11.429231935138644"><ele>691.0</ele><time>2026-04-23T10:55:48Z</time></trkpt><trkpt lat="45.79638404524741" lon="11.429393164201096"><ele>691.0</ele><time>2026-04-23T10:55:49Z</time></trkpt><trkpt lat="45.79634296026708" lon="11.429567888683161"><ele>691.0</ele><time>2026-04-23T10:55:50Z</time></trkpt><trkpt lat="45.79629369831129" lon="11.429756869653762"><ele>691.0</ele><time>2026-04-23T10:55:51Z</time></trkpt><trkpt lat="45.796246108517835" lon="11.42993515771925"><ele>693.0</ele><time>2026-04-23T10:55:52Z</time></trkpt><trkpt lat="45.79619262170084" lon="11.430090869096134"><ele>695.0</ele><time>2026-04-23T10:55:53Z</time></trkpt><trkpt lat="45.79612697564208" lon="11.43023002828453"><ele>697.0</ele><time>2026-04-23T10:55:54Z</time></trkpt><trkpt lat="45.7960545718049" lon="11.430364816441841"><ele>699.0</ele><time>2026-04-23T10:55:55Z</time></trkpt><trkpt lat="45.795971529263845" lon="11.430511553225083"><ele>689.6666666666666</ele><time>2026-04-23T10:55:56Z</time></trkpt><trkpt lat="45.79587936951605" lon="11.43068514678685"><ele>680.3333333333333</ele><time>2026-04-23T10:55:57Z</time></trkpt><trkpt lat="45.79578700322135" lon="11.430894959389175"><ele>671.0</ele><time>2026-04-23T10:55:58Z</time></trkpt><trkpt lat="45.79570907845498" lon="11.431091642915808"><ele>671.0</ele><time>2026-04-23T10:55:59Z</time></trkpt><trkpt lat="45.79564783295823" lon="11.431281679345172"><ele>671.0</ele><time>2026-04-23T10:56:00Z</time></trkpt><trkpt lat="45.79560118898892" lon="11.431479862858787"><ele>671.0</ele><time>2026-04-23T10:56:01Z</time></trkpt><trkpt lat="45.7955672195115" lon="11.431690954025056"><ele>671.0</ele><time>2026-04-23T10:56:02Z</time></trkpt><trkpt lat="45.79554476518185" lon="11.431889047787585"><ele>672.5</ele><time>2026-04-23T10:56:03Z</time></trkpt><trkpt lat="45.795507095336234" lon="11.43207213372667"><ele>674.0</ele><time>2026-04-23T10:56:04Z</time></trkpt><trkpt lat="45.795454332479274" lon="11.432249632191619"><ele>675.5</ele><time>2026-04-23T10:56:05Z</time></trkpt><trkpt lat="45.79539397306003" lon="11.432429956620789"><ele>677.0</ele><time>2026-04-23T10:56:06Z</time></trkpt><trkpt lat="45.79532370344086" lon="11.4326097257779"><ele>679.0</ele><time>2026-04-23T10:56:07Z</time></trkpt><trkpt lat="45.79523636022533" lon="11.432773774346376"><ele>681.0</ele><time>2026-04-23T10:56:08Z</time></trkpt><trkpt lat="45.79513377793616" lon="11.432930216721035"><ele>683.0</ele><time>2026-04-23T10:56:09Z</time></trkpt><trkpt lat="45.795027995571346" lon="11.433073276609306"><ele>685.0</ele><time>2026-04-23T10:56:10Z</time></trkpt><trkpt lat="45.7949371059941" lon="11.43321603892372"><ele>679.25</ele><time>2026-04-23T10:56:11Z</time></trkpt><trkpt lat="45.79484994746132" lon="11.433356121047375"><ele>673.5</ele><time>2026-04-23T10:56:12Z</time></trkpt><trkpt lat="45.794766270941935" lon="11.433490204746224"><ele>667.75</ele><time>2026-04-23T10:56:13Z</time></trkpt><trkpt lat="45.79468659239447" lon="11.433621650500937"><ele>662.0</ele><time>2026-04-23T10:56:14Z</time></trkpt><trkpt lat="45.794601140677706" lon="11.433749101386235"><ele>664.5</ele><time>2026-04-23T10:56:15Z</time></trkpt><trkpt lat="45.79449674010582" lon="11.43389682849815"><ele>667.0</ele><time>2026-04-23T10:56:16Z</time></trkpt><trkpt lat="45.794392030628295" lon="11.434060486710719"><ele>669.5</ele><time>2026-04-23T10:56:17Z</time></trkpt><trkpt lat="45.79429489684536" lon="11.43421606498501"><ele>672.0</ele><time>2026-04-23T10:56:18Z</time></trkpt><trkpt lat="45.79420521692278" lon="11.434354074552061"><ele>667.0</ele><time>2026-04-23T10:56:19Z</time></trkpt><trkpt lat="45.79411849063039" lon="11.4344861804252"><ele>662.0</ele><time>2026-04-23T10:56:20Z</time></trkpt><trkpt lat="45.79403430639418" lon="11.434620519854619"><ele>657.0</ele><time>2026-04-23T10:56:21Z</time></trkpt><trkpt lat="45.79397237384728" lon="11.434755005859206"><ele>652.0</ele><time>2026-04-23T10:56:22Z</time></trkpt><trkpt lat="45.79393479137684" lon="11.434871766558414"><ele>652.0</ele><time>2026-04-23T10:56:23Z</time></trkpt><trkpt lat="45.79390798134077" lon="11.434962604438219"><ele>652.0</ele><time>2026-04-23T10:56:24Z</time></trkpt><trkpt lat="45.7938520436042" lon="11.435064562427545"><ele>652.0</ele><time>2026-04-23T10:56:26Z</time></trkpt><trkpt lat="45.79378900898474" lon="11.435103544087937"><ele>652.0</ele><time>2026-04-23T10:56:28Z</time></trkpt><trkpt lat="45.79370656828624" lon="11.435055741704614"><ele>652.0</ele><time>2026-04-23T10:56:30Z</time></trkpt><trkpt lat="45.79365461898146" lon="11.434917873395536"><ele>652.0</ele><time>2026-04-23T10:56:32Z</time></trkpt><trkpt lat="45.79367898849834" lon="11.434825026118943"><ele>652.0</ele><time>2026-04-23T10:56:33Z</time></trkpt><trkpt lat="45.79373495962476" lon="11.434749400921234"><ele>652.0</ele><time>2026-04-23T10:56:34Z</time></trkpt><trkpt lat="45.79380911074564" lon="11.434667244021279"><ele>652.0</ele><time>2026-04-23T10:56:35Z</time></trkpt><trkpt lat="45.793888571144564" lon="11.434544998528132"><ele>652.0</ele><time>2026-04-23T10:56:36Z</time></trkpt><trkpt lat="45.79396798522826" lon="11.434429030790723"><ele>652.0</ele><time>2026-04-23T10:56:37Z</time></trkpt><trkpt lat="45.79407418933967" lon="11.4342734592283"><ele>650.0</ele><time>2026-04-23T10:56:38Z</time></trkpt><trkpt lat="45.79418941682739" lon="11.434099258300428"><ele>648.0</ele><time>2026-04-23T10:56:39Z</time></trkpt><trkpt lat="45.79426816989295" lon="11.433914500149326"><ele>646.0</ele><time>2026-04-23T10:56:40Z</time></trkpt><trkpt lat="45.79433406919211" lon="11.433726999307467"><ele>650.0</ele><time>2026-04-23T10:56:41Z</time></trkpt><trkpt lat="45.794397632968014" lon="11.433531614112406"><ele>654.0</ele><time>2026-04-23T10:56:42Z</time></trkpt><trkpt lat="45.79445635285154" lon="11.433346723197182"><ele>658.0</ele><time>2026-04-23T10:56:43Z</time></trkpt><trkpt lat="45.79451229437209" lon="11.433168970013812"><ele>662.0</ele><time>2026-04-23T10:56:44Z</time></trkpt><trkpt lat="45.79456758815226" lon="11.432992596318373"><ele>657.6666666666666</ele><time>2026-04-23T10:56:45Z</time></trkpt><trkpt lat="45.79461238519441" lon="11.432794928058556"><ele>653.3333333333334</ele><time>2026-04-23T10:56:46Z</time></trkpt><trkpt lat="45.79468798285718" lon="11.432598003915043"><ele>649.0</ele><time>2026-04-23T10:56:47Z</time></trkpt><trkpt lat="45.79474112789714" lon="11.432392327611783"><ele>649.0</ele><time>2026-04-23T10:56:48Z</time></trkpt><trkpt lat="45.79478478360339" lon="11.432184593759063"><ele>649.0</ele><time>2026-04-23T10:56:49Z</time></trkpt><trkpt lat="45.79482230633344" lon="11.431963127440472"><ele>649.0</ele><time>2026-04-23T10:56:50Z</time></trkpt><trkpt lat="45.79485966422783" lon="11.431718415982486"><ele>645.3333333333334</ele><time>2026-04-23T10:56:51Z</time></trkpt><trkpt lat="45.79489756513595" lon="11.431465908131631"><ele>641.6666666666666</ele><time>2026-04-23T10:56:52Z</time></trkpt><trkpt lat="45.794945106661245" lon="11.431140187684127"><ele>638.0</ele><time>2026-04-23T10:56:53Z</time></trkpt><trkpt lat="45.79495371553031" lon="11.430751986452893"><ele>627.5</ele><time>2026-04-23T10:56:54Z</time></trkpt><trkpt lat="45.79500972433414" lon="11.430351514125661"><ele>617.0</ele><time>2026-04-23T10:56:55Z</time></trkpt><trkpt lat="45.795076340149855" lon="11.42996716009114"><ele>612.5</ele><time>2026-04-23T10:56:56Z</time></trkpt><trkpt lat="45.79514105790757" lon="11.429611206852574"><ele>608.0</ele><time>2026-04-23T10:56:57Z</time></trkpt><trkpt lat="45.79521691074335" lon="11.429284682620725"><ele>616.3333333333333</ele><time>2026-04-23T10:56:58Z</time></trkpt><trkpt lat="45.79526166928749" lon="11.428985208050157"><ele>624.6666666666666</ele><time>2026-04-23T10:56:59Z</time></trkpt><trkpt lat="45.79530096392024" lon="11.42873106483069"><ele>633.0</ele><time>2026-04-23T10:57:00Z</time></trkpt><trkpt lat="45.79533735223945" lon="11.428484335251849"><ele>633.0</ele><time>2026-04-23T10:57:01Z</time></trkpt><trkpt lat="45.79537458388" lon="11.42823421248577"><ele>633.0</ele><time>2026-04-23T10:57:02Z</time></trkpt><trkpt lat="45.79546482909816" lon="11.427998331038424"><ele>633.0</ele><time>2026-04-23T10:57:03Z</time></trkpt><trkpt lat="45.79557314455059" lon="11.427756021789389"><ele>628.6666666666666</ele><time>2026-04-23T10:57:04Z</time></trkpt><trkpt lat="45.795656042386376" lon="11.427532590143267"><ele>624.3333333333333</ele><time>2026-04-23T10:57:05Z</time></trkpt><trkpt lat="45.795738950439386" lon="11.427295911314335"><ele>620.0</ele><time>2026-04-23T10:57:06Z</time></trkpt><trkpt lat="45.79580886368806" lon="11.427045227378224"><ele>625.6666666666666</ele><time>2026-04-23T10:57:07Z</time></trkpt><trkpt lat="45.79587150213492" lon="11.42682894687434"><ele>631.3333333333334</ele><time>2026-04-23T10:57:08Z</time></trkpt><trkpt lat="45.7959301575857" lon="11.426626449076855"><ele>637.0</ele><time>2026-04-23T10:57:09Z</time></trkpt><trkpt lat="45.79602110984034" lon="11.426465369578713"><ele>637.0</ele><time>2026-04-23T10:57:10Z</time></trkpt><trkpt lat="45.796107324198346" lon="11.426336026970464"><ele>637.0</ele><time>2026-04-23T10:57:10.999Z</time></trkpt><trkpt lat="45.79617485730323" lon="11.426233173348514"><ele>637.0</ele><time>2026-04-23T10:57:11.999Z</time></trkpt><trkpt lat="45.79622522718787" lon="11.426134507318134"><ele>637.0</ele><time>2026-04-23T10:57:12.999Z</time></trkpt><trkpt lat="45.79626567586456" lon="11.426024978880944"><ele>637.0</ele><time>2026-04-23T10:57:13.999Z</time></trkpt><trkpt lat="45.79624714240748" lon="11.42590590004064"><ele>633.6</ele><time>2026-04-23T10:57:14.999Z</time></trkpt><trkpt lat="45.79616672445014" lon="11.425825419191302"><ele>630.2</ele><time>2026-04-23T10:57:15.999Z</time></trkpt><trkpt lat="45.79608638997303" lon="11.425811230505245"><ele>626.8</ele><time>2026-04-23T10:57:16.999Z</time></trkpt><trkpt lat="45.79601233622463" lon="11.425863768001332"><ele>623.4</ele><time>2026-04-23T10:57:17.999Z</time></trkpt><trkpt lat="45.79595809863399" lon="11.425969593196209"><ele>620.0</ele><time>2026-04-23T10:57:18.999Z</time></trkpt><trkpt lat="45.795925198711146" lon="11.426120448982388"><ele>613.6666666666666</ele><time>2026-04-23T10:57:19.999Z</time></trkpt><trkpt lat="45.7958629387484" lon="11.426313949474677"><ele>607.3333333333334</ele><time>2026-04-23T10:57:20.999Z</time></trkpt><trkpt lat="45.795766507413965" lon="11.426533291038428"><ele>601.0</ele><time>2026-04-23T10:57:21.999Z</time></trkpt><trkpt lat="45.79566638272642" lon="11.426738152012904"><ele>601.0</ele><time>2026-04-23T10:57:22.999Z</time></trkpt><trkpt lat="45.79554805253421" lon="11.42697604761013"><ele>601.0</ele><time>2026-04-23T10:57:23.999Z</time></trkpt><trkpt lat="45.795432246523674" lon="11.427168014549382"><ele>601.0</ele><time>2026-04-23T10:57:24.999Z</time></trkpt><trkpt lat="45.79531143224039" lon="11.427333225455166"><ele>596.0</ele><time>2026-04-23T10:57:25.999Z</time></trkpt><trkpt lat="45.795168806871445" lon="11.4274801968096"><ele>591.0</ele><time>2026-04-23T10:57:26.999Z</time></trkpt><trkpt lat="45.79502896136566" lon="11.427621450097858"><ele>586.0</ele><time>2026-04-23T10:57:27.999Z</time></trkpt><trkpt lat="45.79490838448506" lon="11.427788906080352"><ele>590.3333333333334</ele><time>2026-04-23T10:57:28.999Z</time></trkpt><trkpt lat="45.79479760365861" lon="11.428015974455013"><ele>594.6666666666666</ele><time>2026-04-23T10:57:29.999Z</time></trkpt><trkpt lat="45.794690957051245" lon="11.428299622635842"><ele>599.0</ele><time>2026-04-23T10:57:30.999Z</time></trkpt><trkpt lat="45.79458433255469" lon="11.428606286159125"><ele>602.0</ele><time>2026-04-23T10:57:31.999Z</time></trkpt><trkpt lat="45.794477572578245" lon="11.428894673613561"><ele>605.0</ele><time>2026-04-23T10:57:32.999Z</time></trkpt><trkpt lat="45.79437332473314" lon="11.429145348171275"><ele>608.0</ele><time>2026-04-23T10:57:33.999Z</time></trkpt><trkpt lat="45.794270396217364" lon="11.429373234049784"><ele>598.3333333333333</ele><time>2026-04-23T10:57:34.999Z</time></trkpt><trkpt lat="45.79417678216304" lon="11.429568909257666"><ele>588.6666666666666</ele><time>2026-04-23T10:57:35.999Z</time></trkpt><trkpt lat="45.79409721195931" lon="11.429750175864099"><ele>579.0</ele><time>2026-04-23T10:57:36.999Z</time></trkpt><trkpt lat="45.79403995915663" lon="11.429946695107532"><ele>579.0</ele><time>2026-04-23T10:57:37.999Z</time></trkpt><trkpt lat="45.79400690599564" lon="11.430128634445687"><ele>579.0</ele><time>2026-04-23T10:57:38.999Z</time></trkpt><trkpt lat="45.7939918387385" lon="11.430279382516064"><ele>579.0</ele><time>2026-04-23T10:57:39.999Z</time></trkpt><trkpt lat="45.79399423736845" lon="11.43039255699128"><ele>579.0</ele><time>2026-04-23T10:57:40.999Z</time></trkpt><trkpt lat="45.7939543231794" lon="11.430548383053042"><ele>579.0</ele><time>2026-04-23T10:57:43Z</time></trkpt><trkpt lat="45.79383775922112" lon="11.430582251583905"><ele>579.0</ele><time>2026-04-23T10:57:45Z</time></trkpt><trkpt lat="45.79378963409497" lon="11.430519095402445"><ele>579.0</ele><time>2026-04-23T10:57:46Z</time></trkpt><trkpt lat="45.79376884625359" lon="11.430415173975033"><ele>579.0</ele><time>2026-04-23T10:57:47Z</time></trkpt><trkpt lat="45.79378189160733" lon="11.430283500188144"><ele>579.0</ele><time>2026-04-23T10:57:48Z</time></trkpt><trkpt lat="45.79382886065786" lon="11.430129227280851"><ele>579.0</ele><time>2026-04-23T10:57:49Z</time></trkpt><trkpt lat="45.79385204610162" lon="11.429968495207012"><ele>579.0</ele><time>2026-04-23T10:57:50Z</time></trkpt><trkpt lat="45.793907708763356" lon="11.42973824956448"><ele>579.0</ele><time>2026-04-23T10:57:51Z</time></trkpt><trkpt lat="45.7939628761739" lon="11.429509634904445"><ele>579.0</ele><time>2026-04-23T10:57:52Z</time></trkpt><trkpt lat="45.79401568261775" lon="11.429274044599484"><ele>577.0</ele><time>2026-04-23T10:57:53Z</time></trkpt><trkpt lat="45.79407498640607" lon="11.428993174876263"><ele>575.0</ele><time>2026-04-23T10:57:54Z</time></trkpt><trkpt lat="45.79413159996956" lon="11.428708377713132"><ele>573.0</ele><time>2026-04-23T10:57:55Z</time></trkpt><trkpt lat="45.79418581512638" lon="11.428413949811656"><ele>569.3333333333334</ele><time>2026-04-23T10:57:56Z</time></trkpt><trkpt lat="45.79422915733633" lon="11.428101570629911"><ele>565.6666666666667</ele><time>2026-04-23T10:57:57Z</time></trkpt><trkpt lat="45.79425734723962" lon="11.427831437063569"><ele>562.0</ele><time>2026-04-23T10:57:58Z</time></trkpt><trkpt lat="45.79428531653973" lon="11.427595467919781"><ele>563.6666666666667</ele><time>2026-04-23T10:57:59Z</time></trkpt><trkpt lat="45.79433014401074" lon="11.427383626326138"><ele>565.3333333333334</ele><time>2026-04-23T10:58:00Z</time></trkpt><trkpt lat="45.794393455671035" lon="11.427189706232468"><ele>567.0</ele><time>2026-04-23T10:58:01Z</time></trkpt><trkpt lat="45.794474377125994" lon="11.427013412216859"><ele>567.0</ele><time>2026-04-23T10:58:02Z</time></trkpt><trkpt lat="45.79458187099074" lon="11.426838699260477"><ele>567.0</ele><time>2026-04-23T10:58:03Z</time></trkpt><trkpt lat="45.794702893384894" lon="11.426664248855912"><ele>567.0</ele><time>2026-04-23T10:58:04Z</time></trkpt><trkpt lat="45.794806979150756" lon="11.426480351131751"><ele>562.0</ele><time>2026-04-23T10:58:05Z</time></trkpt><trkpt lat="45.794905620619474" lon="11.426283464541461"><ele>557.0</ele><time>2026-04-23T10:58:06Z</time></trkpt><trkpt lat="45.79496352254344" lon="11.426029064953122"><ele>552.0</ele><time>2026-04-23T10:58:07Z</time></trkpt><trkpt lat="45.79503641110704" lon="11.425767811278304"><ele>552.0</ele><time>2026-04-23T10:58:08Z</time></trkpt><trkpt lat="45.795104961422446" lon="11.425557441721072"><ele>552.0</ele><time>2026-04-23T10:58:09Z</time></trkpt><trkpt lat="45.79517198373467" lon="11.425377095329646"><ele>552.0</ele><time>2026-04-23T10:58:10Z</time></trkpt><trkpt lat="45.79523259673308" lon="11.425229347682079"><ele>552.0</ele><time>2026-04-23T10:58:11Z</time></trkpt><trkpt lat="45.79527731464883" lon="11.425122276338913"><ele>554.5</ele><time>2026-04-23T10:58:12Z</time></trkpt><trkpt lat="45.795299219422" lon="11.425024818987762"><ele>557.0</ele><time>2026-04-23T10:58:13Z</time></trkpt><trkpt lat="45.79527354878451" lon="11.424923436261963"><ele>559.5</ele><time>2026-04-23T10:58:14Z</time></trkpt><trkpt lat="45.79523522389905" lon="11.424833655043027"><ele>562.0</ele><time>2026-04-23T10:58:15Z</time></trkpt><trkpt lat="45.795140759257826" lon="11.424834098879847"><ele>564.5</ele><time>2026-04-23T10:58:16Z</time></trkpt><trkpt lat="45.795066469664704" lon="11.424878738008248"><ele>567.0</ele><time>2026-04-23T10:58:17Z</time></trkpt><trkpt lat="45.795013075395225" lon="11.42497364680401"><ele>563.25</ele><time>2026-04-23T10:58:18Z</time></trkpt><trkpt lat="45.794978531292244" lon="11.425110869593011"><ele>559.5</ele><time>2026-04-23T10:58:19Z</time></trkpt><trkpt lat="45.794927974577384" lon="11.425299626091903"><ele>555.75</ele><time>2026-04-23T10:58:20Z</time></trkpt><trkpt lat="45.794844675198235" lon="11.425508745774605"><ele>552.0</ele><time>2026-04-23T10:58:21Z</time></trkpt><trkpt lat="45.79476182639864" lon="11.425701120487641"><ele>552.0</ele><time>2026-04-23T10:58:22Z</time></trkpt><trkpt lat="45.794665683099566" lon="11.425898817113056"><ele>552.0</ele><time>2026-04-23T10:58:23Z</time></trkpt><trkpt lat="45.794551577540695" lon="11.426051627763721"><ele>552.0</ele><time>2026-04-23T10:58:24Z</time></trkpt><trkpt lat="45.7944038978317" lon="11.426204172079935"><ele>546.6666666666666</ele><time>2026-04-23T10:58:25Z</time></trkpt><trkpt lat="45.79423838254401" lon="11.426364731058317"><ele>541.3333333333333</ele><time>2026-04-23T10:58:26Z</time></trkpt><trkpt lat="45.794092937086695" lon="11.426531752161717"><ele>536.0</ele><time>2026-04-23T10:58:27Z</time></trkpt><trkpt lat="45.79394797275083" lon="11.42673948333971"><ele>536.0</ele><time>2026-04-23T10:58:28Z</time></trkpt><trkpt lat="45.79380699393743" lon="11.426984193182278"><ele>536.0</ele><time>2026-04-23T10:58:29Z</time></trkpt><trkpt lat="45.79368131132636" lon="11.427241952229089"><ele>536.0</ele><time>2026-04-23T10:58:30Z</time></trkpt><trkpt lat="45.79354577883913" lon="11.42753462423612"><ele>532.3333333333333</ele><time>2026-04-23T10:58:31Z</time></trkpt><trkpt lat="45.793414004892064" lon="11.427782537483301"><ele>528.6666666666666</ele><time>2026-04-23T10:58:32Z</time></trkpt><trkpt lat="45.793293468414774" lon="11.427993832781418"><ele>525.0</ele><time>2026-04-23T10:58:33Z</time></trkpt><trkpt lat="45.79317979779809" lon="11.428182468706387"><ele>525.0</ele><time>2026-04-23T10:58:34Z</time></trkpt><trkpt lat="45.79307432201624" lon="11.428350244182083"><ele>525.0</ele><time>2026-04-23T10:58:35Z</time></trkpt><trkpt lat="45.792988156975696" lon="11.428519976077943"><ele>525.0</ele><time>2026-04-23T10:58:36Z</time></trkpt><trkpt lat="45.79292618030327" lon="11.428703362005725"><ele>525.0</ele><time>2026-04-23T10:58:37Z</time></trkpt><trkpt lat="45.79287937356127" lon="11.428950358572743"><ele>529.3333333333334</ele><time>2026-04-23T10:58:38Z</time></trkpt><trkpt lat="45.79283356811391" lon="11.429251568988391"><ele>533.6666666666667</ele><time>2026-04-23T10:58:39Z</time></trkpt><trkpt lat="45.7927945434752" lon="11.42950518413188"><ele>538.0</ele><time>2026-04-23T10:58:40Z</time></trkpt><trkpt lat="45.79275802437478" lon="11.429713333048628"><ele>539.6</ele><time>2026-04-23T10:58:41Z</time></trkpt><trkpt lat="45.79272537776316" lon="11.42989673461527"><ele>541.1999999999999</ele><time>2026-04-23T10:58:42Z</time></trkpt><trkpt lat="45.79267486977393" lon="11.430056080250445"><ele>542.8</ele><time>2026-04-23T10:58:43Z</time></trkpt><trkpt lat="45.79261826730542" lon="11.430166361219698"><ele>544.4</ele><time>2026-04-23T10:58:44Z</time></trkpt><trkpt lat="45.792563161560665" lon="11.430240366316484"><ele>546.0</ele><time>2026-04-23T10:58:45Z</time></trkpt><trkpt lat="45.792503732014666" lon="11.43030062172902"><ele>540.1666666666666</ele><time>2026-04-23T10:58:46Z</time></trkpt><trkpt lat="45.79239969417343" lon="11.430319463494621"><ele>534.3333333333334</ele><time>2026-04-23T10:58:48Z</time></trkpt><trkpt lat="45.792320560151886" lon="11.430316581994969"><ele>528.5</ele><time>2026-04-23T10:58:50Z</time></trkpt><trkpt lat="45.79221992504839" lon="11.43030872871166"><ele>522.6666666666667</ele><time>2026-04-23T10:58:53Z</time></trkpt><trkpt lat="45.7922673457559" lon="11.430393636747981"><ele>516.8333333333334</ele><time>2026-04-23T10:59:44.999Z</time></trkpt><trkpt lat="45.79233071764241" lon="11.43045380568199"><ele>511.0</ele><time>2026-04-23T10:59:46.999Z</time></trkpt><trkpt lat="45.79239885987784" lon="11.43044787225713"><ele>511.0</ele><time>2026-04-23T10:59:47.999Z</time></trkpt><trkpt lat="45.79248617837941" lon="11.430403890563143"><ele>511.0</ele><time>2026-04-23T10:59:49Z</time></trkpt><trkpt lat="45.79255646654181" lon="11.430349253386211"><ele>511.0</ele><time>2026-04-23T10:59:50Z</time></trkpt><trkpt lat="45.79261072848345" lon="11.430274845476951"><ele>511.0</ele><time>2026-04-23T10:59:51Z</time></trkpt><trkpt lat="45.7926767393455" lon="11.430176529833775"><ele>511.0</ele><time>2026-04-23T10:59:52Z</time></trkpt><trkpt lat="45.792736429056724" lon="11.4300292496819"><ele>520.0</ele><time>2026-04-23T10:59:53Z</time></trkpt><trkpt lat="45.792789223577095" lon="11.429828905468787"><ele>529.0</ele><time>2026-04-23T10:59:54Z</time></trkpt><trkpt lat="45.79282591649386" lon="11.429622543560743"><ele>538.0</ele><time>2026-04-23T10:59:55Z</time></trkpt><trkpt lat="45.79284979144559" lon="11.429386000168675"><ele>538.0</ele><time>2026-04-23T10:59:56Z</time></trkpt><trkpt lat="45.79288146530827" lon="11.429114336797227"><ele>538.0</ele><time>2026-04-23T10:59:57Z</time></trkpt><trkpt lat="45.79292315311896" lon="11.42887393710317"><ele>538.0</ele><time>2026-04-23T10:59:58Z</time></trkpt><trkpt lat="45.79297140181363" lon="11.428656888115636"><ele>533.6666666666667</ele><time>2026-04-23T10:59:59Z</time></trkpt><trkpt lat="45.79305157308427" lon="11.428443486795201"><ele>529.3333333333334</ele><time>2026-04-23T11:00:00Z</time></trkpt><trkpt lat="45.79316535109858" lon="11.42823060938694"><ele>525.0</ele><time>2026-04-23T11:00:01Z</time></trkpt><trkpt lat="45.79332264183254" lon="11.428023729960962"><ele>522.3333333333334</ele><time>2026-04-23T11:00:02Z</time></trkpt><trkpt lat="45.7934526427452" lon="11.427775723134173"><ele>519.6666666666667</ele><time>2026-04-23T11:00:03Z</time></trkpt><trkpt lat="45.79358719543283" lon="11.427512070445804"><ele>517.0</ele><time>2026-04-23T11:00:04Z</time></trkpt><trkpt lat="45.79371607116135" lon="11.427229926258176"><ele>523.3333333333334</ele><time>2026-04-23T11:00:05Z</time></trkpt><trkpt lat="45.79383560177267" lon="11.4270147497883"><ele>529.6666666666666</ele><time>2026-04-23T11:00:06Z</time></trkpt><trkpt lat="45.793933918701704" lon="11.426831824028053"><ele>536.0</ele><time>2026-04-23T11:00:07Z</time></trkpt><trkpt lat="45.794047666237624" lon="11.426667635608032"><ele>536.0</ele><time>2026-04-23T11:00:08Z</time></trkpt><trkpt lat="45.794192378852024" lon="11.426455229346608"><ele>536.0</ele><time>2026-04-23T11:00:09Z</time></trkpt><trkpt lat="45.7943869992595" lon="11.426276569348934"><ele>536.0</ele><time>2026-04-23T11:00:10Z</time></trkpt><trkpt lat="45.79455184853769" lon="11.426116931337376"><ele>541.3333333333333</ele><time>2026-04-23T11:00:11Z</time></trkpt><trkpt lat="45.7946769066023" lon="11.425935568781972"><ele>546.6666666666666</ele><time>2026-04-23T11:00:12Z</time></trkpt><trkpt lat="45.79478123599797" lon="11.425728061230524"><ele>552.0</ele><time>2026-04-23T11:00:13Z</time></trkpt><trkpt lat="45.79488943051869" lon="11.425516508297914"><ele>549.0</ele><time>2026-04-23T11:00:14Z</time></trkpt><trkpt lat="45.79496702464476" lon="11.425337914666313"><ele>546.0</ele><time>2026-04-23T11:00:15Z</time></trkpt><trkpt lat="45.79501805713844" lon="11.425191520048156"><ele>543.0</ele><time>2026-04-23T11:00:16Z</time></trkpt><trkpt lat="45.79504739891465" lon="11.425061331585413"><ele>540.0</ele><time>2026-04-23T11:00:17Z</time></trkpt><trkpt lat="45.79507090707088" lon="11.424968349544566"><ele>537.0</ele><time>2026-04-23T11:00:18Z</time></trkpt><trkpt lat="45.795155088382124" lon="11.424877186902657"><ele>537.0</ele><time>2026-04-23T11:00:20Z</time></trkpt><trkpt lat="45.79522700552171" lon="11.424922137741266"><ele>537.0</ele><time>2026-04-23T11:00:21Z</time></trkpt><trkpt lat="45.7952598922536" lon="11.425021568178348"><ele>537.0</ele><time>2026-04-23T11:00:22Z</time></trkpt><trkpt lat="45.79524137707994" lon="11.42513565740006"><ele>537.0</ele><time>2026-04-23T11:00:23Z</time></trkpt><trkpt lat="45.7951673145501" lon="11.425285345523351"><ele>537.0</ele><time>2026-04-23T11:00:24Z</time></trkpt><trkpt lat="45.795105568975856" lon="11.425442350010249"><ele>542.0</ele><time>2026-04-23T11:00:25Z</time></trkpt><trkpt lat="45.79505228659738" lon="11.425597982008364"><ele>547.0</ele><time>2026-04-23T11:00:26Z</time></trkpt><trkpt lat="45.794981350884285" lon="11.425840611809743"><ele>552.0</ele><time>2026-04-23T11:00:27Z</time></trkpt><trkpt lat="45.79491889511153" lon="11.426079278155477"><ele>552.0</ele><time>2026-04-23T11:00:28Z</time></trkpt><trkpt lat="45.79485299913388" lon="11.426297772054259"><ele>552.0</ele><time>2026-04-23T11:00:29Z</time></trkpt><trkpt lat="45.7947491073228" lon="11.426505444927473"><ele>552.0</ele><time>2026-04-23T11:00:30Z</time></trkpt><trkpt lat="45.79462478059395" lon="11.426700654309203"><ele>551.3333333333334</ele><time>2026-04-23T11:00:31Z</time></trkpt><trkpt lat="45.794505944028074" lon="11.42685229638313"><ele>550.6666666666667</ele><time>2026-04-23T11:00:32Z</time></trkpt><trkpt lat="45.79441449094105" lon="11.427028487862554"><ele>550.0</ele><time>2026-04-23T11:00:33Z</time></trkpt><trkpt lat="45.794331496802215" lon="11.427225637271983"><ele>550.0</ele><time>2026-04-23T11:00:34Z</time></trkpt><trkpt lat="45.79426860344567" lon="11.427464628795498"><ele>550.0</ele><time>2026-04-23T11:00:35Z</time></trkpt><trkpt lat="45.7942288224029" lon="11.42775502111416"><ele>550.0</ele><time>2026-04-23T11:00:36Z</time></trkpt><trkpt lat="45.794186726208274" lon="11.428088500327474"><ele>556.0</ele><time>2026-04-23T11:00:37Z</time></trkpt><trkpt lat="45.794134470110336" lon="11.428432995226375"><ele>562.0</ele><time>2026-04-23T11:00:38Z</time></trkpt><trkpt lat="45.79407430545681" lon="11.428768029512575"><ele>567.5</ele><time>2026-04-23T11:00:39Z</time></trkpt><trkpt lat="45.79399452743674" lon="11.429143090199366"><ele>573.0</ele><time>2026-04-23T11:00:40Z</time></trkpt><trkpt lat="45.79391286682859" lon="11.42950297591805"><ele>575.0</ele><time>2026-04-23T11:00:41Z</time></trkpt><trkpt lat="45.79384744748548" lon="11.42978559603561"><ele>577.0</ele><time>2026-04-23T11:00:42Z</time></trkpt><trkpt lat="45.793794901654174" lon="11.430017156286171"><ele>579.0</ele><time>2026-04-23T11:00:43Z</time></trkpt><trkpt lat="45.79375331685515" lon="11.43020387102845"><ele>579.0</ele><time>2026-04-23T11:00:44Z</time></trkpt><trkpt lat="45.79372496344837" lon="11.430355569346005"><ele>579.0</ele><time>2026-04-23T11:00:45Z</time></trkpt><trkpt lat="45.79372409160079" lon="11.430467045907168"><ele>579.0</ele><time>2026-04-23T11:00:46Z</time></trkpt><trkpt lat="45.79375942618771" lon="11.430559423949154"><ele>579.0</ele><time>2026-04-23T11:00:47Z</time></trkpt><trkpt lat="45.79382086356906" lon="11.430622122936759"><ele>579.0</ele><time>2026-04-23T11:00:48Z</time></trkpt><trkpt lat="45.793900123820265" lon="11.430638505564524"><ele>579.0</ele><time>2026-04-23T11:00:49Z</time></trkpt><trkpt lat="45.793969189021304" lon="11.430589981202415"><ele>579.0</ele><time>2026-04-23T11:00:50Z</time></trkpt><trkpt lat="45.79403386715861" lon="11.430519805398253"><ele>579.0</ele><time>2026-04-23T11:00:51Z</time></trkpt><trkpt lat="45.7940259506925" lon="11.430341561424166"><ele>579.0</ele><time>2026-04-23T11:00:52Z</time></trkpt><trkpt lat="45.794028476097004" lon="11.43015742706015"><ele>579.0</ele><time>2026-04-23T11:00:53Z</time></trkpt><trkpt lat="45.79406757598093" lon="11.430015907055918"><ele>579.0</ele><time>2026-04-23T11:00:54Z</time></trkpt><trkpt lat="45.79411135083086" lon="11.42981544201987"><ele>577.0</ele><time>2026-04-23T11:00:55Z</time></trkpt><trkpt lat="45.79421068719534" lon="11.429589308306117"><ele>575.0</ele><time>2026-04-23T11:00:56Z</time></trkpt><trkpt lat="45.794315448591675" lon="11.429363280052012"><ele>573.0</ele><time>2026-04-23T11:00:57Z</time></trkpt><trkpt lat="45.794438799101194" lon="11.429118465764224"><ele>586.0</ele><time>2026-04-23T11:00:58Z</time></trkpt><trkpt lat="45.79455667682244" lon="11.428814804670042"><ele>599.0</ele><time>2026-04-23T11:00:59Z</time></trkpt><trkpt lat="45.794662618700706" lon="11.42852093353044"><ele>599.0</ele><time>2026-04-23T11:01:00Z</time></trkpt><trkpt lat="45.79476544907669" lon="11.428233654429727"><ele>599.0</ele><time>2026-04-23T11:01:01Z</time></trkpt><trkpt lat="45.79484765564364" lon="11.428013194716959"><ele>599.0</ele><time>2026-04-23T11:01:02Z</time></trkpt><trkpt lat="45.79492601053283" lon="11.427814549671606"><ele>594.6666666666666</ele><time>2026-04-23T11:01:03Z</time></trkpt><trkpt lat="45.795053180009965" lon="11.427648972811857"><ele>590.3333333333334</ele><time>2026-04-23T11:01:04Z</time></trkpt><trkpt lat="45.7952115161949" lon="11.42749416515259"><ele>586.0</ele><time>2026-04-23T11:01:05Z</time></trkpt><trkpt lat="45.79535925834741" lon="11.427322581076206"><ele>591.0</ele><time>2026-04-23T11:01:06Z</time></trkpt><trkpt lat="45.79550925276234" lon="11.427120095216342"><ele>596.0</ele><time>2026-04-23T11:01:07Z</time></trkpt><trkpt lat="45.79565226971243" lon="11.426845483692505"><ele>601.0</ele><time>2026-04-23T11:01:08Z</time></trkpt><trkpt lat="45.79578300463964" lon="11.426597707973555"><ele>601.0</ele><time>2026-04-23T11:01:09Z</time></trkpt><trkpt lat="45.7958773786819" lon="11.426405592071651"><ele>601.0</ele><time>2026-04-23T11:01:10Z</time></trkpt><trkpt lat="45.79594526977168" lon="11.426235543639832"><ele>601.0</ele><time>2026-04-23T11:01:11Z</time></trkpt><trkpt lat="45.79598064649375" lon="11.426085016172463"><ele>601.0</ele><time>2026-04-23T11:01:12Z</time></trkpt><trkpt lat="45.79601214798637" lon="11.42599157142331"><ele>604.1666666666667</ele><time>2026-04-23T11:01:13Z</time></trkpt><trkpt lat="45.79604080262514" lon="11.425902393970315"><ele>607.3333333333334</ele><time>2026-04-23T11:01:14Z</time></trkpt><trkpt lat="45.79611356671423" lon="11.425880752885252"><ele>610.5</ele><time>2026-04-23T11:01:15Z</time></trkpt><trkpt lat="45.796180153738604" lon="11.425926386976624"><ele>613.6666666666666</ele><time>2026-04-23T11:01:16Z</time></trkpt><trkpt lat="45.79620635521667" lon="11.426016626883877"><ele>616.8333333333333</ele><time>2026-04-23T11:01:17Z</time></trkpt><trkpt lat="45.79618471700124" lon="11.426124944201048"><ele>620.0</ele><time>2026-04-23T11:01:18Z</time></trkpt><trkpt lat="45.796119247628994" lon="11.426227668069167"><ele>624.25</ele><time>2026-04-23T11:01:19Z</time></trkpt><trkpt lat="45.7960242239569" lon="11.42637768962887"><ele>628.5</ele><time>2026-04-23T11:01:20Z</time></trkpt><trkpt lat="45.79593777257406" lon="11.426528655569584"><ele>632.75</ele><time>2026-04-23T11:01:21Z</time></trkpt><trkpt lat="45.79585826087193" lon="11.426717532099552"><ele>637.0</ele><time>2026-04-23T11:01:22Z</time></trkpt><trkpt lat="45.79577914184999" lon="11.426967458920563"><ele>631.3333333333334</ele><time>2026-04-23T11:01:23Z</time></trkpt><trkpt lat="45.79572375703655" lon="11.427208274469205"><ele>625.6666666666666</ele><time>2026-04-23T11:01:24Z</time></trkpt><trkpt lat="45.79565469255042" lon="11.427432224459045"><ele>620.0</ele><time>2026-04-23T11:01:25Z</time></trkpt><trkpt lat="45.79557283771757" lon="11.427651848575316"><ele>620.0</ele><time>2026-04-23T11:01:26Z</time></trkpt><trkpt lat="45.79548619217483" lon="11.427845806123216"><ele>620.0</ele><time>2026-04-23T11:01:27Z</time></trkpt><trkpt lat="45.79540084141259" lon="11.428047122663452"><ele>620.0</ele><time>2026-04-23T11:01:28Z</time></trkpt><trkpt lat="45.795339692134604" lon="11.428281794146919"><ele>624.3333333333333</ele><time>2026-04-23T11:01:29Z</time></trkpt><trkpt lat="45.79529744875103" lon="11.42857523055187"><ele>628.6666666666666</ele><time>2026-04-23T11:01:30Z</time></trkpt><trkpt lat="45.795249327563226" lon="11.428910329580653"><ele>633.0</ele><time>2026-04-23T11:01:31Z</time></trkpt><trkpt lat="45.79518726508467" lon="11.429271058574264"><ele>625.0</ele><time>2026-04-23T11:01:32Z</time></trkpt><trkpt lat="45.795117103413155" lon="11.42965713411218"><ele>617.0</ele><time>2026-04-23T11:01:32.999Z</time></trkpt><trkpt lat="45.79505480962653" lon="11.430038836185714"><ele>617.0</ele><time>2026-04-23T11:01:33.999Z</time></trkpt><trkpt lat="45.795001913653856" lon="11.430459536976057"><ele>617.0</ele><time>2026-04-23T11:01:34.999Z</time></trkpt><trkpt lat="45.794942720336216" lon="11.430894557720347"><ele>621.0</ele><time>2026-04-23T11:01:35.999Z</time></trkpt><trkpt lat="45.79488501544051" lon="11.431286685040066"><ele>625.0</ele><time>2026-04-23T11:01:36.999Z</time></trkpt><trkpt lat="45.794834336327966" lon="11.431634695836486"><ele>631.5</ele><time>2026-04-23T11:01:37.999Z</time></trkpt><trkpt lat="45.79477591540213" lon="11.431991814364988"><ele>638.0</ele><time>2026-04-23T11:01:38.999Z</time></trkpt><trkpt lat="45.79469589523115" lon="11.432373279458277"><ele>643.5</ele><time>2026-04-23T11:01:39.999Z</time></trkpt><trkpt lat="45.79460439265527" lon="11.432733225806954"><ele>649.0</ele><time>2026-04-23T11:01:40.999Z</time></trkpt><trkpt lat="45.79450402904317" lon="11.43307136857632"><ele>655.5</ele><time>2026-04-23T11:01:41.999Z</time></trkpt><trkpt lat="45.79439106778658" lon="11.433423327237717"><ele>662.0</ele><time>2026-04-23T11:01:42.999Z</time></trkpt><trkpt lat="45.79430038235837" lon="11.433693576201074"><ele>656.6666666666666</ele><time>2026-04-23T11:01:43.999Z</time></trkpt><trkpt lat="45.794219101973034" lon="11.43391809628735"><ele>651.3333333333334</ele><time>2026-04-23T11:01:44.999Z</time></trkpt><trkpt lat="45.79413049817228" lon="11.434108936802136"><ele>646.0</ele><time>2026-04-23T11:01:45.999Z</time></trkpt><trkpt lat="45.79404034146361" lon="11.434265093262018"><ele>646.0</ele><time>2026-04-23T11:01:46.999Z</time></trkpt><trkpt lat="45.79393544049777" lon="11.434425263690999"><ele>646.0</ele><time>2026-04-23T11:01:47.999Z</time></trkpt><trkpt lat="45.79383121695494" lon="11.434574170323815"><ele>646.0</ele><time>2026-04-23T11:01:48.999Z</time></trkpt><trkpt lat="45.79374848880177" lon="11.43468881753608"><ele>646.0</ele><time>2026-04-23T11:01:49.999Z</time></trkpt><trkpt lat="45.79367587181041" lon="11.434776706639557"><ele>647.0</ele><time>2026-04-23T11:01:50.999Z</time></trkpt><trkpt lat="45.79363040759925" lon="11.434871273028248"><ele>648.0</ele><time>2026-04-23T11:01:51.999Z</time></trkpt><trkpt lat="45.79362524732463" lon="11.434994010518126"><ele>649.0</ele><time>2026-04-23T11:01:52.999Z</time></trkpt><trkpt lat="45.793672446909596" lon="11.435096112294698"><ele>650.0</ele><time>2026-04-23T11:01:53.999Z</time></trkpt><trkpt lat="45.79375025414906" lon="11.435143993913107"><ele>651.0</ele><time>2026-04-23T11:01:55Z</time></trkpt><trkpt lat="45.793839169055886" lon="11.435128045682056"><ele>652.0</ele><time>2026-04-23T11:01:56Z</time></trkpt><trkpt lat="45.79391373158201" lon="11.435046693531545"><ele>652.0</ele><time>2026-04-23T11:01:57Z</time></trkpt><trkpt lat="45.7939661924488" lon="11.434918898066554"><ele>652.0</ele><time>2026-04-23T11:01:58Z</time></trkpt><trkpt lat="45.794025489870364" lon="11.434727475107225"><ele>652.0</ele><time>2026-04-23T11:01:59Z</time></trkpt><trkpt lat="45.79412812680717" lon="11.434523331412029"><ele>652.0</ele><time>2026-04-23T11:02:00Z</time></trkpt><trkpt lat="45.79428484628646" lon="11.434315245998276"><ele>662.0</ele><time>2026-04-23T11:02:01Z</time></trkpt><trkpt lat="45.79444117077329" lon="11.434070603750987"><ele>672.0</ele><time>2026-04-23T11:02:02Z</time></trkpt><trkpt lat="45.794581257270195" lon="11.433820095253312"><ele>667.0</ele><time>2026-04-23T11:02:03Z</time></trkpt><trkpt lat="45.79476343291859" lon="11.433548389296002"><ele>662.0</ele><time>2026-04-23T11:02:04Z</time></trkpt><trkpt lat="45.79494995612156" lon="11.433267785068924"><ele>662.0</ele><time>2026-04-23T11:02:05Z</time></trkpt><trkpt lat="45.79511182095699" lon="11.433014852067103"><ele>662.0</ele><time>2026-04-23T11:02:06Z</time></trkpt><trkpt lat="45.79525682603723" lon="11.43277911927992"><ele>667.0</ele><time>2026-04-23T11:02:07Z</time></trkpt><trkpt lat="45.79537434786635" lon="11.432560236182256"><ele>672.0</ele><time>2026-04-23T11:02:08Z</time></trkpt><trkpt lat="45.79546382472771" lon="11.432319313756173"><ele>677.0</ele><time>2026-04-23T11:02:09Z</time></trkpt><trkpt lat="45.795540246990676" lon="11.432037004867054"><ele>677.0</ele><time>2026-04-23T11:02:10Z</time></trkpt><trkpt lat="45.79560432661285" lon="11.431719581090753"><ele>677.0</ele><time>2026-04-23T11:02:11Z</time></trkpt><trkpt lat="45.79565551569116" lon="11.431436150375946"><ele>677.0</ele><time>2026-04-23T11:02:12Z</time></trkpt><trkpt lat="45.79571685366877" lon="11.43118755547954"><ele>675.0</ele><time>2026-04-23T11:02:13Z</time></trkpt><trkpt lat="45.79580600383317" lon="11.430946935587324"><ele>673.0</ele><time>2026-04-23T11:02:14Z</time></trkpt><trkpt lat="45.79592233277319" lon="11.430689934009502"><ele>671.0</ele><time>2026-04-23T11:02:15Z</time></trkpt><trkpt lat="45.7960585916561" lon="11.43042487772939"><ele>680.3333333333333</ele><time>2026-04-23T11:02:16Z</time></trkpt><trkpt lat="45.7961784973991" lon="11.430187875878481"><ele>689.6666666666666</ele><time>2026-04-23T11:02:17Z</time></trkpt><trkpt lat="45.796261349303805" lon="11.429962906161496"><ele>699.0</ele><time>2026-04-23T11:02:18Z</time></trkpt><trkpt lat="45.796333369256715" lon="11.429696002431552"><ele>695.0</ele><time>2026-04-23T11:02:19Z</time></trkpt><trkpt lat="45.796412185904714" lon="11.42938947126209"><ele>691.0</ele><time>2026-04-23T11:02:20Z</time></trkpt><trkpt lat="45.79650800442677" lon="11.42906825581522"><ele>686.3333333333334</ele><time>2026-04-23T11:02:21Z</time></trkpt><trkpt lat="45.79661781287058" lon="11.42876131622167"><ele>681.6666666666666</ele><time>2026-04-23T11:02:22Z</time></trkpt><trkpt lat="45.796721287222425" lon="11.428511734042017"><ele>677.0</ele><time>2026-04-23T11:02:23Z</time></trkpt><trkpt lat="45.79680347049553" lon="11.428312480334949"><ele>680.6</ele><time>2026-04-23T11:02:24Z</time></trkpt><trkpt lat="45.796862903237944" lon="11.428152577586877"><ele>684.2</ele><time>2026-04-23T11:02:25Z</time></trkpt><trkpt lat="45.796921066432944" lon="11.428044821844301"><ele>687.8</ele><time>2026-04-23T11:02:26Z</time></trkpt><trkpt lat="45.796961987316514" lon="11.427955934694248"><ele>691.4</ele><time>2026-04-23T11:02:27Z</time></trkpt><trkpt lat="45.79705378183492" lon="11.427881772864941"><ele>695.0</ele><time>2026-04-23T11:02:29Z</time></trkpt><trkpt lat="45.797135127041855" lon="11.427969215462442"><ele>699.25</ele><time>2026-04-23T11:02:31Z</time></trkpt><trkpt lat="45.79711047389446" lon="11.428153571541138"><ele>703.5</ele><time>2026-04-23T11:02:33Z</time></trkpt><trkpt lat="45.79703046505299" lon="11.42826213030049"><ele>707.75</ele><time>2026-04-23T11:02:34Z</time></trkpt><trkpt lat="45.79693413969602" lon="11.428391734238758"><ele>712.0</ele><time>2026-04-23T11:02:35Z</time></trkpt><trkpt lat="45.796857671723146" lon="11.428510692861057"><ele>705.0</ele><time>2026-04-23T11:02:36Z</time></trkpt><trkpt lat="45.7967884868582" lon="11.428697119284356"><ele>698.0</ele><time>2026-04-23T11:02:37Z</time></trkpt><trkpt lat="45.79672959284678" lon="11.428946332953993"><ele>691.0</ele><time>2026-04-23T11:02:38Z</time></trkpt><trkpt lat="45.79667619239508" lon="11.429200639553338"><ele>691.0</ele><time>2026-04-23T11:02:39Z</time></trkpt><trkpt lat="45.79663697631302" lon="11.429446029386238"><ele>691.0</ele><time>2026-04-23T11:02:40Z</time></trkpt><trkpt lat="45.7966248504695" lon="11.429717519591787"><ele>691.0</ele><time>2026-04-23T11:02:41Z</time></trkpt><trkpt lat="45.79662622265778" lon="11.429991753899188"><ele>693.6666666666667</ele><time>2026-04-23T11:02:42Z</time></trkpt><trkpt lat="45.79660057659836" lon="11.430220669632421"><ele>696.3333333333334</ele><time>2026-04-23T11:02:43Z</time></trkpt><trkpt lat="45.796544014414266" lon="11.430447824433868"><ele>699.0</ele><time>2026-04-23T11:02:44Z</time></trkpt><trkpt lat="45.79645326169581" lon="11.430710881199673"><ele>703.5</ele><time>2026-04-23T11:02:45Z</time></trkpt><trkpt lat="45.79635602056567" lon="11.431014785411907"><ele>708.0</ele><time>2026-04-23T11:02:46Z</time></trkpt><trkpt lat="45.79628193551659" lon="11.431310482448701"><ele>712.0</ele><time>2026-04-23T11:02:47Z</time></trkpt><trkpt lat="45.796246731238924" lon="11.43156535674896"><ele>716.0</ele><time>2026-04-23T11:02:48Z</time></trkpt><trkpt lat="45.79623511005955" lon="11.431846828853077"><ele>720.0</ele><time>2026-04-23T11:02:49Z</time></trkpt><trkpt lat="45.796250907094" lon="11.43216051969194"><ele>722.0</ele><time>2026-04-23T11:02:50Z</time></trkpt><trkpt lat="45.79627486190153" lon="11.432438021770773"><ele>724.0</ele><time>2026-04-23T11:02:51Z</time></trkpt><trkpt lat="45.79627875467571" lon="11.432690409102488"><ele>726.0</ele><time>2026-04-23T11:02:52Z</time></trkpt><trkpt lat="45.796260125921265" lon="11.432924480847358"><ele>729.6666666666666</ele><time>2026-04-23T11:02:53Z</time></trkpt><trkpt lat="45.796209887438025" lon="11.433177121603787"><ele>733.3333333333333</ele><time>2026-04-23T11:02:54Z</time></trkpt><trkpt lat="45.79614048847018" lon="11.433475009607148"><ele>737.0</ele><time>2026-04-23T11:02:55Z</time></trkpt><trkpt lat="45.79606651186058" lon="11.43381053755957"><ele>723.0</ele><time>2026-04-23T11:02:56Z</time></trkpt><trkpt lat="45.79598969652473" lon="11.434176275621729"><ele>709.0</ele><time>2026-04-23T11:02:57Z</time></trkpt><trkpt lat="45.79590923336506" lon="11.434549039260201"><ele>712.3333333333334</ele><time>2026-04-23T11:02:58Z</time></trkpt><trkpt lat="45.79584069019818" lon="11.434868156947775"><ele>715.6666666666666</ele><time>2026-04-23T11:02:59Z</time></trkpt><trkpt lat="45.79579131189153" lon="11.435125436254692"><ele>719.0</ele><time>2026-04-23T11:03:00Z</time></trkpt><trkpt lat="45.79573970975455" lon="11.435339016442345"><ele>721.5</ele><time>2026-04-23T11:03:01Z</time></trkpt><trkpt lat="45.79567177120622" lon="11.435525310686375"><ele>724.0</ele><time>2026-04-23T11:03:02Z</time></trkpt><trkpt lat="45.79558778352866" lon="11.435665871684172"><ele>726.5</ele><time>2026-04-23T11:03:03Z</time></trkpt><trkpt lat="45.795492245864025" lon="11.43577751601094"><ele>729.0</ele><time>2026-04-23T11:03:04Z</time></trkpt><trkpt lat="45.79539804840522" lon="11.435873607802817"><ele>729.0</ele><time>2026-04-23T11:03:05Z</time></trkpt><trkpt lat="45.795336617214176" lon="11.43596343048652"><ele>729.0</ele><time>2026-04-23T11:03:06Z</time></trkpt><trkpt lat="45.795311228348" lon="11.43607222225269"><ele>729.0</ele><time>2026-04-23T11:03:07Z</time></trkpt><trkpt lat="45.795329297178235" lon="11.436186917037583"><ele>729.0</ele><time>2026-04-23T11:03:08Z</time></trkpt><trkpt lat="45.79538629050885" lon="11.43627395459631"><ele>729.0</ele><time>2026-04-23T11:03:09Z</time></trkpt><trkpt lat="45.79546428360682" lon="11.436306513177126"><ele>729.0</ele><time>2026-04-23T11:03:10Z</time></trkpt><trkpt lat="45.795546180216355" lon="11.43626495289309"><ele>729.0</ele><time>2026-04-23T11:03:11Z</time></trkpt><trkpt lat="45.79561559147643" lon="11.436172552804452"><ele>729.0</ele><time>2026-04-23T11:03:12Z</time></trkpt><trkpt lat="45.79569596551835" lon="11.43602702608162"><ele>729.0</ele><time>2026-04-23T11:03:13Z</time></trkpt><trkpt lat="45.79580554291718" lon="11.43583533368199"><ele>729.0</ele><time>2026-04-23T11:03:14Z</time></trkpt><trkpt lat="45.7959166912744" lon="11.43562804827448"><ele>737.3333333333334</ele><time>2026-04-23T11:03:15Z</time></trkpt><trkpt lat="45.79601062751152" lon="11.435414743473922"><ele>745.6666666666667</ele><time>2026-04-23T11:03:16Z</time></trkpt><trkpt lat="45.79610865743594" lon="11.435134460575894"><ele>754.0</ele><time>2026-04-23T11:03:17Z</time></trkpt><trkpt lat="45.79621471969894" lon="11.434823237208516"><ele>751.0</ele><time>2026-04-23T11:03:18Z</time></trkpt><trkpt lat="45.796329103679014" lon="11.434476396988234"><ele>748.0</ele><time>2026-04-23T11:03:19Z</time></trkpt><trkpt lat="45.796453886261936" lon="11.43411201452154"><ele>742.5</ele><time>2026-04-23T11:03:20Z</time></trkpt><trkpt lat="45.79656757897425" lon="11.433784159634007"><ele>737.0</ele><time>2026-04-23T11:03:21Z</time></trkpt><trkpt lat="45.79667469296853" lon="11.43347985861551"><ele>737.0</ele><time>2026-04-23T11:03:22Z</time></trkpt><trkpt lat="45.796774702738006" lon="11.433186616078364"><ele>737.0</ele><time>2026-04-23T11:03:23Z</time></trkpt><trkpt lat="45.79685047593718" lon="11.432902163566705"><ele>737.0</ele><time>2026-04-23T11:03:24Z</time></trkpt><trkpt lat="45.79690017275603" lon="11.432605402952367"><ele>746.6666666666666</ele><time>2026-04-23T11:03:24.999Z</time></trkpt><trkpt lat="45.79694291681242" lon="11.432277526561077"><ele>756.3333333333334</ele><time>2026-04-23T11:03:25.999Z</time></trkpt><trkpt lat="45.796989314418404" lon="11.4320104012696"><ele>766.0</ele><time>2026-04-23T11:03:26.999Z</time></trkpt><trkpt lat="45.79704461405679" lon="11.43179068180159"><ele>766.0</ele><time>2026-04-23T11:03:27.999Z</time></trkpt><trkpt lat="45.797106542158595" lon="11.431605029182078"><ele>766.0</ele><time>2026-04-23T11:03:28.999Z</time></trkpt><trkpt lat="45.79718001391097" lon="11.431450942116992"><ele>766.0</ele><time>2026-04-23T11:03:29.999Z</time></trkpt><trkpt lat="45.79728131449659" lon="11.431291788574562"><ele>766.0</ele><time>2026-04-23T11:03:30.999Z</time></trkpt><trkpt lat="45.797397889322895" lon="11.431092645989876"><ele>761.3333333333334</ele><time>2026-04-23T11:03:31.999Z</time></trkpt><trkpt lat="45.79747833249495" lon="11.430895890034837"><ele>756.6666666666666</ele><time>2026-04-23T11:03:32.999Z</time></trkpt><trkpt lat="45.79756545711743" lon="11.43064073993425"><ele>752.0</ele><time>2026-04-23T11:03:33.999Z</time></trkpt><trkpt lat="45.79763047556594" lon="11.430335916924669"><ele>759.0</ele><time>2026-04-23T11:03:34.999Z</time></trkpt><trkpt lat="45.797695925003566" lon="11.430007127417243"><ele>766.0</ele><time>2026-04-23T11:03:35.999Z</time></trkpt><trkpt lat="45.79775278352474" lon="11.429721126120251"><ele>773.0</ele><time>2026-04-23T11:03:36.999Z</time></trkpt><trkpt lat="45.797795440834356" lon="11.429506557838511"><ele>773.0000000000001</ele><time>2026-04-23T11:03:37.999Z</time></trkpt><trkpt lat="45.79782609503858" lon="11.429352365555928"><ele>773.0</ele><time>2026-04-23T11:03:38.999Z</time></trkpt><trkpt lat="45.79785233929854" lon="11.429229510039075"><ele>773.0</ele><time>2026-04-23T11:03:39.999Z</time></trkpt><trkpt lat="45.79788232518237" lon="11.429133856043451"><ele>773.0</ele><time>2026-04-23T11:03:40.999Z</time></trkpt><trkpt lat="45.79794576628966" lon="11.429087953431438"><ele>773.0000000000001</ele><time>2026-04-23T11:03:41.999Z</time></trkpt><trkpt lat="45.798018627571736" lon="11.429094377685564"><ele>773.0</ele><time>2026-04-23T11:03:42.999Z</time></trkpt><trkpt lat="45.79807774050542" lon="11.429156849577161"><ele>773.0</ele><time>2026-04-23T11:03:43.999Z</time></trkpt><trkpt lat="45.798097026469144" lon="11.429256724424574"><ele>773.0</ele><time>2026-04-23T11:03:44.999Z</time></trkpt><trkpt lat="45.798074810509995" lon="11.429367298725642"><ele>773.0</ele><time>2026-04-23T11:03:45.999Z</time></trkpt><trkpt lat="45.79801854757051" lon="11.429507568335124"><ele>773.0</ele><time>2026-04-23T11:03:46.999Z</time></trkpt><trkpt lat="45.7979594886783" lon="11.429701023408684"><ele>773.0</ele><time>2026-04-23T11:03:47.999Z</time></trkpt><trkpt lat="45.79791399253398" lon="11.429868833932531"><ele>777.0</ele><time>2026-04-23T11:03:48.999Z</time></trkpt><trkpt lat="45.797859284373736" lon="11.430083094873222"><ele>781.0</ele><time>2026-04-23T11:03:49.999Z</time></trkpt><trkpt lat="45.797823106994635" lon="11.430331668609519"><ele>785.0</ele><time>2026-04-23T11:03:50.999Z</time></trkpt><trkpt lat="45.79781784043987" lon="11.430564389900095"><ele>788.0</ele><time>2026-04-23T11:03:51.999Z</time></trkpt><trkpt lat="45.79780446233301" lon="11.430843494336916"><ele>791.0</ele><time>2026-04-23T11:03:52.999Z</time></trkpt><trkpt lat="45.79776225832528" lon="11.43109944617698"><ele>794.0</ele><time>2026-04-23T11:03:53.999Z</time></trkpt><trkpt lat="45.797689619199154" lon="11.43131515658744"><ele>784.6666666666667</ele><time>2026-04-23T11:03:54.999Z</time></trkpt><trkpt lat="45.79758580565228" lon="11.431546488261823"><ele>775.3333333333334</ele><time>2026-04-23T11:03:55.999Z</time></trkpt><trkpt lat="45.79748814920674" lon="11.431786127880057"><ele>766.0</ele><time>2026-04-23T11:03:56.999Z</time></trkpt><trkpt lat="45.797431933235615" lon="11.43201599814972"><ele>769.3333333333334</ele><time>2026-04-23T11:03:57.999Z</time></trkpt><trkpt lat="45.7973933296465" lon="11.432285511205455"><ele>772.6666666666667</ele><time>2026-04-23T11:03:58.999Z</time></trkpt><trkpt lat="45.797376372192645" lon="11.432590403660804"><ele>776.0</ele><time>2026-04-23T11:03:59.999Z</time></trkpt><trkpt lat="45.79735992428961" lon="11.432941980226348"><ele>779.6666666666667</ele><time>2026-04-23T11:04:01Z</time></trkpt><trkpt lat="45.79733728364482" lon="11.433268018356937"><ele>783.3333333333333</ele><time>2026-04-23T11:04:02Z</time></trkpt><trkpt lat="45.797310517524764" lon="11.433576717797582"><ele>787.0</ele><time>2026-04-23T11:04:03Z</time></trkpt><trkpt lat="45.79727486984748" lon="11.43380511933967"><ele>788.4000000000001</ele><time>2026-04-23T11:04:04Z</time></trkpt><trkpt lat="45.797239140535254" lon="11.433980532984089"><ele>789.8000000000001</ele><time>2026-04-23T11:04:05Z</time></trkpt><trkpt lat="45.79719820022559" lon="11.43410398922442"><ele>791.2</ele><time>2026-04-23T11:04:06Z</time></trkpt><trkpt lat="45.797160715733675" lon="11.434204648530045"><ele>792.6</ele><time>2026-04-23T11:04:07Z</time></trkpt><trkpt lat="45.79713006764316" lon="11.434344182627505"><ele>794.0</ele><time>2026-04-23T11:04:09Z</time></trkpt><trkpt lat="45.79718057045519" lon="11.43440432480693"><ele>794.0</ele><time>2026-04-23T11:04:24Z</time></trkpt><trkpt lat="45.79724259781391" lon="11.434336608497022"><ele>794.0</ele><time>2026-04-23T11:04:26Z</time></trkpt><trkpt lat="45.7972581310389" lon="11.434201679194011"><ele>794.0</ele><time>2026-04-23T11:04:27Z</time></trkpt><trkpt lat="45.79727273633831" lon="11.434006339591031"><ele>794.0</ele><time>2026-04-23T11:04:28Z</time></trkpt><trkpt lat="45.79729851002809" lon="11.433832985964068"><ele>794.0</ele><time>2026-04-23T11:04:29Z</time></trkpt><trkpt lat="45.79733560482751" lon="11.43361455501791"><ele>791.6666666666667</ele><time>2026-04-23T11:04:30Z</time></trkpt><trkpt lat="45.79737223895628" lon="11.433373071940371"><ele>789.3333333333333</ele><time>2026-04-23T11:04:31Z</time></trkpt><trkpt lat="45.79739059314238" lon="11.43312348824078"><ele>787.0</ele><time>2026-04-23T11:04:32Z</time></trkpt><trkpt lat="45.79740130138895" lon="11.432833685425832"><ele>783.3333333333333</ele><time>2026-04-23T11:04:33Z</time></trkpt><trkpt lat="45.79741564509894" lon="11.432564010309264"><ele>779.6666666666667</ele><time>2026-04-23T11:04:34Z</time></trkpt><trkpt lat="45.79742906221238" lon="11.432320453039013"><ele>776.0</ele><time>2026-04-23T11:04:35Z</time></trkpt><trkpt lat="45.797450392338675" lon="11.432094677356798"><ele>772.6666666666667</ele><time>2026-04-23T11:04:36Z</time></trkpt><trkpt lat="45.79749673683795" lon="11.431883032910443"><ele>769.3333333333334</ele><time>2026-04-23T11:04:37Z</time></trkpt><trkpt lat="45.797566089422446" lon="11.431666965414035"><ele>766.0</ele><time>2026-04-23T11:04:38Z</time></trkpt><trkpt lat="45.797664449647435" lon="11.431444361968271"><ele>775.3333333333334</ele><time>2026-04-23T11:04:39Z</time></trkpt><trkpt lat="45.79775767029068" lon="11.431244579329277"><ele>784.6666666666667</ele><time>2026-04-23T11:04:40Z</time></trkpt><trkpt lat="45.79781462888513" lon="11.431046505312457"><ele>794.0</ele><time>2026-04-23T11:04:41Z</time></trkpt><trkpt lat="45.797844200696126" lon="11.430838777926176"><ele>794.0</ele><time>2026-04-23T11:04:42Z</time></trkpt><trkpt lat="45.797851338295544" lon="11.430588585022392"><ele>794.0</ele><time>2026-04-23T11:04:43Z</time></trkpt><trkpt lat="45.79785534346798" lon="11.430335018129776"><ele>794.0</ele><time>2026-04-23T11:04:44Z</time></trkpt><trkpt lat="45.797879422204964" lon="11.430108900011948"><ele>791.0</ele><time>2026-04-23T11:04:45Z</time></trkpt><trkpt lat="45.79793449281229" lon="11.429885189396298"><ele>788.0</ele><time>2026-04-23T11:04:46Z</time></trkpt><trkpt lat="45.79800725089048" lon="11.429659709074986"><ele>785.0</ele><time>2026-04-23T11:04:47Z</time></trkpt><trkpt lat="45.79806931984223" lon="11.429500365409183"><ele>783.0000000000001</ele><time>2026-04-23T11:04:48Z</time></trkpt><trkpt lat="45.79811066244225" lon="11.429373179516356"><ele>781.0</ele><time>2026-04-23T11:04:49Z</time></trkpt><trkpt lat="45.7981351300513" lon="11.429255218753024"><ele>779.0</ele><time>2026-04-23T11:04:50Z</time></trkpt><trkpt lat="45.79811794218682" lon="11.42913967090618"><ele>777.0</ele><time>2026-04-23T11:04:51Z</time></trkpt><trkpt lat="45.79806774988246" lon="11.42905766225005"><ele>775.0000000000001</ele><time>2026-04-23T11:04:52Z</time></trkpt><trkpt lat="45.79798664547015" lon="11.429020916532416"><ele>773.0</ele><time>2026-04-23T11:04:53Z</time></trkpt><trkpt lat="45.79789863566135" lon="11.429051817329931"><ele>773.0</ele><time>2026-04-23T11:04:54Z</time></trkpt><trkpt lat="45.79782934111233" lon="11.429154874727121"><ele>773.0</ele><time>2026-04-23T11:04:55Z</time></trkpt><trkpt lat="45.797789887414226" lon="11.429307676241134"><ele>773.0</ele><time>2026-04-23T11:04:56Z</time></trkpt><trkpt lat="45.79775036403623" lon="11.429534021123832"><ele>773.0</ele><time>2026-04-23T11:04:57Z</time></trkpt><trkpt lat="45.797701806395985" lon="11.429800644739743"><ele>766.0</ele><time>2026-04-23T11:04:58Z</time></trkpt><trkpt lat="45.79765225886219" lon="11.430057552646774"><ele>759.0</ele><time>2026-04-23T11:04:59Z</time></trkpt><trkpt lat="45.79759368414686" lon="11.430358996045983"><ele>752.0</ele><time>2026-04-23T11:05:00Z</time></trkpt><trkpt lat="45.79753334008343" lon="11.430623928654741"><ele>752.0</ele><time>2026-04-23T11:05:01Z</time></trkpt><trkpt lat="45.797458122433255" lon="11.430858991019473"><ele>752.0</ele><time>2026-04-23T11:05:02Z</time></trkpt><trkpt lat="45.797371574085574" lon="11.431071784526575"><ele>752.0</ele><time>2026-04-23T11:05:03Z</time></trkpt><trkpt lat="45.79726407111866" lon="11.431272376588646"><ele>756.6666666666666</ele><time>2026-04-23T11:05:04Z</time></trkpt><trkpt lat="45.79714980194952" lon="11.431449243093445"><ele>761.3333333333334</ele><time>2026-04-23T11:05:05Z</time></trkpt><trkpt lat="45.79706280087844" lon="11.431628483091659"><ele>766.0</ele><time>2026-04-23T11:05:06Z</time></trkpt><trkpt lat="45.79699834927074" lon="11.431864327211764"><ele>769.3333333333334</ele><time>2026-04-23T11:05:07Z</time></trkpt><trkpt lat="45.796945251780656" lon="11.43214157819756"><ele>772.6666666666667</ele><time>2026-04-23T11:05:08Z</time></trkpt><trkpt lat="45.79689891643266" lon="11.432438403502923"><ele>776.0</ele><time>2026-04-23T11:05:09Z</time></trkpt><trkpt lat="45.79685233480677" lon="11.43274426291032"><ele>756.5</ele><time>2026-04-23T11:05:10Z</time></trkpt><trkpt lat="45.796784161712026" lon="11.433050050202512"><ele>737.0</ele><time>2026-04-23T11:05:11Z</time></trkpt><trkpt lat="45.79669252355496" lon="11.433351763114075"><ele>737.0</ele><time>2026-04-23T11:05:12Z</time></trkpt><trkpt lat="45.7965766320655" lon="11.433682799756001"><ele>737.0</ele><time>2026-04-23T11:05:13Z</time></trkpt><trkpt lat="45.79645402647087" lon="11.43404404805982"><ele>742.5</ele><time>2026-04-23T11:05:14Z</time></trkpt><trkpt lat="45.79633950670291" lon="11.434386544073012"><ele>748.0</ele><time>2026-04-23T11:05:15Z</time></trkpt><trkpt lat="45.796231608946094" lon="11.434702811551913"><ele>750.0</ele><time>2026-04-23T11:05:16Z</time></trkpt><trkpt lat="45.7961373904691" lon="11.43499191908305"><ele>752.0</ele><time>2026-04-23T11:05:17Z</time></trkpt><trkpt lat="45.79604830723356" lon="11.435243411381583"><ele>754.0</ele><time>2026-04-23T11:05:18Z</time></trkpt><trkpt lat="45.79595759132487" lon="11.435464265672302"><ele>747.75</ele><time>2026-04-23T11:05:19Z</time></trkpt><trkpt lat="45.79585760091224" lon="11.435670943858106"><ele>741.5</ele><time>2026-04-23T11:05:20Z</time></trkpt><trkpt lat="45.79576917076455" lon="11.435839758823816"><ele>735.25</ele><time>2026-04-23T11:05:21Z</time></trkpt><trkpt lat="45.79569655595598" lon="11.435971544328703"><ele>729.0</ele><time>2026-04-23T11:05:22Z</time></trkpt><trkpt lat="45.79563002373468" lon="11.436089578110721"><ele>729.0</ele><time>2026-04-23T11:05:23Z</time></trkpt><trkpt lat="45.79557794473274" lon="11.436172793980534"><ele>729.0</ele><time>2026-04-23T11:05:24Z</time></trkpt><trkpt lat="45.79551845591178" lon="11.436234973576386"><ele>729.0</ele><time>2026-04-23T11:05:25Z</time></trkpt><trkpt lat="45.795451365675255" lon="11.436240567256503"><ele>729.0</ele><time>2026-04-23T11:05:25.999Z</time></trkpt><trkpt lat="45.79539461875429" lon="11.436198676479588"><ele>729.0</ele><time>2026-04-23T11:05:26.999Z</time></trkpt><trkpt lat="45.79535854901469" lon="11.436119889422178"><ele>729.0</ele><time>2026-04-23T11:05:27.999Z</time></trkpt><trkpt lat="45.79535340007993" lon="11.436015629925848"><ele>729.0</ele><time>2026-04-23T11:05:28.999Z</time></trkpt><trkpt lat="45.795394914220246" lon="11.435920998177101"><ele>729.0</ele><time>2026-04-23T11:05:29.999Z</time></trkpt><trkpt lat="45.79547547993072" lon="11.4358263044452"><ele>729.0</ele><time>2026-04-23T11:05:30.999Z</time></trkpt><trkpt lat="45.795575751391006" lon="11.435708534113331"><ele>729.0</ele><time>2026-04-23T11:05:31.999Z</time></trkpt><trkpt lat="45.79566097422062" lon="11.43559800134002"><ele>729.0</ele><time>2026-04-23T11:05:32.999Z</time></trkpt><trkpt lat="45.79574494137235" lon="11.435451181342023"><ele>725.6666666666666</ele><time>2026-04-23T11:05:33.999Z</time></trkpt><trkpt lat="45.795798383169135" lon="11.435235337278403"><ele>722.3333333333333</ele><time>2026-04-23T11:05:34.999Z</time></trkpt><trkpt lat="45.79583127542624" lon="11.434999420954801"><ele>719.0</ele><time>2026-04-23T11:05:35.999Z</time></trkpt><trkpt lat="45.79589184445654" lon="11.43478615538514"><ele>715.6666666666666</ele><time>2026-04-23T11:05:36.999Z</time></trkpt><trkpt lat="45.79594235911738" lon="11.434551301469451"><ele>712.3333333333334</ele><time>2026-04-23T11:05:37.999Z</time></trkpt><trkpt lat="45.79600363269614" lon="11.434270963930992"><ele>709.0</ele><time>2026-04-23T11:05:38.999Z</time></trkpt><trkpt lat="45.79607096544446" lon="11.43395677585516"><ele>718.3333333333334</ele><time>2026-04-23T11:05:39.999Z</time></trkpt><trkpt lat="45.796132396072764" lon="11.433668515955562"><ele>727.6666666666666</ele><time>2026-04-23T11:05:40.999Z</time></trkpt><trkpt lat="45.79618797715577" lon="11.433408315356024"><ele>737.0</ele><time>2026-04-23T11:05:41.999Z</time></trkpt><trkpt lat="45.79623818488044" lon="11.43318082375776"><ele>734.25</ele><time>2026-04-23T11:05:42.999Z</time></trkpt><trkpt lat="45.796269884152814" lon="11.432961704396165"><ele>731.5</ele><time>2026-04-23T11:05:43.999Z</time></trkpt><trkpt lat="45.79630756495119" lon="11.432757413960042"><ele>728.75</ele><time>2026-04-23T11:05:44.999Z</time></trkpt><trkpt lat="45.79631211661687" lon="11.432550458979067"><ele>726.0</ele><time>2026-04-23T11:05:45.999Z</time></trkpt><trkpt lat="45.796302380264315" lon="11.432318896416428"><ele>724.5</ele><time>2026-04-23T11:05:46.999Z</time></trkpt><trkpt lat="45.796286000835714" lon="11.432107005751218"><ele>723.0</ele><time>2026-04-23T11:05:47.999Z</time></trkpt><trkpt lat="45.796274275380576" lon="11.431906363749832"><ele>721.5</ele><time>2026-04-23T11:05:48.999Z</time></trkpt><trkpt lat="45.7962773139786" lon="11.431709450085066"><ele>720.0</ele><time>2026-04-23T11:05:49.999Z</time></trkpt><trkpt lat="45.79627733978489" lon="11.431502569168297"><ele>716.0</ele><time>2026-04-23T11:05:50.999Z</time></trkpt><trkpt lat="45.796317614928604" lon="11.431270093197247"><ele>712.0</ele><time>2026-04-23T11:05:51.999Z</time></trkpt><trkpt lat="45.79637657443644" lon="11.431027936651269"><ele>708.0</ele><time>2026-04-23T11:05:52.999Z</time></trkpt><trkpt lat="45.79644546216309" lon="11.430811765356355"><ele>708.0</ele><time>2026-04-23T11:05:53.999Z</time></trkpt><trkpt lat="45.796510277227256" lon="11.43060862377795"><ele>708.0</ele><time>2026-04-23T11:05:54.999Z</time></trkpt><trkpt lat="45.79657185105394" lon="11.430415626788962"><ele>708.0</ele><time>2026-04-23T11:05:55.999Z</time></trkpt><trkpt lat="45.79662624836866" lon="11.430233690621849"><ele>708.0</ele><time>2026-04-23T11:05:56.999Z</time></trkpt><trkpt lat="45.796655035884655" lon="11.430041516541051"><ele>705.75</ele><time>2026-04-23T11:05:57.999Z</time></trkpt><trkpt lat="45.79665907978787" lon="11.429807870561763"><ele>703.5</ele><time>2026-04-23T11:05:58.999Z</time></trkpt><trkpt lat="45.79665037838045" lon="11.429596472170923"><ele>701.25</ele><time>2026-04-23T11:05:59.999Z</time></trkpt><trkpt lat="45.79667118490156" lon="11.42940004671984"><ele>699.0</ele><time>2026-04-23T11:06:00.999Z</time></trkpt><trkpt lat="45.79670780869439" lon="11.429190256895819"><ele>697.0</ele><time>2026-04-23T11:06:01.999Z</time></trkpt><trkpt lat="45.79675052784588" lon="11.428975090128898"><ele>695.0</ele><time>2026-04-23T11:06:02.999Z</time></trkpt><trkpt lat="45.79680824657647" lon="11.428809937700715"><ele>693.0</ele><time>2026-04-23T11:06:03.999Z</time></trkpt><trkpt lat="45.79683138221819" lon="11.428652833862024"><ele>691.0</ele><time>2026-04-23T11:06:04.999Z</time></trkpt><trkpt lat="45.7968857049732" lon="11.42851516984015"><ele>695.1999999999999</ele><time>2026-04-23T11:06:05.999Z</time></trkpt><trkpt lat="45.79695423658522" lon="11.428401809744411"><ele>699.4</ele><time>2026-04-23T11:06:07Z</time></trkpt><trkpt lat="45.79703126756484" lon="11.428300156434476"><ele>703.6</ele><time>2026-04-23T11:06:08Z</time></trkpt><trkpt lat="45.79710933001099" lon="11.428228778492683"><ele>707.8</ele><time>2026-04-23T11:06:09Z</time></trkpt><trkpt lat="45.79716305096881" lon="11.428156969115776"><ele>712.0</ele><time>2026-04-23T11:06:10Z</time></trkpt><trkpt lat="45.79719566522412" lon="11.427989759444296"><ele>709.1666666666667</ele><time>2026-04-23T11:06:12Z</time></trkpt><trkpt lat="45.7971685471729" lon="11.427888333035446"><ele>706.3333333333334</ele><time>2026-04-23T11:06:13Z</time></trkpt><trkpt lat="45.79710230252074" lon="11.427820336971376"><ele>703.5</ele><time>2026-04-23T11:06:14Z</time></trkpt><trkpt lat="45.79701940771822" lon="11.427803260728066"><ele>700.6666666666666</ele><time>2026-04-23T11:06:15Z</time></trkpt><trkpt lat="45.79694001001169" lon="11.42785715144768"><ele>697.8333333333333</ele><time>2026-04-23T11:06:16Z</time></trkpt><trkpt lat="45.796880022125855" lon="11.427971703011941"><ele>695.0</ele><time>2026-04-23T11:06:17Z</time></trkpt><trkpt lat="45.79682897922935" lon="11.428136411750339"><ele>689.0</ele><time>2026-04-23T11:06:18Z</time></trkpt><trkpt lat="45.796770795809934" lon="11.428337233377666"><ele>683.0</ele><time>2026-04-23T11:06:19Z</time></trkpt><trkpt lat="45.79669994325075" lon="11.428526742528057"><ele>677.0</ele><time>2026-04-23T11:06:20Z</time></trkpt><trkpt lat="45.79660149290367" lon="11.428773832628668"><ele>684.0</ele><time>2026-04-23T11:06:21Z</time></trkpt><trkpt lat="45.79648211629155" lon="11.429066170832659"><ele>691.0</ele><time>2026-04-23T11:06:22Z</time></trkpt><trkpt lat="45.79640497599623" lon="11.4293907954575"><ele>693.6666666666667</ele><time>2026-04-23T11:06:23Z</time></trkpt><trkpt lat="45.79631924999641" lon="11.429691293163291"><ele>696.3333333333334</ele><time>2026-04-23T11:06:24Z</time></trkpt><trkpt lat="45.796241937192605" lon="11.429942949224415"><ele>699.0</ele><time>2026-04-23T11:06:25Z</time></trkpt><trkpt lat="45.7961559312264" lon="11.430162873016748"><ele>699.0</ele><time>2026-04-23T11:06:26Z</time></trkpt><trkpt lat="45.796055330173736" lon="11.430380301354699"><ele>699.0</ele><time>2026-04-23T11:06:27Z</time></trkpt><trkpt lat="45.79592895019099" lon="11.430601695384274"><ele>699.0</ele><time>2026-04-23T11:06:28Z</time></trkpt><trkpt lat="45.79582238049463" lon="11.4308070110383"><ele>691.6666666666666</ele><time>2026-04-23T11:06:29Z</time></trkpt><trkpt lat="45.795731585552" lon="11.431038060858597"><ele>684.3333333333333</ele><time>2026-04-23T11:06:30Z</time></trkpt><trkpt lat="45.79565789093842" lon="11.431269528116786"><ele>677.0</ele><time>2026-04-23T11:06:31Z</time></trkpt><trkpt lat="45.79560585115281" lon="11.431492743094772"><ele>677.0</ele><time>2026-04-23T11:06:32Z</time></trkpt><trkpt lat="45.79556459109817" lon="11.431714058605145"><ele>677.0</ele><time>2026-04-23T11:06:33Z</time></trkpt><trkpt lat="45.79553500893998" lon="11.431938756746307"><ele>677.0</ele><time>2026-04-23T11:06:34Z</time></trkpt><trkpt lat="45.79548120955514" lon="11.432186121484222"><ele>679.6666666666666</ele><time>2026-04-23T11:06:35Z</time></trkpt><trkpt lat="45.7953904074955" lon="11.432435944920577"><ele>682.3333333333334</ele><time>2026-04-23T11:06:36Z</time></trkpt><trkpt lat="45.79529902068471" lon="11.432639829836514"><ele>685.0</ele><time>2026-04-23T11:06:37Z</time></trkpt><trkpt lat="45.79519265933702" lon="11.43282694938832"><ele>677.3333333333334</ele><time>2026-04-23T11:06:38Z</time></trkpt><trkpt lat="45.79507473287253" lon="11.433007975965149"><ele>669.6666666666666</ele><time>2026-04-23T11:06:39Z</time></trkpt><trkpt lat="45.79494887507078" lon="11.433188747238127"><ele>662.0</ele><time>2026-04-23T11:06:40Z</time></trkpt><trkpt lat="45.79483075026339" lon="11.433378225777906"><ele>662.0</ele><time>2026-04-23T11:06:41Z</time></trkpt><trkpt lat="45.79472403484842" lon="11.43355586943297"><ele>662.0</ele><time>2026-04-23T11:06:42Z</time></trkpt><trkpt lat="45.79461170872445" lon="11.433725690300413"><ele>662.0</ele><time>2026-04-23T11:06:43Z</time></trkpt><trkpt lat="45.79448918005969" lon="11.433913221679699"><ele>664.5</ele><time>2026-04-23T11:06:44Z</time></trkpt><trkpt lat="45.79437846231341" lon="11.434089877574301"><ele>667.0</ele><time>2026-04-23T11:06:45Z</time></trkpt><trkpt lat="45.79428712883205" lon="11.434242876813746"><ele>669.5</ele><time>2026-04-23T11:06:46Z</time></trkpt><trkpt lat="45.7942082005453" lon="11.434362862889733"><ele>672.0</ele><time>2026-04-23T11:06:47Z</time></trkpt><trkpt lat="45.79414072260609" lon="11.434447538913764"><ele>668.6666666666666</ele><time>2026-04-23T11:06:48Z</time></trkpt><trkpt lat="45.794088522471164" lon="11.434506335840922"><ele>665.3333333333334</ele><time>2026-04-23T11:06:49Z</time></trkpt><trkpt lat="45.79402471942156" lon="11.434581408683146"><ele>662.0</ele><time>2026-04-23T11:06:51Z</time></trkpt><trkpt lat="45.7939799973241" lon="11.434646213166076"><ele>658.6666666666667</ele><time>2026-04-23T11:06:54Z</time></trkpt><trkpt lat="45.79397088726042" lon="11.434767503593125"><ele>655.3333333333334</ele><time>2026-04-23T11:07:09Z</time></trkpt><trkpt lat="45.79394851079257" lon="11.434909526287074"><ele>652.0</ele><time>2026-04-23T11:07:11Z</time></trkpt><trkpt lat="45.79395845700971" lon="11.435041735978551"><ele>652.0</ele><time>2026-04-23T11:07:13Z</time></trkpt><trkpt lat="45.79394958490179" lon="11.435153977423802"><ele>652.0</ele><time>2026-04-23T11:07:17Z</time></trkpt><trkpt lat="45.793885407369984" lon="11.435167193519366"><ele>652.0</ele><time>2026-04-23T11:07:21Z</time></trkpt></trkseg><trkseg><trkpt lat="45.79389257368051" lon="11.43521319780174"><ele>652.0</ele><time>2026-04-23T11:26:08.002Z</time></trkpt><trkpt lat="45.79395673205217" lon="11.435119141628727"><ele>652.0</ele><time>2026-04-23T11:26:11.002Z</time></trkpt><trkpt lat="45.79394673111286" lon="11.435017040328253"><ele>652.0</ele><time>2026-04-23T11:26:13.002Z</time></trkpt><trkpt lat="45.793965424461994" lon="11.43487751483167"><ele>652.0</ele><time>2026-04-23T11:26:15.002Z</time></trkpt><trkpt lat="45.79400405988438" lon="11.434754849967034"><ele>652.0</ele><time>2026-04-23T11:26:16.002Z</time></trkpt><trkpt lat="45.79406376646503" lon="11.43463939621269"><ele>650.8</ele><time>2026-04-23T11:26:17.002Z</time></trkpt><trkpt lat="45.79411961346201" lon="11.434550797172333"><ele>649.6</ele><time>2026-04-23T11:26:18.002Z</time></trkpt><trkpt lat="45.794183936075264" lon="11.434460470334496"><ele>648.4</ele><time>2026-04-23T11:26:19.002Z</time></trkpt><trkpt lat="45.794246920828236" lon="11.434351369041206"><ele>647.1999999999999</ele><time>2026-04-23T11:26:20.002Z</time></trkpt><trkpt lat="45.79431726592598" lon="11.43424248415295"><ele>646.0</ele><time>2026-04-23T11:26:21.002Z</time></trkpt><trkpt lat="45.7944167442178" lon="11.43410555979098"><ele>650.0</ele><time>2026-04-23T11:26:22.002Z</time></trkpt><trkpt lat="45.79452898113211" lon="11.433930343626843"><ele>654.0</ele><time>2026-04-23T11:26:23.002Z</time></trkpt><trkpt lat="45.794623253138084" lon="11.433780078872227"><ele>658.0</ele><time>2026-04-23T11:26:24.002Z</time></trkpt><trkpt lat="45.79470957178341" lon="11.433651961054283"><ele>662.0</ele><time>2026-04-23T11:26:25.002Z</time></trkpt><trkpt lat="45.79480051723315" lon="11.433509883989434"><ele>662.0</ele><time>2026-04-23T11:26:26.002Z</time></trkpt><trkpt lat="45.794892328213756" lon="11.433359383102552"><ele>662.0</ele><time>2026-04-23T11:26:27.002Z</time></trkpt><trkpt lat="45.79498978033774" lon="11.433200131889805"><ele>662.0</ele><time>2026-04-23T11:26:28.002Z</time></trkpt><trkpt lat="45.79510981475868" lon="11.43302022062941"><ele>669.6666666666666</ele><time>2026-04-23T11:26:29.002Z</time></trkpt><trkpt lat="45.795241869608745" lon="11.43281358178749"><ele>677.3333333333334</ele><time>2026-04-23T11:26:30.002Z</time></trkpt><trkpt lat="45.79535098878931" lon="11.432632241458794"><ele>685.0</ele><time>2026-04-23T11:26:31.002Z</time></trkpt><trkpt lat="45.795432153622365" lon="11.432465078278822"><ele>685.0</ele><time>2026-04-23T11:26:32.002Z</time></trkpt><trkpt lat="45.79549271954958" lon="11.432304156290403"><ele>685.0</ele><time>2026-04-23T11:26:33.002Z</time></trkpt><trkpt lat="45.795539398214665" lon="11.432152003372323"><ele>685.0</ele><time>2026-04-23T11:26:34.002Z</time></trkpt><trkpt lat="45.79558777396271" lon="11.431963116730447"><ele>685.0</ele><time>2026-04-23T11:26:35.002Z</time></trkpt><trkpt lat="45.79562532019074" lon="11.431731454293256"><ele>682.3333333333334</ele><time>2026-04-23T11:26:36.002Z</time></trkpt><trkpt lat="45.795654640930515" lon="11.431479751974122"><ele>679.6666666666666</ele><time>2026-04-23T11:26:37.002Z</time></trkpt><trkpt lat="45.79570758301993" lon="11.431234232789548"><ele>677.0</ele><time>2026-04-23T11:26:38.002Z</time></trkpt><trkpt lat="45.79578680106768" lon="11.43099116980523"><ele>675.0</ele><time>2026-04-23T11:26:39.002Z</time></trkpt><trkpt lat="45.79588980281069" lon="11.43075580120832"><ele>673.0</ele><time>2026-04-23T11:26:40.003Z</time></trkpt><trkpt lat="45.795998415098644" lon="11.430527255108592"><ele>671.0</ele><time>2026-04-23T11:26:41.003Z</time></trkpt><trkpt lat="45.79611511300381" lon="11.430302457716117"><ele>680.3333333333333</ele><time>2026-04-23T11:26:42.003Z</time></trkpt><trkpt lat="45.796220220498455" lon="11.430116544457164"><ele>689.6666666666666</ele><time>2026-04-23T11:26:43.003Z</time></trkpt><trkpt lat="45.79629896797715" lon="11.42991402176818"><ele>699.0</ele><time>2026-04-23T11:26:44.003Z</time></trkpt><trkpt lat="45.796366077659485" lon="11.4296430754208"><ele>696.3333333333334</ele><time>2026-04-23T11:26:45.003Z</time></trkpt><trkpt lat="45.79643154968371" lon="11.429380981576623"><ele>693.6666666666667</ele><time>2026-04-23T11:26:46.003Z</time></trkpt><trkpt lat="45.79649623616757" lon="11.42917017442295"><ele>691.0</ele><time>2026-04-23T11:26:47.003Z</time></trkpt><trkpt lat="45.79655386918931" lon="11.428979601683299"><ele>687.5</ele><time>2026-04-23T11:26:48.003Z</time></trkpt><trkpt lat="45.79660221131875" lon="11.428807995893171"><ele>684.0</ele><time>2026-04-23T11:26:49.003Z</time></trkpt><trkpt lat="45.79665218592178" lon="11.42866675232939"><ele>680.5</ele><time>2026-04-23T11:26:50.003Z</time></trkpt><trkpt lat="45.79671175068835" lon="11.42854032146628"><ele>677.0</ele><time>2026-04-23T11:26:51.003Z</time></trkpt><trkpt lat="45.796767909718966" lon="11.428411088579386"><ele>677.0</ele><time>2026-04-23T11:26:52.003Z</time></trkpt><trkpt lat="45.796819000253244" lon="11.428281248476804"><ele>677.0</ele><time>2026-04-23T11:26:53.003Z</time></trkpt><trkpt lat="45.79686982166397" lon="11.428159630578806"><ele>677.0</ele><time>2026-04-23T11:26:54.003Z</time></trkpt><trkpt lat="45.79691577377803" lon="11.42804051997904"><ele>677.0</ele><time>2026-04-23T11:26:55.003Z</time></trkpt><trkpt lat="45.79696095521819" lon="11.427951447374134"><ele>677.0</ele><time>2026-04-23T11:26:56.003Z</time></trkpt><trkpt lat="45.79703051980368" lon="11.427833876178626"><ele>680.0</ele><time>2026-04-23T11:26:58.003Z</time></trkpt><trkpt lat="45.79709879900586" lon="11.427860669675962"><ele>683.0</ele><time>2026-04-23T11:26:59.003Z</time></trkpt><trkpt lat="45.79714921675075" lon="11.427943318309202"><ele>686.0</ele><time>2026-04-23T11:27:00.003Z</time></trkpt><trkpt lat="45.79716448214794" lon="11.428046715826117"><ele>689.0</ele><time>2026-04-23T11:27:01.003Z</time></trkpt><trkpt lat="45.79712851072648" lon="11.428142160109044"><ele>692.0</ele><time>2026-04-23T11:27:02.003Z</time></trkpt><trkpt lat="45.797068498347905" lon="11.428228052715546"><ele>695.0</ele><time>2026-04-23T11:27:03.003Z</time></trkpt><trkpt lat="45.79699474208664" lon="11.428319917024606"><ele>694.2</ele><time>2026-04-23T11:27:04.003Z</time></trkpt><trkpt lat="45.79692767431616" lon="11.428393875914091"><ele>693.4</ele><time>2026-04-23T11:27:05.003Z</time></trkpt><trkpt lat="45.796860140595456" lon="11.428499024989424"><ele>692.5999999999999</ele><time>2026-04-23T11:27:06.003Z</time></trkpt><trkpt lat="45.796805248687335" lon="11.428626463025834"><ele>691.8</ele><time>2026-04-23T11:27:07.003Z</time></trkpt><trkpt lat="45.79676262235051" lon="11.428765289121872"><ele>691.0</ele><time>2026-04-23T11:27:08.001Z</time></trkpt><trkpt lat="45.79672842513124" lon="11.428912911098346"><ele>691.0</ele><time>2026-04-23T11:27:09.001Z</time></trkpt><trkpt lat="45.796704637472274" lon="11.429066452961944"><ele>691.0</ele><time>2026-04-23T11:27:10.001Z</time></trkpt><trkpt lat="45.79667172641197" lon="11.429222218588155"><ele>691.0</ele><time>2026-04-23T11:27:11.001Z</time></trkpt><trkpt lat="45.79664103623831" lon="11.429352562222098"><ele>691.0</ele><time>2026-04-23T11:27:12Z</time></trkpt><trkpt lat="45.796626422684675" lon="11.429509596737661"><ele>691.0</ele><time>2026-04-23T11:27:13Z</time></trkpt><trkpt lat="45.796621466028974" lon="11.429676950760022"><ele>693.0</ele><time>2026-04-23T11:27:14Z</time></trkpt><trkpt lat="45.79661671893635" lon="11.429855865957899"><ele>695.0</ele><time>2026-04-23T11:27:15Z</time></trkpt><trkpt lat="45.79661996140849" lon="11.430059971738673"><ele>697.0</ele><time>2026-04-23T11:27:16Z</time></trkpt><trkpt lat="45.796602816820524" lon="11.430252777244586"><ele>699.0</ele><time>2026-04-23T11:27:17Z</time></trkpt><trkpt lat="45.79655647392215" lon="11.430424175567184"><ele>701.25</ele><time>2026-04-23T11:27:18Z</time></trkpt><trkpt lat="45.79648909653662" lon="11.430586905868047"><ele>703.5</ele><time>2026-04-23T11:27:19Z</time></trkpt><trkpt lat="45.79641554457136" lon="11.430777700141531"><ele>705.75</ele><time>2026-04-23T11:27:20Z</time></trkpt><trkpt lat="45.796358449147974" lon="11.43095446497841"><ele>708.0</ele><time>2026-04-23T11:27:21Z</time></trkpt><trkpt lat="45.79631719175432" lon="11.431107778928801"><ele>708.0</ele><time>2026-04-23T11:27:22Z</time></trkpt><trkpt lat="45.79627512066653" lon="11.431276427066152"><ele>708.0</ele><time>2026-04-23T11:27:23Z</time></trkpt><trkpt lat="45.796244148859046" lon="11.431464645425308"><ele>708.0</ele><time>2026-04-23T11:27:24Z</time></trkpt><trkpt lat="45.79622904589594" lon="11.431631969883666"><ele>708.0</ele><time>2026-04-23T11:27:25Z</time></trkpt><trkpt lat="45.7962248387173" lon="11.431789547169636"><ele>711.0</ele><time>2026-04-23T11:27:26Z</time></trkpt><trkpt lat="45.79623272683805" lon="11.431963663923506"><ele>714.0</ele><time>2026-04-23T11:27:27Z</time></trkpt><trkpt lat="45.796246238472136" lon="11.432149254818297"><ele>717.0</ele><time>2026-04-23T11:27:28Z</time></trkpt><trkpt lat="45.79626263050443" lon="11.432338796003952"><ele>720.0</ele><time>2026-04-23T11:27:29Z</time></trkpt><trkpt lat="45.796276683029994" lon="11.432517455987128"><ele>721.5</ele><time>2026-04-23T11:27:30Z</time></trkpt><trkpt lat="45.79628080939577" lon="11.432683731797997"><ele>723.0</ele><time>2026-04-23T11:27:31Z</time></trkpt><trkpt lat="45.79627343870385" lon="11.432847200151642"><ele>724.5</ele><time>2026-04-23T11:27:32Z</time></trkpt><trkpt lat="45.796247133549535" lon="11.433022324804208"><ele>726.0</ele><time>2026-04-23T11:27:33Z</time></trkpt><trkpt lat="45.79620073378189" lon="11.433257468550128"><ele>729.6666666666666</ele><time>2026-04-23T11:27:34Z</time></trkpt><trkpt lat="45.79614676886449" lon="11.433503616502486"><ele>733.3333333333333</ele><time>2026-04-23T11:27:35Z</time></trkpt><trkpt lat="45.796083423056274" lon="11.433778727279508"><ele>737.0</ele><time>2026-04-23T11:27:36.001Z</time></trkpt><trkpt lat="45.796012263655015" lon="11.43409296319465"><ele>728.0</ele><time>2026-04-23T11:27:37.001Z</time></trkpt><trkpt lat="45.79592445043919" lon="11.434408754491894"><ele>719.0</ele><time>2026-04-23T11:27:38.001Z</time></trkpt><trkpt lat="45.7958495462355" lon="11.43473385947994"><ele>719.0</ele><time>2026-04-23T11:27:39.001Z</time></trkpt><trkpt lat="45.79579260745039" lon="11.435046402697168"><ele>719.0</ele><time>2026-04-23T11:27:40.001Z</time></trkpt><trkpt lat="45.79574317377319" lon="11.435302038321089"><ele>719.0</ele><time>2026-04-23T11:27:41.001Z</time></trkpt><trkpt lat="45.79569128707708" lon="11.435491540344357"><ele>721.5</ele><time>2026-04-23T11:27:42.001Z</time></trkpt><trkpt lat="45.79561754111895" lon="11.4356432130701"><ele>724.0</ele><time>2026-04-23T11:27:43.001Z</time></trkpt><trkpt lat="45.795510423778026" lon="11.435742994589935"><ele>726.5</ele><time>2026-04-23T11:27:44.001Z</time></trkpt><trkpt lat="45.79542727915389" lon="11.43584336492168"><ele>729.0</ele><time>2026-04-23T11:27:45.001Z</time></trkpt><trkpt lat="45.795350017263495" lon="11.435915559961703"><ele>729.0</ele><time>2026-04-23T11:27:46.001Z</time></trkpt><trkpt lat="45.79530069378194" lon="11.435993930136252"><ele>729.0</ele><time>2026-04-23T11:27:47.001Z</time></trkpt><trkpt lat="45.79528794078619" lon="11.436088253519603"><ele>729.0</ele><time>2026-04-23T11:27:48.001Z</time></trkpt><trkpt lat="45.79531060388796" lon="11.436195792723643"><ele>729.0</ele><time>2026-04-23T11:27:49.001Z</time></trkpt><trkpt lat="45.79537195881718" lon="11.436284955875337"><ele>729.0</ele><time>2026-04-23T11:27:50.001Z</time></trkpt><trkpt lat="45.795457264020925" lon="11.436318973064552"><ele>729.0</ele><time>2026-04-23T11:27:51.001Z</time></trkpt><trkpt lat="45.795540643579436" lon="11.436288243787502"><ele>729.0</ele><time>2026-04-23T11:27:52.001Z</time></trkpt><trkpt lat="45.795610443792555" lon="11.436204114894688"><ele>729.0</ele><time>2026-04-23T11:27:53.001Z</time></trkpt><trkpt lat="45.795674914528064" lon="11.436073484266249"><ele>729.0</ele><time>2026-04-23T11:27:54.001Z</time></trkpt><trkpt lat="45.79576125608126" lon="11.435927621691047"><ele>729.0</ele><time>2026-04-23T11:27:55.001Z</time></trkpt><trkpt lat="45.79582794439792" lon="11.435773511260829"><ele>729.0</ele><time>2026-04-23T11:27:56.001Z</time></trkpt><trkpt lat="45.79593573019407" lon="11.43559339159839"><ele>729.0</ele><time>2026-04-23T11:27:57.001Z</time></trkpt><trkpt lat="45.79603623589219" lon="11.435389142252012"><ele>729.0</ele><time>2026-04-23T11:27:58.001Z</time></trkpt><trkpt lat="45.79611342325365" lon="11.43514130149588"><ele>738.5</ele><time>2026-04-23T11:27:59.001Z</time></trkpt><trkpt lat="45.796206470066245" lon="11.43484372369918"><ele>748.0</ele><time>2026-04-23T11:28:00.001Z</time></trkpt><trkpt lat="45.79631960725506" lon="11.434509140329705"><ele>748.0</ele><time>2026-04-23T11:28:01.001Z</time></trkpt><trkpt lat="45.796439922561035" lon="11.434151840472918"><ele>748.0</ele><time>2026-04-23T11:28:02.001Z</time></trkpt><trkpt lat="45.79656065751956" lon="11.433801161441774"><ele>744.3333333333334</ele><time>2026-04-23T11:28:03.001Z</time></trkpt><trkpt lat="45.79666558117948" lon="11.433505168076078"><ele>740.6666666666666</ele><time>2026-04-23T11:28:04.001Z</time></trkpt><trkpt lat="45.79676569813698" lon="11.433232572489777"><ele>737.0</ele><time>2026-04-23T11:28:05.001Z</time></trkpt><trkpt lat="45.7968450763471" lon="11.43295365645929"><ele>756.5</ele><time>2026-04-23T11:28:06.001Z</time></trkpt><trkpt lat="45.7969070106836" lon="11.432633620154327"><ele>776.0</ele><time>2026-04-23T11:28:07.001Z</time></trkpt><trkpt lat="45.79695154787265" lon="11.43230771088124"><ele>772.6666666666667</ele><time>2026-04-23T11:28:08.001Z</time></trkpt><trkpt lat="45.796989035335415" lon="11.432029055834732"><ele>769.3333333333334</ele><time>2026-04-23T11:28:09.001Z</time></trkpt><trkpt lat="45.797038643340194" lon="11.431791514922784"><ele>766.0</ele><time>2026-04-23T11:28:10.001Z</time></trkpt><trkpt lat="45.797108334123635" lon="11.431577566962376"><ele>766.0</ele><time>2026-04-23T11:28:11.001Z</time></trkpt><trkpt lat="45.797221574243466" lon="11.43139907465496"><ele>766.0</ele><time>2026-04-23T11:28:12.001Z</time></trkpt><trkpt lat="45.79733809484047" lon="11.43121344156753"><ele>766.0</ele><time>2026-04-23T11:28:13.001Z</time></trkpt><trkpt lat="45.797445832044076" lon="11.431003672687586"><ele>761.3333333333334</ele><time>2026-04-23T11:28:14.001Z</time></trkpt><trkpt lat="45.79753279799552" lon="11.430788487478901"><ele>756.6666666666666</ele><time>2026-04-23T11:28:15.001Z</time></trkpt><trkpt lat="45.797589402629285" lon="11.430547047042355"><ele>752.0</ele><time>2026-04-23T11:28:16.001Z</time></trkpt><trkpt lat="45.7976352849818" lon="11.430276886066803"><ele>759.0</ele><time>2026-04-23T11:28:17.001Z</time></trkpt><trkpt lat="45.79768709085761" lon="11.42997763039753"><ele>766.0</ele><time>2026-04-23T11:28:18.001Z</time></trkpt><trkpt lat="45.797745690322905" lon="11.429687919952004"><ele>773.0</ele><time>2026-04-23T11:28:19.002Z</time></trkpt><trkpt lat="45.797787237958524" lon="11.429464632441356"><ele>773.0</ele><time>2026-04-23T11:28:20.002Z</time></trkpt><trkpt lat="45.7978214742364" lon="11.42932260201188"><ele>773.0</ele><time>2026-04-23T11:28:21.002Z</time></trkpt><trkpt lat="45.79784387529159" lon="11.429207780532588"><ele>773.0</ele><time>2026-04-23T11:28:22.002Z</time></trkpt><trkpt lat="45.7978930096777" lon="11.42913838392623"><ele>773.0</ele><time>2026-04-23T11:28:23.002Z</time></trkpt><trkpt lat="45.79802118880146" lon="11.429080588493244"><ele>773.0</ele><time>2026-04-23T11:28:25.002Z</time></trkpt><trkpt lat="45.798088619370304" lon="11.429144048884488"><ele>773.0</ele><time>2026-04-23T11:28:26.002Z</time></trkpt><trkpt lat="45.79810918011158" lon="11.429255140092858"><ele>773.0</ele><time>2026-04-23T11:28:27.002Z</time></trkpt><trkpt lat="45.79808135289617" lon="11.4293798181756"><ele>773.0</ele><time>2026-04-23T11:28:28.002Z</time></trkpt><trkpt lat="45.79802884883626" lon="11.429538277354414"><ele>773.0</ele><time>2026-04-23T11:28:29.002Z</time></trkpt><trkpt lat="45.79797008077707" lon="11.42968722260461"><ele>773.0</ele><time>2026-04-23T11:28:30.002Z</time></trkpt><trkpt lat="45.79791136824084" lon="11.429855881594976"><ele>777.0</ele><time>2026-04-23T11:28:31.002Z</time></trkpt><trkpt lat="45.797851569367964" lon="11.430069742089078"><ele>781.0</ele><time>2026-04-23T11:28:32.002Z</time></trkpt><trkpt lat="45.797821060140876" lon="11.430280251408552"><ele>785.0</ele><time>2026-04-23T11:28:33.002Z</time></trkpt><trkpt lat="45.79780669677164" lon="11.430515928793062"><ele>788.0</ele><time>2026-04-23T11:28:34.002Z</time></trkpt><trkpt lat="45.79780336616772" lon="11.430801518327767"><ele>791.0</ele><time>2026-04-23T11:28:35.002Z</time></trkpt><trkpt lat="45.79778095288439" lon="11.431065521604696"><ele>794.0</ele><time>2026-04-23T11:28:36.002Z</time></trkpt><trkpt lat="45.79770816505073" lon="11.431273588353791"><ele>784.6666666666667</ele><time>2026-04-23T11:28:37.002Z</time></trkpt><trkpt lat="45.79762880819152" lon="11.431492935895518"><ele>775.3333333333334</ele><time>2026-04-23T11:28:38.002Z</time></trkpt><trkpt lat="45.797512261483035" lon="11.431723856787015"><ele>766.0</ele><time>2026-04-23T11:28:39.002Z</time></trkpt><trkpt lat="45.79743399370951" lon="11.431958093652467"><ele>769.3333333333334</ele><time>2026-04-23T11:28:40.002Z</time></trkpt><trkpt lat="45.79739525967121" lon="11.432203736009676"><ele>772.6666666666667</ele><time>2026-04-23T11:28:41.002Z</time></trkpt><trkpt lat="45.79737697364122" lon="11.43249357878318"><ele>776.0</ele><time>2026-04-23T11:28:42.002Z</time></trkpt><trkpt lat="45.797361527473825" lon="11.432831402229946"><ele>781.5</ele><time>2026-04-23T11:28:43.002Z</time></trkpt><trkpt lat="45.79734070381768" lon="11.433201945958464"><ele>787.0</ele><time>2026-04-23T11:28:44.002Z</time></trkpt><trkpt lat="45.797315695889345" lon="11.433541603439462"><ele>790.5</ele><time>2026-04-23T11:28:45.002Z</time></trkpt><trkpt lat="45.797273403745365" lon="11.433904244700935"><ele>794.0</ele><time>2026-04-23T11:28:46.002Z</time></trkpt><trkpt lat="45.79720979811122" lon="11.434293267676777"><ele>796.0</ele><time>2026-04-23T11:28:47.002Z</time></trkpt><trkpt lat="45.79714134185971" lon="11.43471226713327"><ele>798.0</ele><time>2026-04-23T11:28:48.002Z</time></trkpt><trkpt lat="45.79707888472166" lon="11.43514770101807"><ele>802.0</ele><time>2026-04-23T11:28:49.002Z</time></trkpt><trkpt lat="45.797017949931295" lon="11.435528411763356"><ele>806.0</ele><time>2026-04-23T11:28:50.002Z</time></trkpt><trkpt lat="45.79696387859975" lon="11.435821293255403"><ele>806.0</ele><time>2026-04-23T11:28:51.002Z</time></trkpt><trkpt lat="45.79690157096129" lon="11.436092045217602"><ele>806.0</ele><time>2026-04-23T11:28:52.002Z</time></trkpt><trkpt lat="45.79682021549672" lon="11.43635161888799"><ele>806.0</ele><time>2026-04-23T11:28:53.002Z</time></trkpt><trkpt lat="45.796737543312496" lon="11.436571201911885"><ele>801.4</ele><time>2026-04-23T11:28:54.002Z</time></trkpt><trkpt lat="45.79667532057045" lon="11.436714802765817"><ele>796.8</ele><time>2026-04-23T11:28:55.002Z</time></trkpt><trkpt lat="45.79663002635093" lon="11.436815809941834"><ele>792.1999999999999</ele><time>2026-04-23T11:28:56.002Z</time></trkpt><trkpt lat="45.79661519565535" lon="11.436919320873933"><ele>787.5999999999999</ele><time>2026-04-23T11:28:57.002Z</time></trkpt><trkpt lat="45.79664970215809" lon="11.437027504929526"><ele>783.0</ele><time>2026-04-23T11:28:58.002Z</time></trkpt><trkpt lat="45.796725917367475" lon="11.43710064799405"><ele>783.0</ele><time>2026-04-23T11:28:59.003Z</time></trkpt><trkpt lat="45.796817952969874" lon="11.437106162301518"><ele>783.0</ele><time>2026-04-23T11:29:00.003Z</time></trkpt><trkpt lat="45.79689937012433" lon="11.437030893088854"><ele>783.0</ele><time>2026-04-23T11:29:01.003Z</time></trkpt><trkpt lat="45.79694792170211" lon="11.436908013148296"><ele>783.0</ele><time>2026-04-23T11:29:02.003Z</time></trkpt><trkpt lat="45.796966914818455" lon="11.43674839988098"><ele>783.0</ele><time>2026-04-23T11:29:03.003Z</time></trkpt><trkpt lat="45.796998755551265" lon="11.436551647363228"><ele>790.6666666666667</ele><time>2026-04-23T11:29:04.003Z</time></trkpt><trkpt lat="45.797081500108824" lon="11.436310146621643"><ele>798.3333333333334</ele><time>2026-04-23T11:29:05.003Z</time></trkpt><trkpt lat="45.79715334946139" lon="11.436045230634319"><ele>806.0</ele><time>2026-04-23T11:29:06.003Z</time></trkpt><trkpt lat="45.79724026791934" lon="11.435768424506124"><ele>802.0</ele><time>2026-04-23T11:29:07.003Z</time></trkpt><trkpt lat="45.797338878434815" lon="11.435444657014516"><ele>798.0</ele><time>2026-04-23T11:29:08.003Z</time></trkpt><trkpt lat="45.797446371320845" lon="11.435086185051428"><ele>798.0</ele><time>2026-04-23T11:29:09.003Z</time></trkpt><trkpt lat="45.79756377813232" lon="11.434705009382192"><ele>798.0</ele><time>2026-04-23T11:29:10.003Z</time></trkpt><trkpt lat="45.79767223680276" lon="11.434345141288876"><ele>814.0</ele><time>2026-04-23T11:29:11.003Z</time></trkpt><trkpt lat="45.797767871624615" lon="11.433997829433643"><ele>830.0</ele><time>2026-04-23T11:29:12.003Z</time></trkpt><trkpt lat="45.79785271791287" lon="11.433621496171554"><ele>830.0</ele><time>2026-04-23T11:29:13.003Z</time></trkpt><trkpt lat="45.79792250764469" lon="11.433261949718018"><ele>830.0</ele><time>2026-04-23T11:29:13.999Z</time></trkpt><trkpt lat="45.79798190516609" lon="11.432963326687602"><ele>827.0</ele><time>2026-04-23T11:29:14.999Z</time></trkpt><trkpt lat="45.79805147671558" lon="11.43271243155812"><ele>824.0</ele><time>2026-04-23T11:29:15.999Z</time></trkpt><trkpt lat="45.79816454853608" lon="11.432478320350373"><ele>821.0</ele><time>2026-04-23T11:29:16.999Z</time></trkpt><trkpt lat="45.798277531061814" lon="11.432191255165344"><ele>816.6666666666667</ele><time>2026-04-23T11:29:17.999Z</time></trkpt><trkpt lat="45.79841032847968" lon="11.431920287135698"><ele>812.3333333333333</ele><time>2026-04-23T11:29:18.999Z</time></trkpt><trkpt lat="45.798511341930244" lon="11.431704145609654"><ele>808.0</ele><time>2026-04-23T11:29:19.999Z</time></trkpt><trkpt lat="45.798573313339105" lon="11.431526678152819"><ele>819.6666666666666</ele><time>2026-04-23T11:29:20.999Z</time></trkpt><trkpt lat="45.79860138419494" lon="11.431323409309352"><ele>831.3333333333333</ele><time>2026-04-23T11:29:22Z</time></trkpt><trkpt lat="45.7986134737383" lon="11.43110379006089"><ele>843.0</ele><time>2026-04-23T11:29:23Z</time></trkpt><trkpt lat="45.798634304848115" lon="11.430854961897357"><ele>843.0</ele><time>2026-04-23T11:29:24Z</time></trkpt><trkpt lat="45.798693761024914" lon="11.430647073508522"><ele>843.0</ele><time>2026-04-23T11:29:25Z</time></trkpt><trkpt lat="45.79878824672233" lon="11.430424849792029"><ele>843.0</ele><time>2026-04-23T11:29:26Z</time></trkpt><trkpt lat="45.79890774669766" lon="11.430160425661626"><ele>836.5</ele><time>2026-04-23T11:29:27Z</time></trkpt><trkpt lat="45.799037625038565" lon="11.429866315056616"><ele>830.0</ele><time>2026-04-23T11:29:28Z</time></trkpt><trkpt lat="45.79915662433762" lon="11.429583983294897"><ele>826.5</ele><time>2026-04-23T11:29:29Z</time></trkpt><trkpt lat="45.79925537824556" lon="11.429288869322106"><ele>823.0</ele><time>2026-04-23T11:29:30Z</time></trkpt><trkpt lat="45.799348152147964" lon="11.428960955802898"><ele>835.3333333333333</ele><time>2026-04-23T11:29:31Z</time></trkpt><trkpt lat="45.79942377913881" lon="11.428699703142817"><ele>847.6666666666667</ele><time>2026-04-23T11:29:32Z</time></trkpt><trkpt lat="45.79947865371613" lon="11.428481773811132"><ele>860.0</ele><time>2026-04-23T11:29:33Z</time></trkpt><trkpt lat="45.799508452611335" lon="11.428261754170231"><ele>860.0</ele><time>2026-04-23T11:29:34Z</time></trkpt><trkpt lat="45.79950935310149" lon="11.428030942791011"><ele>860.0</ele><time>2026-04-23T11:29:35Z</time></trkpt><trkpt lat="45.79949687284282" lon="11.427827318273467"><ele>860.0</ele><time>2026-04-23T11:29:36Z</time></trkpt><trkpt lat="45.79951327644906" lon="11.427668676488661"><ele>860.0</ele><time>2026-04-23T11:29:37Z</time></trkpt><trkpt lat="45.799559374599646" lon="11.427530394146265"><ele>857.5</ele><time>2026-04-23T11:29:38Z</time></trkpt><trkpt lat="45.79963719793435" lon="11.427388222322666"><ele>855.0</ele><time>2026-04-23T11:29:39Z</time></trkpt><trkpt lat="45.79973677426046" lon="11.427272471921308"><ele>852.5</ele><time>2026-04-23T11:29:40Z</time></trkpt><trkpt lat="45.799847171032866" lon="11.427160807689884"><ele>850.0</ele><time>2026-04-23T11:29:41Z</time></trkpt><trkpt lat="45.79992497880439" lon="11.427060539336784"><ele>846.75</ele><time>2026-04-23T11:29:42Z</time></trkpt><trkpt lat="45.799990765891174" lon="11.4269301696205"><ele>843.5</ele><time>2026-04-23T11:29:43Z</time></trkpt><trkpt lat="45.800049781745706" lon="11.426741539272014"><ele>840.25</ele><time>2026-04-23T11:29:44Z</time></trkpt><trkpt lat="45.8000766344782" lon="11.426545759125231"><ele>837.0</ele><time>2026-04-23T11:29:45Z</time></trkpt><trkpt lat="45.800109402152295" lon="11.426395022613733"><ele>841.5</ele><time>2026-04-23T11:29:46Z</time></trkpt><trkpt lat="45.80016331970091" lon="11.426261132064475"><ele>846.0</ele><time>2026-04-23T11:29:47Z</time></trkpt><trkpt lat="45.80024560745546" lon="11.426134423383274"><ele>850.5</ele><time>2026-04-23T11:29:48Z</time></trkpt><trkpt lat="45.80034529470037" lon="11.42604374203956"><ele>855.0</ele><time>2026-04-23T11:29:49Z</time></trkpt><trkpt lat="45.80044609092703" lon="11.425997099532898"><ele>855.0</ele><time>2026-04-23T11:29:50.001Z</time></trkpt><trkpt lat="45.800555191641315" lon="11.425962014044012"><ele>855.0</ele><time>2026-04-23T11:29:51.001Z</time></trkpt><trkpt lat="45.80065763889275" lon="11.42589490329897"><ele>855.0</ele><time>2026-04-23T11:29:52.001Z</time></trkpt><trkpt lat="45.80074001406636" lon="11.42577524419898"><ele>855.0</ele><time>2026-04-23T11:29:53.001Z</time></trkpt><trkpt lat="45.800803289142955" lon="11.425629969934743"><ele>850.25</ele><time>2026-04-23T11:29:54.001Z</time></trkpt><trkpt lat="45.80084527473831" lon="11.42545811620142"><ele>845.5</ele><time>2026-04-23T11:29:55.001Z</time></trkpt><trkpt lat="45.80086655813683" lon="11.425251718275673"><ele>840.75</ele><time>2026-04-23T11:29:56.001Z</time></trkpt><trkpt lat="45.800890723211175" lon="11.425056929939505"><ele>836.0</ele><time>2026-04-23T11:29:57.001Z</time></trkpt><trkpt lat="45.800935735380634" lon="11.424920266176395"><ele>843.0</ele><time>2026-04-23T11:29:58.001Z</time></trkpt><trkpt lat="45.801001947153075" lon="11.424811407167635"><ele>850.0</ele><time>2026-04-23T11:29:59.001Z</time></trkpt><trkpt lat="45.80108370789645" lon="11.424714979836002"><ele>856.9999999999999</ele><time>2026-04-23T11:30:00.001Z</time></trkpt><trkpt lat="45.80117463024248" lon="11.42462300810787"><ele>864.0</ele><time>2026-04-23T11:30:01.001Z</time></trkpt><trkpt lat="45.80127015268231" lon="11.42451644539683"><ele>871.0</ele><time>2026-04-23T11:30:02.001Z</time></trkpt><trkpt lat="45.80134916947566" lon="11.424377155110786"><ele>871.0</ele><time>2026-04-23T11:30:03.001Z</time></trkpt><trkpt lat="45.801404624363705" lon="11.424210429986454"><ele>871.0</ele><time>2026-04-23T11:30:04.001Z</time></trkpt><trkpt lat="45.80143454727071" lon="11.424053490771863"><ele>871.0</ele><time>2026-04-23T11:30:05.001Z</time></trkpt><trkpt lat="45.80143670021218" lon="11.423894027593999"><ele>871.0</ele><time>2026-04-23T11:30:06.001Z</time></trkpt><trkpt lat="45.80140288049218" lon="11.423703292600647"><ele>870.25</ele><time>2026-04-23T11:30:07.001Z</time></trkpt><trkpt lat="45.80137520370716" lon="11.423464269870918"><ele>869.5</ele><time>2026-04-23T11:30:08.001Z</time></trkpt><trkpt lat="45.80134589580119" lon="11.423268851947453"><ele>868.75</ele><time>2026-04-23T11:30:09.001Z</time></trkpt><trkpt lat="45.80131768031388" lon="11.423103674643704"><ele>868.0</ele><time>2026-04-23T11:30:10.001Z</time></trkpt><trkpt lat="45.8013367898" lon="11.422945123048057"><ele>864.75</ele><time>2026-04-23T11:30:11.001Z</time></trkpt><trkpt lat="45.801385475629075" lon="11.422783291251044"><ele>861.5</ele><time>2026-04-23T11:30:12.001Z</time></trkpt><trkpt lat="45.80146331289312" lon="11.422654633956387"><ele>858.25</ele><time>2026-04-23T11:30:13.001Z</time></trkpt><trkpt lat="45.80156600195064" lon="11.422562278387502"><ele>855.0</ele><time>2026-04-23T11:30:14.001Z</time></trkpt><trkpt lat="45.80169794698946" lon="11.422499630350584"><ele>858.6666666666667</ele><time>2026-04-23T11:30:15.001Z</time></trkpt><trkpt lat="45.80186655637306" lon="11.422433442145934"><ele>862.3333333333334</ele><time>2026-04-23T11:30:16.001Z</time></trkpt><trkpt lat="45.80201412035109" lon="11.422374194362119"><ele>866.0</ele><time>2026-04-23T11:30:17.001Z</time></trkpt><trkpt lat="45.802158499033006" lon="11.422358400601302"><ele>866.0</ele><time>2026-04-23T11:30:18.001Z</time></trkpt><trkpt lat="45.802327320027665" lon="11.422381051719976"><ele>866.0</ele><time>2026-04-23T11:30:19.001Z</time></trkpt><trkpt lat="45.80251205104798" lon="11.422430656089258"><ele>866.0</ele><time>2026-04-23T11:30:20.001Z</time></trkpt><trkpt lat="45.80273614261416" lon="11.422496494779194"><ele>863.5</ele><time>2026-04-23T11:30:21.001Z</time></trkpt><trkpt lat="45.80296313173372" lon="11.422556864576077"><ele>861.0</ele><time>2026-04-23T11:30:22.001Z</time></trkpt><trkpt lat="45.803215222907056" lon="11.422637535481837"><ele>861.0</ele><time>2026-04-23T11:30:23.002Z</time></trkpt><trkpt lat="45.80347680880591" lon="11.422737244758608"><ele>861.0</ele><time>2026-04-23T11:30:24.002Z</time></trkpt><trkpt lat="45.803696447451074" lon="11.422820576112224"><ele>860.0</ele><time>2026-04-23T11:30:25.002Z</time></trkpt><trkpt lat="45.80390137111044" lon="11.422876708432554"><ele>859.0</ele><time>2026-04-23T11:30:26.002Z</time></trkpt><trkpt lat="45.8040723999362" lon="11.422907684485804"><ele>858.0</ele><time>2026-04-23T11:30:27.002Z</time></trkpt><trkpt lat="45.80421654885421" lon="11.42292322740382"><ele>859.3333333333333</ele><time>2026-04-23T11:30:28.002Z</time></trkpt><trkpt lat="45.80436936386252" lon="11.42293260145984"><ele>860.6666666666666</ele><time>2026-04-23T11:30:29.002Z</time></trkpt><trkpt lat="45.80456824909957" lon="11.422936390030525"><ele>862.0</ele><time>2026-04-23T11:30:30.002Z</time></trkpt><trkpt lat="45.80479275073808" lon="11.422953225132794"><ele>870.0</ele><time>2026-04-23T11:30:31.002Z</time></trkpt><trkpt lat="45.8049931887427" lon="11.422989984311284"><ele>878.0</ele><time>2026-04-23T11:30:32.002Z</time></trkpt><trkpt lat="45.805209909931904" lon="11.423016515897062"><ele>886.0</ele><time>2026-04-23T11:30:33.002Z</time></trkpt><trkpt lat="45.80539262164607" lon="11.42302801895341"><ele>886.0</ele><time>2026-04-23T11:30:34.002Z</time></trkpt><trkpt lat="45.80556317449663" lon="11.423062037197452"><ele>886.0</ele><time>2026-04-23T11:30:35.002Z</time></trkpt><trkpt lat="45.805720947167686" lon="11.423144957732749"><ele>886.0</ele><time>2026-04-23T11:30:36.002Z</time></trkpt><trkpt lat="45.805867431476884" lon="11.423261396622552"><ele>881.3333333333333</ele><time>2026-04-23T11:30:37.002Z</time></trkpt><trkpt lat="45.80601477715632" lon="11.423419810071724"><ele>876.6666666666667</ele><time>2026-04-23T11:30:38.002Z</time></trkpt><trkpt lat="45.80618196242298" lon="11.423608580924885"><ele>872.0</ele><time>2026-04-23T11:30:39.002Z</time></trkpt><trkpt lat="45.80634220597397" lon="11.423787277577766"><ele>881.6666666666667</ele><time>2026-04-23T11:30:40.002Z</time></trkpt><trkpt lat="45.80648371154613" lon="11.423905216817959"><ele>891.3333333333333</ele><time>2026-04-23T11:30:41.002Z</time></trkpt><trkpt lat="45.806632122234575" lon="11.423984266409997"><ele>901.0</ele><time>2026-04-23T11:30:42.002Z</time></trkpt><trkpt lat="45.80679314477925" lon="11.424030480722589"><ele>898.6666666666666</ele><time>2026-04-23T11:30:43.002Z</time></trkpt><trkpt lat="45.80698600981543" lon="11.424056969271696"><ele>896.3333333333333</ele><time>2026-04-23T11:30:44.002Z</time></trkpt><trkpt lat="45.807184702320086" lon="11.424073673769692"><ele>894.0</ele><time>2026-04-23T11:30:45.002Z</time></trkpt><trkpt lat="45.80735830851145" lon="11.424119210244145"><ele>894.0</ele><time>2026-04-23T11:30:46.002Z</time></trkpt><trkpt lat="45.80752329732945" lon="11.424197693038401"><ele>894.0</ele><time>2026-04-23T11:30:47.002Z</time></trkpt><trkpt lat="45.80768502909373" lon="11.424327401914997"><ele>894.0</ele><time>2026-04-23T11:30:48.002Z</time></trkpt><trkpt lat="45.80784558453442" lon="11.42448695913206"><ele>899.0</ele><time>2026-04-23T11:30:49.002Z</time></trkpt><trkpt lat="45.80800893659793" lon="11.42466860764073"><ele>904.0</ele><time>2026-04-23T11:30:50.002Z</time></trkpt><trkpt lat="45.80814640039345" lon="11.424805400169419"><ele>909.0</ele><time>2026-04-23T11:30:51.002Z</time></trkpt><trkpt lat="45.80828576395973" lon="11.424901166716182"><ele>909.0</ele><time>2026-04-23T11:30:52.002Z</time></trkpt><trkpt lat="45.80844547104172" lon="11.424971460708086"><ele>909.0</ele><time>2026-04-23T11:30:53.002Z</time></trkpt><trkpt lat="45.808618280371256" lon="11.425007722952065"><ele>909.0</ele><time>2026-04-23T11:30:54.002Z</time></trkpt><trkpt lat="45.808798570369866" lon="11.42501613009636"><ele>907.6666666666667</ele><time>2026-04-23T11:30:55.002Z</time></trkpt><trkpt lat="45.80897960434564" lon="11.425039565497212"><ele>906.3333333333334</ele><time>2026-04-23T11:30:56.002Z</time></trkpt><trkpt lat="45.80912551936951" lon="11.425109603715516"><ele>905.0</ele><time>2026-04-23T11:30:57.003Z</time></trkpt><trkpt lat="45.80926326924075" lon="11.425226886659354"><ele>906.0</ele><time>2026-04-23T11:30:58.003Z</time></trkpt><trkpt lat="45.80940371716406" lon="11.425383565375672"><ele>907.0</ele><time>2026-04-23T11:30:59.003Z</time></trkpt><trkpt lat="45.809539551421246" lon="11.4255836111124"><ele>908.0</ele><time>2026-04-23T11:31:00.003Z</time></trkpt><trkpt lat="45.809676492942025" lon="11.425797817566147"><ele>908.0</ele><time>2026-04-23T11:31:01.003Z</time></trkpt><trkpt lat="45.809807685792144" lon="11.425959883388305"><ele>908.0</ele><time>2026-04-23T11:31:02.003Z</time></trkpt><trkpt lat="45.809954005011086" lon="11.426079025346901"><ele>908.0</ele><time>2026-04-23T11:31:03.003Z</time></trkpt><trkpt lat="45.81011978640522" lon="11.426154985648896"><ele>909.3333333333334</ele><time>2026-04-23T11:31:04.003Z</time></trkpt><trkpt lat="45.810299835455936" lon="11.426203413296822"><ele>910.6666666666667</ele><time>2026-04-23T11:31:05.003Z</time></trkpt><trkpt lat="45.81051613546856" lon="11.426241501878364"><ele>912.0</ele><time>2026-04-23T11:31:06.003Z</time></trkpt><trkpt lat="45.81074288821983" lon="11.42629133525699"><ele>917.0</ele><time>2026-04-23T11:31:07.003Z</time></trkpt><trkpt lat="45.81093283216838" lon="11.426348294054772"><ele>922.0</ele><time>2026-04-23T11:31:08.003Z</time></trkpt><trkpt lat="45.811121061419826" lon="11.426435311853323"><ele>927.0</ele><time>2026-04-23T11:31:09.003Z</time></trkpt><trkpt lat="45.81132719759468" lon="11.42657098871594"><ele>927.0</ele><time>2026-04-23T11:31:10.003Z</time></trkpt><trkpt lat="45.81155315452689" lon="11.426741531404733"><ele>927.0</ele><time>2026-04-23T11:31:11.003Z</time></trkpt><trkpt lat="45.81179185987794" lon="11.426928360524338"><ele>931.0</ele><time>2026-04-23T11:31:12.003Z</time></trkpt><trkpt lat="45.8120432234272" lon="11.427120365350468"><ele>935.0</ele><time>2026-04-23T11:31:13.003Z</time></trkpt><trkpt lat="45.81230197111178" lon="11.42731943683128"><ele>935.5</ele><time>2026-04-23T11:31:14.003Z</time></trkpt><trkpt lat="45.81257362379903" lon="11.42752916726247"><ele>936.0</ele><time>2026-04-23T11:31:15.003Z</time></trkpt><trkpt lat="45.81285888701278" lon="11.427758165709015"><ele>939.0</ele><time>2026-04-23T11:31:16.003Z</time></trkpt><trkpt lat="45.813150713911334" lon="11.427981698622732"><ele>942.0</ele><time>2026-04-23T11:31:17.003Z</time></trkpt><trkpt lat="45.81344865793061" lon="11.428211685397274"><ele>944.5</ele><time>2026-04-23T11:31:18.003Z</time></trkpt><trkpt lat="45.813738013682695" lon="11.428433273846627"><ele>947.0</ele><time>2026-04-23T11:31:19.003Z</time></trkpt><trkpt lat="45.81398936148383" lon="11.428622236614668"><ele>947.0</ele><time>2026-04-23T11:31:20Z</time></trkpt><trkpt lat="45.81420341605644" lon="11.428784402488924"><ele>947.0</ele><time>2026-04-23T11:31:21Z</time></trkpt><trkpt lat="45.81439654162881" lon="11.428935982149769"><ele>949.3333333333334</ele><time>2026-04-23T11:31:22Z</time></trkpt><trkpt lat="45.814586526254686" lon="11.429079089661206"><ele>951.6666666666667</ele><time>2026-04-23T11:31:23Z</time></trkpt><trkpt lat="45.814774594583234" lon="11.429243023988974"><ele>954.0</ele><time>2026-04-23T11:31:24Z</time></trkpt><trkpt lat="45.81492852520374" lon="11.429412558456121"><ele>954.0</ele><time>2026-04-23T11:31:25Z</time></trkpt><trkpt lat="45.81505496270207" lon="11.429593534760258"><ele>954.0</ele><time>2026-04-23T11:31:26Z</time></trkpt><trkpt lat="45.81516193104919" lon="11.42980012316271"><ele>954.0</ele><time>2026-04-23T11:31:27Z</time></trkpt><trkpt lat="45.81525476759839" lon="11.430036353110575"><ele>963.5</ele><time>2026-04-23T11:31:28Z</time></trkpt><trkpt lat="45.81534120399989" lon="11.430322600211309"><ele>973.0</ele><time>2026-04-23T11:31:29Z</time></trkpt><trkpt lat="45.815429636715" lon="11.430642523501655"><ele>973.0</ele><time>2026-04-23T11:31:30Z</time></trkpt><trkpt lat="45.8155259858106" lon="11.430990710819417"><ele>973.0</ele><time>2026-04-23T11:31:31Z</time></trkpt><trkpt lat="45.81563088649664" lon="11.431366538644824"><ele>973.5</ele><time>2026-04-23T11:31:32Z</time></trkpt><trkpt lat="45.81573540371339" lon="11.43174049410783"><ele>974.0</ele><time>2026-04-23T11:31:33Z</time></trkpt><trkpt lat="45.815825156256" lon="11.432069781593903"><ele>972.5</ele><time>2026-04-23T11:31:34Z</time></trkpt><trkpt lat="45.81591821254449" lon="11.432386656477728"><ele>971.0</ele><time>2026-04-23T11:31:35Z</time></trkpt><trkpt lat="45.81602467342103" lon="11.432694955786609"><ele>978.5</ele><time>2026-04-23T11:31:36Z</time></trkpt><trkpt lat="45.81615724761596" lon="11.433000388999874"><ele>986.0</ele><time>2026-04-23T11:31:37Z</time></trkpt><trkpt lat="45.81630982448374" lon="11.433303902138004"><ele>986.0</ele><time>2026-04-23T11:31:38Z</time></trkpt><trkpt lat="45.81647780594379" lon="11.433624736909328"><ele>986.0</ele><time>2026-04-23T11:31:39Z</time></trkpt><trkpt lat="45.8166570929639" lon="11.433955629333317"><ele>982.0</ele><time>2026-04-23T11:31:40Z</time></trkpt><trkpt lat="45.81680569670805" lon="11.434245296342521"><ele>978.0</ele><time>2026-04-23T11:31:41Z</time></trkpt><trkpt lat="45.816943729399384" lon="11.434498051647736"><ele>979.6666666666667</ele><time>2026-04-23T11:31:42Z</time></trkpt><trkpt lat="45.817075924202236" lon="11.434730068322459"><ele>981.3333333333334</ele><time>2026-04-23T11:31:43Z</time></trkpt><trkpt lat="45.81721664050503" lon="11.434935886655596"><ele>983.0</ele><time>2026-04-23T11:31:44Z</time></trkpt><trkpt lat="45.81737862718785" lon="11.435135694562433"><ele>983.0</ele><time>2026-04-23T11:31:45Z</time></trkpt><trkpt lat="45.817562147591666" lon="11.435315572572053"><ele>983.0</ele><time>2026-04-23T11:31:46.001Z</time></trkpt><trkpt lat="45.81776322083239" lon="11.435469450405797"><ele>982.0</ele><time>2026-04-23T11:31:47.001Z</time></trkpt><trkpt lat="45.81798719947371" lon="11.435618380467275"><ele>981.0</ele><time>2026-04-23T11:31:48.001Z</time></trkpt><trkpt lat="45.81823610895438" lon="11.435770442886273"><ele>986.5</ele><time>2026-04-23T11:31:49.001Z</time></trkpt><trkpt lat="45.81850463364198" lon="11.435924216339405"><ele>992.0</ele><time>2026-04-23T11:31:50.001Z</time></trkpt><trkpt lat="45.81876704111908" lon="11.436088283619473"><ele>992.0</ele><time>2026-04-23T11:31:51.001Z</time></trkpt><trkpt lat="45.819017338469074" lon="11.436259592443195"><ele>992.0</ele><time>2026-04-23T11:31:52.001Z</time></trkpt><trkpt lat="45.81927280399476" lon="11.436457829477478"><ele>995.5</ele><time>2026-04-23T11:31:53.001Z</time></trkpt><trkpt lat="45.81951841352804" lon="11.436679718769668"><ele>999.0</ele><time>2026-04-23T11:31:54.001Z</time></trkpt><trkpt lat="45.81977052898568" lon="11.436931127386249"><ele>1000.5</ele><time>2026-04-23T11:31:55.001Z</time></trkpt><trkpt lat="45.82003119654104" lon="11.437198069747756"><ele>1002.0</ele><time>2026-04-23T11:31:56.001Z</time></trkpt><trkpt lat="45.82030209132287" lon="11.437476267949657"><ele>1002.0</ele><time>2026-04-23T11:31:57.001Z</time></trkpt><trkpt lat="45.82055427407562" lon="11.437733189574024"><ele>1002.0</ele><time>2026-04-23T11:31:58.001Z</time></trkpt><trkpt lat="45.8207844692265" lon="11.437953618959755"><ele>1000.0</ele><time>2026-04-23T11:31:59.001Z</time></trkpt><trkpt lat="45.82100027769737" lon="11.43814274233002"><ele>998.0</ele><time>2026-04-23T11:32:00.001Z</time></trkpt><trkpt lat="45.82120617725437" lon="11.438304365715641"><ele>998.0</ele><time>2026-04-23T11:32:01.001Z</time></trkpt><trkpt lat="45.821402866034205" lon="11.438435698547218"><ele>998.0</ele><time>2026-04-23T11:32:02.001Z</time></trkpt><trkpt lat="45.82159715244157" lon="11.43854253736092"><ele>998.0</ele><time>2026-04-23T11:32:03.001Z</time></trkpt><trkpt lat="45.821782054442686" lon="11.438621264369639"><ele>1000.0</ele><time>2026-04-23T11:32:04.001Z</time></trkpt><trkpt lat="45.82195750439499" lon="11.43867915039316"><ele>1002.0</ele><time>2026-04-23T11:32:05.001Z</time></trkpt><trkpt lat="45.822120855217435" lon="11.438715531210375"><ele>1004.0</ele><time>2026-04-23T11:32:06.001Z</time></trkpt><trkpt lat="45.82226823672849" lon="11.438727194767388"><ele>1004.0</ele><time>2026-04-23T11:32:07.001Z</time></trkpt><trkpt lat="45.822410416858105" lon="11.438713032435402"><ele>1004.0</ele><time>2026-04-23T11:32:08.001Z</time></trkpt><trkpt lat="45.82257102674269" lon="11.438669443223063"><ele>1004.0</ele><time>2026-04-23T11:32:09.001Z</time></trkpt><trkpt lat="45.82274963602184" lon="11.438590666444256"><ele>1004.5</ele><time>2026-04-23T11:32:10.001Z</time></trkpt><trkpt lat="45.82294873917757" lon="11.438488398428504"><ele>1005.0</ele><time>2026-04-23T11:32:11.001Z</time></trkpt><trkpt lat="45.82317953666425" lon="11.438371172651477"><ele>1005.0</ele><time>2026-04-23T11:32:12.001Z</time></trkpt><trkpt lat="45.823425962915564" lon="11.438240800154695"><ele>1005.0</ele><time>2026-04-23T11:32:13.001Z</time></trkpt><trkpt lat="45.823648526643865" lon="11.438124378143447"><ele>1007.5</ele><time>2026-04-23T11:32:14.001Z</time></trkpt><trkpt lat="45.82389296872074" lon="11.438002170009996"><ele>1010.0</ele><time>2026-04-23T11:32:15.001Z</time></trkpt><trkpt lat="45.824147802196705" lon="11.437854867718405"><ele>1011.5</ele><time>2026-04-23T11:32:16.001Z</time></trkpt><trkpt lat="45.82440071406514" lon="11.437678435716917"><ele>1013.0</ele><time>2026-04-23T11:32:17.001Z</time></trkpt><trkpt lat="45.82465816432701" lon="11.437471248108842"><ele>1013.0</ele><time>2026-04-23T11:32:18.001Z</time></trkpt><trkpt lat="45.82489476940958" lon="11.437278936231674"><ele>1013.0</ele><time>2026-04-23T11:32:19.001Z</time></trkpt><trkpt lat="45.82508886892472" lon="11.43712416451858"><ele>1014.6666666666667</ele><time>2026-04-23T11:32:20.001Z</time></trkpt><trkpt lat="45.82526546815213" lon="11.436997737845642"><ele>1016.3333333333333</ele><time>2026-04-23T11:32:21.001Z</time></trkpt><trkpt lat="45.82543786401732" lon="11.43690681731318"><ele>1018.0</ele><time>2026-04-23T11:32:22.001Z</time></trkpt><trkpt lat="45.825630467674785" lon="11.436848561024027"><ele>1018.0</ele><time>2026-04-23T11:32:23.002Z</time></trkpt><trkpt lat="45.8258387894825" lon="11.436812421069975"><ele>1018.0</ele><time>2026-04-23T11:32:24.002Z</time></trkpt><trkpt lat="45.82608228366938" lon="11.436790087065093"><ele>1017.5</ele><time>2026-04-23T11:32:25.002Z</time></trkpt><trkpt lat="45.826351733374246" lon="11.436754282692021"><ele>1017.0</ele><time>2026-04-23T11:32:26.002Z</time></trkpt><trkpt lat="45.8266243935916" lon="11.436714954662351"><ele>1018.0</ele><time>2026-04-23T11:32:27.002Z</time></trkpt><trkpt lat="45.82691197220746" lon="11.436676270965366"><ele>1019.0</ele><time>2026-04-23T11:32:28.002Z</time></trkpt><trkpt lat="45.82721912764715" lon="11.43663027748664"><ele>1019.0</ele><time>2026-04-23T11:32:29.002Z</time></trkpt><trkpt lat="45.82750659118553" lon="11.436578020969792"><ele>1019.0</ele><time>2026-04-23T11:32:30.002Z</time></trkpt><trkpt lat="45.82780319246517" lon="11.436508608016162"><ele>1018.0</ele><time>2026-04-23T11:32:31.002Z</time></trkpt><trkpt lat="45.82811787988548" lon="11.43640890326853"><ele>1017.0</ele><time>2026-04-23T11:32:32.002Z</time></trkpt><trkpt lat="45.82844023726098" lon="11.436299593730475"><ele>1021.5</ele><time>2026-04-23T11:32:33.002Z</time></trkpt><trkpt lat="45.82877679164722" lon="11.436191168601274"><ele>1026.0</ele><time>2026-04-23T11:32:34.002Z</time></trkpt><trkpt lat="45.82911758823674" lon="11.436083872379342"><ele>1026.5</ele><time>2026-04-23T11:32:35.002Z</time></trkpt><trkpt lat="45.829452939701895" lon="11.435983560701409"><ele>1027.0</ele><time>2026-04-23T11:32:36.002Z</time></trkpt><trkpt lat="45.82977078816839" lon="11.435894626509507"><ele>1027.0</ele><time>2026-04-23T11:32:37.002Z</time></trkpt><trkpt lat="45.830087591318616" lon="11.435821184694438"><ele>1027.0</ele><time>2026-04-23T11:32:38.002Z</time></trkpt><trkpt lat="45.830371380830265" lon="11.435774014916992"><ele>1029.0</ele><time>2026-04-23T11:32:39.002Z</time></trkpt><trkpt lat="45.83063606778075" lon="11.435723969366675"><ele>1031.0</ele><time>2026-04-23T11:32:40.002Z</time></trkpt><trkpt lat="45.830908152759065" lon="11.435660561691043"><ele>1033.5</ele><time>2026-04-23T11:32:41.002Z</time></trkpt><trkpt lat="45.8311988550197" lon="11.435560299733279"><ele>1036.0</ele><time>2026-04-23T11:32:42.002Z</time></trkpt><trkpt lat="45.831494615191964" lon="11.435448551506727"><ele>1036.0</ele><time>2026-04-23T11:32:43.002Z</time></trkpt><trkpt lat="45.83177789422915" lon="11.43533889243456"><ele>1036.0</ele><time>2026-04-23T11:32:44.002Z</time></trkpt><trkpt lat="45.83201485872171" lon="11.435240423905363"><ele>1036.5</ele><time>2026-04-23T11:32:45.002Z</time></trkpt><trkpt lat="45.832253651911124" lon="11.435126105764793"><ele>1037.0</ele><time>2026-04-23T11:32:46.002Z</time></trkpt><trkpt lat="45.83249564321544" lon="11.434967712286497"><ele>1037.0</ele><time>2026-04-23T11:32:47.002Z</time></trkpt><trkpt lat="45.83270604900624" lon="11.434818834004128"><ele>1037.0</ele><time>2026-04-23T11:32:48.002Z</time></trkpt><trkpt lat="45.83291473682758" lon="11.434655249205631"><ele>1035.5</ele><time>2026-04-23T11:32:49.002Z</time></trkpt><trkpt lat="45.833128750736826" lon="11.434437487334845"><ele>1034.0</ele><time>2026-04-23T11:32:50.002Z</time></trkpt><trkpt lat="45.83334131165572" lon="11.434193304011746"><ele>1036.0</ele><time>2026-04-23T11:32:51.002Z</time></trkpt><trkpt lat="45.833554693825775" lon="11.433937248258003"><ele>1038.0</ele><time>2026-04-23T11:32:52.002Z</time></trkpt><trkpt lat="45.83373187961092" lon="11.43372885883699"><ele>1038.0</ele><time>2026-04-23T11:32:53.002Z</time></trkpt><trkpt lat="45.83389268488973" lon="11.433543166766237"><ele>1038.0</ele><time>2026-04-23T11:32:54.002Z</time></trkpt><trkpt lat="45.83404531402827" lon="11.433383340453803"><ele>1038.0</ele><time>2026-04-23T11:32:55.002Z</time></trkpt><trkpt lat="45.83419974362537" lon="11.433257508989968"><ele>1039.6666666666667</ele><time>2026-04-23T11:32:56.002Z</time></trkpt><trkpt lat="45.83436532857565" lon="11.43314943519697"><ele>1041.3333333333335</ele><time>2026-04-23T11:32:57.002Z</time></trkpt><trkpt lat="45.834545438397804" lon="11.433062129755804"><ele>1043.0</ele><time>2026-04-23T11:32:58.002Z</time></trkpt><trkpt lat="45.83471206571169" lon="11.433011233919439"><ele>1043.0</ele><time>2026-04-23T11:32:59.002Z</time></trkpt><trkpt lat="45.83488524886187" lon="11.432982518657079"><ele>1043.0</ele><time>2026-04-23T11:33:00.003Z</time></trkpt><trkpt lat="45.83507973371448" lon="11.432973838310124"><ele>1043.0</ele><time>2026-04-23T11:33:01.003Z</time></trkpt><trkpt lat="45.835303020564695" lon="11.432973947184575"><ele>1043.6666666666667</ele><time>2026-04-23T11:33:02.003Z</time></trkpt><trkpt lat="45.83553445007075" lon="11.43297053640353"><ele>1044.3333333333333</ele><time>2026-04-23T11:33:03.003Z</time></trkpt><trkpt lat="45.83573303103171" lon="11.432954883689824"><ele>1045.0</ele><time>2026-04-23T11:33:04.003Z</time></trkpt><trkpt lat="45.83592638996373" lon="11.432916418809006"><ele>1045.0</ele><time>2026-04-23T11:33:05.003Z</time></trkpt><trkpt lat="45.83613106881225" lon="11.432846945236744"><ele>1045.0</ele><time>2026-04-23T11:33:06.003Z</time></trkpt><trkpt lat="45.836332730473714" lon="11.432751643398138"><ele>1045.0</ele><time>2026-04-23T11:33:07.003Z</time></trkpt><trkpt lat="45.83650677996802" lon="11.432665001321364"><ele>1045.0</ele><time>2026-04-23T11:33:08.003Z</time></trkpt><trkpt lat="45.83665646626803" lon="11.43259457584314"><ele>1045.0</ele><time>2026-04-23T11:33:09.003Z</time></trkpt><trkpt lat="45.8367973595462" lon="11.432528385854228"><ele>1045.0</ele><time>2026-04-23T11:33:10.003Z</time></trkpt><trkpt lat="45.83692964784028" lon="11.432470570072843"><ele>1045.0</ele><time>2026-04-23T11:33:11.003Z</time></trkpt><trkpt lat="45.837065720638634" lon="11.43240709200306"><ele>1047.0</ele><time>2026-04-23T11:33:12.003Z</time></trkpt><trkpt lat="45.8372242572082" lon="11.432334592400267"><ele>1049.0</ele><time>2026-04-23T11:33:13.003Z</time></trkpt><trkpt lat="45.83740092160048" lon="11.432257393505513"><ele>1051.0</ele><time>2026-04-23T11:33:14.003Z</time></trkpt><trkpt lat="45.83755718182561" lon="11.43220433629935"><ele>1052.25</ele><time>2026-04-23T11:33:15.003Z</time></trkpt><trkpt lat="45.83770149597021" lon="11.432173014700648"><ele>1053.5</ele><time>2026-04-23T11:33:16.003Z</time></trkpt><trkpt lat="45.83783641817086" lon="11.432159040773218"><ele>1054.75</ele><time>2026-04-23T11:33:17.003Z</time></trkpt><trkpt lat="45.83796175363356" lon="11.43215811921587"><ele>1056.0</ele><time>2026-04-23T11:33:18.003Z</time></trkpt><trkpt lat="45.83807976335413" lon="11.432164989025878"><ele>1056.0</ele><time>2026-04-23T11:33:19.003Z</time></trkpt><trkpt lat="45.83819598873306" lon="11.432178928314258"><ele>1056.0</ele><time>2026-04-23T11:33:20.003Z</time></trkpt><trkpt lat="45.83831673044143" lon="11.43219722631405"><ele>1056.0</ele><time>2026-04-23T11:33:21.003Z</time></trkpt><trkpt lat="45.838439072429296" lon="11.432231634559516"><ele>1056.0</ele><time>2026-04-23T11:33:22.003Z</time></trkpt><trkpt lat="45.83856431006331" lon="11.432262871330384"><ele>1054.75</ele><time>2026-04-23T11:33:23.003Z</time></trkpt><trkpt lat="45.83869209859383" lon="11.432293363860595"><ele>1053.5</ele><time>2026-04-23T11:33:24.003Z</time></trkpt><trkpt lat="45.83882700831678" lon="11.432323109072081"><ele>1052.25</ele><time>2026-04-23T11:33:25.003Z</time></trkpt><trkpt lat="45.838963487136745" lon="11.432351520646836"><ele>1051.0</ele><time>2026-04-23T11:33:26Z</time></trkpt><trkpt lat="45.839102818814936" lon="11.432389911852706"><ele>1051.0</ele><time>2026-04-23T11:33:27Z</time></trkpt><trkpt lat="45.83924477085505" lon="11.432450860471814"><ele>1051.0</ele><time>2026-04-23T11:33:28Z</time></trkpt><trkpt lat="45.83938542557238" lon="11.432534594447297"><ele>1051.0</ele><time>2026-04-23T11:33:29Z</time></trkpt><trkpt lat="45.839526647050576" lon="11.432640582415075"><ele>1050.6666666666665</ele><time>2026-04-23T11:33:30Z</time></trkpt><trkpt lat="45.83967515786553" lon="11.432766788434428"><ele>1050.3333333333333</ele><time>2026-04-23T11:33:31Z</time></trkpt><trkpt lat="45.83985188858374" lon="11.432925610989017"><ele>1050.0</ele><time>2026-04-23T11:33:32Z</time></trkpt><trkpt lat="45.84005076196396" lon="11.433093267464292"><ele>1049.3333333333333</ele><time>2026-04-23T11:33:33Z</time></trkpt><trkpt lat="45.840215384320956" lon="11.433226695258659"><ele>1048.6666666666665</ele><time>2026-04-23T11:33:34Z</time></trkpt><trkpt lat="45.84034851760149" lon="11.433345534152103"><ele>1048.0</ele><time>2026-04-23T11:33:35Z</time></trkpt><trkpt lat="45.84045829051642" lon="11.433452513611142"><ele>1048.0</ele><time>2026-04-23T11:33:36Z</time></trkpt><trkpt lat="45.840556498997586" lon="11.433588019593142"><ele>1048.0</ele><time>2026-04-23T11:33:37Z</time></trkpt><trkpt lat="45.84064780940125" lon="11.433738925257513"><ele>1048.0</ele><time>2026-04-23T11:33:38Z</time></trkpt><trkpt lat="45.84074274601113" lon="11.433838445484673"><ele>1048.0</ele><time>2026-04-23T11:33:39Z</time></trkpt><trkpt lat="45.84085715260446" lon="11.433905852001871"><ele>1048.75</ele><time>2026-04-23T11:33:40Z</time></trkpt><trkpt lat="45.8409967660051" lon="11.433940301786771"><ele>1049.5</ele><time>2026-04-23T11:33:41Z</time></trkpt><trkpt lat="45.84115797742187" lon="11.433961321096461"><ele>1050.25</ele><time>2026-04-23T11:33:42Z</time></trkpt><trkpt lat="45.84129143472127" lon="11.43396006446503"><ele>1051.0</ele><time>2026-04-23T11:33:43Z</time></trkpt><trkpt lat="45.84140262467846" lon="11.4340836557453"><ele>1051.0</ele><time>2026-04-23T11:33:44Z</time></trkpt><trkpt lat="45.84152048843154" lon="11.4341960345996"><ele>1051.0</ele><time>2026-04-23T11:33:45Z</time></trkpt><trkpt lat="45.84165796103066" lon="11.434337277887453"><ele>1051.0</ele><time>2026-04-23T11:33:46Z</time></trkpt><trkpt lat="45.84178893099221" lon="11.434472022173477"><ele>1051.0</ele><time>2026-04-23T11:33:47Z</time></trkpt><trkpt lat="45.84194213466276" lon="11.434609081009215"><ele>1051.0</ele><time>2026-04-23T11:33:48Z</time></trkpt><trkpt lat="45.84211654503275" lon="11.434797384952285"><ele>1051.0</ele><time>2026-04-23T11:33:49Z</time></trkpt><trkpt lat="45.842321255985205" lon="11.43500616221313"><ele>1051.0</ele><time>2026-04-23T11:33:50Z</time></trkpt><trkpt lat="45.84254271309162" lon="11.43522001673587"><ele>1051.0</ele><time>2026-04-23T11:33:51.001Z</time></trkpt><trkpt lat="45.84272315792532" lon="11.435421999713876"><ele>1050.6666666666665</ele><time>2026-04-23T11:33:52.001Z</time></trkpt><trkpt lat="45.84289245725424" lon="11.43559988963956"><ele>1050.3333333333333</ele><time>2026-04-23T11:33:53.001Z</time></trkpt><trkpt lat="45.84303699104949" lon="11.43574578553193"><ele>1050.0</ele><time>2026-04-23T11:33:54.001Z</time></trkpt><trkpt lat="45.84315684172882" lon="11.435866637973927"><ele>1050.0</ele><time>2026-04-23T11:33:55.001Z</time></trkpt><trkpt lat="45.84325937494769" lon="11.435979928519664"><ele>1050.0</ele><time>2026-04-23T11:33:56.001Z</time></trkpt><trkpt lat="45.843341682663834" lon="11.436119454846287"><ele>1050.0</ele><time>2026-04-23T11:33:57.001Z</time></trkpt><trkpt lat="45.84339700672864" lon="11.436265564731773"><ele>1050.0</ele><time>2026-04-23T11:33:58.001Z</time></trkpt><trkpt lat="45.8434271030547" lon="11.436396269032283"><ele>1050.5</ele><time>2026-04-23T11:33:59.001Z</time></trkpt><trkpt lat="45.84342414128618" lon="11.436523280447409"><ele>1051.0</ele><time>2026-04-23T11:34:00.001Z</time></trkpt><trkpt lat="45.843402021629274" lon="11.436678569788588"><ele>1051.5</ele><time>2026-04-23T11:34:01.001Z</time></trkpt><trkpt lat="45.84335717764996" lon="11.436882904882077"><ele>1052.0</ele><time>2026-04-23T11:34:02.001Z</time></trkpt><trkpt lat="45.843303460805515" lon="11.437151880106322"><ele>1050.6666666666667</ele><time>2026-04-23T11:34:03.001Z</time></trkpt><trkpt lat="45.84325164610896" lon="11.437411916871577"><ele>1049.3333333333333</ele><time>2026-04-23T11:34:04.001Z</time></trkpt><trkpt lat="45.84318910753011" lon="11.437728843052907"><ele>1048.0</ele><time>2026-04-23T11:34:05.001Z</time></trkpt><trkpt lat="45.84311895619906" lon="11.438081599289571"><ele>1044.5</ele><time>2026-04-23T11:34:06.001Z</time></trkpt><trkpt lat="45.843053158259536" lon="11.438411654899925"><ele>1041.0</ele><time>2026-04-23T11:34:07.001Z</time></trkpt><trkpt lat="45.8429805310993" lon="11.438771165407548"><ele>1039.0</ele><time>2026-04-23T11:34:08.001Z</time></trkpt><trkpt lat="45.842903831803945" lon="11.439158816492801"><ele>1037.0</ele><time>2026-04-23T11:34:09.001Z</time></trkpt><trkpt lat="45.84283274466647" lon="11.43950487439128"><ele>1035.6666666666667</ele><time>2026-04-23T11:34:10.001Z</time></trkpt><trkpt lat="45.84277469230249" lon="11.439817953907507"><ele>1034.3333333333333</ele><time>2026-04-23T11:34:11.001Z</time></trkpt><trkpt lat="45.84271966108717" lon="11.44009539534017"><ele>1033.0</ele><time>2026-04-23T11:34:12.001Z</time></trkpt><trkpt lat="45.842668079200465" lon="11.440354223599847"><ele>1032.5</ele><time>2026-04-23T11:34:13.001Z</time></trkpt><trkpt lat="45.84261915810711" lon="11.440571540358532"><ele>1032.0</ele><time>2026-04-23T11:34:14.001Z</time></trkpt><trkpt lat="45.842579863381886" lon="11.440742163726844"><ele>1031.5</ele><time>2026-04-23T11:34:15.001Z</time></trkpt><trkpt lat="45.84254647980316" lon="11.44088953958536"><ele>1031.0</ele><time>2026-04-23T11:34:16.001Z</time></trkpt><trkpt lat="45.842533268606296" lon="11.441031460919938"><ele>1031.0</ele><time>2026-04-23T11:34:17.001Z</time></trkpt><trkpt lat="45.84256190868617" lon="11.441165151470123"><ele>1031.0</ele><time>2026-04-23T11:34:18.001Z</time></trkpt><trkpt lat="45.8426222112051" lon="11.441268622336082"><ele>1031.0</ele><time>2026-04-23T11:34:19.001Z</time></trkpt><trkpt lat="45.84271098174923" lon="11.441311866366748"><ele>1031.0</ele><time>2026-04-23T11:34:20.001Z</time></trkpt><trkpt lat="45.842813479475076" lon="11.441295315549919"><ele>1031.0</ele><time>2026-04-23T11:34:21.001Z</time></trkpt><trkpt lat="45.84294536402909" lon="11.441229021818081"><ele>1029.0</ele><time>2026-04-23T11:34:22.001Z</time></trkpt><trkpt lat="45.84312694879277" lon="11.441182830931124"><ele>1027.0</ele><time>2026-04-23T11:34:23.001Z</time></trkpt><trkpt lat="45.84328995424037" lon="11.441093399545453"><ele>1025.0</ele><time>2026-04-23T11:34:24.001Z</time></trkpt><trkpt lat="45.84341118985612" lon="11.441020806378244"><ele>1023.4</ele><time>2026-04-23T11:34:25.001Z</time></trkpt><trkpt lat="45.843498378744776" lon="11.440956551341229"><ele>1021.8</ele><time>2026-04-23T11:34:26.001Z</time></trkpt><trkpt lat="45.84359861041023" lon="11.440957109447721"><ele>1020.2</ele><time>2026-04-23T11:34:27.001Z</time></trkpt><trkpt lat="45.84367832750761" lon="11.441004244095987"><ele>1018.6</ele><time>2026-04-23T11:34:28.001Z</time></trkpt><trkpt lat="45.843731212159945" lon="11.441092996271605"><ele>1017.0</ele><time>2026-04-23T11:34:29.002Z</time></trkpt><trkpt lat="45.843764269298504" lon="11.441227600630267"><ele>1015.6666666666667</ele><time>2026-04-23T11:34:30.002Z</time></trkpt><trkpt lat="45.843787614664656" lon="11.441419524259446"><ele>1014.3333333333334</ele><time>2026-04-23T11:34:31.002Z</time></trkpt><trkpt lat="45.84381123172251" lon="11.44168037024101"><ele>1013.0</ele><time>2026-04-23T11:34:32.002Z</time></trkpt><trkpt lat="45.84383512814076" lon="11.441974667188925"><ele>1012.0</ele><time>2026-04-23T11:34:33.002Z</time></trkpt><trkpt lat="45.84385595279191" lon="11.442238585911175"><ele>1011.0</ele><time>2026-04-23T11:34:34.002Z</time></trkpt><trkpt lat="45.843875603330766" lon="11.442527326196627"><ele>1010.0</ele><time>2026-04-23T11:34:35.002Z</time></trkpt><trkpt lat="45.843892560046854" lon="11.442799209799915"><ele>1008.0</ele><time>2026-04-23T11:34:36.002Z</time></trkpt><trkpt lat="45.843907530794795" lon="11.44300035184238"><ele>1006.0</ele><time>2026-04-23T11:34:37.002Z</time></trkpt><trkpt lat="45.843918080444446" lon="11.4431673888348"><ele>1004.0</ele><time>2026-04-23T11:34:38.002Z</time></trkpt><trkpt lat="45.84395081343821" lon="11.443321309070287"><ele>1002.0</ele><time>2026-04-23T11:34:39.002Z</time></trkpt><trkpt lat="45.84402279404964" lon="11.443444527357308"><ele>1002.0</ele><time>2026-04-23T11:34:40.002Z</time></trkpt><trkpt lat="45.844120677681055" lon="11.443535474149437"><ele>1002.0</ele><time>2026-04-23T11:34:41.002Z</time></trkpt><trkpt lat="45.84423018983403" lon="11.443579394788708"><ele>1002.0</ele><time>2026-04-23T11:34:42.002Z</time></trkpt><trkpt lat="45.844348168520305" lon="11.443573404009983"><ele>1002.0</ele><time>2026-04-23T11:34:43.002Z</time></trkpt><trkpt lat="45.84445236128181" lon="11.44353465937643"><ele>1001.0</ele><time>2026-04-23T11:34:44.002Z</time></trkpt><trkpt lat="45.8445735365139" lon="11.443431095458303"><ele>1000.0</ele><time>2026-04-23T11:34:45.002Z</time></trkpt><trkpt lat="45.84472301841167" lon="11.443273076147339"><ele>999.0</ele><time>2026-04-23T11:34:46.002Z</time></trkpt><trkpt lat="45.844848190099796" lon="11.443157324692292"><ele>999.0</ele><time>2026-04-23T11:34:47.002Z</time></trkpt><trkpt lat="45.84496862684722" lon="11.443077797803433"><ele>999.0</ele><time>2026-04-23T11:34:48.002Z</time></trkpt><trkpt lat="45.845086251565576" lon="11.443040671255034"><ele>999.0</ele><time>2026-04-23T11:34:49.002Z</time></trkpt><trkpt lat="45.84519326158936" lon="11.443052702656725"><ele>999.0</ele><time>2026-04-23T11:34:50.002Z</time></trkpt><trkpt lat="45.845287637039824" lon="11.44310973989691"><ele>998.0</ele><time>2026-04-23T11:34:51.002Z</time></trkpt><trkpt lat="45.845382640094556" lon="11.443145335698741"><ele>997.0</ele><time>2026-04-23T11:34:52.002Z</time></trkpt><trkpt lat="45.84542694197826" lon="11.443335140241173"><ele>996.0</ele><time>2026-04-23T11:34:53.002Z</time></trkpt><trkpt lat="45.84546882414664" lon="11.44351339388051"><ele>995.0</ele><time>2026-04-23T11:34:54.002Z</time></trkpt><trkpt lat="45.84549013100616" lon="11.443712498609386"><ele>994.5</ele><time>2026-04-23T11:34:55.002Z</time></trkpt><trkpt lat="45.845512313667825" lon="11.443873638201467"><ele>994.0</ele><time>2026-04-23T11:34:56.002Z</time></trkpt><trkpt lat="45.84556902102875" lon="11.444011067584952"><ele>993.5</ele><time>2026-04-23T11:34:57.002Z</time></trkpt><trkpt lat="45.84565852698805" lon="11.444123769253359"><ele>993.0</ele><time>2026-04-23T11:34:58.002Z</time></trkpt><trkpt lat="45.84578161746376" lon="11.444208849089836"><ele>993.0</ele><time>2026-04-23T11:34:59.002Z</time></trkpt><trkpt lat="45.84591663255914" lon="11.44427169892712"><ele>993.0</ele><time>2026-04-23T11:35:00.002Z</time></trkpt><trkpt lat="45.84602950925562" lon="11.444330390256358"><ele>993.0</ele><time>2026-04-23T11:35:01.002Z</time></trkpt><trkpt lat="45.84611853843544" lon="11.444435290933741"><ele>993.0</ele><time>2026-04-23T11:35:02.002Z</time></trkpt><trkpt lat="45.846195586231616" lon="11.44457265522094"><ele>991.5</ele><time>2026-04-23T11:35:03.002Z</time></trkpt><trkpt lat="45.84625804033185" lon="11.44473583101827"><ele>990.0</ele><time>2026-04-23T11:35:04.002Z</time></trkpt><trkpt lat="45.84629631376984" lon="11.444901890748339"><ele>988.5</ele><time>2026-04-23T11:35:05.002Z</time></trkpt><trkpt lat="45.84632323040836" lon="11.445053027822825"><ele>987.0</ele><time>2026-04-23T11:35:06.003Z</time></trkpt><trkpt lat="45.846359879363014" lon="11.44518689602238"><ele>987.0</ele><time>2026-04-23T11:35:07.003Z</time></trkpt><trkpt lat="45.846421279556274" lon="11.445293079052796"><ele>987.0</ele><time>2026-04-23T11:35:08.003Z</time></trkpt><trkpt lat="45.846513852534564" lon="11.445367440739089"><ele>987.0</ele><time>2026-04-23T11:35:09.003Z</time></trkpt><trkpt lat="45.846638127985976" lon="11.445409794412418"><ele>987.0</ele><time>2026-04-23T11:35:10.003Z</time></trkpt><trkpt lat="45.84680086978911" lon="11.44545674441705"><ele>984.6666666666667</ele><time>2026-04-23T11:35:11.003Z</time></trkpt><trkpt lat="45.84695514593066" lon="11.445511099164042"><ele>982.3333333333334</ele><time>2026-04-23T11:35:12.003Z</time></trkpt><trkpt lat="45.847120718248625" lon="11.445579031003103"><ele>980.0</ele><time>2026-04-23T11:35:13.003Z</time></trkpt><trkpt lat="45.847282896159335" lon="11.445654038734197"><ele>980.0</ele><time>2026-04-23T11:35:14.003Z</time></trkpt><trkpt lat="45.84740961374056" lon="11.445746416611279"><ele>980.0</ele><time>2026-04-23T11:35:15.003Z</time></trkpt><trkpt lat="45.847515805626394" lon="11.445871342953124"><ele>980.0</ele><time>2026-04-23T11:35:16.003Z</time></trkpt><trkpt lat="45.847596450860074" lon="11.446023358218678"><ele>980.0</ele><time>2026-04-23T11:35:17.003Z</time></trkpt><trkpt lat="45.847657364817564" lon="11.446204364916186"><ele>979.25</ele><time>2026-04-23T11:35:18.003Z</time></trkpt><trkpt lat="45.847712190837086" lon="11.446411295161735"><ele>978.5</ele><time>2026-04-23T11:35:19.003Z</time></trkpt><trkpt lat="45.847788716502166" lon="11.446583479343046"><ele>977.75</ele><time>2026-04-23T11:35:20.003Z</time></trkpt><trkpt lat="45.847897919569895" lon="11.446735346262024"><ele>977.0</ele><time>2026-04-23T11:35:21.003Z</time></trkpt><trkpt lat="45.84802758984556" lon="11.446855851668312"><ele>977.0</ele><time>2026-04-23T11:35:22.003Z</time></trkpt><trkpt lat="45.84818856664586" lon="11.44695933057527"><ele>977.0</ele><time>2026-04-23T11:35:23.003Z</time></trkpt><trkpt lat="45.8483435049507" lon="11.44703219915324"><ele>977.0</ele><time>2026-04-23T11:35:24.003Z</time></trkpt><trkpt lat="45.84845531856422" lon="11.447078735130157"><ele>976.6666666666667</ele><time>2026-04-23T11:35:25.003Z</time></trkpt><trkpt lat="45.848533009893416" lon="11.447109370513033"><ele>976.3333333333334</ele><time>2026-04-23T11:35:26.003Z</time></trkpt><trkpt lat="45.848597319346695" lon="11.447149421856436"><ele>976.0</ele><time>2026-04-23T11:35:27.003Z</time></trkpt><trkpt lat="45.84863773917097" lon="11.447226942987317"><ele>975.6666666666667</ele><time>2026-04-23T11:35:28.003Z</time></trkpt><trkpt lat="45.84864058356135" lon="11.447321948809556"><ele>975.3333333333334</ele><time>2026-04-23T11:35:29.003Z</time></trkpt><trkpt lat="45.848605332311884" lon="11.447414125835177"><ele>975.0</ele><time>2026-04-23T11:35:30.003Z</time></trkpt><trkpt lat="45.84853782285033" lon="11.447294761558776"><ele>972.0</ele><time>2026-04-23T11:35:31.003Z</time></trkpt><trkpt lat="45.84839134698045" lon="11.447256859146332"><ele>969.0</ele><time>2026-04-23T11:35:33Z</time></trkpt><trkpt lat="45.848267795925" lon="11.447241027100722"><ele>966.0</ele><time>2026-04-23T11:35:34Z</time></trkpt><trkpt lat="45.84815411862383" lon="11.447226784527475"><ele>963.0</ele><time>2026-04-23T11:35:35Z</time></trkpt><trkpt lat="45.84804052109964" lon="11.44721116719538"><ele>963.0</ele><time>2026-04-23T11:35:36Z</time></trkpt><trkpt lat="45.84789553758627" lon="11.44715545009005"><ele>963.0</ele><time>2026-04-23T11:35:37Z</time></trkpt><trkpt lat="45.84775625749508" lon="11.447020225417708"><ele>963.0</ele><time>2026-04-23T11:35:38Z</time></trkpt><trkpt lat="45.84764328576433" lon="11.446901232638533"><ele>963.5999999999999</ele><time>2026-04-23T11:35:39Z</time></trkpt><trkpt lat="45.84754499905704" lon="11.44681399418726"><ele>964.1999999999999</ele><time>2026-04-23T11:35:40Z</time></trkpt><trkpt lat="45.847450874955555" lon="11.446756493765454"><ele>964.8</ele><time>2026-04-23T11:35:41Z</time></trkpt><trkpt lat="45.847364598843825" lon="11.446745758856293"><ele>965.4</ele><time>2026-04-23T11:35:42Z</time></trkpt><trkpt lat="45.847285092903824" lon="11.446788922599094"><ele>966.0</ele><time>2026-04-23T11:35:43Z</time></trkpt><trkpt lat="45.84720981428629" lon="11.446871375998587"><ele>966.0</ele><time>2026-04-23T11:35:44Z</time></trkpt><trkpt lat="45.847124517442765" lon="11.447007744503535"><ele>966.0</ele><time>2026-04-23T11:35:45Z</time></trkpt><trkpt lat="45.847020445238826" lon="11.447206414949738"><ele>966.0</ele><time>2026-04-23T11:35:46Z</time></trkpt><trkpt lat="45.84689688433917" lon="11.447448911055064"><ele>964.3333333333333</ele><time>2026-04-23T11:35:47Z</time></trkpt><trkpt lat="45.84678106287426" lon="11.447677556620517"><ele>962.6666666666666</ele><time>2026-04-23T11:35:48Z</time></trkpt><trkpt lat="45.84665893261399" lon="11.447926687519132"><ele>961.0</ele><time>2026-04-23T11:35:49Z</time></trkpt><trkpt lat="45.846561169772684" lon="11.448117530405622"><ele>957.6666666666666</ele><time>2026-04-23T11:35:50Z</time></trkpt><trkpt lat="45.84646255948101" lon="11.448278024967301"><ele>954.3333333333333</ele><time>2026-04-23T11:35:51Z</time></trkpt><trkpt lat="45.84634798494261" lon="11.448409483381324"><ele>951.0</ele><time>2026-04-23T11:35:52Z</time></trkpt><trkpt lat="45.84621552553779" lon="11.44852811873164"><ele>951.0</ele><time>2026-04-23T11:35:53Z</time></trkpt><trkpt lat="45.84609749224138" lon="11.44864205274854"><ele>950.9999999999999</ele><time>2026-04-23T11:35:54Z</time></trkpt><trkpt lat="45.846010184081926" lon="11.448738469518123"><ele>950.9999999999999</ele><time>2026-04-23T11:35:55.001Z</time></trkpt><trkpt lat="45.84595000724374" lon="11.44882204114913"><ele>951.0</ele><time>2026-04-23T11:35:56.001Z</time></trkpt><trkpt lat="45.845919164334646" lon="11.44892785332833"><ele>951.0</ele><time>2026-04-23T11:35:57.001Z</time></trkpt><trkpt lat="45.84591967209023" lon="11.449052372962267"><ele>951.25</ele><time>2026-04-23T11:35:58.001Z</time></trkpt><trkpt lat="45.8459490067262" lon="11.449186110278635"><ele>951.5</ele><time>2026-04-23T11:35:59.001Z</time></trkpt><trkpt lat="45.846002664656226" lon="11.449308693993254"><ele>951.75</ele><time>2026-04-23T11:36:00.001Z</time></trkpt><trkpt lat="45.84609436044711" lon="11.449467390019958"><ele>952.0</ele><time>2026-04-23T11:36:01.001Z</time></trkpt><trkpt lat="45.84621124115889" lon="11.449613144060933"><ele>949.0</ele><time>2026-04-23T11:36:02.001Z</time></trkpt><trkpt lat="45.84633743305206" lon="11.449723776986547"><ele>946.0</ele><time>2026-04-23T11:36:03.001Z</time></trkpt><trkpt lat="45.846482901128994" lon="11.449829099838038"><ele>943.0</ele><time>2026-04-23T11:36:04.001Z</time></trkpt><trkpt lat="45.84666278005978" lon="11.449940779249363"><ele>939.6666666666666</ele><time>2026-04-23T11:36:05.001Z</time></trkpt><trkpt lat="45.84687277249978" lon="11.450054664824586"><ele>936.3333333333333</ele><time>2026-04-23T11:36:06.001Z</time></trkpt><trkpt lat="45.847058210608274" lon="11.450162459954331"><ele>933.0</ele><time>2026-04-23T11:36:07.001Z</time></trkpt><trkpt lat="45.84723061967706" lon="11.450255825035773"><ele>933.0</ele><time>2026-04-23T11:36:08.001Z</time></trkpt><trkpt lat="45.84738664328746" lon="11.45036389515414"><ele>933.0</ele><time>2026-04-23T11:36:09.001Z</time></trkpt><trkpt lat="45.847545067974295" lon="11.450506826949468"><ele>933.0</ele><time>2026-04-23T11:36:10.001Z</time></trkpt><trkpt lat="45.847717607742815" lon="11.45069833922381"><ele>929.0</ele><time>2026-04-23T11:36:11.001Z</time></trkpt><trkpt lat="45.84790414651699" lon="11.450921410325888"><ele>925.0</ele><time>2026-04-23T11:36:12.001Z</time></trkpt><trkpt lat="45.848070566844065" lon="11.451119288235473"><ele>923.6666666666666</ele><time>2026-04-23T11:36:13.001Z</time></trkpt><trkpt lat="45.84823151605653" lon="11.451306605288266"><ele>922.3333333333333</ele><time>2026-04-23T11:36:14.001Z</time></trkpt><trkpt lat="45.84837496826479" lon="11.451466001475687"><ele>921.0</ele><time>2026-04-23T11:36:15.001Z</time></trkpt><trkpt lat="45.848490030374386" lon="11.451591924262418"><ele>921.0</ele><time>2026-04-23T11:36:16.001Z</time></trkpt><trkpt lat="45.8485698535326" lon="11.4516928475927"><ele>921.0</ele><time>2026-04-23T11:36:17.001Z</time></trkpt><trkpt lat="45.848638818153326" lon="11.451818953876023"><ele>921.0</ele><time>2026-04-23T11:36:18.001Z</time></trkpt><trkpt lat="45.848684481531485" lon="11.451965868178156"><ele>921.0</ele><time>2026-04-23T11:36:19.001Z</time></trkpt><trkpt lat="45.848711319208356" lon="11.452143338497057"><ele>919.75</ele><time>2026-04-23T11:36:20.001Z</time></trkpt><trkpt lat="45.84871173014746" lon="11.452355399786773"><ele>918.5</ele><time>2026-04-23T11:36:21.001Z</time></trkpt><trkpt lat="45.84869894079232" lon="11.45255585331503"><ele>917.25</ele><time>2026-04-23T11:36:22.001Z</time></trkpt><trkpt lat="45.84867112178197" lon="11.452723308401993"><ele>916.0</ele><time>2026-04-23T11:36:23.001Z</time></trkpt><trkpt lat="45.84862021619327" lon="11.452873326522619"><ele>917.5999999999999</ele><time>2026-04-23T11:36:24.001Z</time></trkpt><trkpt lat="45.84854529057503" lon="11.452997134515673"><ele>919.1999999999999</ele><time>2026-04-23T11:36:25.001Z</time></trkpt><trkpt lat="45.84848380731724" lon="11.453101571876855"><ele>920.8000000000001</ele><time>2026-04-23T11:36:26.001Z</time></trkpt><trkpt lat="45.848472045296646" lon="11.45322336812112"><ele>922.4000000000001</ele><time>2026-04-23T11:36:27.001Z</time></trkpt><trkpt lat="45.8484973286952" lon="11.453341264272572"><ele>924.0</ele><time>2026-04-23T11:36:28.001Z</time></trkpt><trkpt lat="45.84855828014243" lon="11.453430807106564"><ele>924.0</ele><time>2026-04-23T11:36:29.001Z</time></trkpt><trkpt lat="45.84864552814447" lon="11.453472921926261"><ele>924.0</ele><time>2026-04-23T11:36:30.001Z</time></trkpt><trkpt lat="45.848746798884925" lon="11.453461266378753"><ele>924.0</ele><time>2026-04-23T11:36:31.001Z</time></trkpt><trkpt lat="45.84887094515385" lon="11.453407763850873"><ele>924.0</ele><time>2026-04-23T11:36:32.001Z</time></trkpt><trkpt lat="45.849035210502294" lon="11.45334772918071"><ele>924.0</ele><time>2026-04-23T11:36:33.001Z</time></trkpt><trkpt lat="45.84918800330373" lon="11.453312336891285"><ele>924.0</ele><time>2026-04-23T11:36:34.001Z</time></trkpt><trkpt lat="45.8493085620105" lon="11.45329616812843"><ele>924.0</ele><time>2026-04-23T11:36:35.002Z</time></trkpt><trkpt lat="45.84942178390029" lon="11.453299845446102"><ele>924.0</ele><time>2026-04-23T11:36:36.002Z</time></trkpt><trkpt lat="45.849525003679084" lon="11.453332505386953"><ele>924.25</ele><time>2026-04-23T11:36:37.002Z</time></trkpt><trkpt lat="45.84961373037945" lon="11.453401943803888"><ele>924.5</ele><time>2026-04-23T11:36:38.002Z</time></trkpt><trkpt lat="45.84969216364506" lon="11.453525363071465"><ele>924.75</ele><time>2026-04-23T11:36:39.002Z</time></trkpt><trkpt lat="45.84978888265061" lon="11.45371843886326"><ele>925.0</ele><time>2026-04-23T11:36:40.002Z</time></trkpt><trkpt lat="45.84989808373649" lon="11.453954213825156"><ele>925.0</ele><time>2026-04-23T11:36:41.002Z</time></trkpt><trkpt lat="45.85000378635792" lon="11.454171225142105"><ele>925.0</ele><time>2026-04-23T11:36:42.002Z</time></trkpt><trkpt lat="45.85013712613837" lon="11.454405779259599"><ele>925.0</ele><time>2026-04-23T11:36:43.002Z</time></trkpt><trkpt lat="45.85026656222429" lon="11.454601018896968"><ele>918.3333333333333</ele><time>2026-04-23T11:36:44.002Z</time></trkpt><trkpt lat="45.85038140102638" lon="11.45483388780664"><ele>911.6666666666667</ele><time>2026-04-23T11:36:45.002Z</time></trkpt><trkpt lat="45.85048019139602" lon="11.455092704406317"><ele>905.0</ele><time>2026-04-23T11:36:46.002Z</time></trkpt><trkpt lat="45.85057104536858" lon="11.455298796657795"><ele>906.6666666666667</ele><time>2026-04-23T11:36:47.002Z</time></trkpt><trkpt lat="45.85067784873535" lon="11.4554913906394"><ele>908.3333333333333</ele><time>2026-04-23T11:36:48.002Z</time></trkpt><trkpt lat="45.85076358984008" lon="11.455651428551448"><ele>910.0</ele><time>2026-04-23T11:36:49.002Z</time></trkpt><trkpt lat="45.85082547317251" lon="11.455838278169773"><ele>910.0</ele><time>2026-04-23T11:36:50.002Z</time></trkpt><trkpt lat="45.85088640245879" lon="11.456090467493123"><ele>910.0</ele><time>2026-04-23T11:36:51.002Z</time></trkpt><trkpt lat="45.85093978109863" lon="11.456350112041921"><ele>910.0</ele><time>2026-04-23T11:36:52.002Z</time></trkpt><trkpt lat="45.85098109508377" lon="11.456525221361956"><ele>907.6</ele><time>2026-04-23T11:36:53.002Z</time></trkpt><trkpt lat="45.85102542024961" lon="11.456660282729331"><ele>905.2</ele><time>2026-04-23T11:36:54.002Z</time></trkpt><trkpt lat="45.851099914835174" lon="11.456763831183812"><ele>902.8</ele><time>2026-04-23T11:36:55.002Z</time></trkpt><trkpt lat="45.85119905132571" lon="11.456825474030914"><ele>900.4</ele><time>2026-04-23T11:36:56.002Z</time></trkpt><trkpt lat="45.85132152489748" lon="11.456840147241502"><ele>898.0</ele><time>2026-04-23T11:36:57.002Z</time></trkpt><trkpt lat="45.851464205395146" lon="11.456803831536575"><ele>898.0</ele><time>2026-04-23T11:36:58.002Z</time></trkpt><trkpt lat="45.85163551141663" lon="11.456727333733278"><ele>898.0</ele><time>2026-04-23T11:36:59.002Z</time></trkpt><trkpt lat="45.85185065880273" lon="11.456622725224907"><ele>898.0</ele><time>2026-04-23T11:37:00.002Z</time></trkpt><trkpt lat="45.85207507020302" lon="11.456517782951876"><ele>897.5</ele><time>2026-04-23T11:37:01.002Z</time></trkpt><trkpt lat="45.85233068861492" lon="11.456400975773477"><ele>897.0</ele><time>2026-04-23T11:37:02.002Z</time></trkpt><trkpt lat="45.852571559502465" lon="11.45628886023488"><ele>903.3333333333333</ele><time>2026-04-23T11:37:03.002Z</time></trkpt><trkpt lat="45.85276417820419" lon="11.45620030543514"><ele>909.6666666666666</ele><time>2026-04-23T11:37:04.002Z</time></trkpt><trkpt lat="45.85291530163262" lon="11.456133799836161"><ele>916.0</ele><time>2026-04-23T11:37:05.002Z</time></trkpt><trkpt lat="45.853059969179206" lon="11.45609619181595"><ele>916.0</ele><time>2026-04-23T11:37:06.002Z</time></trkpt><trkpt lat="45.85320774197017" lon="11.45610329821458"><ele>916.0</ele><time>2026-04-23T11:37:07.002Z</time></trkpt><trkpt lat="45.85334937315024" lon="11.456153846911114"><ele>916.0</ele><time>2026-04-23T11:37:08.002Z</time></trkpt><trkpt lat="45.85348639174458" lon="11.456250110043143"><ele>916.0</ele><time>2026-04-23T11:37:09.002Z</time></trkpt><trkpt lat="45.85363893175812" lon="11.45639044235153"><ele>913.3333333333333</ele><time>2026-04-23T11:37:10.002Z</time></trkpt><trkpt lat="45.85381941141919" lon="11.456550303815312"><ele>910.6666666666667</ele><time>2026-04-23T11:37:11.002Z</time></trkpt><trkpt lat="45.853986164725875" lon="11.456675934632651"><ele>908.0</ele><time>2026-04-23T11:37:12.002Z</time></trkpt><trkpt lat="45.85418061325466" lon="11.456768049047298"><ele>910.6666666666667</ele><time>2026-04-23T11:37:13.002Z</time></trkpt><trkpt lat="45.854347265435486" lon="11.456822247298012"><ele>913.3333333333333</ele><time>2026-04-23T11:37:14.003Z</time></trkpt><trkpt lat="45.85448915849828" lon="11.456839864327037"><ele>916.0</ele><time>2026-04-23T11:37:15.003Z</time></trkpt><trkpt lat="45.85463963273417" lon="11.456800972539058"><ele>916.0</ele><time>2026-04-23T11:37:16.003Z</time></trkpt><trkpt lat="45.854819744066575" lon="11.45670459157884"><ele>916.0</ele><time>2026-04-23T11:37:17.003Z</time></trkpt><trkpt lat="45.855029338830114" lon="11.456608602010233"><ele>916.0</ele><time>2026-04-23T11:37:18.003Z</time></trkpt><trkpt lat="45.855259708625475" lon="11.45653861773283"><ele>916.5</ele><time>2026-04-23T11:37:19.003Z</time></trkpt><trkpt lat="45.85551716703833" lon="11.456487388578905"><ele>917.0</ele><time>2026-04-23T11:37:20.003Z</time></trkpt><trkpt lat="45.85573399177214" lon="11.456451203498046"><ele>917.0</ele><time>2026-04-23T11:37:21.003Z</time></trkpt><trkpt lat="45.85589224739725" lon="11.456425160730001"><ele>917.0</ele><time>2026-04-23T11:37:22.003Z</time></trkpt><trkpt lat="45.85599245127497" lon="11.456417407646233"><ele>917.0</ele><time>2026-04-23T11:37:23.003Z</time></trkpt><trkpt lat="45.856070654746986" lon="11.456437109205867"><ele>917.0</ele><time>2026-04-23T11:37:24.003Z</time></trkpt><trkpt lat="45.856146542846055" lon="11.456496026562213"><ele>917.0</ele><time>2026-04-23T11:37:25.003Z</time></trkpt><trkpt lat="45.85621721139955" lon="11.456600444813214"><ele>918.4000000000001</ele><time>2026-04-23T11:37:26.003Z</time></trkpt><trkpt lat="45.85627454007432" lon="11.456745702948387"><ele>919.8000000000001</ele><time>2026-04-23T11:37:27.003Z</time></trkpt><trkpt lat="45.85631115051929" lon="11.45688327160839"><ele>921.2</ele><time>2026-04-23T11:37:28.003Z</time></trkpt><trkpt lat="45.85634230269703" lon="11.45702934954149"><ele>922.6</ele><time>2026-04-23T11:37:29.003Z</time></trkpt><trkpt lat="45.85638902554662" lon="11.45718651799661"><ele>924.0</ele><time>2026-04-23T11:37:30.003Z</time></trkpt><trkpt lat="45.85645806515107" lon="11.457307699469887"><ele>924.0</ele><time>2026-04-23T11:37:31.003Z</time></trkpt><trkpt lat="45.8565533053159" lon="11.457371885898484"><ele>924.0</ele><time>2026-04-23T11:37:32.003Z</time></trkpt><trkpt lat="45.85667051933454" lon="11.457388104996646"><ele>924.0</ele><time>2026-04-23T11:37:33.003Z</time></trkpt><trkpt lat="45.85681380896901" lon="11.457369512545679"><ele>924.0</ele><time>2026-04-23T11:37:34.003Z</time></trkpt><trkpt lat="45.8569851873545" lon="11.457331925873143"><ele>926.3333333333333</ele><time>2026-04-23T11:37:35.003Z</time></trkpt><trkpt lat="45.857202570939016" lon="11.457288256748214"><ele>928.6666666666666</ele><time>2026-04-23T11:37:36.003Z</time></trkpt><trkpt lat="45.857424799405294" lon="11.457246172404046"><ele>931.0</ele><time>2026-04-23T11:37:37.003Z</time></trkpt><trkpt lat="45.85765005144412" lon="11.457207048912103"><ele>934.0</ele><time>2026-04-23T11:37:38.001Z</time></trkpt><trkpt lat="45.857893787012394" lon="11.457174032717187"><ele>937.0</ele><time>2026-04-23T11:37:39.001Z</time></trkpt><trkpt lat="45.85809960713723" lon="11.45716612117428"><ele>937.0</ele><time>2026-04-23T11:37:40.001Z</time></trkpt><trkpt lat="45.85829970587111" lon="11.45718415567138"><ele>937.0</ele><time>2026-04-23T11:37:41.001Z</time></trkpt><trkpt lat="45.85847781234881" lon="11.457209571385278"><ele>937.0</ele><time>2026-04-23T11:37:42.001Z</time></trkpt><trkpt lat="45.85864486276424" lon="11.457227969396087"><ele>937.0</ele><time>2026-04-23T11:37:43.001Z</time></trkpt><trkpt lat="45.85880073259767" lon="11.457223311902386"><ele>937.0</ele><time>2026-04-23T11:37:44.001Z</time></trkpt><trkpt lat="45.85894706440762" lon="11.457204489244983"><ele>937.0</ele><time>2026-04-23T11:37:45.001Z</time></trkpt><trkpt lat="45.85909821889546" lon="11.457172848043644"><ele>937.0</ele><time>2026-04-23T11:37:46.001Z</time></trkpt><trkpt lat="45.85924919285898" lon="11.457146260580657"><ele>937.0</ele><time>2026-04-23T11:37:47.001Z</time></trkpt><trkpt lat="45.85936846250586" lon="11.457133313063892"><ele>937.0</ele><time>2026-04-23T11:37:48.001Z</time></trkpt><trkpt lat="45.85947147774556" lon="11.457128245848374"><ele>937.0</ele><time>2026-04-23T11:37:49.001Z</time></trkpt><trkpt lat="45.859565435804235" lon="11.457147199861652"><ele>938.5</ele><time>2026-04-23T11:37:50.001Z</time></trkpt><trkpt lat="45.859656988930624" lon="11.457190794499809"><ele>940.0</ele><time>2026-04-23T11:37:51.001Z</time></trkpt><trkpt lat="45.859750900294024" lon="11.457264256530557"><ele>941.5</ele><time>2026-04-23T11:37:52.001Z</time></trkpt><trkpt lat="45.85984115737955" lon="11.45737825195308"><ele>943.0</ele><time>2026-04-23T11:37:53.001Z</time></trkpt><trkpt lat="45.859926308461205" lon="11.457528303084327"><ele>943.0</ele><time>2026-04-23T11:37:54.001Z</time></trkpt><trkpt lat="45.859993791300695" lon="11.457667174723067"><ele>943.0</ele><time>2026-04-23T11:37:55.001Z</time></trkpt><trkpt lat="45.86005210965186" lon="11.45777629340309"><ele>943.0</ele><time>2026-04-23T11:37:56.001Z</time></trkpt><trkpt lat="45.86011109467562" lon="11.457878304688437"><ele>943.0</ele><time>2026-04-23T11:37:57.001Z</time></trkpt><trkpt lat="45.86016784967224" lon="11.45797405358201"><ele>943.0</ele><time>2026-04-23T11:37:58.001Z</time></trkpt><trkpt lat="45.860224529530385" lon="11.458078519399738"><ele>945.0</ele><time>2026-04-23T11:37:59.001Z</time></trkpt><trkpt lat="45.860281206424716" lon="11.45818757837723"><ele>947.0</ele><time>2026-04-23T11:38:00.001Z</time></trkpt><trkpt lat="45.86033959194854" lon="11.458297994371309"><ele>949.0</ele><time>2026-04-23T11:38:01.001Z</time></trkpt><trkpt lat="45.86039709410257" lon="11.458408163254079"><ele>951.0</ele><time>2026-04-23T11:38:02.001Z</time></trkpt><trkpt lat="45.860450151895684" lon="11.458533516047416"><ele>953.0</ele><time>2026-04-23T11:38:03.001Z</time></trkpt><trkpt lat="45.86050420475708" lon="11.458700980127496"><ele>954.0</ele><time>2026-04-23T11:38:04.001Z</time></trkpt><trkpt lat="45.86055500853169" lon="11.45890888614929"><ele>955.0</ele><time>2026-04-23T11:38:05.001Z</time></trkpt><trkpt lat="45.86058991418016" lon="11.459078438748653"><ele>956.0</ele><time>2026-04-23T11:38:06.001Z</time></trkpt><trkpt lat="45.86062120147041" lon="11.459223693704956"><ele>957.0</ele><time>2026-04-23T11:38:07.001Z</time></trkpt><trkpt lat="45.86064765485738" lon="11.459351509120172"><ele>957.0</ele><time>2026-04-23T11:38:08.001Z</time></trkpt><trkpt lat="45.86067352843499" lon="11.459466032666409"><ele>957.0</ele><time>2026-04-23T11:38:09.001Z</time></trkpt><trkpt lat="45.860700145730966" lon="11.459587749582552"><ele>957.0</ele><time>2026-04-23T11:38:10.001Z</time></trkpt><trkpt lat="45.860725224955885" lon="11.459716089781146"><ele>957.0</ele><time>2026-04-23T11:38:11.001Z</time></trkpt><trkpt lat="45.860752270130035" lon="11.459850472469203"><ele>957.0</ele><time>2026-04-23T11:38:12.001Z</time></trkpt><trkpt lat="45.86078133745191" lon="11.459990577842087"><ele>956.8</ele><time>2026-04-23T11:38:13.001Z</time></trkpt><trkpt lat="45.86081197404645" lon="11.460131515101958"><ele>956.6</ele><time>2026-04-23T11:38:14.001Z</time></trkpt><trkpt lat="45.86084276106078" lon="11.460274539457611"><ele>956.3999999999999</ele><time>2026-04-23T11:38:15.001Z</time></trkpt><trkpt lat="45.860870893424206" lon="11.460418837622601"><ele>956.1999999999999</ele><time>2026-04-23T11:38:16.001Z</time></trkpt><trkpt lat="45.86088926208303" lon="11.460570473475162"><ele>956.0</ele><time>2026-04-23T11:38:17.001Z</time></trkpt><trkpt lat="45.86088472495053" lon="11.460729380777437"><ele>956.25</ele><time>2026-04-23T11:38:18.001Z</time></trkpt><trkpt lat="45.8608562767469" lon="11.460909650040664"><ele>956.5</ele><time>2026-04-23T11:38:19.001Z</time></trkpt><trkpt lat="45.86079779983814" lon="11.461096479769639"><ele>956.75</ele><time>2026-04-23T11:38:20.001Z</time></trkpt><trkpt lat="45.860733334859056" lon="11.461280891320547"><ele>957.0</ele><time>2026-04-23T11:38:21.001Z</time></trkpt><trkpt lat="45.86068445549197" lon="11.461432065933666"><ele>957.0</ele><time>2026-04-23T11:38:22.001Z</time></trkpt><trkpt lat="45.86064288115629" lon="11.461569138216406"><ele>957.0</ele><time>2026-04-23T11:38:23.001Z</time></trkpt><trkpt lat="45.86059870998563" lon="11.461687676078423"><ele>957.0</ele><time>2026-04-23T11:38:24.001Z</time></trkpt><trkpt lat="45.86055807829933" lon="11.461801962141134"><ele>957.0</ele><time>2026-04-23T11:38:25.001Z</time></trkpt><trkpt lat="45.86051809161377" lon="11.461916890857195"><ele>957.0</ele><time>2026-04-23T11:38:26.001Z</time></trkpt><trkpt lat="45.86047677481207" lon="11.462036488417503"><ele>958.6</ele><time>2026-04-23T11:38:27.001Z</time></trkpt><trkpt lat="45.86043477390918" lon="11.462161209906432"><ele>960.2</ele><time>2026-04-23T11:38:28.001Z</time></trkpt><trkpt lat="45.860393019169415" lon="11.462292055064754"><ele>961.8</ele><time>2026-04-23T11:38:29.001Z</time></trkpt><trkpt lat="45.86034879389943" lon="11.462424852558367"><ele>963.4</ele><time>2026-04-23T11:38:30.001Z</time></trkpt><trkpt lat="45.860305602956075" lon="11.46255810102521"><ele>965.0</ele><time>2026-04-23T11:38:31.001Z</time></trkpt><trkpt lat="45.86027272612413" lon="11.462691686469872"><ele>965.0</ele><time>2026-04-23T11:38:32.001Z</time></trkpt><trkpt lat="45.860264710604035" lon="11.462833075190913"><ele>965.0</ele><time>2026-04-23T11:38:33.001Z</time></trkpt><trkpt lat="45.86028243508348" lon="11.462974001728984"><ele>965.0</ele><time>2026-04-23T11:38:34.001Z</time></trkpt><trkpt lat="45.860320668974914" lon="11.463100285159847"><ele>965.0</ele><time>2026-04-23T11:38:35.001Z</time></trkpt><trkpt lat="45.860385322958905" lon="11.463205715755315"><ele>965.0</ele><time>2026-04-23T11:38:36.001Z</time></trkpt><trkpt lat="45.86046780178155" lon="11.463286931876087"><ele>965.4</ele><time>2026-04-23T11:38:37.001Z</time></trkpt><trkpt lat="45.86057375672516" lon="11.463341431298558"><ele>965.8</ele><time>2026-04-23T11:38:38.001Z</time></trkpt><trkpt lat="45.86069041958136" lon="11.46337667151507"><ele>966.2</ele><time>2026-04-23T11:38:39.001Z</time></trkpt><trkpt lat="45.86079631954924" lon="11.46339820209682"><ele>966.6</ele><time>2026-04-23T11:38:40.002Z</time></trkpt><trkpt lat="45.86089119609024" lon="11.463431283994913"><ele>967.0</ele><time>2026-04-23T11:38:41.002Z</time></trkpt><trkpt lat="45.860988971663474" lon="11.463480354010773"><ele>967.0</ele><time>2026-04-23T11:38:42.002Z</time></trkpt><trkpt lat="45.861090134604495" lon="11.463539258660024"><ele>967.0</ele><time>2026-04-23T11:38:43.002Z</time></trkpt><trkpt lat="45.8611937169218" lon="11.46361045030448"><ele>967.0</ele><time>2026-04-23T11:38:44.002Z</time></trkpt><trkpt lat="45.8612972270873" lon="11.463695669735442"><ele>967.0</ele><time>2026-04-23T11:38:45.002Z</time></trkpt><trkpt lat="45.861394976672074" lon="11.46379481372577"><ele>966.6</ele><time>2026-04-23T11:38:46.002Z</time></trkpt><trkpt lat="45.8614723761499" lon="11.463890620795798"><ele>966.2</ele><time>2026-04-23T11:38:47.002Z</time></trkpt><trkpt lat="45.861546525633905" lon="11.46398930244334"><ele>965.8</ele><time>2026-04-23T11:38:48.002Z</time></trkpt><trkpt lat="45.861622432062426" lon="11.464095285766769"><ele>965.4</ele><time>2026-04-23T11:38:49.002Z</time></trkpt><trkpt lat="45.86169510434468" lon="11.464218598978382"><ele>965.0</ele><time>2026-04-23T11:38:50.002Z</time></trkpt><trkpt lat="45.86174998943865" lon="11.464361363830744"><ele>966.0</ele><time>2026-04-23T11:38:51.002Z</time></trkpt><trkpt lat="45.861785094282624" lon="11.464512427820287"><ele>967.0</ele><time>2026-04-23T11:38:52.002Z</time></trkpt><trkpt lat="45.861812279915455" lon="11.464657214247122"><ele>968.0</ele><time>2026-04-23T11:38:53.002Z</time></trkpt><trkpt lat="45.86184425830771" lon="11.464793760094967"><ele>969.0</ele><time>2026-04-23T11:38:54.002Z</time></trkpt><trkpt lat="45.86189252236038" lon="11.464917663129341"><ele>970.0</ele><time>2026-04-23T11:38:55.002Z</time></trkpt><trkpt lat="45.861950049087625" lon="11.465035964061322"><ele>969.8</ele><time>2026-04-23T11:38:56.002Z</time></trkpt><trkpt lat="45.86201529898427" lon="11.465148315274748"><ele>969.6</ele><time>2026-04-23T11:38:57.002Z</time></trkpt><trkpt lat="45.86209469259344" lon="11.465246737924849"><ele>969.4000000000001</ele><time>2026-04-23T11:38:58.002Z</time></trkpt><trkpt lat="45.86217710186616" lon="11.4653443139364"><ele>969.2</ele><time>2026-04-23T11:38:59.002Z</time></trkpt><trkpt lat="45.862259630861246" lon="11.465440732113366"><ele>969.0</ele><time>2026-04-23T11:39:00.002Z</time></trkpt><trkpt lat="45.86234391266262" lon="11.465523924756978"><ele>969.0</ele><time>2026-04-23T11:39:01.002Z</time></trkpt><trkpt lat="45.86241826038382" lon="11.465594719623912"><ele>969.0</ele><time>2026-04-23T11:39:02.002Z</time></trkpt><trkpt lat="45.86248058342476" lon="11.465663127155358"><ele>969.0</ele><time>2026-04-23T11:39:03.002Z</time></trkpt><trkpt lat="45.86254655551165" lon="11.465735933653571"><ele>969.0</ele><time>2026-04-23T11:39:04.002Z</time></trkpt><trkpt lat="45.862614201231786" lon="11.465818588118827"><ele>969.0</ele><time>2026-04-23T11:39:05.002Z</time></trkpt><trkpt lat="45.86268048782394" lon="11.46592448780385"><ele>969.0</ele><time>2026-04-23T11:39:06.002Z</time></trkpt><trkpt lat="45.862738161436674" lon="11.466067548779751"><ele>969.75</ele><time>2026-04-23T11:39:07.002Z</time></trkpt><trkpt lat="45.86279957075227" lon="11.466245481795065"><ele>970.5</ele><time>2026-04-23T11:39:08.002Z</time></trkpt><trkpt lat="45.86285032970386" lon="11.466432162738757"><ele>971.25</ele><time>2026-04-23T11:39:09.002Z</time></trkpt><trkpt lat="45.86289066624775" lon="11.466580313709764"><ele>972.0</ele><time>2026-04-23T11:39:10.002Z</time></trkpt><trkpt lat="45.8629272889282" lon="11.46671774447033"><ele>972.2</ele><time>2026-04-23T11:39:11.002Z</time></trkpt><trkpt lat="45.86296167729964" lon="11.466851135886474"><ele>972.4000000000001</ele><time>2026-04-23T11:39:12.002Z</time></trkpt><trkpt lat="45.862999388645385" lon="11.46699244664837"><ele>972.5999999999999</ele><time>2026-04-23T11:39:13.002Z</time></trkpt><trkpt lat="45.86303693855102" lon="11.467149110017335"><ele>972.8</ele><time>2026-04-23T11:39:14.002Z</time></trkpt><trkpt lat="45.86307032696115" lon="11.467321829256116"><ele>973.0</ele><time>2026-04-23T11:39:15.002Z</time></trkpt><trkpt lat="45.86309487821481" lon="11.467511033960477"><ele>973.0</ele><time>2026-04-23T11:39:16.002Z</time></trkpt><trkpt lat="45.8631119002911" lon="11.467710800266163"><ele>973.0</ele><time>2026-04-23T11:39:17.002Z</time></trkpt><trkpt lat="45.86312305235103" lon="11.467877726540998"><ele>973.0</ele><time>2026-04-23T11:39:18.002Z</time></trkpt><trkpt lat="45.86312286003368" lon="11.468027750375082"><ele>973.0</ele><time>2026-04-23T11:39:19.002Z</time></trkpt><trkpt lat="45.86311603773433" lon="11.468206717549249"><ele>973.6666666666666</ele><time>2026-04-23T11:39:20.002Z</time></trkpt><trkpt lat="45.863102634804726" lon="11.468415335224947"><ele>974.3333333333333</ele><time>2026-04-23T11:39:21.003Z</time></trkpt><trkpt lat="45.86307566730051" lon="11.468621878355314"><ele>975.0</ele><time>2026-04-23T11:39:22.003Z</time></trkpt><trkpt lat="45.86302695544615" lon="11.468875723237995"><ele>975.0</ele><time>2026-04-23T11:39:23.003Z</time></trkpt><trkpt lat="45.862986015726314" lon="11.469160477988922"><ele>975.0</ele><time>2026-04-23T11:39:24.003Z</time></trkpt><trkpt lat="45.86294438843096" lon="11.46947605652286"><ele>975.0</ele><time>2026-04-23T11:39:25.003Z</time></trkpt><trkpt lat="45.86290084742884" lon="11.469818010147804"><ele>975.0</ele><time>2026-04-23T11:39:26.003Z</time></trkpt><trkpt lat="45.862864136782555" lon="11.470137931933612"><ele>975.0</ele><time>2026-04-23T11:39:27.003Z</time></trkpt><trkpt lat="45.862817816315435" lon="11.470415107299447"><ele>975.0</ele><time>2026-04-23T11:39:28.003Z</time></trkpt><trkpt lat="45.86279186611386" lon="11.470712747007372"><ele>974.3333333333333</ele><time>2026-04-23T11:39:29.003Z</time></trkpt><trkpt lat="45.862735870121426" lon="11.471011822622957"><ele>973.6666666666666</ele><time>2026-04-23T11:39:30.003Z</time></trkpt><trkpt lat="45.86271195179512" lon="11.471281138664757"><ele>973.0</ele><time>2026-04-23T11:39:31.003Z</time></trkpt><trkpt lat="45.86267522314229" lon="11.4715173037498"><ele>975.0</ele><time>2026-04-23T11:39:32.003Z</time></trkpt><trkpt lat="45.86264380413026" lon="11.471698181018333"><ele>977.0</ele><time>2026-04-23T11:39:33.003Z</time></trkpt><trkpt lat="45.862623618759294" lon="11.471829379292478"><ele>979.0</ele><time>2026-04-23T11:39:34.003Z</time></trkpt><trkpt lat="45.862616213031146" lon="11.471976658817205"><ele>981.0</ele><time>2026-04-23T11:39:35.003Z</time></trkpt><trkpt lat="45.86261398457897" lon="11.472098402733334"><ele>983.0</ele><time>2026-04-23T11:39:36.003Z</time></trkpt><trkpt lat="45.862603953228046" lon="11.472199954808254"><ele>983.8333333333334</ele><time>2026-04-23T11:39:37.003Z</time></trkpt><trkpt lat="45.862595358230195" lon="11.472356590784482"><ele>984.6666666666667</ele><time>2026-04-23T11:39:39.003Z</time></trkpt><trkpt lat="45.86267835720344" lon="11.472441419742022"><ele>985.5</ele><time>2026-04-23T11:39:41.003Z</time></trkpt><trkpt lat="45.86274814078259" lon="11.472435681715178"><ele>986.3333333333333</ele><time>2026-04-23T11:39:42.003Z</time></trkpt><trkpt lat="45.8628291779699" lon="11.472403491664366"><ele>987.1666666666666</ele><time>2026-04-23T11:39:43.003Z</time></trkpt><trkpt lat="45.86289805266602" lon="11.472394151663986"><ele>988.0</ele><time>2026-04-23T11:39:44.001Z</time></trkpt><trkpt lat="45.86296421383834" lon="11.472413843405894"><ele>988.75</ele><time>2026-04-23T11:39:45.001Z</time></trkpt><trkpt lat="45.86305436284065" lon="11.472465469286291"><ele>989.5</ele><time>2026-04-23T11:39:46.001Z</time></trkpt><trkpt lat="45.863179994518966" lon="11.472543658644689"><ele>990.25</ele><time>2026-04-23T11:39:47.001Z</time></trkpt><trkpt lat="45.86333325457446" lon="11.472651466180086"><ele>991.0</ele><time>2026-04-23T11:39:48.001Z</time></trkpt><trkpt lat="45.863477928562375" lon="11.472740364406341"><ele>991.25</ele><time>2026-04-23T11:39:49.001Z</time></trkpt><trkpt lat="45.86362067681134" lon="11.472840386672607"><ele>991.5</ele><time>2026-04-23T11:39:50.001Z</time></trkpt><trkpt lat="45.86375557927285" lon="11.472946616274628"><ele>991.75</ele><time>2026-04-23T11:39:51.001Z</time></trkpt><trkpt lat="45.863857694757336" lon="11.473063174258128"><ele>992.0</ele><time>2026-04-23T11:39:52.001Z</time></trkpt><trkpt lat="45.863935885220556" lon="11.473201805990733"><ele>992.75</ele><time>2026-04-23T11:39:53.001Z</time></trkpt><trkpt lat="45.86399689337309" lon="11.47336522726622"><ele>993.5</ele><time>2026-04-23T11:39:54.001Z</time></trkpt><trkpt lat="45.864074510958744" lon="11.473545405642971"><ele>994.25</ele><time>2026-04-23T11:39:55.001Z</time></trkpt><trkpt lat="45.864180291293366" lon="11.47372682853853"><ele>995.0</ele><time>2026-04-23T11:39:56.001Z</time></trkpt><trkpt lat="45.86431671529341" lon="11.473907883496791"><ele>995.5</ele><time>2026-04-23T11:39:57.001Z</time></trkpt><trkpt lat="45.864490428800785" lon="11.47409586722024"><ele>996.0</ele><time>2026-04-23T11:39:58.001Z</time></trkpt><trkpt lat="45.86468293041393" lon="11.474313960356923"><ele>996.0</ele><time>2026-04-23T11:39:59.001Z</time></trkpt><trkpt lat="45.86486923990131" lon="11.474514687237662"><ele>996.0</ele><time>2026-04-23T11:40:00.001Z</time></trkpt><trkpt lat="45.86507292315339" lon="11.474732832378209"><ele>995.5</ele><time>2026-04-23T11:40:01.001Z</time></trkpt><trkpt lat="45.86529190607158" lon="11.474963413676791"><ele>995.0</ele><time>2026-04-23T11:40:02.001Z</time></trkpt><trkpt lat="45.86549571648174" lon="11.475193154105334"><ele>995.0</ele><time>2026-04-23T11:40:03.001Z</time></trkpt><trkpt lat="45.865682670684684" lon="11.4753877992518"><ele>995.0</ele><time>2026-04-23T11:40:04.001Z</time></trkpt><trkpt lat="45.86585559681542" lon="11.47556739710832"><ele>995.0</ele><time>2026-04-23T11:40:05.001Z</time></trkpt><trkpt lat="45.866016549077635" lon="11.475738634199796"><ele>996.0</ele><time>2026-04-23T11:40:06.001Z</time></trkpt><trkpt lat="45.86616677785755" lon="11.475896574943668"><ele>997.0</ele><time>2026-04-23T11:40:07.001Z</time></trkpt><trkpt lat="45.86631201579634" lon="11.476043445013"><ele>998.0</ele><time>2026-04-23T11:40:08.001Z</time></trkpt><trkpt lat="45.8664449185363" lon="11.476174490372548"><ele>998.5</ele><time>2026-04-23T11:40:09.001Z</time></trkpt><trkpt lat="45.86656352741719" lon="11.47629779218302"><ele>999.0</ele><time>2026-04-23T11:40:10.001Z</time></trkpt><trkpt lat="45.866676288757425" lon="11.476410462019576"><ele>999.5</ele><time>2026-04-23T11:40:11.001Z</time></trkpt><trkpt lat="45.866803778014976" lon="11.4765423934996"><ele>1000.0</ele><time>2026-04-23T11:40:12.001Z</time></trkpt><trkpt lat="45.86692545772809" lon="11.476672927984922"><ele>999.0</ele><time>2026-04-23T11:40:13.001Z</time></trkpt><trkpt lat="45.867029083257286" lon="11.476793034562325"><ele>998.0</ele><time>2026-04-23T11:40:14.001Z</time></trkpt><trkpt lat="45.86711885607228" lon="11.47690585044933"><ele>997.0</ele><time>2026-04-23T11:40:15.001Z</time></trkpt><trkpt lat="45.867205937281845" lon="11.476997559485797"><ele>996.0</ele><time>2026-04-23T11:40:16.001Z</time></trkpt><trkpt lat="45.86728440184417" lon="11.477073442638208"><ele>996.5999999999999</ele><time>2026-04-23T11:40:17.001Z</time></trkpt><trkpt lat="45.86735043372763" lon="11.477142623346676"><ele>997.1999999999999</ele><time>2026-04-23T11:40:18.001Z</time></trkpt><trkpt lat="45.867417306492385" lon="11.477213069615901"><ele>997.8000000000001</ele><time>2026-04-23T11:40:19.001Z</time></trkpt><trkpt lat="45.86750692258663" lon="11.477293323961273"><ele>998.4000000000001</ele><time>2026-04-23T11:40:20.001Z</time></trkpt><trkpt lat="45.86760894181319" lon="11.477395324348432"><ele>999.0</ele><time>2026-04-23T11:40:21.001Z</time></trkpt><trkpt lat="45.86769638534293" lon="11.477490235570531"><ele>999.2</ele><time>2026-04-23T11:40:22.001Z</time></trkpt><trkpt lat="45.86777701969925" lon="11.477574427476265"><ele>999.4000000000001</ele><time>2026-04-23T11:40:23.001Z</time></trkpt><trkpt lat="45.86786287067009" lon="11.477661172239927"><ele>999.6</ele><time>2026-04-23T11:40:24.001Z</time></trkpt><trkpt lat="45.86795261221679" lon="11.477757281540303"><ele>999.8</ele><time>2026-04-23T11:40:25.001Z</time></trkpt><trkpt lat="45.86805918963937" lon="11.477863597680232"><ele>1000.0</ele><time>2026-04-23T11:40:26.001Z</time></trkpt><trkpt lat="45.86818778092132" lon="11.47799257883125"><ele>1000.0</ele><time>2026-04-23T11:40:27.001Z</time></trkpt><trkpt lat="45.86834951566547" lon="11.478142396852851"><ele>1000.0</ele><time>2026-04-23T11:40:28.001Z</time></trkpt><trkpt lat="45.868485843682016" lon="11.478298492655052"><ele>1000.0</ele><time>2026-04-23T11:40:29.001Z</time></trkpt><trkpt lat="45.86858560139139" lon="11.478419560800958"><ele>1000.4</ele><time>2026-04-23T11:40:30.001Z</time></trkpt><trkpt lat="45.86867373833785" lon="11.478518915439924"><ele>1000.8</ele><time>2026-04-23T11:40:31.001Z</time></trkpt><trkpt lat="45.86875665251967" lon="11.478602902822603"><ele>1001.2</ele><time>2026-04-23T11:40:32.001Z</time></trkpt><trkpt lat="45.86883582549121" lon="11.478684904839364"><ele>1001.6</ele><time>2026-04-23T11:40:33.001Z</time></trkpt><trkpt lat="45.86891762850421" lon="11.478772119266122"><ele>1002.0</ele><time>2026-04-23T11:40:34.001Z</time></trkpt><trkpt lat="45.8689989029588" lon="11.47886240201184"><ele>1002.0</ele><time>2026-04-23T11:40:35.001Z</time></trkpt><trkpt lat="45.86907175579668" lon="11.478938186111991"><ele>1002.0</ele><time>2026-04-23T11:40:36.001Z</time></trkpt><trkpt lat="45.86914180421527" lon="11.479013701855504"><ele>1002.0</ele><time>2026-04-23T11:40:37.001Z</time></trkpt><trkpt lat="45.86920901747336" lon="11.479086510590012"><ele>1002.0</ele><time>2026-04-23T11:40:38.001Z</time></trkpt><trkpt lat="45.86929553718439" lon="11.47917192088924"><ele>1002.0</ele><time>2026-04-23T11:40:40.001Z</time></trkpt><trkpt lat="45.86934795060989" lon="11.479228901607723"><ele>1002.0</ele><time>2026-04-23T11:40:42.001Z</time></trkpt><trkpt lat="45.86942098421494" lon="11.47932097450397"><ele>1002.8</ele><time>2026-04-23T11:40:45.001Z</time></trkpt><trkpt lat="45.86946745290736" lon="11.479430891934514"><ele>1003.6</ele><time>2026-04-23T11:40:47.001Z</time></trkpt><trkpt lat="45.8695109398812" lon="11.47957239755659"><ele>1004.3999999999999</ele><time>2026-04-23T11:40:49.001Z</time></trkpt><trkpt lat="45.869513040426796" lon="11.479756112337208"><ele>1005.1999999999999</ele><time>2026-04-23T11:40:51.002Z</time></trkpt><trkpt lat="45.86950027954792" lon="11.479884724136944"><ele>1006.0</ele><time>2026-04-23T11:40:52.002Z</time></trkpt><trkpt lat="45.869501065539325" lon="11.480053629258274"><ele>1006.0</ele><time>2026-04-23T11:40:53.002Z</time></trkpt><trkpt lat="45.8694889316969" lon="11.480196352652973"><ele>1005.9999999999999</ele><time>2026-04-23T11:40:54.002Z</time></trkpt><trkpt lat="45.869461741715206" lon="11.480338050168037"><ele>1005.9999999999999</ele><time>2026-04-23T11:40:55.002Z</time></trkpt><trkpt lat="45.86942043850899" lon="11.48046807426745"><ele>1006.0</ele><time>2026-04-23T11:40:56.002Z</time></trkpt><trkpt lat="45.869370998729025" lon="11.480583526511742"><ele>1006.0</ele><time>2026-04-23T11:40:57.002Z</time></trkpt><trkpt lat="45.86931291471724" lon="11.480694587884791"><ele>1006.25</ele><time>2026-04-23T11:40:58.002Z</time></trkpt><trkpt lat="45.86922903671696" lon="11.480854481725062"><ele>1006.5</ele><time>2026-04-23T11:40:59.002Z</time></trkpt><trkpt lat="45.86913022892066" lon="11.481017038536342"><ele>1006.75</ele><time>2026-04-23T11:41:00.002Z</time></trkpt><trkpt lat="45.86905249407399" lon="11.481131403444545"><ele>1007.0</ele><time>2026-04-23T11:41:01.002Z</time></trkpt><trkpt lat="45.86900166577984" lon="11.481209707235822"><ele>1008.1666666666667</ele><time>2026-04-23T11:41:02.002Z</time></trkpt><trkpt lat="45.86895485392975" lon="11.481287262585912"><ele>1009.3333333333334</ele><time>2026-04-23T11:41:03.002Z</time></trkpt><trkpt lat="45.86886733174564" lon="11.481436621461736"><ele>1010.5</ele><time>2026-04-23T11:41:05.002Z</time></trkpt><trkpt lat="45.868808874486554" lon="11.481532488386746"><ele>1011.6666666666667</ele><time>2026-04-23T11:41:06.002Z</time></trkpt><trkpt lat="45.86875707340455" lon="11.481622154136979"><ele>1012.8333333333334</ele><time>2026-04-23T11:41:07.002Z</time></trkpt><trkpt lat="45.8687249260859" lon="11.481711041359153"><ele>1014.0</ele><time>2026-04-23T11:41:08.002Z</time></trkpt><trkpt lat="45.8686951049897" lon="11.481809980013006"><ele>1014.0</ele><time>2026-04-23T11:41:09.002Z</time></trkpt><trkpt lat="45.868676024488096" lon="11.481929560841271"><ele>1014.0000000000001</ele><time>2026-04-23T11:41:10.002Z</time></trkpt><trkpt lat="45.868670419939434" lon="11.482047779922741"><ele>1014.0000000000001</ele><time>2026-04-23T11:41:11.002Z</time></trkpt><trkpt lat="45.86868277092025" lon="11.482164365168867"><ele>1014.0</ele><time>2026-04-23T11:41:12.002Z</time></trkpt><trkpt lat="45.868710007041265" lon="11.482295868304364"><ele>1014.0</ele><time>2026-04-23T11:41:13.002Z</time></trkpt><trkpt lat="45.86876051754148" lon="11.482426624889188"><ele>1014.0</ele><time>2026-04-23T11:41:14.002Z</time></trkpt><trkpt lat="45.868810957823904" lon="11.482531879980879"><ele>1014.0000000000001</ele><time>2026-04-23T11:41:15.002Z</time></trkpt><trkpt lat="45.868859660762695" lon="11.482630705831463"><ele>1014.0000000000001</ele><time>2026-04-23T11:41:16.002Z</time></trkpt><trkpt lat="45.86891287129817" lon="11.482737191467226"><ele>1014.0</ele><time>2026-04-23T11:41:17.002Z</time></trkpt><trkpt lat="45.86896489187868" lon="11.482845202368237"><ele>1014.0</ele><time>2026-04-23T11:41:18.002Z</time></trkpt><trkpt lat="45.86901865674378" lon="11.482959288902219"><ele>1013.5</ele><time>2026-04-23T11:41:19.002Z</time></trkpt><trkpt lat="45.8690697425622" lon="11.483078818928101"><ele>1013.0</ele><time>2026-04-23T11:41:20.002Z</time></trkpt><trkpt lat="45.869108711320905" lon="11.48319177179421"><ele>1012.5</ele><time>2026-04-23T11:41:21.002Z</time></trkpt><trkpt lat="45.8691349792994" lon="11.483295993445816"><ele>1012.0</ele><time>2026-04-23T11:41:22.002Z</time></trkpt><trkpt lat="45.86915536359944" lon="11.483401650263549"><ele>1011.5</ele><time>2026-04-23T11:41:23.002Z</time></trkpt><trkpt lat="45.86916949202926" lon="11.483506975586963"><ele>1011.0</ele><time>2026-04-23T11:41:24.002Z</time></trkpt><trkpt lat="45.86917556833079" lon="11.483617540017809"><ele>1011.0</ele><time>2026-04-23T11:41:25.002Z</time></trkpt><trkpt lat="45.86917638755482" lon="11.483728657751229"><ele>1011.0</ele><time>2026-04-23T11:41:26.002Z</time></trkpt><trkpt lat="45.869173928162006" lon="11.483835840692624"><ele>1011.0</ele><time>2026-04-23T11:41:27.002Z</time></trkpt><trkpt lat="45.86917226583736" lon="11.4839424995426"><ele>1011.0</ele><time>2026-04-23T11:41:28.002Z</time></trkpt><trkpt lat="45.86916899559835" lon="11.48405749346445"><ele>1011.0</ele><time>2026-04-23T11:41:29.002Z</time></trkpt><trkpt lat="45.869163900804836" lon="11.484183623588045"><ele>1011.0</ele><time>2026-04-23T11:41:30.002Z</time></trkpt><trkpt lat="45.86914846598023" lon="11.484306819698082"><ele>1011.5999999999999</ele><time>2026-04-23T11:41:31.002Z</time></trkpt><trkpt lat="45.86912371478595" lon="11.484409768409117"><ele>1012.1999999999999</ele><time>2026-04-23T11:41:32.002Z</time></trkpt><trkpt lat="45.869083090216655" lon="11.484518846896073"><ele>1012.8000000000001</ele><time>2026-04-23T11:41:33.002Z</time></trkpt><trkpt lat="45.869031449985464" lon="11.484625851360898"><ele>1013.4000000000001</ele><time>2026-04-23T11:41:34.003Z</time></trkpt><trkpt lat="45.86896767343505" lon="11.48473063113545"><ele>1014.0</ele><time>2026-04-23T11:41:35.003Z</time></trkpt><trkpt lat="45.86888774144069" lon="11.484848197054708"><ele>1014.5</ele><time>2026-04-23T11:41:36.003Z</time></trkpt><trkpt lat="45.868785820117" lon="11.485000005619902"><ele>1015.0</ele><time>2026-04-23T11:41:37.003Z</time></trkpt><trkpt lat="45.868690023936374" lon="11.485118437902754"><ele>1015.5</ele><time>2026-04-23T11:41:38.003Z</time></trkpt><trkpt lat="45.86860808444329" lon="11.485218010130446"><ele>1016.0</ele><time>2026-04-23T11:41:39.003Z</time></trkpt><trkpt lat="45.86853992884097" lon="11.485308387590727"><ele>1016.0000000000001</ele><time>2026-04-23T11:41:40.003Z</time></trkpt><trkpt lat="45.86848247093558" lon="11.485387637467793"><ele>1016.0</ele><time>2026-04-23T11:41:41.003Z</time></trkpt><trkpt lat="45.86843251029133" lon="11.485450825214729"><ele>1016.0</ele><time>2026-04-23T11:41:42.003Z</time></trkpt><trkpt lat="45.86838355683293" lon="11.4855143540121"><ele>1016.0</ele><time>2026-04-23T11:41:43.003Z</time></trkpt><trkpt lat="45.86833012797705" lon="11.485588742876505"><ele>1016.0000000000001</ele><time>2026-04-23T11:41:44.003Z</time></trkpt><trkpt lat="45.86828239899094" lon="11.485656819808188"><ele>1016.0</ele><time>2026-04-23T11:41:45.003Z</time></trkpt><trkpt lat="45.86821013444023" lon="11.4858200261605"><ele>1016.0000000000001</ele><time>2026-04-23T11:41:47.003Z</time></trkpt><trkpt lat="45.86819514435567" lon="11.485935990697598"><ele>1016.0</ele><time>2026-04-23T11:41:48.003Z</time></trkpt><trkpt lat="45.86820159398364" lon="11.486059846296193"><ele>1016.0</ele><time>2026-04-23T11:41:49.003Z</time></trkpt><trkpt lat="45.868224774704345" lon="11.4861751272888"><ele>1016.0</ele><time>2026-04-23T11:41:50.001Z</time></trkpt><trkpt lat="45.868263727769445" lon="11.486287396363846"><ele>1016.0000000000001</ele><time>2026-04-23T11:41:51.001Z</time></trkpt><trkpt lat="45.868309165936246" lon="11.486380527704654"><ele>1016.0</ele><time>2026-04-23T11:41:52.001Z</time></trkpt><trkpt lat="45.868358888158625" lon="11.48648092985775"><ele>1016.0</ele><time>2026-04-23T11:41:53.001Z</time></trkpt><trkpt lat="45.868410448747134" lon="11.486590388301543"><ele>1015.9999999999999</ele><time>2026-04-23T11:41:54Z</time></trkpt><trkpt lat="45.868464566548454" lon="11.486699750048727"><ele>1015.9999999999999</ele><time>2026-04-23T11:41:55Z</time></trkpt><trkpt lat="45.868520637293805" lon="11.486812667433885"><ele>1016.0</ele><time>2026-04-23T11:41:56Z</time></trkpt><trkpt lat="45.86858421957891" lon="11.486932940624419"><ele>1016.0</ele><time>2026-04-23T11:41:57Z</time></trkpt><trkpt lat="45.86865868516086" lon="11.487078426845603"><ele>1018.3333333333334</ele><time>2026-04-23T11:41:58Z</time></trkpt><trkpt lat="45.86874425751041" lon="11.487296892561009"><ele>1020.6666666666667</ele><time>2026-04-23T11:41:59Z</time></trkpt><trkpt lat="45.868877372482274" lon="11.487540568638153"><ele>1023.0</ele><time>2026-04-23T11:42:00Z</time></trkpt><trkpt lat="45.868984360370234" lon="11.487804532560961"><ele>1022.6666666666667</ele><time>2026-04-23T11:42:01Z</time></trkpt><trkpt lat="45.86910618977136" lon="11.48807371497139"><ele>1022.3333333333334</ele><time>2026-04-23T11:42:02Z</time></trkpt><trkpt lat="45.8692143252689" lon="11.488321375554161"><ele>1022.0</ele><time>2026-04-23T11:42:03Z</time></trkpt><trkpt lat="45.86931679432019" lon="11.488541840822581"><ele>1022.0</ele><time>2026-04-23T11:42:04Z</time></trkpt><trkpt lat="45.86940779270063" lon="11.488751978643455"><ele>1022.0</ele><time>2026-04-23T11:42:05Z</time></trkpt><trkpt lat="45.86949998304217" lon="11.48894679479074"><ele>1022.0</ele><time>2026-04-23T11:42:06Z</time></trkpt><trkpt lat="45.86957511642705" lon="11.489097822241522"><ele>1022.0</ele><time>2026-04-23T11:42:07Z</time></trkpt><trkpt lat="45.86962972280107" lon="11.489240979395953"><ele>1022.0</ele><time>2026-04-23T11:42:08Z</time></trkpt><trkpt lat="45.86966058217984" lon="11.489386483641853"><ele>1022.0</ele><time>2026-04-23T11:42:09Z</time></trkpt><trkpt lat="45.869664786875624" lon="11.489534067194999"><ele>1022.0</ele><time>2026-04-23T11:42:10Z</time></trkpt><trkpt lat="45.8696476512779" lon="11.489680164046222"><ele>1022.0</ele><time>2026-04-23T11:42:11Z</time></trkpt><trkpt lat="45.869588938433246" lon="11.489834818675499"><ele>1019.0</ele><time>2026-04-23T11:42:12Z</time></trkpt><trkpt lat="45.86947820015651" lon="11.490024639772024"><ele>1016.0</ele><time>2026-04-23T11:42:13Z</time></trkpt><trkpt lat="45.869361306968834" lon="11.490246153794333"><ele>1013.0</ele><time>2026-04-23T11:42:14Z</time></trkpt><trkpt lat="45.86924732599075" lon="11.490488982588822"><ele>1012.0</ele><time>2026-04-23T11:42:15Z</time></trkpt><trkpt lat="45.86911513820175" lon="11.490755428809207"><ele>1011.0</ele><time>2026-04-23T11:42:16Z</time></trkpt><trkpt lat="45.86898200355978" lon="11.491028256183228"><ele>1008.0</ele><time>2026-04-23T11:42:17Z</time></trkpt><trkpt lat="45.86884726230299" lon="11.491300738292429"><ele>1005.0</ele><time>2026-04-23T11:42:18Z</time></trkpt><trkpt lat="45.86870780425588" lon="11.491578224708093"><ele>1005.0</ele><time>2026-04-23T11:42:19Z</time></trkpt><trkpt lat="45.868581526852445" lon="11.491830361343709"><ele>1005.0</ele><time>2026-04-23T11:42:20.001Z</time></trkpt><trkpt lat="45.868464088967606" lon="11.492066100444193"><ele>1005.0</ele><time>2026-04-23T11:42:21.001Z</time></trkpt><trkpt lat="45.86835636318179" lon="11.49228679143103"><ele>1006.0</ele><time>2026-04-23T11:42:22.001Z</time></trkpt><trkpt lat="45.868266727677934" lon="11.492485010215699"><ele>1007.0</ele><time>2026-04-23T11:42:23.001Z</time></trkpt><trkpt lat="45.8681935008701" lon="11.492694404654415"><ele>1008.0</ele><time>2026-04-23T11:42:24.001Z</time></trkpt><trkpt lat="45.86814016299366" lon="11.492932913690865"><ele>1006.0</ele><time>2026-04-23T11:42:25.001Z</time></trkpt><trkpt lat="45.86810588545456" lon="11.493188441168801"><ele>1004.0</ele><time>2026-04-23T11:42:26.001Z</time></trkpt><trkpt lat="45.868085504090466" lon="11.493428908490026"><ele>1002.0</ele><time>2026-04-23T11:42:27.001Z</time></trkpt><trkpt lat="45.8680876955637" lon="11.493671989840706"><ele>1000.3333333333333</ele><time>2026-04-23T11:42:28.001Z</time></trkpt><trkpt lat="45.86811236204844" lon="11.493921489858055"><ele>998.6666666666666</ele><time>2026-04-23T11:42:29.001Z</time></trkpt><trkpt lat="45.8681598072497" lon="11.494175549065792"><ele>997.0</ele><time>2026-04-23T11:42:30.001Z</time></trkpt><trkpt lat="45.8682324935289" lon="11.494449294860472"><ele>994.3333333333333</ele><time>2026-04-23T11:42:31.001Z</time></trkpt><trkpt lat="45.86831241135373" lon="11.494713845314738"><ele>991.6666666666667</ele><time>2026-04-23T11:42:32.001Z</time></trkpt><trkpt lat="45.86840608588056" lon="11.495008009817711"><ele>989.0</ele><time>2026-04-23T11:42:33.001Z</time></trkpt><trkpt lat="45.868510727234316" lon="11.495321213099023"><ele>987.5</ele><time>2026-04-23T11:42:34.001Z</time></trkpt><trkpt lat="45.86860908947573" lon="11.495615716518046"><ele>986.0</ele><time>2026-04-23T11:42:35.001Z</time></trkpt><trkpt lat="45.868711530472034" lon="11.495908384605775"><ele>986.0</ele><time>2026-04-23T11:42:36.001Z</time></trkpt><trkpt lat="45.86882221675222" lon="11.496199029424199"><ele>986.0</ele><time>2026-04-23T11:42:37.001Z</time></trkpt><trkpt lat="45.86894913170164" lon="11.496475707665823"><ele>985.0</ele><time>2026-04-23T11:42:38.001Z</time></trkpt><trkpt lat="45.86910146040301" lon="11.496754547505054"><ele>984.0</ele><time>2026-04-23T11:42:39.001Z</time></trkpt><trkpt lat="45.86928232667847" lon="11.49704475392116"><ele>983.5</ele><time>2026-04-23T11:42:40.001Z</time></trkpt><trkpt lat="45.86947831208119" lon="11.497350104500322"><ele>983.0</ele><time>2026-04-23T11:42:41.001Z</time></trkpt><trkpt lat="45.86966975421117" lon="11.497646786345362"><ele>984.5</ele><time>2026-04-23T11:42:42.001Z</time></trkpt><trkpt lat="45.86984491902804" lon="11.497924549757316"><ele>986.0</ele><time>2026-04-23T11:42:43.001Z</time></trkpt><trkpt lat="45.870026604291766" lon="11.498213662754466"><ele>988.0</ele><time>2026-04-23T11:42:44.001Z</time></trkpt><trkpt lat="45.8702202021938" lon="11.498517467243339"><ele>990.0</ele><time>2026-04-23T11:42:45.001Z</time></trkpt><trkpt lat="45.870421247342136" lon="11.498829807723801"><ele>990.0</ele><time>2026-04-23T11:42:46.001Z</time></trkpt><trkpt lat="45.870625809899806" lon="11.499151908100218"><ele>990.0</ele><time>2026-04-23T11:42:47.001Z</time></trkpt><trkpt lat="45.870830068256964" lon="11.499481028205397"><ele>993.0</ele><time>2026-04-23T11:42:48.001Z</time></trkpt><trkpt lat="45.871032002664215" lon="11.499807556383729"><ele>996.0</ele><time>2026-04-23T11:42:49.001Z</time></trkpt><trkpt lat="45.87121377376609" lon="11.500100301043588"><ele>996.0</ele><time>2026-04-23T11:42:50.001Z</time></trkpt><trkpt lat="45.87138546472893" lon="11.500362864368535"><ele>996.0</ele><time>2026-04-23T11:42:51.001Z</time></trkpt><trkpt lat="45.87153483183184" lon="11.500585742311998"><ele>996.3333333333333</ele><time>2026-04-23T11:42:52.001Z</time></trkpt><trkpt lat="45.871676242826474" lon="11.500791896325484"><ele>996.6666666666666</ele><time>2026-04-23T11:42:53.001Z</time></trkpt><trkpt lat="45.87180472943737" lon="11.500979585103757"><ele>997.0</ele><time>2026-04-23T11:42:54.001Z</time></trkpt><trkpt lat="45.87192189959147" lon="11.501159762387564"><ele>999.6666666666666</ele><time>2026-04-23T11:42:55.001Z</time></trkpt><trkpt lat="45.87203575386603" lon="11.501329702202135"><ele>1002.3333333333333</ele><time>2026-04-23T11:42:56.001Z</time></trkpt><trkpt lat="45.87215525494004" lon="11.501509937584276"><ele>1005.0</ele><time>2026-04-23T11:42:57.001Z</time></trkpt><trkpt lat="45.87226506598649" lon="11.501704649564124"><ele>1005.0</ele><time>2026-04-23T11:42:58.001Z</time></trkpt><trkpt lat="45.8723566327178" lon="11.501898705810031"><ele>1005.0</ele><time>2026-04-23T11:42:59.001Z</time></trkpt><trkpt lat="45.872431729487296" lon="11.502081466798044"><ele>1005.0</ele><time>2026-04-23T11:43:00.001Z</time></trkpt><trkpt lat="45.872497158084876" lon="11.502248699711346"><ele>1005.0</ele><time>2026-04-23T11:43:01.001Z</time></trkpt><trkpt lat="45.87255598485877" lon="11.502408652079467"><ele>1006.75</ele><time>2026-04-23T11:43:02.001Z</time></trkpt><trkpt lat="45.87261366047081" lon="11.50257775767939"><ele>1008.5</ele><time>2026-04-23T11:43:03.001Z</time></trkpt><trkpt lat="45.872679453884196" lon="11.50274463777048"><ele>1010.25</ele><time>2026-04-23T11:43:04.001Z</time></trkpt><trkpt lat="45.87274555136683" lon="11.502916442598181"><ele>1012.0</ele><time>2026-04-23T11:43:05.001Z</time></trkpt><trkpt lat="45.8728103416632" lon="11.503091525381194"><ele>1012.0</ele><time>2026-04-23T11:43:06.001Z</time></trkpt><trkpt lat="45.87287442049094" lon="11.503268630226376"><ele>1012.0</ele><time>2026-04-23T11:43:07.001Z</time></trkpt><trkpt lat="45.87293800913019" lon="11.503447222567647"><ele>1012.0</ele><time>2026-04-23T11:43:08.002Z</time></trkpt><trkpt lat="45.87299385661419" lon="11.503623796970228"><ele>1012.0</ele><time>2026-04-23T11:43:09.002Z</time></trkpt><trkpt lat="45.87304978697479" lon="11.50380282033724"><ele>1011.75</ele><time>2026-04-23T11:43:10.002Z</time></trkpt><trkpt lat="45.87310849737817" lon="11.50398545389345"><ele>1011.5</ele><time>2026-04-23T11:43:11.002Z</time></trkpt><trkpt lat="45.87316441473828" lon="11.504157112259083"><ele>1011.25</ele><time>2026-04-23T11:43:12.002Z</time></trkpt><trkpt lat="45.87321366374485" lon="11.504324271438977"><ele>1011.0</ele><time>2026-04-23T11:43:13.002Z</time></trkpt><trkpt lat="45.87326246489265" lon="11.504498538402737"><ele>1010.8</ele><time>2026-04-23T11:43:14.002Z</time></trkpt><trkpt lat="45.87331257926086" lon="11.504664581017558"><ele>1010.5999999999999</ele><time>2026-04-23T11:43:15.002Z</time></trkpt><trkpt lat="45.87335715031429" lon="11.504817476169041"><ele>1010.4</ele><time>2026-04-23T11:43:16.002Z</time></trkpt><trkpt lat="45.87339437650253" lon="11.50495272191211"><ele>1010.2</ele><time>2026-04-23T11:43:17.002Z</time></trkpt><trkpt lat="45.87342022437788" lon="11.505064648274496"><ele>1010.0</ele><time>2026-04-23T11:43:18.002Z</time></trkpt><trkpt lat="45.8734355426077" lon="11.505173001297642"><ele>1010.0000000000001</ele><time>2026-04-23T11:43:19.002Z</time></trkpt><trkpt lat="45.873435834245996" lon="11.505275561230809"><ele>1010.0</ele><time>2026-04-23T11:43:20.002Z</time></trkpt><trkpt lat="45.87342726058293" lon="11.505367964904336"><ele>1010.0</ele><time>2026-04-23T11:43:21.002Z</time></trkpt><trkpt lat="45.87341108183831" lon="11.505504374165687"><ele>1010.0</ele><time>2026-04-23T11:43:23.002Z</time></trkpt><trkpt lat="45.87341545132666" lon="11.505632919913163"><ele>1010.0000000000001</ele><time>2026-04-23T11:43:25.002Z</time></trkpt><trkpt lat="45.87350883581306" lon="11.505714651671658"><ele>1010.0</ele><time>2026-04-23T11:43:27.002Z</time></trkpt><trkpt lat="45.873579361065715" lon="11.505731748367602"><ele>1009.6</ele><time>2026-04-23T11:43:28.002Z</time></trkpt><trkpt lat="45.87363438617992" lon="11.50578383897947"><ele>1009.2</ele><time>2026-04-23T11:43:29.002Z</time></trkpt><trkpt lat="45.87368759239389" lon="11.50594950421358"><ele>1008.8</ele><time>2026-04-23T11:43:31.002Z</time></trkpt><trkpt lat="45.8737181036159" lon="11.506046489880656"><ele>1008.4</ele><time>2026-04-23T11:43:32.002Z</time></trkpt><trkpt lat="45.87374990603062" lon="11.506149655233001"><ele>1008.0</ele><time>2026-04-23T11:43:33.002Z</time></trkpt><trkpt lat="45.87379562208014" lon="11.50628914480043"><ele>1008.0</ele><time>2026-04-23T11:43:34.002Z</time></trkpt><trkpt lat="45.87383853609565" lon="11.506419119614234"><ele>1008.0</ele><time>2026-04-23T11:43:35.002Z</time></trkpt><trkpt lat="45.873877940648555" lon="11.506551669188404"><ele>1008.0</ele><time>2026-04-23T11:43:36.002Z</time></trkpt><trkpt lat="45.87392272687057" lon="11.506701243885768"><ele>1008.0</ele><time>2026-04-23T11:43:37.002Z</time></trkpt><trkpt lat="45.873975089318726" lon="11.506853444320955"><ele>1008.0</ele><time>2026-04-23T11:43:38.002Z</time></trkpt><trkpt lat="45.8740371545773" lon="11.506999466882974"><ele>1006.5999999999999</ele><time>2026-04-23T11:43:39.002Z</time></trkpt><trkpt lat="45.87409964480673" lon="11.507121283010068"><ele>1005.1999999999999</ele><time>2026-04-23T11:43:40.002Z</time></trkpt><trkpt lat="45.874170375336725" lon="11.507228622772747"><ele>1003.8</ele><time>2026-04-23T11:43:41.002Z</time></trkpt><trkpt lat="45.87423930766988" lon="11.507343282813345"><ele>1002.4</ele><time>2026-04-23T11:43:42.002Z</time></trkpt><trkpt lat="45.87431286561151" lon="11.50745737566344"><ele>1001.0</ele><time>2026-04-23T11:43:43.002Z</time></trkpt><trkpt lat="45.87438249932241" lon="11.507570341537237"><ele>1001.0000000000001</ele><time>2026-04-23T11:43:44.002Z</time></trkpt><trkpt lat="45.87443746653039" lon="11.507662880250933"><ele>1001.0</ele><time>2026-04-23T11:43:45.002Z</time></trkpt><trkpt lat="45.874478490727036" lon="11.507762438694698"><ele>1001.0</ele><time>2026-04-23T11:43:47.002Z</time></trkpt><trkpt lat="45.87450878770462" lon="11.507857808564326"><ele>1001.0</ele><time>2026-04-23T11:43:50.002Z</time></trkpt><trkpt lat="45.87451383899124" lon="11.507992962447283"><ele>1001.0000000000001</ele><time>2026-04-23T11:43:52.002Z</time></trkpt><trkpt lat="45.874576111902726" lon="11.508021507331948"><ele>1001.0</ele><time>2026-04-23T11:43:53.002Z</time></trkpt><trkpt lat="45.8747015359143" lon="11.508054577568908"><ele>1000.8333333333334</ele><time>2026-04-23T11:43:55.003Z</time></trkpt><trkpt lat="45.87476622165657" lon="11.508138163386455"><ele>1000.6666666666667</ele><time>2026-04-23T11:43:56Z</time></trkpt><trkpt lat="45.87482595691172" lon="11.508240084549934"><ele>1000.5</ele><time>2026-04-23T11:43:57Z</time></trkpt><trkpt lat="45.874875802131356" lon="11.508336173659108"><ele>1000.3333333333333</ele><time>2026-04-23T11:43:58Z</time></trkpt><trkpt lat="45.87493238108134" lon="11.50842861510243"><ele>1000.1666666666666</ele><time>2026-04-23T11:43:59Z</time></trkpt><trkpt lat="45.87499010746549" lon="11.508525672380312"><ele>1000.0</ele><time>2026-04-23T11:44:00Z</time></trkpt><trkpt lat="45.87504888593594" lon="11.508617843932672"><ele>999.9999999999999</ele><time>2026-04-23T11:44:01Z</time></trkpt><trkpt lat="45.875104177491515" lon="11.508700595350634"><ele>1000.0</ele><time>2026-04-23T11:44:02Z</time></trkpt><trkpt lat="45.87515067250858" lon="11.508774846336957"><ele>1000.0</ele><time>2026-04-23T11:44:03Z</time></trkpt><trkpt lat="45.87519867180483" lon="11.508855646154625"><ele>1000.0</ele><time>2026-04-23T11:44:04Z</time></trkpt><trkpt lat="45.87524458809271" lon="11.50895963823749"><ele>999.9999999999999</ele><time>2026-04-23T11:44:05Z</time></trkpt><trkpt lat="45.87527791919" lon="11.509094193913137"><ele>1000.0</ele><time>2026-04-23T11:44:06Z</time></trkpt><trkpt lat="45.875310756246684" lon="11.50925871901589"><ele>1000.75</ele><time>2026-04-23T11:44:07Z</time></trkpt><trkpt lat="45.875349073956414" lon="11.50944244674773"><ele>1001.5</ele><time>2026-04-23T11:44:08Z</time></trkpt><trkpt lat="45.87537270077576" lon="11.509618592177786"><ele>1002.25</ele><time>2026-04-23T11:44:09Z</time></trkpt><trkpt lat="45.875396571409404" lon="11.50975729374794"><ele>1003.0</ele><time>2026-04-23T11:44:10Z</time></trkpt><trkpt lat="45.87541622173591" lon="11.509896097634613"><ele>1003.0</ele><time>2026-04-23T11:44:11Z</time></trkpt><trkpt lat="45.875440130179044" lon="11.510036175872171"><ele>1003.0</ele><time>2026-04-23T11:44:12Z</time></trkpt><trkpt lat="45.87546339962474" lon="11.51018426578606"><ele>1003.0</ele><time>2026-04-23T11:44:13Z</time></trkpt><trkpt lat="45.87547526170726" lon="11.510307724610035"><ele>1003.0</ele><time>2026-04-23T11:44:14Z</time></trkpt><trkpt lat="45.87548240736704" lon="11.510454032323532"><ele>1003.0</ele><time>2026-04-23T11:44:16Z</time></trkpt><trkpt lat="45.87546740122442" lon="11.510547010043645"><ele>1002.8333333333333</ele><time>2026-04-23T11:44:22Z</time></trkpt><trkpt lat="45.87546631243083" lon="11.510648172182096"><ele>1002.6666666666666</ele><time>2026-04-23T11:44:24Z</time></trkpt><trkpt lat="45.875557320927726" lon="11.510669501949367"><ele>1002.5</ele><time>2026-04-23T11:44:26Z</time></trkpt><trkpt lat="45.87560631581657" lon="11.510734902122417"><ele>1002.3333333333333</ele><time>2026-04-23T11:44:29Z</time></trkpt><trkpt lat="45.87569175988033" lon="11.510754995373633"><ele>1002.1666666666666</ele><time>2026-04-23T11:44:31Z</time></trkpt><trkpt lat="45.875757153018995" lon="11.510801209087441"><ele>1002.0</ele><time>2026-04-23T11:44:33Z</time></trkpt><trkpt lat="45.87583947242496" lon="11.510844397968024"><ele>1002.0</ele><time>2026-04-23T11:44:36Z</time></trkpt><trkpt lat="45.875903828995845" lon="11.510903852957277"><ele>1002.0</ele><time>2026-04-23T11:44:38.001Z</time></trkpt><trkpt lat="45.87599913213045" lon="11.511003664472739"><ele>1002.0</ele><time>2026-04-23T11:44:40.001Z</time></trkpt><trkpt lat="45.87608571837344" lon="11.51109951841313"><ele>1002.0</ele><time>2026-04-23T11:44:42.001Z</time></trkpt><trkpt lat="45.87616610959888" lon="11.51118604230166"><ele>1002.0</ele><time>2026-04-23T11:44:44.001Z</time></trkpt><trkpt lat="45.876238679886065" lon="11.51127413659729"><ele>1002.6666666666666</ele><time>2026-04-23T11:44:46.001Z</time></trkpt><trkpt lat="45.87632171391647" lon="11.511378718094166"><ele>1003.3333333333333</ele><time>2026-04-23T11:44:48.001Z</time></trkpt><trkpt lat="45.8764209248972" lon="11.511506737542662"><ele>1004.0</ele><time>2026-04-23T11:44:50.001Z</time></trkpt><trkpt lat="45.87647694950286" lon="11.511568369244252"><ele>1004.6666666666666</ele><time>2026-04-23T11:44:51.001Z</time></trkpt><trkpt lat="45.8765297582274" lon="11.511624116874634"><ele>1005.3333333333333</ele><time>2026-04-23T11:44:52.001Z</time></trkpt><trkpt lat="45.87658348981492" lon="11.511683086693132"><ele>1006.0</ele><time>2026-04-23T11:44:53.001Z</time></trkpt><trkpt lat="45.876643429546846" lon="11.511744499282589"><ele>1006.0</ele><time>2026-04-23T11:44:54.001Z</time></trkpt><trkpt lat="45.876705490140445" lon="11.511808008233848"><ele>1006.0000000000001</ele><time>2026-04-23T11:44:55.001Z</time></trkpt><trkpt lat="45.87676782299009" lon="11.511875004900135"><ele>1006.0</ele><time>2026-04-23T11:44:56.001Z</time></trkpt><trkpt lat="45.87682552002762" lon="11.511939426497024"><ele>1006.0</ele><time>2026-04-23T11:44:57.001Z</time></trkpt><trkpt lat="45.87687892404792" lon="11.51199735912031"><ele>1006.0000000000001</ele><time>2026-04-23T11:44:58.001Z</time></trkpt><trkpt lat="45.876930576045055" lon="11.512053533343073"><ele>1006.0</ele><time>2026-04-23T11:44:59.001Z</time></trkpt><trkpt lat="45.87698712351625" lon="11.512118609164757"><ele>1006.0</ele><time>2026-04-23T11:45:00.001Z</time></trkpt><trkpt lat="45.87704922179491" lon="11.512192868605023"><ele>1005.8333333333333</ele><time>2026-04-23T11:45:01.001Z</time></trkpt><trkpt lat="45.87711878261013" lon="11.512280408119521"><ele>1005.6666666666666</ele><time>2026-04-23T11:45:02.001Z</time></trkpt><trkpt lat="45.877186913110194" lon="11.512364766747542"><ele>1005.5</ele><time>2026-04-23T11:45:03.001Z</time></trkpt><trkpt lat="45.87724912571459" lon="11.51244098566446"><ele>1005.3333333333333</ele><time>2026-04-23T11:45:04.001Z</time></trkpt><trkpt lat="45.87730896301497" lon="11.512513826449204"><ele>1005.1666666666666</ele><time>2026-04-23T11:45:05.001Z</time></trkpt><trkpt lat="45.87737103047265" lon="11.512593530825999"><ele>1005.0</ele><time>2026-04-23T11:45:06.001Z</time></trkpt><trkpt lat="45.87742208379359" lon="11.51267263600139"><ele>1005.0</ele><time>2026-04-23T11:45:07.001Z</time></trkpt><trkpt lat="45.87746712664374" lon="11.51273586763544"><ele>1005.0</ele><time>2026-04-23T11:45:08.001Z</time></trkpt><trkpt lat="45.87754404731062" lon="11.512884841233967"><ele>1005.0</ele><time>2026-04-23T11:45:10.001Z</time></trkpt><trkpt lat="45.877585439042704" lon="11.512965010038641"><ele>1005.0</ele><time>2026-04-23T11:45:11.001Z</time></trkpt><trkpt lat="45.87761858650885" lon="11.513071142916075"><ele>1005.0</ele><time>2026-04-23T11:45:12.001Z</time></trkpt><trkpt lat="45.87767972470686" lon="11.513170950944453"><ele>1005.0</ele><time>2026-04-23T11:45:13.001Z</time></trkpt><trkpt lat="45.87772312361243" lon="11.513266631602484"><ele>1005.3333333333334</ele><time>2026-04-23T11:45:14.001Z</time></trkpt><trkpt lat="45.87775974740378" lon="11.513356922692811"><ele>1005.6666666666667</ele><time>2026-04-23T11:45:15.001Z</time></trkpt><trkpt lat="45.877803390931795" lon="11.513454965715361"><ele>1006.0</ele><time>2026-04-23T11:45:16.001Z</time></trkpt><trkpt lat="45.87785262205956" lon="11.513561144977732"><ele>1006.3333333333334</ele><time>2026-04-23T11:45:17.001Z</time></trkpt><trkpt lat="45.877902872664194" lon="11.513675409876418"><ele>1006.6666666666667</ele><time>2026-04-23T11:45:18.001Z</time></trkpt><trkpt lat="45.87795246028392" lon="11.51379654122265"><ele>1007.0</ele><time>2026-04-23T11:45:19.001Z</time></trkpt><trkpt lat="45.87800250363169" lon="11.513921112404546"><ele>1007.6</ele><time>2026-04-23T11:45:20.002Z</time></trkpt><trkpt lat="45.8780516357536" lon="11.514048394901506"><ele>1008.2</ele><time>2026-04-23T11:45:21.002Z</time></trkpt><trkpt lat="45.87810352957285" lon="11.514172325429293"><ele>1008.8</ele><time>2026-04-23T11:45:22.002Z</time></trkpt><trkpt lat="45.878152724781515" lon="11.514290187797448"><ele>1009.4</ele><time>2026-04-23T11:45:23.002Z</time></trkpt><trkpt lat="45.87820121691865" lon="11.514401261975257"><ele>1010.0</ele><time>2026-04-23T11:45:24.002Z</time></trkpt><trkpt lat="45.878245790997205" lon="11.514507112775561"><ele>1009.6666666666667</ele><time>2026-04-23T11:45:25.002Z</time></trkpt><trkpt lat="45.878286543761796" lon="11.514602468485391"><ele>1009.3333333333334</ele><time>2026-04-23T11:45:26.002Z</time></trkpt><trkpt lat="45.878323686556115" lon="11.514700856648771"><ele>1009.0</ele><time>2026-04-23T11:45:27.002Z</time></trkpt><trkpt lat="45.878363550917804" lon="11.514804183342562"><ele>1008.6666666666667</ele><time>2026-04-23T11:45:28.002Z</time></trkpt><trkpt lat="45.878410626311435" lon="11.514906561485663"><ele>1008.3333333333334</ele><time>2026-04-23T11:45:29.002Z</time></trkpt><trkpt lat="45.87845656320082" lon="11.515015351539205"><ele>1008.0</ele><time>2026-04-23T11:45:30.002Z</time></trkpt><trkpt lat="45.87850140417266" lon="11.515132899587291"><ele>1009.2</ele><time>2026-04-23T11:45:31.002Z</time></trkpt><trkpt lat="45.87855155521464" lon="11.515255989191047"><ele>1010.4</ele><time>2026-04-23T11:45:32.002Z</time></trkpt><trkpt lat="45.87859854905718" lon="11.515392113288774"><ele>1011.6000000000001</ele><time>2026-04-23T11:45:33.002Z</time></trkpt><trkpt lat="45.87864314369187" lon="11.515539482758777"><ele>1012.8000000000001</ele><time>2026-04-23T11:45:34.002Z</time></trkpt><trkpt lat="45.87868312431767" lon="11.51568487594224"><ele>1014.0</ele><time>2026-04-23T11:45:35.002Z</time></trkpt><trkpt lat="45.87871654444913" lon="11.515846736137316"><ele>1014.0</ele><time>2026-04-23T11:45:36.002Z</time></trkpt><trkpt lat="45.87877856772831" lon="11.516121802845728"><ele>1014.0</ele><time>2026-04-23T11:45:37.002Z</time></trkpt><trkpt lat="45.87885846038546" lon="11.516413808139369"><ele>1014.0</ele><time>2026-04-23T11:45:38.002Z</time></trkpt><trkpt lat="45.87893492186942" lon="11.516697544172349"><ele>1013.5</ele><time>2026-04-23T11:45:39.002Z</time></trkpt><trkpt lat="45.879031535435075" lon="11.51703454531471"><ele>1013.0</ele><time>2026-04-23T11:45:40.002Z</time></trkpt><trkpt lat="45.87910527399935" lon="11.517348306753972"><ele>1013.0</ele><time>2026-04-23T11:45:41.002Z</time></trkpt><trkpt lat="45.87918298502407" lon="11.51766472209022"><ele>1013.0</ele><time>2026-04-23T11:45:42.002Z</time></trkpt><trkpt lat="45.879268289566056" lon="11.517999719589946"><ele>1015.0</ele><time>2026-04-23T11:45:43.002Z</time></trkpt><trkpt lat="45.87935793325647" lon="11.518361087906062"><ele>1017.0</ele><time>2026-04-23T11:45:44.002Z</time></trkpt><trkpt lat="45.87944804815819" lon="11.518716790699674"><ele>1016.6666666666667</ele><time>2026-04-23T11:45:45.002Z</time></trkpt><trkpt lat="45.879524406565274" lon="11.519029920787599"><ele>1016.3333333333334</ele><time>2026-04-23T11:45:46.002Z</time></trkpt><trkpt lat="45.87959543423298" lon="11.519320332230498"><ele>1016.0</ele><time>2026-04-23T11:45:47.002Z</time></trkpt><trkpt lat="45.87966579855141" lon="11.519597189344964"><ele>1016.0</ele><time>2026-04-23T11:45:48.002Z</time></trkpt><trkpt lat="45.879755339177606" lon="11.519904245278068"><ele>1016.0</ele><time>2026-04-23T11:45:49.002Z</time></trkpt><trkpt lat="45.87986106753386" lon="11.520224342964408"><ele>1018.0</ele><time>2026-04-23T11:45:50.002Z</time></trkpt><trkpt lat="45.87997198054827" lon="11.520521659455188"><ele>1020.0</ele><time>2026-04-23T11:45:51.002Z</time></trkpt><trkpt lat="45.88007923007967" lon="11.520812769064248"><ele>1024.5</ele><time>2026-04-23T11:45:52.002Z</time></trkpt><trkpt lat="45.88018547651317" lon="11.521122290018491"><ele>1029.0</ele><time>2026-04-23T11:45:53.002Z</time></trkpt><trkpt lat="45.88027701014781" lon="11.521437919754785"><ele>1029.5</ele><time>2026-04-23T11:45:54.002Z</time></trkpt><trkpt lat="45.880355106658044" lon="11.521754701182909"><ele>1030.0</ele><time>2026-04-23T11:45:55.002Z</time></trkpt><trkpt lat="45.88042311115347" lon="11.522083580124107"><ele>1029.0</ele><time>2026-04-23T11:45:56.002Z</time></trkpt><trkpt lat="45.88048322008377" lon="11.52241298442945"><ele>1028.0</ele><time>2026-04-23T11:45:57.002Z</time></trkpt><trkpt lat="45.88053299949967" lon="11.522713140415155"><ele>1027.6666666666667</ele><time>2026-04-23T11:45:58.002Z</time></trkpt><trkpt lat="45.88056830192429" lon="11.52300907205526"><ele>1027.3333333333333</ele><time>2026-04-23T11:45:59.002Z</time></trkpt><trkpt lat="45.88058337984117" lon="11.523297958729952"><ele>1027.0</ele><time>2026-04-23T11:46:00.002Z</time></trkpt><trkpt lat="45.88058602381734" lon="11.523596483281855"><ele>1027.6666666666665</ele><time>2026-04-23T11:46:01.002Z</time></trkpt><trkpt lat="45.88057505632682" lon="11.523899982459493"><ele>1028.3333333333333</ele><time>2026-04-23T11:46:02Z</time></trkpt><trkpt lat="45.88055710168585" lon="11.524219186411255"><ele>1029.0</ele><time>2026-04-23T11:46:03Z</time></trkpt><trkpt lat="45.88053882161093" lon="11.524572658619782"><ele>1029.0</ele><time>2026-04-23T11:46:04Z</time></trkpt><trkpt lat="45.88051492227353" lon="11.524940964754956"><ele>1029.0</ele><time>2026-04-23T11:46:05Z</time></trkpt><trkpt lat="45.88048848095233" lon="11.525321661297275"><ele>1029.5</ele><time>2026-04-23T11:46:06Z</time></trkpt><trkpt lat="45.88046421223997" lon="11.525683627508384"><ele>1030.0</ele><time>2026-04-23T11:46:07Z</time></trkpt><trkpt lat="45.880443753600716" lon="11.526013357159883"><ele>1031.6666666666665</ele><time>2026-04-23T11:46:08Z</time></trkpt><trkpt lat="45.88043899078584" lon="11.52632634895944"><ele>1033.3333333333333</ele><time>2026-04-23T11:46:09Z</time></trkpt><trkpt lat="45.880441411232916" lon="11.526620346864206"><ele>1035.0</ele><time>2026-04-23T11:46:10Z</time></trkpt><trkpt lat="45.880454125328036" lon="11.526891648464755"><ele>1035.3333333333333</ele><time>2026-04-23T11:46:11Z</time></trkpt><trkpt lat="45.880480020346525" lon="11.527152308295266"><ele>1035.6666666666665</ele><time>2026-04-23T11:46:12Z</time></trkpt><trkpt lat="45.88051256657023" lon="11.527390633280772"><ele>1036.0</ele><time>2026-04-23T11:46:13Z</time></trkpt><trkpt lat="45.88054450605044" lon="11.52760827252835"><ele>1036.0</ele><time>2026-04-23T11:46:14Z</time></trkpt><trkpt lat="45.88056493601214" lon="11.5277911473424"><ele>1036.0</ele><time>2026-04-23T11:46:15Z</time></trkpt><trkpt lat="45.88057990784473" lon="11.52793629280793"><ele>1036.0</ele><time>2026-04-23T11:46:16Z</time></trkpt><trkpt lat="45.880598674381126" lon="11.528064588181847"><ele>1036.0</ele><time>2026-04-23T11:46:17Z</time></trkpt><trkpt lat="45.88061450490016" lon="11.528184170740602"><ele>1036.0</ele><time>2026-04-23T11:46:18Z</time></trkpt><trkpt lat="45.880623672294504" lon="11.528292231204407"><ele>1035.3999999999999</ele><time>2026-04-23T11:46:19Z</time></trkpt><trkpt lat="45.88063316032864" lon="11.528403152673306"><ele>1034.8</ele><time>2026-04-23T11:46:20Z</time></trkpt><trkpt lat="45.88065010552905" lon="11.528529712935208"><ele>1034.1999999999998</ele><time>2026-04-23T11:46:21Z</time></trkpt><trkpt lat="45.88067793634598" lon="11.528667738485478"><ele>1033.6</ele><time>2026-04-23T11:46:22Z</time></trkpt><trkpt lat="45.88070229944588" lon="11.528856252197738"><ele>1033.0</ele><time>2026-04-23T11:46:23Z</time></trkpt><trkpt lat="45.88075556395493" lon="11.529108920890575"><ele>1032.3333333333333</ele><time>2026-04-23T11:46:24Z</time></trkpt><trkpt lat="45.88082642097219" lon="11.529398381744084"><ele>1031.6666666666667</ele><time>2026-04-23T11:46:25Z</time></trkpt><trkpt lat="45.88090258134785" lon="11.52970674462915"><ele>1031.0</ele><time>2026-04-23T11:46:26Z</time></trkpt><trkpt lat="45.88098654064165" lon="11.53004597993041"><ele>1034.0</ele><time>2026-04-23T11:46:27Z</time></trkpt><trkpt lat="45.88106871467523" lon="11.530377522158041"><ele>1037.0</ele><time>2026-04-23T11:46:28Z</time></trkpt><trkpt lat="45.88114762728383" lon="11.530660594524214"><ele>1037.0</ele><time>2026-04-23T11:46:29Z</time></trkpt><trkpt lat="45.881213713526655" lon="11.530932807958784"><ele>1037.0</ele><time>2026-04-23T11:46:30Z</time></trkpt><trkpt lat="45.88129817584391" lon="11.53118981441304"><ele>1037.0</ele><time>2026-04-23T11:46:31Z</time></trkpt><trkpt lat="45.88141097080365" lon="11.531443268874858"><ele>1036.5</ele><time>2026-04-23T11:46:32Z</time></trkpt><trkpt lat="45.881555837474075" lon="11.53170721637822"><ele>1036.0</ele><time>2026-04-23T11:46:33Z</time></trkpt><trkpt lat="45.88170044125333" lon="11.531956821314278"><ele>1043.5</ele><time>2026-04-23T11:46:34.001Z</time></trkpt><trkpt lat="45.881857345853064" lon="11.53221505059727"><ele>1051.0</ele><time>2026-04-23T11:46:35.001Z</time></trkpt><trkpt lat="45.88202473281297" lon="11.53247264970899"><ele>1051.0</ele><time>2026-04-23T11:46:36.001Z</time></trkpt><trkpt lat="45.88220175913145" lon="11.53270790072042"><ele>1051.0</ele><time>2026-04-23T11:46:37.001Z</time></trkpt><trkpt lat="45.88238674368297" lon="11.532916620454348"><ele>1051.5</ele><time>2026-04-23T11:46:38.001Z</time></trkpt><trkpt lat="45.882582615629126" lon="11.533123341424947"><ele>1052.0</ele><time>2026-04-23T11:46:39.001Z</time></trkpt><trkpt lat="45.882798497929194" lon="11.53331702204185"><ele>1052.0</ele><time>2026-04-23T11:46:40.001Z</time></trkpt><trkpt lat="45.88301664219311" lon="11.533504914483922"><ele>1052.0</ele><time>2026-04-23T11:46:41.001Z</time></trkpt><trkpt lat="45.88320428413521" lon="11.533673521761576"><ele>1052.0</ele><time>2026-04-23T11:46:42.001Z</time></trkpt><trkpt lat="45.88337124567133" lon="11.533844506256248"><ele>1052.0</ele><time>2026-04-23T11:46:43.001Z</time></trkpt><trkpt lat="45.883531625779874" lon="11.534042363440491"><ele>1052.0</ele><time>2026-04-23T11:46:44.001Z</time></trkpt><trkpt lat="45.88369420877931" lon="11.534267755794303"><ele>1054.5</ele><time>2026-04-23T11:46:45.001Z</time></trkpt><trkpt lat="45.8838481834553" lon="11.5345163419843"><ele>1057.0</ele><time>2026-04-23T11:46:46.001Z</time></trkpt><trkpt lat="45.88399556329781" lon="11.534783896737924"><ele>1057.5</ele><time>2026-04-23T11:46:47.001Z</time></trkpt><trkpt lat="45.88413134546477" lon="11.535081505717553"><ele>1058.0</ele><time>2026-04-23T11:46:48.001Z</time></trkpt><trkpt lat="45.88427439511043" lon="11.535403574307727"><ele>1061.0</ele><time>2026-04-23T11:46:49.001Z</time></trkpt><trkpt lat="45.884416929864024" lon="11.535733214266056"><ele>1064.0</ele><time>2026-04-23T11:46:50.001Z</time></trkpt><trkpt lat="45.88456588610015" lon="11.536050493982428"><ele>1063.5</ele><time>2026-04-23T11:46:51.001Z</time></trkpt><trkpt lat="45.88473761926602" lon="11.536368073059563"><ele>1063.0</ele><time>2026-04-23T11:46:52.001Z</time></trkpt><trkpt lat="45.884922080419635" lon="11.53669028694676"><ele>1066.0</ele><time>2026-04-23T11:46:53.001Z</time></trkpt><trkpt lat="45.88511706894307" lon="11.537014370180218"><ele>1069.0</ele><time>2026-04-23T11:46:54.001Z</time></trkpt><trkpt lat="45.88529872962915" lon="11.537318958230133"><ele>1069.0</ele><time>2026-04-23T11:46:55.001Z</time></trkpt><trkpt lat="45.88549226868085" lon="11.53763937731878"><ele>1069.0</ele><time>2026-04-23T11:46:56.001Z</time></trkpt><trkpt lat="45.88568235501072" lon="11.537949137791637"><ele>1070.0</ele><time>2026-04-23T11:46:57.001Z</time></trkpt><trkpt lat="45.8858537724585" lon="11.538228548784984"><ele>1071.0</ele><time>2026-04-23T11:46:58.001Z</time></trkpt><trkpt lat="45.88600715983989" lon="11.538476179294628"><ele>1072.0</ele><time>2026-04-23T11:46:59.001Z</time></trkpt><trkpt lat="45.88615303075188" lon="11.538703898165807"><ele>1073.0</ele><time>2026-04-23T11:47:00.001Z</time></trkpt><trkpt lat="45.88632265355883" lon="11.538931734717066"><ele>1074.0</ele><time>2026-04-23T11:47:01.001Z</time></trkpt><trkpt lat="45.886508710271606" lon="11.539167279957047"><ele>1074.0</ele><time>2026-04-23T11:47:02.001Z</time></trkpt><trkpt lat="45.88670883175471" lon="11.53939802892631"><ele>1074.0</ele><time>2026-04-23T11:47:03.001Z</time></trkpt><trkpt lat="45.88691798125518" lon="11.53963231115505"><ele>1074.0</ele><time>2026-04-23T11:47:04.001Z</time></trkpt><trkpt lat="45.88713245313183" lon="11.539864821372335"><ele>1074.0</ele><time>2026-04-23T11:47:05.001Z</time></trkpt><trkpt lat="45.88733414607809" lon="11.540084255176017"><ele>1074.0</ele><time>2026-04-23T11:47:06.001Z</time></trkpt><trkpt lat="45.887518857870795" lon="11.54028530225571"><ele>1074.0</ele><time>2026-04-23T11:47:07.001Z</time></trkpt><trkpt lat="45.88768563717961" lon="11.540464405316746"><ele>1074.0</ele><time>2026-04-23T11:47:08.001Z</time></trkpt><trkpt lat="45.88784597986443" lon="11.540627395434655"><ele>1072.3333333333333</ele><time>2026-04-23T11:47:09.001Z</time></trkpt><trkpt lat="45.88800185911519" lon="11.540756789266807"><ele>1070.6666666666665</ele><time>2026-04-23T11:47:10.001Z</time></trkpt><trkpt lat="45.888160925789435" lon="11.540847531005237"><ele>1069.0</ele><time>2026-04-23T11:47:11.001Z</time></trkpt><trkpt lat="45.88832599946704" lon="11.540886605575112"><ele>1070.3333333333333</ele><time>2026-04-23T11:47:12.001Z</time></trkpt><trkpt lat="45.88852087237616" lon="11.540914458766034"><ele>1071.6666666666667</ele><time>2026-04-23T11:47:13.001Z</time></trkpt><trkpt lat="45.888729106785185" lon="11.540926316908495"><ele>1073.0</ele><time>2026-04-23T11:47:14.001Z</time></trkpt><trkpt lat="45.88895653394562" lon="11.540951377995622"><ele>1073.0</ele><time>2026-04-23T11:47:15.001Z</time></trkpt><trkpt lat="45.88918572739132" lon="11.540984748528924"><ele>1073.0</ele><time>2026-04-23T11:47:16.001Z</time></trkpt><trkpt lat="45.8893960234841" lon="11.541027959026007"><ele>1073.0</ele><time>2026-04-23T11:47:17.001Z</time></trkpt><trkpt lat="45.889613614180846" lon="11.54111059807367"><ele>1074.5</ele><time>2026-04-23T11:47:18.002Z</time></trkpt><trkpt lat="45.889833614303974" lon="11.541214903442198"><ele>1076.0</ele><time>2026-04-23T11:47:19.002Z</time></trkpt><trkpt lat="45.89005718600289" lon="11.541347391449447"><ele>1074.0</ele><time>2026-04-23T11:47:20.002Z</time></trkpt><trkpt lat="45.890277655029365" lon="11.541505749477533"><ele>1072.0</ele><time>2026-04-23T11:47:21.002Z</time></trkpt><trkpt lat="45.89050805415917" lon="11.54169652123822"><ele>1072.0</ele><time>2026-04-23T11:47:22.002Z</time></trkpt><trkpt lat="45.890745986014906" lon="11.541895678170649"><ele>1072.0</ele><time>2026-04-23T11:47:23.002Z</time></trkpt><trkpt lat="45.89096887871681" lon="11.542071457145976"><ele>1073.5</ele><time>2026-04-23T11:47:24.002Z</time></trkpt><trkpt lat="45.891193651321856" lon="11.5422538644493"><ele>1075.0</ele><time>2026-04-23T11:47:25.002Z</time></trkpt><trkpt lat="45.89140244708222" lon="11.542435106337258"><ele>1075.0</ele><time>2026-04-23T11:47:26.002Z</time></trkpt><trkpt lat="45.89158945560852" lon="11.542629785620226"><ele>1075.0</ele><time>2026-04-23T11:47:27.002Z</time></trkpt><trkpt lat="45.891772379209215" lon="11.54285022253149"><ele>1074.0</ele><time>2026-04-23T11:47:28.002Z</time></trkpt><trkpt lat="45.891939279956915" lon="11.543089647677142"><ele>1073.0</ele><time>2026-04-23T11:47:29.002Z</time></trkpt><trkpt lat="45.89209058844784" lon="11.543339571381694"><ele>1073.0</ele><time>2026-04-23T11:47:30.002Z</time></trkpt><trkpt lat="45.89221265551711" lon="11.543566622520657"><ele>1073.0</ele><time>2026-04-23T11:47:31.002Z</time></trkpt><trkpt lat="45.89230891593565" lon="11.54376720611793"><ele>1073.0</ele><time>2026-04-23T11:47:32.002Z</time></trkpt><trkpt lat="45.89238458436413" lon="11.543962633426244"><ele>1073.6666666666667</ele><time>2026-04-23T11:47:33.002Z</time></trkpt><trkpt lat="45.89244261837833" lon="11.544156669154216"><ele>1074.3333333333333</ele><time>2026-04-23T11:47:34.002Z</time></trkpt><trkpt lat="45.892504599804035" lon="11.544367234691013"><ele>1075.0</ele><time>2026-04-23T11:47:35.002Z</time></trkpt><trkpt lat="45.89253865308315" lon="11.544607968830014"><ele>1076.3333333333333</ele><time>2026-04-23T11:47:36.002Z</time></trkpt><trkpt lat="45.89260954182958" lon="11.544821669451293"><ele>1077.6666666666667</ele><time>2026-04-23T11:47:37.002Z</time></trkpt><trkpt lat="45.8927143863479" lon="11.545077995667869"><ele>1079.0</ele><time>2026-04-23T11:47:38.002Z</time></trkpt><trkpt lat="45.89281279357368" lon="11.545371273968605"><ele>1079.0</ele><time>2026-04-23T11:47:39.002Z</time></trkpt><trkpt lat="45.89289201276582" lon="11.545635739931601"><ele>1079.0</ele><time>2026-04-23T11:47:40.002Z</time></trkpt><trkpt lat="45.89294851684774" lon="11.545843619319376"><ele>1079.0</ele><time>2026-04-23T11:47:41.002Z</time></trkpt><trkpt lat="45.892986760225284" lon="11.546040117690662"><ele>1079.25</ele><time>2026-04-23T11:47:42.002Z</time></trkpt><trkpt lat="45.892994742644554" lon="11.546233120400318"><ele>1079.5</ele><time>2026-04-23T11:47:43.002Z</time></trkpt><trkpt lat="45.892966898472245" lon="11.546450477689229"><ele>1079.75</ele><time>2026-04-23T11:47:44.002Z</time></trkpt><trkpt lat="45.892913422122355" lon="11.546617586766502"><ele>1080.0</ele><time>2026-04-23T11:47:45.002Z</time></trkpt><trkpt lat="45.89285341582582" lon="11.546736396486"><ele>1080.0</ele><time>2026-04-23T11:47:46.002Z</time></trkpt><trkpt lat="45.89278338623622" lon="11.546851163795978"><ele>1080.0</ele><time>2026-04-23T11:47:47.002Z</time></trkpt><trkpt lat="45.892696368576495" lon="11.546992675774616"><ele>1080.0</ele><time>2026-04-23T11:47:48.002Z</time></trkpt><trkpt lat="45.89260946034562" lon="11.54714602301269"><ele>1080.0</ele><time>2026-04-23T11:47:49.002Z</time></trkpt><trkpt lat="45.89253732031206" lon="11.547356038526882"><ele>1082.0</ele><time>2026-04-23T11:47:50.002Z</time></trkpt><trkpt lat="45.89249087455675" lon="11.547573917776353"><ele>1084.0</ele><time>2026-04-23T11:47:51.002Z</time></trkpt><trkpt lat="45.89247807004472" lon="11.54782318146852"><ele>1086.0</ele><time>2026-04-23T11:47:52.002Z</time></trkpt><trkpt lat="45.89247036918011" lon="11.548112763786097"><ele>1086.0</ele><time>2026-04-23T11:47:53.002Z</time></trkpt><trkpt lat="45.892425972139634" lon="11.548445337229438"><ele>1086.0</ele><time>2026-04-23T11:47:54.002Z</time></trkpt><trkpt lat="45.89237656990621" lon="11.548794555419027"><ele>1086.0</ele><time>2026-04-23T11:47:55.002Z</time></trkpt><trkpt lat="45.89232783451415" lon="11.549159123683834"><ele>1086.0</ele><time>2026-04-23T11:47:56.002Z</time></trkpt><trkpt lat="45.89228254180984" lon="11.549556050871114"><ele>1088.0</ele><time>2026-04-23T11:47:57.002Z</time></trkpt><trkpt lat="45.89223143360811" lon="11.54996552397536"><ele>1090.0</ele><time>2026-04-23T11:47:58.002Z</time></trkpt><trkpt lat="45.892175630069616" lon="11.550398319414168"><ele>1093.0</ele><time>2026-04-23T11:47:59.002Z</time></trkpt><trkpt lat="45.89212108492617" lon="11.550821479194893"><ele>1096.0</ele><time>2026-04-23T11:48:00.002Z</time></trkpt><trkpt lat="45.89207060048864" lon="11.551195852385513"><ele>1096.6666666666665</ele><time>2026-04-23T11:48:01.002Z</time></trkpt><trkpt lat="45.89202665012928" lon="11.551536944386465"><ele>1097.3333333333333</ele><time>2026-04-23T11:48:02.003Z</time></trkpt><trkpt lat="45.89198759541789" lon="11.55182287098314"><ele>1098.0</ele><time>2026-04-23T11:48:03.003Z</time></trkpt><trkpt lat="45.891958204500135" lon="11.552049410735604"><ele>1098.6666666666667</ele><time>2026-04-23T11:48:04.003Z</time></trkpt><trkpt lat="45.891929980368026" lon="11.552273031334357"><ele>1099.3333333333335</ele><time>2026-04-23T11:48:05.003Z</time></trkpt><trkpt lat="45.89190067814714" lon="11.552514495324289"><ele>1100.0</ele><time>2026-04-23T11:48:06.003Z</time></trkpt><trkpt lat="45.89185081374265" lon="11.552787975473306"><ele>1101.0</ele><time>2026-04-23T11:48:07.003Z</time></trkpt><trkpt lat="45.89178146074955" lon="11.55309724814103"><ele>1102.0</ele><time>2026-04-23T11:48:08Z</time></trkpt><trkpt lat="45.89171085171669" lon="11.553410366652555"><ele>1098.5</ele><time>2026-04-23T11:48:09Z</time></trkpt><trkpt lat="45.891656023297145" lon="11.553721874656965"><ele>1095.0</ele><time>2026-04-23T11:48:10Z</time></trkpt><trkpt lat="45.89160695961005" lon="11.554075290572564"><ele>1095.0</ele><time>2026-04-23T11:48:11Z</time></trkpt><trkpt lat="45.89155575588394" lon="11.554462242600744"><ele>1095.0</ele><time>2026-04-23T11:48:12Z</time></trkpt><trkpt lat="45.89150484170451" lon="11.554880014960432"><ele>1095.0</ele><time>2026-04-23T11:48:13Z</time></trkpt><trkpt lat="45.89144779132405" lon="11.555260102398035"><ele>1095.0</ele><time>2026-04-23T11:48:14Z</time></trkpt><trkpt lat="45.891401472782896" lon="11.555589423767382"><ele>1096.6666666666667</ele><time>2026-04-23T11:48:15Z</time></trkpt><trkpt lat="45.89136365129305" lon="11.55587266914026"><ele>1098.3333333333335</ele><time>2026-04-23T11:48:16Z</time></trkpt><trkpt lat="45.891334367983376" lon="11.556106486631384"><ele>1100.0</ele><time>2026-04-23T11:48:17Z</time></trkpt><trkpt lat="45.891316955369604" lon="11.556298576778168"><ele>1100.25</ele><time>2026-04-23T11:48:18Z</time></trkpt><trkpt lat="45.89132071825822" lon="11.556474799477412"><ele>1100.5</ele><time>2026-04-23T11:48:19Z</time></trkpt><trkpt lat="45.89135695309493" lon="11.556632466709566"><ele>1100.75</ele><time>2026-04-23T11:48:20Z</time></trkpt><trkpt lat="45.891427478636686" lon="11.556788079305651"><ele>1101.0</ele><time>2026-04-23T11:48:21Z</time></trkpt><trkpt lat="45.89153972176967" lon="11.55695593731567"><ele>1103.0</ele><time>2026-04-23T11:48:22Z</time></trkpt><trkpt lat="45.891682191667066" lon="11.557132275479765"><ele>1105.0</ele><time>2026-04-23T11:48:23Z</time></trkpt><trkpt lat="45.89181066748729" lon="11.5572968764931"><ele>1107.0</ele><time>2026-04-23T11:48:24Z</time></trkpt><trkpt lat="45.89193689995029" lon="11.557469907981616"><ele>1107.0</ele><time>2026-04-23T11:48:25Z</time></trkpt><trkpt lat="45.892034956585206" lon="11.557607361674753"><ele>1107.0</ele><time>2026-04-23T11:48:26Z</time></trkpt><trkpt lat="45.892119228577606" lon="11.557741523145168"><ele>1107.0</ele><time>2026-04-23T11:48:27Z</time></trkpt><trkpt lat="45.89216004492846" lon="11.55788469932433"><ele>1107.0</ele><time>2026-04-23T11:48:28Z</time></trkpt><trkpt lat="45.89216749552528" lon="11.55804438877039"><ele>1104.75</ele><time>2026-04-23T11:48:29Z</time></trkpt><trkpt lat="45.89216591610628" lon="11.558233842522013"><ele>1102.5</ele><time>2026-04-23T11:48:30Z</time></trkpt><trkpt lat="45.892172223641026" lon="11.55841133649577"><ele>1100.25</ele><time>2026-04-23T11:48:31Z</time></trkpt><trkpt lat="45.892191348842616" lon="11.55855205875715"><ele>1098.0</ele><time>2026-04-23T11:48:32Z</time></trkpt><trkpt lat="45.89223985331509" lon="11.55868220381391"><ele>1099.75</ele><time>2026-04-23T11:48:33Z</time></trkpt><trkpt lat="45.89232092505129" lon="11.558805678566257"><ele>1101.5</ele><time>2026-04-23T11:48:34Z</time></trkpt><trkpt lat="45.89244319108646" lon="11.558925997994269"><ele>1103.25</ele><time>2026-04-23T11:48:35Z</time></trkpt><trkpt lat="45.89260173269285" lon="11.559057639613567"><ele>1105.0</ele><time>2026-04-23T11:48:36Z</time></trkpt><trkpt lat="45.89275396878824" lon="11.55918363553588"><ele>1105.0</ele><time>2026-04-23T11:48:37Z</time></trkpt><trkpt lat="45.892926513444465" lon="11.559344868819021"><ele>1105.0</ele><time>2026-04-23T11:48:38Z</time></trkpt><trkpt lat="45.89310289455272" lon="11.559531345006208"><ele>1105.0</ele><time>2026-04-23T11:48:39.001Z</time></trkpt><trkpt lat="45.893255983109476" lon="11.559707651485498"><ele>1108.0</ele><time>2026-04-23T11:48:40.001Z</time></trkpt><trkpt lat="45.89338671583335" lon="11.559886724505564"><ele>1111.0</ele><time>2026-04-23T11:48:41.001Z</time></trkpt><trkpt lat="45.89349647808019" lon="11.560083922365237"><ele>1114.0</ele><time>2026-04-23T11:48:42.001Z</time></trkpt><trkpt lat="45.89359614222702" lon="11.560319845038565"><ele>1107.3333333333333</ele><time>2026-04-23T11:48:43.001Z</time></trkpt><trkpt lat="45.89369759038191" lon="11.560611911416498"><ele>1100.6666666666667</ele><time>2026-04-23T11:48:44.001Z</time></trkpt><trkpt lat="45.89379250617342" lon="11.56087542240462"><ele>1094.0</ele><time>2026-04-23T11:48:45.001Z</time></trkpt><trkpt lat="45.89388290926896" lon="11.561109743098532"><ele>1087.6666666666667</ele><time>2026-04-23T11:48:46.001Z</time></trkpt><trkpt lat="45.89397640025451" lon="11.561312851448003"><ele>1081.3333333333333</ele><time>2026-04-23T11:48:47.001Z</time></trkpt><trkpt lat="45.89407698022252" lon="11.56147727747879"><ele>1075.0</ele><time>2026-04-23T11:48:48.001Z</time></trkpt><trkpt lat="45.894197487220104" lon="11.561614648380743"><ele>1076.3333333333333</ele><time>2026-04-23T11:48:49.001Z</time></trkpt><trkpt lat="45.89436312225033" lon="11.561743576239397"><ele>1077.6666666666667</ele><time>2026-04-23T11:48:50.001Z</time></trkpt><trkpt lat="45.89455208348158" lon="11.561893494424089"><ele>1079.0</ele><time>2026-04-23T11:48:51.001Z</time></trkpt><trkpt lat="45.894708377592316" lon="11.56203184159695"><ele>1079.0</ele><time>2026-04-23T11:48:52.001Z</time></trkpt><trkpt lat="45.89483967020371" lon="11.562144636136583"><ele>1079.0</ele><time>2026-04-23T11:48:53.001Z</time></trkpt><trkpt lat="45.894977537672226" lon="11.562211299903971"><ele>1079.0</ele><time>2026-04-23T11:48:54.001Z</time></trkpt><trkpt lat="45.89514923576708" lon="11.562244412938561"><ele>1078.3333333333335</ele><time>2026-04-23T11:48:55.001Z</time></trkpt><trkpt lat="45.89535102744522" lon="11.56224917135821"><ele>1077.6666666666667</ele><time>2026-04-23T11:48:56.001Z</time></trkpt><trkpt lat="45.895537748368156" lon="11.562250218773366"><ele>1077.0</ele><time>2026-04-23T11:48:57.001Z</time></trkpt><trkpt lat="45.89568274062802" lon="11.562247337034552"><ele>1077.0</ele><time>2026-04-23T11:48:58.001Z</time></trkpt><trkpt lat="45.89579559458542" lon="11.562229314562298"><ele>1077.0</ele><time>2026-04-23T11:48:59.001Z</time></trkpt><trkpt lat="45.895903294846896" lon="11.562178562365988"><ele>1077.0</ele><time>2026-04-23T11:49:00.001Z</time></trkpt><trkpt lat="45.896002664996296" lon="11.562085038030107"><ele>1077.0</ele><time>2026-04-23T11:49:01.001Z</time></trkpt><trkpt lat="45.89608838419611" lon="11.561934683601066"><ele>1077.75</ele><time>2026-04-23T11:49:02.001Z</time></trkpt><trkpt lat="45.89618690346006" lon="11.561766007642618"><ele>1078.5</ele><time>2026-04-23T11:49:03.001Z</time></trkpt><trkpt lat="45.89628667590496" lon="11.561594924598053"><ele>1079.25</ele><time>2026-04-23T11:49:04.001Z</time></trkpt><trkpt lat="45.89638165071769" lon="11.561463468660387"><ele>1080.0</ele><time>2026-04-23T11:49:05.001Z</time></trkpt><trkpt lat="45.896465515903685" lon="11.561362456000081"><ele>1080.0</ele><time>2026-04-23T11:49:06.001Z</time></trkpt><trkpt lat="45.89654349889863" lon="11.561283769380514"><ele>1080.0</ele><time>2026-04-23T11:49:07.001Z</time></trkpt><trkpt lat="45.89663132693856" lon="11.561249495884791"><ele>1080.0</ele><time>2026-04-23T11:49:08.001Z</time></trkpt><trkpt lat="45.896728731009084" lon="11.561223840716382"><ele>1080.0</ele><time>2026-04-23T11:49:09.001Z</time></trkpt><trkpt lat="45.8968318629446" lon="11.561281677440773"><ele>1080.0</ele><time>2026-04-23T11:49:10.001Z</time></trkpt><trkpt lat="45.89692403609377" lon="11.56139256365571"><ele>1086.0</ele><time>2026-04-23T11:49:11.001Z</time></trkpt><trkpt lat="45.89701637893561" lon="11.56155194158137"><ele>1092.0</ele><time>2026-04-23T11:49:12.001Z</time></trkpt><trkpt lat="45.89712537960219" lon="11.561747724913419"><ele>1098.0</ele><time>2026-04-23T11:49:13.001Z</time></trkpt><trkpt lat="45.89722632255259" lon="11.561921420583683"><ele>1098.3333333333333</ele><time>2026-04-23T11:49:14.001Z</time></trkpt><trkpt lat="45.897331992385226" lon="11.56209385313508"><ele>1098.6666666666665</ele><time>2026-04-23T11:49:15.001Z</time></trkpt><trkpt lat="45.897466633920544" lon="11.562251666570635"><ele>1099.0</ele><time>2026-04-23T11:49:16.001Z</time></trkpt><trkpt lat="45.897635364487236" lon="11.562397093877307"><ele>1099.0</ele><time>2026-04-23T11:49:17.001Z</time></trkpt><trkpt lat="45.89782879656056" lon="11.562548224690461"><ele>1099.0</ele><time>2026-04-23T11:49:18.001Z</time></trkpt><trkpt lat="45.897996821998234" lon="11.562715555769815"><ele>1099.0</ele><time>2026-04-23T11:49:19.001Z</time></trkpt><trkpt lat="45.898147405407855" lon="11.562877095660253"><ele>1101.3333333333333</ele><time>2026-04-23T11:49:20.001Z</time></trkpt><trkpt lat="45.89828376608566" lon="11.563038018532408"><ele>1103.6666666666667</ele><time>2026-04-23T11:49:21.001Z</time></trkpt><trkpt lat="45.89840562368686" lon="11.563213003461508"><ele>1106.0</ele><time>2026-04-23T11:49:22.001Z</time></trkpt><trkpt lat="45.89851194991217" lon="11.563424196230624"><ele>1106.0</ele><time>2026-04-23T11:49:23.001Z</time></trkpt><trkpt lat="45.89860890355948" lon="11.563670091031268"><ele>1106.0</ele><time>2026-04-23T11:49:24.001Z</time></trkpt><trkpt lat="45.89871828715055" lon="11.563919782603655"><ele>1106.0</ele><time>2026-04-23T11:49:25.002Z</time></trkpt><trkpt lat="45.89883952147521" lon="11.564119576745066"><ele>1102.5</ele><time>2026-04-23T11:49:26.002Z</time></trkpt><trkpt lat="45.898935160471055" lon="11.564268627521432"><ele>1099.0</ele><time>2026-04-23T11:49:27.002Z</time></trkpt><trkpt lat="45.89900368568661" lon="11.564400678192872"><ele>1095.5</ele><time>2026-04-23T11:49:28.002Z</time></trkpt><trkpt lat="45.89904528512476" lon="11.564547842900934"><ele>1092.0</ele><time>2026-04-23T11:49:29.002Z</time></trkpt><trkpt lat="45.899057440787224" lon="11.564713008394406"><ele>1091.0</ele><time>2026-04-23T11:49:30.002Z</time></trkpt><trkpt lat="45.89903748427457" lon="11.564883430388848"><ele>1090.0</ele><time>2026-04-23T11:49:31.002Z</time></trkpt><trkpt lat="45.8989834554444" lon="11.565034267942162"><ele>1089.0</ele><time>2026-04-23T11:49:32.002Z</time></trkpt><trkpt lat="45.898892359241394" lon="11.565146860120963"><ele>1088.0</ele><time>2026-04-23T11:49:33.002Z</time></trkpt><trkpt lat="45.89876443212488" lon="11.565203458787678"><ele>1088.0</ele><time>2026-04-23T11:49:34.002Z</time></trkpt><trkpt lat="45.898614468784054" lon="11.565299366532518"><ele>1088.0</ele><time>2026-04-23T11:49:35.002Z</time></trkpt><trkpt lat="45.89843364230746" lon="11.565375055625795"><ele>1088.0</ele><time>2026-04-23T11:49:36.002Z</time></trkpt><trkpt lat="45.89826879587309" lon="11.565430778724382"><ele>1088.0</ele><time>2026-04-23T11:49:37.002Z</time></trkpt><trkpt lat="45.89809521336588" lon="11.565458457145843"><ele>1088.0</ele><time>2026-04-23T11:49:38.002Z</time></trkpt><trkpt lat="45.897945449461254" lon="11.565483827047304"><ele>1088.0</ele><time>2026-04-23T11:49:39.002Z</time></trkpt><trkpt lat="45.897795694120454" lon="11.565549498218319"><ele>1088.0</ele><time>2026-04-23T11:49:40.002Z</time></trkpt><trkpt lat="45.897634040147814" lon="11.565667231935256"><ele>1088.0</ele><time>2026-04-23T11:49:41.002Z</time></trkpt><trkpt lat="45.897496357451374" lon="11.565792701083518"><ele>1088.0</ele><time>2026-04-23T11:49:42.002Z</time></trkpt><trkpt lat="45.89739662077825" lon="11.565882851430827"><ele>1082.8</ele><time>2026-04-23T11:49:43.002Z</time></trkpt><trkpt lat="45.89732125282307" lon="11.565976290172586"><ele>1077.6</ele><time>2026-04-23T11:49:44.002Z</time></trkpt><trkpt lat="45.89728684143806" lon="11.566112153791043"><ele>1072.4</ele><time>2026-04-23T11:49:45.002Z</time></trkpt><trkpt lat="45.89728624182996" lon="11.566260734791163"><ele>1067.2</ele><time>2026-04-23T11:49:46.002Z</time></trkpt><trkpt lat="45.89732786767005" lon="11.566401615368383"><ele>1062.0</ele><time>2026-04-23T11:49:47.002Z</time></trkpt><trkpt lat="45.89740244601321" lon="11.566532505387213"><ele>1062.0</ele><time>2026-04-23T11:49:48.002Z</time></trkpt><trkpt lat="45.89751090037393" lon="11.566655381184193"><ele>1062.0</ele><time>2026-04-23T11:49:49.002Z</time></trkpt><trkpt lat="45.89760060102241" lon="11.56675247746366"><ele>1062.0</ele><time>2026-04-23T11:49:50.002Z</time></trkpt><trkpt lat="45.897656655842795" lon="11.566843009574782"><ele>1062.0</ele><time>2026-04-23T11:49:51.002Z</time></trkpt><trkpt lat="45.89767637121816" lon="11.566955795197575"><ele>1062.0</ele><time>2026-04-23T11:49:52.002Z</time></trkpt><trkpt lat="45.89766342043837" lon="11.567070051256474"><ele>1067.5</ele><time>2026-04-23T11:49:53.002Z</time></trkpt><trkpt lat="45.89760918550925" lon="11.56716820941357"><ele>1073.0</ele><time>2026-04-23T11:49:54.002Z</time></trkpt><trkpt lat="45.89752502050817" lon="11.567235664894197"><ele>1078.5</ele><time>2026-04-23T11:49:55.002Z</time></trkpt><trkpt lat="45.89739983402188" lon="11.567248304649452"><ele>1084.0</ele><time>2026-04-23T11:49:56.002Z</time></trkpt><trkpt lat="45.897251734569274" lon="11.567299805585428"><ele>1084.0</ele><time>2026-04-23T11:49:57.002Z</time></trkpt><trkpt lat="45.89707975381302" lon="11.567380572552876"><ele>1084.0</ele><time>2026-04-23T11:49:58.002Z</time></trkpt><trkpt lat="45.89691901354866" lon="11.567405443002444"><ele>1084.0</ele><time>2026-04-23T11:49:59.002Z</time></trkpt><trkpt lat="45.896757147076116" lon="11.567433118060746"><ele>1079.3333333333333</ele><time>2026-04-23T11:50:00.002Z</time></trkpt><trkpt lat="45.896597483340955" lon="11.567407143343578"><ele>1074.6666666666667</ele><time>2026-04-23T11:50:01.002Z</time></trkpt><trkpt lat="45.89644568268458" lon="11.567351017558023"><ele>1070.0</ele><time>2026-04-23T11:50:02.002Z</time></trkpt><trkpt lat="45.89630621962536" lon="11.567304692216041"><ele>1070.0</ele><time>2026-04-23T11:50:03.002Z</time></trkpt><trkpt lat="45.89617418372448" lon="11.567347052603498"><ele>1070.0</ele><time>2026-04-23T11:50:04.002Z</time></trkpt><trkpt lat="45.896011898526936" lon="11.567412131246478"><ele>1070.0</ele><time>2026-04-23T11:50:05.002Z</time></trkpt><trkpt lat="45.895820890952415" lon="11.56751040784538"><ele>1067.6666666666667</ele><time>2026-04-23T11:50:06.002Z</time></trkpt><trkpt lat="45.89564481620642" lon="11.567609702095595"><ele>1065.3333333333333</ele><time>2026-04-23T11:50:07.002Z</time></trkpt><trkpt lat="45.89550981865084" lon="11.567683642153748"><ele>1063.0</ele><time>2026-04-23T11:50:08.002Z</time></trkpt><trkpt lat="45.895382300769285" lon="11.5677240546573"><ele>1063.0</ele><time>2026-04-23T11:50:09.002Z</time></trkpt><trkpt lat="45.89525121201018" lon="11.567737583310672"><ele>1063.0</ele><time>2026-04-23T11:50:10.003Z</time></trkpt><trkpt lat="45.89511228793189" lon="11.56770306560674"><ele>1063.0</ele><time>2026-04-23T11:50:11.003Z</time></trkpt><trkpt lat="45.89498123571562" lon="11.567586534968848"><ele>1063.0</ele><time>2026-04-23T11:50:12.003Z</time></trkpt><trkpt lat="45.89482968274356" lon="11.56746822899085"><ele>1064.3333333333333</ele><time>2026-04-23T11:50:13.003Z</time></trkpt><trkpt lat="45.89468500447036" lon="11.56738367970103"><ele>1065.6666666666667</ele><time>2026-04-23T11:50:14Z</time></trkpt><trkpt lat="45.89455322182319" lon="11.567269065241954"><ele>1067.0</ele><time>2026-04-23T11:50:15Z</time></trkpt><trkpt lat="45.89440458593312" lon="11.567211357408402"><ele>1068.3333333333335</ele><time>2026-04-23T11:50:16Z</time></trkpt><trkpt lat="45.89423152400091" lon="11.567215202776168"><ele>1069.6666666666667</ele><time>2026-04-23T11:50:17Z</time></trkpt><trkpt lat="45.894038928011575" lon="11.567231743968774"><ele>1071.0</ele><time>2026-04-23T11:50:18Z</time></trkpt><trkpt lat="45.89388445887245" lon="11.567253769186681"><ele>1071.0</ele><time>2026-04-23T11:50:19Z</time></trkpt><trkpt lat="45.8937516230678" lon="11.567306407073701"><ele>1071.0</ele><time>2026-04-23T11:50:20Z</time></trkpt><trkpt lat="45.89361785523017" lon="11.56739780297374"><ele>1071.0</ele><time>2026-04-23T11:50:21Z</time></trkpt><trkpt lat="45.89349476027915" lon="11.567539568614858"><ele>1071.0</ele><time>2026-04-23T11:50:22Z</time></trkpt><trkpt lat="45.893403754194836" lon="11.567740536775677"><ele>1063.3333333333333</ele><time>2026-04-23T11:50:23Z</time></trkpt><trkpt lat="45.893332043328556" lon="11.567980177248556"><ele>1055.6666666666665</ele><time>2026-04-23T11:50:24Z</time></trkpt><trkpt lat="45.89321843495778" lon="11.568253969464847"><ele>1048.0</ele><time>2026-04-23T11:50:25Z</time></trkpt><trkpt lat="45.893109290506864" lon="11.568535029999543"><ele>1052.0</ele><time>2026-04-23T11:50:26Z</time></trkpt><trkpt lat="45.89299257826845" lon="11.568791480215502"><ele>1056.0</ele><time>2026-04-23T11:50:27Z</time></trkpt><trkpt lat="45.89289113421111" lon="11.569054284104471"><ele>1060.0</ele><time>2026-04-23T11:50:28Z</time></trkpt><trkpt lat="45.89279238958519" lon="11.56929770941673"><ele>1063.6666666666665</ele><time>2026-04-23T11:50:29Z</time></trkpt><trkpt lat="45.89270682868461" lon="11.569564236719259"><ele>1067.3333333333333</ele><time>2026-04-23T11:50:30Z</time></trkpt><trkpt lat="45.8926276144945" lon="11.56984852570935"><ele>1071.0</ele><time>2026-04-23T11:50:31Z</time></trkpt><trkpt lat="45.892559803382845" lon="11.570129300352843"><ele>1062.0</ele><time>2026-04-23T11:50:32Z</time></trkpt><trkpt lat="45.89250874021256" lon="11.570398632388216"><ele>1053.0</ele><time>2026-04-23T11:50:33Z</time></trkpt><trkpt lat="45.89248688414529" lon="11.57064238468257"><ele>1044.0</ele><time>2026-04-23T11:50:34Z</time></trkpt><trkpt lat="45.892488412959786" lon="11.570876379008082"><ele>1044.0</ele><time>2026-04-23T11:50:35Z</time></trkpt><trkpt lat="45.89251660274117" lon="11.571116417179788"><ele>1044.0</ele><time>2026-04-23T11:50:36Z</time></trkpt><trkpt lat="45.892559595109645" lon="11.571371795787595"><ele>1044.0</ele><time>2026-04-23T11:50:37Z</time></trkpt><trkpt lat="45.89260280608194" lon="11.57156248591537"><ele>1053.25</ele><time>2026-04-23T11:50:38Z</time></trkpt><trkpt lat="45.89264116034305" lon="11.571717655912016"><ele>1062.5</ele><time>2026-04-23T11:50:39Z</time></trkpt><trkpt lat="45.89266211218216" lon="11.57187362331901"><ele>1071.75</ele><time>2026-04-23T11:50:40Z</time></trkpt><trkpt lat="45.892653134827135" lon="11.572043606577866"><ele>1081.0</ele><time>2026-04-23T11:50:41Z</time></trkpt><trkpt lat="45.89261640454361" lon="11.572217532023886"><ele>1075.25</ele><time>2026-04-23T11:50:42Z</time></trkpt><trkpt lat="45.89253792988378" lon="11.572366198746327"><ele>1069.5</ele><time>2026-04-23T11:50:43Z</time></trkpt><trkpt lat="45.89243713410874" lon="11.572524588543615"><ele>1063.75</ele><time>2026-04-23T11:50:44Z</time></trkpt><trkpt lat="45.89233966580788" lon="11.57270450126828"><ele>1058.0</ele><time>2026-04-23T11:50:45Z</time></trkpt><trkpt lat="45.89225139031075" lon="11.572881006145288"><ele>1058.0</ele><time>2026-04-23T11:50:46Z</time></trkpt><trkpt lat="45.89217662084208" lon="11.57311788100203"><ele>1058.0</ele><time>2026-04-23T11:50:47Z</time></trkpt><trkpt lat="45.89211103538327" lon="11.573373373035656"><ele>1058.0</ele><time>2026-04-23T11:50:48Z</time></trkpt><trkpt lat="45.89206618865674" lon="11.573550227768896"><ele>1058.25</ele><time>2026-04-23T11:50:49.001Z</time></trkpt><trkpt lat="45.8920402512248" lon="11.573704391936026"><ele>1058.5</ele><time>2026-04-23T11:50:50.001Z</time></trkpt><trkpt lat="45.89204507807569" lon="11.573863944234247"><ele>1058.75</ele><time>2026-04-23T11:50:51.001Z</time></trkpt><trkpt lat="45.89208310323923" lon="11.574046608127817"><ele>1059.0</ele><time>2026-04-23T11:50:52.001Z</time></trkpt><trkpt lat="45.89215058412142" lon="11.574260935796659"><ele>1059.0</ele><time>2026-04-23T11:50:53.001Z</time></trkpt><trkpt lat="45.892225948528036" lon="11.574454571589595"><ele>1059.0</ele><time>2026-04-23T11:50:54.001Z</time></trkpt><trkpt lat="45.89229697799231" lon="11.574666382596131"><ele>1059.0</ele><time>2026-04-23T11:50:55.001Z</time></trkpt><trkpt lat="45.892334841546656" lon="11.574875096571212"><ele>1059.0</ele><time>2026-04-23T11:50:56.001Z</time></trkpt><trkpt lat="45.89233681197883" lon="11.575070904307205"><ele>1059.0</ele><time>2026-04-23T11:50:57.001Z</time></trkpt><trkpt lat="45.89230325537589" lon="11.575283163044253"><ele>1059.0</ele><time>2026-04-23T11:50:58.001Z</time></trkpt><trkpt lat="45.892239442088105" lon="11.575524370284178"><ele>1059.0</ele><time>2026-04-23T11:50:59.001Z</time></trkpt><trkpt lat="45.892173052323244" lon="11.57576013787775"><ele>1059.0</ele><time>2026-04-23T11:51:00.001Z</time></trkpt><trkpt lat="45.89214693471351" lon="11.575954058850993"><ele>1059.0</ele><time>2026-04-23T11:51:01.001Z</time></trkpt><trkpt lat="45.892151098680394" lon="11.5761379775961"><ele>1059.0</ele><time>2026-04-23T11:51:02.001Z</time></trkpt><trkpt lat="45.89218601314196" lon="11.576311329342083"><ele>1056.6666666666667</ele><time>2026-04-23T11:51:03.001Z</time></trkpt><trkpt lat="45.89226201204063" lon="11.576478663616589"><ele>1054.3333333333335</ele><time>2026-04-23T11:51:04.001Z</time></trkpt><trkpt lat="45.89237291868079" lon="11.576650943822289"><ele>1052.0</ele><time>2026-04-23T11:51:05.001Z</time></trkpt><trkpt lat="45.892477230989606" lon="11.576802189598858"><ele>1052.0</ele><time>2026-04-23T11:51:06.001Z</time></trkpt><trkpt lat="45.892539912177135" lon="11.57695406340789"><ele>1052.0</ele><time>2026-04-23T11:51:07.001Z</time></trkpt><trkpt lat="45.89257461050192" lon="11.577140747737126"><ele>1052.0</ele><time>2026-04-23T11:51:08.001Z</time></trkpt><trkpt lat="45.89260005968037" lon="11.577394644188354"><ele>1052.0</ele><time>2026-04-23T11:51:09.001Z</time></trkpt><trkpt lat="45.89262313843543" lon="11.577625512880337"><ele>1054.0</ele><time>2026-04-23T11:51:10.001Z</time></trkpt><trkpt lat="45.89264292647933" lon="11.577788944640519"><ele>1056.0</ele><time>2026-04-23T11:51:11.001Z</time></trkpt><trkpt lat="45.89264213793913" lon="11.577936237182657"><ele>1058.0</ele><time>2026-04-23T11:51:12.001Z</time></trkpt><trkpt lat="45.89261198238997" lon="11.578066744679704"><ele>1060.0</ele><time>2026-04-23T11:51:13.001Z</time></trkpt><trkpt lat="45.89255096960533" lon="11.578162331143567"><ele>1062.0</ele><time>2026-04-23T11:51:14.001Z</time></trkpt><trkpt lat="45.892458984819854" lon="11.578224290634516"><ele>1062.0</ele><time>2026-04-23T11:51:15.001Z</time></trkpt><trkpt lat="45.89233127994925" lon="11.578267867795278"><ele>1062.0</ele><time>2026-04-23T11:51:16.001Z</time></trkpt><trkpt lat="45.89218675654168" lon="11.578307825013496"><ele>1062.0</ele><time>2026-04-23T11:51:17.001Z</time></trkpt><trkpt lat="45.89207378868182" lon="11.57836105228793"><ele>1062.0</ele><time>2026-04-23T11:51:18.001Z</time></trkpt><trkpt lat="45.8919832149818" lon="11.578442539633802"><ele>1062.0</ele><time>2026-04-23T11:51:19.001Z</time></trkpt><trkpt lat="45.89192981984831" lon="11.578570644588916"><ele>1062.0</ele><time>2026-04-23T11:51:20.001Z</time></trkpt><trkpt lat="45.89188183897777" lon="11.578764526706967"><ele>1062.0</ele><time>2026-04-23T11:51:21.001Z</time></trkpt><trkpt lat="45.891850808474544" lon="11.579004037169168"><ele>1062.0</ele><time>2026-04-23T11:51:22.001Z</time></trkpt><trkpt lat="45.89181767059308" lon="11.57921366431972"><ele>1057.0</ele><time>2026-04-23T11:51:23.001Z</time></trkpt><trkpt lat="45.89175082212562" lon="11.579422545983702"><ele>1052.0</ele><time>2026-04-23T11:51:24.001Z</time></trkpt><trkpt lat="45.89165914053824" lon="11.579592605658743"><ele>1047.0</ele><time>2026-04-23T11:51:25.001Z</time></trkpt><trkpt lat="45.891578435738566" lon="11.579716133031962"><ele>1042.0</ele><time>2026-04-23T11:51:26.001Z</time></trkpt><trkpt lat="45.89153043835032" lon="11.579845787024391"><ele>1042.0</ele><time>2026-04-23T11:51:27.001Z</time></trkpt><trkpt lat="45.89151447519633" lon="11.57997926132825"><ele>1042.0</ele><time>2026-04-23T11:51:28.001Z</time></trkpt><trkpt lat="45.89151748624838" lon="11.580124007988331"><ele>1042.0</ele><time>2026-04-23T11:51:29.001Z</time></trkpt><trkpt lat="45.89156028864787" lon="11.58026602504106"><ele>1042.0</ele><time>2026-04-23T11:51:30.001Z</time></trkpt><trkpt lat="45.89163069497811" lon="11.580406246565063"><ele>1042.0</ele><time>2026-04-23T11:51:31.001Z</time></trkpt><trkpt lat="45.89171783513979" lon="11.580569115640428"><ele>1046.3333333333333</ele><time>2026-04-23T11:51:32.001Z</time></trkpt><trkpt lat="45.891813835262234" lon="11.580777423129692"><ele>1050.6666666666667</ele><time>2026-04-23T11:51:33.002Z</time></trkpt><trkpt lat="45.89189749717279" lon="11.581000356204502"><ele>1055.0</ele><time>2026-04-23T11:51:34.002Z</time></trkpt><trkpt lat="45.89198924274408" lon="11.581285222180847"><ele>1055.0</ele><time>2026-04-23T11:51:35.002Z</time></trkpt><trkpt lat="45.89208096027006" lon="11.581594225826542"><ele>1055.0</ele><time>2026-04-23T11:51:36.002Z</time></trkpt><trkpt lat="45.89218245791996" lon="11.581913697440967"><ele>1048.5</ele><time>2026-04-23T11:51:37.002Z</time></trkpt><trkpt lat="45.89230253567444" lon="11.582272921115877"><ele>1042.0</ele><time>2026-04-23T11:51:38.002Z</time></trkpt><trkpt lat="45.892409360780604" lon="11.582606771547722"><ele>1043.0</ele><time>2026-04-23T11:51:39.002Z</time></trkpt><trkpt lat="45.892501449081394" lon="11.582896406935681"><ele>1044.0</ele><time>2026-04-23T11:51:40.002Z</time></trkpt><trkpt lat="45.89257196839263" lon="11.583132183336435"><ele>1045.0</ele><time>2026-04-23T11:51:41.002Z</time></trkpt><trkpt lat="45.89263005706492" lon="11.583321937228037"><ele>1045.0</ele><time>2026-04-23T11:51:42.002Z</time></trkpt><trkpt lat="45.892688631061425" lon="11.58349401482631"><ele>1045.0</ele><time>2026-04-23T11:51:43.002Z</time></trkpt><trkpt lat="45.892773048629564" lon="11.583616291064986"><ele>1045.0</ele><time>2026-04-23T11:51:44.002Z</time></trkpt><trkpt lat="45.892877947383894" lon="11.583697120334506"><ele>1045.0</ele><time>2026-04-23T11:51:45.002Z</time></trkpt><trkpt lat="45.89300180445342" lon="11.58374230962278"><ele>1041.75</ele><time>2026-04-23T11:51:46.002Z</time></trkpt><trkpt lat="45.89315950776607" lon="11.583776655868657"><ele>1038.5</ele><time>2026-04-23T11:51:47.002Z</time></trkpt><trkpt lat="45.89330145162491" lon="11.583813892687008"><ele>1035.25</ele><time>2026-04-23T11:51:48.002Z</time></trkpt><trkpt lat="45.89342629016329" lon="11.583876500159144"><ele>1032.0</ele><time>2026-04-23T11:51:49.002Z</time></trkpt><trkpt lat="45.893525389323685" lon="11.583985465176795"><ele>1038.75</ele><time>2026-04-23T11:51:50.002Z</time></trkpt><trkpt lat="45.893596406980116" lon="11.58412259638788"><ele>1045.5</ele><time>2026-04-23T11:51:51.002Z</time></trkpt><trkpt lat="45.893641894874435" lon="11.584288844327045"><ele>1052.25</ele><time>2026-04-23T11:51:52.002Z</time></trkpt><trkpt lat="45.89367093656878" lon="11.584485679511323"><ele>1059.0</ele><time>2026-04-23T11:51:53.002Z</time></trkpt><trkpt lat="45.89370264224411" lon="11.58474480528133"><ele>1059.0</ele><time>2026-04-23T11:51:54.002Z</time></trkpt><trkpt lat="45.893745247048585" lon="11.585040212149302"><ele>1059.0</ele><time>2026-04-23T11:51:55.002Z</time></trkpt><trkpt lat="45.89378522374637" lon="11.585317499455144"><ele>1059.0</ele><time>2026-04-23T11:51:56.002Z</time></trkpt><trkpt lat="45.893825962288915" lon="11.585616151721899"><ele>1055.0</ele><time>2026-04-23T11:51:57.002Z</time></trkpt><trkpt lat="45.893863595782506" lon="11.585892962310652"><ele>1051.0</ele><time>2026-04-23T11:51:58.002Z</time></trkpt><trkpt lat="45.89390110646298" lon="11.586152349169929"><ele>1047.0</ele><time>2026-04-23T11:51:59.002Z</time></trkpt><trkpt lat="45.893953822276465" lon="11.586404919517232"><ele>1042.0</ele><time>2026-04-23T11:52:00.002Z</time></trkpt><trkpt lat="45.89402283283917" lon="11.586664893937487"><ele>1037.0</ele><time>2026-04-23T11:52:01.002Z</time></trkpt><trkpt lat="45.89411412758216" lon="11.586915589544471"><ele>1032.0</ele><time>2026-04-23T11:52:02.002Z</time></trkpt><trkpt lat="45.894234498696385" lon="11.587160183651667"><ele>1036.0</ele><time>2026-04-23T11:52:03.002Z</time></trkpt><trkpt lat="45.894356338285974" lon="11.587377883486543"><ele>1040.0</ele><time>2026-04-23T11:52:04.002Z</time></trkpt><trkpt lat="45.89445882121046" lon="11.587567542489534"><ele>1044.0</ele><time>2026-04-23T11:52:05.002Z</time></trkpt><trkpt lat="45.894543396784414" lon="11.587764028774908"><ele>1041.3333333333333</ele><time>2026-04-23T11:52:06.002Z</time></trkpt><trkpt lat="45.89460493917512" lon="11.587995107897266"><ele>1038.6666666666665</ele><time>2026-04-23T11:52:07.002Z</time></trkpt><trkpt lat="45.89465549706877" lon="11.588277778220887"><ele>1036.0</ele><time>2026-04-23T11:52:08.002Z</time></trkpt><trkpt lat="45.894692048408466" lon="11.588545672883471"><ele>1036.6666666666665</ele><time>2026-04-23T11:52:09.002Z</time></trkpt><trkpt lat="45.89471217460021" lon="11.588789225690402"><ele>1037.3333333333333</ele><time>2026-04-23T11:52:10.002Z</time></trkpt><trkpt lat="45.89470430174097" lon="11.589036075236876"><ele>1038.0</ele><time>2026-04-23T11:52:11.002Z</time></trkpt><trkpt lat="45.894674639154616" lon="11.589329188568463"><ele>1038.3333333333333</ele><time>2026-04-23T11:52:12.002Z</time></trkpt><trkpt lat="45.89464361169372" lon="11.589629597748376"><ele>1038.6666666666665</ele><time>2026-04-23T11:52:13.002Z</time></trkpt><trkpt lat="45.894637903527126" lon="11.589969796737087"><ele>1039.0</ele><time>2026-04-23T11:52:14.002Z</time></trkpt><trkpt lat="45.894640533202804" lon="11.590350755515518"><ele>1039.0</ele><time>2026-04-23T11:52:15.002Z</time></trkpt><trkpt lat="45.894643398839925" lon="11.590752022303775"><ele>1039.0</ele><time>2026-04-23T11:52:16.002Z</time></trkpt><trkpt lat="45.894644089960885" lon="11.59114409816138"><ele>1037.0</ele><time>2026-04-23T11:52:17.002Z</time></trkpt><trkpt lat="45.89465337254236" lon="11.591547335835482"><ele>1035.0</ele><time>2026-04-23T11:52:18.003Z</time></trkpt><trkpt lat="45.894653178111994" lon="11.591868415930879"><ele>1034.3333333333333</ele><time>2026-04-23T11:52:19.003Z</time></trkpt><trkpt lat="45.89466133588043" lon="11.59212054373402"><ele>1033.6666666666665</ele><time>2026-04-23T11:52:20Z</time></trkpt><trkpt lat="45.89467376271814" lon="11.592351156169109"><ele>1033.0</ele><time>2026-04-23T11:52:21Z</time></trkpt><trkpt lat="45.894700841217315" lon="11.592575067074165"><ele>1033.0</ele><time>2026-04-23T11:52:22Z</time></trkpt><trkpt lat="45.89474657831516" lon="11.592822037655827"><ele>1033.0</ele><time>2026-04-23T11:52:23Z</time></trkpt><trkpt lat="45.89482559315402" lon="11.593092313082598"><ele>1033.0</ele><time>2026-04-23T11:52:24Z</time></trkpt><trkpt lat="45.89491545735748" lon="11.593365072232368"><ele>1029.6666666666665</ele><time>2026-04-23T11:52:25Z</time></trkpt><trkpt lat="45.894978564399594" lon="11.59358473347339"><ele>1026.3333333333333</ele><time>2026-04-23T11:52:26Z</time></trkpt><trkpt lat="45.89502453051836" lon="11.593797972806247"><ele>1023.0</ele><time>2026-04-23T11:52:27Z</time></trkpt><trkpt lat="45.89504326439244" lon="11.594006060716094"><ele>1021.0</ele><time>2026-04-23T11:52:28Z</time></trkpt><trkpt lat="45.89503586087995" lon="11.59421742592393"><ele>1019.0</ele><time>2026-04-23T11:52:29Z</time></trkpt><trkpt lat="45.89500251740231" lon="11.594459755599669"><ele>1017.0</ele><time>2026-04-23T11:52:30Z</time></trkpt><trkpt lat="45.89497170269951" lon="11.594719682482786"><ele>1016.6666666666667</ele><time>2026-04-23T11:52:31Z</time></trkpt><trkpt lat="45.894967930598796" lon="11.59494784173354"><ele>1016.3333333333334</ele><time>2026-04-23T11:52:32Z</time></trkpt><trkpt lat="45.894996830114145" lon="11.595186077527872"><ele>1016.0</ele><time>2026-04-23T11:52:33Z</time></trkpt><trkpt lat="45.89505374978817" lon="11.59544411053468"><ele>1023.0</ele><time>2026-04-23T11:52:34Z</time></trkpt><trkpt lat="45.89513599289349" lon="11.595733711028434"><ele>1030.0</ele><time>2026-04-23T11:52:35Z</time></trkpt><trkpt lat="45.895232200993966" lon="11.596029317909556"><ele>1037.0</ele><time>2026-04-23T11:52:36Z</time></trkpt><trkpt lat="45.89531461634639" lon="11.596264782651131"><ele>1037.0</ele><time>2026-04-23T11:52:37Z</time></trkpt><trkpt lat="45.89537705893221" lon="11.596511970963306"><ele>1037.0</ele><time>2026-04-23T11:52:38Z</time></trkpt><trkpt lat="45.89542145976794" lon="11.596780679317598"><ele>1037.0</ele><time>2026-04-23T11:52:39Z</time></trkpt><trkpt lat="45.895436842956286" lon="11.597057327122823"><ele>1034.5</ele><time>2026-04-23T11:52:40Z</time></trkpt><trkpt lat="45.89544157175663" lon="11.597387071716458"><ele>1032.0</ele><time>2026-04-23T11:52:41Z</time></trkpt><trkpt lat="45.89544144838916" lon="11.59770606145145"><ele>1033.5</ele><time>2026-04-23T11:52:42Z</time></trkpt><trkpt lat="45.895440309316236" lon="11.598067403853102"><ele>1035.0</ele><time>2026-04-23T11:52:43Z</time></trkpt><trkpt lat="45.89542685869013" lon="11.598393125610599"><ele>1035.3333333333333</ele><time>2026-04-23T11:52:44Z</time></trkpt><trkpt lat="45.89539675001754" lon="11.598684826912327"><ele>1035.6666666666665</ele><time>2026-04-23T11:52:45Z</time></trkpt><trkpt lat="45.895358168884286" lon="11.598969399643613"><ele>1036.0</ele><time>2026-04-23T11:52:46Z</time></trkpt><trkpt lat="45.89530386325008" lon="11.599285568237294"><ele>1035.0</ele><time>2026-04-23T11:52:47Z</time></trkpt><trkpt lat="45.895238267125904" lon="11.59959943482482"><ele>1034.0</ele><time>2026-04-23T11:52:48Z</time></trkpt><trkpt lat="45.89517212547661" lon="11.599861962297407"><ele>1033.0</ele><time>2026-04-23T11:52:49.001Z</time></trkpt><trkpt lat="45.895120185877964" lon="11.600074636597235"><ele>1021.75</ele><time>2026-04-23T11:52:50.001Z</time></trkpt><trkpt lat="45.89507671298849" lon="11.60024538581133"><ele>1010.5</ele><time>2026-04-23T11:52:51.001Z</time></trkpt><trkpt lat="45.895046885395224" lon="11.600401717454979"><ele>999.25</ele><time>2026-04-23T11:52:52.001Z</time></trkpt><trkpt lat="45.895047100078536" lon="11.60055969696013"><ele>988.0</ele><time>2026-04-23T11:52:53.001Z</time></trkpt><trkpt lat="45.89508606275407" lon="11.600711364971191"><ele>993.75</ele><time>2026-04-23T11:52:54.001Z</time></trkpt><trkpt lat="45.895162385532664" lon="11.600839769222793"><ele>999.5</ele><time>2026-04-23T11:52:55.001Z</time></trkpt><trkpt lat="45.89527246004599" lon="11.60091845696064"><ele>1005.25</ele><time>2026-04-23T11:52:56.001Z</time></trkpt><trkpt lat="45.89541075172621" lon="11.600960896265178"><ele>1011.0</ele><time>2026-04-23T11:52:57.001Z</time></trkpt><trkpt lat="45.89557926840138" lon="11.600981582725831"><ele>1011.0</ele><time>2026-04-23T11:52:58.001Z</time></trkpt><trkpt lat="45.89574604575723" lon="11.60100715506684"><ele>1011.0</ele><time>2026-04-23T11:52:59.001Z</time></trkpt><trkpt lat="45.89588033675046" lon="11.601040079304713"><ele>1011.0</ele><time>2026-04-23T11:53:00.001Z</time></trkpt><trkpt lat="45.89598967630806" lon="11.601082490048196"><ele>1011.0</ele><time>2026-04-23T11:53:01.001Z</time></trkpt><trkpt lat="45.896078093500634" lon="11.60116823910565"><ele>1013.0</ele><time>2026-04-23T11:53:02.001Z</time></trkpt><trkpt lat="45.89613816788289" lon="11.60128838177578"><ele>1015.0</ele><time>2026-04-23T11:53:03.001Z</time></trkpt><trkpt lat="45.89617858126835" lon="11.60144104094021"><ele>1017.0</ele><time>2026-04-23T11:53:04.001Z</time></trkpt><trkpt lat="45.89619000807701" lon="11.601607571800306"><ele>1019.0</ele><time>2026-04-23T11:53:05.001Z</time></trkpt><trkpt lat="45.89616289234532" lon="11.60178036258221"><ele>1019.0</ele><time>2026-04-23T11:53:06.001Z</time></trkpt><trkpt lat="45.89610330270921" lon="11.601964512190527"><ele>1019.0</ele><time>2026-04-23T11:53:07.001Z</time></trkpt><trkpt lat="45.89602354111699" lon="11.602197633463726"><ele>1019.0</ele><time>2026-04-23T11:53:08.001Z</time></trkpt><trkpt lat="45.89593463293435" lon="11.602487152714609"><ele>1014.5</ele><time>2026-04-23T11:53:09.001Z</time></trkpt><trkpt lat="45.895841706045935" lon="11.602796767276624"><ele>1010.0</ele><time>2026-04-23T11:53:10.001Z</time></trkpt><trkpt lat="45.89573934665339" lon="11.603135274721215"><ele>1010.0</ele><time>2026-04-23T11:53:11.001Z</time></trkpt><trkpt lat="45.895635105724075" lon="11.603461058223168"><ele>1010.0</ele><time>2026-04-23T11:53:12.001Z</time></trkpt><trkpt lat="45.89555312998582" lon="11.603714722601781"><ele>1010.0</ele><time>2026-04-23T11:53:13.001Z</time></trkpt><trkpt lat="45.89548050159798" lon="11.603921964066224"><ele>1020.6666666666667</ele><time>2026-04-23T11:53:14.001Z</time></trkpt><trkpt lat="45.895394755617964" lon="11.604112403978691"><ele>1031.3333333333333</ele><time>2026-04-23T11:53:15.001Z</time></trkpt><trkpt lat="45.89526955292365" lon="11.60429450801325"><ele>1042.0</ele><time>2026-04-23T11:53:16.001Z</time></trkpt><trkpt lat="45.89511141509071" lon="11.604478667582073"><ele>1034.3333333333333</ele><time>2026-04-23T11:53:17.001Z</time></trkpt><trkpt lat="45.8949348944588" lon="11.6046723160167"><ele>1026.6666666666667</ele><time>2026-04-23T11:53:18.001Z</time></trkpt><trkpt lat="45.89479412278135" lon="11.604849548808966"><ele>1019.0</ele><time>2026-04-23T11:53:19.001Z</time></trkpt><trkpt lat="45.89469193849494" lon="11.60502407253037"><ele>1019.0</ele><time>2026-04-23T11:53:20.001Z</time></trkpt><trkpt lat="45.894619200959596" lon="11.60520642535636"><ele>1019.0</ele><time>2026-04-23T11:53:21.001Z</time></trkpt><trkpt lat="45.89457644371984" lon="11.60540999510307"><ele>1019.0</ele><time>2026-04-23T11:53:22.001Z</time></trkpt><trkpt lat="45.8945431719683" lon="11.605642505058453"><ele>1024.6666666666667</ele><time>2026-04-23T11:53:23.001Z</time></trkpt><trkpt lat="45.894547692248224" lon="11.605907441024216"><ele>1030.3333333333333</ele><time>2026-04-23T11:53:24.001Z</time></trkpt><trkpt lat="45.89456019811191" lon="11.6062101425656"><ele>1036.0</ele><time>2026-04-23T11:53:25.001Z</time></trkpt><trkpt lat="45.894576438689704" lon="11.606544991958078"><ele>1036.0</ele><time>2026-04-23T11:53:26.001Z</time></trkpt><trkpt lat="45.89459583163063" lon="11.606824839319618"><ele>1036.0</ele><time>2026-04-23T11:53:27.001Z</time></trkpt><trkpt lat="45.89461813267101" lon="11.607061775424784"><ele>1036.0</ele><time>2026-04-23T11:53:28.001Z</time></trkpt><trkpt lat="45.894610631144104" lon="11.607274990745296"><ele>1036.0</ele><time>2026-04-23T11:53:29.001Z</time></trkpt><trkpt lat="45.894570761693124" lon="11.607500960827943"><ele>1036.0</ele><time>2026-04-23T11:53:30.001Z</time></trkpt><trkpt lat="45.894519298146996" lon="11.607753878665262"><ele>1036.0</ele><time>2026-04-23T11:53:31.001Z</time></trkpt><trkpt lat="45.894488019468795" lon="11.608018780099195"><ele>1036.0</ele><time>2026-04-23T11:53:32.001Z</time></trkpt><trkpt lat="45.89448038586261" lon="11.608336635682218"><ele>1036.0</ele><time>2026-04-23T11:53:33.001Z</time></trkpt><trkpt lat="45.894481039601516" lon="11.608646542263482"><ele>1036.0</ele><time>2026-04-23T11:53:34.001Z</time></trkpt><trkpt lat="45.89447550917028" lon="11.608912123401588"><ele>1037.3333333333333</ele><time>2026-04-23T11:53:35.001Z</time></trkpt><trkpt lat="45.89446347637561" lon="11.609141915128498"><ele>1038.6666666666667</ele><time>2026-04-23T11:53:36.002Z</time></trkpt><trkpt lat="45.894417853395936" lon="11.60935090444533"><ele>1040.0</ele><time>2026-04-23T11:53:37.002Z</time></trkpt><trkpt lat="45.89436251321835" lon="11.609532967350532"><ele>1045.6666666666667</ele><time>2026-04-23T11:53:38.002Z</time></trkpt><trkpt lat="45.89427843830845" lon="11.609728363246118"><ele>1051.3333333333333</ele><time>2026-04-23T11:53:39.002Z</time></trkpt><trkpt lat="45.8941683993535" lon="11.609954792369338"><ele>1057.0</ele><time>2026-04-23T11:53:40.002Z</time></trkpt><trkpt lat="45.894034435490845" lon="11.610164488963745"><ele>1054.0</ele><time>2026-04-23T11:53:41.002Z</time></trkpt><trkpt lat="45.893914988707394" lon="11.61033168664196"><ele>1051.0</ele><time>2026-04-23T11:53:42.002Z</time></trkpt><trkpt lat="45.89377264657893" lon="11.610482335925447"><ele>1048.0</ele><time>2026-04-23T11:53:43.002Z</time></trkpt><trkpt lat="45.893580862259306" lon="11.61060675273427"><ele>1038.3333333333333</ele><time>2026-04-23T11:53:44.002Z</time></trkpt><trkpt lat="45.893383467275214" lon="11.610779713572928"><ele>1028.6666666666667</ele><time>2026-04-23T11:53:45.002Z</time></trkpt><trkpt lat="45.89319150676403" lon="11.610905465557583"><ele>1019.0</ele><time>2026-04-23T11:53:46.002Z</time></trkpt><trkpt lat="45.8930100042036" lon="11.610997508900635"><ele>1019.0</ele><time>2026-04-23T11:53:47.002Z</time></trkpt><trkpt lat="45.89282548027014" lon="11.611063094433812"><ele>1019.0</ele><time>2026-04-23T11:53:48.002Z</time></trkpt><trkpt lat="45.89265150712905" lon="11.611115903140798"><ele>1019.0</ele><time>2026-04-23T11:53:49.002Z</time></trkpt><trkpt lat="45.89249572521896" lon="11.611191340945432"><ele>1019.0</ele><time>2026-04-23T11:53:50.002Z</time></trkpt><trkpt lat="45.89234811722116" lon="11.611301223392621"><ele>1019.0</ele><time>2026-04-23T11:53:51.002Z</time></trkpt><trkpt lat="45.89221280694675" lon="11.611395792603997"><ele>1019.0</ele><time>2026-04-23T11:53:52.002Z</time></trkpt><trkpt lat="45.89210936842861" lon="11.611573130298028"><ele>1019.0</ele><time>2026-04-23T11:53:53.002Z</time></trkpt><trkpt lat="45.89201194787267" lon="11.611774447689248"><ele>1019.0</ele><time>2026-04-23T11:53:54.002Z</time></trkpt><trkpt lat="45.8919439951125" lon="11.611971882371236"><ele>1019.0</ele><time>2026-04-23T11:53:55.002Z</time></trkpt><trkpt lat="45.89191127820109" lon="11.612158359421832"><ele>1023.0</ele><time>2026-04-23T11:53:56.002Z</time></trkpt><trkpt lat="45.89190997245694" lon="11.61236509150278"><ele>1027.0</ele><time>2026-04-23T11:53:57.002Z</time></trkpt><trkpt lat="45.89194398269524" lon="11.612606395609424"><ele>1031.0</ele><time>2026-04-23T11:53:58.002Z</time></trkpt><trkpt lat="45.89200371569629" lon="11.612870013689943"><ele>1031.6666666666667</ele><time>2026-04-23T11:53:59.002Z</time></trkpt><trkpt lat="45.89208452757476" lon="11.613159796188128"><ele>1032.3333333333333</ele><time>2026-04-23T11:54:00.002Z</time></trkpt><trkpt lat="45.89214408676727" lon="11.613425712525537"><ele>1033.0</ele><time>2026-04-23T11:54:01.002Z</time></trkpt><trkpt lat="45.89217943760798" lon="11.613691913114394"><ele>1030.3333333333333</ele><time>2026-04-23T11:54:02.002Z</time></trkpt><trkpt lat="45.8922003701405" lon="11.613956409602446"><ele>1027.6666666666667</ele><time>2026-04-23T11:54:03.002Z</time></trkpt><trkpt lat="45.89219821621396" lon="11.61418735240114"><ele>1025.0</ele><time>2026-04-23T11:54:04.002Z</time></trkpt><trkpt lat="45.89216975575425" lon="11.614417556925886"><ele>1027.3333333333335</ele><time>2026-04-23T11:54:05.002Z</time></trkpt><trkpt lat="45.8921059525649" lon="11.61465496177239"><ele>1029.6666666666667</ele><time>2026-04-23T11:54:06.002Z</time></trkpt><trkpt lat="45.892008335099895" lon="11.614901865466097"><ele>1032.0</ele><time>2026-04-23T11:54:07.002Z</time></trkpt><trkpt lat="45.89189137598819" lon="11.61511972105294"><ele>1032.0</ele><time>2026-04-23T11:54:08.002Z</time></trkpt><trkpt lat="45.89176929272704" lon="11.615301246462401"><ele>1032.0</ele><time>2026-04-23T11:54:09.002Z</time></trkpt><trkpt lat="45.891620804433124" lon="11.61546353555124"><ele>1032.0</ele><time>2026-04-23T11:54:10.002Z</time></trkpt><trkpt lat="45.89144498057585" lon="11.615610492287312"><ele>1029.0</ele><time>2026-04-23T11:54:11.002Z</time></trkpt><trkpt lat="45.8912388663616" lon="11.615754567160137"><ele>1026.0</ele><time>2026-04-23T11:54:12.002Z</time></trkpt><trkpt lat="45.89104870281626" lon="11.615843454225457"><ele>1023.0</ele><time>2026-04-23T11:54:13.002Z</time></trkpt><trkpt lat="45.8909170229168" lon="11.61594405744805"><ele>1020.75</ele><time>2026-04-23T11:54:14.002Z</time></trkpt><trkpt lat="45.890813541362256" lon="11.616038907581462"><ele>1018.5</ele><time>2026-04-23T11:54:15.002Z</time></trkpt><trkpt lat="45.89073900954978" lon="11.616167694107602"><ele>1016.25</ele><time>2026-04-23T11:54:16.002Z</time></trkpt><trkpt lat="45.890692605445636" lon="11.616312281361681"><ele>1014.0</ele><time>2026-04-23T11:54:17.002Z</time></trkpt><trkpt lat="45.890680476566125" lon="11.616467629941948"><ele>1014.0</ele><time>2026-04-23T11:54:18.002Z</time></trkpt><trkpt lat="45.89072257699979" lon="11.616621981795788"><ele>1014.0000000000001</ele><time>2026-04-23T11:54:19.002Z</time></trkpt><trkpt lat="45.890792443284255" lon="11.616748131411978"><ele>1014.0000000000001</ele><time>2026-04-23T11:54:20.002Z</time></trkpt><trkpt lat="45.8908871531138" lon="11.616819667684924"><ele>1014.0</ele><time>2026-04-23T11:54:21.002Z</time></trkpt><trkpt lat="45.890986054465365" lon="11.616835570360905"><ele>1014.0</ele><time>2026-04-23T11:54:22.003Z</time></trkpt><trkpt lat="45.89110328215023" lon="11.61680820957135"><ele>1016.0</ele><time>2026-04-23T11:54:23.003Z</time></trkpt><trkpt lat="45.89125617065068" lon="11.616754540753014"><ele>1018.0</ele><time>2026-04-23T11:54:24.003Z</time></trkpt><trkpt lat="45.89143493185589" lon="11.61669903987637"><ele>1020.0</ele><time>2026-04-23T11:54:25.003Z</time></trkpt><trkpt lat="45.891629853042225" lon="11.616634644816449"><ele>1015.6666666666667</ele><time>2026-04-23T11:54:26Z</time></trkpt><trkpt lat="45.891840844881614" lon="11.616548244244077"><ele>1011.3333333333334</ele><time>2026-04-23T11:54:27Z</time></trkpt><trkpt lat="45.89201939753471" lon="11.616457769141656"><ele>1007.0</ele><time>2026-04-23T11:54:28Z</time></trkpt><trkpt lat="45.8921862619333" lon="11.616376105392856"><ele>1007.0</ele><time>2026-04-23T11:54:29Z</time></trkpt><trkpt lat="45.892338331793304" lon="11.616283009975396"><ele>1007.0</ele><time>2026-04-23T11:54:30Z</time></trkpt><trkpt lat="45.892495384563325" lon="11.616146976530695"><ele>1007.0</ele><time>2026-04-23T11:54:31Z</time></trkpt><trkpt lat="45.892692704909585" lon="11.61598678902425"><ele>1008.5</ele><time>2026-04-23T11:54:32Z</time></trkpt><trkpt lat="45.892895862756184" lon="11.615775091248317"><ele>1010.0</ele><time>2026-04-23T11:54:33Z</time></trkpt><trkpt lat="45.89309345096516" lon="11.61557085756868"><ele>1010.0</ele><time>2026-04-23T11:54:34Z</time></trkpt><trkpt lat="45.89325280877451" lon="11.615379055407935"><ele>1010.0</ele><time>2026-04-23T11:54:35Z</time></trkpt><trkpt lat="45.893395108778414" lon="11.61522638987591"><ele>1010.0</ele><time>2026-04-23T11:54:36Z</time></trkpt><trkpt lat="45.893527219465874" lon="11.61509401206899"><ele>1015.3333333333334</ele><time>2026-04-23T11:54:37Z</time></trkpt><trkpt lat="45.89366540634561" lon="11.61499695503885"><ele>1020.6666666666667</ele><time>2026-04-23T11:54:38Z</time></trkpt><trkpt lat="45.893810959714806" lon="11.614948148594117"><ele>1026.0</ele><time>2026-04-23T11:54:39Z</time></trkpt><trkpt lat="45.89396619611968" lon="11.61495384354961"><ele>1026.0</ele><time>2026-04-23T11:54:40Z</time></trkpt><trkpt lat="45.89412216754923" lon="11.615011990226588"><ele>1026.0</ele><time>2026-04-23T11:54:41Z</time></trkpt><trkpt lat="45.894304025956004" lon="11.615107484741337"><ele>1026.0</ele><time>2026-04-23T11:54:42Z</time></trkpt><trkpt lat="45.894511433306235" lon="11.615215504375731"><ele>1019.5</ele><time>2026-04-23T11:54:43Z</time></trkpt><trkpt lat="45.89472869871685" lon="11.615325050752311"><ele>1013.0</ele><time>2026-04-23T11:54:44Z</time></trkpt><trkpt lat="45.89493933816674" lon="11.615434841823829"><ele>1026.0</ele><time>2026-04-23T11:54:45Z</time></trkpt><trkpt lat="45.89516197907314" lon="11.615574144863128"><ele>1039.0</ele><time>2026-04-23T11:54:46Z</time></trkpt><trkpt lat="45.89536706949226" lon="11.615739059210954"><ele>1039.0</ele><time>2026-04-23T11:54:47Z</time></trkpt><trkpt lat="45.89556971644812" lon="11.61592865481099"><ele>1039.0</ele><time>2026-04-23T11:54:48Z</time></trkpt><trkpt lat="45.89578081495629" lon="11.616142238125855"><ele>1038.5</ele><time>2026-04-23T11:54:49Z</time></trkpt><trkpt lat="45.89601135834115" lon="11.616380618363566"><ele>1038.0</ele><time>2026-04-23T11:54:50Z</time></trkpt><trkpt lat="45.89624370930719" lon="11.616618203956476"><ele>1038.0</ele><time>2026-04-23T11:54:51Z</time></trkpt><trkpt lat="45.89644817645387" lon="11.61683010979207"><ele>1038.0</ele><time>2026-04-23T11:54:52Z</time></trkpt><trkpt lat="45.89662657163159" lon="11.61701678109791"><ele>1036.6666666666667</ele><time>2026-04-23T11:54:53Z</time></trkpt><trkpt lat="45.89677632307492" lon="11.617174507610367"><ele>1035.3333333333335</ele><time>2026-04-23T11:54:54Z</time></trkpt><trkpt lat="45.89692360661541" lon="11.617303696037453"><ele>1034.0</ele><time>2026-04-23T11:54:55Z</time></trkpt><trkpt lat="45.89707330771445" lon="11.617404397271693"><ele>1034.0</ele><time>2026-04-23T11:54:56Z</time></trkpt><trkpt lat="45.89723803775196" lon="11.617479094030779"><ele>1034.0</ele><time>2026-04-23T11:54:57Z</time></trkpt><trkpt lat="45.897414403571275" lon="11.617526768840328"><ele>1034.0</ele><time>2026-04-23T11:54:58Z</time></trkpt><trkpt lat="45.8975658315817" lon="11.617546866644288"><ele>1034.75</ele><time>2026-04-23T11:54:59Z</time></trkpt><trkpt lat="45.89769685842322" lon="11.61758728560413"><ele>1035.5</ele><time>2026-04-23T11:55:00Z</time></trkpt><trkpt lat="45.89781459066742" lon="11.617669036497677"><ele>1036.25</ele><time>2026-04-23T11:55:01.001Z</time></trkpt><trkpt lat="45.8979186898601" lon="11.617804203727642"><ele>1037.0</ele><time>2026-04-23T11:55:02.001Z</time></trkpt><trkpt lat="45.8980074666794" lon="11.617981958835555"><ele>1037.0</ele><time>2026-04-23T11:55:03.001Z</time></trkpt><trkpt lat="45.89809810158665" lon="11.61820948876306"><ele>1037.0</ele><time>2026-04-23T11:55:04.001Z</time></trkpt><trkpt lat="45.89821852950635" lon="11.618457965119406"><ele>1037.0</ele><time>2026-04-23T11:55:05.001Z</time></trkpt><trkpt lat="45.89837400941643" lon="11.618719708724205"><ele>1040.5</ele><time>2026-04-23T11:55:06.001Z</time></trkpt><trkpt lat="45.89855306528536" lon="11.618995161640283"><ele>1044.0</ele><time>2026-04-23T11:55:07.001Z</time></trkpt><trkpt lat="45.89874953418223" lon="11.619280115196275"><ele>1034.0</ele><time>2026-04-23T11:55:08.001Z</time></trkpt><trkpt lat="45.8989477847697" lon="11.619573220883447"><ele>1024.0</ele><time>2026-04-23T11:55:09.001Z</time></trkpt><trkpt lat="45.89916407476957" lon="11.619886410143705"><ele>1029.5</ele><time>2026-04-23T11:55:10.001Z</time></trkpt><trkpt lat="45.89939197597161" lon="11.620209800188084"><ele>1035.0</ele><time>2026-04-23T11:55:11.001Z</time></trkpt><trkpt lat="45.89960645449421" lon="11.62051549973542"><ele>1035.0</ele><time>2026-04-23T11:55:12.001Z</time></trkpt><trkpt lat="45.89982271287565" lon="11.62082094918036"><ele>1035.0</ele><time>2026-04-23T11:55:13.001Z</time></trkpt><trkpt lat="45.90000518106195" lon="11.621075023567231"><ele>1043.3333333333333</ele><time>2026-04-23T11:55:14.001Z</time></trkpt><trkpt lat="45.90015987729548" lon="11.621294844523597"><ele>1051.6666666666665</ele><time>2026-04-23T11:55:15.001Z</time></trkpt><trkpt lat="45.900294414619694" lon="11.621487890379015"><ele>1060.0</ele><time>2026-04-23T11:55:16.001Z</time></trkpt><trkpt lat="45.900414468042904" lon="11.621663002205624"><ele>1060.0</ele><time>2026-04-23T11:55:17.001Z</time></trkpt><trkpt lat="45.90051018378344" lon="11.621846173755682"><ele>1060.0</ele><time>2026-04-23T11:55:18.001Z</time></trkpt><trkpt lat="45.90058352056808" lon="11.622053945780005"><ele>1060.0</ele><time>2026-04-23T11:55:19.001Z</time></trkpt><trkpt lat="45.900636067694194" lon="11.622283893069778"><ele>1058.3333333333333</ele><time>2026-04-23T11:55:20.001Z</time></trkpt><trkpt lat="45.90066805960401" lon="11.622526228036847"><ele>1056.6666666666667</ele><time>2026-04-23T11:55:21.001Z</time></trkpt><trkpt lat="45.90067098856041" lon="11.622770112770093"><ele>1055.0</ele><time>2026-04-23T11:55:22.001Z</time></trkpt><trkpt lat="45.90064613903008" lon="11.623012987078496"><ele>1053.6666666666667</ele><time>2026-04-23T11:55:23.001Z</time></trkpt><trkpt lat="45.9006056589652" lon="11.623263409792944"><ele>1052.3333333333333</ele><time>2026-04-23T11:55:24.001Z</time></trkpt><trkpt lat="45.90058298057578" lon="11.623520216603227"><ele>1051.0</ele><time>2026-04-23T11:55:25.001Z</time></trkpt><trkpt lat="45.90059838890745" lon="11.623806720942529"><ele>1051.0</ele><time>2026-04-23T11:55:26.001Z</time></trkpt><trkpt lat="45.90062881443734" lon="11.624117043461691"><ele>1051.0</ele><time>2026-04-23T11:55:27.001Z</time></trkpt><trkpt lat="45.90065293537553" lon="11.624355439236224"><ele>1051.0</ele><time>2026-04-23T11:55:28.001Z</time></trkpt><trkpt lat="45.90067351384641" lon="11.624530865546761"><ele>1051.8</ele><time>2026-04-23T11:55:29.001Z</time></trkpt><trkpt lat="45.90067997839804" lon="11.624687323101321"><ele>1052.6</ele><time>2026-04-23T11:55:30.001Z</time></trkpt><trkpt lat="45.90064565069471" lon="11.624819890521369"><ele>1053.4</ele><time>2026-04-23T11:55:31.001Z</time></trkpt><trkpt lat="45.90056959644526" lon="11.624911608136243"><ele>1054.2</ele><time>2026-04-23T11:55:32.001Z</time></trkpt><trkpt lat="45.90047452948004" lon="11.624978935815184"><ele>1055.0</ele><time>2026-04-23T11:55:33.001Z</time></trkpt><trkpt lat="45.90035244148217" lon="11.624995396688979"><ele>1055.0</ele><time>2026-04-23T11:55:34.001Z</time></trkpt><trkpt lat="45.90020739836961" lon="11.624990687501151"><ele>1055.0</ele><time>2026-04-23T11:55:35.001Z</time></trkpt><trkpt lat="45.90004862753949" lon="11.624981532071306"><ele>1055.0</ele><time>2026-04-23T11:55:36.001Z</time></trkpt><trkpt lat="45.89992008820146" lon="11.62499675917364"><ele>1055.0</ele><time>2026-04-23T11:55:37.001Z</time></trkpt><trkpt lat="45.89980557899375" lon="11.625057185539646"><ele>1052.5</ele><time>2026-04-23T11:55:38.001Z</time></trkpt><trkpt lat="45.89970425963851" lon="11.62515724002389"><ele>1050.0</ele><time>2026-04-23T11:55:39.001Z</time></trkpt><trkpt lat="45.89961528452515" lon="11.625288153234825"><ele>1047.5</ele><time>2026-04-23T11:55:40.001Z</time></trkpt><trkpt lat="45.89955264117248" lon="11.625451688860252"><ele>1045.0</ele><time>2026-04-23T11:55:41.001Z</time></trkpt><trkpt lat="45.899518636763815" lon="11.625645439673326"><ele>1052.0</ele><time>2026-04-23T11:55:42.001Z</time></trkpt><trkpt lat="45.89950205386959" lon="11.625881492726927"><ele>1059.0</ele><time>2026-04-23T11:55:43.001Z</time></trkpt><trkpt lat="45.8994809185039" lon="11.6261404570151"><ele>1066.0</ele><time>2026-04-23T11:55:44.001Z</time></trkpt><trkpt lat="45.89943483620387" lon="11.626376001636448"><ele>1068.25</ele><time>2026-04-23T11:55:45.001Z</time></trkpt><trkpt lat="45.8993566311225" lon="11.62660015975247"><ele>1070.5</ele><time>2026-04-23T11:55:46.001Z</time></trkpt><trkpt lat="45.899287445401576" lon="11.626775126950768"><ele>1072.75</ele><time>2026-04-23T11:55:47.002Z</time></trkpt><trkpt lat="45.89925240542537" lon="11.626938225218025"><ele>1075.0</ele><time>2026-04-23T11:55:48.002Z</time></trkpt><trkpt lat="45.89925058002405" lon="11.62710673264445"><ele>1073.8</ele><time>2026-04-23T11:55:49.002Z</time></trkpt><trkpt lat="45.899286417762156" lon="11.627247635542146"><ele>1072.6</ele><time>2026-04-23T11:55:50.002Z</time></trkpt><trkpt lat="45.89933855270471" lon="11.627368631313788"><ele>1071.4</ele><time>2026-04-23T11:55:51.002Z</time></trkpt><trkpt lat="45.8993571260794" lon="11.627514179911318"><ele>1070.2</ele><time>2026-04-23T11:55:52.002Z</time></trkpt><trkpt lat="45.89933744922422" lon="11.627658112221122"><ele>1069.0</ele><time>2026-04-23T11:55:53.002Z</time></trkpt><trkpt lat="45.89927397528221" lon="11.62777935859888"><ele>1068.0</ele><time>2026-04-23T11:55:54.002Z</time></trkpt><trkpt lat="45.89917226206044" lon="11.627875916511657"><ele>1067.0</ele><time>2026-04-23T11:55:55.002Z</time></trkpt><trkpt lat="45.89903699995808" lon="11.627970620661978"><ele>1066.0</ele><time>2026-04-23T11:55:56.002Z</time></trkpt><trkpt lat="45.89887201839759" lon="11.628094549820423"><ele>1066.0</ele><time>2026-04-23T11:55:57.002Z</time></trkpt><trkpt lat="45.89869097335499" lon="11.628229601989927"><ele>1066.0</ele><time>2026-04-23T11:55:58.002Z</time></trkpt><trkpt lat="45.898517236382055" lon="11.628345855633336"><ele>1066.0</ele><time>2026-04-23T11:55:59.002Z</time></trkpt><trkpt lat="45.898310025402274" lon="11.628463889908637"><ele>1064.0</ele><time>2026-04-23T11:56:00.002Z</time></trkpt><trkpt lat="45.898110814353345" lon="11.628566466617578"><ele>1062.0</ele><time>2026-04-23T11:56:01.002Z</time></trkpt><trkpt lat="45.89794576578729" lon="11.628664555730433"><ele>1060.0</ele><time>2026-04-23T11:56:02.002Z</time></trkpt><trkpt lat="45.89778413036032" lon="11.628798716118153"><ele>1067.0</ele><time>2026-04-23T11:56:03.002Z</time></trkpt><trkpt lat="45.89760685957417" lon="11.628982207461915"><ele>1074.0</ele><time>2026-04-23T11:56:04.002Z</time></trkpt><trkpt lat="45.897409629665106" lon="11.629196292073171"><ele>1074.0</ele><time>2026-04-23T11:56:05.002Z</time></trkpt><trkpt lat="45.89723012452071" lon="11.629386171026335"><ele>1074.0</ele><time>2026-04-23T11:56:06.002Z</time></trkpt><trkpt lat="45.89705480947795" lon="11.62959183394"><ele>1074.0</ele><time>2026-04-23T11:56:07.002Z</time></trkpt><trkpt lat="45.89687467046256" lon="11.629830964619973"><ele>1074.6666666666667</ele><time>2026-04-23T11:56:08.002Z</time></trkpt><trkpt lat="45.896720956404074" lon="11.630040940566593"><ele>1075.3333333333335</ele><time>2026-04-23T11:56:09.002Z</time></trkpt><trkpt lat="45.89660438138745" lon="11.630198781078843"><ele>1076.0</ele><time>2026-04-23T11:56:10.002Z</time></trkpt><trkpt lat="45.89652429997169" lon="11.630325628690567"><ele>1077.3333333333335</ele><time>2026-04-23T11:56:11.002Z</time></trkpt><trkpt lat="45.89646958508505" lon="11.630430221349723"><ele>1078.6666666666667</ele><time>2026-04-23T11:56:12.002Z</time></trkpt><trkpt lat="45.896451802863716" lon="11.63053894830045"><ele>1080.0</ele><time>2026-04-23T11:56:13.002Z</time></trkpt><trkpt lat="45.8964508359177" lon="11.630630142070434"><ele>1081.3333333333333</ele><time>2026-04-23T11:56:14.002Z</time></trkpt><trkpt lat="45.89648564289076" lon="11.630722561411655"><ele>1082.6666666666665</ele><time>2026-04-23T11:56:15.002Z</time></trkpt><trkpt lat="45.89657661882628" lon="11.630755195130261"><ele>1084.0</ele><time>2026-04-23T11:56:16.002Z</time></trkpt><trkpt lat="45.89666040600451" lon="11.630762572975371"><ele>1085.75</ele><time>2026-04-23T11:56:17.002Z</time></trkpt><trkpt lat="45.8967651711035" lon="11.630746478448899"><ele>1087.5</ele><time>2026-04-23T11:56:18.002Z</time></trkpt><trkpt lat="45.89691062745368" lon="11.630723856828677"><ele>1089.25</ele><time>2026-04-23T11:56:19.002Z</time></trkpt><trkpt lat="45.89710491291532" lon="11.630703752198205"><ele>1091.0</ele><time>2026-04-23T11:56:20.002Z</time></trkpt><trkpt lat="45.897293716054136" lon="11.630684945085454"><ele>1091.0</ele><time>2026-04-23T11:56:21.002Z</time></trkpt><trkpt lat="45.89743898358851" lon="11.630641049381985"><ele>1091.0</ele><time>2026-04-23T11:56:22.002Z</time></trkpt><trkpt lat="45.89759479170614" lon="11.630548443656217"><ele>1091.0</ele><time>2026-04-23T11:56:23.002Z</time></trkpt><trkpt lat="45.89776716567714" lon="11.630456884081307"><ele>1091.3333333333335</ele><time>2026-04-23T11:56:24.002Z</time></trkpt><trkpt lat="45.89791154777554" lon="11.630418495470174"><ele>1091.6666666666667</ele><time>2026-04-23T11:56:25.002Z</time></trkpt><trkpt lat="45.89807725794949" lon="11.63037757008371"><ele>1092.0</ele><time>2026-04-23T11:56:26.002Z</time></trkpt><trkpt lat="45.89827914700713" lon="11.63032799035228"><ele>1090.3333333333333</ele><time>2026-04-23T11:56:27.002Z</time></trkpt><trkpt lat="45.898452421820956" lon="11.6302793719678"><ele>1088.6666666666665</ele><time>2026-04-23T11:56:28.002Z</time></trkpt><trkpt lat="45.89862817585417" lon="11.630232428223152"><ele>1087.0</ele><time>2026-04-23T11:56:29.002Z</time></trkpt><trkpt lat="45.89883563649787" lon="11.630180009125839"><ele>1087.0</ele><time>2026-04-23T11:56:30.002Z</time></trkpt><trkpt lat="45.89907477041322" lon="11.63012639959778"><ele>1087.0</ele><time>2026-04-23T11:56:31.002Z</time></trkpt><trkpt lat="45.899323793269005" lon="11.630070620012038"><ele>1084.3333333333333</ele><time>2026-04-23T11:56:32Z</time></trkpt><trkpt lat="45.89954587146895" lon="11.630008036822362"><ele>1081.6666666666667</ele><time>2026-04-23T11:56:33Z</time></trkpt><trkpt lat="45.89974289173695" lon="11.629956293274468"><ele>1079.0</ele><time>2026-04-23T11:56:34Z</time></trkpt><trkpt lat="45.89990254984871" lon="11.629921242085103"><ele>1079.0</ele><time>2026-04-23T11:56:35Z</time></trkpt><trkpt lat="45.90001812870979" lon="11.629891517735256"><ele>1079.0</ele><time>2026-04-23T11:56:36Z</time></trkpt><trkpt lat="45.900099737564354" lon="11.629870306052172"><ele>1079.0</ele><time>2026-04-23T11:56:37Z</time></trkpt><trkpt lat="45.900184024008325" lon="11.62985078371664"><ele>1079.0</ele><time>2026-04-23T11:56:39Z</time></trkpt><trkpt lat="45.90030314213182" lon="11.629863161657672"><ele>1079.0</ele><time>2026-04-23T11:56:41Z</time></trkpt><trkpt lat="45.900434921452955" lon="11.629889126128633"><ele>1079.0</ele><time>2026-04-23T11:56:42Z</time></trkpt><trkpt lat="45.90056082267905" lon="11.629913050725229"><ele>1079.0</ele><time>2026-04-23T11:56:43Z</time></trkpt><trkpt lat="45.90072050910416" lon="11.629953369365781"><ele>1079.0</ele><time>2026-04-23T11:56:44Z</time></trkpt><trkpt lat="45.900908243844356" lon="11.629994893051823"><ele>1081.3333333333335</ele><time>2026-04-23T11:56:45Z</time></trkpt><trkpt lat="45.90109076933654" lon="11.630025327272534"><ele>1083.6666666666667</ele><time>2026-04-23T11:56:46Z</time></trkpt><trkpt lat="45.90129516456548" lon="11.630027740380706"><ele>1086.0</ele><time>2026-04-23T11:56:47Z</time></trkpt><trkpt lat="45.90151567367267" lon="11.63000576094962"><ele>1086.0</ele><time>2026-04-23T11:56:48Z</time></trkpt><trkpt lat="45.9016911925356" lon="11.629989899018874"><ele>1086.0</ele><time>2026-04-23T11:56:49Z</time></trkpt><trkpt lat="45.901827070721" lon="11.629973150843039"><ele>1086.0</ele><time>2026-04-23T11:56:50Z</time></trkpt><trkpt lat="45.90195119055338" lon="11.629971411593807"><ele>1086.0</ele><time>2026-04-23T11:56:51Z</time></trkpt><trkpt lat="45.90206308069453" lon="11.630015872328539"><ele>1084.5</ele><time>2026-04-23T11:56:52Z</time></trkpt><trkpt lat="45.902160716610304" lon="11.630106621046336"><ele>1083.0</ele><time>2026-04-23T11:56:53Z</time></trkpt><trkpt lat="45.90225272837535" lon="11.630256012398428"><ele>1081.5</ele><time>2026-04-23T11:56:54Z</time></trkpt><trkpt lat="45.90235135045991" lon="11.630446061205154"><ele>1080.0</ele><time>2026-04-23T11:56:55Z</time></trkpt><trkpt lat="45.90245685234024" lon="11.63064582856671"><ele>1080.0</ele><time>2026-04-23T11:56:56Z</time></trkpt><trkpt lat="45.902563608943794" lon="11.630811169513956"><ele>1080.0</ele><time>2026-04-23T11:56:57Z</time></trkpt><trkpt lat="45.902675885465584" lon="11.630979587399056"><ele>1080.0</ele><time>2026-04-23T11:56:58Z</time></trkpt><trkpt lat="45.902795651137666" lon="11.631135952449267"><ele>1081.6666666666667</ele><time>2026-04-23T11:56:59Z</time></trkpt><trkpt lat="45.90294448387478" lon="11.63126370005768"><ele>1083.3333333333335</ele><time>2026-04-23T11:57:00Z</time></trkpt><trkpt lat="45.90312829856691" lon="11.631384101140286"><ele>1085.0</ele><time>2026-04-23T11:57:01Z</time></trkpt><trkpt lat="45.90334967168788" lon="11.631511175835886"><ele>1092.3333333333335</ele><time>2026-04-23T11:57:02Z</time></trkpt><trkpt lat="45.90356797048297" lon="11.631639000696987"><ele>1099.6666666666667</ele><time>2026-04-23T11:57:03Z</time></trkpt><trkpt lat="45.90375386455274" lon="11.631727940618925"><ele>1107.0</ele><time>2026-04-23T11:57:04Z</time></trkpt><trkpt lat="45.903923645697695" lon="11.631785164020693"><ele>1107.0</ele><time>2026-04-23T11:57:05.001Z</time></trkpt><trkpt lat="45.9040675546853" lon="11.631844005727544"><ele>1107.0</ele><time>2026-04-23T11:57:06.001Z</time></trkpt><trkpt lat="45.90419687134525" lon="11.631937990927199"><ele>1107.0</ele><time>2026-04-23T11:57:07.001Z</time></trkpt><trkpt lat="45.904324594036815" lon="11.632085083730662"><ele>1108.6666666666667</ele><time>2026-04-23T11:57:08.001Z</time></trkpt><trkpt lat="45.90444438610442" lon="11.63228414279611"><ele>1110.3333333333335</ele><time>2026-04-23T11:57:09.001Z</time></trkpt><trkpt lat="45.90455661545967" lon="11.632515265454447"><ele>1112.0</ele><time>2026-04-23T11:57:10.001Z</time></trkpt><trkpt lat="45.904680664393126" lon="11.63277422662642"><ele>1106.25</ele><time>2026-04-23T11:57:11.001Z</time></trkpt><trkpt lat="45.904785870856074" lon="11.632996500175304"><ele>1100.5</ele><time>2026-04-23T11:57:12.001Z</time></trkpt><trkpt lat="45.904868368702644" lon="11.63315873797236"><ele>1094.75</ele><time>2026-04-23T11:57:13.001Z</time></trkpt><trkpt lat="45.90494177571952" lon="11.633267025299777"><ele>1089.0</ele><time>2026-04-23T11:57:14.001Z</time></trkpt><trkpt lat="45.905017325336345" lon="11.633366595969001"><ele>1089.8</ele><time>2026-04-23T11:57:15.001Z</time></trkpt><trkpt lat="45.9050990363581" lon="11.633421272391317"><ele>1090.6000000000001</ele><time>2026-04-23T11:57:16.001Z</time></trkpt><trkpt lat="45.90517609726704" lon="11.63342174928695"><ele>1091.4</ele><time>2026-04-23T11:57:17.001Z</time></trkpt><trkpt lat="45.90525457899537" lon="11.633354540321402"><ele>1092.2</ele><time>2026-04-23T11:57:18.001Z</time></trkpt><trkpt lat="45.90534667391995" lon="11.633250833372454"><ele>1093.0</ele><time>2026-04-23T11:57:19.001Z</time></trkpt><trkpt lat="45.90546351085899" lon="11.633095356797774"><ele>1093.0</ele><time>2026-04-23T11:57:20.001Z</time></trkpt><trkpt lat="45.905573852157545" lon="11.632960122423603"><ele>1093.0</ele><time>2026-04-23T11:57:21.001Z</time></trkpt><trkpt lat="45.905676490568034" lon="11.632854810772729"><ele>1093.0</ele><time>2026-04-23T11:57:22.001Z</time></trkpt><trkpt lat="45.90577038236579" lon="11.632797060066933"><ele>1093.0</ele><time>2026-04-23T11:57:23.001Z</time></trkpt><trkpt lat="45.90586151250018" lon="11.6327727511416"><ele>1100.8</ele><time>2026-04-23T11:57:24.001Z</time></trkpt><trkpt lat="45.90595564471882" lon="11.632803187041533"><ele>1108.6</ele><time>2026-04-23T11:57:25.001Z</time></trkpt><trkpt lat="45.906034782505245" lon="11.632883533602687"><ele>1116.4</ele><time>2026-04-23T11:57:26.001Z</time></trkpt><trkpt lat="45.9061031282498" lon="11.633009881431462"><ele>1124.2</ele><time>2026-04-23T11:57:27.001Z</time></trkpt><trkpt lat="45.90615606226837" lon="11.633180681261585"><ele>1132.0</ele><time>2026-04-23T11:57:28.001Z</time></trkpt><trkpt lat="45.90620023290103" lon="11.6333874971608"><ele>1129.3333333333333</ele><time>2026-04-23T11:57:29.001Z</time></trkpt><trkpt lat="45.90623320779893" lon="11.63364978553167"><ele>1126.6666666666667</ele><time>2026-04-23T11:57:30.001Z</time></trkpt><trkpt lat="45.90624819497381" lon="11.63395700387476"><ele>1124.0</ele><time>2026-04-23T11:57:31.001Z</time></trkpt><trkpt lat="45.906297460346806" lon="11.634294262915477"><ele>1120.0</ele><time>2026-04-23T11:57:32.001Z</time></trkpt><trkpt lat="45.906374843457606" lon="11.63462019411106"><ele>1116.0</ele><time>2026-04-23T11:57:33.001Z</time></trkpt><trkpt lat="45.906433010959056" lon="11.634960629274877"><ele>1116.0</ele><time>2026-04-23T11:57:34.001Z</time></trkpt><trkpt lat="45.906477243971736" lon="11.635296388362592"><ele>1116.0</ele><time>2026-04-23T11:57:35.001Z</time></trkpt><trkpt lat="45.90650312434039" lon="11.63558988163338"><ele>1116.0</ele><time>2026-04-23T11:57:36.001Z</time></trkpt><trkpt lat="45.90653724454674" lon="11.635864205071433"><ele>1113.5</ele><time>2026-04-23T11:57:37.001Z</time></trkpt><trkpt lat="45.906579689256574" lon="11.636110966571373"><ele>1111.0</ele><time>2026-04-23T11:57:38.001Z</time></trkpt><trkpt lat="45.906616966755486" lon="11.636310040882734"><ele>1108.5</ele><time>2026-04-23T11:57:39.001Z</time></trkpt><trkpt lat="45.90666220470703" lon="11.636470810481816"><ele>1106.0</ele><time>2026-04-23T11:57:40.001Z</time></trkpt><trkpt lat="45.90672704287255" lon="11.636607574660669"><ele>1107.3333333333335</ele><time>2026-04-23T11:57:41.001Z</time></trkpt><trkpt lat="45.906814181169565" lon="11.636729588942837"><ele>1108.6666666666667</ele><time>2026-04-23T11:57:42.001Z</time></trkpt><trkpt lat="45.90694595017897" lon="11.63687230281002"><ele>1110.0</ele><time>2026-04-23T11:57:43.001Z</time></trkpt><trkpt lat="45.907082102451064" lon="11.637026897374172"><ele>1110.0</ele><time>2026-04-23T11:57:44.001Z</time></trkpt><trkpt lat="45.90719524997243" lon="11.637166950902655"><ele>1110.0</ele><time>2026-04-23T11:57:45.001Z</time></trkpt><trkpt lat="45.907280732279595" lon="11.63731033928057"><ele>1110.0</ele><time>2026-04-23T11:57:46.001Z</time></trkpt><trkpt lat="45.90733935871058" lon="11.637473316164735"><ele>1110.0</ele><time>2026-04-23T11:57:47.001Z</time></trkpt><trkpt lat="45.90736162476628" lon="11.637651593583882"><ele>1114.3333333333333</ele><time>2026-04-23T11:57:48.001Z</time></trkpt><trkpt lat="45.9073437117334" lon="11.637837997293971"><ele>1118.6666666666665</ele><time>2026-04-23T11:57:49.001Z</time></trkpt><trkpt lat="45.90728923686914" lon="11.63803555153256"><ele>1123.0</ele><time>2026-04-23T11:57:50.001Z</time></trkpt><trkpt lat="45.907205024754184" lon="11.638249685108681"><ele>1123.0</ele><time>2026-04-23T11:57:51.002Z</time></trkpt><trkpt lat="45.90708780469129" lon="11.638482705291029"><ele>1123.0</ele><time>2026-04-23T11:57:52.002Z</time></trkpt><trkpt lat="45.90695254789642" lon="11.638726504111197"><ele>1123.0</ele><time>2026-04-23T11:57:53.002Z</time></trkpt><trkpt lat="45.90682797720736" lon="11.638923520449287"><ele>1116.6666666666665</ele><time>2026-04-23T11:57:54.002Z</time></trkpt><trkpt lat="45.906690101443296" lon="11.639095925470853"><ele>1110.3333333333333</ele><time>2026-04-23T11:57:55.002Z</time></trkpt><trkpt lat="45.90652997997557" lon="11.63925353016065"><ele>1104.0</ele><time>2026-04-23T11:57:56.002Z</time></trkpt><trkpt lat="45.90640194717355" lon="11.639362232449484"><ele>1111.0</ele><time>2026-04-23T11:57:57.002Z</time></trkpt><trkpt lat="45.906295731204736" lon="11.639471968113655"><ele>1118.0</ele><time>2026-04-23T11:57:58.002Z</time></trkpt><trkpt lat="45.906214398045826" lon="11.639619864192307"><ele>1125.0</ele><time>2026-04-23T11:57:59.002Z</time></trkpt><trkpt lat="45.90613537368392" lon="11.639823569399503"><ele>1132.0</ele><time>2026-04-23T11:58:00.002Z</time></trkpt><trkpt lat="45.90603742094178" lon="11.640083438595079"><ele>1132.0</ele><time>2026-04-23T11:58:01.002Z</time></trkpt><trkpt lat="45.90592477784902" lon="11.640292557002024"><ele>1132.0</ele><time>2026-04-23T11:58:02.002Z</time></trkpt><trkpt lat="45.90584351460187" lon="11.64051978614345"><ele>1132.0</ele><time>2026-04-23T11:58:03.002Z</time></trkpt><trkpt lat="45.905763860437574" lon="11.640785719657828"><ele>1125.5</ele><time>2026-04-23T11:58:04.002Z</time></trkpt><trkpt lat="45.905689115293484" lon="11.641119500674222"><ele>1119.0</ele><time>2026-04-23T11:58:05.002Z</time></trkpt><trkpt lat="45.905611193088276" lon="11.641439047287104"><ele>1119.0</ele><time>2026-04-23T11:58:06.002Z</time></trkpt><trkpt lat="45.905529783319636" lon="11.641694100624623"><ele>1119.0</ele><time>2026-04-23T11:58:07.002Z</time></trkpt><trkpt lat="45.905457463584504" lon="11.641904273016188"><ele>1119.0</ele><time>2026-04-23T11:58:08.002Z</time></trkpt><trkpt lat="45.90541082897023" lon="11.642129914314122"><ele>1120.0</ele><time>2026-04-23T11:58:09.002Z</time></trkpt><trkpt lat="45.90538176561094" lon="11.642406009353694"><ele>1121.0</ele><time>2026-04-23T11:58:10.002Z</time></trkpt><trkpt lat="45.90536166747424" lon="11.642738418788273"><ele>1122.0</ele><time>2026-04-23T11:58:11.002Z</time></trkpt><trkpt lat="45.90534253076955" lon="11.643109391470132"><ele>1122.5</ele><time>2026-04-23T11:58:12.002Z</time></trkpt><trkpt lat="45.90532180477986" lon="11.643456359650543"><ele>1123.0</ele><time>2026-04-23T11:58:13.002Z</time></trkpt><trkpt lat="45.90530284868942" lon="11.643772773842478"><ele>1120.0</ele><time>2026-04-23T11:58:14.002Z</time></trkpt><trkpt lat="45.905295733060996" lon="11.644084544461776"><ele>1117.0</ele><time>2026-04-23T11:58:15.002Z</time></trkpt><trkpt lat="45.90531140314401" lon="11.644426619919704"><ele>1113.3333333333333</ele><time>2026-04-23T11:58:16.002Z</time></trkpt><trkpt lat="45.9053305642628" lon="11.644729475015776"><ele>1109.6666666666667</ele><time>2026-04-23T11:58:17.002Z</time></trkpt><trkpt lat="45.90534487906754" lon="11.644956071684883"><ele>1106.0</ele><time>2026-04-23T11:58:18.002Z</time></trkpt><trkpt lat="45.905349749252295" lon="11.64513393107033"><ele>1106.0</ele><time>2026-04-23T11:58:19.002Z</time></trkpt><trkpt lat="45.90532729969963" lon="11.6452837305546"><ele>1106.0</ele><time>2026-04-23T11:58:20.002Z</time></trkpt><trkpt lat="45.905286470360736" lon="11.645431139380026"><ele>1106.0</ele><time>2026-04-23T11:58:21.002Z</time></trkpt><trkpt lat="45.90526596519811" lon="11.645581631442788"><ele>1106.0</ele><time>2026-04-23T11:58:22.002Z</time></trkpt><trkpt lat="45.90527779270285" lon="11.645724075475623"><ele>1106.0</ele><time>2026-04-23T11:58:23.002Z</time></trkpt><trkpt lat="45.90531829700991" lon="11.645865082968632"><ele>1103.75</ele><time>2026-04-23T11:58:24.002Z</time></trkpt><trkpt lat="45.90538982854902" lon="11.6460155974601"><ele>1101.5</ele><time>2026-04-23T11:58:25.002Z</time></trkpt><trkpt lat="45.90549691983275" lon="11.646146542087308"><ele>1099.25</ele><time>2026-04-23T11:58:26.002Z</time></trkpt><trkpt lat="45.90563460859072" lon="11.64625770152624"><ele>1097.0</ele><time>2026-04-23T11:58:27.002Z</time></trkpt><trkpt lat="45.90578628241833" lon="11.646355078024113"><ele>1098.0</ele><time>2026-04-23T11:58:28.002Z</time></trkpt><trkpt lat="45.90592548454682" lon="11.646465385589648"><ele>1099.0</ele><time>2026-04-23T11:58:29.002Z</time></trkpt><trkpt lat="45.906058066761496" lon="11.646617089823833"><ele>1100.0</ele><time>2026-04-23T11:58:30.002Z</time></trkpt><trkpt lat="45.906179592984905" lon="11.646805858222471"><ele>1094.3333333333335</ele><time>2026-04-23T11:58:31.002Z</time></trkpt><trkpt lat="45.90627003674246" lon="11.64703752669964"><ele>1088.6666666666667</ele><time>2026-04-23T11:58:32.002Z</time></trkpt><trkpt lat="45.906373220249584" lon="11.647230237962217"><ele>1083.0</ele><time>2026-04-23T11:58:33.002Z</time></trkpt><trkpt lat="45.906479639600185" lon="11.647441492684166"><ele>1083.0</ele><time>2026-04-23T11:58:34.002Z</time></trkpt><trkpt lat="45.90660291354883" lon="11.647673368156763"><ele>1083.0</ele><time>2026-04-23T11:58:35.002Z</time></trkpt><trkpt lat="45.90674170153053" lon="11.647875576932025"><ele>1083.0</ele><time>2026-04-23T11:58:36.002Z</time></trkpt><trkpt lat="45.906889352854286" lon="11.648034420546367"><ele>1080.6666666666667</ele><time>2026-04-23T11:58:37.003Z</time></trkpt><trkpt lat="45.90703556074764" lon="11.64817592241377"><ele>1078.3333333333335</ele><time>2026-04-23T11:58:38Z</time></trkpt><trkpt lat="45.90716945385259" lon="11.648323027351452"><ele>1076.0</ele><time>2026-04-23T11:58:39Z</time></trkpt><trkpt lat="45.90729001459749" lon="11.64848144808699"><ele>1077.6666666666667</ele><time>2026-04-23T11:58:40Z</time></trkpt><trkpt lat="45.90740091203136" lon="11.648653031228752"><ele>1079.3333333333333</ele><time>2026-04-23T11:58:41Z</time></trkpt><trkpt lat="45.90751091497529" lon="11.648844559496197"><ele>1081.0</ele><time>2026-04-23T11:58:42Z</time></trkpt><trkpt lat="45.90760848119164" lon="11.64903375018595"><ele>1081.0</ele><time>2026-04-23T11:58:43Z</time></trkpt><trkpt lat="45.90768774101401" lon="11.649211486295526"><ele>1081.0</ele><time>2026-04-23T11:58:44Z</time></trkpt><trkpt lat="45.90778372974046" lon="11.649367733670122"><ele>1081.0</ele><time>2026-04-23T11:58:45Z</time></trkpt><trkpt lat="45.907913445500576" lon="11.649503605758824"><ele>1076.5</ele><time>2026-04-23T11:58:46Z</time></trkpt><trkpt lat="45.90804352770975" lon="11.649609225160814"><ele>1072.0</ele><time>2026-04-23T11:58:47Z</time></trkpt><trkpt lat="45.90815329486281" lon="11.649708550226222"><ele>1067.5</ele><time>2026-04-23T11:58:48Z</time></trkpt><trkpt lat="45.90824452622106" lon="11.649811206284493"><ele>1063.0</ele><time>2026-04-23T11:58:49Z</time></trkpt><trkpt lat="45.90831883847203" lon="11.649935379997713"><ele>1063.0</ele><time>2026-04-23T11:58:50Z</time></trkpt><trkpt lat="45.90836456682442" lon="11.650083118066295"><ele>1063.0</ele><time>2026-04-23T11:58:51Z</time></trkpt><trkpt lat="45.90838387585865" lon="11.650253732702165"><ele>1063.0</ele><time>2026-04-23T11:58:52Z</time></trkpt><trkpt lat="45.908383491938785" lon="11.650453652015614"><ele>1063.0</ele><time>2026-04-23T11:58:53Z</time></trkpt><trkpt lat="45.90838619092599" lon="11.650670689476621"><ele>1058.75</ele><time>2026-04-23T11:58:54Z</time></trkpt><trkpt lat="45.90839236547084" lon="11.650893951007877"><ele>1054.5</ele><time>2026-04-23T11:58:55Z</time></trkpt><trkpt lat="45.90840287396935" lon="11.651100135633598"><ele>1050.25</ele><time>2026-04-23T11:58:56Z</time></trkpt><trkpt lat="45.90841900224444" lon="11.651251663095048"><ele>1046.0</ele><time>2026-04-23T11:58:57Z</time></trkpt><trkpt lat="45.90844585728262" lon="11.651396635685282"><ele>1045.25</ele><time>2026-04-23T11:58:58Z</time></trkpt><trkpt lat="45.908504406704516" lon="11.651508221569241"><ele>1044.5</ele><time>2026-04-23T11:58:59Z</time></trkpt><trkpt lat="45.9085790391013" lon="11.651594305541334"><ele>1043.75</ele><time>2026-04-23T11:59:00Z</time></trkpt><trkpt lat="45.90868645369105" lon="11.651662911859896"><ele>1043.0</ele><time>2026-04-23T11:59:01Z</time></trkpt><trkpt lat="45.90883859389635" lon="11.651752053222033"><ele>1043.0</ele><time>2026-04-23T11:59:02Z</time></trkpt><trkpt lat="45.90899596135222" lon="11.651857148226739"><ele>1043.0</ele><time>2026-04-23T11:59:03Z</time></trkpt><trkpt lat="45.90913333363404" lon="11.65195766831211"><ele>1043.0</ele><time>2026-04-23T11:59:04Z</time></trkpt><trkpt lat="45.90925460765452" lon="11.652086296775327"><ele>1041.3333333333335</ele><time>2026-04-23T11:59:05Z</time></trkpt><trkpt lat="45.90936579234286" lon="11.652245721827228"><ele>1039.6666666666667</ele><time>2026-04-23T11:59:06Z</time></trkpt><trkpt lat="45.90947490259837" lon="11.652439745195938"><ele>1038.0</ele><time>2026-04-23T11:59:07Z</time></trkpt><trkpt lat="45.90957526670567" lon="11.652614710739897"><ele>1038.0</ele><time>2026-04-23T11:59:08Z</time></trkpt><trkpt lat="45.909678290720855" lon="11.652757663716576"><ele>1038.0</ele><time>2026-04-23T11:59:09Z</time></trkpt><trkpt lat="45.909802695568644" lon="11.6528611917615"><ele>1038.0</ele><time>2026-04-23T11:59:10Z</time></trkpt><trkpt lat="45.90996521448124" lon="11.652953562562763"><ele>1036.0</ele><time>2026-04-23T11:59:11Z</time></trkpt><trkpt lat="45.910172782418755" lon="11.65307035803406"><ele>1034.0</ele><time>2026-04-23T11:59:12Z</time></trkpt><trkpt lat="45.910375908181365" lon="11.653197123114825"><ele>1032.0</ele><time>2026-04-23T11:59:13Z</time></trkpt><trkpt lat="45.91055833371944" lon="11.653325058890747"><ele>1032.0</ele><time>2026-04-23T11:59:14Z</time></trkpt><trkpt lat="45.9107240815172" lon="11.653466450760526"><ele>1032.0</ele><time>2026-04-23T11:59:15.001Z</time></trkpt><trkpt lat="45.9108854190964" lon="11.653630386384258"><ele>1032.0</ele><time>2026-04-23T11:59:16.001Z</time></trkpt><trkpt lat="45.91105421829428" lon="11.653820927926274"><ele>1028.0</ele><time>2026-04-23T11:59:17.001Z</time></trkpt><trkpt lat="45.91124228159223" lon="11.654025540861648"><ele>1024.0</ele><time>2026-04-23T11:59:18.001Z</time></trkpt><trkpt lat="45.91140059373569" lon="11.654196904181724"><ele>1020.0</ele><time>2026-04-23T11:59:19.001Z</time></trkpt><trkpt lat="45.911537903292256" lon="11.65434115808576"><ele>1016.0</ele><time>2026-04-23T11:59:20.001Z</time></trkpt><trkpt lat="45.91166929982425" lon="11.654490605167545"><ele>1012.0</ele><time>2026-04-23T11:59:21.001Z</time></trkpt><trkpt lat="45.91179381126952" lon="11.654665981717281"><ele>1008.0</ele><time>2026-04-23T11:59:22.001Z</time></trkpt><trkpt lat="45.911918248342545" lon="11.654881697413202"><ele>1008.0</ele><time>2026-04-23T11:59:23.001Z</time></trkpt><trkpt lat="45.912030422079305" lon="11.655094446937708"><ele>1008.0</ele><time>2026-04-23T11:59:24.001Z</time></trkpt><trkpt lat="45.912143537871195" lon="11.655269360900196"><ele>1008.0</ele><time>2026-04-23T11:59:25.001Z</time></trkpt><trkpt lat="45.91227372956249" lon="11.655413529662486"><ele>1003.5</ele><time>2026-04-23T11:59:26.001Z</time></trkpt><trkpt lat="45.912399121191214" lon="11.655533286792272"><ele>999.0</ele><time>2026-04-23T11:59:27.001Z</time></trkpt><trkpt lat="45.91250237452184" lon="11.655628790154921"><ele>994.5</ele><time>2026-04-23T11:59:28.001Z</time></trkpt><trkpt lat="45.912596020833206" lon="11.655700880447036"><ele>990.0</ele><time>2026-04-23T11:59:29.001Z</time></trkpt><trkpt lat="45.91269534447781" lon="11.655737699797086"><ele>989.0</ele><time>2026-04-23T11:59:30.001Z</time></trkpt><trkpt lat="45.91278616210431" lon="11.655712958546077"><ele>988.0</ele><time>2026-04-23T11:59:31.001Z</time></trkpt><trkpt lat="45.91286347478443" lon="11.655632262634175"><ele>987.0</ele><time>2026-04-23T11:59:32.001Z</time></trkpt><trkpt lat="45.91292879283641" lon="11.655495969614925"><ele>986.0</ele><time>2026-04-23T11:59:33.001Z</time></trkpt><trkpt lat="45.913004593522864" lon="11.655336816111138"><ele>985.0</ele><time>2026-04-23T11:59:34.001Z</time></trkpt><trkpt lat="45.913105739267486" lon="11.655222541247385"><ele>990.0</ele><time>2026-04-23T11:59:35.001Z</time></trkpt><trkpt lat="45.913240295942195" lon="11.655132863553261"><ele>995.0</ele><time>2026-04-23T11:59:36.001Z</time></trkpt><trkpt lat="45.91338987747495" lon="11.65505014534828"><ele>1000.0</ele><time>2026-04-23T11:59:37.001Z</time></trkpt><trkpt lat="45.91353862261622" lon="11.654937162921978"><ele>999.6666666666666</ele><time>2026-04-23T11:59:38.001Z</time></trkpt><trkpt lat="45.913699998061716" lon="11.654756898242992"><ele>999.3333333333333</ele><time>2026-04-23T11:59:39.001Z</time></trkpt><trkpt lat="45.913885710764966" lon="11.654547617785308"><ele>999.0</ele><time>2026-04-23T11:59:40.001Z</time></trkpt><trkpt lat="45.91403809817475" lon="11.65437208906469"><ele>999.0</ele><time>2026-04-23T11:59:41.001Z</time></trkpt><trkpt lat="45.91415749712892" lon="11.654232192632259"><ele>999.0</ele><time>2026-04-23T11:59:42.001Z</time></trkpt><trkpt lat="45.914256000803036" lon="11.65412408803203"><ele>999.0</ele><time>2026-04-23T11:59:43.001Z</time></trkpt><trkpt lat="45.914351501088646" lon="11.654044366430714"><ele>999.0</ele><time>2026-04-23T11:59:44.001Z</time></trkpt><trkpt lat="45.91445982582003" lon="11.654014415730357"><ele>987.0</ele><time>2026-04-23T11:59:45.001Z</time></trkpt><trkpt lat="45.91458015820562" lon="11.654026646898277"><ele>975.0</ele><time>2026-04-23T11:59:46.001Z</time></trkpt><trkpt lat="45.914719082945645" lon="11.654063634998908"><ele>963.0</ele><time>2026-04-23T11:59:47.001Z</time></trkpt><trkpt lat="45.914829596267964" lon="11.654131734268542"><ele>951.0</ele><time>2026-04-23T11:59:48.001Z</time></trkpt><trkpt lat="45.91493162702563" lon="11.654215138099921"><ele>951.0</ele><time>2026-04-23T11:59:49.001Z</time></trkpt><trkpt lat="45.91504383695903" lon="11.654325692521606"><ele>951.0</ele><time>2026-04-23T11:59:50.001Z</time></trkpt><trkpt lat="45.9151841919456" lon="11.654442837183087"><ele>951.0</ele><time>2026-04-23T11:59:51.001Z</time></trkpt><trkpt lat="45.915295127755265" lon="11.654571022016135"><ele>951.0</ele><time>2026-04-23T11:59:52.001Z</time></trkpt><trkpt lat="45.91542127350073" lon="11.654687660809355"><ele>918.0</ele><time>2026-04-23T11:59:53.001Z</time></trkpt><trkpt lat="45.9155564553208" lon="11.654812654803651"><ele>885.0</ele><time>2026-04-23T11:59:54.001Z</time></trkpt><trkpt lat="45.91571686766085" lon="11.654935598620865"><ele>852.0</ele><time>2026-04-23T11:59:55.001Z</time></trkpt><trkpt lat="45.91588232454892" lon="11.655103733292014"><ele>864.5</ele><time>2026-04-23T11:59:56.001Z</time></trkpt><trkpt lat="45.91606680032294" lon="11.655278817707355"><ele>877.0</ele><time>2026-04-23T11:59:57.001Z</time></trkpt><trkpt lat="45.916270829829195" lon="11.65546288958602"><ele>890.3333333333333</ele><time>2026-04-23T11:59:58.001Z</time></trkpt><trkpt lat="45.91644395623176" lon="11.655617453760541"><ele>903.6666666666667</ele><time>2026-04-23T11:59:59.001Z</time></trkpt><trkpt lat="45.91659089606288" lon="11.65575178074039"><ele>917.0</ele><time>2026-04-23T12:00:00.001Z</time></trkpt><trkpt lat="45.91681019201709" lon="11.655985242536438"><ele>927.75</ele><time>2026-04-23T12:00:02.001Z</time></trkpt><trkpt lat="45.916892029898825" lon="11.656114654728514"><ele>938.5</ele><time>2026-04-23T12:00:03.002Z</time></trkpt><trkpt lat="45.9169551422339" lon="11.656260647934584"><ele>949.25</ele><time>2026-04-23T12:00:04.002Z</time></trkpt><trkpt lat="45.91699728133843" lon="11.656418625467374"><ele>960.0</ele><time>2026-04-23T12:00:05.002Z</time></trkpt><trkpt lat="45.917050895333425" lon="11.656594859310866"><ele>963.0</ele><time>2026-04-23T12:00:06.002Z</time></trkpt><trkpt lat="45.917118504612965" lon="11.65679240945841"><ele>966.0</ele><time>2026-04-23T12:00:07.002Z</time></trkpt><trkpt lat="45.917212572596284" lon="11.657020323389599"><ele>969.0</ele><time>2026-04-23T12:00:08.002Z</time></trkpt><trkpt lat="45.91731152629202" lon="11.657276799680117"><ele>969.0</ele><time>2026-04-23T12:00:09.002Z</time></trkpt><trkpt lat="45.917415664930644" lon="11.657544199659732"><ele>969.0</ele><time>2026-04-23T12:00:10.002Z</time></trkpt><trkpt lat="45.917511184294455" lon="11.657772622200644"><ele>969.0</ele><time>2026-04-23T12:00:11.002Z</time></trkpt><trkpt lat="45.917608713397044" lon="11.657998499780128"><ele>984.3333333333333</ele><time>2026-04-23T12:00:12.002Z</time></trkpt><trkpt lat="45.91771488641709" lon="11.658239851135988"><ele>999.6666666666666</ele><time>2026-04-23T12:00:13.002Z</time></trkpt><trkpt lat="45.91782697921987" lon="11.658494586408688"><ele>1015.0</ele><time>2026-04-23T12:00:14.002Z</time></trkpt><trkpt lat="45.91792502235502" lon="11.658716273954765"><ele>1015.0</ele><time>2026-04-23T12:00:15.002Z</time></trkpt><trkpt lat="45.91800252456177" lon="11.658924774755583"><ele>1015.0</ele><time>2026-04-23T12:00:16.002Z</time></trkpt><trkpt lat="45.918058759534446" lon="11.65913090322694"><ele>1015.0</ele><time>2026-04-23T12:00:17.002Z</time></trkpt><trkpt lat="45.91809095556399" lon="11.65931890645055"><ele>1014.2</ele><time>2026-04-23T12:00:18.002Z</time></trkpt><trkpt lat="45.9181062321264" lon="11.659487782363945"><ele>1013.4</ele><time>2026-04-23T12:00:19.002Z</time></trkpt><trkpt lat="45.91810457883522" lon="11.659643674359648"><ele>1012.5999999999999</ele><time>2026-04-23T12:00:20.002Z</time></trkpt><trkpt lat="45.918082145727155" lon="11.659797367291402"><ele>1011.8</ele><time>2026-04-23T12:00:21.002Z</time></trkpt><trkpt lat="45.91803124559218" lon="11.659937531377405"><ele>1011.0</ele><time>2026-04-23T12:00:22.002Z</time></trkpt><trkpt lat="45.91795442898862" lon="11.66005649753704"><ele>1011.0</ele><time>2026-04-23T12:00:23.002Z</time></trkpt><trkpt lat="45.91785630153638" lon="11.660162642299186"><ele>1010.9999999999999</ele><time>2026-04-23T12:00:24.002Z</time></trkpt><trkpt lat="45.91776048802687" lon="11.66024927993246"><ele>1010.9999999999999</ele><time>2026-04-23T12:00:25.002Z</time></trkpt><trkpt lat="45.917694818640584" lon="11.660317832073055"><ele>1011.0</ele><time>2026-04-23T12:00:26.002Z</time></trkpt><trkpt lat="45.917664804074434" lon="11.660410823753779"><ele>1011.0</ele><time>2026-04-23T12:00:27.002Z</time></trkpt><trkpt lat="45.91766751034769" lon="11.660525867966511"><ele>1011.75</ele><time>2026-04-23T12:00:28.002Z</time></trkpt><trkpt lat="45.91770271609465" lon="11.660659618031453"><ele>1012.5</ele><time>2026-04-23T12:00:29.002Z</time></trkpt><trkpt lat="45.91775362694941" lon="11.660801360868446"><ele>1013.25</ele><time>2026-04-23T12:00:30.002Z</time></trkpt><trkpt lat="45.91783051066746" lon="11.660982494799237"><ele>1014.0</ele><time>2026-04-23T12:00:31.002Z</time></trkpt><trkpt lat="45.917939221573505" lon="11.661202258857532"><ele>1008.0</ele><time>2026-04-23T12:00:32.002Z</time></trkpt><trkpt lat="45.918064731865464" lon="11.661407587571349"><ele>1002.0</ele><time>2026-04-23T12:00:33.002Z</time></trkpt><trkpt lat="45.918208544727285" lon="11.661631320962204"><ele>996.0</ele><time>2026-04-23T12:00:34.002Z</time></trkpt><trkpt lat="45.91838111010123" lon="11.661893614637366"><ele>1003.5</ele><time>2026-04-23T12:00:35.002Z</time></trkpt><trkpt lat="45.918545279785654" lon="11.662149393800947"><ele>1011.0</ele><time>2026-04-23T12:00:36.002Z</time></trkpt><trkpt lat="45.91868679604377" lon="11.662376972201955"><ele>1011.0</ele><time>2026-04-23T12:00:37.002Z</time></trkpt><trkpt lat="45.91881764376207" lon="11.662588607650713"><ele>1011.0</ele><time>2026-04-23T12:00:38.002Z</time></trkpt><trkpt lat="45.918926765080755" lon="11.66280369373232"><ele>1011.0</ele><time>2026-04-23T12:00:39.002Z</time></trkpt><trkpt lat="45.91901642016119" lon="11.663006100313988"><ele>1012.3333333333333</ele><time>2026-04-23T12:00:40.002Z</time></trkpt><trkpt lat="45.91912411547698" lon="11.663178314900819"><ele>1013.6666666666666</ele><time>2026-04-23T12:00:41.002Z</time></trkpt><trkpt lat="45.91928185489949" lon="11.66333439282166"><ele>1015.0</ele><time>2026-04-23T12:00:42.002Z</time></trkpt><trkpt lat="45.91946987021287" lon="11.663507240085233"><ele>1005.6666666666666</ele><time>2026-04-23T12:00:43.002Z</time></trkpt><trkpt lat="45.91964913504974" lon="11.66370202876486"><ele>996.3333333333333</ele><time>2026-04-23T12:00:43.999Z</time></trkpt><trkpt lat="45.91977617255156" lon="11.663858797608727"><ele>987.0</ele><time>2026-04-23T12:00:44.999Z</time></trkpt><trkpt lat="45.91988118699126" lon="11.663953436026867"><ele>987.0</ele><time>2026-04-23T12:00:45.999Z</time></trkpt><trkpt lat="45.92000509470874" lon="11.664004340205196"><ele>987.0</ele><time>2026-04-23T12:00:46.999Z</time></trkpt><trkpt lat="45.920164360145876" lon="11.664043406613791"><ele>987.0</ele><time>2026-04-23T12:00:47.999Z</time></trkpt><trkpt lat="45.920329761489846" lon="11.664121635880885"><ele>986.75</ele><time>2026-04-23T12:00:48.999Z</time></trkpt><trkpt lat="45.92046084291415" lon="11.664223255505618"><ele>986.5</ele><time>2026-04-23T12:00:49.999Z</time></trkpt><trkpt lat="45.92054940890086" lon="11.664319221525142"><ele>986.25</ele><time>2026-04-23T12:00:50.999Z</time></trkpt><trkpt lat="45.92063482108503" lon="11.664453678497333"><ele>986.0</ele><time>2026-04-23T12:00:51.999Z</time></trkpt><trkpt lat="45.92071318789029" lon="11.664607333137784"><ele>986.0</ele><time>2026-04-23T12:00:52.999Z</time></trkpt><trkpt lat="45.920802249949084" lon="11.664720015651413"><ele>986.0</ele><time>2026-04-23T12:00:53.999Z</time></trkpt><trkpt lat="45.92092277976872" lon="11.66479253025605"><ele>986.0</ele><time>2026-04-23T12:00:55Z</time></trkpt><trkpt lat="45.921071260521565" lon="11.664845191993564"><ele>986.0</ele><time>2026-04-23T12:00:56Z</time></trkpt><trkpt lat="45.921212432647245" lon="11.664883101608375"><ele>989.75</ele><time>2026-04-23T12:00:57Z</time></trkpt><trkpt lat="45.92132193837406" lon="11.664951551221257"><ele>993.5</ele><time>2026-04-23T12:00:58Z</time></trkpt><trkpt lat="45.92141561036317" lon="11.665058177310218"><ele>997.25</ele><time>2026-04-23T12:00:59Z</time></trkpt><trkpt lat="45.92147945238176" lon="11.665200435117354"><ele>1001.0</ele><time>2026-04-23T12:01:00Z</time></trkpt><trkpt lat="45.92153093525134" lon="11.6653655418481"><ele>1001.0</ele><time>2026-04-23T12:01:01Z</time></trkpt><trkpt lat="45.92161475510254" lon="11.665511382745573"><ele>1001.0</ele><time>2026-04-23T12:01:02Z</time></trkpt><trkpt lat="45.92174963950611" lon="11.66565591404831"><ele>1001.0</ele><time>2026-04-23T12:01:03Z</time></trkpt><trkpt lat="45.92189984998542" lon="11.665824873533223"><ele>1007.0</ele><time>2026-04-23T12:01:04Z</time></trkpt><trkpt lat="45.922019783582265" lon="11.6660199095148"><ele>1013.0</ele><time>2026-04-23T12:01:05Z</time></trkpt><trkpt lat="45.922135097990235" lon="11.66624703284339"><ele>1019.0</ele><time>2026-04-23T12:01:06Z</time></trkpt><trkpt lat="45.92221531531422" lon="11.66641054284546"><ele>1019.0000000000001</ele><time>2026-04-23T12:01:07Z</time></trkpt><trkpt lat="45.92227247850977" lon="11.666521487858509"><ele>1019.0</ele><time>2026-04-23T12:01:08Z</time></trkpt><trkpt lat="45.92230687149759" lon="11.666643014668766"><ele>1019.0</ele><time>2026-04-23T12:01:09Z</time></trkpt><trkpt lat="45.92230153258388" lon="11.666780701714579"><ele>1019.0</ele><time>2026-04-23T12:01:10Z</time></trkpt><trkpt lat="45.92225770029334" lon="11.666890159366497"><ele>1019.0000000000001</ele><time>2026-04-23T12:01:11Z</time></trkpt><trkpt lat="45.92218682129476" lon="11.666936083850933"><ele>1019.0</ele><time>2026-04-23T12:01:12Z</time></trkpt><trkpt lat="45.92209939991074" lon="11.666939697272957"><ele>1019.0</ele><time>2026-04-23T12:01:13Z</time></trkpt><trkpt lat="45.922007093571274" lon="11.666891357934137"><ele>1019.0</ele><time>2026-04-23T12:01:14Z</time></trkpt><trkpt lat="45.92188356616822" lon="11.666806159829196"><ele>1019.0</ele><time>2026-04-23T12:01:15Z</time></trkpt><trkpt lat="45.92174052319156" lon="11.666743648098885"><ele>1019.0</ele><time>2026-04-23T12:01:16Z</time></trkpt><trkpt lat="45.92156556148242" lon="11.666723171442817"><ele>1017.6666666666667</ele><time>2026-04-23T12:01:17Z</time></trkpt><trkpt lat="45.921380489435585" lon="11.666729429383956"><ele>1016.3333333333333</ele><time>2026-04-23T12:01:18Z</time></trkpt><trkpt lat="45.92121092685005" lon="11.66673619702335"><ele>1015.0</ele><time>2026-04-23T12:01:19Z</time></trkpt><trkpt lat="45.921021689312106" lon="11.66676614932008"><ele>1013.25</ele><time>2026-04-23T12:01:20Z</time></trkpt><trkpt lat="45.920870464477005" lon="11.666819296441805"><ele>1011.5</ele><time>2026-04-23T12:01:21Z</time></trkpt><trkpt lat="45.920753741815666" lon="11.66689050827374"><ele>1009.75</ele><time>2026-04-23T12:01:22Z</time></trkpt><trkpt lat="45.920670085798704" lon="11.666973167481768"><ele>1008.0</ele><time>2026-04-23T12:01:23Z</time></trkpt><trkpt lat="45.92060987135771" lon="11.667098949280685"><ele>1015.6666666666667</ele><time>2026-04-23T12:01:24Z</time></trkpt><trkpt lat="45.92055435235262" lon="11.667267687309216"><ele>1023.3333333333334</ele><time>2026-04-23T12:01:25Z</time></trkpt><trkpt lat="45.920504459536986" lon="11.667502152608519"><ele>1031.0</ele><time>2026-04-23T12:01:26Z</time></trkpt><trkpt lat="45.92047197689777" lon="11.667746144077427"><ele>1035.0</ele><time>2026-04-23T12:01:27Z</time></trkpt><trkpt lat="45.92044985728581" lon="11.66798805767703"><ele>1039.0</ele><time>2026-04-23T12:01:28Z</time></trkpt><trkpt lat="45.92044385559327" lon="11.668208680861031"><ele>1043.0</ele><time>2026-04-23T12:01:29.001Z</time></trkpt><trkpt lat="45.92043409593116" lon="11.668376630300157"><ele>1047.0</ele><time>2026-04-23T12:01:30.001Z</time></trkpt><trkpt lat="45.920396347987825" lon="11.668504999304957"><ele>1047.0</ele><time>2026-04-23T12:01:31.001Z</time></trkpt><trkpt lat="45.92033473069996" lon="11.668582764491584"><ele>1047.0</ele><time>2026-04-23T12:01:32.001Z</time></trkpt><trkpt lat="45.920238307106594" lon="11.668604367158085"><ele>1047.0</ele><time>2026-04-23T12:01:33.001Z</time></trkpt><trkpt lat="45.92012848603478" lon="11.668605278577715"><ele>1047.0</ele><time>2026-04-23T12:01:34.001Z</time></trkpt><trkpt lat="45.920025017316036" lon="11.668652138647676"><ele>1047.0</ele><time>2026-04-23T12:01:35.001Z</time></trkpt><trkpt lat="45.91993328458934" lon="11.668770557093467"><ele>1046.8</ele><time>2026-04-23T12:01:36.001Z</time></trkpt><trkpt lat="45.919853290148296" lon="11.668886778811908"><ele>1046.6</ele><time>2026-04-23T12:01:37.001Z</time></trkpt><trkpt lat="45.9197722925106" lon="11.668944336970567"><ele>1046.3999999999999</ele><time>2026-04-23T12:01:38.001Z</time></trkpt><trkpt lat="45.919670234308406" lon="11.668942473586377"><ele>1046.2</ele><time>2026-04-23T12:01:39.001Z</time></trkpt><trkpt lat="45.919571197815856" lon="11.668872779126772"><ele>1046.0</ele><time>2026-04-23T12:01:40.001Z</time></trkpt><trkpt lat="45.91946410519936" lon="11.668753834921228"><ele>1046.0</ele><time>2026-04-23T12:01:41.001Z</time></trkpt><trkpt lat="45.919316422723504" lon="11.668616246715866"><ele>1046.0</ele><time>2026-04-23T12:01:42.001Z</time></trkpt><trkpt lat="45.91915810690619" lon="11.668520620764523"><ele>1046.0</ele><time>2026-04-23T12:01:43.001Z</time></trkpt><trkpt lat="45.91901868236507" lon="11.668463722852863"><ele>1037.3333333333335</ele><time>2026-04-23T12:01:44.001Z</time></trkpt><trkpt lat="45.91886193567067" lon="11.668472091211866"><ele>1028.6666666666667</ele><time>2026-04-23T12:01:45.001Z</time></trkpt><trkpt lat="45.9186833837601" lon="11.668523271775959"><ele>1020.0</ele><time>2026-04-23T12:01:46.001Z</time></trkpt><trkpt lat="45.91849988260277" lon="11.66855371868054"><ele>1024.0</ele><time>2026-04-23T12:01:47.001Z</time></trkpt><trkpt lat="45.91830618449916" lon="11.668546445216107"><ele>1028.0</ele><time>2026-04-23T12:01:48.001Z</time></trkpt><trkpt lat="45.91810326870934" lon="11.668481909362356"><ele>1032.0</ele><time>2026-04-23T12:01:49.001Z</time></trkpt><trkpt lat="45.91788744715774" lon="11.668382983656423"><ele>1032.0</ele><time>2026-04-23T12:01:50.001Z</time></trkpt><trkpt lat="45.917689362346934" lon="11.668279239291378"><ele>1032.0</ele><time>2026-04-23T12:01:51.001Z</time></trkpt><trkpt lat="45.91750044601521" lon="11.668200235442676"><ele>1032.0</ele><time>2026-04-23T12:01:52.001Z</time></trkpt><trkpt lat="45.917296793711934" lon="11.668145488412485"><ele>1035.0</ele><time>2026-04-23T12:01:53.001Z</time></trkpt><trkpt lat="45.917146368433194" lon="11.66814186342273"><ele>1038.0</ele><time>2026-04-23T12:01:54.001Z</time></trkpt><trkpt lat="45.917013333306315" lon="11.668149479337375"><ele>1041.0</ele><time>2026-04-23T12:01:55.001Z</time></trkpt><trkpt lat="45.91688079883663" lon="11.668173345183439"><ele>1044.0</ele><time>2026-04-23T12:01:56.001Z</time></trkpt><trkpt lat="45.916741582947004" lon="11.668295872740854"><ele>1044.0</ele><time>2026-04-23T12:01:57.001Z</time></trkpt><trkpt lat="45.91659438676684" lon="11.66845904387164"><ele>1044.0</ele><time>2026-04-23T12:01:58.001Z</time></trkpt><trkpt lat="45.9164397157414" lon="11.668534171275065"><ele>1044.0</ele><time>2026-04-23T12:01:59.001Z</time></trkpt><trkpt lat="45.91625231227443" lon="11.6685499858348"><ele>1044.0</ele><time>2026-04-23T12:02:00.001Z</time></trkpt><trkpt lat="45.916035652877106" lon="11.668569616101456"><ele>1044.0</ele><time>2026-04-23T12:02:01.001Z</time></trkpt><trkpt lat="45.91580773188156" lon="11.668581411172172"><ele>1044.0</ele><time>2026-04-23T12:02:02.001Z</time></trkpt><trkpt lat="45.915584860399456" lon="11.66857587128111"><ele>1044.0</ele><time>2026-04-23T12:02:03.001Z</time></trkpt><trkpt lat="45.91534474467668" lon="11.668541429258058"><ele>1044.0</ele><time>2026-04-23T12:02:04.001Z</time></trkpt><trkpt lat="45.91510420624729" lon="11.668463686623042"><ele>1045.0</ele><time>2026-04-23T12:02:05.001Z</time></trkpt><trkpt lat="45.91487002122133" lon="11.668361910274653"><ele>1046.0</ele><time>2026-04-23T12:02:06.001Z</time></trkpt><trkpt lat="45.91465966554725" lon="11.668248545567083"><ele>1046.0</ele><time>2026-04-23T12:02:07.001Z</time></trkpt><trkpt lat="45.91448959671025" lon="11.668163012851867"><ele>1046.0</ele><time>2026-04-23T12:02:08.001Z</time></trkpt><trkpt lat="45.91433545733641" lon="11.668096194797043"><ele>1046.0</ele><time>2026-04-23T12:02:09.001Z</time></trkpt><trkpt lat="45.914195368670036" lon="11.668080193710866"><ele>1045.5</ele><time>2026-04-23T12:02:10.001Z</time></trkpt><trkpt lat="45.9140719354497" lon="11.668097405389082"><ele>1045.0</ele><time>2026-04-23T12:02:11.002Z</time></trkpt><trkpt lat="45.91396350776699" lon="11.66812750610143"><ele>1044.5</ele><time>2026-04-23T12:02:12.002Z</time></trkpt><trkpt lat="45.913873455003134" lon="11.66824133996436"><ele>1044.0</ele><time>2026-04-23T12:02:13.002Z</time></trkpt><trkpt lat="45.9138133841317" lon="11.668382175667167"><ele>1044.0</ele><time>2026-04-23T12:02:14.002Z</time></trkpt><trkpt lat="45.91381477514154" lon="11.6685612728958"><ele>1044.0</ele><time>2026-04-23T12:02:15.002Z</time></trkpt><trkpt lat="45.91385484998233" lon="11.668727040884711"><ele>1044.0</ele><time>2026-04-23T12:02:16.002Z</time></trkpt><trkpt lat="45.913938724838175" lon="11.668893570574042"><ele>1044.0</ele><time>2026-04-23T12:02:17.002Z</time></trkpt><trkpt lat="45.914031516747436" lon="11.669099577679997"><ele>1045.0</ele><time>2026-04-23T12:02:18.002Z</time></trkpt><trkpt lat="45.91413948367579" lon="11.669344300520438"><ele>1046.0</ele><time>2026-04-23T12:02:19.002Z</time></trkpt><trkpt lat="45.91426243489311" lon="11.669626160746667"><ele>1047.0</ele><time>2026-04-23T12:02:20.002Z</time></trkpt><trkpt lat="45.91439989956601" lon="11.669938785244241"><ele>1055.0</ele><time>2026-04-23T12:02:21.002Z</time></trkpt><trkpt lat="45.914525987263964" lon="11.670246570436642"><ele>1063.0</ele><time>2026-04-23T12:02:22.002Z</time></trkpt><trkpt lat="45.91464297755336" lon="11.670591054951966"><ele>1063.0</ele><time>2026-04-23T12:02:23.002Z</time></trkpt><trkpt lat="45.914771847881205" lon="11.670885108003818"><ele>1063.0</ele><time>2026-04-23T12:02:24.002Z</time></trkpt><trkpt lat="45.91485225419916" lon="11.671131215751538"><ele>1063.0</ele><time>2026-04-23T12:02:25.002Z</time></trkpt><trkpt lat="45.914939520526985" lon="11.671323836117798"><ele>1061.3333333333333</ele><time>2026-04-23T12:02:26.002Z</time></trkpt><trkpt lat="45.91497956952232" lon="11.671537289237255"><ele>1059.6666666666667</ele><time>2026-04-23T12:02:27.002Z</time></trkpt><trkpt lat="45.91495553024472" lon="11.67174260011454"><ele>1058.0</ele><time>2026-04-23T12:02:28.002Z</time></trkpt><trkpt lat="45.914932152023546" lon="11.671977791248056"><ele>1058.0</ele><time>2026-04-23T12:02:29.002Z</time></trkpt><trkpt lat="45.91492185125825" lon="11.672252141840055"><ele>1058.0</ele><time>2026-04-23T12:02:30.002Z</time></trkpt><trkpt lat="45.91491399693401" lon="11.672564370489132"><ele>1058.0</ele><time>2026-04-23T12:02:31.002Z</time></trkpt><trkpt lat="45.91491804508592" lon="11.672922253855747"><ele>1059.0</ele><time>2026-04-23T12:02:32.002Z</time></trkpt><trkpt lat="45.91493212929711" lon="11.673274540843641"><ele>1060.0</ele><time>2026-04-23T12:02:33.002Z</time></trkpt><trkpt lat="45.91495299057924" lon="11.673654719357192"><ele>1060.0</ele><time>2026-04-23T12:02:34.002Z</time></trkpt><trkpt lat="45.91497091794381" lon="11.673985606690167"><ele>1060.0</ele><time>2026-04-23T12:02:35.002Z</time></trkpt><trkpt lat="45.91496793949619" lon="11.674289083616177"><ele>1060.0</ele><time>2026-04-23T12:02:36.002Z</time></trkpt><trkpt lat="45.91494284648094" lon="11.674556837308979"><ele>1059.5</ele><time>2026-04-23T12:02:37.002Z</time></trkpt><trkpt lat="45.91489791813242" lon="11.674789365400764"><ele>1059.0</ele><time>2026-04-23T12:02:38.002Z</time></trkpt><trkpt lat="45.91484761172562" lon="11.674976214428632"><ele>1058.5</ele><time>2026-04-23T12:02:39.002Z</time></trkpt><trkpt lat="45.914821327193" lon="11.675137922334615"><ele>1058.0</ele><time>2026-04-23T12:02:40.002Z</time></trkpt><trkpt lat="45.91481863062595" lon="11.675284888639272"><ele>1058.0</ele><time>2026-04-23T12:02:41.002Z</time></trkpt><trkpt lat="45.914840873867384" lon="11.675415869089045"><ele>1058.0</ele><time>2026-04-23T12:02:42.002Z</time></trkpt><trkpt lat="45.914911541926806" lon="11.675526333828122"><ele>1058.0</ele><time>2026-04-23T12:02:43.002Z</time></trkpt><trkpt lat="45.915000234873666" lon="11.675601505769448"><ele>1058.0</ele><time>2026-04-23T12:02:44.002Z</time></trkpt><trkpt lat="45.91512874647446" lon="11.675579524290436"><ele>1058.0</ele><time>2026-04-23T12:02:45.002Z</time></trkpt><trkpt lat="45.91526557716102" lon="11.675545377834334"><ele>1054.6666666666667</ele><time>2026-04-23T12:02:46.002Z</time></trkpt><trkpt lat="45.91543390674044" lon="11.67549033709376"><ele>1051.3333333333333</ele><time>2026-04-23T12:02:47.002Z</time></trkpt><trkpt lat="45.91560951158877" lon="11.675422686848208"><ele>1048.0</ele><time>2026-04-23T12:02:48.002Z</time></trkpt><trkpt lat="45.91580844843728" lon="11.675348552416455"><ele>1058.5</ele><time>2026-04-23T12:02:49.002Z</time></trkpt><trkpt lat="45.91603267287264" lon="11.67525836516837"><ele>1069.0</ele><time>2026-04-23T12:02:50.001Z</time></trkpt><trkpt lat="45.91626919110598" lon="11.675170771238147"><ele>1069.0</ele><time>2026-04-23T12:02:51.001Z</time></trkpt><trkpt lat="45.91647326744983" lon="11.675112480001445"><ele>1069.0</ele><time>2026-04-23T12:02:52.001Z</time></trkpt><trkpt lat="45.9166593995419" lon="11.675088548777412"><ele>1069.0</ele><time>2026-04-23T12:02:53.001Z</time></trkpt><trkpt lat="45.916813648338525" lon="11.674998763524057"><ele>1066.0</ele><time>2026-04-23T12:02:54.001Z</time></trkpt><trkpt lat="45.91696896115347" lon="11.674882035535683"><ele>1063.0</ele><time>2026-04-23T12:02:55.001Z</time></trkpt><trkpt lat="45.91713332909929" lon="11.674717579816113"><ele>1060.0</ele><time>2026-04-23T12:02:56.001Z</time></trkpt><trkpt lat="45.91728696123044" lon="11.674570644049739"><ele>1060.0</ele><time>2026-04-23T12:02:57.001Z</time></trkpt><trkpt lat="45.91743816666807" lon="11.674454746493968"><ele>1060.0</ele><time>2026-04-23T12:02:58.001Z</time></trkpt><trkpt lat="45.91759317504105" lon="11.674379126639076"><ele>1060.0</ele><time>2026-04-23T12:02:59.001Z</time></trkpt><trkpt lat="45.91775725767074" lon="11.674341174912097"><ele>1067.0</ele><time>2026-04-23T12:03:00.001Z</time></trkpt><trkpt lat="45.91791150788238" lon="11.674331882057425"><ele>1074.0</ele><time>2026-04-23T12:03:01.001Z</time></trkpt><trkpt lat="45.918058897771495" lon="11.674357300835553"><ele>1081.0</ele><time>2026-04-23T12:03:02.001Z</time></trkpt><trkpt lat="45.91820330738673" lon="11.674425613411033"><ele>1081.3333333333333</ele><time>2026-04-23T12:03:03.001Z</time></trkpt><trkpt lat="45.91834634534266" lon="11.674531869723952"><ele>1081.6666666666667</ele><time>2026-04-23T12:03:04.001Z</time></trkpt><trkpt lat="45.91848069135111" lon="11.674671443593567"><ele>1082.0</ele><time>2026-04-23T12:03:05.001Z</time></trkpt><trkpt lat="45.91860738989079" lon="11.67485635071495"><ele>1082.0</ele><time>2026-04-23T12:03:06.001Z</time></trkpt><trkpt lat="45.91874272582654" lon="11.675086057041925"><ele>1082.0</ele><time>2026-04-23T12:03:07.001Z</time></trkpt><trkpt lat="45.918886459234876" lon="11.675344860700601"><ele>1082.0</ele><time>2026-04-23T12:03:08.001Z</time></trkpt><trkpt lat="45.91899292696883" lon="11.675546707328225"><ele>1082.5</ele><time>2026-04-23T12:03:09.001Z</time></trkpt><trkpt lat="45.91909338872155" lon="11.6757132994999"><ele>1083.0</ele><time>2026-04-23T12:03:10.001Z</time></trkpt><trkpt lat="45.91920350389415" lon="11.67583822773702"><ele>1083.5</ele><time>2026-04-23T12:03:11.001Z</time></trkpt><trkpt lat="45.919340394821035" lon="11.675934034074045"><ele>1084.0</ele><time>2026-04-23T12:03:12.001Z</time></trkpt><trkpt lat="45.919510470371776" lon="11.676005282659718"><ele>1084.0</ele><time>2026-04-23T12:03:13.001Z</time></trkpt><trkpt lat="45.91971940088621" lon="11.676066945362042"><ele>1084.0</ele><time>2026-04-23T12:03:14.001Z</time></trkpt><trkpt lat="45.91995416967076" lon="11.676134533022415"><ele>1079.0</ele><time>2026-04-23T12:03:15.001Z</time></trkpt><trkpt lat="45.92015977728733" lon="11.676195079231677"><ele>1074.0</ele><time>2026-04-23T12:03:16.001Z</time></trkpt><trkpt lat="45.92033694953177" lon="11.676239627952077"><ele>1069.0</ele><time>2026-04-23T12:03:17.001Z</time></trkpt><trkpt lat="45.920497267926834" lon="11.676248005137111"><ele>1069.0</ele><time>2026-04-23T12:03:18.001Z</time></trkpt><trkpt lat="45.92064093588605" lon="11.676222678407843"><ele>1069.0</ele><time>2026-04-23T12:03:19.001Z</time></trkpt><trkpt lat="45.920775560197214" lon="11.67622694159245"><ele>1069.0</ele><time>2026-04-23T12:03:20.001Z</time></trkpt><trkpt lat="45.92090711436937" lon="11.676286536865637"><ele>1069.0</ele><time>2026-04-23T12:03:21.001Z</time></trkpt><trkpt lat="45.92104850877216" lon="11.676402828210323"><ele>1073.0</ele><time>2026-04-23T12:03:22.001Z</time></trkpt><trkpt lat="45.921190546959295" lon="11.676530356506289"><ele>1077.0</ele><time>2026-04-23T12:03:23.001Z</time></trkpt><trkpt lat="45.921322934179486" lon="11.676610762173757"><ele>1081.0</ele><time>2026-04-23T12:03:24.001Z</time></trkpt><trkpt lat="45.92148204114368" lon="11.676638360143382"><ele>1081.0</ele><time>2026-04-23T12:03:25.001Z</time></trkpt><trkpt lat="45.9216744500074" lon="11.676624502156253"><ele>1081.0</ele><time>2026-04-23T12:03:26.001Z</time></trkpt><trkpt lat="45.92189948835997" lon="11.67658938796542"><ele>1081.0</ele><time>2026-04-23T12:03:27.001Z</time></trkpt><trkpt lat="45.92215191215455" lon="11.676550182417106"><ele>1081.5</ele><time>2026-04-23T12:03:28.001Z</time></trkpt><trkpt lat="45.92242251323031" lon="11.676516063104227"><ele>1082.0</ele><time>2026-04-23T12:03:29.001Z</time></trkpt><trkpt lat="45.92265685380234" lon="11.676483852791705"><ele>1082.0</ele><time>2026-04-23T12:03:30.001Z</time></trkpt><trkpt lat="45.92286299710512" lon="11.676426672073607"><ele>1082.0</ele><time>2026-04-23T12:03:31.001Z</time></trkpt><trkpt lat="45.92306263676669" lon="11.67638335444073"><ele>1082.0</ele><time>2026-04-23T12:03:32.001Z</time></trkpt><trkpt lat="45.923247050522995" lon="11.676295711064874"><ele>1080.6666666666667</ele><time>2026-04-23T12:03:33.001Z</time></trkpt><trkpt lat="45.92343051066333" lon="11.676268726611456"><ele>1079.3333333333333</ele><time>2026-04-23T12:03:34.001Z</time></trkpt><trkpt lat="45.92358910728342" lon="11.676284420730518"><ele>1078.0</ele><time>2026-04-23T12:03:35.001Z</time></trkpt><trkpt lat="45.92373310752102" lon="11.676328614891885"><ele>1078.0</ele><time>2026-04-23T12:03:36.001Z</time></trkpt><trkpt lat="45.92389017874924" lon="11.676328056248952"><ele>1078.0</ele><time>2026-04-23T12:03:37.001Z</time></trkpt><trkpt lat="45.924064087554235" lon="11.676263696158824"><ele>1078.0</ele><time>2026-04-23T12:03:38.001Z</time></trkpt><trkpt lat="45.92426276895095" lon="11.676167905570116"><ele>1078.25</ele><time>2026-04-23T12:03:39.001Z</time></trkpt><trkpt lat="45.92441873874422" lon="11.676129734439849"><ele>1078.5</ele><time>2026-04-23T12:03:40.001Z</time></trkpt><trkpt lat="45.92452590804463" lon="11.67606437550641"><ele>1078.75</ele><time>2026-04-23T12:03:41.001Z</time></trkpt><trkpt lat="45.924636716925875" lon="11.67607431990631"><ele>1079.0</ele><time>2026-04-23T12:03:42.001Z</time></trkpt><trkpt lat="45.92474487528897" lon="11.676150882235913"><ele>1079.0</ele><time>2026-04-23T12:03:43.001Z</time></trkpt><trkpt lat="45.92484631554947" lon="11.676260885137564"><ele>1079.0</ele><time>2026-04-23T12:03:44.001Z</time></trkpt><trkpt lat="45.92494910474602" lon="11.67631787533217"><ele>1079.0</ele><time>2026-04-23T12:03:45.001Z</time></trkpt><trkpt lat="45.9250724673273" lon="11.67630558633789"><ele>1079.0</ele><time>2026-04-23T12:03:46.001Z</time></trkpt><trkpt lat="45.92520183088026" lon="11.676273755477826"><ele>1083.25</ele><time>2026-04-23T12:03:47.001Z</time></trkpt><trkpt lat="45.92533020705915" lon="11.676229439894962"><ele>1087.5</ele><time>2026-04-23T12:03:48.001Z</time></trkpt><trkpt lat="45.92545607027085" lon="11.676289343725982"><ele>1091.75</ele><time>2026-04-23T12:03:49.001Z</time></trkpt><trkpt lat="45.92558223867069" lon="11.676408714650837"><ele>1096.0</ele><time>2026-04-23T12:03:50.001Z</time></trkpt><trkpt lat="45.92572037581201" lon="11.676500613347525"><ele>1098.6666666666665</ele><time>2026-04-23T12:03:51.001Z</time></trkpt><trkpt lat="45.9259004357761" lon="11.676553323033833"><ele>1101.3333333333333</ele><time>2026-04-23T12:03:52.001Z</time></trkpt><trkpt lat="45.926092046042406" lon="11.676587197908875"><ele>1104.0</ele><time>2026-04-23T12:03:53.001Z</time></trkpt><trkpt lat="45.92625467279401" lon="11.67659657495999"><ele>1104.0</ele><time>2026-04-23T12:03:54.001Z</time></trkpt><trkpt lat="45.92642614639681" lon="11.676570484901013"><ele>1104.0</ele><time>2026-04-23T12:03:55.002Z</time></trkpt><trkpt lat="45.92656469862094" lon="11.676531222864991"><ele>1104.0</ele><time>2026-04-23T12:03:56.002Z</time></trkpt><trkpt lat="45.926680867160364" lon="11.676513705042344"><ele>1104.0</ele><time>2026-04-23T12:03:57.002Z</time></trkpt><trkpt lat="45.9267900241886" lon="11.676541999955084"><ele>1109.5</ele><time>2026-04-23T12:03:58.002Z</time></trkpt><trkpt lat="45.92688508319" lon="11.676625727110524"><ele>1115.0</ele><time>2026-04-23T12:03:59.002Z</time></trkpt><trkpt lat="45.9269562961697" lon="11.67675567447309"><ele>1120.5</ele><time>2026-04-23T12:04:00.002Z</time></trkpt><trkpt lat="45.92699136307993" lon="11.676923660284032"><ele>1126.0</ele><time>2026-04-23T12:04:01.002Z</time></trkpt><trkpt lat="45.92699124036455" lon="11.677116671734293"><ele>1126.0</ele><time>2026-04-23T12:04:02.002Z</time></trkpt><trkpt lat="45.92697654938238" lon="11.67732640178234"><ele>1126.0</ele><time>2026-04-23T12:04:03.002Z</time></trkpt><trkpt lat="45.92697354638538" lon="11.677503401894308"><ele>1126.0</ele><time>2026-04-23T12:04:04.002Z</time></trkpt><trkpt lat="45.9270223350916" lon="11.677676306814"><ele>1126.0</ele><time>2026-04-23T12:04:05.002Z</time></trkpt><trkpt lat="45.92710347092095" lon="11.677841039595599"><ele>1125.25</ele><time>2026-04-23T12:04:06.002Z</time></trkpt><trkpt lat="45.927183117314804" lon="11.677968784133924"><ele>1124.5</ele><time>2026-04-23T12:04:07.002Z</time></trkpt><trkpt lat="45.927233969009094" lon="11.678109299025992"><ele>1123.75</ele><time>2026-04-23T12:04:08.002Z</time></trkpt><trkpt lat="45.927245622364396" lon="11.678267852079495"><ele>1123.0</ele><time>2026-04-23T12:04:09.002Z</time></trkpt><trkpt lat="45.92720921220142" lon="11.67843319289584"><ele>1125.3333333333333</ele><time>2026-04-23T12:04:10.002Z</time></trkpt><trkpt lat="45.92713273834866" lon="11.678610194090856"><ele>1127.6666666666667</ele><time>2026-04-23T12:04:11.002Z</time></trkpt><trkpt lat="45.92703817252796" lon="11.678814748889533"><ele>1130.0</ele><time>2026-04-23T12:04:12.002Z</time></trkpt><trkpt lat="45.92694330461747" lon="11.679059537581335"><ele>1130.0</ele><time>2026-04-23T12:04:13.002Z</time></trkpt><trkpt lat="45.9268303985806" lon="11.679333519061347"><ele>1130.0</ele><time>2026-04-23T12:04:14.002Z</time></trkpt><trkpt lat="45.92672340110446" lon="11.679601463712311"><ele>1130.0</ele><time>2026-04-23T12:04:15.002Z</time></trkpt><trkpt lat="45.926608392217425" lon="11.679885019118128"><ele>1121.3333333333335</ele><time>2026-04-23T12:04:16.002Z</time></trkpt><trkpt lat="45.926508809857154" lon="11.680165791571584"><ele>1112.6666666666667</ele><time>2026-04-23T12:04:17.002Z</time></trkpt><trkpt lat="45.92643033540949" lon="11.68043059080976"><ele>1104.0</ele><time>2026-04-23T12:04:18.002Z</time></trkpt><trkpt lat="45.92637511235853" lon="11.680646217696543"><ele>1104.0</ele><time>2026-04-23T12:04:19.002Z</time></trkpt><trkpt lat="45.926325649681075" lon="11.680817213981019"><ele>1104.0</ele><time>2026-04-23T12:04:20.002Z</time></trkpt><trkpt lat="45.92628620965141" lon="11.68096469862283"><ele>1104.0</ele><time>2026-04-23T12:04:21.002Z</time></trkpt><trkpt lat="45.926280046624456" lon="11.68110638886829"><ele>1104.0</ele><time>2026-04-23T12:04:22.002Z</time></trkpt><trkpt lat="45.92631156039866" lon="11.681240678700174"><ele>1104.0</ele><time>2026-04-23T12:04:23.002Z</time></trkpt><trkpt lat="45.92635614913852" lon="11.681365191553015"><ele>1102.2</ele><time>2026-04-23T12:04:24.002Z</time></trkpt><trkpt lat="45.92645079835109" lon="11.681419869449199"><ele>1100.4</ele><time>2026-04-23T12:04:25.002Z</time></trkpt><trkpt lat="45.926548058017794" lon="11.681443566383303"><ele>1098.6</ele><time>2026-04-23T12:04:26.002Z</time></trkpt><trkpt lat="45.92665425579743" lon="11.681426066770424"><ele>1096.8</ele><time>2026-04-23T12:04:27.002Z</time></trkpt><trkpt lat="45.92677182655848" lon="11.681369548100825"><ele>1095.0</ele><time>2026-04-23T12:04:28.002Z</time></trkpt><trkpt lat="45.92691313681255" lon="11.681292192352503"><ele>1095.0</ele><time>2026-04-23T12:04:29.002Z</time></trkpt><trkpt lat="45.927037767748544" lon="11.681246835715095"><ele>1095.0</ele><time>2026-04-23T12:04:30.002Z</time></trkpt><trkpt lat="45.92717284591065" lon="11.681239726230064"><ele>1095.0</ele><time>2026-04-23T12:04:31.002Z</time></trkpt><trkpt lat="45.927333268062796" lon="11.681266005296777"><ele>1095.0</ele><time>2026-04-23T12:04:32.002Z</time></trkpt><trkpt lat="45.92748162115584" lon="11.681287029895103"><ele>1092.0</ele><time>2026-04-23T12:04:33.002Z</time></trkpt><trkpt lat="45.927630443147905" lon="11.68124743294182"><ele>1089.0</ele><time>2026-04-23T12:04:34.002Z</time></trkpt><trkpt lat="45.92780295070841" lon="11.681158207469531"><ele>1086.0</ele><time>2026-04-23T12:04:35.002Z</time></trkpt><trkpt lat="45.92800267934184" lon="11.6810625146204"><ele>1093.3333333333333</ele><time>2026-04-23T12:04:36.002Z</time></trkpt><trkpt lat="45.92820718224418" lon="11.681011644711612"><ele>1100.6666666666665</ele><time>2026-04-23T12:04:37.002Z</time></trkpt><trkpt lat="45.92838277128019" lon="11.680956396702236"><ele>1108.0</ele><time>2026-04-23T12:04:38.002Z</time></trkpt><trkpt lat="45.9285263743459" lon="11.680905198002465"><ele>1110.75</ele><time>2026-04-23T12:04:39.002Z</time></trkpt><trkpt lat="45.92864446943321" lon="11.6808436437646"><ele>1113.5</ele><time>2026-04-23T12:04:40.002Z</time></trkpt><trkpt lat="45.92876232684393" lon="11.680839298707589"><ele>1116.25</ele><time>2026-04-23T12:04:41.002Z</time></trkpt><trkpt lat="45.9288779644115" lon="11.68088239006443"><ele>1119.0</ele><time>2026-04-23T12:04:42.002Z</time></trkpt><trkpt lat="45.92899735670421" lon="11.680974623330084"><ele>1118.0</ele><time>2026-04-23T12:04:43.002Z</time></trkpt><trkpt lat="45.92913446166537" lon="11.68111161580983"><ele>1117.0</ele><time>2026-04-23T12:04:44.002Z</time></trkpt><trkpt lat="45.929285317507954" lon="11.681260248312627"><ele>1116.0</ele><time>2026-04-23T12:04:45.003Z</time></trkpt><trkpt lat="45.92941137568845" lon="11.681377877967869"><ele>1116.0</ele><time>2026-04-23T12:04:46.003Z</time></trkpt><trkpt lat="45.92953046744308" lon="11.681485230670472"><ele>1116.0</ele><time>2026-04-23T12:04:47.003Z</time></trkpt><trkpt lat="45.929630266161396" lon="11.681552773772994"><ele>1116.0</ele><time>2026-04-23T12:04:48.003Z</time></trkpt><trkpt lat="45.92973591486316" lon="11.681575722320261"><ele>1116.0</ele><time>2026-04-23T12:04:49.003Z</time></trkpt><trkpt lat="45.929851529735664" lon="11.681571114794002"><ele>1116.0</ele><time>2026-04-23T12:04:50.003Z</time></trkpt><trkpt lat="45.9299758516682" lon="11.681556621224674"><ele>1116.0</ele><time>2026-04-23T12:04:51.003Z</time></trkpt><trkpt lat="45.93007986055326" lon="11.681574167935299"><ele>1116.0</ele><time>2026-04-23T12:04:52.003Z</time></trkpt><trkpt lat="45.93017075774761" lon="11.681633878287364"><ele>1116.0</ele><time>2026-04-23T12:04:53.003Z</time></trkpt><trkpt lat="45.93025438267653" lon="11.681737750707368"><ele>1116.0</ele><time>2026-04-23T12:04:54.003Z</time></trkpt><trkpt lat="45.93034134028687" lon="11.681888646159912"><ele>1115.0</ele><time>2026-04-23T12:04:55.003Z</time></trkpt><trkpt lat="45.93043883203712" lon="11.682053734906072"><ele>1114.0</ele><time>2026-04-23T12:04:56.002Z</time></trkpt><trkpt lat="45.93055253489355" lon="11.682181011661454"><ele>1113.0</ele><time>2026-04-23T12:04:57.002Z</time></trkpt><trkpt lat="45.93071124991638" lon="11.682305380950034"><ele>1122.5</ele><time>2026-04-23T12:04:58.002Z</time></trkpt><trkpt lat="45.9309086442207" lon="11.68244614092931"><ele>1132.0</ele><time>2026-04-23T12:04:59.002Z</time></trkpt><trkpt lat="45.931123512574864" lon="11.682613538598458"><ele>1120.0</ele><time>2026-04-23T12:05:00.002Z</time></trkpt><trkpt lat="45.93136404730641" lon="11.682808836669592"><ele>1108.0</ele><time>2026-04-23T12:05:01.002Z</time></trkpt><trkpt lat="45.9315894711245" lon="11.682987818438594"><ele>1118.5</ele><time>2026-04-23T12:05:02.002Z</time></trkpt><trkpt lat="45.93181276588305" lon="11.68316363527266"><ele>1129.0</ele><time>2026-04-23T12:05:03.002Z</time></trkpt><trkpt lat="45.93201479824613" lon="11.683322337709575"><ele>1129.0</ele><time>2026-04-23T12:05:04.002Z</time></trkpt><trkpt lat="45.93217617893674" lon="11.683446820901551"><ele>1129.0</ele><time>2026-04-23T12:05:05.002Z</time></trkpt><trkpt lat="45.932324671495614" lon="11.683563147495942"><ele>1129.0</ele><time>2026-04-23T12:05:06.002Z</time></trkpt><trkpt lat="45.93245653440081" lon="11.683699004969895"><ele>1136.3333333333333</ele><time>2026-04-23T12:05:07.002Z</time></trkpt><trkpt lat="45.932559518039724" lon="11.683872283885416"><ele>1143.6666666666667</ele><time>2026-04-23T12:05:08.002Z</time></trkpt><trkpt lat="45.93264305053279" lon="11.68407983477847"><ele>1151.0</ele><time>2026-04-23T12:05:09.002Z</time></trkpt><trkpt lat="45.93269701510963" lon="11.68430086362252"><ele>1147.3333333333335</ele><time>2026-04-23T12:05:10.002Z</time></trkpt><trkpt lat="45.932717397918346" lon="11.684528667378144"><ele>1143.6666666666667</ele><time>2026-04-23T12:05:11.001Z</time></trkpt><trkpt lat="45.93271232872831" lon="11.684779168251374"><ele>1140.0</ele><time>2026-04-23T12:05:12.001Z</time></trkpt><trkpt lat="45.93270998634341" lon="11.685031541097736"><ele>1137.3333333333333</ele><time>2026-04-23T12:05:13.001Z</time></trkpt><trkpt lat="45.93274227855964" lon="11.68527632677453"><ele>1134.6666666666665</ele><time>2026-04-23T12:05:14.001Z</time></trkpt><trkpt lat="45.93280477721957" lon="11.685537045019487"><ele>1132.0</ele><time>2026-04-23T12:05:15.001Z</time></trkpt><trkpt lat="45.93285999085359" lon="11.68577859451421"><ele>1132.0</ele><time>2026-04-23T12:05:16.001Z</time></trkpt><trkpt lat="45.93288417027145" lon="11.68600268057007"><ele>1132.0</ele><time>2026-04-23T12:05:17.001Z</time></trkpt><trkpt lat="45.93287376897169" lon="11.686224190469689"><ele>1132.0</ele><time>2026-04-23T12:05:18.001Z</time></trkpt><trkpt lat="45.93282637857031" lon="11.68645601272559"><ele>1132.0</ele><time>2026-04-23T12:05:19.001Z</time></trkpt><trkpt lat="45.93276364865004" lon="11.686707113610803"><ele>1132.0</ele><time>2026-04-23T12:05:20.001Z</time></trkpt><trkpt lat="45.932716494262486" lon="11.686979542358332"><ele>1132.0</ele><time>2026-04-23T12:05:21.001Z</time></trkpt><trkpt lat="45.93268794211974" lon="11.687298179869524"><ele>1129.6666666666665</ele><time>2026-04-23T12:05:22.001Z</time></trkpt><trkpt lat="45.932661671679256" lon="11.687634653087857"><ele>1127.3333333333333</ele><time>2026-04-23T12:05:23.001Z</time></trkpt><trkpt lat="45.93263230254564" lon="11.687935021235191"><ele>1125.0</ele><time>2026-04-23T12:05:24.001Z</time></trkpt><trkpt lat="45.93259593343734" lon="11.688218836436599"><ele>1115.3333333333333</ele><time>2026-04-23T12:05:25.001Z</time></trkpt><trkpt lat="45.93254368679872" lon="11.688480548312949"><ele>1105.6666666666665</ele><time>2026-04-23T12:05:26.001Z</time></trkpt><trkpt lat="45.932486050703616" lon="11.688726988780695"><ele>1096.0</ele><time>2026-04-23T12:05:27.001Z</time></trkpt><trkpt lat="45.93245411977073" lon="11.688961412298243"><ele>1095.0</ele><time>2026-04-23T12:05:28.001Z</time></trkpt><trkpt lat="45.932453138306954" lon="11.689239537076924"><ele>1094.0</ele><time>2026-04-23T12:05:29.001Z</time></trkpt><trkpt lat="45.932458937394635" lon="11.689574218914574"><ele>1093.0</ele><time>2026-04-23T12:05:30.001Z</time></trkpt><trkpt lat="45.93246294649513" lon="11.68991151468807"><ele>1088.5</ele><time>2026-04-23T12:05:31.001Z</time></trkpt><trkpt lat="45.93246601158535" lon="11.690242690993063"><ele>1084.0</ele><time>2026-04-23T12:05:32.001Z</time></trkpt><trkpt lat="45.93247108782949" lon="11.690596830364564"><ele>1083.6666666666665</ele><time>2026-04-23T12:05:33.001Z</time></trkpt><trkpt lat="45.93247805132571" lon="11.69091948796822"><ele>1083.3333333333333</ele><time>2026-04-23T12:05:34.001Z</time></trkpt><trkpt lat="45.932466907838204" lon="11.691230605915518"><ele>1083.0</ele><time>2026-04-23T12:05:35.001Z</time></trkpt><trkpt lat="45.93243255570405" lon="11.691530514160368"><ele>1083.0</ele><time>2026-04-23T12:05:36.001Z</time></trkpt><trkpt lat="45.932373146184425" lon="11.691844030540233"><ele>1083.0</ele><time>2026-04-23T12:05:37.001Z</time></trkpt><trkpt lat="45.932304068677425" lon="11.692160513665787"><ele>1084.3333333333333</ele><time>2026-04-23T12:05:38.001Z</time></trkpt><trkpt lat="45.932255552017914" lon="11.69241123848759"><ele>1085.6666666666665</ele><time>2026-04-23T12:05:39.001Z</time></trkpt><trkpt lat="45.93220392293308" lon="11.69262691920266"><ele>1087.0</ele><time>2026-04-23T12:05:40.001Z</time></trkpt><trkpt lat="45.93213166472367" lon="11.692840873593733"><ele>1087.3333333333333</ele><time>2026-04-23T12:05:41.001Z</time></trkpt><trkpt lat="45.932028760134955" lon="11.693065662270401"><ele>1087.6666666666667</ele><time>2026-04-23T12:05:42.001Z</time></trkpt><trkpt lat="45.93189543655581" lon="11.693304546200439"><ele>1088.0</ele><time>2026-04-23T12:05:43.001Z</time></trkpt><trkpt lat="45.931754009374124" lon="11.693543130164446"><ele>1083.3333333333335</ele><time>2026-04-23T12:05:44.001Z</time></trkpt><trkpt lat="45.93161832835878" lon="11.693745047218977"><ele>1078.6666666666667</ele><time>2026-04-23T12:05:45.001Z</time></trkpt><trkpt lat="45.93146941900331" lon="11.69394520286813"><ele>1074.0</ele><time>2026-04-23T12:05:46.001Z</time></trkpt><trkpt lat="45.93132268970344" lon="11.694117919854659"><ele>1074.0</ele><time>2026-04-23T12:05:47.001Z</time></trkpt><trkpt lat="45.931194291352774" lon="11.694255163161898"><ele>1074.0</ele><time>2026-04-23T12:05:48.001Z</time></trkpt><trkpt lat="45.93106924425611" lon="11.694420245369564"><ele>1074.0</ele><time>2026-04-23T12:05:49.001Z</time></trkpt><trkpt lat="45.930960884743094" lon="11.69462101914435"><ele>1070.6666666666667</ele><time>2026-04-23T12:05:50.001Z</time></trkpt><trkpt lat="45.9308698060196" lon="11.694832281239213"><ele>1067.3333333333335</ele><time>2026-04-23T12:05:51.001Z</time></trkpt><trkpt lat="45.93079745611475" lon="11.695093506141351"><ele>1064.0</ele><time>2026-04-23T12:05:52.001Z</time></trkpt><trkpt lat="45.93073726172781" lon="11.695395399737135"><ele>1063.75</ele><time>2026-04-23T12:05:53.001Z</time></trkpt><trkpt lat="45.93068851494344" lon="11.695638439247281"><ele>1063.5</ele><time>2026-04-23T12:05:54.002Z</time></trkpt><trkpt lat="45.930640407676734" lon="11.695838536607738"><ele>1063.25</ele><time>2026-04-23T12:05:55.002Z</time></trkpt><trkpt lat="45.930601460457844" lon="11.696009684475722"><ele>1063.0</ele><time>2026-04-23T12:05:56.002Z</time></trkpt><trkpt lat="45.93059148165813" lon="11.696181453192946"><ele>1062.0</ele><time>2026-04-23T12:05:57.002Z</time></trkpt><trkpt lat="45.93062489195552" lon="11.696333378857656"><ele>1061.0</ele><time>2026-04-23T12:05:58.002Z</time></trkpt><trkpt lat="45.93068782298932" lon="11.696455608255166"><ele>1060.0</ele><time>2026-04-23T12:05:59.002Z</time></trkpt><trkpt lat="45.930765642568026" lon="11.696552900983317"><ele>1059.0</ele><time>2026-04-23T12:06:00.002Z</time></trkpt><trkpt lat="45.93089949289254" lon="11.69655475218427"><ele>1057.3333333333333</ele><time>2026-04-23T12:06:01.002Z</time></trkpt><trkpt lat="45.931056995033224" lon="11.696602033452262"><ele>1055.6666666666665</ele><time>2026-04-23T12:06:02.002Z</time></trkpt><trkpt lat="45.93122360565785" lon="11.696632206894293"><ele>1054.0</ele><time>2026-04-23T12:06:03.002Z</time></trkpt><trkpt lat="45.93138837144648" lon="11.696662046183436"><ele>1054.0</ele><time>2026-04-23T12:06:04.002Z</time></trkpt><trkpt lat="45.931556741925434" lon="11.696692538309993"><ele>1054.0</ele><time>2026-04-23T12:06:05.002Z</time></trkpt><trkpt lat="45.93169353331365" lon="11.696691520610202"><ele>1054.0</ele><time>2026-04-23T12:06:06.002Z</time></trkpt><trkpt lat="45.931809713524416" lon="11.696707655639512"><ele>1054.0</ele><time>2026-04-23T12:06:07.002Z</time></trkpt><trkpt lat="45.93190919836339" lon="11.696659030236459"><ele>1053.0</ele><time>2026-04-23T12:06:08.002Z</time></trkpt><trkpt lat="45.93197859475448" lon="11.696515988328997"><ele>1052.0</ele><time>2026-04-23T12:06:09.002Z</time></trkpt><trkpt lat="45.93203836400989" lon="11.696363548099917"><ele>1051.0</ele><time>2026-04-23T12:06:10.002Z</time></trkpt><trkpt lat="45.93209871292534" lon="11.69625754160809"><ele>1050.0</ele><time>2026-04-23T12:06:11.002Z</time></trkpt><trkpt lat="45.9321684276774" lon="11.696176734247365"><ele>1049.0</ele><time>2026-04-23T12:06:12.002Z</time></trkpt><trkpt lat="45.93226627034147" lon="11.696158616301851"><ele>1049.0</ele><time>2026-04-23T12:06:13.002Z</time></trkpt><trkpt lat="45.93237525943726" lon="11.696197851103884"><ele>1049.0</ele><time>2026-04-23T12:06:14.002Z</time></trkpt><trkpt lat="45.932502795930446" lon="11.696278297919372"><ele>1049.0</ele><time>2026-04-23T12:06:15.002Z</time></trkpt><trkpt lat="45.93264761335088" lon="11.696393677326734"><ele>1049.0</ele><time>2026-04-23T12:06:16.002Z</time></trkpt><trkpt lat="45.93277641942354" lon="11.696515636388455"><ele>1046.25</ele><time>2026-04-23T12:06:17.002Z</time></trkpt><trkpt lat="45.93288388130459" lon="11.696647501267147"><ele>1043.5</ele><time>2026-04-23T12:06:18.002Z</time></trkpt><trkpt lat="45.932982979756005" lon="11.696785460639735"><ele>1040.75</ele><time>2026-04-23T12:06:19.002Z</time></trkpt><trkpt lat="45.933066269434605" lon="11.696903731530483"><ele>1038.0</ele><time>2026-04-23T12:06:20.002Z</time></trkpt><trkpt lat="45.93315835046862" lon="11.696982692104058"><ele>1036.5</ele><time>2026-04-23T12:06:21.002Z</time></trkpt><trkpt lat="45.93326623396357" lon="11.697004311158363"><ele>1035.0</ele><time>2026-04-23T12:06:22.002Z</time></trkpt><trkpt lat="45.93336848552156" lon="11.696964323933612"><ele>1033.5</ele><time>2026-04-23T12:06:23.002Z</time></trkpt><trkpt lat="45.93346790960954" lon="11.696859247220631"><ele>1032.0</ele><time>2026-04-23T12:06:24.002Z</time></trkpt><trkpt lat="45.93356835600021" lon="11.69670370505399"><ele>1028.6666666666667</ele><time>2026-04-23T12:06:25.002Z</time></trkpt><trkpt lat="45.93369434444462" lon="11.69651586925685"><ele>1025.3333333333335</ele><time>2026-04-23T12:06:26.002Z</time></trkpt><trkpt lat="45.93381901932482" lon="11.696349748821095"><ele>1022.0</ele><time>2026-04-23T12:06:27.002Z</time></trkpt><trkpt lat="45.93395205524717" lon="11.69616353678196"><ele>1025.3333333333335</ele><time>2026-04-23T12:06:28.002Z</time></trkpt><trkpt lat="45.93406649950553" lon="11.695982410701994"><ele>1028.6666666666667</ele><time>2026-04-23T12:06:29.002Z</time></trkpt><trkpt lat="45.93415665116778" lon="11.695755193340881"><ele>1032.0</ele><time>2026-04-23T12:06:30.002Z</time></trkpt><trkpt lat="45.934224299362015" lon="11.695527092953602"><ele>1025.0</ele><time>2026-04-23T12:06:31.002Z</time></trkpt><trkpt lat="45.93427034857658" lon="11.695313895886766"><ele>1018.0</ele><time>2026-04-23T12:06:32.002Z</time></trkpt><trkpt lat="45.934295018650104" lon="11.695126100259548"><ele>1011.0</ele><time>2026-04-23T12:06:33.002Z</time></trkpt><trkpt lat="45.93430846201507" lon="11.694947429693224"><ele>1004.0</ele><time>2026-04-23T12:06:34.002Z</time></trkpt><trkpt lat="45.93430527107108" lon="11.694822356782357"><ele>1004.0</ele><time>2026-04-23T12:06:35.002Z</time></trkpt><trkpt lat="45.934318870311785" lon="11.69469174598621"><ele>1004.0000000000001</ele><time>2026-04-23T12:06:37.002Z</time></trkpt><trkpt lat="45.93440104291463" lon="11.694697401956104"><ele>1004.0000000000001</ele><time>2026-04-23T12:06:39.002Z</time></trkpt><trkpt lat="45.934412581734634" lon="11.694909738102135"><ele>1004.0</ele><time>2026-04-23T12:06:41.002Z</time></trkpt><trkpt lat="45.934382071491186" lon="11.695077762493845"><ele>1004.0</ele><time>2026-04-23T12:06:42.002Z</time></trkpt><trkpt lat="45.93436504333133" lon="11.69523086860587"><ele>1003.0</ele><time>2026-04-23T12:06:43.002Z</time></trkpt><trkpt lat="45.93434303931202" lon="11.695411947644168"><ele>1002.0</ele><time>2026-04-23T12:06:44.002Z</time></trkpt><trkpt lat="45.9343149995138" lon="11.695648450897398"><ele>1001.0</ele><time>2026-04-23T12:06:45.002Z</time></trkpt><trkpt lat="45.934283644761415" lon="11.695867158421704"><ele>1001.0</ele><time>2026-04-23T12:06:46.002Z</time></trkpt><trkpt lat="45.93424802024185" lon="11.696077539519175"><ele>1001.0</ele><time>2026-04-23T12:06:47.002Z</time></trkpt><trkpt lat="45.93419762520499" lon="11.696276368722144"><ele>1001.0</ele><time>2026-04-23T12:06:48.002Z</time></trkpt><trkpt lat="45.93413315984563" lon="11.69643733220556"><ele>1001.0</ele><time>2026-04-23T12:06:49.002Z</time></trkpt><trkpt lat="45.93405715361959" lon="11.696553110114722"><ele>1004.0</ele><time>2026-04-23T12:06:50.002Z</time></trkpt><trkpt lat="45.93398738571737" lon="11.696664460220864"><ele>1006.9999999999999</ele><time>2026-04-23T12:06:51.002Z</time></trkpt><trkpt lat="45.93395873852458" lon="11.696798347543645"><ele>1009.9999999999999</ele><time>2026-04-23T12:06:52.002Z</time></trkpt><trkpt lat="45.93396213518768" lon="11.69694946557045"><ele>1013.0</ele><time>2026-04-23T12:06:53.002Z</time></trkpt><trkpt lat="45.934003565310036" lon="11.69711666051386"><ele>1016.0</ele><time>2026-04-23T12:06:54.002Z</time></trkpt><trkpt lat="45.93405567093294" lon="11.69728603220134"><ele>1016.0</ele><time>2026-04-23T12:06:55.002Z</time></trkpt><trkpt lat="45.93406961518151" lon="11.69744243884167"><ele>1016.0</ele><time>2026-04-23T12:06:56.002Z</time></trkpt><trkpt lat="45.93405119482086" lon="11.697597714712282"><ele>1016.0</ele><time>2026-04-23T12:06:57.002Z</time></trkpt><trkpt lat="45.93400510342774" lon="11.697755249634884"><ele>1016.0</ele><time>2026-04-23T12:06:58.002Z</time></trkpt><trkpt lat="45.93392790827869" lon="11.697930349840998"><ele>1014.0</ele><time>2026-04-23T12:06:59.002Z</time></trkpt><trkpt lat="45.93383368952825" lon="11.698063548544598"><ele>1012.0</ele><time>2026-04-23T12:07:00.002Z</time></trkpt><trkpt lat="45.93374611876092" lon="11.69815825599503"><ele>1010.0</ele><time>2026-04-23T12:07:01.003Z</time></trkpt><trkpt lat="45.93364638873079" lon="11.698196944094065"><ele>1008.0</ele><time>2026-04-23T12:07:02.002Z</time></trkpt><trkpt lat="45.93351901922808" lon="11.698216682085647"><ele>1008.75</ele><time>2026-04-23T12:07:03.002Z</time></trkpt><trkpt lat="45.933369752494244" lon="11.69821578397692"><ele>1009.5</ele><time>2026-04-23T12:07:04.002Z</time></trkpt><trkpt lat="45.93324267281103" lon="11.698208752708602"><ele>1010.25</ele><time>2026-04-23T12:07:05.002Z</time></trkpt><trkpt lat="45.93311274686598" lon="11.698154665125319"><ele>1011.0</ele><time>2026-04-23T12:07:06.002Z</time></trkpt><trkpt lat="45.93296117146369" lon="11.698060150365835"><ele>1011.0</ele><time>2026-04-23T12:07:07.002Z</time></trkpt><trkpt lat="45.93284140448796" lon="11.697961538631459"><ele>1011.0</ele><time>2026-04-23T12:07:08.002Z</time></trkpt><trkpt lat="45.93273556523672" lon="11.697902768934794"><ele>1011.0</ele><time>2026-04-23T12:07:09.002Z</time></trkpt><trkpt lat="45.93263049020188" lon="11.697900591088379"><ele>1011.0</ele><time>2026-04-23T12:07:10.002Z</time></trkpt><trkpt lat="45.9325337960632" lon="11.697950168832694"><ele>1011.5</ele><time>2026-04-23T12:07:11.002Z</time></trkpt><trkpt lat="45.93244328947634" lon="11.69803426057414"><ele>1012.0</ele><time>2026-04-23T12:07:12.002Z</time></trkpt><trkpt lat="45.93238887953333" lon="11.698211271183608"><ele>1012.5</ele><time>2026-04-23T12:07:13.002Z</time></trkpt><trkpt lat="45.9323283223892" lon="11.69839912941508"><ele>1013.0</ele><time>2026-04-23T12:07:14.002Z</time></trkpt><trkpt lat="45.93227088126806" lon="11.69852438207986"><ele>1007.0</ele><time>2026-04-23T12:07:15.001Z</time></trkpt><trkpt lat="45.93218406036639" lon="11.698613823030326"><ele>1001.0</ele><time>2026-04-23T12:07:16.001Z</time></trkpt><trkpt lat="45.932072669085215" lon="11.698665021746722"><ele>995.0</ele><time>2026-04-23T12:07:17.001Z</time></trkpt><trkpt lat="45.93194056290415" lon="11.698671740944695"><ele>989.0</ele><time>2026-04-23T12:07:18.001Z</time></trkpt><trkpt lat="45.93183055221953" lon="11.698681884837319"><ele>989.0</ele><time>2026-04-23T12:07:19.001Z</time></trkpt><trkpt lat="45.93173608719919" lon="11.69876569835383"><ele>989.0</ele><time>2026-04-23T12:07:20.001Z</time></trkpt><trkpt lat="45.93167623991032" lon="11.698896617826477"><ele>989.0</ele><time>2026-04-23T12:07:21.001Z</time></trkpt><trkpt lat="45.93165274638282" lon="11.699053440667072"><ele>989.0</ele><time>2026-04-23T12:07:22.001Z</time></trkpt><trkpt lat="45.931669572912064" lon="11.699238100047932"><ele>990.5</ele><time>2026-04-23T12:07:23.001Z</time></trkpt><trkpt lat="45.93169024151839" lon="11.699432769769883"><ele>992.0</ele><time>2026-04-23T12:07:24.001Z</time></trkpt><trkpt lat="45.931713274429015" lon="11.699590148529893"><ele>993.5</ele><time>2026-04-23T12:07:25.001Z</time></trkpt><trkpt lat="45.931707283868" lon="11.699738671266067"><ele>995.0</ele><time>2026-04-23T12:07:26.001Z</time></trkpt><trkpt lat="45.931681663869796" lon="11.699886854033828"><ele>995.0</ele><time>2026-04-23T12:07:27.001Z</time></trkpt><trkpt lat="45.93158865913328" lon="11.700024450261123"><ele>995.0</ele><time>2026-04-23T12:07:28.001Z</time></trkpt><trkpt lat="45.93145669486158" lon="11.700171912099332"><ele>995.0</ele><time>2026-04-23T12:07:29.001Z</time></trkpt><trkpt lat="45.931284581099035" lon="11.700363821486647"><ele>989.5</ele><time>2026-04-23T12:07:30.001Z</time></trkpt><trkpt lat="45.93110481070733" lon="11.700564320586642"><ele>984.0</ele><time>2026-04-23T12:07:31.001Z</time></trkpt><trkpt lat="45.93089952775154" lon="11.700797674194252"><ele>985.0</ele><time>2026-04-23T12:07:32.001Z</time></trkpt><trkpt lat="45.930685391203475" lon="11.701031067075867"><ele>986.0</ele><time>2026-04-23T12:07:33.001Z</time></trkpt><trkpt lat="45.93045536394419" lon="11.701284250181503"><ele>982.0</ele><time>2026-04-23T12:07:34.001Z</time></trkpt><trkpt lat="45.93020723703215" lon="11.701557218020483"><ele>978.0</ele><time>2026-04-23T12:07:35.001Z</time></trkpt><trkpt lat="45.929989347769315" lon="11.701798523530616"><ele>971.5</ele><time>2026-04-23T12:07:36.001Z</time></trkpt><trkpt lat="45.92978519596239" lon="11.70201991298586"><ele>965.0</ele><time>2026-04-23T12:07:37.001Z</time></trkpt><trkpt lat="45.929593482799085" lon="11.702233343101309"><ele>965.0</ele><time>2026-04-23T12:07:38.001Z</time></trkpt><trkpt lat="45.92942634724878" lon="11.702418582910852"><ele>965.0</ele><time>2026-04-23T12:07:39.001Z</time></trkpt><trkpt lat="45.92928065773588" lon="11.702575386513358"><ele>965.0</ele><time>2026-04-23T12:07:40.001Z</time></trkpt><trkpt lat="45.92916467997611" lon="11.702705861891262"><ele>964.5</ele><time>2026-04-23T12:07:41.001Z</time></trkpt><trkpt lat="45.9290740339025" lon="11.70281429580811"><ele>964.0</ele><time>2026-04-23T12:07:42.001Z</time></trkpt><trkpt lat="45.92899570340599" lon="11.702936324429075"><ele>963.5</ele><time>2026-04-23T12:07:43.001Z</time></trkpt><trkpt lat="45.92894477885742" lon="11.70308830654313"><ele>963.0</ele><time>2026-04-23T12:07:44.001Z</time></trkpt><trkpt lat="45.92891455871565" lon="11.703260145232642"><ele>963.0</ele><time>2026-04-23T12:07:45.001Z</time></trkpt><trkpt lat="45.92891129580009" lon="11.703439267138682"><ele>963.0</ele><time>2026-04-23T12:07:46.001Z</time></trkpt><trkpt lat="45.92893795883374" lon="11.703633875877596"><ele>963.0</ele><time>2026-04-23T12:07:47.001Z</time></trkpt><trkpt lat="45.929004097400686" lon="11.70380082685729"><ele>963.0</ele><time>2026-04-23T12:07:48.001Z</time></trkpt><trkpt lat="45.92909348590546" lon="11.703934985173136"><ele>961.25</ele><time>2026-04-23T12:07:49.001Z</time></trkpt><trkpt lat="45.92920301784252" lon="11.704022798412641"><ele>959.5</ele><time>2026-04-23T12:07:50.001Z</time></trkpt><trkpt lat="45.929320124226884" lon="11.704070850264978"><ele>957.75</ele><time>2026-04-23T12:07:51.001Z</time></trkpt><trkpt lat="45.929439112108156" lon="11.704080317683127"><ele>956.0</ele><time>2026-04-23T12:07:52.001Z</time></trkpt><trkpt lat="45.929559028231346" lon="11.704050912963853"><ele>955.5</ele><time>2026-04-23T12:07:53.001Z</time></trkpt><trkpt lat="45.929677447983636" lon="11.703973439418988"><ele>955.0</ele><time>2026-04-23T12:07:54.001Z</time></trkpt><trkpt lat="45.92978259677122" lon="11.703848203439911"><ele>954.5</ele><time>2026-04-23T12:07:55.001Z</time></trkpt><trkpt lat="45.929865845802055" lon="11.70368017517175"><ele>954.0</ele><time>2026-04-23T12:07:56.001Z</time></trkpt><trkpt lat="45.929937598728166" lon="11.703459461528585"><ele>954.0</ele><time>2026-04-23T12:07:57.001Z</time></trkpt><trkpt lat="45.93000608485113" lon="11.70324614712801"><ele>954.0</ele><time>2026-04-23T12:07:58.001Z</time></trkpt><trkpt lat="45.93005956835476" lon="11.703092053333272"><ele>954.0</ele><time>2026-04-23T12:07:59.001Z</time></trkpt><trkpt lat="45.930132027521275" lon="11.702983075079702"><ele>954.0</ele><time>2026-04-23T12:08:00.001Z</time></trkpt><trkpt lat="45.93020079783041" lon="11.702883515627901"><ele>954.5</ele><time>2026-04-23T12:08:01.001Z</time></trkpt><trkpt lat="45.93029634750224" lon="11.702862837951033"><ele>955.0</ele><time>2026-04-23T12:08:02.001Z</time></trkpt><trkpt lat="45.93039855802327" lon="11.702891999630214"><ele>955.5</ele><time>2026-04-23T12:08:03.001Z</time></trkpt><trkpt lat="45.93049492665671" lon="11.70299438504135"><ele>956.0</ele><time>2026-04-23T12:08:04.001Z</time></trkpt><trkpt lat="45.930567433243546" lon="11.703152287706201"><ele>956.0</ele><time>2026-04-23T12:08:05.001Z</time></trkpt><trkpt lat="45.93066796462137" lon="11.703276602403719"><ele>956.0</ele><time>2026-04-23T12:08:06.001Z</time></trkpt><trkpt lat="45.930788900796685" lon="11.703374096929476"><ele>956.0</ele><time>2026-04-23T12:08:07.001Z</time></trkpt><trkpt lat="45.93095109903269" lon="11.703444813112142"><ele>956.0</ele><time>2026-04-23T12:08:08.001Z</time></trkpt><trkpt lat="45.931104881680994" lon="11.703504647159555"><ele>954.5</ele><time>2026-04-23T12:08:09.001Z</time></trkpt><trkpt lat="45.931230264996664" lon="11.703535384771206"><ele>953.0</ele><time>2026-04-23T12:08:10.001Z</time></trkpt><trkpt lat="45.931352373233935" lon="11.70351248113175"><ele>951.5</ele><time>2026-04-23T12:08:11.001Z</time></trkpt><trkpt lat="45.931457356571734" lon="11.70344505542606"><ele>950.0</ele><time>2026-04-23T12:08:12.001Z</time></trkpt><trkpt lat="45.93156198618567" lon="11.703321134544948"><ele>950.0</ele><time>2026-04-23T12:08:13.001Z</time></trkpt><trkpt lat="45.93168409546701" lon="11.703126985079795"><ele>950.0</ele><time>2026-04-23T12:08:14.001Z</time></trkpt><trkpt lat="45.93182222100387" lon="11.702896123808422"><ele>950.0</ele><time>2026-04-23T12:08:15.001Z</time></trkpt><trkpt lat="45.93194471053994" lon="11.702678865800703"><ele>944.6666666666667</ele><time>2026-04-23T12:08:16.001Z</time></trkpt><trkpt lat="45.932076689627664" lon="11.702469932061977"><ele>939.3333333333333</ele><time>2026-04-23T12:08:17.001Z</time></trkpt><trkpt lat="45.93217449892516" lon="11.70231051796473"><ele>934.0</ele><time>2026-04-23T12:08:18.001Z</time></trkpt><trkpt lat="45.93226054780033" lon="11.702190511269496"><ele>934.0</ele><time>2026-04-23T12:08:19.001Z</time></trkpt><trkpt lat="45.932363550789226" lon="11.702113231390383"><ele>934.0</ele><time>2026-04-23T12:08:20.001Z</time></trkpt><trkpt lat="45.932480957571414" lon="11.702089746688538"><ele>934.0</ele><time>2026-04-23T12:08:21.001Z</time></trkpt><trkpt lat="45.932624630484035" lon="11.702105428545593"><ele>934.0</ele><time>2026-04-23T12:08:22.001Z</time></trkpt><trkpt lat="45.93274417812375" lon="11.702098054721839"><ele>933.5</ele><time>2026-04-23T12:08:23.001Z</time></trkpt><trkpt lat="45.93284386721916" lon="11.702025597216345"><ele>933.0</ele><time>2026-04-23T12:08:24.001Z</time></trkpt><trkpt lat="45.93292588544082" lon="11.701917300624315"><ele>932.5</ele><time>2026-04-23T12:08:25.001Z</time></trkpt><trkpt lat="45.932993907740126" lon="11.701784594923906"><ele>932.0</ele><time>2026-04-23T12:08:26.001Z</time></trkpt><trkpt lat="45.93305486334309" lon="11.701617817811524"><ele>932.0</ele><time>2026-04-23T12:08:27.002Z</time></trkpt><trkpt lat="45.933095704365215" lon="11.701477778352892"><ele>932.0</ele><time>2026-04-23T12:08:28.002Z</time></trkpt><trkpt lat="45.93316357694158" lon="11.701385057973631"><ele>932.0</ele><time>2026-04-23T12:08:29.002Z</time></trkpt><trkpt lat="45.93325356858104" lon="11.701342722681213"><ele>932.0</ele><time>2026-04-23T12:08:30.002Z</time></trkpt><trkpt lat="45.93333705402273" lon="11.701380931016383"><ele>932.0</ele><time>2026-04-23T12:08:31.002Z</time></trkpt><trkpt lat="45.93341832508272" lon="11.701456443855443"><ele>932.0</ele><time>2026-04-23T12:08:32.002Z</time></trkpt><trkpt lat="45.93351933385777" lon="11.701573567593798"><ele>932.0</ele><time>2026-04-23T12:08:33.002Z</time></trkpt><trkpt lat="45.93366746591165" lon="11.701705992086813"><ele>932.0</ele><time>2026-04-23T12:08:34.002Z</time></trkpt><trkpt lat="45.9338181916617" lon="11.701889855956766"><ele>927.6666666666667</ele><time>2026-04-23T12:08:35.002Z</time></trkpt><trkpt lat="45.93395915683183" lon="11.702041884237458"><ele>923.3333333333333</ele><time>2026-04-23T12:08:36.002Z</time></trkpt><trkpt lat="45.93408757442323" lon="11.702194590345256"><ele>919.0</ele><time>2026-04-23T12:08:37.002Z</time></trkpt><trkpt lat="45.934185211389185" lon="11.702300625049997"><ele>916.5</ele><time>2026-04-23T12:08:38.002Z</time></trkpt><trkpt lat="45.93428592417743" lon="11.702387076771767"><ele>914.0</ele><time>2026-04-23T12:08:39.002Z</time></trkpt><trkpt lat="45.93440756099058" lon="11.702428184951684"><ele>911.5</ele><time>2026-04-23T12:08:40.002Z</time></trkpt><trkpt lat="45.93455283977347" lon="11.702437089184953"><ele>909.0</ele><time>2026-04-23T12:08:41.002Z</time></trkpt><trkpt lat="45.93472335814488" lon="11.702419248759313"><ele>909.0</ele><time>2026-04-23T12:08:42.002Z</time></trkpt><trkpt lat="45.934867564796846" lon="11.702377764412235"><ele>909.0</ele><time>2026-04-23T12:08:43.002Z</time></trkpt><trkpt lat="45.93501294302459" lon="11.702288004775024"><ele>909.0</ele><time>2026-04-23T12:08:44.002Z</time></trkpt><trkpt lat="45.93515724963724" lon="11.702161686676883"><ele>907.3333333333333</ele><time>2026-04-23T12:08:45.002Z</time></trkpt><trkpt lat="45.935313022637445" lon="11.701993378449938"><ele>905.6666666666666</ele><time>2026-04-23T12:08:46.002Z</time></trkpt><trkpt lat="45.93548833989487" lon="11.701818298944804"><ele>904.0</ele><time>2026-04-23T12:08:47.002Z</time></trkpt><trkpt lat="45.93563697924117" lon="11.701660383183587"><ele>904.0</ele><time>2026-04-23T12:08:48.002Z</time></trkpt><trkpt lat="45.93576289914852" lon="11.70150783237914"><ele>904.0</ele><time>2026-04-23T12:08:49.002Z</time></trkpt><trkpt lat="45.93585931283063" lon="11.701332123873044"><ele>904.0</ele><time>2026-04-23T12:08:50.002Z</time></trkpt><trkpt lat="45.93593388183162" lon="11.701121707536652"><ele>896.3333333333333</ele><time>2026-04-23T12:08:51.002Z</time></trkpt><trkpt lat="45.93599763828904" lon="11.700846955747142"><ele>888.6666666666667</ele><time>2026-04-23T12:08:52.002Z</time></trkpt><trkpt lat="45.93606586693026" lon="11.700509620744088"><ele>881.0</ele><time>2026-04-23T12:08:53.002Z</time></trkpt><trkpt lat="45.936132515379676" lon="11.700143193251524"><ele>881.0</ele><time>2026-04-23T12:08:54.002Z</time></trkpt><trkpt lat="45.93620157465716" lon="11.699793031212941"><ele>881.0</ele><time>2026-04-23T12:08:55.002Z</time></trkpt><trkpt lat="45.93628126920232" lon="11.699405123286553"><ele>884.0</ele><time>2026-04-23T12:08:56.002Z</time></trkpt><trkpt lat="45.93635099902171" lon="11.699026668791198"><ele>887.0</ele><time>2026-04-23T12:08:57.002Z</time></trkpt><trkpt lat="45.93641594835637" lon="11.698677809574733"><ele>888.5</ele><time>2026-04-23T12:08:58.002Z</time></trkpt><trkpt lat="45.936479463667744" lon="11.698335894506647"><ele>890.0</ele><time>2026-04-23T12:08:59.002Z</time></trkpt><trkpt lat="45.93653081680543" lon="11.69796893130065"><ele>892.0</ele><time>2026-04-23T12:09:00.002Z</time></trkpt><trkpt lat="45.936574217197894" lon="11.697572736034093"><ele>894.0</ele><time>2026-04-23T12:09:01.002Z</time></trkpt><trkpt lat="45.93659893791519" lon="11.697172583847525"><ele>895.0</ele><time>2026-04-23T12:09:02.002Z</time></trkpt><trkpt lat="45.93664379742856" lon="11.696827017808035"><ele>896.0</ele><time>2026-04-23T12:09:03.002Z</time></trkpt><trkpt lat="45.9366668083154" lon="11.696546115279892"><ele>897.0</ele><time>2026-04-23T12:09:04.002Z</time></trkpt><trkpt lat="45.936684696495895" lon="11.696323258762739"><ele>897.0</ele><time>2026-04-23T12:09:05.002Z</time></trkpt><trkpt lat="45.9366967341178" lon="11.696171470773152"><ele>897.0</ele><time>2026-04-23T12:09:06.002Z</time></trkpt><trkpt lat="45.936718141113246" lon="11.696043832757933"><ele>897.0</ele><time>2026-04-23T12:09:07.002Z</time></trkpt><trkpt lat="45.93674335422851" lon="11.695927794837486"><ele>897.0</ele><time>2026-04-23T12:09:08.001Z</time></trkpt><trkpt lat="45.936813024641935" lon="11.695858110460291"><ele>897.0</ele><time>2026-04-23T12:09:09.001Z</time></trkpt><trkpt lat="45.93689087958208" lon="11.695847259587403"><ele>897.0</ele><time>2026-04-23T12:09:10.001Z</time></trkpt><trkpt lat="45.93697090417931" lon="11.69588913284514"><ele>899.25</ele><time>2026-04-23T12:09:11.001Z</time></trkpt><trkpt lat="45.937056689285605" lon="11.695980192117684"><ele>901.5</ele><time>2026-04-23T12:09:12.001Z</time></trkpt><trkpt lat="45.93714625292254" lon="11.696110177439744"><ele>903.75</ele><time>2026-04-23T12:09:13.001Z</time></trkpt><trkpt lat="45.93724378621728" lon="11.696282585655998"><ele>906.0</ele><time>2026-04-23T12:09:14.001Z</time></trkpt><trkpt lat="45.93732334913889" lon="11.696463205782855"><ele>900.0</ele><time>2026-04-23T12:09:15.001Z</time></trkpt><trkpt lat="45.93739412300637" lon="11.696689580459848"><ele>894.0</ele><time>2026-04-23T12:09:16.001Z</time></trkpt><trkpt lat="45.93745114808591" lon="11.696956777939688"><ele>888.0</ele><time>2026-04-23T12:09:17.001Z</time></trkpt><trkpt lat="45.93750727964347" lon="11.69728149132521"><ele>895.0</ele><time>2026-04-23T12:09:18.001Z</time></trkpt><trkpt lat="45.93757607721326" lon="11.697629456039849"><ele>902.0</ele><time>2026-04-23T12:09:19.001Z</time></trkpt><trkpt lat="45.93765458836916" lon="11.697983192604163"><ele>902.0</ele><time>2026-04-23T12:09:20.001Z</time></trkpt><trkpt lat="45.93773091989795" lon="11.698367281883117"><ele>902.0</ele><time>2026-04-23T12:09:21.001Z</time></trkpt><trkpt lat="45.93777987193412" lon="11.698696426538145"><ele>896.6666666666667</ele><time>2026-04-23T12:09:22.001Z</time></trkpt><trkpt lat="45.93783159377068" lon="11.69895943705383"><ele>891.3333333333333</ele><time>2026-04-23T12:09:23.001Z</time></trkpt><trkpt lat="45.937875178911376" lon="11.699199714543838"><ele>886.0</ele><time>2026-04-23T12:09:24.001Z</time></trkpt><trkpt lat="45.93789206873336" lon="11.69941426385568"><ele>881.75</ele><time>2026-04-23T12:09:25.001Z</time></trkpt><trkpt lat="45.93787384608449" lon="11.699613781715483"><ele>877.5</ele><time>2026-04-23T12:09:26.001Z</time></trkpt><trkpt lat="45.937875204135636" lon="11.699813896754089"><ele>873.25</ele><time>2026-04-23T12:09:27.001Z</time></trkpt><trkpt lat="45.9379401020271" lon="11.700040254509705"><ele>869.0</ele><time>2026-04-23T12:09:28.001Z</time></trkpt><trkpt lat="45.93801657727527" lon="11.700322344718062"><ele>861.5</ele><time>2026-04-23T12:09:29.001Z</time></trkpt><trkpt lat="45.938090944901866" lon="11.700653725569882"><ele>854.0</ele><time>2026-04-23T12:09:30.001Z</time></trkpt><trkpt lat="45.9381778310719" lon="11.700943369487222"><ele>849.3333333333334</ele><time>2026-04-23T12:09:31.001Z</time></trkpt><trkpt lat="45.93822601350686" lon="11.701243553221854"><ele>844.6666666666667</ele><time>2026-04-23T12:09:32.001Z</time></trkpt><trkpt lat="45.938254033778854" lon="11.70152649578821"><ele>840.0</ele><time>2026-04-23T12:09:33.001Z</time></trkpt><trkpt lat="45.9382930312077" lon="11.701771366219202"><ele>843.0</ele><time>2026-04-23T12:09:34.001Z</time></trkpt><trkpt lat="45.93835393625022" lon="11.70199115527111"><ele>846.0</ele><time>2026-04-23T12:09:35.001Z</time></trkpt><trkpt lat="45.93843602843951" lon="11.702201980794818"><ele>849.0</ele><time>2026-04-23T12:09:36.001Z</time></trkpt><trkpt lat="45.938522522464396" lon="11.702400652768212"><ele>849.0</ele><time>2026-04-23T12:09:37.001Z</time></trkpt><trkpt lat="45.93859509276418" lon="11.702592425372213"><ele>849.0</ele><time>2026-04-23T12:09:38.001Z</time></trkpt><trkpt lat="45.938622645068556" lon="11.702818873004613"><ele>849.0</ele><time>2026-04-23T12:09:39.001Z</time></trkpt><trkpt lat="45.93863283936552" lon="11.7030873229561"><ele>845.6666666666667</ele><time>2026-04-23T12:09:40.001Z</time></trkpt><trkpt lat="45.93865473422681" lon="11.703367017640604"><ele>842.3333333333334</ele><time>2026-04-23T12:09:41.001Z</time></trkpt><trkpt lat="45.93867009659757" lon="11.70361444722204"><ele>839.0</ele><time>2026-04-23T12:09:42.001Z</time></trkpt><trkpt lat="45.93872506830994" lon="11.70387704128615"><ele>835.6666666666667</ele><time>2026-04-23T12:09:43.001Z</time></trkpt><trkpt lat="45.93881126836198" lon="11.704131155853503"><ele>832.3333333333333</ele><time>2026-04-23T12:09:44.001Z</time></trkpt><trkpt lat="45.93887130570777" lon="11.704363746496924"><ele>829.0</ele><time>2026-04-23T12:09:45.001Z</time></trkpt><trkpt lat="45.93890436882226" lon="11.704616037414288"><ele>826.5</ele><time>2026-04-23T12:09:46.001Z</time></trkpt><trkpt lat="45.93891872643278" lon="11.704869548400914"><ele>824.0</ele><time>2026-04-23T12:09:47.001Z</time></trkpt><trkpt lat="45.9389363520781" lon="11.705077172872231"><ele>821.5</ele><time>2026-04-23T12:09:48.001Z</time></trkpt><trkpt lat="45.938958825055515" lon="11.705247965765546"><ele>819.0</ele><time>2026-04-23T12:09:49.001Z</time></trkpt><trkpt lat="45.939001194626194" lon="11.705407154035289"><ele>818.0</ele><time>2026-04-23T12:09:50.001Z</time></trkpt><trkpt lat="45.93906665964252" lon="11.705538762602593"><ele>817.0</ele><time>2026-04-23T12:09:51.001Z</time></trkpt><trkpt lat="45.93916454232021" lon="11.705648220554023"><ele>816.0</ele><time>2026-04-23T12:09:52.001Z</time></trkpt><trkpt lat="45.93929950429824" lon="11.705745011889539"><ele>815.0</ele><time>2026-04-23T12:09:53.001Z</time></trkpt><trkpt lat="45.9394620451612" lon="11.705862601411297"><ele>815.0</ele><time>2026-04-23T12:09:54.001Z</time></trkpt><trkpt lat="45.939613786952414" lon="11.705954822281518"><ele>815.0</ele><time>2026-04-23T12:09:55.001Z</time></trkpt><trkpt lat="45.93974723713865" lon="11.70602909235268"><ele>815.0</ele><time>2026-04-23T12:09:56.001Z</time></trkpt><trkpt lat="45.939874687833715" lon="11.706043515812864"><ele>815.0</ele><time>2026-04-23T12:09:57.001Z</time></trkpt><trkpt lat="45.94000134817899" lon="11.706040100274212"><ele>808.6666666666667</ele><time>2026-04-23T12:09:58.001Z</time></trkpt><trkpt lat="45.940147301757825" lon="11.705991046590814"><ele>802.3333333333333</ele><time>2026-04-23T12:09:59.001Z</time></trkpt><trkpt lat="45.9403183371461" lon="11.705903505059373"><ele>796.0</ele><time>2026-04-23T12:10:00.001Z</time></trkpt><trkpt lat="45.94046456061044" lon="11.70582773702105"><ele>796.0</ele><time>2026-04-23T12:10:01.001Z</time></trkpt><trkpt lat="45.94059398138795" lon="11.70575206345819"><ele>796.0</ele><time>2026-04-23T12:10:02.001Z</time></trkpt><trkpt lat="45.94071190078364" lon="11.705633170597737"><ele>796.0</ele><time>2026-04-23T12:10:03.001Z</time></trkpt><trkpt lat="45.94082329890254" lon="11.705485141628433"><ele>796.0</ele><time>2026-04-23T12:10:04.001Z</time></trkpt><trkpt lat="45.940896382687015" lon="11.705259238787109"><ele>787.0</ele><time>2026-04-23T12:10:05.001Z</time></trkpt><trkpt lat="45.94097071882781" lon="11.705033531466919"><ele>778.0</ele><time>2026-04-23T12:10:06.001Z</time></trkpt><trkpt lat="45.94106852638076" lon="11.7048522247495"><ele>769.0</ele><time>2026-04-23T12:10:07.001Z</time></trkpt><trkpt lat="45.941189880689144" lon="11.70466502933949"><ele>769.0</ele><time>2026-04-23T12:10:08.001Z</time></trkpt><trkpt lat="45.94130482688925" lon="11.70447299573572"><ele>769.0</ele><time>2026-04-23T12:10:09.001Z</time></trkpt><trkpt lat="45.94139972532792" lon="11.7043119930195"><ele>769.0</ele><time>2026-04-23T12:10:10.001Z</time></trkpt><trkpt lat="45.941461688687056" lon="11.704153049175737"><ele>771.4999999999999</ele><time>2026-04-23T12:10:11.001Z</time></trkpt><trkpt lat="45.94150064117843" lon="11.703994187042863"><ele>774.0</ele><time>2026-04-23T12:10:12.001Z</time></trkpt><trkpt lat="45.941520668985916" lon="11.703870287355821"><ele>776.5</ele><time>2026-04-23T12:10:13.001Z</time></trkpt><trkpt lat="45.94154934518257" lon="11.703778906255991"><ele>779.0</ele><time>2026-04-23T12:10:14.001Z</time></trkpt><trkpt lat="45.941580175138604" lon="11.703670836876274"><ele>781.4999999999999</ele><time>2026-04-23T12:10:16.001Z</time></trkpt><trkpt lat="45.941652244836" lon="11.70371744864191"><ele>784.0</ele><time>2026-04-23T12:10:18.001Z</time></trkpt><trkpt lat="45.941615062793915" lon="11.703908477542623"><ele>784.0</ele><time>2026-04-23T12:10:20.001Z</time></trkpt><trkpt lat="45.94155811162652" lon="11.704068187908765"><ele>784.0</ele><time>2026-04-23T12:10:21.001Z</time></trkpt><trkpt lat="45.941519686791466" lon="11.704233916806125"><ele>784.0</ele><time>2026-04-23T12:10:22.001Z</time></trkpt><trkpt lat="45.94146443068219" lon="11.704453181925222"><ele>784.0</ele><time>2026-04-23T12:10:23.001Z</time></trkpt><trkpt lat="45.941411471979826" lon="11.704661316663648"><ele>779.0</ele><time>2026-04-23T12:10:24.001Z</time></trkpt><trkpt lat="45.94136609243539" lon="11.704890208713454"><ele>774.0</ele><time>2026-04-23T12:10:25.001Z</time></trkpt><trkpt lat="45.94134367540518" lon="11.705149526224057"><ele>769.0</ele><time>2026-04-23T12:10:26.001Z</time></trkpt><trkpt lat="45.941335723531104" lon="11.70539980179927"><ele>766.3333333333333</ele><time>2026-04-23T12:10:27.001Z</time></trkpt><trkpt lat="45.94130742233424" lon="11.705626961670356"><ele>763.6666666666666</ele><time>2026-04-23T12:10:28.001Z</time></trkpt><trkpt lat="45.9412472302251" lon="11.705844783246906"><ele>761.0</ele><time>2026-04-23T12:10:29.001Z</time></trkpt><trkpt lat="45.94117027630873" lon="11.706063451565987"><ele>759.6666666666666</ele><time>2026-04-23T12:10:30.001Z</time></trkpt><trkpt lat="45.94111415108536" lon="11.706308844501574"><ele>758.3333333333334</ele><time>2026-04-23T12:10:31.001Z</time></trkpt><trkpt lat="45.941070968555444" lon="11.706624295462664"><ele>757.0</ele><time>2026-04-23T12:10:32.001Z</time></trkpt><trkpt lat="45.9410033337999" lon="11.706987346525878"><ele>756.5</ele><time>2026-04-23T12:10:33.001Z</time></trkpt><trkpt lat="45.94096619205703" lon="11.70734602167002"><ele>756.0</ele><time>2026-04-23T12:10:34.001Z</time></trkpt><trkpt lat="45.9409170243391" lon="11.70764724119774"><ele>757.75</ele><time>2026-04-23T12:10:35.001Z</time></trkpt><trkpt lat="45.94087898493296" lon="11.707889124940518"><ele>759.5</ele><time>2026-04-23T12:10:36.001Z</time></trkpt><trkpt lat="45.94084646474062" lon="11.708063596758851"><ele>761.25</ele><time>2026-04-23T12:10:37.001Z</time></trkpt><trkpt lat="45.94081129781926" lon="11.708219958552638"><ele>763.0</ele><time>2026-04-23T12:10:38.001Z</time></trkpt><trkpt lat="45.94075074070914" lon="11.708355643631846"><ele>763.0</ele><time>2026-04-23T12:10:39.001Z</time></trkpt><trkpt lat="45.94066827561248" lon="11.708468420600779"><ele>763.0</ele><time>2026-04-23T12:10:40.001Z</time></trkpt><trkpt lat="45.94056724736131" lon="11.70858706847027"><ele>763.0</ele><time>2026-04-23T12:10:41.001Z</time></trkpt><trkpt lat="45.94044658305716" lon="11.708751242961968"><ele>763.0</ele><time>2026-04-23T12:10:42.001Z</time></trkpt><trkpt lat="45.94032981211192" lon="11.708907604678474"><ele>763.5</ele><time>2026-04-23T12:10:43.001Z</time></trkpt><trkpt lat="45.94021198932624" lon="11.709057231013974"><ele>764.0</ele><time>2026-04-23T12:10:44.001Z</time></trkpt><trkpt lat="45.94009583725897" lon="11.709207994558245"><ele>764.5</ele><time>2026-04-23T12:10:45.001Z</time></trkpt><trkpt lat="45.94000983773697" lon="11.709327612271013"><ele>765.0</ele><time>2026-04-23T12:10:46.001Z</time></trkpt><trkpt lat="45.93993868338616" lon="11.709419078780401"><ele>765.0</ele><time>2026-04-23T12:10:47.001Z</time></trkpt><trkpt lat="45.93989169627727" lon="11.70949858017639"><ele>765.0</ele><time>2026-04-23T12:10:48.001Z</time></trkpt><trkpt lat="45.93987475111113" lon="11.709648680552437"><ele>765.0</ele><time>2026-04-23T12:10:50.001Z</time></trkpt><trkpt lat="45.93991351222008" lon="11.709775728017334"><ele>765.0</ele><time>2026-04-23T12:10:58.001Z</time></trkpt><trkpt lat="45.940071300782115" lon="11.709742629472325"><ele>765.0</ele><time>2026-04-23T12:11:00.001Z</time></trkpt><trkpt lat="45.94016945212916" lon="11.709714625288957"><ele>764.0</ele><time>2026-04-23T12:11:01.001Z</time></trkpt><trkpt lat="45.940256524347305" lon="11.709665948146815"><ele>763.0</ele><time>2026-04-23T12:11:02.001Z</time></trkpt><trkpt lat="45.94034172871539" lon="11.709616462640241"><ele>762.0</ele><time>2026-04-23T12:11:03.001Z</time></trkpt><trkpt lat="45.94044034483119" lon="11.70955322538659"><ele>761.0</ele><time>2026-04-23T12:11:04.001Z</time></trkpt><trkpt lat="45.9405450913874" lon="11.709477729849542"><ele>760.0</ele><time>2026-04-23T12:11:05.001Z</time></trkpt><trkpt lat="45.94065480292789" lon="11.70939146633147"><ele>760.0</ele><time>2026-04-23T12:11:06.001Z</time></trkpt><trkpt lat="45.940748193202765" lon="11.709313349239531"><ele>760.0</ele><time>2026-04-23T12:11:07.001Z</time></trkpt><trkpt lat="45.94082766489902" lon="11.709248920052158"><ele>760.0</ele><time>2026-04-23T12:11:08.001Z</time></trkpt><trkpt lat="45.940912774299385" lon="11.709151043264935"><ele>760.0</ele><time>2026-04-23T12:11:10.001Z</time></trkpt><trkpt lat="45.94098763479298" lon="11.709181985211064"><ele>760.0</ele><time>2026-04-23T12:11:12.001Z</time></trkpt><trkpt lat="45.941030782507156" lon="11.709304725950663"><ele>760.8</ele><time>2026-04-23T12:11:13.001Z</time></trkpt><trkpt lat="45.94104211137037" lon="11.709401240881885"><ele>761.6</ele><time>2026-04-23T12:11:14.001Z</time></trkpt><trkpt lat="45.94105369936235" lon="11.709507175338977"><ele>762.4000000000001</ele><time>2026-04-23T12:11:15.001Z</time></trkpt><trkpt lat="45.94109501913432" lon="11.709620159767832"><ele>763.2</ele><time>2026-04-23T12:11:16.001Z</time></trkpt><trkpt lat="45.941165936908654" lon="11.70975725414817"><ele>764.0</ele><time>2026-04-23T12:11:17.001Z</time></trkpt><trkpt lat="45.94123484103403" lon="11.709876252358818"><ele>761.8000000000001</ele><time>2026-04-23T12:11:18.001Z</time></trkpt><trkpt lat="45.941298482725806" lon="11.709972108298587"><ele>759.6</ele><time>2026-04-23T12:11:19.001Z</time></trkpt><trkpt lat="45.94135780882447" lon="11.710057272906086"><ele>757.4</ele><time>2026-04-23T12:11:20.001Z</time></trkpt><trkpt lat="45.941429369229304" lon="11.710142328871836"><ele>755.2</ele><time>2026-04-23T12:11:21.001Z</time></trkpt><trkpt lat="45.94151404425657" lon="11.710217443433466"><ele>753.0</ele><time>2026-04-23T12:11:22.001Z</time></trkpt><trkpt lat="45.94159636534725" lon="11.710259540526335"><ele>748.5999999999999</ele><time>2026-04-23T12:11:23.001Z</time></trkpt><trkpt lat="45.941674142724324" lon="11.710255887860603"><ele>744.1999999999999</ele><time>2026-04-23T12:11:24.001Z</time></trkpt><trkpt lat="45.94174989595328" lon="11.710235707591714"><ele>739.8</ele><time>2026-04-23T12:11:25.001Z</time></trkpt><trkpt lat="45.94182539741826" lon="11.710145548244787"><ele>735.4</ele><time>2026-04-23T12:11:26.001Z</time></trkpt><trkpt lat="45.94190972946494" lon="11.710014510690085"><ele>731.0</ele><time>2026-04-23T12:11:27.001Z</time></trkpt><trkpt lat="45.942017529785836" lon="11.709850946385037"><ele>730.75</ele><time>2026-04-23T12:11:28.001Z</time></trkpt><trkpt lat="45.94211481794567" lon="11.70970864848511"><ele>730.5</ele><time>2026-04-23T12:11:29.001Z</time></trkpt><trkpt lat="45.942218950610226" lon="11.70958019367802"><ele>730.25</ele><time>2026-04-23T12:11:30.001Z</time></trkpt><trkpt lat="45.94232373087987" lon="11.709449872862328"><ele>730.0</ele><time>2026-04-23T12:11:31.001Z</time></trkpt><trkpt lat="45.942460655929544" lon="11.709411735746444"><ele>733.75</ele><time>2026-04-23T12:11:32.001Z</time></trkpt><trkpt lat="45.942608838837145" lon="11.709358479259222"><ele>737.5</ele><time>2026-04-23T12:11:33.001Z</time></trkpt><trkpt lat="45.942749548345994" lon="11.709313060504256"><ele>741.25</ele><time>2026-04-23T12:11:34.001Z</time></trkpt><trkpt lat="45.94287307062268" lon="11.70929261999305"><ele>745.0</ele><time>2026-04-23T12:11:35.001Z</time></trkpt><trkpt lat="45.94299463444023" lon="11.709305256643805"><ele>745.0</ele><time>2026-04-23T12:11:36.001Z</time></trkpt><trkpt lat="45.94310634135824" lon="11.709343748175353"><ele>745.0</ele><time>2026-04-23T12:11:37.001Z</time></trkpt><trkpt lat="45.94324431046615" lon="11.709374769201617"><ele>745.0</ele><time>2026-04-23T12:11:38.001Z</time></trkpt><trkpt lat="45.94337420792504" lon="11.709404199688892"><ele>745.0</ele><time>2026-04-23T12:11:39.001Z</time></trkpt><trkpt lat="45.94351973402051" lon="11.709409460907208"><ele>738.3333333333334</ele><time>2026-04-23T12:11:40.001Z</time></trkpt><trkpt lat="45.94366137643155" lon="11.70935130161134"><ele>731.6666666666666</ele><time>2026-04-23T12:11:41.001Z</time></trkpt><trkpt lat="45.943791194824364" lon="11.709238935698904"><ele>725.0</ele><time>2026-04-23T12:11:42.001Z</time></trkpt><trkpt lat="45.94391630978816" lon="11.709073951156132"><ele>725.0</ele><time>2026-04-23T12:11:43.001Z</time></trkpt><trkpt lat="45.94404453772792" lon="11.708891334738327"><ele>725.0</ele><time>2026-04-23T12:11:44.001Z</time></trkpt><trkpt lat="45.94416050438028" lon="11.708755231305112"><ele>725.0</ele><time>2026-04-23T12:11:45.001Z</time></trkpt><trkpt lat="45.94427725134482" lon="11.708677340800067"><ele>721.3333333333333</ele><time>2026-04-23T12:11:46.001Z</time></trkpt><trkpt lat="45.944404780084206" lon="11.708638341753737"><ele>717.6666666666666</ele><time>2026-04-23T12:11:47.001Z</time></trkpt><trkpt lat="45.944563522757136" lon="11.708602606429107"><ele>714.0</ele><time>2026-04-23T12:11:48.001Z</time></trkpt><trkpt lat="45.9447668910189" lon="11.708602680502965"><ele>714.0</ele><time>2026-04-23T12:11:49.001Z</time></trkpt><trkpt lat="45.94498487456869" lon="11.708578275267671"><ele>714.0</ele><time>2026-04-23T12:11:50.001Z</time></trkpt><trkpt lat="45.945186043607976" lon="11.708551271727174"><ele>714.0</ele><time>2026-04-23T12:11:51.001Z</time></trkpt><trkpt lat="45.94538059630819" lon="11.708539719965481"><ele>717.0</ele><time>2026-04-23T12:11:52.001Z</time></trkpt><trkpt lat="45.945555062015565" lon="11.708546409296915"><ele>720.0</ele><time>2026-04-23T12:11:53.001Z</time></trkpt><trkpt lat="45.94573105746218" lon="11.708504318356647"><ele>723.0</ele><time>2026-04-23T12:11:54.001Z</time></trkpt><trkpt lat="45.94588381282185" lon="11.708398302727051"><ele>723.0</ele><time>2026-04-23T12:11:55.001Z</time></trkpt><trkpt lat="45.946048996295616" lon="11.7083481592347"><ele>723.0</ele><time>2026-04-23T12:11:56.001Z</time></trkpt><trkpt lat="45.94622071187504" lon="11.708350164954444"><ele>723.0</ele><time>2026-04-23T12:11:57.001Z</time></trkpt><trkpt lat="45.94639245853477" lon="11.7083407239327"><ele>723.0</ele><time>2026-04-23T12:11:58.001Z</time></trkpt><trkpt lat="45.94659259444567" lon="11.70827590504248"><ele>723.0</ele><time>2026-04-23T12:11:59.001Z</time></trkpt><trkpt lat="45.9468161480491" lon="11.708178513767153"><ele>723.0</ele><time>2026-04-23T12:12:00.001Z</time></trkpt><trkpt lat="45.94702693758106" lon="11.708082889559712"><ele>715.0</ele><time>2026-04-23T12:12:01.001Z</time></trkpt><trkpt lat="45.94724684624043" lon="11.707950627605642"><ele>707.0</ele><time>2026-04-23T12:12:02.001Z</time></trkpt><trkpt lat="45.9474733328397" lon="11.707812737262316"><ele>709.3333333333333</ele><time>2026-04-23T12:12:03.001Z</time></trkpt><trkpt lat="45.947659755161894" lon="11.707648070806455"><ele>711.6666666666666</ele><time>2026-04-23T12:12:04.001Z</time></trkpt><trkpt lat="45.94784545063641" lon="11.707531035037634"><ele>714.0</ele><time>2026-04-23T12:12:05.001Z</time></trkpt><trkpt lat="45.948029037280754" lon="11.707441383684726"><ele>714.0</ele><time>2026-04-23T12:12:06.001Z</time></trkpt><trkpt lat="45.94820903886673" lon="11.70737585761903"><ele>714.0</ele><time>2026-04-23T12:12:07.001Z</time></trkpt><trkpt lat="45.94838713377527" lon="11.707323922363432"><ele>714.0</ele><time>2026-04-23T12:12:08.001Z</time></trkpt><trkpt lat="45.94854566888005" lon="11.707288691979489"><ele>710.75</ele><time>2026-04-23T12:12:09.001Z</time></trkpt><trkpt lat="45.94869271282858" lon="11.707256339000095"><ele>707.5</ele><time>2026-04-23T12:12:10.001Z</time></trkpt><trkpt lat="45.948826529148995" lon="11.707222615430615"><ele>704.25</ele><time>2026-04-23T12:12:11.001Z</time></trkpt><trkpt lat="45.94893869261227" lon="11.707177491189043"><ele>701.0</ele><time>2026-04-23T12:12:12.001Z</time></trkpt><trkpt lat="45.94903856796987" lon="11.707112715090092"><ele>701.0</ele><time>2026-04-23T12:12:13.001Z</time></trkpt><trkpt lat="45.94911990104224" lon="11.70702114789761"><ele>701.0</ele><time>2026-04-23T12:12:14.001Z</time></trkpt><trkpt lat="45.949184745605365" lon="11.706908715054821"><ele>701.0</ele><time>2026-04-23T12:12:15.001Z</time></trkpt><trkpt lat="45.94924022830084" lon="11.706814372540052"><ele>701.0</ele><time>2026-04-23T12:12:16.001Z</time></trkpt><trkpt lat="45.949309955873325" lon="11.706684169629797"><ele>701.0</ele><time>2026-04-23T12:12:18.001Z</time></trkpt><trkpt lat="45.94937810830436" lon="11.706726061068046"><ele>701.0</ele><time>2026-04-23T12:12:21.001Z</time></trkpt><trkpt lat="45.949368714979464" lon="11.706820833089827"><ele>701.0</ele><time>2026-04-23T12:12:22.001Z</time></trkpt><trkpt lat="45.94930569105568" lon="11.70693607042175"><ele>701.0</ele><time>2026-04-23T12:12:23.001Z</time></trkpt><trkpt lat="45.949239278873726" lon="11.70705863461925"><ele>701.0</ele><time>2026-04-23T12:12:24.001Z</time></trkpt><trkpt lat="45.949191060525145" lon="11.70717235132748"><ele>701.0</ele><time>2026-04-23T12:12:25.001Z</time></trkpt><trkpt lat="45.949130432434586" lon="11.707296115641341"><ele>701.0</ele><time>2026-04-23T12:12:26.001Z</time></trkpt><trkpt lat="45.949044165566285" lon="11.70741490843905"><ele>701.0</ele><time>2026-04-23T12:12:27.001Z</time></trkpt><trkpt lat="45.9489343828367" lon="11.707508930122183"><ele>701.0</ele><time>2026-04-23T12:12:28.001Z</time></trkpt><trkpt lat="45.94882069076525" lon="11.70757445643815"><ele>701.0</ele><time>2026-04-23T12:12:29.001Z</time></trkpt><trkpt lat="45.94870367947972" lon="11.70763321879703"><ele>701.0</ele><time>2026-04-23T12:12:30.001Z</time></trkpt><trkpt lat="45.948582678805685" lon="11.707703130476844"><ele>701.0</ele><time>2026-04-23T12:12:31.001Z</time></trkpt><trkpt lat="45.94845068531121" lon="11.707769626937525"><ele>701.0</ele><time>2026-04-23T12:12:32.001Z</time></trkpt><trkpt lat="45.948310264985444" lon="11.707851834988075"><ele>701.0</ele><time>2026-04-23T12:12:33.001Z</time></trkpt><trkpt lat="45.948141365659964" lon="11.708002883109579"><ele>698.5</ele><time>2026-04-23T12:12:34.001Z</time></trkpt><trkpt lat="45.94794484972136" lon="11.708204493180213"><ele>696.0</ele><time>2026-04-23T12:12:35.001Z</time></trkpt><trkpt lat="45.94773863778012" lon="11.708411365578286"><ele>692.0</ele><time>2026-04-23T12:12:36.001Z</time></trkpt><trkpt lat="45.947504624314995" lon="11.70863664244053"><ele>688.0</ele><time>2026-04-23T12:12:37.001Z</time></trkpt><trkpt lat="45.94729094916119" lon="11.708832702095625"><ele>688.0</ele><time>2026-04-23T12:12:38.001Z</time></trkpt><trkpt lat="45.94710079345279" lon="11.709013472864774"><ele>688.0</ele><time>2026-04-23T12:12:39.001Z</time></trkpt><trkpt lat="45.94692015639478" lon="11.709182472638004"><ele>688.0</ele><time>2026-04-23T12:12:40.001Z</time></trkpt><trkpt lat="45.94674303379839" lon="11.709328183082542"><ele>684.0</ele><time>2026-04-23T12:12:41.001Z</time></trkpt><trkpt lat="45.94656389197257" lon="11.709458995885194"><ele>680.0</ele><time>2026-04-23T12:12:42.001Z</time></trkpt><trkpt lat="45.94636982627013" lon="11.709561299638791"><ele>676.0</ele><time>2026-04-23T12:12:43.001Z</time></trkpt><trkpt lat="45.94613044879485" lon="11.709674982352938"><ele>679.5</ele><time>2026-04-23T12:12:44.001Z</time></trkpt><trkpt lat="45.945874204837914" lon="11.709796197089402"><ele>683.0</ele><time>2026-04-23T12:12:45.001Z</time></trkpt><trkpt lat="45.94565121436418" lon="11.709899610324086"><ele>683.0</ele><time>2026-04-23T12:12:46.001Z</time></trkpt><trkpt lat="45.94544293205717" lon="11.709999657122133"><ele>683.0</ele><time>2026-04-23T12:12:47.001Z</time></trkpt><trkpt lat="45.94525667628521" lon="11.710093443985398"><ele>683.0</ele><time>2026-04-23T12:12:48.001Z</time></trkpt><trkpt lat="45.945102956776275" lon="11.710166855042758"><ele>683.8</ele><time>2026-04-23T12:12:49.001Z</time></trkpt><trkpt lat="45.944959735997415" lon="11.710231526227497"><ele>684.5999999999999</ele><time>2026-04-23T12:12:50.001Z</time></trkpt><trkpt lat="45.944836909208504" lon="11.710278179422044"><ele>685.4000000000001</ele><time>2026-04-23T12:12:51.001Z</time></trkpt><trkpt lat="45.94475245898215" lon="11.710308851266328"><ele>686.2</ele><time>2026-04-23T12:12:52.001Z</time></trkpt><trkpt lat="45.94469398592232" lon="11.71034895478234"><ele>687.0</ele><time>2026-04-23T12:12:53.001Z</time></trkpt><trkpt lat="45.94466184392315" lon="11.710505423813798"><ele>683.0</ele><time>2026-04-23T12:12:55.001Z</time></trkpt><trkpt lat="45.94472433358007" lon="11.710597647988573"><ele>679.0</ele><time>2026-04-23T12:12:56.001Z</time></trkpt><trkpt lat="45.94482509304609" lon="11.710582950500495"><ele>675.0</ele><time>2026-04-23T12:12:57.001Z</time></trkpt><trkpt lat="45.944948359136774" lon="11.710571401817267"><ele>671.0</ele><time>2026-04-23T12:12:58.001Z</time></trkpt><trkpt lat="45.9451081141594" lon="11.710543799896515"><ele>669.3333333333333</ele><time>2026-04-23T12:12:59.001Z</time></trkpt><trkpt lat="45.94529642507075" lon="11.710488243311364"><ele>667.6666666666666</ele><time>2026-04-23T12:13:00.001Z</time></trkpt><trkpt lat="45.94553124832966" lon="11.710461503873825"><ele>666.0</ele><time>2026-04-23T12:13:01.001Z</time></trkpt><trkpt lat="45.94575461950713" lon="11.71043281935891"><ele>664.0</ele><time>2026-04-23T12:13:02.001Z</time></trkpt><trkpt lat="45.94597929932362" lon="11.71040786553472"><ele>662.0</ele><time>2026-04-23T12:13:03.001Z</time></trkpt><trkpt lat="45.94617451252112" lon="11.71038742823561"><ele>660.0</ele><time>2026-04-23T12:13:04.001Z</time></trkpt><trkpt lat="45.94637636253159" lon="11.710370274264196"><ele>660.0</ele><time>2026-04-23T12:13:05.001Z</time></trkpt><trkpt lat="45.94655028328772" lon="11.710313070931724"><ele>660.0</ele><time>2026-04-23T12:13:06.001Z</time></trkpt><trkpt lat="45.94668658480069" lon="11.71025444325031"><ele>660.0</ele><time>2026-04-23T12:13:07.001Z</time></trkpt><trkpt lat="45.946786922594995" lon="11.710203225905817"><ele>660.0</ele><time>2026-04-23T12:13:08.001Z</time></trkpt><trkpt lat="45.94685633887416" lon="11.710168579933303"><ele>660.0</ele><time>2026-04-23T12:13:09.001Z</time></trkpt><trkpt lat="45.94694870031373" lon="11.710191564061677"><ele>660.0</ele><time>2026-04-23T12:13:11.001Z</time></trkpt><trkpt lat="45.94691594086139" lon="11.710329152913484"><ele>660.0</ele><time>2026-04-23T12:13:13.001Z</time></trkpt><trkpt lat="45.94682242694699" lon="11.710382707517835"><ele>660.0</ele><time>2026-04-23T12:13:14.001Z</time></trkpt><trkpt lat="45.946688932000626" lon="11.710438291330513"><ele>660.0</ele><time>2026-04-23T12:13:15.001Z</time></trkpt><trkpt lat="45.94655279394104" lon="11.710506204934537"><ele>660.0</ele><time>2026-04-23T12:13:16.001Z</time></trkpt><trkpt lat="45.946385856088284" lon="11.710595119090438"><ele>660.0</ele><time>2026-04-23T12:13:17.001Z</time></trkpt><trkpt lat="45.94621477801751" lon="11.710697610033268"><ele>660.0</ele><time>2026-04-23T12:13:18.001Z</time></trkpt><trkpt lat="45.946080611272905" lon="11.710787655412384"><ele>660.0</ele><time>2026-04-23T12:13:19.001Z</time></trkpt><trkpt lat="45.94596834645152" lon="11.710885847883548"><ele>660.0</ele><time>2026-04-23T12:13:20.001Z</time></trkpt><trkpt lat="45.945874237989734" lon="11.71100478156499"><ele>660.0</ele><time>2026-04-23T12:13:21.001Z</time></trkpt><trkpt lat="45.94579553696891" lon="11.711162321581382"><ele>660.0</ele><time>2026-04-23T12:13:22.001Z</time></trkpt><trkpt lat="45.945728691575106" lon="11.711354480888742"><ele>659.5</ele><time>2026-04-23T12:13:23.001Z</time></trkpt><trkpt lat="45.9456799413495" lon="11.711550382106203"><ele>659.0</ele><time>2026-04-23T12:13:24.001Z</time></trkpt><trkpt lat="45.94561644315853" lon="11.711724378599058"><ele>658.5</ele><time>2026-04-23T12:13:25.001Z</time></trkpt><trkpt lat="45.94553386248181" lon="11.71186345331003"><ele>658.0</ele><time>2026-04-23T12:13:26.001Z</time></trkpt><trkpt lat="45.94542011293332" lon="11.711978662208624"><ele>654.3333333333334</ele><time>2026-04-23T12:13:27.001Z</time></trkpt><trkpt lat="45.945273168196046" lon="11.712099255422743"><ele>650.6666666666666</ele><time>2026-04-23T12:13:28.001Z</time></trkpt><trkpt lat="45.94514491803631" lon="11.712194540340022"><ele>647.0</ele><time>2026-04-23T12:13:29.001Z</time></trkpt><trkpt lat="45.94500471335244" lon="11.712260184071086"><ele>647.0</ele><time>2026-04-23T12:13:30.001Z</time></trkpt><trkpt lat="45.94484745422335" lon="11.712290256667416"><ele>647.0</ele><time>2026-04-23T12:13:31.001Z</time></trkpt><trkpt lat="45.944701877229065" lon="11.712289280145642"><ele>647.0</ele><time>2026-04-23T12:13:32.001Z</time></trkpt><trkpt lat="45.944549409610495" lon="11.71225543861107"><ele>647.0</ele><time>2026-04-23T12:13:33.001Z</time></trkpt><trkpt lat="45.944416741098514" lon="11.712204944075001"><ele>647.0</ele><time>2026-04-23T12:13:34.001Z</time></trkpt><trkpt lat="45.94432697011175" lon="11.712169233051295"><ele>647.0</ele><time>2026-04-23T12:13:35.001Z</time></trkpt><trkpt lat="45.94421455497585" lon="11.712208273864542"><ele>647.0</ele><time>2026-04-23T12:13:37Z</time></trkpt><trkpt lat="45.944208256864435" lon="11.712406603222469"><ele>647.0</ele><time>2026-04-23T12:13:39Z</time></trkpt><trkpt lat="45.94426440956674" lon="11.712524625609301"><ele>647.0</ele><time>2026-04-23T12:13:40Z</time></trkpt><trkpt lat="45.944343302400775" lon="11.712656484489738"><ele>647.0</ele><time>2026-04-23T12:13:41Z</time></trkpt><trkpt lat="45.94442506860859" lon="11.712750609811259"><ele>647.0</ele><time>2026-04-23T12:13:42Z</time></trkpt><trkpt lat="45.94453257977447" lon="11.712812859600936"><ele>647.0</ele><time>2026-04-23T12:13:43Z</time></trkpt><trkpt lat="45.944675730657266" lon="11.712845272373537"><ele>644.75</ele><time>2026-04-23T12:13:44Z</time></trkpt><trkpt lat="45.944824234434535" lon="11.712855765735178"><ele>642.5</ele><time>2026-04-23T12:13:45Z</time></trkpt><trkpt lat="45.94495090080108" lon="11.712828511020241"><ele>640.25</ele><time>2026-04-23T12:13:46Z</time></trkpt><trkpt lat="45.945092885465506" lon="11.712766300183437"><ele>638.0</ele><time>2026-04-23T12:13:47Z</time></trkpt><trkpt lat="45.94526315426413" lon="11.712666169604663"><ele>638.0</ele><time>2026-04-23T12:13:48Z</time></trkpt><trkpt lat="45.945446321882024" lon="11.712613937935926"><ele>638.0</ele><time>2026-04-23T12:13:49Z</time></trkpt><trkpt lat="45.94564565057771" lon="11.712528568520852"><ele>638.0</ele><time>2026-04-23T12:13:50Z</time></trkpt><trkpt lat="45.9458236281024" lon="11.712486948486882"><ele>634.5</ele><time>2026-04-23T12:13:51Z</time></trkpt><trkpt lat="45.94596154981481" lon="11.712446218837632"><ele>631.0</ele><time>2026-04-23T12:13:52Z</time></trkpt><trkpt lat="45.94607809976063" lon="11.712426606020925"><ele>627.5</ele><time>2026-04-23T12:13:53Z</time></trkpt><trkpt lat="45.94617686126954" lon="11.712328337618253"><ele>624.0</ele><time>2026-04-23T12:13:54Z</time></trkpt><trkpt lat="45.94626928822628" lon="11.71223605126193"><ele>624.0</ele><time>2026-04-23T12:13:55Z</time></trkpt><trkpt lat="45.946349179241444" lon="11.712178473581865"><ele>624.0</ele><time>2026-04-23T12:13:56Z</time></trkpt><trkpt lat="45.946402661538556" lon="11.712118825827277"><ele>624.0</ele><time>2026-04-23T12:13:57Z</time></trkpt><trkpt lat="45.9464890139552" lon="11.71201678407694"><ele>624.0</ele><time>2026-04-23T12:13:59Z</time></trkpt><trkpt lat="45.9465495803877" lon="11.711959069960894"><ele>624.0</ele><time>2026-04-23T12:14:01Z</time></trkpt><trkpt lat="45.946551143959795" lon="11.712114166781074"><ele>624.0</ele><time>2026-04-23T12:14:04Z</time></trkpt><trkpt lat="45.94647434041146" lon="11.712174504653568"><ele>624.0</ele><time>2026-04-23T12:14:05Z</time></trkpt><trkpt lat="45.946387512280964" lon="11.7122409766604"><ele>624.0</ele><time>2026-04-23T12:14:06Z</time></trkpt><trkpt lat="45.94631679656863" lon="11.712326558860903"><ele>624.0</ele><time>2026-04-23T12:14:07Z</time></trkpt><trkpt lat="45.94625561548242" lon="11.712408309492032"><ele>624.0</ele><time>2026-04-23T12:14:08Z</time></trkpt><trkpt lat="45.94618872554278" lon="11.712490092704893"><ele>624.0</ele><time>2026-04-23T12:14:09Z</time></trkpt><trkpt lat="45.94610945733951" lon="11.71257917963845"><ele>624.0</ele><time>2026-04-23T12:14:10Z</time></trkpt><trkpt lat="45.94602003444244" lon="11.712661159810759"><ele>624.0</ele><time>2026-04-23T12:14:11Z</time></trkpt><trkpt lat="45.94591795516875" lon="11.71272407263929"><ele>624.0</ele><time>2026-04-23T12:14:12Z</time></trkpt><trkpt lat="45.945813050813136" lon="11.712763817932329"><ele>624.0</ele><time>2026-04-23T12:14:13Z</time></trkpt><trkpt lat="45.94571483700427" lon="11.712795753320698"><ele>624.0</ele><time>2026-04-23T12:14:14Z</time></trkpt><trkpt lat="45.945620826886206" lon="11.712835400774287"><ele>621.0</ele><time>2026-04-23T12:14:15Z</time></trkpt><trkpt lat="45.94552015427382" lon="11.712891353833678"><ele>618.0</ele><time>2026-04-23T12:14:16Z</time></trkpt><trkpt lat="45.945391489615986" lon="11.71297869076233"><ele>615.0</ele><time>2026-04-23T12:14:17Z</time></trkpt><trkpt lat="45.94524761016787" lon="11.713186522253517"><ele>615.0</ele><time>2026-04-23T12:14:18Z</time></trkpt><trkpt lat="45.94510767842081" lon="11.713344535710299"><ele>615.0</ele><time>2026-04-23T12:14:19Z</time></trkpt><trkpt lat="45.94493931917849" lon="11.713502066843105"><ele>615.0</ele><time>2026-04-23T12:14:20Z</time></trkpt><trkpt lat="45.94474366123559" lon="11.713654933696121"><ele>611.3333333333334</ele><time>2026-04-23T12:14:21Z</time></trkpt><trkpt lat="45.94456788801638" lon="11.713784196065491"><ele>607.6666666666667</ele><time>2026-04-23T12:14:22Z</time></trkpt><trkpt lat="45.94440881094348" lon="11.7138964497459"><ele>604.0</ele><time>2026-04-23T12:14:23Z</time></trkpt><trkpt lat="45.944280518608885" lon="11.713983851821581"><ele>606.8</ele><time>2026-04-23T12:14:24Z</time></trkpt><trkpt lat="45.94417054856882" lon="11.714060675214098"><ele>609.5999999999999</ele><time>2026-04-23T12:14:25Z</time></trkpt><trkpt lat="45.94408156469156" lon="11.714116977635106"><ele>612.4</ele><time>2026-04-23T12:14:26Z</time></trkpt><trkpt lat="45.94399340867356" lon="11.714217880141465"><ele>615.1999999999999</ele><time>2026-04-23T12:14:28Z</time></trkpt><trkpt lat="45.94402592780757" lon="11.71434876372352"><ele>618.0</ele><time>2026-04-23T12:14:30Z</time></trkpt><trkpt lat="45.94412094121437" lon="11.714373532868711"><ele>614.5</ele><time>2026-04-23T12:14:31Z</time></trkpt><trkpt lat="45.944228937912975" lon="11.714271938874242"><ele>611.0</ele><time>2026-04-23T12:14:32Z</time></trkpt><trkpt lat="45.94435915233413" lon="11.714235485118078"><ele>607.5</ele><time>2026-04-23T12:14:33Z</time></trkpt><trkpt lat="45.944515205425986" lon="11.714165226590945"><ele>604.0</ele><time>2026-04-23T12:14:34Z</time></trkpt><trkpt lat="45.94471377987119" lon="11.714073580430274"><ele>604.0</ele><time>2026-04-23T12:14:35Z</time></trkpt><trkpt lat="45.94490625984154" lon="11.713951887115885"><ele>604.0</ele><time>2026-04-23T12:14:36Z</time></trkpt><trkpt lat="45.94513637589641" lon="11.71382503702132"><ele>598.0</ele><time>2026-04-23T12:14:37Z</time></trkpt><trkpt lat="45.945349566406755" lon="11.713693843953251"><ele>592.0</ele><time>2026-04-23T12:14:38Z</time></trkpt><trkpt lat="45.94555701925794" lon="11.713593652035613"><ele>596.5</ele><time>2026-04-23T12:14:39Z</time></trkpt><trkpt lat="45.94577303317899" lon="11.713520046657889"><ele>601.0</ele><time>2026-04-23T12:14:40Z</time></trkpt><trkpt lat="45.94599805118388" lon="11.713459785077974"><ele>601.0</ele><time>2026-04-23T12:14:41Z</time></trkpt><trkpt lat="45.94625661817183" lon="11.713375531689872"><ele>601.0</ele><time>2026-04-23T12:14:42Z</time></trkpt><trkpt lat="45.94651084181566" lon="11.713277685296228"><ele>595.0</ele><time>2026-04-23T12:14:43Z</time></trkpt><trkpt lat="45.94674424467344" lon="11.713180284964334"><ele>589.0</ele><time>2026-04-23T12:14:44Z</time></trkpt><trkpt lat="45.94699201874701" lon="11.713063396315015"><ele>589.0</ele><time>2026-04-23T12:14:45Z</time></trkpt><trkpt lat="45.947249258062214" lon="11.712956857708487"><ele>589.0</ele><time>2026-04-23T12:14:46Z</time></trkpt><trkpt lat="45.947468697894486" lon="11.712828483152949"><ele>589.0</ele><time>2026-04-23T12:14:47Z</time></trkpt><trkpt lat="45.947673970856904" lon="11.712711206851118"><ele>589.0</ele><time>2026-04-23T12:14:48.001Z</time></trkpt><trkpt lat="45.94786361587486" lon="11.712584586471468"><ele>589.0</ele><time>2026-04-23T12:14:49.001Z</time></trkpt><trkpt lat="45.94802159345429" lon="11.712465344274614"><ele>589.0</ele><time>2026-04-23T12:14:50.001Z</time></trkpt><trkpt lat="45.9481644064679" lon="11.712350175303985"><ele>589.0</ele><time>2026-04-23T12:14:51.001Z</time></trkpt><trkpt lat="45.94827929036395" lon="11.712248055803263"><ele>589.0</ele><time>2026-04-23T12:14:52.001Z</time></trkpt><trkpt lat="45.94839084430241" lon="11.712153820031244"><ele>589.0</ele><time>2026-04-23T12:14:53.001Z</time></trkpt><trkpt lat="45.94847187522638" lon="11.712044955401476"><ele>589.2</ele><time>2026-04-23T12:14:54.001Z</time></trkpt><trkpt lat="45.94852132353793" lon="11.711973842842324"><ele>589.4</ele><time>2026-04-23T12:14:55.001Z</time></trkpt><trkpt lat="45.94857553093896" lon="11.711892105624626"><ele>589.6</ele><time>2026-04-23T12:14:57.001Z</time></trkpt><trkpt lat="45.948626802279776" lon="11.711983234244913"><ele>589.8</ele><time>2026-04-23T12:14:59.001Z</time></trkpt><trkpt lat="45.94855266959875" lon="11.712134477144458"><ele>590.0</ele><time>2026-04-23T12:15:01.001Z</time></trkpt><trkpt lat="45.94845382101826" lon="11.712243522449608"><ele>589.75</ele><time>2026-04-23T12:15:02.001Z</time></trkpt><trkpt lat="45.94838606357736" lon="11.712351819896638"><ele>589.5</ele><time>2026-04-23T12:15:03.001Z</time></trkpt><trkpt lat="45.94829787545553" lon="11.712477223282145"><ele>589.25</ele><time>2026-04-23T12:15:04.001Z</time></trkpt><trkpt lat="45.9481811423731" lon="11.712647714585836"><ele>589.0</ele><time>2026-04-23T12:15:05.001Z</time></trkpt><trkpt lat="45.948072626142995" lon="11.712797471546812"><ele>584.6666666666667</ele><time>2026-04-23T12:15:06.001Z</time></trkpt><trkpt lat="45.94795103285425" lon="11.712934079527946"><ele>580.3333333333334</ele><time>2026-04-23T12:15:07.001Z</time></trkpt><trkpt lat="45.947796215592724" lon="11.713090304131756"><ele>576.0</ele><time>2026-04-23T12:15:08.001Z</time></trkpt><trkpt lat="45.94761794797287" lon="11.713258626974026"><ele>574.3333333333334</ele><time>2026-04-23T12:15:09.001Z</time></trkpt><trkpt lat="45.94742794303942" lon="11.71343571303613"><ele>572.6666666666667</ele><time>2026-04-23T12:15:10.001Z</time></trkpt><trkpt lat="45.94725130949538" lon="11.713606582593634"><ele>571.0</ele><time>2026-04-23T12:15:11.001Z</time></trkpt><trkpt lat="45.947061783841484" lon="11.713802726221754"><ele>571.0</ele><time>2026-04-23T12:15:12.001Z</time></trkpt><trkpt lat="45.946886357047454" lon="11.71398947701873"><ele>571.0</ele><time>2026-04-23T12:15:13.001Z</time></trkpt><trkpt lat="45.94672315182019" lon="11.71417499200485"><ele>571.0</ele><time>2026-04-23T12:15:14.001Z</time></trkpt><trkpt lat="45.946558730412924" lon="11.71437959909745"><ele>570.0</ele><time>2026-04-23T12:15:15.001Z</time></trkpt><trkpt lat="45.9464116553375" lon="11.714571074927644"><ele>569.0</ele><time>2026-04-23T12:15:16.001Z</time></trkpt><trkpt lat="45.94629935464399" lon="11.714714951365492"><ele>568.0</ele><time>2026-04-23T12:15:17.001Z</time></trkpt><trkpt lat="45.9461991658938" lon="11.71485140572335"><ele>568.0</ele><time>2026-04-23T12:15:18.001Z</time></trkpt><trkpt lat="45.9461192499533" lon="11.715008078051465"><ele>568.0</ele><time>2026-04-23T12:15:19.001Z</time></trkpt><trkpt lat="45.946053940495524" lon="11.715216979920626"><ele>568.0</ele><time>2026-04-23T12:15:20.001Z</time></trkpt><trkpt lat="45.945999319834385" lon="11.715445234865998"><ele>567.8</ele><time>2026-04-23T12:15:21.001Z</time></trkpt><trkpt lat="45.94596249081415" lon="11.715607998075452"><ele>567.5999999999999</ele><time>2026-04-23T12:15:22.001Z</time></trkpt><trkpt lat="45.94592428628639" lon="11.715738900971369"><ele>567.4000000000001</ele><time>2026-04-23T12:15:23.001Z</time></trkpt><trkpt lat="45.94586639123403" lon="11.715847888696985"><ele>567.2</ele><time>2026-04-23T12:15:24.001Z</time></trkpt><trkpt lat="45.94578867657178" lon="11.71591878739188"><ele>567.0</ele><time>2026-04-23T12:15:25.001Z</time></trkpt><trkpt lat="45.94567557326778" lon="11.715977205342991"><ele>563.0</ele><time>2026-04-23T12:15:26Z</time></trkpt><trkpt lat="45.94551821621323" lon="11.716077321201466"><ele>559.0</ele><time>2026-04-23T12:15:27Z</time></trkpt><trkpt lat="45.94537675715056" lon="11.716199318206815"><ele>555.0</ele><time>2026-04-23T12:15:28Z</time></trkpt><trkpt lat="45.94521321665144" lon="11.71634626634469"><ele>555.0</ele><time>2026-04-23T12:15:29Z</time></trkpt><trkpt lat="45.945064822301305" lon="11.716507432775064"><ele>555.0</ele><time>2026-04-23T12:15:30Z</time></trkpt><trkpt lat="45.944943118633674" lon="11.716669330188044"><ele>555.0</ele><time>2026-04-23T12:15:31Z</time></trkpt><trkpt lat="45.94484146045379" lon="11.7168376661705"><ele>553.0</ele><time>2026-04-23T12:15:32Z</time></trkpt><trkpt lat="45.944752783671" lon="11.717032889462422"><ele>551.0</ele><time>2026-04-23T12:15:33Z</time></trkpt><trkpt lat="45.94467788483068" lon="11.7172774441235"><ele>549.0</ele><time>2026-04-23T12:15:34Z</time></trkpt><trkpt lat="45.94462213857412" lon="11.717498258980092"><ele>549.0</ele><time>2026-04-23T12:15:35Z</time></trkpt><trkpt lat="45.94456958777085" lon="11.717672900675028"><ele>549.0</ele><time>2026-04-23T12:15:36Z</time></trkpt><trkpt lat="45.94449922050943" lon="11.717819832247178"><ele>549.0</ele><time>2026-04-23T12:15:37Z</time></trkpt><trkpt lat="45.94440500661946" lon="11.717931330981454"><ele>549.0</ele><time>2026-04-23T12:15:38Z</time></trkpt><trkpt lat="45.94428593451375" lon="11.718036074812305"><ele>550.0</ele><time>2026-04-23T12:15:39Z</time></trkpt><trkpt lat="45.944136928546214" lon="11.718140099391592"><ele>551.0</ele><time>2026-04-23T12:15:40Z</time></trkpt><trkpt lat="45.94397783899575" lon="11.718233488389675"><ele>552.0</ele><time>2026-04-23T12:15:41Z</time></trkpt><trkpt lat="45.94379519072104" lon="11.718324738122806"><ele>552.0</ele><time>2026-04-23T12:15:42Z</time></trkpt><trkpt lat="45.943628991872295" lon="11.718403627357809"><ele>552.0</ele><time>2026-04-23T12:15:43Z</time></trkpt><trkpt lat="45.943487603579975" lon="11.718463326928108"><ele>552.0</ele><time>2026-04-23T12:15:44Z</time></trkpt><trkpt lat="45.943359248461164" lon="11.718495040788286"><ele>553.6666666666666</ele><time>2026-04-23T12:15:45Z</time></trkpt><trkpt lat="45.943217849413884" lon="11.718494635256228"><ele>555.3333333333333</ele><time>2026-04-23T12:15:46Z</time></trkpt><trkpt lat="45.94304519929138" lon="11.718478194943774"><ele>557.0</ele><time>2026-04-23T12:15:47Z</time></trkpt><trkpt lat="45.94285354763865" lon="11.718451539613019"><ele>557.0</ele><time>2026-04-23T12:15:48Z</time></trkpt><trkpt lat="45.942695786425695" lon="11.718427375554485"><ele>557.0</ele><time>2026-04-23T12:15:49Z</time></trkpt><trkpt lat="45.9425590503215" lon="11.718390072105164"><ele>557.0</ele><time>2026-04-23T12:15:50Z</time></trkpt><trkpt lat="45.942448650364405" lon="11.718340418875563"><ele>557.0</ele><time>2026-04-23T12:15:51Z</time></trkpt><trkpt lat="45.94234102705641" lon="11.718307517358411"><ele>555.8000000000001</ele><time>2026-04-23T12:15:52Z</time></trkpt><trkpt lat="45.942233285281446" lon="11.718320264301347"><ele>554.6</ele><time>2026-04-23T12:15:53Z</time></trkpt><trkpt lat="45.942121643829985" lon="11.718348156840056"><ele>553.4000000000001</ele><time>2026-04-23T12:15:54Z</time></trkpt><trkpt lat="45.942025861283945" lon="11.718409150465888"><ele>552.2</ele><time>2026-04-23T12:15:55Z</time></trkpt><trkpt lat="45.94194102100607" lon="11.718490234041656"><ele>551.0</ele><time>2026-04-23T12:15:56Z</time></trkpt><trkpt lat="45.94186621129918" lon="11.718611018062452"><ele>551.25</ele><time>2026-04-23T12:15:57Z</time></trkpt><trkpt lat="45.94181096840398" lon="11.718771422783052"><ele>551.5</ele><time>2026-04-23T12:15:58Z</time></trkpt><trkpt lat="45.9417655309262" lon="11.718980192710083"><ele>551.75</ele><time>2026-04-23T12:15:59Z</time></trkpt><trkpt lat="45.94172357317657" lon="11.719207299694979"><ele>552.0</ele><time>2026-04-23T12:16:00Z</time></trkpt><trkpt lat="45.941689211904325" lon="11.719389663728457"><ele>549.8000000000001</ele><time>2026-04-23T12:16:01Z</time></trkpt><trkpt lat="45.94166109953623" lon="11.719565076119162"><ele>547.6</ele><time>2026-04-23T12:16:02Z</time></trkpt><trkpt lat="45.94164304242251" lon="11.719707656636016"><ele>545.4000000000001</ele><time>2026-04-23T12:16:03Z</time></trkpt><trkpt lat="45.941631757067796" lon="11.719821672772296"><ele>543.2</ele><time>2026-04-23T12:16:04Z</time></trkpt><trkpt lat="45.941635527005616" lon="11.719914995114612"><ele>541.0</ele><time>2026-04-23T12:16:05Z</time></trkpt><trkpt lat="45.94171456237404" lon="11.72002252808511"><ele>537.6</ele><time>2026-04-23T12:16:07Z</time></trkpt><trkpt lat="45.9417821582369" lon="11.720001098668487"><ele>534.2</ele><time>2026-04-23T12:16:08Z</time></trkpt><trkpt lat="45.94181184193063" lon="11.719894451903361"><ele>530.8</ele><time>2026-04-23T12:16:09Z</time></trkpt><trkpt lat="45.94181637781742" lon="11.719760750790496"><ele>527.4</ele><time>2026-04-23T12:16:10Z</time></trkpt><trkpt lat="45.9418220718716" lon="11.71959370842412"><ele>524.0</ele><time>2026-04-23T12:16:11Z</time></trkpt><trkpt lat="45.94185760202344" lon="11.719459061490157"><ele>526.6</ele><time>2026-04-23T12:16:12Z</time></trkpt><trkpt lat="45.94192141819085" lon="11.719337876010904"><ele>529.2</ele><time>2026-04-23T12:16:13Z</time></trkpt><trkpt lat="45.941996932988" lon="11.71925119374902"><ele>531.8000000000001</ele><time>2026-04-23T12:16:14Z</time></trkpt><trkpt lat="45.94208688712" lon="11.71921206360244"><ele>534.4</ele><time>2026-04-23T12:16:15Z</time></trkpt><trkpt lat="45.94218875162859" lon="11.719239757052955"><ele>537.0</ele><time>2026-04-23T12:16:16Z</time></trkpt><trkpt lat="45.942315886387554" lon="11.719262239580205"><ele>537.0</ele><time>2026-04-23T12:16:17Z</time></trkpt><trkpt lat="45.942458351772885" lon="11.719367695819248"><ele>537.0</ele><time>2026-04-23T12:16:18Z</time></trkpt><trkpt lat="45.94260314982895" lon="11.719404110705801"><ele>537.0</ele><time>2026-04-23T12:16:19Z</time></trkpt><trkpt lat="45.942771000592984" lon="11.719423811684683"><ele>536.0</ele><time>2026-04-23T12:16:20Z</time></trkpt><trkpt lat="45.9429394889941" lon="11.71940141521253"><ele>535.0</ele><time>2026-04-23T12:16:21Z</time></trkpt><trkpt lat="45.94309540926639" lon="11.719334414765353"><ele>534.0</ele><time>2026-04-23T12:16:22Z</time></trkpt><trkpt lat="45.94326718860043" lon="11.719277952578047"><ele>533.0</ele><time>2026-04-23T12:16:23Z</time></trkpt><trkpt lat="45.943405820613414" lon="11.719214755534088"><ele>532.0</ele><time>2026-04-23T12:16:24Z</time></trkpt><trkpt lat="45.94353467817306" lon="11.719168034485145"><ele>531.0</ele><time>2026-04-23T12:16:25Z</time></trkpt><trkpt lat="45.943685974067655" lon="11.719142009941415"><ele>530.0</ele><time>2026-04-23T12:16:26Z</time></trkpt><trkpt lat="45.9438757095875" lon="11.719211858235155"><ele>530.0</ele><time>2026-04-23T12:16:27Z</time></trkpt><trkpt lat="45.94406537083667" lon="11.719246041219522"><ele>530.0</ele><time>2026-04-23T12:16:28Z</time></trkpt><trkpt lat="45.94421244086494" lon="11.71928285088973"><ele>530.0</ele><time>2026-04-23T12:16:29Z</time></trkpt><trkpt lat="45.94432306279187" lon="11.719310239181496"><ele>529.2</ele><time>2026-04-23T12:16:30Z</time></trkpt><trkpt lat="45.94442150996687" lon="11.719348133856062"><ele>528.4</ele><time>2026-04-23T12:16:31Z</time></trkpt><trkpt lat="45.944500811579516" lon="11.719439597916441"><ele>527.6</ele><time>2026-04-23T12:16:32Z</time></trkpt><trkpt lat="45.944550639502765" lon="11.719568075082996"><ele>526.8</ele><time>2026-04-23T12:16:33Z</time></trkpt><trkpt lat="45.94457327994986" lon="11.719735389474193"><ele>526.0</ele><time>2026-04-23T12:16:34Z</time></trkpt><trkpt lat="45.94456871451416" lon="11.719934984676344"><ele>523.3333333333334</ele><time>2026-04-23T12:16:35Z</time></trkpt><trkpt lat="45.944545266934874" lon="11.720153493324814"><ele>520.6666666666666</ele><time>2026-04-23T12:16:36Z</time></trkpt><trkpt lat="45.94450838542703" lon="11.720381005058245"><ele>518.0</ele><time>2026-04-23T12:16:37Z</time></trkpt><trkpt lat="45.944465241527155" lon="11.72061059985372"><ele>516.6666666666666</ele><time>2026-04-23T12:16:38Z</time></trkpt><trkpt lat="45.94440148617911" lon="11.720865102346284"><ele>515.3333333333334</ele><time>2026-04-23T12:16:39Z</time></trkpt><trkpt lat="45.944324506303396" lon="11.721089608372274"><ele>514.0</ele><time>2026-04-23T12:16:40Z</time></trkpt><trkpt lat="45.9442439514349" lon="11.72128824726534"><ele>513.6</ele><time>2026-04-23T12:16:41Z</time></trkpt><trkpt lat="45.944173942478585" lon="11.721461551568908"><ele>513.2</ele><time>2026-04-23T12:16:42Z</time></trkpt><trkpt lat="45.94413213256105" lon="11.721620100628364"><ele>512.8000000000001</ele><time>2026-04-23T12:16:43Z</time></trkpt><trkpt lat="45.94410307904698" lon="11.721761269633122"><ele>512.4</ele><time>2026-04-23T12:16:44Z</time></trkpt><trkpt lat="45.944100299303926" lon="11.7218739672045"><ele>512.0</ele><time>2026-04-23T12:16:45Z</time></trkpt><trkpt lat="45.94412184325952" lon="11.721975049944007"><ele>509.8</ele><time>2026-04-23T12:16:46Z</time></trkpt><trkpt lat="45.944175778065386" lon="11.72205476702116"><ele>507.6</ele><time>2026-04-23T12:16:47Z</time></trkpt><trkpt lat="45.94426658182661" lon="11.722096874802011"><ele>505.40000000000003</ele><time>2026-04-23T12:16:48Z</time></trkpt><trkpt lat="45.94438340103588" lon="11.72208504188"><ele>503.20000000000005</ele><time>2026-04-23T12:16:49Z</time></trkpt><trkpt lat="45.94452551209073" lon="11.72202487288228"><ele>501.0</ele><time>2026-04-23T12:16:50Z</time></trkpt><trkpt lat="45.94469042467771" lon="11.721933951970863"><ele>503.0</ele><time>2026-04-23T12:16:51Z</time></trkpt><trkpt lat="45.944836536452094" lon="11.721843692072376"><ele>505.0</ele><time>2026-04-23T12:16:52Z</time></trkpt><trkpt lat="45.944983400739616" lon="11.721723566755955"><ele>507.0</ele><time>2026-04-23T12:16:53Z</time></trkpt><trkpt lat="45.94512396306366" lon="11.721546440721157"><ele>502.0</ele><time>2026-04-23T12:16:54Z</time></trkpt><trkpt lat="45.94525044926826" lon="11.721352576402605"><ele>497.0</ele><time>2026-04-23T12:16:55Z</time></trkpt><trkpt lat="45.94537487128699" lon="11.721197960647114"><ele>492.0</ele><time>2026-04-23T12:16:56Z</time></trkpt><trkpt lat="45.945521819064815" lon="11.721080425547479"><ele>493.33333333333337</ele><time>2026-04-23T12:16:57Z</time></trkpt><trkpt lat="45.94568039073949" lon="11.720992901987515"><ele>494.6666666666667</ele><time>2026-04-23T12:16:58Z</time></trkpt><trkpt lat="45.94585343296498" lon="11.720927892308982"><ele>496.0</ele><time>2026-04-23T12:16:59Z</time></trkpt><trkpt lat="45.94604344680163" lon="11.720899954553898"><ele>496.0</ele><time>2026-04-23T12:17:00Z</time></trkpt><trkpt lat="45.94623088756451" lon="11.72088190729887"><ele>496.0</ele><time>2026-04-23T12:17:01Z</time></trkpt><trkpt lat="45.946380550268394" lon="11.720871016897561"><ele>496.0</ele><time>2026-04-23T12:17:02Z</time></trkpt><trkpt lat="45.94648729228329" lon="11.720843577685855"><ele>496.0</ele><time>2026-04-23T12:17:03Z</time></trkpt><trkpt lat="45.94658782681984" lon="11.720783853090607"><ele>496.0</ele><time>2026-04-23T12:17:04Z</time></trkpt><trkpt lat="45.946672441184845" lon="11.72067078013663"><ele>496.0</ele><time>2026-04-23T12:17:05Z</time></trkpt><trkpt lat="45.94674454069858" lon="11.720506173984283"><ele>496.0</ele><time>2026-04-23T12:17:06Z</time></trkpt><trkpt lat="45.946800548971765" lon="11.720307297418051"><ele>496.0</ele><time>2026-04-23T12:17:07Z</time></trkpt><trkpt lat="45.94684549012252" lon="11.720069860529524"><ele>492.0</ele><time>2026-04-23T12:17:08Z</time></trkpt><trkpt lat="45.94689944773059" lon="11.719847700160091"><ele>488.0</ele><time>2026-04-23T12:17:09Z</time></trkpt><trkpt lat="45.94698596017105" lon="11.71962665363891"><ele>484.0</ele><time>2026-04-23T12:17:10Z</time></trkpt><trkpt lat="45.94710240241362" lon="11.719407609557836"><ele>485.0</ele><time>2026-04-23T12:17:11Z</time></trkpt><trkpt lat="45.94724880541703" lon="11.719180247095888"><ele>486.0</ele><time>2026-04-23T12:17:12Z</time></trkpt><trkpt lat="45.947387436958266" lon="11.718958723895431"><ele>487.0</ele><time>2026-04-23T12:17:13Z</time></trkpt><trkpt lat="45.94752733464197" lon="11.718698171389637"><ele>481.0</ele><time>2026-04-23T12:17:14Z</time></trkpt><trkpt lat="45.947679416527784" lon="11.718391548461458"><ele>475.0</ele><time>2026-04-23T12:17:15Z</time></trkpt><trkpt lat="45.9478166893203" lon="11.71809705031377"><ele>475.0</ele><time>2026-04-23T12:17:16Z</time></trkpt><trkpt lat="45.9479365209489" lon="11.717838578995229"><ele>475.0</ele><time>2026-04-23T12:17:17Z</time></trkpt><trkpt lat="45.94805794489576" lon="11.717612800379667"><ele>475.0</ele><time>2026-04-23T12:17:18Z</time></trkpt><trkpt lat="45.948191635626905" lon="11.717418511810655"><ele>475.0</ele><time>2026-04-23T12:17:19Z</time></trkpt><trkpt lat="45.948339567964354" lon="11.717230651482916"><ele>475.0</ele><time>2026-04-23T12:17:20Z</time></trkpt><trkpt lat="45.94849738951678" lon="11.717046990834346"><ele>475.0</ele><time>2026-04-23T12:17:21Z</time></trkpt><trkpt lat="45.94867728896129" lon="11.716859511565197"><ele>475.0</ele><time>2026-04-23T12:17:22Z</time></trkpt><trkpt lat="45.94885801135299" lon="11.71669689867263"><ele>475.0</ele><time>2026-04-23T12:17:23Z</time></trkpt><trkpt lat="45.94902232585556" lon="11.716561532634552"><ele>475.0</ele><time>2026-04-23T12:17:24Z</time></trkpt><trkpt lat="45.949187390453616" lon="11.716446795234914"><ele>473.0</ele><time>2026-04-23T12:17:25Z</time></trkpt><trkpt lat="45.94935098709092" lon="11.716276018732374"><ele>471.0</ele><time>2026-04-23T12:17:26Z</time></trkpt><trkpt lat="45.94952695289078" lon="11.716055821708823"><ele>469.0</ele><time>2026-04-23T12:17:27Z</time></trkpt><trkpt lat="45.94970680901459" lon="11.715825728396133"><ele>469.0</ele><time>2026-04-23T12:17:28Z</time></trkpt><trkpt lat="45.94985184135057" lon="11.715627124145813"><ele>469.0</ele><time>2026-04-23T12:17:29Z</time></trkpt><trkpt lat="45.94996584290897" lon="11.71545857799625"><ele>469.0</ele><time>2026-04-23T12:17:30Z</time></trkpt><trkpt lat="45.95006760115018" lon="11.715271798664585"><ele>464.6666666666667</ele><time>2026-04-23T12:17:31Z</time></trkpt><trkpt lat="45.950152742990014" lon="11.715049412397287"><ele>460.33333333333337</ele><time>2026-04-23T12:17:32Z</time></trkpt><trkpt lat="45.950236687522974" lon="11.714849122090524"><ele>456.0</ele><time>2026-04-23T12:17:33Z</time></trkpt><trkpt lat="45.95029094943423" lon="11.71468805480746"><ele>456.0</ele><time>2026-04-23T12:17:34Z</time></trkpt><trkpt lat="45.95033940864747" lon="11.71455536592077"><ele>456.0</ele><time>2026-04-23T12:17:35Z</time></trkpt><trkpt lat="45.9503857377829" lon="11.714452234759529"><ele>456.0</ele><time>2026-04-23T12:17:36Z</time></trkpt><trkpt lat="45.950423853367596" lon="11.71437245540878"><ele>456.0</ele><time>2026-04-23T12:17:37Z</time></trkpt><trkpt lat="45.95053710970868" lon="11.71440777241955"><ele>456.0</ele><time>2026-04-23T12:17:39Z</time></trkpt><trkpt lat="45.950564668476176" lon="11.71451180223375"><ele>456.0</ele><time>2026-04-23T12:17:40Z</time></trkpt><trkpt lat="45.95054580882934" lon="11.714641067700494"><ele>456.0</ele><time>2026-04-23T12:17:41Z</time></trkpt><trkpt lat="45.950500944595845" lon="11.714793944816096"><ele>456.0</ele><time>2026-04-23T12:17:42Z</time></trkpt><trkpt lat="45.950464091785335" lon="11.714951469929396"><ele>456.0</ele><time>2026-04-23T12:17:43Z</time></trkpt><trkpt lat="45.950428086612725" lon="11.71511573206496"><ele>456.0</ele><time>2026-04-23T12:17:44Z</time></trkpt><trkpt lat="45.95038507702316" lon="11.71533375076866"><ele>455.0</ele><time>2026-04-23T12:17:45Z</time></trkpt><trkpt lat="45.950342171793665" lon="11.71556752383947"><ele>454.0</ele><time>2026-04-23T12:17:46Z</time></trkpt><trkpt lat="45.95030719836362" lon="11.715791671949958"><ele>453.0</ele><time>2026-04-23T12:17:47Z</time></trkpt><trkpt lat="45.950268967685886" lon="11.716055983357233"><ele>452.0</ele><time>2026-04-23T12:17:48Z</time></trkpt><trkpt lat="45.950257183830644" lon="11.716346003238014"><ele>451.0</ele><time>2026-04-23T12:17:49Z</time></trkpt><trkpt lat="45.95024211350743" lon="11.716600469627316"><ele>450.0</ele><time>2026-04-23T12:17:50Z</time></trkpt><trkpt lat="45.95024493580172" lon="11.716835522226154"><ele>449.66666666666663</ele><time>2026-04-23T12:17:51Z</time></trkpt><trkpt lat="45.95027103061068" lon="11.717079130929386"><ele>449.3333333333333</ele><time>2026-04-23T12:17:52Z</time></trkpt><trkpt lat="45.950323796869235" lon="11.717339475993068"><ele>449.0</ele><time>2026-04-23T12:17:53Z</time></trkpt><trkpt lat="45.95038738237442" lon="11.717615470277403"><ele>448.0</ele><time>2026-04-23T12:17:54Z</time></trkpt><trkpt lat="45.95043561722015" lon="11.717861848439675"><ele>447.0</ele><time>2026-04-23T12:17:55Z</time></trkpt><trkpt lat="45.95046510771805" lon="11.71807968459343"><ele>446.0</ele><time>2026-04-23T12:17:56Z</time></trkpt><trkpt lat="45.95048337683277" lon="11.718275255737971"><ele>446.0</ele><time>2026-04-23T12:17:57Z</time></trkpt><trkpt lat="45.95049705027345" lon="11.718455589142717"><ele>446.0</ele><time>2026-04-23T12:17:58Z</time></trkpt><trkpt lat="45.950499791094195" lon="11.718613132739206"><ele>446.0</ele><time>2026-04-23T12:17:59Z</time></trkpt><trkpt lat="45.95047807491232" lon="11.718763336180613"><ele>446.0</ele><time>2026-04-23T12:18:00Z</time></trkpt><trkpt lat="45.95042859133247" lon="11.71890481714156"><ele>445.0</ele><time>2026-04-23T12:18:01Z</time></trkpt><trkpt lat="45.95036027333826" lon="11.719055455209888"><ele>444.0</ele><time>2026-04-23T12:18:02Z</time></trkpt><trkpt lat="45.95025773413644" lon="11.719219982517012"><ele>443.0</ele><time>2026-04-23T12:18:03Z</time></trkpt><trkpt lat="45.9501389699534" lon="11.719386606723791"><ele>442.0</ele><time>2026-04-23T12:18:04Z</time></trkpt><trkpt lat="45.95001612041046" lon="11.719558545413767"><ele>442.0</ele><time>2026-04-23T12:18:05Z</time></trkpt><trkpt lat="45.94987395729797" lon="11.719773072963529"><ele>442.0</ele><time>2026-04-23T12:18:06Z</time></trkpt><trkpt lat="45.9497519320697" lon="11.719976757221957"><ele>442.0</ele><time>2026-04-23T12:18:07Z</time></trkpt><trkpt lat="45.949662964851015" lon="11.720141838586146"><ele>436.75</ele><time>2026-04-23T12:18:08Z</time></trkpt><trkpt lat="45.94958532572928" lon="11.720283782348032"><ele>431.5</ele><time>2026-04-23T12:18:09Z</time></trkpt><trkpt lat="45.949499207289165" lon="11.720398187143477"><ele>426.25</ele><time>2026-04-23T12:18:10Z</time></trkpt><trkpt lat="45.94940240977261" lon="11.72046311207271"><ele>421.0</ele><time>2026-04-23T12:18:11Z</time></trkpt><trkpt lat="45.949283139108914" lon="11.720496313487454"><ele>426.6666666666667</ele><time>2026-04-23T12:18:12Z</time></trkpt><trkpt lat="45.94913227018725" lon="11.720528930878505"><ele>432.33333333333337</ele><time>2026-04-23T12:18:13Z</time></trkpt><trkpt lat="45.948985315797586" lon="11.720590327950445"><ele>438.0</ele><time>2026-04-23T12:18:14Z</time></trkpt><trkpt lat="45.94884240474394" lon="11.720670391248186"><ele>438.0</ele><time>2026-04-23T12:18:15Z</time></trkpt><trkpt lat="45.9486858903991" lon="11.72078163071569"><ele>438.0</ele><time>2026-04-23T12:18:16Z</time></trkpt><trkpt lat="45.948532128280625" lon="11.720927794124206"><ele>438.0</ele><time>2026-04-23T12:18:17Z</time></trkpt><trkpt lat="45.9484017438573" lon="11.72109085987146"><ele>435.0</ele><time>2026-04-23T12:18:18Z</time></trkpt><trkpt lat="45.94827265737984" lon="11.721226661101854"><ele>432.0</ele><time>2026-04-23T12:18:19Z</time></trkpt><trkpt lat="45.948135484769566" lon="11.721331885948851"><ele>429.0</ele><time>2026-04-23T12:18:20Z</time></trkpt><trkpt lat="45.94800691420997" lon="11.721446351733666"><ele>429.0</ele><time>2026-04-23T12:18:21Z</time></trkpt><trkpt lat="45.94789255030893" lon="11.721611917667053"><ele>429.0</ele><time>2026-04-23T12:18:22Z</time></trkpt><trkpt lat="45.94779371161872" lon="11.721809262434835"><ele>429.0</ele><time>2026-04-23T12:18:23Z</time></trkpt><trkpt lat="45.947703439523565" lon="11.722037844320466"><ele>431.66666666666663</ele><time>2026-04-23T12:18:24Z</time></trkpt><trkpt lat="45.9476057425015" lon="11.722244124757585"><ele>434.3333333333333</ele><time>2026-04-23T12:18:25Z</time></trkpt><trkpt lat="45.94750627032884" lon="11.722417747776264"><ele>437.0</ele><time>2026-04-23T12:18:26Z</time></trkpt><trkpt lat="45.947411319509094" lon="11.722573608854116"><ele>436.99999999999994</ele><time>2026-04-23T12:18:27Z</time></trkpt><trkpt lat="45.947336317913496" lon="11.722697977588282"><ele>437.0</ele><time>2026-04-23T12:18:28Z</time></trkpt><trkpt lat="45.94727839384284" lon="11.7228016570961"><ele>437.0</ele><time>2026-04-23T12:18:29Z</time></trkpt><trkpt lat="45.94723875248962" lon="11.722895886470184"><ele>437.0</ele><time>2026-04-23T12:18:30Z</time></trkpt><trkpt lat="45.94722982065106" lon="11.722993410125842"><ele>436.99999999999994</ele><time>2026-04-23T12:18:31Z</time></trkpt><trkpt lat="45.947266785688406" lon="11.723068571298986"><ele>437.0</ele><time>2026-04-23T12:18:32Z</time></trkpt><trkpt lat="45.9473983656895" lon="11.723114972368682"><ele>435.5</ele><time>2026-04-23T12:18:34Z</time></trkpt><trkpt lat="45.94746372994425" lon="11.722994854114512"><ele>434.0</ele><time>2026-04-23T12:18:35Z</time></trkpt><trkpt lat="45.94753158740783" lon="11.722850534536894"><ele>432.5</ele><time>2026-04-23T12:18:36Z</time></trkpt><trkpt lat="45.947609858097216" lon="11.722736297232892"><ele>431.0</ele><time>2026-04-23T12:18:37Z</time></trkpt><trkpt lat="45.94768808618405" lon="11.722559516712815"><ele>424.0</ele><time>2026-04-23T12:18:38Z</time></trkpt><trkpt lat="45.94779222444727" lon="11.722372513082403"><ele>417.0</ele><time>2026-04-23T12:18:39Z</time></trkpt><trkpt lat="45.94788664441291" lon="11.722205223448524"><ele>410.0</ele><time>2026-04-23T12:18:40Z</time></trkpt><trkpt lat="45.947980552055604" lon="11.722035635799967"><ele>409.25</ele><time>2026-04-23T12:18:41Z</time></trkpt><trkpt lat="45.94808407787403" lon="11.72188245579312"><ele>408.5</ele><time>2026-04-23T12:18:42Z</time></trkpt><trkpt lat="45.948205707711736" lon="11.721768819206433"><ele>407.75</ele><time>2026-04-23T12:18:43Z</time></trkpt><trkpt lat="45.948338941148066" lon="11.721705670712359"><ele>407.0</ele><time>2026-04-23T12:18:44Z</time></trkpt><trkpt lat="45.948482607364156" lon="11.721648936782934"><ele>407.0</ele><time>2026-04-23T12:18:45Z</time></trkpt><trkpt lat="45.94862166336617" lon="11.721545774778727"><ele>407.0</ele><time>2026-04-23T12:18:46Z</time></trkpt><trkpt lat="45.948771102050145" lon="11.721387406407658"><ele>407.0</ele><time>2026-04-23T12:18:47Z</time></trkpt><trkpt lat="45.948912383090125" lon="11.721229525144896"><ele>407.0</ele><time>2026-04-23T12:18:48Z</time></trkpt><trkpt lat="45.949052669433755" lon="11.721108170806195"><ele>407.0</ele><time>2026-04-23T12:18:49Z</time></trkpt><trkpt lat="45.949198250117355" lon="11.72103315321148"><ele>407.0</ele><time>2026-04-23T12:18:50Z</time></trkpt><trkpt lat="45.94937330648922" lon="11.720991204825376"><ele>411.66666666666663</ele><time>2026-04-23T12:18:51Z</time></trkpt><trkpt lat="45.949546648490376" lon="11.72095316355501"><ele>416.33333333333337</ele><time>2026-04-23T12:18:52Z</time></trkpt><trkpt lat="45.94970218449204" lon="11.720904680042066"><ele>421.0</ele><time>2026-04-23T12:18:53Z</time></trkpt><trkpt lat="45.94986672409759" lon="11.72079805132164"><ele>412.6666666666667</ele><time>2026-04-23T12:18:54Z</time></trkpt><trkpt lat="45.950049910362495" lon="11.72064310011963"><ele>404.33333333333337</ele><time>2026-04-23T12:18:55Z</time></trkpt><trkpt lat="45.95023965780269" lon="11.720466619662693"><ele>396.0</ele><time>2026-04-23T12:18:56Z</time></trkpt><trkpt lat="45.950410948991596" lon="11.720303774271175"><ele>405.5</ele><time>2026-04-23T12:18:57Z</time></trkpt><trkpt lat="45.95058068567312" lon="11.7201135521253"><ele>415.0</ele><time>2026-04-23T12:18:58Z</time></trkpt><trkpt lat="45.95075676725204" lon="11.719877757629941"><ele>406.0</ele><time>2026-04-23T12:18:59Z</time></trkpt><trkpt lat="45.95093785481545" lon="11.719606655603373"><ele>397.0</ele><time>2026-04-23T12:19:00Z</time></trkpt><trkpt lat="45.951113286650234" lon="11.719335727315801"><ele>397.0</ele><time>2026-04-23T12:19:01Z</time></trkpt><trkpt lat="45.95130278416632" lon="11.719040966883702"><ele>397.0</ele><time>2026-04-23T12:19:02Z</time></trkpt><trkpt lat="45.95147439921357" lon="11.718776061657604"><ele>403.0</ele><time>2026-04-23T12:19:03Z</time></trkpt><trkpt lat="45.9516130454171" lon="11.718561137453422"><ele>409.0</ele><time>2026-04-23T12:19:04Z</time></trkpt><trkpt lat="45.95174085847883" lon="11.718364915198332"><ele>415.0</ele><time>2026-04-23T12:19:05Z</time></trkpt><trkpt lat="45.95185944466094" lon="11.7181626836632"><ele>399.0</ele><time>2026-04-23T12:19:06Z</time></trkpt><trkpt lat="45.95195316077776" lon="11.717950040348581"><ele>383.0</ele><time>2026-04-23T12:19:07Z</time></trkpt><trkpt lat="45.95202904804285" lon="11.717739101937475"><ele>367.0</ele><time>2026-04-23T12:19:08Z</time></trkpt><trkpt lat="45.95208517135115" lon="11.717530575421911"><ele>367.0</ele><time>2026-04-23T12:19:09Z</time></trkpt><trkpt lat="45.9521172621386" lon="11.717308130602127"><ele>367.0</ele><time>2026-04-23T12:19:10Z</time></trkpt><trkpt lat="45.95212756982454" lon="11.717037865810669"><ele>367.0</ele><time>2026-04-23T12:19:11Z</time></trkpt><trkpt lat="45.95213109440083" lon="11.716739400761831"><ele>370.0</ele><time>2026-04-23T12:19:12Z</time></trkpt><trkpt lat="45.952146761725544" lon="11.716444671372326"><ele>373.0</ele><time>2026-04-23T12:19:13Z</time></trkpt><trkpt lat="45.95217025749496" lon="11.71616232683306"><ele>376.0</ele><time>2026-04-23T12:19:14Z</time></trkpt><trkpt lat="45.95219003044733" lon="11.715926524678022"><ele>376.0</ele><time>2026-04-23T12:19:15Z</time></trkpt><trkpt lat="45.952200366020946" lon="11.715731752228319"><ele>376.0</ele><time>2026-04-23T12:19:16Z</time></trkpt><trkpt lat="45.95221198363556" lon="11.715574558273556"><ele>376.0</ele><time>2026-04-23T12:19:17Z</time></trkpt><trkpt lat="45.95221671590823" lon="11.715457346414018"><ele>376.0</ele><time>2026-04-23T12:19:18Z</time></trkpt><trkpt lat="45.95225165431257" lon="11.715381503217575"><ele>376.0</ele><time>2026-04-23T12:19:19Z</time></trkpt><trkpt lat="45.952337311794054" lon="11.715334702166462"><ele>376.0</ele><time>2026-04-23T12:19:21Z</time></trkpt><trkpt lat="45.95239318581897" lon="11.715465330262752"><ele>376.0</ele><time>2026-04-23T12:19:23Z</time></trkpt><trkpt lat="45.95238677767933" lon="11.715591283484699"><ele>376.0</ele><time>2026-04-23T12:19:24Z</time></trkpt><trkpt lat="45.9523928078731" lon="11.71577104448513"><ele>376.0</ele><time>2026-04-23T12:19:25Z</time></trkpt><trkpt lat="45.952402888492315" lon="11.715934538746415"><ele>376.0</ele><time>2026-04-23T12:19:26Z</time></trkpt><trkpt lat="45.952419232325" lon="11.716142424659362"><ele>376.25</ele><time>2026-04-23T12:19:27Z</time></trkpt><trkpt lat="45.952437617909155" lon="11.716371292669656"><ele>376.5</ele><time>2026-04-23T12:19:28Z</time></trkpt><trkpt lat="45.95243532393043" lon="11.716563415325604"><ele>376.75</ele><time>2026-04-23T12:19:29Z</time></trkpt><trkpt lat="45.9524204701501" lon="11.716750164524786"><ele>377.0</ele><time>2026-04-23T12:19:30Z</time></trkpt><trkpt lat="45.95238693606149" lon="11.716957378216048"><ele>374.5</ele><time>2026-04-23T12:19:31Z</time></trkpt><trkpt lat="45.95234931852449" lon="11.71718738900029"><ele>372.0</ele><time>2026-04-23T12:19:32Z</time></trkpt><trkpt lat="45.95232328665788" lon="11.717348561604643"><ele>369.5</ele><time>2026-04-23T12:19:33Z</time></trkpt><trkpt lat="45.95230875741754" lon="11.717455981316256"><ele>367.0</ele><time>2026-04-23T12:19:34Z</time></trkpt><trkpt lat="45.952342201020066" lon="11.717615381852463"><ele>367.0</ele><time>2026-04-23T12:19:36Z</time></trkpt><trkpt lat="45.952486168339064" lon="11.71762429112448"><ele>367.0</ele><time>2026-04-23T12:19:38Z</time></trkpt><trkpt lat="45.95253218278306" lon="11.717475984087743"><ele>367.0</ele><time>2026-04-23T12:19:39Z</time></trkpt><trkpt lat="45.952571768304196" lon="11.717305229298711"><ele>367.0</ele><time>2026-04-23T12:19:40Z</time></trkpt><trkpt lat="45.952606406342376" lon="11.71714237158133"><ele>342.66666666666663</ele><time>2026-04-23T12:19:41Z</time></trkpt><trkpt lat="45.952640239708046" lon="11.71694451162212"><ele>318.3333333333333</ele><time>2026-04-23T12:19:42Z</time></trkpt><trkpt lat="45.95266527966887" lon="11.716676106303643"><ele>294.0</ele><time>2026-04-23T12:19:43Z</time></trkpt><trkpt lat="45.95267226611278" lon="11.716392273190634"><ele>294.0</ele><time>2026-04-23T12:19:44Z</time></trkpt><trkpt lat="45.9526794427657" lon="11.716098408934375"><ele>294.0</ele><time>2026-04-23T12:19:45Z</time></trkpt><trkpt lat="45.952693698220166" lon="11.7157643033469"><ele>294.0</ele><time>2026-04-23T12:19:46Z</time></trkpt><trkpt lat="45.952707310689824" lon="11.715477126249011"><ele>308.6666666666667</ele><time>2026-04-23T12:19:47Z</time></trkpt><trkpt lat="45.952725943772364" lon="11.715230231640858"><ele>323.33333333333337</ele><time>2026-04-23T12:19:48Z</time></trkpt><trkpt lat="45.95275664102584" lon="11.715009152295552"><ele>338.0</ele><time>2026-04-23T12:19:49Z</time></trkpt><trkpt lat="45.95281132194377" lon="11.7148155667969"><ele>338.0</ele><time>2026-04-23T12:19:50Z</time></trkpt><trkpt lat="45.95285529952429" lon="11.714636777223163"><ele>338.0</ele><time>2026-04-23T12:19:51Z</time></trkpt><trkpt lat="45.9528590936421" lon="11.714428771249116"><ele>338.0</ele><time>2026-04-23T12:19:52Z</time></trkpt><trkpt lat="45.95283725296844" lon="11.714160630643256"><ele>336.6666666666667</ele><time>2026-04-23T12:19:53Z</time></trkpt><trkpt lat="45.952786708188555" lon="11.713866319319873"><ele>335.3333333333333</ele><time>2026-04-23T12:19:54Z</time></trkpt><trkpt lat="45.95272886019735" lon="11.71362778070477"><ele>334.0</ele><time>2026-04-23T12:19:55Z</time></trkpt><trkpt lat="45.9526903953075" lon="11.713422853255901"><ele>329.25</ele><time>2026-04-23T12:19:56Z</time></trkpt><trkpt lat="45.95265550229476" lon="11.71323109334283"><ele>324.5</ele><time>2026-04-23T12:19:57Z</time></trkpt><trkpt lat="45.95264177940983" lon="11.713052592609612"><ele>319.75</ele><time>2026-04-23T12:19:58Z</time></trkpt><trkpt lat="45.95265129067439" lon="11.712886089700111"><ele>315.0</ele><time>2026-04-23T12:19:59Z</time></trkpt><trkpt lat="45.95268308096745" lon="11.712724241690175"><ele>315.0</ele><time>2026-04-23T12:20:00Z</time></trkpt><trkpt lat="45.952748157552676" lon="11.712550666070952"><ele>315.0</ele><time>2026-04-23T12:20:01Z</time></trkpt><trkpt lat="45.952835834670346" lon="11.712354664662476"><ele>315.0</ele><time>2026-04-23T12:20:02Z</time></trkpt><trkpt lat="45.95293536096114" lon="11.712148990339399"><ele>315.0</ele><time>2026-04-23T12:20:03Z</time></trkpt><trkpt lat="45.953021049318636" lon="11.711938597414877"><ele>315.0</ele><time>2026-04-23T12:20:04Z</time></trkpt><trkpt lat="45.95308418193559" lon="11.711698041534142"><ele>315.0</ele><time>2026-04-23T12:20:05Z</time></trkpt><trkpt lat="45.953122959442844" lon="11.711430561985722"><ele>318.3333333333333</ele><time>2026-04-23T12:20:06Z</time></trkpt><trkpt lat="45.9531583479424" lon="11.711139431875308"><ele>321.66666666666663</ele><time>2026-04-23T12:20:07Z</time></trkpt><trkpt lat="45.953200546824114" lon="11.710869673947354"><ele>325.0</ele><time>2026-04-23T12:20:08Z</time></trkpt><trkpt lat="45.95328705275745" lon="11.71063642048576"><ele>332.0</ele><time>2026-04-23T12:20:09Z</time></trkpt><trkpt lat="45.95335680880696" lon="11.71033313468688"><ele>339.0</ele><time>2026-04-23T12:20:10Z</time></trkpt><trkpt lat="45.95340270191882" lon="11.710021865849404"><ele>346.0</ele><time>2026-04-23T12:20:11Z</time></trkpt><trkpt lat="45.953446239360396" lon="11.709754889377418"><ele>336.5</ele><time>2026-04-23T12:20:12Z</time></trkpt><trkpt lat="45.95347859996843" lon="11.709523782175141"><ele>327.0</ele><time>2026-04-23T12:20:13Z</time></trkpt><trkpt lat="45.95350980067663" lon="11.709323791878335"><ele>317.5</ele><time>2026-04-23T12:20:14Z</time></trkpt><trkpt lat="45.95354991479674" lon="11.709164347034122"><ele>308.0</ele><time>2026-04-23T12:20:15Z</time></trkpt><trkpt lat="45.953601871059945" lon="11.709022567442535"><ele>308.0</ele><time>2026-04-23T12:20:16Z</time></trkpt><trkpt lat="45.953695286177734" lon="11.708867378809956"><ele>308.0</ele><time>2026-04-23T12:20:17Z</time></trkpt><trkpt lat="45.953793143264654" lon="11.708714255017837"><ele>308.0</ele><time>2026-04-23T12:20:18Z</time></trkpt><trkpt lat="45.95386694302073" lon="11.708578504660423"><ele>308.0</ele><time>2026-04-23T12:20:19Z</time></trkpt><trkpt lat="45.953936284472185" lon="11.708473118380537"><ele>308.0</ele><time>2026-04-23T12:20:20Z</time></trkpt><trkpt lat="45.95398006026509" lon="11.708395955603386"><ele>308.0</ele><time>2026-04-23T12:20:21Z</time></trkpt><trkpt lat="45.95403163024553" lon="11.708296624420525"><ele>308.0</ele><time>2026-04-23T12:20:23Z</time></trkpt><trkpt lat="45.954080453351594" lon="11.708363010825428"><ele>308.0</ele><time>2026-04-23T12:20:25Z</time></trkpt><trkpt lat="45.95402547199297" lon="11.708478640159479"><ele>308.0</ele><time>2026-04-23T12:20:27Z</time></trkpt><trkpt lat="45.95394375636329" lon="11.708599245903944"><ele>308.0</ele><time>2026-04-23T12:20:28Z</time></trkpt><trkpt lat="45.953874744382865" lon="11.708725175656316"><ele>308.0</ele><time>2026-04-23T12:20:29Z</time></trkpt><trkpt lat="45.953786823624775" lon="11.70887527877922"><ele>308.0</ele><time>2026-04-23T12:20:30Z</time></trkpt><trkpt lat="45.95370454560067" lon="11.709065208458316"><ele>308.0</ele><time>2026-04-23T12:20:31Z</time></trkpt><trkpt lat="45.95361793813557" lon="11.70921963480597"><ele>308.0</ele><time>2026-04-23T12:20:32Z</time></trkpt><trkpt lat="45.953560852890426" lon="11.709414435825751"><ele>299.33333333333337</ele><time>2026-04-23T12:20:33Z</time></trkpt><trkpt lat="45.95354222482955" lon="11.709640893689818"><ele>290.6666666666667</ele><time>2026-04-23T12:20:34Z</time></trkpt><trkpt lat="45.95351729624446" lon="11.709888947525243"><ele>282.0</ele><time>2026-04-23T12:20:35Z</time></trkpt><trkpt lat="45.953485999207224" lon="11.710162270022234"><ele>277.3333333333333</ele><time>2026-04-23T12:20:36Z</time></trkpt><trkpt lat="45.953445491362444" lon="11.710395659391166"><ele>272.66666666666663</ele><time>2026-04-23T12:20:37Z</time></trkpt><trkpt lat="45.953415401130144" lon="11.710645319841134"><ele>268.0</ele><time>2026-04-23T12:20:38Z</time></trkpt><trkpt lat="45.95340039799992" lon="11.710896104190285"><ele>264.75</ele><time>2026-04-23T12:20:39Z</time></trkpt><trkpt lat="45.953392777844016" lon="11.711114746542696"><ele>261.5</ele><time>2026-04-23T12:20:40Z</time></trkpt><trkpt lat="45.953391436286054" lon="11.711288051756565"><ele>258.25</ele><time>2026-04-23T12:20:41Z</time></trkpt><trkpt lat="45.95337909689419" lon="11.711458914414791"><ele>255.0</ele><time>2026-04-23T12:20:42Z</time></trkpt><trkpt lat="45.9533474314986" lon="11.711617787532592"><ele>270.0</ele><time>2026-04-23T12:20:43Z</time></trkpt><trkpt lat="45.953288297663704" lon="11.711782081901557"><ele>285.0</ele><time>2026-04-23T12:20:44Z</time></trkpt><trkpt lat="45.953207230353726" lon="11.711964586461821"><ele>300.0</ele><time>2026-04-23T12:20:45Z</time></trkpt><trkpt lat="45.95314297524654" lon="11.71214295113288"><ele>315.0</ele><time>2026-04-23T12:20:46Z</time></trkpt><trkpt lat="45.95310179248654" lon="11.71234637758268"><ele>315.0</ele><time>2026-04-23T12:20:47Z</time></trkpt><trkpt lat="45.95308624321608" lon="11.712573626405677"><ele>315.0</ele><time>2026-04-23T12:20:48Z</time></trkpt><trkpt lat="45.95308430895498" lon="11.712816793714701"><ele>315.0</ele><time>2026-04-23T12:20:49Z</time></trkpt><trkpt lat="45.9530828923765" lon="11.713025771519133"><ele>313.6</ele><time>2026-04-23T12:20:50Z</time></trkpt><trkpt lat="45.95307816618059" lon="11.713188896612893"><ele>312.2</ele><time>2026-04-23T12:20:51Z</time></trkpt><trkpt lat="45.95306927931851" lon="11.713303723071247"><ele>310.8</ele><time>2026-04-23T12:20:52Z</time></trkpt><trkpt lat="45.95306592703359" lon="11.713405566618837"><ele>309.4</ele><time>2026-04-23T12:20:53Z</time></trkpt><trkpt lat="45.953123632962686" lon="11.713542496787007"><ele>308.0</ele><time>2026-04-23T12:20:55Z</time></trkpt><trkpt lat="45.953202904016855" lon="11.71351873180466"><ele>308.0</ele><time>2026-04-23T12:20:57Z</time></trkpt><trkpt lat="45.95324684410878" lon="11.71345388765047"><ele>308.0</ele><time>2026-04-23T12:20:58Z</time></trkpt><trkpt lat="45.95323337021685" lon="11.713309773764708"><ele>308.0</ele><time>2026-04-23T12:20:59Z</time></trkpt><trkpt lat="45.9532529617028" lon="11.713142644836118"><ele>308.0</ele><time>2026-04-23T12:21:00Z</time></trkpt><trkpt lat="45.953246321365356" lon="11.712971966649537"><ele>308.0</ele><time>2026-04-23T12:21:01Z</time></trkpt><trkpt lat="45.95326661365622" lon="11.712803066958694"><ele>309.75</ele><time>2026-04-23T12:21:02Z</time></trkpt><trkpt lat="45.953279486928366" lon="11.712615775555497"><ele>311.5</ele><time>2026-04-23T12:21:03Z</time></trkpt><trkpt lat="45.95331206069298" lon="11.712433024634112"><ele>313.25</ele><time>2026-04-23T12:21:04Z</time></trkpt><trkpt lat="45.95337150381242" lon="11.712269444619073"><ele>315.0</ele><time>2026-04-23T12:21:05Z</time></trkpt><trkpt lat="45.95346011433347" lon="11.712113027555464"><ele>300.0</ele><time>2026-04-23T12:21:06Z</time></trkpt><trkpt lat="45.95355804315326" lon="11.711969293691253"><ele>285.0</ele><time>2026-04-23T12:21:07Z</time></trkpt><trkpt lat="45.95363835201094" lon="11.711843651281011"><ele>270.0</ele><time>2026-04-23T12:21:08Z</time></trkpt><trkpt lat="45.95368837677702" lon="11.711711202714616"><ele>255.0</ele><time>2026-04-23T12:21:09Z</time></trkpt><trkpt lat="45.95371188445017" lon="11.711556974830518"><ele>255.0</ele><time>2026-04-23T12:21:10Z</time></trkpt><trkpt lat="45.953716681612526" lon="11.711370318763716"><ele>255.0</ele><time>2026-04-23T12:21:11Z</time></trkpt><trkpt lat="45.953716193998346" lon="11.711153661479896"><ele>255.0</ele><time>2026-04-23T12:21:12Z</time></trkpt><trkpt lat="45.953744367837324" lon="11.710943430030595"><ele>255.0</ele><time>2026-04-23T12:21:13Z</time></trkpt><trkpt lat="45.953784708597205" lon="11.710750561861724"><ele>259.3333333333333</ele><time>2026-04-23T12:21:14Z</time></trkpt><trkpt lat="45.95384467511688" lon="11.710527278233522"><ele>263.66666666666663</ele><time>2026-04-23T12:21:15Z</time></trkpt><trkpt lat="45.95393157356102" lon="11.710275506670962"><ele>268.0</ele><time>2026-04-23T12:21:16Z</time></trkpt><trkpt lat="45.95403153576022" lon="11.710024429976247"><ele>265.3333333333333</ele><time>2026-04-23T12:21:17Z</time></trkpt><trkpt lat="45.9541318877676" lon="11.70978647456065"><ele>262.6666666666667</ele><time>2026-04-23T12:21:18Z</time></trkpt><trkpt lat="45.95424574969385" lon="11.70953775208769"><ele>260.0</ele><time>2026-04-23T12:21:19Z</time></trkpt><trkpt lat="45.95436755936062" lon="11.70929072398217"><ele>260.0</ele><time>2026-04-23T12:21:20Z</time></trkpt><trkpt lat="45.95448277712307" lon="11.709072024474066"><ele>260.0</ele><time>2026-04-23T12:21:21Z</time></trkpt><trkpt lat="45.954578348967125" lon="11.708872781874804"><ele>260.0</ele><time>2026-04-23T12:21:22Z</time></trkpt><trkpt lat="45.954669468168326" lon="11.708724190693925"><ele>260.0</ele><time>2026-04-23T12:21:23Z</time></trkpt><trkpt lat="45.95473004539958" lon="11.70860177556457"><ele>260.0</ele><time>2026-04-23T12:21:24Z</time></trkpt><trkpt lat="45.95478024422355" lon="11.70849910456198"><ele>260.0</ele><time>2026-04-23T12:21:25Z</time></trkpt><trkpt lat="45.954818009750745" lon="11.70842186287231"><ele>260.0</ele><time>2026-04-23T12:21:26Z</time></trkpt><trkpt lat="45.95486233509528" lon="11.708351868548963"><ele>260.0</ele><time>2026-04-23T12:21:28Z</time></trkpt><trkpt lat="45.95491919565875" lon="11.708482351980392"><ele>260.0</ele><time>2026-04-23T12:21:31Z</time></trkpt><trkpt lat="45.95486025472252" lon="11.70855474434406"><ele>260.0</ele><time>2026-04-23T12:21:32Z</time></trkpt><trkpt lat="45.95480793452442" lon="11.708687338514418"><ele>260.0</ele><time>2026-04-23T12:21:33Z</time></trkpt><trkpt lat="45.95474626278803" lon="11.708821339697405"><ele>260.0</ele><time>2026-04-23T12:21:34Z</time></trkpt><trkpt lat="45.95469770825947" lon="11.708941834380402"><ele>260.0</ele><time>2026-04-23T12:21:35Z</time></trkpt><trkpt lat="45.95464621139048" lon="11.70906511023705"><ele>260.0</ele><time>2026-04-23T12:21:36Z</time></trkpt><trkpt lat="45.95459933615495" lon="11.709198586268641"><ele>260.0</ele><time>2026-04-23T12:21:37Z</time></trkpt><trkpt lat="45.95454923326059" lon="11.709334812457726"><ele>260.0</ele><time>2026-04-23T12:21:38Z</time></trkpt><trkpt lat="45.954493508773425" lon="11.709482414129871"><ele>260.0</ele><time>2026-04-23T12:21:39Z</time></trkpt><trkpt lat="45.95443859656652" lon="11.709663263322001"><ele>260.0</ele><time>2026-04-23T12:21:40Z</time></trkpt><trkpt lat="45.95437895281352" lon="11.709893202450719"><ele>254.66666666666669</ele><time>2026-04-23T12:21:41Z</time></trkpt><trkpt lat="45.95433723012779" lon="11.71011386190481"><ele>249.33333333333331</ele><time>2026-04-23T12:21:42Z</time></trkpt><trkpt lat="45.95428614410583" lon="11.710324661542527"><ele>244.0</ele><time>2026-04-23T12:21:43Z</time></trkpt><trkpt lat="45.95424237781583" lon="11.710548157579018"><ele>246.75</ele><time>2026-04-23T12:21:44Z</time></trkpt><trkpt lat="45.9541960869322" lon="11.710770252851331"><ele>249.5</ele><time>2026-04-23T12:21:45Z</time></trkpt><trkpt lat="45.95413713551187" lon="11.7109404111704"><ele>252.25</ele><time>2026-04-23T12:21:46Z</time></trkpt><trkpt lat="45.95408881014287" lon="11.711051676544802"><ele>255.0</ele><time>2026-04-23T12:21:47Z</time></trkpt><trkpt lat="45.95405831246927" lon="11.711218910054052"><ele>255.0</ele><time>2026-04-23T12:21:49Z</time></trkpt><trkpt lat="45.95411695262475" lon="11.711328627261445"><ele>255.0</ele><time>2026-04-23T12:21:51Z</time></trkpt><trkpt lat="45.95418108720574" lon="11.711336960291916"><ele>255.0</ele><time>2026-04-23T12:21:52Z</time></trkpt><trkpt lat="45.95422940090923" lon="11.711191386643751"><ele>255.0</ele><time>2026-04-23T12:21:53Z</time></trkpt><trkpt lat="45.954283059006706" lon="11.71106933781992"><ele>255.0</ele><time>2026-04-23T12:21:54Z</time></trkpt><trkpt lat="45.95434539554186" lon="11.710909362987412"><ele>252.25</ele><time>2026-04-23T12:21:55Z</time></trkpt><trkpt lat="45.95439721927788" lon="11.710780264621683"><ele>249.5</ele><time>2026-04-23T12:21:56Z</time></trkpt><trkpt lat="45.95446549520739" lon="11.71059155212225"><ele>246.75</ele><time>2026-04-23T12:21:57Z</time></trkpt><trkpt lat="45.95455564640314" lon="11.710359749195606"><ele>244.0</ele><time>2026-04-23T12:21:58Z</time></trkpt><trkpt lat="45.95464180619674" lon="11.710150805254358"><ele>244.0</ele><time>2026-04-23T12:21:59Z</time></trkpt><trkpt lat="45.95474463660011" lon="11.709926433274294"><ele>244.0</ele><time>2026-04-23T12:22:00Z</time></trkpt><trkpt lat="45.95486637789921" lon="11.709678745024334"><ele>244.0</ele><time>2026-04-23T12:22:01Z</time></trkpt><trkpt lat="45.9549939521066" lon="11.709454012314906"><ele>240.33333333333331</ele><time>2026-04-23T12:22:02Z</time></trkpt><trkpt lat="45.95511208070957" lon="11.709254508046245"><ele>236.66666666666669</ele><time>2026-04-23T12:22:03Z</time></trkpt><trkpt lat="45.955242619236884" lon="11.709063954398669"><ele>233.0</ele><time>2026-04-23T12:22:04Z</time></trkpt><trkpt lat="45.95541084462926" lon="11.708897015194173"><ele>233.0</ele><time>2026-04-23T12:22:05Z</time></trkpt><trkpt lat="45.955569653627535" lon="11.70870428364333"><ele>233.0</ele><time>2026-04-23T12:22:06Z</time></trkpt><trkpt lat="45.95573097381793" lon="11.708557664603072"><ele>233.0</ele><time>2026-04-23T12:22:07Z</time></trkpt><trkpt lat="45.955913377321025" lon="11.708418723653852"><ele>231.0</ele><time>2026-04-23T12:22:08Z</time></trkpt><trkpt lat="45.95612859934251" lon="11.708303162008574"><ele>229.0</ele><time>2026-04-23T12:22:09Z</time></trkpt><trkpt lat="45.95636406239881" lon="11.708183292127808"><ele>229.0</ele><time>2026-04-23T12:22:10Z</time></trkpt><trkpt lat="45.95658775674586" lon="11.708039111393633"><ele>229.0</ele><time>2026-04-23T12:22:11Z</time></trkpt><trkpt lat="45.95681166510341" lon="11.707922886357826"><ele>232.5</ele><time>2026-04-23T12:22:12Z</time></trkpt><trkpt lat="45.95703355184869" lon="11.707800743226905"><ele>236.0</ele><time>2026-04-23T12:22:13Z</time></trkpt><trkpt lat="45.957233762448276" lon="11.707694807839825"><ele>236.0</ele><time>2026-04-23T12:22:14Z</time></trkpt><trkpt lat="45.95741257933564" lon="11.707613373022141"><ele>236.0</ele><time>2026-04-23T12:22:15Z</time></trkpt><trkpt lat="45.95757842070723" lon="11.707546738244302"><ele>236.0</ele><time>2026-04-23T12:22:16Z</time></trkpt><trkpt lat="45.95773025501957" lon="11.707471169229782"><ele>229.66666666666669</ele><time>2026-04-23T12:22:17Z</time></trkpt><trkpt lat="45.95787372985079" lon="11.707356589648564"><ele>223.33333333333331</ele><time>2026-04-23T12:22:18Z</time></trkpt><trkpt lat="45.9580311603491" lon="11.707201008797679"><ele>217.0</ele><time>2026-04-23T12:22:19Z</time></trkpt><trkpt lat="45.9582238114029" lon="11.707027817645766"><ele>220.0</ele><time>2026-04-23T12:22:20Z</time></trkpt><trkpt lat="45.95839216940806" lon="11.706879066955"><ele>223.0</ele><time>2026-04-23T12:22:21Z</time></trkpt><trkpt lat="45.958526843644705" lon="11.706744570376829"><ele>226.0</ele><time>2026-04-23T12:22:22Z</time></trkpt><trkpt lat="45.95863752044743" lon="11.706656947917494"><ele>226.0</ele><time>2026-04-23T12:22:23Z</time></trkpt><trkpt lat="45.95875048353039" lon="11.70659580724304"><ele>226.00000000000003</ele><time>2026-04-23T12:22:24Z</time></trkpt><trkpt lat="45.9588626267724" lon="11.706564528928478"><ele>226.00000000000003</ele><time>2026-04-23T12:22:25Z</time></trkpt><trkpt lat="45.95896186015177" lon="11.706557372147792"><ele>226.0</ele><time>2026-04-23T12:22:26Z</time></trkpt><trkpt lat="45.95904974325957" lon="11.70655567167499"><ele>226.0</ele><time>2026-04-23T12:22:27Z</time></trkpt><trkpt lat="45.95912989605421" lon="11.706562742159505"><ele>226.0</ele><time>2026-04-23T12:22:28Z</time></trkpt><trkpt lat="45.959198569223865" lon="11.706590799898693"><ele>226.00000000000003</ele><time>2026-04-23T12:22:29Z</time></trkpt><trkpt lat="45.95929288050369" lon="11.70665796226921"><ele>226.00000000000003</ele><time>2026-04-23T12:22:31Z</time></trkpt><trkpt lat="45.95932617205045" lon="11.706789046185538"><ele>226.0</ele><time>2026-04-23T12:22:33Z</time></trkpt><trkpt lat="45.959336984906585" lon="11.706895363110453"><ele>226.0</ele><time>2026-04-23T12:22:34Z</time></trkpt><trkpt lat="45.95935273485916" lon="11.707050223878479"><ele>224.0</ele><time>2026-04-23T12:22:35Z</time></trkpt><trkpt lat="45.95936796177864" lon="11.707203746730123"><ele>222.00000000000003</ele><time>2026-04-23T12:22:36Z</time></trkpt><trkpt lat="45.9593857287002" lon="11.707335960912511"><ele>220.00000000000003</ele><time>2026-04-23T12:22:37Z</time></trkpt><trkpt lat="45.95939948419776" lon="11.707487801065001"><ele>218.0</ele><time>2026-04-23T12:22:38Z</time></trkpt><trkpt lat="45.95941417367605" lon="11.707661563232778"><ele>216.0</ele><time>2026-04-23T12:22:39Z</time></trkpt><trkpt lat="45.95942735874003" lon="11.707838803175632"><ele>216.0</ele><time>2026-04-23T12:22:40Z</time></trkpt><trkpt lat="45.95943575503114" lon="11.70799062704549"><ele>216.0</ele><time>2026-04-23T12:22:41Z</time></trkpt><trkpt lat="45.959451986859726" lon="11.708112080982133"><ele>216.0</ele><time>2026-04-23T12:22:42Z</time></trkpt><trkpt lat="45.95946350874047" lon="11.708205279740529"><ele>216.0</ele><time>2026-04-23T12:22:43Z</time></trkpt><trkpt lat="45.95947054037249" lon="11.708300905736358"><ele>216.0</ele><time>2026-04-23T12:22:44Z</time></trkpt><trkpt lat="45.9594631184534" lon="11.70841906955167"><ele>216.0</ele><time>2026-04-23T12:22:45Z</time></trkpt><trkpt lat="45.95943130902162" lon="11.708554651090836"><ele>216.0</ele><time>2026-04-23T12:22:46Z</time></trkpt><trkpt lat="45.95937856651691" lon="11.708674782464962"><ele>216.0</ele><time>2026-04-23T12:22:47Z</time></trkpt><trkpt lat="45.95930298905225" lon="11.708767685451981"><ele>216.0</ele><time>2026-04-23T12:22:48Z</time></trkpt><trkpt lat="45.95919105985208" lon="11.70887055312173"><ele>216.0</ele><time>2026-04-23T12:22:49Z</time></trkpt><trkpt lat="45.95908398764583" lon="11.708973422485661"><ele>216.0</ele><time>2026-04-23T12:22:50Z</time></trkpt><trkpt lat="45.95895299874923" lon="11.709107154619188"><ele>216.0</ele><time>2026-04-23T12:22:51Z</time></trkpt><trkpt lat="45.958801163514735" lon="11.709255930144142"><ele>216.0</ele><time>2026-04-23T12:22:52Z</time></trkpt><trkpt lat="45.95866284278707" lon="11.709383007807324"><ele>215.75</ele><time>2026-04-23T12:22:53Z</time></trkpt><trkpt lat="45.95853599715523" lon="11.709500585133684"><ele>215.5</ele><time>2026-04-23T12:22:54Z</time></trkpt><trkpt lat="45.95841444637448" lon="11.709588222825314"><ele>215.25</ele><time>2026-04-23T12:22:55Z</time></trkpt><trkpt lat="45.95828570620418" lon="11.70963850229895"><ele>215.0</ele><time>2026-04-23T12:22:56Z</time></trkpt><trkpt lat="45.95814848840809" lon="11.709659914065295"><ele>215.0</ele><time>2026-04-23T12:22:57Z</time></trkpt><trkpt lat="45.95799829722734" lon="11.709666603645317"><ele>215.0</ele><time>2026-04-23T12:22:58Z</time></trkpt><trkpt lat="45.957882574732864" lon="11.709685298374124"><ele>215.0</ele><time>2026-04-23T12:22:59Z</time></trkpt><trkpt lat="45.957794054445046" lon="11.709728063987122"><ele>215.0</ele><time>2026-04-23T12:23:00Z</time></trkpt><trkpt lat="45.95772887160844" lon="11.709797250035768"><ele>215.0</ele><time>2026-04-23T12:23:01Z</time></trkpt><trkpt lat="45.95767936256001" lon="11.70988938665359"><ele>215.00000000000003</ele><time>2026-04-23T12:23:02Z</time></trkpt><trkpt lat="45.95764484087571" lon="11.710001118191505"><ele>215.0</ele><time>2026-04-23T12:23:03Z</time></trkpt><trkpt lat="45.95763949139494" lon="11.710117888173246"><ele>215.0</ele><time>2026-04-23T12:23:04Z</time></trkpt><trkpt lat="45.95766023266956" lon="11.710231580382734"><ele>215.0</ele><time>2026-04-23T12:23:05Z</time></trkpt><trkpt lat="45.95768812610771" lon="11.710354141574008"><ele>215.00000000000003</ele><time>2026-04-23T12:23:06Z</time></trkpt><trkpt lat="45.95777314706065" lon="11.710454936454123"><ele>215.0</ele><time>2026-04-23T12:23:07Z</time></trkpt><trkpt lat="45.9578627302316" lon="11.710566828218765"><ele>219.0</ele><time>2026-04-23T12:23:08Z</time></trkpt><trkpt lat="45.95794257912181" lon="11.710696213400437"><ele>223.0</ele><time>2026-04-23T12:23:09Z</time></trkpt><trkpt lat="45.95801846005493" lon="11.71077287867798"><ele>227.0</ele><time>2026-04-23T12:23:10Z</time></trkpt><trkpt lat="45.95811255530023" lon="11.710766475451619"><ele>231.0</ele><time>2026-04-23T12:23:11Z</time></trkpt><trkpt lat="45.958198016864976" lon="11.710753662049173"><ele>235.0</ele><time>2026-04-23T12:23:12Z</time></trkpt><trkpt lat="45.95828802681584" lon="11.710703345356809"><ele>232.75</ele><time>2026-04-23T12:23:13Z</time></trkpt><trkpt lat="45.95838655711761" lon="11.710607411912912"><ele>230.5</ele><time>2026-04-23T12:23:14Z</time></trkpt><trkpt lat="45.95851404384705" lon="11.71047289923401"><ele>228.25</ele><time>2026-04-23T12:23:15Z</time></trkpt><trkpt lat="45.95865243797849" lon="11.710356761583025"><ele>226.0</ele><time>2026-04-23T12:23:16Z</time></trkpt><trkpt lat="45.95879906996464" lon="11.710221369314162"><ele>226.0</ele><time>2026-04-23T12:23:17Z</time></trkpt><trkpt lat="45.95898545710045" lon="11.71004836842795"><ele>226.0</ele><time>2026-04-23T12:23:18Z</time></trkpt><trkpt lat="45.95915650650456" lon="11.709882055626439"><ele>226.0</ele><time>2026-04-23T12:23:19Z</time></trkpt><trkpt lat="45.95932993289651" lon="11.70970938966617"><ele>225.33333333333331</ele><time>2026-04-23T12:23:20Z</time></trkpt><trkpt lat="45.959496961037516" lon="11.70951957882009"><ele>224.66666666666669</ele><time>2026-04-23T12:23:21Z</time></trkpt><trkpt lat="45.95964620364958" lon="11.70934997591088"><ele>224.0</ele><time>2026-04-23T12:23:22Z</time></trkpt><trkpt lat="45.9598013956252" lon="11.709217397454946"><ele>224.0</ele><time>2026-04-23T12:23:23Z</time></trkpt><trkpt lat="45.95998248292965" lon="11.709103081951517"><ele>224.0</ele><time>2026-04-23T12:23:24Z</time></trkpt><trkpt lat="45.960174647678684" lon="11.709016579813078"><ele>224.0</ele><time>2026-04-23T12:23:25Z</time></trkpt><trkpt lat="45.960362936688824" lon="11.708952272017418"><ele>222.6</ele><time>2026-04-23T12:23:26Z</time></trkpt><trkpt lat="45.96050917531527" lon="11.708922565521636"><ele>221.2</ele><time>2026-04-23T12:23:27Z</time></trkpt><trkpt lat="45.960601636803716" lon="11.70891687398062"><ele>219.79999999999998</ele><time>2026-04-23T12:23:28Z</time></trkpt><trkpt lat="45.96066962249418" lon="11.708924008953927"><ele>218.39999999999998</ele><time>2026-04-23T12:23:29Z</time></trkpt><trkpt lat="45.96075376309837" lon="11.70891894982991"><ele>217.0</ele><time>2026-04-23T12:23:31Z</time></trkpt><trkpt lat="45.96082406107011" lon="11.708908353777689"><ele>216.0</ele><time>2026-04-23T12:23:33Z</time></trkpt><trkpt lat="45.96097389822158" lon="11.708867218997794"><ele>215.0</ele><time>2026-04-23T12:23:35Z</time></trkpt><trkpt lat="45.96110122729271" lon="11.708846720288285"><ele>214.0</ele><time>2026-04-23T12:23:36Z</time></trkpt><trkpt lat="45.96121562970726" lon="11.708834738043889"><ele>213.0</ele><time>2026-04-23T12:23:37Z</time></trkpt><trkpt lat="45.961375448891964" lon="11.708817067784237"><ele>213.0</ele><time>2026-04-23T12:23:38Z</time></trkpt><trkpt lat="45.961534061243306" lon="11.708789543692719"><ele>213.0</ele><time>2026-04-23T12:23:39Z</time></trkpt><trkpt lat="45.96169251690426" lon="11.708759435079461"><ele>213.0</ele><time>2026-04-23T12:23:40Z</time></trkpt><trkpt lat="45.961878591418014" lon="11.70872439834847"><ele>212.66666666666669</ele><time>2026-04-23T12:23:41Z</time></trkpt><trkpt lat="45.96209048828058" lon="11.708696319085668"><ele>212.33333333333334</ele><time>2026-04-23T12:23:42Z</time></trkpt><trkpt lat="45.9622896164171" lon="11.708672597062305"><ele>212.0</ele><time>2026-04-23T12:23:43Z</time></trkpt><trkpt lat="45.96249089408062" lon="11.708644330261674"><ele>212.0</ele><time>2026-04-23T12:23:44Z</time></trkpt><trkpt lat="45.962689814677276" lon="11.708611267248656"><ele>212.0</ele><time>2026-04-23T12:23:45Z</time></trkpt><trkpt lat="45.962871414162606" lon="11.708583495767762"><ele>212.0</ele><time>2026-04-23T12:23:46Z</time></trkpt><trkpt lat="45.96304819521901" lon="11.708551245921743"><ele>212.0</ele><time>2026-04-23T12:23:47Z</time></trkpt><trkpt lat="45.9632107497538" lon="11.708502377395954"><ele>212.0</ele><time>2026-04-23T12:23:48Z</time></trkpt><trkpt lat="45.96333867553476" lon="11.70844933884234"><ele>212.0</ele><time>2026-04-23T12:23:49Z</time></trkpt><trkpt lat="45.96344886981062" lon="11.708399536977792"><ele>212.0</ele><time>2026-04-23T12:23:50Z</time></trkpt><trkpt lat="45.96355247495275" lon="11.708339598109134"><ele>212.75</ele><time>2026-04-23T12:23:51Z</time></trkpt><trkpt lat="45.96366149830921" lon="11.708264578442606"><ele>213.5</ele><time>2026-04-23T12:23:52Z</time></trkpt><trkpt lat="45.9637786882391" lon="11.708172461564963"><ele>214.25</ele><time>2026-04-23T12:23:53Z</time></trkpt><trkpt lat="45.96389523987207" lon="11.708060187884552"><ele>215.0</ele><time>2026-04-23T12:23:54Z</time></trkpt><trkpt lat="45.96400720965942" lon="11.707926254095831"><ele>215.0</ele><time>2026-04-23T12:23:55Z</time></trkpt><trkpt lat="45.96411544616266" lon="11.707772991700839"><ele>215.0</ele><time>2026-04-23T12:23:56Z</time></trkpt><trkpt lat="45.96422887786332" lon="11.707592513017191"><ele>215.0</ele><time>2026-04-23T12:23:57Z</time></trkpt><trkpt lat="45.96433293073825" lon="11.707394102405333"><ele>215.33333333333334</ele><time>2026-04-23T12:23:58Z</time></trkpt><trkpt lat="45.964424118749484" lon="11.707176436676717"><ele>215.66666666666669</ele><time>2026-04-23T12:23:59Z</time></trkpt><trkpt lat="45.964506038489695" lon="11.706929970663822"><ele>216.0</ele><time>2026-04-23T12:24:00Z</time></trkpt><trkpt lat="45.964579630107515" lon="11.706662640770384"><ele>216.0</ele><time>2026-04-23T12:24:01Z</time></trkpt><trkpt lat="45.964650278396746" lon="11.70636296975539"><ele>216.0</ele><time>2026-04-23T12:24:02Z</time></trkpt><trkpt lat="45.964724354546526" lon="11.706028951248765"><ele>216.0</ele><time>2026-04-23T12:24:03Z</time></trkpt><trkpt lat="45.9648043570752" lon="11.705671602270131"><ele>216.0</ele><time>2026-04-23T12:24:04Z</time></trkpt><trkpt lat="45.96487873888693" lon="11.70534242211847"><ele>216.0</ele><time>2026-04-23T12:24:05Z</time></trkpt><trkpt lat="45.964951190899406" lon="11.705030654878861"><ele>216.0</ele><time>2026-04-23T12:24:06Z</time></trkpt><trkpt lat="45.965023220076716" lon="11.704713921397508"><ele>218.0</ele><time>2026-04-23T12:24:07Z</time></trkpt><trkpt lat="45.96509478140919" lon="11.704388702285275"><ele>220.0</ele><time>2026-04-23T12:24:08Z</time></trkpt><trkpt lat="45.965174544691244" lon="11.70403154927736"><ele>220.0</ele><time>2026-04-23T12:24:09Z</time></trkpt><trkpt lat="45.96525743907684" lon="11.703657052820713"><ele>220.0</ele><time>2026-04-23T12:24:10Z</time></trkpt><trkpt lat="45.96533612523412" lon="11.703306900770036"><ele>220.66666666666666</ele><time>2026-04-23T12:24:11Z</time></trkpt><trkpt lat="45.96540627978099" lon="11.702992578166407"><ele>221.33333333333331</ele><time>2026-04-23T12:24:12Z</time></trkpt><trkpt lat="45.96546641236961" lon="11.702728136644971"><ele>222.0</ele><time>2026-04-23T12:24:13Z</time></trkpt><trkpt lat="45.96551670249264" lon="11.702503957315615"><ele>222.0</ele><time>2026-04-23T12:24:14Z</time></trkpt><trkpt lat="45.96555576963385" lon="11.702322732420733"><ele>222.0</ele><time>2026-04-23T12:24:15Z</time></trkpt><trkpt lat="45.96558529857213" lon="11.702177960487292"><ele>222.0</ele><time>2026-04-23T12:24:16Z</time></trkpt><trkpt lat="45.96561243005434" lon="11.702069367917359"><ele>222.0</ele><time>2026-04-23T12:24:17Z</time></trkpt><trkpt lat="45.965693240472355" lon="11.701970001711981"><ele>222.0</ele><time>2026-04-23T12:24:19Z</time></trkpt><trkpt lat="45.96577411270385" lon="11.70202253359363"><ele>222.0</ele><time>2026-04-23T12:24:21Z</time></trkpt><trkpt lat="45.96576865902873" lon="11.702209190210452"><ele>222.0</ele><time>2026-04-23T12:24:23Z</time></trkpt><trkpt lat="45.96578581165861" lon="11.702348223003096"><ele>222.0</ele><time>2026-04-23T12:24:24Z</time></trkpt><trkpt lat="45.965768116908556" lon="11.70255548643183"><ele>222.0</ele><time>2026-04-23T12:24:25Z</time></trkpt><trkpt lat="45.9657655906434" lon="11.702805600987542"><ele>222.0</ele><time>2026-04-23T12:24:26Z</time></trkpt><trkpt lat="45.96576300848606" lon="11.70303075392345"><ele>222.0</ele><time>2026-04-23T12:24:27Z</time></trkpt><trkpt lat="45.96575888252421" lon="11.703280069449706"><ele>222.0</ele><time>2026-04-23T12:24:28Z</time></trkpt><trkpt lat="45.96576182545184" lon="11.703553667889489"><ele>221.33333333333331</ele><time>2026-04-23T12:24:29Z</time></trkpt><trkpt lat="45.96573522618013" lon="11.703797112431168"><ele>220.66666666666666</ele><time>2026-04-23T12:24:30Z</time></trkpt><trkpt lat="45.965704689637704" lon="11.704045951872128"><ele>220.0</ele><time>2026-04-23T12:24:31Z</time></trkpt><trkpt lat="45.96566353219068" lon="11.704326946233618"><ele>220.66666666666666</ele><time>2026-04-23T12:24:32Z</time></trkpt><trkpt lat="45.96562696869794" lon="11.70458354044306"><ele>221.33333333333331</ele><time>2026-04-23T12:24:33Z</time></trkpt><trkpt lat="45.96559191899657" lon="11.704852263573999"><ele>222.0</ele><time>2026-04-23T12:24:34Z</time></trkpt><trkpt lat="45.96555642023969" lon="11.705101652910317"><ele>221.75</ele><time>2026-04-23T12:24:35Z</time></trkpt><trkpt lat="45.96552108918317" lon="11.7053248395007"><ele>221.5</ele><time>2026-04-23T12:24:36Z</time></trkpt><trkpt lat="45.96548975941494" lon="11.705531900516899"><ele>221.25</ele><time>2026-04-23T12:24:37Z</time></trkpt><trkpt lat="45.96545292709449" lon="11.705690863747847"><ele>221.0</ele><time>2026-04-23T12:24:38Z</time></trkpt><trkpt lat="45.965437425129664" lon="11.705796210756686"><ele>221.0</ele><time>2026-04-23T12:24:39Z</time></trkpt><trkpt lat="45.96543851945285" lon="11.705915678158036"><ele>221.0</ele><time>2026-04-23T12:24:40Z</time></trkpt><trkpt lat="45.96541299910867" lon="11.70606402926025"><ele>221.0</ele><time>2026-04-23T12:24:41Z</time></trkpt><trkpt lat="45.9653835109028" lon="11.706272642950013"><ele>221.0</ele><time>2026-04-23T12:24:42Z</time></trkpt><trkpt lat="45.9653548750415" lon="11.706470197606592"><ele>223.0</ele><time>2026-04-23T12:24:43Z</time></trkpt><trkpt lat="45.96532961608408" lon="11.706631269046868"><ele>225.0</ele><time>2026-04-23T12:24:44Z</time></trkpt><trkpt lat="45.965292305251836" lon="11.706786930250594"><ele>227.0</ele><time>2026-04-23T12:24:45Z</time></trkpt><trkpt lat="45.96526372907623" lon="11.706999534782076"><ele>229.0</ele><time>2026-04-23T12:24:46Z</time></trkpt><trkpt lat="45.96523535641788" lon="11.7072252565551"><ele>231.66666666666666</ele><time>2026-04-23T12:24:47Z</time></trkpt><trkpt lat="45.965187355469055" lon="11.707454166340348"><ele>234.33333333333331</ele><time>2026-04-23T12:24:48Z</time></trkpt><trkpt lat="45.965152503667845" lon="11.70773093781921"><ele>237.0</ele><time>2026-04-23T12:24:49Z</time></trkpt><trkpt lat="45.96511353210532" lon="11.708016994390125"><ele>233.33333333333331</ele><time>2026-04-23T12:24:50Z</time></trkpt><trkpt lat="45.96508031624293" lon="11.70825651507748"><ele>229.66666666666666</ele><time>2026-04-23T12:24:51Z</time></trkpt><trkpt lat="45.965050105868485" lon="11.7084643977724"><ele>226.0</ele><time>2026-04-23T12:24:52Z</time></trkpt><trkpt lat="45.96500118264131" lon="11.70864335923493"><ele>226.0</ele><time>2026-04-23T12:24:53Z</time></trkpt><trkpt lat="45.964941025077124" lon="11.708845291928334"><ele>226.0</ele><time>2026-04-23T12:24:54Z</time></trkpt><trkpt lat="45.96487932490399" lon="11.709028474160164"><ele>226.0</ele><time>2026-04-23T12:24:55Z</time></trkpt><trkpt lat="45.96482090975426" lon="11.709171511515706"><ele>226.0</ele><time>2026-04-23T12:24:56Z</time></trkpt><trkpt lat="45.96477599895329" lon="11.70928245990003"><ele>226.0</ele><time>2026-04-23T12:24:57Z</time></trkpt><trkpt lat="45.96472654180613" lon="11.709389061902964"><ele>226.0</ele><time>2026-04-23T12:24:58Z</time></trkpt><trkpt lat="45.9647532414959" lon="11.709553205507389"><ele>226.0</ele><time>2026-04-23T12:24:59Z</time></trkpt><trkpt lat="45.96476109156124" lon="11.709723316374264"><ele>226.0</ele><time>2026-04-23T12:25:00Z</time></trkpt><trkpt lat="45.964712706952625" lon="11.709903645268335"><ele>229.4</ele><time>2026-04-23T12:25:01Z</time></trkpt><trkpt lat="45.9646869544724" lon="11.71011132403127"><ele>232.8</ele><time>2026-04-23T12:25:02Z</time></trkpt><trkpt lat="45.964670221471025" lon="11.710246169716156"><ele>236.20000000000002</ele><time>2026-04-23T12:25:03Z</time></trkpt><trkpt lat="45.96464748373049" lon="11.710364677089819"><ele>239.60000000000002</ele><time>2026-04-23T12:25:04Z</time></trkpt><trkpt lat="45.96457533073788" lon="11.710485818293487"><ele>243.0</ele><time>2026-04-23T12:25:05Z</time></trkpt><trkpt lat="45.96446721900672" lon="11.710634123515666"><ele>240.5</ele><time>2026-04-23T12:25:06Z</time></trkpt><trkpt lat="45.9643376911054" lon="11.710801867415578"><ele>238.0</ele><time>2026-04-23T12:25:07Z</time></trkpt><trkpt lat="45.96421972212045" lon="11.710950361173513"><ele>235.5</ele><time>2026-04-23T12:25:08Z</time></trkpt><trkpt lat="45.96413535531442" lon="11.71105523402536"><ele>233.0</ele><time>2026-04-23T12:25:09Z</time></trkpt><trkpt lat="45.96404091686362" lon="11.711125735049484"><ele>244.33333333333334</ele><time>2026-04-23T12:25:10Z</time></trkpt><trkpt lat="45.96392446474905" lon="11.711159363085978"><ele>255.66666666666669</ele><time>2026-04-23T12:25:11Z</time></trkpt><trkpt lat="45.96376931235177" lon="11.711178228873083"><ele>267.0</ele><time>2026-04-23T12:25:12Z</time></trkpt><trkpt lat="45.96357956086735" lon="11.711178835995295"><ele>267.0</ele><time>2026-04-23T12:25:13Z</time></trkpt><trkpt lat="45.96340761880008" lon="11.711170010623666"><ele>267.0</ele><time>2026-04-23T12:25:14Z</time></trkpt><trkpt lat="45.96321487786204" lon="11.711158062653253"><ele>267.0</ele><time>2026-04-23T12:25:15Z</time></trkpt><trkpt lat="45.96298854918142" lon="11.711132935682803"><ele>265.6666666666667</ele><time>2026-04-23T12:25:16Z</time></trkpt><trkpt lat="45.96275571367158" lon="11.71109064921444"><ele>264.33333333333337</ele><time>2026-04-23T12:25:17Z</time></trkpt><trkpt lat="45.962563369005444" lon="11.711043166662975"><ele>263.0</ele><time>2026-04-23T12:25:18Z</time></trkpt><trkpt lat="45.96239259143088" lon="11.710989193569892"><ele>256.25</ele><time>2026-04-23T12:25:19Z</time></trkpt><trkpt lat="45.96222940022722" lon="11.710916647751626"><ele>249.5</ele><time>2026-04-23T12:25:20Z</time></trkpt><trkpt lat="45.96209188749331" lon="11.710841190882729"><ele>242.75</ele><time>2026-04-23T12:25:21Z</time></trkpt><trkpt lat="45.962000574652514" lon="11.710780993395867"><ele>236.0</ele><time>2026-04-23T12:25:22Z</time></trkpt><trkpt lat="45.961941216514184" lon="11.710718075318306"><ele>236.0</ele><time>2026-04-23T12:25:23Z</time></trkpt><trkpt lat="45.96183199100818" lon="11.710677103181308"><ele>236.0</ele><time>2026-04-23T12:25:25Z</time></trkpt><trkpt lat="45.96174295438444" lon="11.710802978094891"><ele>236.0</ele><time>2026-04-23T12:25:27Z</time></trkpt><trkpt lat="45.96179146259918" lon="11.71094697693066"><ele>236.0</ele><time>2026-04-23T12:25:28Z</time></trkpt><trkpt lat="45.96190386960355" lon="11.710962449582427"><ele>236.0</ele><time>2026-04-23T12:25:29Z</time></trkpt><trkpt lat="45.96202616675099" lon="11.711016291868471"><ele>236.0</ele><time>2026-04-23T12:25:30Z</time></trkpt><trkpt lat="45.96214150970363" lon="11.711121155337619"><ele>236.0</ele><time>2026-04-23T12:25:31Z</time></trkpt><trkpt lat="45.962294696533384" lon="11.71122010301202"><ele>236.0</ele><time>2026-04-23T12:25:32Z</time></trkpt><trkpt lat="45.96249094311424" lon="11.711329978870426"><ele>245.0</ele><time>2026-04-23T12:25:33Z</time></trkpt><trkpt lat="45.96266608475564" lon="11.71139939258404"><ele>254.0</ele><time>2026-04-23T12:25:34Z</time></trkpt><trkpt lat="45.96283811713224" lon="11.71150648196864"><ele>263.0</ele><time>2026-04-23T12:25:35Z</time></trkpt><trkpt lat="45.96298286843618" lon="11.711582232160204"><ele>263.0</ele><time>2026-04-23T12:25:36Z</time></trkpt><trkpt lat="45.963156921069654" lon="11.71158949673402"><ele>263.0</ele><time>2026-04-23T12:25:37Z</time></trkpt><trkpt lat="45.96334326750363" lon="11.71157920655072"><ele>263.0</ele><time>2026-04-23T12:25:38Z</time></trkpt><trkpt lat="45.96353987482915" lon="11.711586881289945"><ele>264.33333333333337</ele><time>2026-04-23T12:25:39Z</time></trkpt><trkpt lat="45.963708278799295" lon="11.711644712068109"><ele>265.6666666666667</ele><time>2026-04-23T12:25:40Z</time></trkpt><trkpt lat="45.963837061222996" lon="11.711669030543357"><ele>267.0</ele><time>2026-04-23T12:25:41Z</time></trkpt><trkpt lat="45.96398870373407" lon="11.711616730034857"><ele>267.0</ele><time>2026-04-23T12:25:42Z</time></trkpt><trkpt lat="45.96416067592965" lon="11.7115656664409"><ele>267.0</ele><time>2026-04-23T12:25:43Z</time></trkpt><trkpt lat="45.964297599747674" lon="11.711563070344242"><ele>267.0</ele><time>2026-04-23T12:25:44Z</time></trkpt><trkpt lat="45.96440411603999" lon="11.711544564742626"><ele>267.0</ele><time>2026-04-23T12:25:45Z</time></trkpt><trkpt lat="45.96448061200209" lon="11.711515478210014"><ele>270.6</ele><time>2026-04-23T12:25:46Z</time></trkpt><trkpt lat="45.964578558182204" lon="11.711524505178293"><ele>274.2</ele><time>2026-04-23T12:25:48Z</time></trkpt><trkpt lat="45.964573513493015" lon="11.711659298277565"><ele>277.8</ele><time>2026-04-23T12:25:50Z</time></trkpt><trkpt lat="45.96444800532522" lon="11.711670776284368"><ele>281.4</ele><time>2026-04-23T12:25:52Z</time></trkpt><trkpt lat="45.964337957870434" lon="11.711718621526892"><ele>285.0</ele><time>2026-04-23T12:25:53Z</time></trkpt><trkpt lat="45.96424388392144" lon="11.711760576390777"><ele>287.2</ele><time>2026-04-23T12:25:54Z</time></trkpt><trkpt lat="45.96413514893616" lon="11.711798490856868"><ele>289.4</ele><time>2026-04-23T12:25:55Z</time></trkpt><trkpt lat="45.96401188313914" lon="11.711845592740904"><ele>291.6</ele><time>2026-04-23T12:25:56Z</time></trkpt><trkpt lat="45.96392097168525" lon="11.711879028143848"><ele>293.8</ele><time>2026-04-23T12:25:57Z</time></trkpt><trkpt lat="45.96386148505668" lon="11.711929969359922"><ele>296.0</ele><time>2026-04-23T12:25:58Z</time></trkpt><trkpt lat="45.96381416129066" lon="11.712063984591595"><ele>296.0</ele><time>2026-04-23T12:26:00Z</time></trkpt><trkpt lat="45.96386704656867" lon="11.712152295382696"><ele>296.0</ele><time>2026-04-23T12:26:01Z</time></trkpt><trkpt lat="45.963930569295826" lon="11.712182807323757"><ele>296.0</ele><time>2026-04-23T12:26:02Z</time></trkpt><trkpt lat="45.9640058926129" lon="11.712175693471607"><ele>296.0</ele><time>2026-04-23T12:26:03Z</time></trkpt><trkpt lat="45.96414581137935" lon="11.712178050681773"><ele>296.0</ele><time>2026-04-23T12:26:04Z</time></trkpt><trkpt lat="45.964251404667465" lon="11.712190845131047"><ele>295.75</ele><time>2026-04-23T12:26:05Z</time></trkpt><trkpt lat="45.96436993628827" lon="11.712194672711014"><ele>295.5</ele><time>2026-04-23T12:26:06Z</time></trkpt><trkpt lat="45.964489539233526" lon="11.712155319003612"><ele>295.25</ele><time>2026-04-23T12:26:07Z</time></trkpt><trkpt lat="45.96461537464873" lon="11.712053504871134"><ele>295.0</ele><time>2026-04-23T12:26:08Z</time></trkpt><trkpt lat="45.96474587889458" lon="11.71192125297925"><ele>291.66666666666663</ele><time>2026-04-23T12:26:09Z</time></trkpt><trkpt lat="45.96485560479332" lon="11.711788995984264"><ele>288.3333333333333</ele><time>2026-04-23T12:26:10Z</time></trkpt><trkpt lat="45.964956607630455" lon="11.711626846168024"><ele>285.0</ele><time>2026-04-23T12:26:11Z</time></trkpt><trkpt lat="45.96503762227509" lon="11.711421526260786"><ele>295.3333333333333</ele><time>2026-04-23T12:26:12Z</time></trkpt><trkpt lat="45.96511651198481" lon="11.711168181097245"><ele>305.66666666666663</ele><time>2026-04-23T12:26:13Z</time></trkpt><trkpt lat="45.965200749176695" lon="11.710917645153074"><ele>316.0</ele><time>2026-04-23T12:26:14Z</time></trkpt><trkpt lat="45.965264422243706" lon="11.710736503204613"><ele>316.16666666666663</ele><time>2026-04-23T12:26:15Z</time></trkpt><trkpt lat="45.96530213514698" lon="11.710592969637455"><ele>316.3333333333333</ele><time>2026-04-23T12:26:16Z</time></trkpt><trkpt lat="45.96532877063005" lon="11.710502443656463"><ele>316.5</ele><time>2026-04-23T12:26:17Z</time></trkpt><trkpt lat="45.96536611622106" lon="11.710376115369002"><ele>316.6666666666667</ele><time>2026-04-23T12:26:19Z</time></trkpt><trkpt lat="45.965460941224485" lon="11.710398429919048"><ele>316.83333333333337</ele><time>2026-04-23T12:26:21Z</time></trkpt><trkpt lat="45.965462332899875" lon="11.71051376056164"><ele>317.0</ele><time>2026-04-23T12:26:22Z</time></trkpt><trkpt lat="45.965402597717215" lon="11.710620272647565"><ele>317.0</ele><time>2026-04-23T12:26:23Z</time></trkpt><trkpt lat="45.965373588868616" lon="11.710798342929218"><ele>317.0</ele><time>2026-04-23T12:26:24Z</time></trkpt><trkpt lat="45.965329305129195" lon="11.710966564841625"><ele>317.0</ele><time>2026-04-23T12:26:25Z</time></trkpt><trkpt lat="45.965268020918266" lon="11.711188763202598"><ele>317.0</ele><time>2026-04-23T12:26:26Z</time></trkpt><trkpt lat="45.96518691777392" lon="11.711451902907935"><ele>316.6666666666667</ele><time>2026-04-23T12:26:27Z</time></trkpt><trkpt lat="45.96509280323312" lon="11.71171816104057"><ele>316.3333333333333</ele><time>2026-04-23T12:26:28Z</time></trkpt><trkpt lat="45.96500821223169" lon="11.71191869374993"><ele>316.0</ele><time>2026-04-23T12:26:29Z</time></trkpt><trkpt lat="45.9649414202647" lon="11.712051991222003"><ele>316.6</ele><time>2026-04-23T12:26:30Z</time></trkpt><trkpt lat="45.96489871959316" lon="11.712149987894367"><ele>317.20000000000005</ele><time>2026-04-23T12:26:31Z</time></trkpt><trkpt lat="45.964898600928485" lon="11.712296609642511"><ele>317.79999999999995</ele><time>2026-04-23T12:26:33Z</time></trkpt><trkpt lat="45.96498864810668" lon="11.712401387342522"><ele>318.4</ele><time>2026-04-23T12:26:35Z</time></trkpt><trkpt lat="45.965071816239934" lon="11.71233060967521"><ele>319.0</ele><time>2026-04-23T12:26:36Z</time></trkpt><trkpt lat="45.96512266547402" lon="11.712226658444852"><ele>319.0</ele><time>2026-04-23T12:26:37Z</time></trkpt><trkpt lat="45.965174957091605" lon="11.712055714477014"><ele>319.0</ele><time>2026-04-23T12:26:38Z</time></trkpt><trkpt lat="45.96523638886578" lon="11.711881084586002"><ele>319.0</ele><time>2026-04-23T12:26:39Z</time></trkpt><trkpt lat="45.96530139298122" lon="11.711711792837537"><ele>319.0</ele><time>2026-04-23T12:26:40Z</time></trkpt><trkpt lat="45.96538134659523" lon="11.711559045501444"><ele>318.4</ele><time>2026-04-23T12:26:41Z</time></trkpt><trkpt lat="45.965424702448544" lon="11.711463085450468"><ele>317.79999999999995</ele><time>2026-04-23T12:26:42Z</time></trkpt><trkpt lat="45.96549865131857" lon="11.711392175059236"><ele>317.20000000000005</ele><time>2026-04-23T12:26:44Z</time></trkpt><trkpt lat="45.96556520663703" lon="11.71151587116777"><ele>316.6</ele><time>2026-04-23T12:26:46Z</time></trkpt><trkpt lat="45.96551350991289" lon="11.711598522908133"><ele>316.0</ele><time>2026-04-23T12:26:47Z</time></trkpt><trkpt lat="45.96545494701495" lon="11.711711510430536"><ele>316.0</ele><time>2026-04-23T12:26:48Z</time></trkpt><trkpt lat="45.965389194355495" lon="11.711869475413884"><ele>316.0</ele><time>2026-04-23T12:26:49Z</time></trkpt><trkpt lat="45.965335119993235" lon="11.712001746035336"><ele>316.0</ele><time>2026-04-23T12:26:50Z</time></trkpt><trkpt lat="45.96526309573105" lon="11.712181718469925"><ele>316.0</ele><time>2026-04-23T12:26:51Z</time></trkpt><trkpt lat="45.96517185505739" lon="11.712403234175978"><ele>316.75</ele><time>2026-04-23T12:26:52Z</time></trkpt><trkpt lat="45.965082862525165" lon="11.712617540063636"><ele>317.5</ele><time>2026-04-23T12:26:53Z</time></trkpt><trkpt lat="45.96500208476275" lon="11.712803673147242"><ele>318.25</ele><time>2026-04-23T12:26:54Z</time></trkpt><trkpt lat="45.96493651585484" lon="11.712946757362808"><ele>319.0</ele><time>2026-04-23T12:26:55Z</time></trkpt><trkpt lat="45.964895177313586" lon="11.71304619678705"><ele>318.59999999999997</ele><time>2026-04-23T12:26:56Z</time></trkpt><trkpt lat="45.96487321762929" lon="11.713140807592971"><ele>318.2</ele><time>2026-04-23T12:26:57Z</time></trkpt><trkpt lat="45.96492360644981" lon="11.713287084750045"><ele>317.79999999999995</ele><time>2026-04-23T12:26:59Z</time></trkpt><trkpt lat="45.96501587784377" lon="11.713308666389365"><ele>317.4</ele><time>2026-04-23T12:27:00Z</time></trkpt><trkpt lat="45.96508234545104" lon="11.71320016249979"><ele>317.0</ele><time>2026-04-23T12:27:01Z</time></trkpt><trkpt lat="45.96512975719094" lon="11.7130776452153"><ele>317.0</ele><time>2026-04-23T12:27:02Z</time></trkpt><trkpt lat="45.9651783206499" lon="11.712911417035265"><ele>317.0</ele><time>2026-04-23T12:27:03Z</time></trkpt><trkpt lat="45.96522776525922" lon="11.71273932436498"><ele>317.0</ele><time>2026-04-23T12:27:04Z</time></trkpt><trkpt lat="45.965288662883886" lon="11.712573619469309"><ele>317.0</ele><time>2026-04-23T12:27:05Z</time></trkpt><trkpt lat="45.96537133882033" lon="11.712348090765122"><ele>316.6666666666667</ele><time>2026-04-23T12:27:06Z</time></trkpt><trkpt lat="45.965462559520844" lon="11.712093258745611"><ele>316.3333333333333</ele><time>2026-04-23T12:27:07Z</time></trkpt><trkpt lat="45.965560941600174" lon="11.711833346157595"><ele>316.0</ele><time>2026-04-23T12:27:08Z</time></trkpt><trkpt lat="45.96565192146223" lon="11.71163515038223"><ele>316.0</ele><time>2026-04-23T12:27:09Z</time></trkpt><trkpt lat="45.965719626456895" lon="11.711492006864779"><ele>316.0</ele><time>2026-04-23T12:27:10Z</time></trkpt><trkpt lat="45.96576243547363" lon="11.711392674118079"><ele>316.0</ele><time>2026-04-23T12:27:11Z</time></trkpt><trkpt lat="45.96579516065949" lon="11.711308431293059"><ele>316.0</ele><time>2026-04-23T12:27:12Z</time></trkpt><trkpt lat="45.965863529382275" lon="11.711231129095278"><ele>316.0</ele><time>2026-04-23T12:27:14Z</time></trkpt><trkpt lat="45.96591179547045" lon="11.711358758529817"><ele>326.5</ele><time>2026-04-23T12:27:16Z</time></trkpt><trkpt lat="45.965916329990485" lon="11.711511506438228"><ele>337.0</ele><time>2026-04-23T12:27:17Z</time></trkpt><trkpt lat="45.96594264396156" lon="11.71171106751652"><ele>347.5</ele><time>2026-04-23T12:27:18Z</time></trkpt><trkpt lat="45.96597055349742" lon="11.711883926389909"><ele>358.0</ele><time>2026-04-23T12:27:19Z</time></trkpt><trkpt lat="45.96601162190018" lon="11.71211966362046"><ele>358.0</ele><time>2026-04-23T12:27:20Z</time></trkpt><trkpt lat="45.966059982130155" lon="11.712404910703565"><ele>358.0</ele><time>2026-04-23T12:27:21Z</time></trkpt><trkpt lat="45.96611237256882" lon="11.712682604956948"><ele>358.0</ele><time>2026-04-23T12:27:22Z</time></trkpt><trkpt lat="45.966143943073405" lon="11.713005256376519"><ele>358.0</ele><time>2026-04-23T12:27:23Z</time></trkpt><trkpt lat="45.96616384476259" lon="11.71337216516307"><ele>358.0</ele><time>2026-04-23T12:27:24Z</time></trkpt><trkpt lat="45.96618032907871" lon="11.71376263749597"><ele>357.66666666666663</ele><time>2026-04-23T12:27:25Z</time></trkpt><trkpt lat="45.9661852440509" lon="11.714078869560193"><ele>357.3333333333333</ele><time>2026-04-23T12:27:26Z</time></trkpt><trkpt lat="45.966180643059566" lon="11.714359575933633"><ele>357.0</ele><time>2026-04-23T12:27:27Z</time></trkpt><trkpt lat="45.96617661693174" lon="11.714590520397872"><ele>355.3333333333333</ele><time>2026-04-23T12:27:28Z</time></trkpt><trkpt lat="45.966199790732595" lon="11.714789478235996"><ele>353.66666666666663</ele><time>2026-04-23T12:27:29Z</time></trkpt><trkpt lat="45.96624340293388" lon="11.71498476559226"><ele>352.0</ele><time>2026-04-23T12:27:30Z</time></trkpt><trkpt lat="45.96633039962894" lon="11.71520537473788"><ele>349.3333333333333</ele><time>2026-04-23T12:27:31Z</time></trkpt><trkpt lat="45.96641612704267" lon="11.71542026962394"><ele>346.6666666666667</ele><time>2026-04-23T12:27:32Z</time></trkpt><trkpt lat="45.96649886847951" lon="11.715636210283316"><ele>344.0</ele><time>2026-04-23T12:27:33Z</time></trkpt><trkpt lat="45.96652330295131" lon="11.71588570938271"><ele>343.75</ele><time>2026-04-23T12:27:34Z</time></trkpt><trkpt lat="45.966546736298795" lon="11.716123183933087"><ele>343.5</ele><time>2026-04-23T12:27:35Z</time></trkpt><trkpt lat="45.96658868822592" lon="11.716318665732437"><ele>343.25</ele><time>2026-04-23T12:27:36Z</time></trkpt><trkpt lat="45.96662879618172" lon="11.71649288906525"><ele>343.0</ele><time>2026-04-23T12:27:37Z</time></trkpt><trkpt lat="45.96674919633591" lon="11.716642934304227"><ele>344.25</ele><time>2026-04-23T12:27:38Z</time></trkpt><trkpt lat="45.966871309113735" lon="11.716775881896533"><ele>345.5</ele><time>2026-04-23T12:27:39Z</time></trkpt><trkpt lat="45.967007974513365" lon="11.716891236076336"><ele>346.75</ele><time>2026-04-23T12:27:40Z</time></trkpt><trkpt lat="45.9671304328522" lon="11.716947746701509"><ele>348.0</ele><time>2026-04-23T12:27:41Z</time></trkpt><trkpt lat="45.967263499432676" lon="11.716985245328184"><ele>348.6666666666667</ele><time>2026-04-23T12:27:42Z</time></trkpt><trkpt lat="45.96740809638839" lon="11.716914959926395"><ele>349.33333333333337</ele><time>2026-04-23T12:27:43Z</time></trkpt><trkpt lat="45.96757470353579" lon="11.716836804601144"><ele>350.0</ele><time>2026-04-23T12:27:44Z</time></trkpt><trkpt lat="45.967774926233375" lon="11.716769597393704"><ele>350.33333333333337</ele><time>2026-04-23T12:27:45Z</time></trkpt><trkpt lat="45.9679703999318" lon="11.716681914423033"><ele>350.6666666666667</ele><time>2026-04-23T12:27:46Z</time></trkpt><trkpt lat="45.96813127513339" lon="11.716582648856265"><ele>351.0</ele><time>2026-04-23T12:27:47Z</time></trkpt><trkpt lat="45.9682760377071" lon="11.716488037829638"><ele>350.5</ele><time>2026-04-23T12:27:48Z</time></trkpt><trkpt lat="45.96841332244403" lon="11.716375542189818"><ele>350.0</ele><time>2026-04-23T12:27:49Z</time></trkpt><trkpt lat="45.96853840396759" lon="11.716239691160515"><ele>349.5</ele><time>2026-04-23T12:27:50Z</time></trkpt><trkpt lat="45.96862836466511" lon="11.716128944807835"><ele>349.0</ele><time>2026-04-23T12:27:51Z</time></trkpt><trkpt lat="45.96870492278743" lon="11.716056283774439"><ele>349.0</ele><time>2026-04-23T12:27:52Z</time></trkpt><trkpt lat="45.96877721898295" lon="11.716034665024907"><ele>349.0</ele><time>2026-04-23T12:27:53Z</time></trkpt><trkpt lat="45.96883798263669" lon="11.7160684975943"><ele>349.0</ele><time>2026-04-23T12:27:54Z</time></trkpt><trkpt lat="45.96887088421344" lon="11.716160022494645"><ele>349.0</ele><time>2026-04-23T12:27:55Z</time></trkpt><trkpt lat="45.96892159614561" lon="11.716284198741334"><ele>349.0</ele><time>2026-04-23T12:27:56Z</time></trkpt><trkpt lat="45.96899314269695" lon="11.716445007106971"><ele>349.0</ele><time>2026-04-23T12:27:57Z</time></trkpt><trkpt lat="45.96909813578722" lon="11.716591973075246"><ele>349.0</ele><time>2026-04-23T12:27:58Z</time></trkpt><trkpt lat="45.96918444134829" lon="11.716738598938548"><ele>349.0</ele><time>2026-04-23T12:27:59Z</time></trkpt><trkpt lat="45.969313847562304" lon="11.716832779091614"><ele>349.0</ele><time>2026-04-23T12:28:00Z</time></trkpt><trkpt lat="45.96946653354588" lon="11.71688728384611"><ele>349.0</ele><time>2026-04-23T12:28:01Z</time></trkpt><trkpt lat="45.96964498495017" lon="11.71692329339106"><ele>349.0</ele><time>2026-04-23T12:28:02Z</time></trkpt><trkpt lat="45.96984082220294" lon="11.716954289223764"><ele>349.0</ele><time>2026-04-23T12:28:03Z</time></trkpt><trkpt lat="45.97006639886796" lon="11.716982323949328"><ele>349.0</ele><time>2026-04-23T12:28:04Z</time></trkpt><trkpt lat="45.970283702408565" lon="11.717007629177443"><ele>349.0</ele><time>2026-04-23T12:28:05Z</time></trkpt><trkpt lat="45.970507459085724" lon="11.717033725321546"><ele>349.0</ele><time>2026-04-23T12:28:06Z</time></trkpt><trkpt lat="45.97076714804091" lon="11.717064009666766"><ele>349.0</ele><time>2026-04-23T12:28:07Z</time></trkpt><trkpt lat="45.97105456881827" lon="11.717096720245513"><ele>349.0</ele><time>2026-04-23T12:28:08Z</time></trkpt><trkpt lat="45.97136020301331" lon="11.717128907170398"><ele>349.0</ele><time>2026-04-23T12:28:09Z</time></trkpt><trkpt lat="45.97165880199044" lon="11.717157568072745"><ele>349.0</ele><time>2026-04-23T12:28:10Z</time></trkpt><trkpt lat="45.97192725911676" lon="11.717178677882782"><ele>349.0</ele><time>2026-04-23T12:28:11Z</time></trkpt><trkpt lat="45.9721808437206" lon="11.717191668358467"><ele>349.0</ele><time>2026-04-23T12:28:12Z</time></trkpt><trkpt lat="45.972434571198235" lon="11.717178774441063"><ele>350.0</ele><time>2026-04-23T12:28:13Z</time></trkpt><trkpt lat="45.9726656900792" lon="11.71714888624183"><ele>351.0</ele><time>2026-04-23T12:28:14Z</time></trkpt><trkpt lat="45.97287132132036" lon="11.717121873097629"><ele>352.0</ele><time>2026-04-23T12:28:15Z</time></trkpt><trkpt lat="45.97305761853935" lon="11.717096432321283"><ele>352.0</ele><time>2026-04-23T12:28:16Z</time></trkpt><trkpt lat="45.9732348797798" lon="11.717129665170528"><ele>352.0</ele><time>2026-04-23T12:28:17Z</time></trkpt><trkpt lat="45.973401292122595" lon="11.717223698629637"><ele>352.0</ele><time>2026-04-23T12:28:18Z</time></trkpt><trkpt lat="45.97357423692001" lon="11.717323046621722"><ele>353.3333333333333</ele><time>2026-04-23T12:28:19Z</time></trkpt><trkpt lat="45.97376541983371" lon="11.717416209661998"><ele>354.6666666666667</ele><time>2026-04-23T12:28:20Z</time></trkpt><trkpt lat="45.97396502969873" lon="11.717550480473408"><ele>356.0</ele><time>2026-04-23T12:28:21Z</time></trkpt><trkpt lat="45.97418257910326" lon="11.717703213204128"><ele>354.5</ele><time>2026-04-23T12:28:22Z</time></trkpt><trkpt lat="45.974415050837486" lon="11.717858450846704"><ele>353.0</ele><time>2026-04-23T12:28:23Z</time></trkpt><trkpt lat="45.9746482967347" lon="11.718033485261932"><ele>353.0</ele><time>2026-04-23T12:28:24Z</time></trkpt><trkpt lat="45.97486677948753" lon="11.718154715723145"><ele>353.0</ele><time>2026-04-23T12:28:25Z</time></trkpt><trkpt lat="45.9750816913306" lon="11.71827629953908"><ele>353.5</ele><time>2026-04-23T12:28:26Z</time></trkpt><trkpt lat="45.97529219287035" lon="11.718397152207023"><ele>354.0</ele><time>2026-04-23T12:28:27Z</time></trkpt><trkpt lat="45.9755050382225" lon="11.718519909910624"><ele>353.0</ele><time>2026-04-23T12:28:28Z</time></trkpt><trkpt lat="45.97574154898746" lon="11.718656491024346"><ele>352.0</ele><time>2026-04-23T12:28:29Z</time></trkpt><trkpt lat="45.97598842527227" lon="11.718825722521972"><ele>352.0</ele><time>2026-04-23T12:28:30Z</time></trkpt><trkpt lat="45.97624880440705" lon="11.719014750144666"><ele>352.0</ele><time>2026-04-23T12:28:31Z</time></trkpt><trkpt lat="45.97653664286775" lon="11.719185686911786"><ele>352.0</ele><time>2026-04-23T12:28:32Z</time></trkpt><trkpt lat="45.97682175530086" lon="11.7194021878017"><ele>352.0</ele><time>2026-04-23T12:28:33Z</time></trkpt><trkpt lat="45.97708463471707" lon="11.719599673712992"><ele>352.0</ele><time>2026-04-23T12:28:34Z</time></trkpt><trkpt lat="45.97729323630577" lon="11.719753615009397"><ele>352.0</ele><time>2026-04-23T12:28:35Z</time></trkpt><trkpt lat="45.97746562229241" lon="11.719919491958795"><ele>352.0</ele><time>2026-04-23T12:28:36Z</time></trkpt><trkpt lat="45.97763593125623" lon="11.72000983402887"><ele>351.66666666666663</ele><time>2026-04-23T12:28:37Z</time></trkpt><trkpt lat="45.9777995310954" lon="11.720134853504113"><ele>351.3333333333333</ele><time>2026-04-23T12:28:38Z</time></trkpt><trkpt lat="45.9779917178617" lon="11.720220093424963"><ele>351.0</ele><time>2026-04-23T12:28:39Z</time></trkpt><trkpt lat="45.97820350379093" lon="11.720298733430809"><ele>351.5</ele><time>2026-04-23T12:28:40Z</time></trkpt><trkpt lat="45.97843074191169" lon="11.720380803146307"><ele>352.0</ele><time>2026-04-23T12:28:41Z</time></trkpt><trkpt lat="45.97868565989075" lon="11.720472137604563"><ele>352.0</ele><time>2026-04-23T12:28:42Z</time></trkpt><trkpt lat="45.978959994812804" lon="11.720571149149576"><ele>352.0</ele><time>2026-04-23T12:28:43Z</time></trkpt><trkpt lat="45.97920284936438" lon="11.720659961746591"><ele>351.66666666666663</ele><time>2026-04-23T12:28:44Z</time></trkpt><trkpt lat="45.979416364954965" lon="11.72072375893375"><ele>351.3333333333333</ele><time>2026-04-23T12:28:45Z</time></trkpt><trkpt lat="45.97963336001101" lon="11.720756670483915"><ele>351.0</ele><time>2026-04-23T12:28:46Z</time></trkpt><trkpt lat="45.9798561346945" lon="11.720724158126359"><ele>353.0</ele><time>2026-04-23T12:28:47Z</time></trkpt><trkpt lat="45.98008877950607" lon="11.720739993763697"><ele>355.0</ele><time>2026-04-23T12:28:48Z</time></trkpt><trkpt lat="45.98031066283446" lon="11.720766809854265"><ele>355.0</ele><time>2026-04-23T12:28:49Z</time></trkpt><trkpt lat="45.980545141035854" lon="11.720801083753667"><ele>355.0</ele><time>2026-04-23T12:28:50Z</time></trkpt><trkpt lat="45.98078137714981" lon="11.720867448303999"><ele>359.5</ele><time>2026-04-23T12:28:51Z</time></trkpt><trkpt lat="45.981052351157714" lon="11.720956178267958"><ele>364.0</ele><time>2026-04-23T12:28:52Z</time></trkpt><trkpt lat="45.98129606552209" lon="11.721002912989738"><ele>364.0</ele><time>2026-04-23T12:28:53Z</time></trkpt><trkpt lat="45.981500603466074" lon="11.721040978771727"><ele>364.0</ele><time>2026-04-23T12:28:54Z</time></trkpt><trkpt lat="45.98168912942978" lon="11.721063049915244"><ele>364.0</ele><time>2026-04-23T12:28:55Z</time></trkpt><trkpt lat="45.98185430220712" lon="11.721120730235715"><ele>364.3333333333333</ele><time>2026-04-23T12:28:56Z</time></trkpt><trkpt lat="45.982005629312845" lon="11.721199837979396"><ele>364.6666666666667</ele><time>2026-04-23T12:28:57Z</time></trkpt><trkpt lat="45.98214411332716" lon="11.721315259102841"><ele>365.0</ele><time>2026-04-23T12:28:58Z</time></trkpt><trkpt lat="45.98226236385737" lon="11.721461691797902"><ele>365.0</ele><time>2026-04-23T12:28:59Z</time></trkpt><trkpt lat="45.982365556935775" lon="11.72164784491717"><ele>365.0</ele><time>2026-04-23T12:29:00Z</time></trkpt><trkpt lat="45.982459954406316" lon="11.721861311792855"><ele>365.0</ele><time>2026-04-23T12:29:01Z</time></trkpt><trkpt lat="45.982538109079556" lon="11.722109902995962"><ele>367.33333333333337</ele><time>2026-04-23T12:29:02Z</time></trkpt><trkpt lat="45.98260676548693" lon="11.72239419456995"><ele>369.6666666666667</ele><time>2026-04-23T12:29:03Z</time></trkpt><trkpt lat="45.98266378031524" lon="11.722660518616792"><ele>372.0</ele><time>2026-04-23T12:29:04Z</time></trkpt><trkpt lat="45.98271133202441" lon="11.722925453391067"><ele>372.0</ele><time>2026-04-23T12:29:05Z</time></trkpt><trkpt lat="45.98273472228407" lon="11.723180344150753"><ele>372.0</ele><time>2026-04-23T12:29:06Z</time></trkpt><trkpt lat="45.982747627744104" lon="11.72343809120716"><ele>372.0</ele><time>2026-04-23T12:29:07Z</time></trkpt><trkpt lat="45.98276641323218" lon="11.723700142528214"><ele>370.6666666666667</ele><time>2026-04-23T12:29:08Z</time></trkpt><trkpt lat="45.9828058003641" lon="11.723952848157799"><ele>369.33333333333337</ele><time>2026-04-23T12:29:09Z</time></trkpt><trkpt lat="45.98286803852467" lon="11.724189348593676"><ele>368.0</ele><time>2026-04-23T12:29:10Z</time></trkpt><trkpt lat="45.98295386769305" lon="11.72440703528335"><ele>368.0</ele><time>2026-04-23T12:29:11Z</time></trkpt><trkpt lat="45.98305290278414" lon="11.724617246059227"><ele>368.0</ele><time>2026-04-23T12:29:12Z</time></trkpt><trkpt lat="45.98316923775907" lon="11.724817777694675"><ele>368.0</ele><time>2026-04-23T12:29:13Z</time></trkpt><trkpt lat="45.98329915533895" lon="11.724987401582851"><ele>368.0</ele><time>2026-04-23T12:29:14Z</time></trkpt><trkpt lat="45.98345386032667" lon="11.725139447764484"><ele>368.0</ele><time>2026-04-23T12:29:15Z</time></trkpt><trkpt lat="45.98363797072943" lon="11.725289035491125"><ele>368.0</ele><time>2026-04-23T12:29:16Z</time></trkpt><trkpt lat="45.98386163288488" lon="11.72546413779117"><ele>368.0</ele><time>2026-04-23T12:29:17Z</time></trkpt><trkpt lat="45.98406449327351" lon="11.725631108322991"><ele>368.0</ele><time>2026-04-23T12:29:18Z</time></trkpt><trkpt lat="45.98423789594682" lon="11.725779494204422"><ele>368.0</ele><time>2026-04-23T12:29:19Z</time></trkpt><trkpt lat="45.98439936376157" lon="11.725909786630943"><ele>368.0</ele><time>2026-04-23T12:29:20Z</time></trkpt><trkpt lat="45.984559308995145" lon="11.726017468552266"><ele>368.0</ele><time>2026-04-23T12:29:21Z</time></trkpt><trkpt lat="45.98474270626572" lon="11.726102601831206"><ele>368.0</ele><time>2026-04-23T12:29:22Z</time></trkpt><trkpt lat="45.984950304361604" lon="11.726153193763867"><ele>364.5</ele><time>2026-04-23T12:29:23Z</time></trkpt><trkpt lat="45.98518456368213" lon="11.726189530131732"><ele>361.0</ele><time>2026-04-23T12:29:24Z</time></trkpt><trkpt lat="45.98544287592092" lon="11.726223139622626"><ele>361.0</ele><time>2026-04-23T12:29:25Z</time></trkpt><trkpt lat="45.985681194152164" lon="11.726254003040717"><ele>361.0</ele><time>2026-04-23T12:29:26Z</time></trkpt><trkpt lat="45.98587389240383" lon="11.726280109102113"><ele>361.0</ele><time>2026-04-23T12:29:27Z</time></trkpt><trkpt lat="45.98602513668829" lon="11.726301767347353"><ele>363.0</ele><time>2026-04-23T12:29:28Z</time></trkpt><trkpt lat="45.986153204510124" lon="11.726320114748734"><ele>365.0</ele><time>2026-04-23T12:29:29Z</time></trkpt><trkpt lat="45.98627343243099" lon="11.72636779096437"><ele>367.0</ele><time>2026-04-23T12:29:30Z</time></trkpt><trkpt lat="45.986382868845425" lon="11.726455448021914"><ele>369.0</ele><time>2026-04-23T12:29:31Z</time></trkpt><trkpt lat="45.98648730385685" lon="11.726590071795261"><ele>369.0</ele><time>2026-04-23T12:29:32Z</time></trkpt><trkpt lat="45.98658970514702" lon="11.726767934150061"><ele>369.0</ele><time>2026-04-23T12:29:33Z</time></trkpt><trkpt lat="45.986684904977324" lon="11.726988328401143"><ele>369.0</ele><time>2026-04-23T12:29:34Z</time></trkpt><trkpt lat="45.98676861980199" lon="11.727208229121032"><ele>371.0</ele><time>2026-04-23T12:29:35Z</time></trkpt><trkpt lat="45.98687311247633" lon="11.727485619167638"><ele>373.0</ele><time>2026-04-23T12:29:36Z</time></trkpt><trkpt lat="45.98698405533826" lon="11.727793532569644"><ele>373.0</ele><time>2026-04-23T12:29:37Z</time></trkpt><trkpt lat="45.987081821574705" lon="11.728051536955869"><ele>373.0</ele><time>2026-04-23T12:29:38Z</time></trkpt><trkpt lat="45.98716565130001" lon="11.728297364820683"><ele>373.0</ele><time>2026-04-23T12:29:39Z</time></trkpt><trkpt lat="45.98722709135826" lon="11.728546569974315"><ele>369.66666666666663</ele><time>2026-04-23T12:29:40Z</time></trkpt><trkpt lat="45.9872769619653" lon="11.728800841561878"><ele>366.3333333333333</ele><time>2026-04-23T12:29:41Z</time></trkpt><trkpt lat="45.987316417674776" lon="11.729069966507781"><ele>363.0</ele><time>2026-04-23T12:29:42Z</time></trkpt><trkpt lat="45.98737306386633" lon="11.72934370360221"><ele>360.6666666666667</ele><time>2026-04-23T12:29:43Z</time></trkpt><trkpt lat="45.98745353541954" lon="11.72961769817117"><ele>358.33333333333337</ele><time>2026-04-23T12:29:44Z</time></trkpt><trkpt lat="45.987518250315524" lon="11.729861217225793"><ele>356.0</ele><time>2026-04-23T12:29:45Z</time></trkpt><trkpt lat="45.98756656018536" lon="11.73011561085947"><ele>360.6666666666667</ele><time>2026-04-23T12:29:46Z</time></trkpt><trkpt lat="45.98759668097936" lon="11.730388297757663"><ele>365.3333333333333</ele><time>2026-04-23T12:29:47Z</time></trkpt><trkpt lat="45.98760452320306" lon="11.73067623010721"><ele>370.0</ele><time>2026-04-23T12:29:48Z</time></trkpt><trkpt lat="45.98759697949197" lon="11.731010404469577"><ele>369.0</ele><time>2026-04-23T12:29:49Z</time></trkpt><trkpt lat="45.98758340433662" lon="11.731385440450106"><ele>368.0</ele><time>2026-04-23T12:29:50Z</time></trkpt><trkpt lat="45.98757001836502" lon="11.731742270514545"><ele>367.5</ele><time>2026-04-23T12:29:51Z</time></trkpt><trkpt lat="45.98755668186549" lon="11.73215674786567"><ele>367.0</ele><time>2026-04-23T12:29:52Z</time></trkpt><trkpt lat="45.987545703112126" lon="11.732593279191217"><ele>367.0</ele><time>2026-04-23T12:29:53Z</time></trkpt><trkpt lat="45.98753937173522" lon="11.732980339037372"><ele>367.0</ele><time>2026-04-23T12:29:54Z</time></trkpt><trkpt lat="45.98753339450311" lon="11.733346383530243"><ele>367.0</ele><time>2026-04-23T12:29:55Z</time></trkpt><trkpt lat="45.98752555909801" lon="11.733684574461769"><ele>367.0</ele><time>2026-04-23T12:29:56Z</time></trkpt><trkpt lat="45.98751653120726" lon="11.733971643597895"><ele>367.0</ele><time>2026-04-23T12:29:57Z</time></trkpt><trkpt lat="45.987511113399" lon="11.73421554465743"><ele>363.75</ele><time>2026-04-23T12:29:58Z</time></trkpt><trkpt lat="45.98750837864499" lon="11.734421895280361"><ele>360.5</ele><time>2026-04-23T12:29:59Z</time></trkpt><trkpt lat="45.98750049375997" lon="11.734603836259778"><ele>357.25</ele><time>2026-04-23T12:30:00Z</time></trkpt><trkpt lat="45.98746810200314" lon="11.734767591519"><ele>354.0</ele><time>2026-04-23T12:30:01Z</time></trkpt><trkpt lat="45.987403567009714" lon="11.734910958109761"><ele>354.0</ele><time>2026-04-23T12:30:02Z</time></trkpt><trkpt lat="45.98731472802486" lon="11.735039501296878"><ele>354.0</ele><time>2026-04-23T12:30:03Z</time></trkpt><trkpt lat="45.987189693945275" lon="11.735131082013725"><ele>354.0</ele><time>2026-04-23T12:30:04Z</time></trkpt><trkpt lat="45.987035999407155" lon="11.735213919050384"><ele>354.0</ele><time>2026-04-23T12:30:05Z</time></trkpt><trkpt lat="45.98684668085347" lon="11.735283834064953"><ele>352.0</ele><time>2026-04-23T12:30:06Z</time></trkpt><trkpt lat="45.98667845086655" lon="11.735355502207211"><ele>350.0</ele><time>2026-04-23T12:30:07Z</time></trkpt><trkpt lat="45.986533698484735" lon="11.73544278601776"><ele>348.0</ele><time>2026-04-23T12:30:08Z</time></trkpt><trkpt lat="45.986416126113284" lon="11.735555190128014"><ele>348.0</ele><time>2026-04-23T12:30:09Z</time></trkpt><trkpt lat="45.98632986275899" lon="11.735678483383621"><ele>348.0</ele><time>2026-04-23T12:30:10Z</time></trkpt><trkpt lat="45.98627300887171" lon="11.735827322137432"><ele>348.0</ele><time>2026-04-23T12:30:11Z</time></trkpt><trkpt lat="45.98622370452553" lon="11.735995341743912"><ele>348.0</ele><time>2026-04-23T12:30:12Z</time></trkpt><trkpt lat="45.98622132066259" lon="11.736193392107218"><ele>348.0</ele><time>2026-04-23T12:30:13Z</time></trkpt><trkpt lat="45.98625013185205" lon="11.736412439958327"><ele>348.0</ele><time>2026-04-23T12:30:14Z</time></trkpt><trkpt lat="45.986315576472364" lon="11.736629276638118"><ele>348.0</ele><time>2026-04-23T12:30:15Z</time></trkpt><trkpt lat="45.98639747739329" lon="11.736887632331875"><ele>348.0</ele><time>2026-04-23T12:30:16Z</time></trkpt><trkpt lat="45.986465301112624" lon="11.737118125993522"><ele>348.0</ele><time>2026-04-23T12:30:17Z</time></trkpt><trkpt lat="45.986529573637156" lon="11.737367677221506"><ele>348.0</ele><time>2026-04-23T12:30:18Z</time></trkpt><trkpt lat="45.986595172800875" lon="11.737653636160731"><ele>351.5</ele><time>2026-04-23T12:30:19Z</time></trkpt><trkpt lat="45.98666534731679" lon="11.737978165679822"><ele>355.0</ele><time>2026-04-23T12:30:20Z</time></trkpt><trkpt lat="45.98673265178082" lon="11.73831446214322"><ele>351.3333333333333</ele><time>2026-04-23T12:30:21Z</time></trkpt><trkpt lat="45.98681810470097" lon="11.738599394657463"><ele>347.6666666666667</ele><time>2026-04-23T12:30:22Z</time></trkpt><trkpt lat="45.98686821428005" lon="11.738869597963397"><ele>344.0</ele><time>2026-04-23T12:30:23Z</time></trkpt><trkpt lat="45.98691829332301" lon="11.739110516815954"><ele>344.0</ele><time>2026-04-23T12:30:24Z</time></trkpt><trkpt lat="45.986954684644765" lon="11.739348540931017"><ele>344.0</ele><time>2026-04-23T12:30:25Z</time></trkpt><trkpt lat="45.98694800404636" lon="11.739600004096083"><ele>344.0</ele><time>2026-04-23T12:30:26Z</time></trkpt><trkpt lat="45.98694072612355" lon="11.73985536810837"><ele>344.0</ele><time>2026-04-23T12:30:27Z</time></trkpt><trkpt lat="45.98691636151696" lon="11.740106701968388"><ele>344.0</ele><time>2026-04-23T12:30:28Z</time></trkpt><trkpt lat="45.986867684390816" lon="11.740360521781954"><ele>344.0</ele><time>2026-04-23T12:30:29Z</time></trkpt><trkpt lat="45.98680065575946" lon="11.740608757934362"><ele>343.6666666666667</ele><time>2026-04-23T12:30:30Z</time></trkpt><trkpt lat="45.9867288992165" lon="11.740823626795182"><ele>343.3333333333333</ele><time>2026-04-23T12:30:31Z</time></trkpt><trkpt lat="45.98664897212402" lon="11.74102371752627"><ele>343.0</ele><time>2026-04-23T12:30:32Z</time></trkpt><trkpt lat="45.98654783713677" lon="11.741228831232283"><ele>343.0</ele><time>2026-04-23T12:30:33Z</time></trkpt><trkpt lat="45.986426356680916" lon="11.74146566217545"><ele>343.0</ele><time>2026-04-23T12:30:34Z</time></trkpt><trkpt lat="45.986293805956386" lon="11.741639695917321"><ele>343.0</ele><time>2026-04-23T12:30:35Z</time></trkpt><trkpt lat="45.98616650600882" lon="11.74178314408081"><ele>343.66666666666663</ele><time>2026-04-23T12:30:36Z</time></trkpt><trkpt lat="45.98603287649048" lon="11.741898603589862"><ele>344.3333333333333</ele><time>2026-04-23T12:30:37Z</time></trkpt><trkpt lat="45.98587763498131" lon="11.742007867948287"><ele>345.0</ele><time>2026-04-23T12:30:38Z</time></trkpt><trkpt lat="45.98569661705145" lon="11.742104004239286"><ele>345.0</ele><time>2026-04-23T12:30:39Z</time></trkpt><trkpt lat="45.9854914851304" lon="11.742189086449768"><ele>345.0</ele><time>2026-04-23T12:30:40Z</time></trkpt><trkpt lat="45.985293322069666" lon="11.742275477721059"><ele>345.0</ele><time>2026-04-23T12:30:41Z</time></trkpt><trkpt lat="45.985123633028586" lon="11.742363592074398"><ele>344.0</ele><time>2026-04-23T12:30:42Z</time></trkpt><trkpt lat="45.98494851392182" lon="11.742456764125011"><ele>343.0</ele><time>2026-04-23T12:30:43Z</time></trkpt><trkpt lat="45.98477772660552" lon="11.742592845798058"><ele>342.0</ele><time>2026-04-23T12:30:44Z</time></trkpt><trkpt lat="45.98461309978411" lon="11.742766851033641"><ele>340.0</ele><time>2026-04-23T12:30:45Z</time></trkpt><trkpt lat="45.98446998356254" lon="11.74295399255998"><ele>338.0</ele><time>2026-04-23T12:30:46Z</time></trkpt><trkpt lat="45.98432889366868" lon="11.743180088914114"><ele>336.0</ele><time>2026-04-23T12:30:47Z</time></trkpt><trkpt lat="45.98419931339417" lon="11.74344484894955"><ele>334.6666666666667</ele><time>2026-04-23T12:30:48Z</time></trkpt><trkpt lat="45.98407547537038" lon="11.743733943789318"><ele>333.33333333333337</ele><time>2026-04-23T12:30:49Z</time></trkpt><trkpt lat="45.983964723883844" lon="11.74398547778448"><ele>332.0</ele><time>2026-04-23T12:30:50Z</time></trkpt><trkpt lat="45.98383418532091" lon="11.744234266994422"><ele>329.5</ele><time>2026-04-23T12:30:51Z</time></trkpt><trkpt lat="45.983665073888034" lon="11.744509284052636"><ele>327.0</ele><time>2026-04-23T12:30:52Z</time></trkpt><trkpt lat="45.983501409745976" lon="11.744774340565712"><ele>327.0</ele><time>2026-04-23T12:30:53Z</time></trkpt><trkpt lat="45.98335597129018" lon="11.745005113643916"><ele>327.0</ele><time>2026-04-23T12:30:54Z</time></trkpt><trkpt lat="45.983216015569454" lon="11.745228529742153"><ele>327.0</ele><time>2026-04-23T12:30:55Z</time></trkpt><trkpt lat="45.98309036003687" lon="11.745449369661932"><ele>327.3333333333333</ele><time>2026-04-23T12:30:56Z</time></trkpt><trkpt lat="45.982982758657876" lon="11.745676531860607"><ele>327.66666666666663</ele><time>2026-04-23T12:30:57Z</time></trkpt><trkpt lat="45.98288935302975" lon="11.745950153837267"><ele>328.0</ele><time>2026-04-23T12:30:58Z</time></trkpt><trkpt lat="45.982818152849624" lon="11.74625475616085"><ele>327.3333333333333</ele><time>2026-04-23T12:30:59Z</time></trkpt><trkpt lat="45.982761468406046" lon="11.746570175502015"><ele>326.6666666666667</ele><time>2026-04-23T12:31:00Z</time></trkpt><trkpt lat="45.982712618633" lon="11.746849774626366"><ele>326.0</ele><time>2026-04-23T12:31:01Z</time></trkpt><trkpt lat="45.98266154106272" lon="11.747092250787306"><ele>326.0</ele><time>2026-04-23T12:31:02Z</time></trkpt><trkpt lat="45.98260413626236" lon="11.747323509137013"><ele>326.0</ele><time>2026-04-23T12:31:03Z</time></trkpt><trkpt lat="45.98252081572519" lon="11.747527218090076"><ele>326.0</ele><time>2026-04-23T12:31:04Z</time></trkpt><trkpt lat="45.98241228287474" lon="11.747756825177428"><ele>328.0</ele><time>2026-04-23T12:31:05Z</time></trkpt><trkpt lat="45.982288703379126" lon="11.747954157074217"><ele>330.0</ele><time>2026-04-23T12:31:06Z</time></trkpt><trkpt lat="45.98214589577252" lon="11.748126291106972"><ele>332.0</ele><time>2026-04-23T12:31:07Z</time></trkpt><trkpt lat="45.98199251761486" lon="11.748261578099605"><ele>332.0</ele><time>2026-04-23T12:31:08Z</time></trkpt><trkpt lat="45.981822926317626" lon="11.748378501797985"><ele>332.0</ele><time>2026-04-23T12:31:09Z</time></trkpt><trkpt lat="45.98163462783266" lon="11.748471984088035"><ele>332.0</ele><time>2026-04-23T12:31:10Z</time></trkpt><trkpt lat="45.98143703549365" lon="11.748551127080521"><ele>332.25</ele><time>2026-04-23T12:31:11Z</time></trkpt><trkpt lat="45.98128609934504" lon="11.748612266313266"><ele>332.5</ele><time>2026-04-23T12:31:12Z</time></trkpt><trkpt lat="45.98116550069719" lon="11.748667578294796"><ele>332.75</ele><time>2026-04-23T12:31:13Z</time></trkpt><trkpt lat="45.98105830807402" lon="11.748742187579266"><ele>333.0</ele><time>2026-04-23T12:31:14Z</time></trkpt><trkpt lat="45.98095538610712" lon="11.748853824197951"><ele>333.0</ele><time>2026-04-23T12:31:15Z</time></trkpt><trkpt lat="45.98087800868647" lon="11.74898793499109"><ele>333.0</ele><time>2026-04-23T12:31:16Z</time></trkpt><trkpt lat="45.980808985682884" lon="11.749113548466282"><ele>333.0</ele><time>2026-04-23T12:31:17Z</time></trkpt><trkpt lat="45.980777917848016" lon="11.749286281469088"><ele>333.0</ele><time>2026-04-23T12:31:18Z</time></trkpt><trkpt lat="45.98077139314714" lon="11.749491537441969"><ele>330.0</ele><time>2026-04-23T12:31:19Z</time></trkpt><trkpt lat="45.980775022706915" lon="11.749748954258791"><ele>327.0</ele><time>2026-04-23T12:31:20Z</time></trkpt><trkpt lat="45.980788327411275" lon="11.750029936735435"><ele>324.0</ele><time>2026-04-23T12:31:21Z</time></trkpt><trkpt lat="45.980805652799724" lon="11.750264203716345"><ele>322.3333333333333</ele><time>2026-04-23T12:31:22Z</time></trkpt><trkpt lat="45.980836929952545" lon="11.750494519530397"><ele>320.66666666666663</ele><time>2026-04-23T12:31:23Z</time></trkpt><trkpt lat="45.98088742533353" lon="11.750717194444317"><ele>319.0</ele><time>2026-04-23T12:31:24Z</time></trkpt><trkpt lat="45.98094763175411" lon="11.750919380620438"><ele>320.2</ele><time>2026-04-23T12:31:25Z</time></trkpt><trkpt lat="45.98100063564629" lon="11.751089412779507"><ele>321.4</ele><time>2026-04-23T12:31:26Z</time></trkpt><trkpt lat="45.98104511845523" lon="11.751229056621456"><ele>322.6</ele><time>2026-04-23T12:31:27Z</time></trkpt><trkpt lat="45.98108753065672" lon="11.751353705585219"><ele>323.8</ele><time>2026-04-23T12:31:28Z</time></trkpt><trkpt lat="45.981140916403135" lon="11.75145666348218"><ele>325.0</ele><time>2026-04-23T12:31:29Z</time></trkpt><trkpt lat="45.98117874322917" lon="11.751573414551002"><ele>325.0</ele><time>2026-04-23T12:31:30Z</time></trkpt><trkpt lat="45.981224782423205" lon="11.75170543074042"><ele>325.0</ele><time>2026-04-23T12:31:31Z</time></trkpt><trkpt lat="45.981281031194726" lon="11.75185657174728"><ele>325.0</ele><time>2026-04-23T12:31:32Z</time></trkpt><trkpt lat="45.98136155179679" lon="11.752049211963447"><ele>325.0</ele><time>2026-04-23T12:31:33Z</time></trkpt><trkpt lat="45.98146415547505" lon="11.752299229508386"><ele>326.3333333333333</ele><time>2026-04-23T12:31:34Z</time></trkpt><trkpt lat="45.981564507445036" lon="11.752541052370995"><ele>327.6666666666667</ele><time>2026-04-23T12:31:35Z</time></trkpt><trkpt lat="45.981669043290545" lon="11.752769013421684"><ele>329.0</ele><time>2026-04-23T12:31:36Z</time></trkpt><trkpt lat="45.98176592259145" lon="11.752984217499323"><ele>329.0</ele><time>2026-04-23T12:31:37Z</time></trkpt><trkpt lat="45.98183881843622" lon="11.753200357901147"><ele>329.0</ele><time>2026-04-23T12:31:38Z</time></trkpt><trkpt lat="45.98189186477863" lon="11.753408897874207"><ele>329.0</ele><time>2026-04-23T12:31:39Z</time></trkpt><trkpt lat="45.98193055278065" lon="11.753616515078397"><ele>328.1666666666667</ele><time>2026-04-23T12:31:40Z</time></trkpt><trkpt lat="45.981959210905465" lon="11.753765609513852"><ele>327.33333333333337</ele><time>2026-04-23T12:31:41Z</time></trkpt><trkpt lat="45.981972654640145" lon="11.753886144235615"><ele>326.5</ele><time>2026-04-23T12:31:42Z</time></trkpt><trkpt lat="45.98195885175095" lon="11.753985370831574"><ele>325.6666666666667</ele><time>2026-04-23T12:31:43Z</time></trkpt><trkpt lat="45.98192053133617" lon="11.754061367095488"><ele>324.8333333333333</ele><time>2026-04-23T12:31:44Z</time></trkpt><trkpt lat="45.981859752714634" lon="11.754118669607223"><ele>324.0</ele><time>2026-04-23T12:31:45Z</time></trkpt><trkpt lat="45.9817749118105" lon="11.75415632568317"><ele>320.25</ele><time>2026-04-23T12:31:46Z</time></trkpt><trkpt lat="45.981648232795315" lon="11.754184398433724"><ele>316.5</ele><time>2026-04-23T12:31:47Z</time></trkpt><trkpt lat="45.98148828477631" lon="11.754207920050817"><ele>312.75</ele><time>2026-04-23T12:31:48Z</time></trkpt><trkpt lat="45.98135274878504" lon="11.754214884426256"><ele>309.0</ele><time>2026-04-23T12:31:49Z</time></trkpt><trkpt lat="45.9812217288578" lon="11.754246408490953"><ele>309.0</ele><time>2026-04-23T12:31:50Z</time></trkpt><trkpt lat="45.98108737366013" lon="11.754327158123498"><ele>309.0</ele><time>2026-04-23T12:31:51Z</time></trkpt><trkpt lat="45.980924482664676" lon="11.754456925709048"><ele>309.0</ele><time>2026-04-23T12:31:52Z</time></trkpt><trkpt lat="45.98073243542749" lon="11.754588292337596"><ele>306.3333333333333</ele><time>2026-04-23T12:31:53Z</time></trkpt><trkpt lat="45.98057478421041" lon="11.75471940462475"><ele>303.66666666666663</ele><time>2026-04-23T12:31:54Z</time></trkpt><trkpt lat="45.98043251441701" lon="11.754899485020394"><ele>301.0</ele><time>2026-04-23T12:31:55Z</time></trkpt><trkpt lat="45.98027485020205" lon="11.755125334472144"><ele>301.3333333333333</ele><time>2026-04-23T12:31:56Z</time></trkpt><trkpt lat="45.98011107099702" lon="11.755356943537015"><ele>301.6666666666667</ele><time>2026-04-23T12:31:57Z</time></trkpt><trkpt lat="45.97998246202814" lon="11.755598209546385"><ele>302.0</ele><time>2026-04-23T12:31:58Z</time></trkpt><trkpt lat="45.97984573477922" lon="11.755801281341583"><ele>300.33333333333337</ele><time>2026-04-23T12:31:59Z</time></trkpt><trkpt lat="45.9797121559927" lon="11.755986867029657"><ele>298.6666666666667</ele><time>2026-04-23T12:32:00Z</time></trkpt><trkpt lat="45.979568408742914" lon="11.756160026217913"><ele>297.0</ele><time>2026-04-23T12:32:01Z</time></trkpt><trkpt lat="45.97940592683998" lon="11.756319955070964"><ele>297.0</ele><time>2026-04-23T12:32:02Z</time></trkpt><trkpt lat="45.979242816961545" lon="11.756512549089692"><ele>297.0</ele><time>2026-04-23T12:32:03Z</time></trkpt><trkpt lat="45.979065183479534" lon="11.756722292053402"><ele>297.0</ele><time>2026-04-23T12:32:04Z</time></trkpt><trkpt lat="45.978922707074666" lon="11.756925872361377"><ele>295.75</ele><time>2026-04-23T12:32:05Z</time></trkpt><trkpt lat="45.978791979552845" lon="11.757081041460212"><ele>294.5</ele><time>2026-04-23T12:32:06Z</time></trkpt><trkpt lat="45.978681420090815" lon="11.757209770514514"><ele>293.25</ele><time>2026-04-23T12:32:07Z</time></trkpt><trkpt lat="45.978585300922084" lon="11.757340120099737"><ele>292.0</ele><time>2026-04-23T12:32:08Z</time></trkpt><trkpt lat="45.97847831798294" lon="11.757446382923922"><ele>292.0</ele><time>2026-04-23T12:32:09Z</time></trkpt><trkpt lat="45.9783952360206" lon="11.757585811078195"><ele>292.0</ele><time>2026-04-23T12:32:10Z</time></trkpt><trkpt lat="45.97832756014028" lon="11.757740698985948"><ele>292.0</ele><time>2026-04-23T12:32:11Z</time></trkpt><trkpt lat="45.97826542254757" lon="11.757849533615165"><ele>292.0</ele><time>2026-04-23T12:32:12Z</time></trkpt><trkpt lat="45.978210428283845" lon="11.757962985090142"><ele>292.0</ele><time>2026-04-23T12:32:13Z</time></trkpt><trkpt lat="45.97813873843172" lon="11.758095698876968"><ele>292.0</ele><time>2026-04-23T12:32:14Z</time></trkpt><trkpt lat="45.97802933587452" lon="11.75825951528419"><ele>292.0</ele><time>2026-04-23T12:32:15Z</time></trkpt><trkpt lat="45.97791396095845" lon="11.758451609039701"><ele>292.0</ele><time>2026-04-23T12:32:16Z</time></trkpt><trkpt lat="45.977823934504606" lon="11.758626240817614"><ele>292.0</ele><time>2026-04-23T12:32:17Z</time></trkpt><trkpt lat="45.9777448548561" lon="11.758797923008665"><ele>292.0</ele><time>2026-04-23T12:32:18Z</time></trkpt><trkpt lat="45.97767658054124" lon="11.75899431934001"><ele>292.0</ele><time>2026-04-23T12:32:19Z</time></trkpt><trkpt lat="45.97761802165866" lon="11.759221691339363"><ele>293.3333333333333</ele><time>2026-04-23T12:32:20Z</time></trkpt><trkpt lat="45.977563723359076" lon="11.759482990957308"><ele>294.6666666666667</ele><time>2026-04-23T12:32:21Z</time></trkpt><trkpt lat="45.977525830830686" lon="11.759703025551556"><ele>296.0</ele><time>2026-04-23T12:32:22Z</time></trkpt><trkpt lat="45.97748270104329" lon="11.759843488142785"><ele>296.0</ele><time>2026-04-23T12:32:23Z</time></trkpt><trkpt lat="45.97748047054262" lon="11.759941996620476"><ele>296.0</ele><time>2026-04-23T12:32:24Z</time></trkpt><trkpt lat="45.97752622204388" lon="11.76009291152769"><ele>296.0</ele><time>2026-04-23T12:32:25Z</time></trkpt><trkpt lat="45.977576112767025" lon="11.76021086252445"><ele>296.0</ele><time>2026-04-23T12:32:26Z</time></trkpt><trkpt lat="45.97765553882908" lon="11.760330906854463"><ele>296.0</ele><time>2026-04-23T12:32:27Z</time></trkpt><trkpt lat="45.97776809776398" lon="11.760476517431186"><ele>298.6666666666667</ele><time>2026-04-23T12:32:28Z</time></trkpt><trkpt lat="45.97789876883516" lon="11.760635402080997"><ele>301.3333333333333</ele><time>2026-04-23T12:32:29Z</time></trkpt><trkpt lat="45.978008722988065" lon="11.760778719717663"><ele>304.0</ele><time>2026-04-23T12:32:30Z</time></trkpt><trkpt lat="45.978106504303575" lon="11.76090993280984"><ele>304.0</ele><time>2026-04-23T12:32:31Z</time></trkpt><trkpt lat="45.978196930520134" lon="11.761015655277143"><ele>304.0</ele><time>2026-04-23T12:32:32Z</time></trkpt><trkpt lat="45.97829344713157" lon="11.76107577172658"><ele>304.0</ele><time>2026-04-23T12:32:33Z</time></trkpt><trkpt lat="45.97839816419524" lon="11.761091239623953"><ele>304.0</ele><time>2026-04-23T12:32:34Z</time></trkpt><trkpt lat="45.97852827463052" lon="11.761085539005103"><ele>304.75</ele><time>2026-04-23T12:32:35Z</time></trkpt><trkpt lat="45.978678824851585" lon="11.761085616356006"><ele>305.5</ele><time>2026-04-23T12:32:36Z</time></trkpt><trkpt lat="45.97881543050533" lon="11.761106598077742"><ele>306.25</ele><time>2026-04-23T12:32:37Z</time></trkpt><trkpt lat="45.97893787939498" lon="11.761151486782936"><ele>307.0</ele><time>2026-04-23T12:32:38Z</time></trkpt><trkpt lat="45.97904671342646" lon="11.76121838160948"><ele>307.0</ele><time>2026-04-23T12:32:39Z</time></trkpt><trkpt lat="45.97914237145404" lon="11.761303553523918"><ele>307.0</ele><time>2026-04-23T12:32:40Z</time></trkpt><trkpt lat="45.97922929070876" lon="11.761402382288543"><ele>307.0</ele><time>2026-04-23T12:32:41Z</time></trkpt><trkpt lat="45.97930827872018" lon="11.761522893672574"><ele>307.0</ele><time>2026-04-23T12:32:42Z</time></trkpt><trkpt lat="45.97942908671591" lon="11.761648081599963"><ele>306.0</ele><time>2026-04-23T12:32:43Z</time></trkpt><trkpt lat="45.97950316436969" lon="11.761919890599781"><ele>305.0</ele><time>2026-04-23T12:32:44Z</time></trkpt><trkpt lat="45.97960984229411" lon="11.762167737761414"><ele>304.0</ele><time>2026-04-23T12:32:45Z</time></trkpt><trkpt lat="45.97969597612427" lon="11.762397369759533"><ele>304.0</ele><time>2026-04-23T12:32:46Z</time></trkpt><trkpt lat="45.97977664690434" lon="11.76264594761388"><ele>304.0</ele><time>2026-04-23T12:32:47Z</time></trkpt><trkpt lat="45.979850583517724" lon="11.762932846472156"><ele>304.0</ele><time>2026-04-23T12:32:48Z</time></trkpt><trkpt lat="45.97991669881557" lon="11.763255657588221"><ele>309.5</ele><time>2026-04-23T12:32:49Z</time></trkpt><trkpt lat="45.97996934184054" lon="11.763589943238346"><ele>315.0</ele><time>2026-04-23T12:32:50Z</time></trkpt><trkpt lat="45.98000473833028" lon="11.763914417272497"><ele>315.0</ele><time>2026-04-23T12:32:51Z</time></trkpt><trkpt lat="45.98003079876951" lon="11.7642849276471"><ele>315.0</ele><time>2026-04-23T12:32:52Z</time></trkpt><trkpt lat="45.98004871797609" lon="11.76468918104083"><ele>315.0</ele><time>2026-04-23T12:32:53Z</time></trkpt><trkpt lat="45.98006573214064" lon="11.765115401420818"><ele>315.0</ele><time>2026-04-23T12:32:54Z</time></trkpt><trkpt lat="45.980087144358926" lon="11.765570463159454"><ele>314.0</ele><time>2026-04-23T12:32:55Z</time></trkpt><trkpt lat="45.9801093724586" lon="11.766049330550876"><ele>313.0</ele><time>2026-04-23T12:32:56Z</time></trkpt><trkpt lat="45.9801300462603" lon="11.76652146368875"><ele>312.5</ele><time>2026-04-23T12:32:57.016Z</time></trkpt><trkpt lat="45.9801513583668" lon="11.767013007642644"><ele>312.0</ele><time>2026-04-23T12:32:58.021Z</time></trkpt><trkpt lat="45.98015349122408" lon="11.7675155477267"><ele>311.0</ele><time>2026-04-23T12:32:59Z</time></trkpt><trkpt lat="45.98017720724033" lon="11.768025859407597"><ele>310.0</ele><time>2026-04-23T12:33:00Z</time></trkpt><trkpt lat="45.98018576458543" lon="11.768538497734301"><ele>307.5</ele><time>2026-04-23T12:33:01Z</time></trkpt><trkpt lat="45.980202309269714" lon="11.769014380766526"><ele>305.0</ele><time>2026-04-23T12:33:02Z</time></trkpt><trkpt lat="45.98022287106766" lon="11.769468526700374"><ele>302.0</ele><time>2026-04-23T12:33:03Z</time></trkpt><trkpt lat="45.98023873372595" lon="11.769889058624113"><ele>299.0</ele><time>2026-04-23T12:33:04Z</time></trkpt><trkpt lat="45.98025284550871" lon="11.770283735783162"><ele>294.5</ele><time>2026-04-23T12:33:05Z</time></trkpt><trkpt lat="45.980252511088615" lon="11.770679396725143"><ele>290.0</ele><time>2026-04-23T12:33:06Z</time></trkpt><trkpt lat="45.98024165275104" lon="11.771087031423601"><ele>288.0</ele><time>2026-04-23T12:33:07Z</time></trkpt><trkpt lat="45.98021275457386" lon="11.771501667735462"><ele>286.0</ele><time>2026-04-23T12:33:08Z</time></trkpt><trkpt lat="45.98016963961328" lon="11.771893820977727"><ele>284.5</ele><time>2026-04-23T12:33:09Z</time></trkpt><trkpt lat="45.98012652297201" lon="11.77228756484601"><ele>283.0</ele><time>2026-04-23T12:33:10Z</time></trkpt><trkpt lat="45.98008845405192" lon="11.772677925062494"><ele>279.0</ele><time>2026-04-23T12:33:11Z</time></trkpt><trkpt lat="45.98006213110954" lon="11.773047994370037"><ele>275.0</ele><time>2026-04-23T12:33:12Z</time></trkpt><trkpt lat="45.98005056931019" lon="11.77343272326873"><ele>274.0</ele><time>2026-04-23T12:33:13Z</time></trkpt><trkpt lat="45.980051305312514" lon="11.773821116118615"><ele>273.0</ele><time>2026-04-23T12:33:14Z</time></trkpt><trkpt lat="45.98007258935401" lon="11.774192707974157"><ele>273.0</ele><time>2026-04-23T12:33:15Z</time></trkpt><trkpt lat="45.980116573960565" lon="11.7745273058793"><ele>273.0</ele><time>2026-04-23T12:33:16Z</time></trkpt><trkpt lat="45.98017521418214" lon="11.774868707430839"><ele>273.0</ele><time>2026-04-23T12:33:17Z</time></trkpt><trkpt lat="45.980257047125484" lon="11.775230637028123"><ele>273.0</ele><time>2026-04-23T12:33:18Z</time></trkpt><trkpt lat="45.98035584299404" lon="11.775596010309439"><ele>273.0</ele><time>2026-04-23T12:33:19Z</time></trkpt><trkpt lat="45.98048148247722" lon="11.775956117699877"><ele>273.0</ele><time>2026-04-23T12:33:20Z</time></trkpt><trkpt lat="45.980619111593214" lon="11.7763167057601"><ele>271.5</ele><time>2026-04-23T12:33:21Z</time></trkpt><trkpt lat="45.98074313779594" lon="11.776686782436295"><ele>270.0</ele><time>2026-04-23T12:33:22Z</time></trkpt><trkpt lat="45.98086719824536" lon="11.777014937405712"><ele>288.0</ele><time>2026-04-23T12:33:23Z</time></trkpt><trkpt lat="45.98103084036056" lon="11.777293460149961"><ele>306.0</ele><time>2026-04-23T12:33:24Z</time></trkpt><trkpt lat="45.981150244229504" lon="11.777585998295487"><ele>309.5</ele><time>2026-04-23T12:33:25Z</time></trkpt><trkpt lat="45.98126592292626" lon="11.777868239267857"><ele>313.0</ele><time>2026-04-23T12:33:26Z</time></trkpt><trkpt lat="45.98138111619485" lon="11.778144149141815"><ele>313.0</ele><time>2026-04-23T12:33:27Z</time></trkpt><trkpt lat="45.98149304722556" lon="11.77842321406651"><ele>313.0</ele><time>2026-04-23T12:33:28Z</time></trkpt><trkpt lat="45.98160663598239" lon="11.778719610868142"><ele>344.0</ele><time>2026-04-23T12:33:29.02Z</time></trkpt><trkpt lat="45.98171672414115" lon="11.77902769451563"><ele>375.0</ele><time>2026-04-23T12:33:30.019Z</time></trkpt><trkpt lat="45.98181867602138" lon="11.779346988407113"><ele>369.5</ele><time>2026-04-23T12:33:31.019Z</time></trkpt><trkpt lat="45.98191050244268" lon="11.779660287019835"><ele>364.0</ele><time>2026-04-23T12:33:32.018Z</time></trkpt><trkpt lat="45.982574299020676" lon="11.782208271335607"><ele>316.5</ele><time>2026-04-23T12:33:40Z</time></trkpt><trkpt lat="45.98265219323004" lon="11.782539657494508"><ele>269.0</ele><time>2026-04-23T12:33:41Z</time></trkpt><trkpt lat="45.982747849311075" lon="11.78283976503684"><ele>269.0</ele><time>2026-04-23T12:33:42Z</time></trkpt><trkpt lat="45.9828621954422" lon="11.783145048422886"><ele>269.0</ele><time>2026-04-23T12:33:43Z</time></trkpt><trkpt lat="45.982988945245445" lon="11.783442921393128"><ele>270.0</ele><time>2026-04-23T12:33:44Z</time></trkpt><trkpt lat="45.98312981363304" lon="11.783725761574404"><ele>271.0</ele><time>2026-04-23T12:33:45Z</time></trkpt><trkpt lat="45.98328631468761" lon="11.783996905347875"><ele>270.0</ele><time>2026-04-23T12:33:46Z</time></trkpt><trkpt lat="45.98345306744309" lon="11.784260617329979"><ele>269.0</ele><time>2026-04-23T12:33:47Z</time></trkpt><trkpt lat="45.983629850485094" lon="11.784507044832687"><ele>269.0</ele><time>2026-04-23T12:33:48Z</time></trkpt><trkpt lat="45.9838196176826" lon="11.78472640337356"><ele>269.0</ele><time>2026-04-23T12:33:49Z</time></trkpt><trkpt lat="45.98402101271837" lon="11.784930781913037"><ele>268.5</ele><time>2026-04-23T12:33:50Z</time></trkpt><trkpt lat="45.98424103404166" lon="11.785125404847724"><ele>268.0</ele><time>2026-04-23T12:33:51Z</time></trkpt><trkpt lat="45.98447992319815" lon="11.7853029691958"><ele>269.0</ele><time>2026-04-23T12:33:52Z</time></trkpt><trkpt lat="45.98472856157133" lon="11.785464763379082"><ele>270.0</ele><time>2026-04-23T12:33:53Z</time></trkpt><trkpt lat="45.984962935322876" lon="11.785613722111364"><ele>270.0</ele><time>2026-04-23T12:33:54Z</time></trkpt><trkpt lat="45.98518955648085" lon="11.785760983956303"><ele>270.0</ele><time>2026-04-23T12:33:55Z</time></trkpt><trkpt lat="45.98541683849236" lon="11.785907465551592"><ele>271.5</ele><time>2026-04-23T12:33:56Z</time></trkpt><trkpt lat="45.98565229375084" lon="11.78605402179423"><ele>273.0</ele><time>2026-04-23T12:33:57Z</time></trkpt><trkpt lat="45.98590255436976" lon="11.786197351682205"><ele>273.0</ele><time>2026-04-23T12:33:58Z</time></trkpt><trkpt lat="45.98616979133072" lon="11.786348803106533"><ele>273.0</ele><time>2026-04-23T12:33:59Z</time></trkpt><trkpt lat="45.98644393962124" lon="11.78651886091039"><ele>274.0</ele><time>2026-04-23T12:34:00Z</time></trkpt><trkpt lat="45.98672571054361" lon="11.786702238055122"><ele>275.0</ele><time>2026-04-23T12:34:01Z</time></trkpt><trkpt lat="45.98701795494412" lon="11.786890292506586"><ele>276.0</ele><time>2026-04-23T12:34:02Z</time></trkpt><trkpt lat="45.98731781119024" lon="11.787086772445619"><ele>277.0</ele><time>2026-04-23T12:34:03Z</time></trkpt><trkpt lat="45.98762589459439" lon="11.787289222751891"><ele>278.0</ele><time>2026-04-23T12:34:04Z</time></trkpt><trkpt lat="45.98792669430299" lon="11.787489445202237"><ele>279.0</ele><time>2026-04-23T12:34:05Z</time></trkpt><trkpt lat="45.988196915543355" lon="11.78766867246195"><ele>280.5</ele><time>2026-04-23T12:34:06Z</time></trkpt><trkpt lat="45.988455937505364" lon="11.787829699500133"><ele>282.0</ele><time>2026-04-23T12:34:07Z</time></trkpt><trkpt lat="45.98869545189311" lon="11.787981934035267"><ele>282.0</ele><time>2026-04-23T12:34:08Z</time></trkpt><trkpt lat="45.98893267939891" lon="11.788139043457814"><ele>282.0</ele><time>2026-04-23T12:34:09Z</time></trkpt><trkpt lat="45.989172089981" lon="11.788310313840356"><ele>282.5</ele><time>2026-04-23T12:34:10Z</time></trkpt><trkpt lat="45.989394330639655" lon="11.788481577498231"><ele>283.0</ele><time>2026-04-23T12:34:11Z</time></trkpt><trkpt lat="45.98960375243256" lon="11.78866739228159"><ele>286.5</ele><time>2026-04-23T12:34:12Z</time></trkpt><trkpt lat="45.98979796453759" lon="11.788882470363738"><ele>290.0</ele><time>2026-04-23T12:34:13Z</time></trkpt><trkpt lat="45.98998408200309" lon="11.789124067400474"><ele>290.5</ele><time>2026-04-23T12:34:14Z</time></trkpt><trkpt lat="45.99017598560984" lon="11.789395427117654"><ele>291.0</ele><time>2026-04-23T12:34:15Z</time></trkpt><trkpt lat="45.99036981121004" lon="11.789686851684564"><ele>291.0</ele><time>2026-04-23T12:34:16Z</time></trkpt><trkpt lat="45.990568308717975" lon="11.789976750663477"><ele>291.0</ele><time>2026-04-23T12:34:17Z</time></trkpt><trkpt lat="45.99077665634778" lon="11.790254129320987"><ele>288.0</ele><time>2026-04-23T12:34:18Z</time></trkpt><trkpt lat="45.99099554511512" lon="11.790522378698098"><ele>285.0</ele><time>2026-04-23T12:34:19Z</time></trkpt><trkpt lat="45.99122595674454" lon="11.790784538996773"><ele>283.5</ele><time>2026-04-23T12:34:20Z</time></trkpt><trkpt lat="45.99147235779042" lon="11.79104194104852"><ele>282.0</ele><time>2026-04-23T12:34:21Z</time></trkpt><trkpt lat="45.991732434971546" lon="11.791294934649718"><ele>282.0</ele><time>2026-04-23T12:34:22Z</time></trkpt><trkpt lat="45.991987355307984" lon="11.791535407437031"><ele>282.0</ele><time>2026-04-23T12:34:23Z</time></trkpt><trkpt lat="45.99222705156412" lon="11.791758564699034"><ele>280.5</ele><time>2026-04-23T12:34:24Z</time></trkpt><trkpt lat="45.99245726464571" lon="11.791984520228555"><ele>279.0</ele><time>2026-04-23T12:34:25Z</time></trkpt><trkpt lat="45.99266639311139" lon="11.79221206875295"><ele>279.0</ele><time>2026-04-23T12:34:26Z</time></trkpt><trkpt lat="45.99286367108074" lon="11.792448288755615"><ele>279.0</ele><time>2026-04-23T12:34:27Z</time></trkpt><trkpt lat="45.9930438935784" lon="11.79269570439606"><ele>280.0</ele><time>2026-04-23T12:34:28Z</time></trkpt><trkpt lat="45.99320868768692" lon="11.792965220643392"><ele>281.0</ele><time>2026-04-23T12:34:29Z</time></trkpt><trkpt lat="45.993364829778386" lon="11.793268647094118"><ele>281.5</ele><time>2026-04-23T12:34:30Z</time></trkpt><trkpt lat="45.99352141641631" lon="11.793601590006425"><ele>282.0</ele><time>2026-04-23T12:34:31Z</time></trkpt><trkpt lat="45.993682467042255" lon="11.793952550332559"><ele>282.0</ele><time>2026-04-23T12:34:32Z</time></trkpt><trkpt lat="45.99385635979459" lon="11.794315655968138"><ele>282.0</ele><time>2026-04-23T12:34:33Z</time></trkpt><trkpt lat="45.994037629947016" lon="11.794692952433287"><ele>282.5</ele><time>2026-04-23T12:34:34Z</time></trkpt><trkpt lat="45.99422467972853" lon="11.795081631210621"><ele>283.0</ele><time>2026-04-23T12:34:35Z</time></trkpt><trkpt lat="45.99442321214968" lon="11.795479098588165"><ele>283.0</ele><time>2026-04-23T12:34:36Z</time></trkpt><trkpt lat="45.99463238571031" lon="11.795876400072256"><ele>283.0</ele><time>2026-04-23T12:34:37Z</time></trkpt><trkpt lat="45.99485688607532" lon="11.796271855041336"><ele>284.5</ele><time>2026-04-23T12:34:38Z</time></trkpt><trkpt lat="45.99509283977444" lon="11.796670412990215"><ele>286.0</ele><time>2026-04-23T12:34:39Z</time></trkpt><trkpt lat="45.995334551984485" lon="11.797070455439945"><ele>287.0</ele><time>2026-04-23T12:34:40Z</time></trkpt><trkpt lat="45.99557989326033" lon="11.797473223301301"><ele>288.0</ele><time>2026-04-23T12:34:41Z</time></trkpt><trkpt lat="45.99583001816585" lon="11.797876253223754"><ele>287.0</ele><time>2026-04-23T12:34:42Z</time></trkpt><trkpt lat="45.99606172630728" lon="11.79825173425772"><ele>286.0</ele><time>2026-04-23T12:34:43Z</time></trkpt><trkpt lat="45.996272644123984" lon="11.798589111680649"><ele>287.5</ele><time>2026-04-23T12:34:44Z</time></trkpt><trkpt lat="45.996480264071515" lon="11.798920607154129"><ele>289.0</ele><time>2026-04-23T12:34:45Z</time></trkpt><trkpt lat="45.996689146620994" lon="11.79925685835126"><ele>292.5</ele><time>2026-04-23T12:34:46Z</time></trkpt><trkpt lat="45.996895818597785" lon="11.79958783213845"><ele>296.0</ele><time>2026-04-23T12:34:47Z</time></trkpt><trkpt lat="45.99710564188451" lon="11.79991889093535"><ele>293.0</ele><time>2026-04-23T12:34:48Z</time></trkpt><trkpt lat="45.99732054784375" lon="11.800259939422801"><ele>290.0</ele><time>2026-04-23T12:34:49Z</time></trkpt><trkpt lat="45.997536285469884" lon="11.800604295268013"><ele>290.0</ele><time>2026-04-23T12:34:50Z</time></trkpt><trkpt lat="45.99775064378619" lon="11.800947455629474"><ele>290.0</ele><time>2026-04-23T12:34:51Z</time></trkpt><trkpt lat="45.99794130894671" lon="11.80125862004941"><ele>292.5</ele><time>2026-04-23T12:34:52Z</time></trkpt><trkpt lat="45.99812408916508" lon="11.801554668274775"><ele>295.0</ele><time>2026-04-23T12:34:53Z</time></trkpt><trkpt lat="45.998307756648835" lon="11.801847407619306"><ele>295.0</ele><time>2026-04-23T12:34:54Z</time></trkpt><trkpt lat="45.99849945482992" lon="11.802147752472388"><ele>295.0</ele><time>2026-04-23T12:34:55Z</time></trkpt><trkpt lat="45.998697243992204" lon="11.802448235596001"><ele>302.5</ele><time>2026-04-23T12:34:56Z</time></trkpt><trkpt lat="45.99890889897445" lon="11.802751710574192"><ele>310.0</ele><time>2026-04-23T12:34:57Z</time></trkpt><trkpt lat="45.99912654410043" lon="11.803054726715649"><ele>305.5</ele><time>2026-04-23T12:34:58Z</time></trkpt><trkpt lat="45.9993457262918" lon="11.803352441349817"><ele>301.0</ele><time>2026-04-23T12:34:59Z</time></trkpt><trkpt lat="45.999560289135424" lon="11.803641845433102"><ele>301.0</ele><time>2026-04-23T12:35:00Z</time></trkpt><trkpt lat="45.99976034991559" lon="11.803908307451463"><ele>301.0</ele><time>2026-04-23T12:35:01Z</time></trkpt><trkpt lat="45.9999597919854" lon="11.80416347915448"><ele>304.0</ele><time>2026-04-23T12:35:02Z</time></trkpt><trkpt lat="46.000144256213176" lon="11.804432820723163"><ele>307.0</ele><time>2026-04-23T12:35:03Z</time></trkpt><trkpt lat="46.00032247504762" lon="11.804675356164047"><ele>307.0</ele><time>2026-04-23T12:35:04Z</time></trkpt><trkpt lat="46.00049992268419" lon="11.804890991103361"><ele>307.0</ele><time>2026-04-23T12:35:05Z</time></trkpt><trkpt lat="46.00065339159448" lon="11.80513569927269"><ele>310.0</ele><time>2026-04-23T12:35:06Z</time></trkpt><trkpt lat="46.00080173810387" lon="11.805394561605867"><ele>313.0</ele><time>2026-04-23T12:35:07Z</time></trkpt><trkpt lat="46.000937114077345" lon="11.805666435041937"><ele>304.0</ele><time>2026-04-23T12:35:08Z</time></trkpt><trkpt lat="46.00106402193142" lon="11.80595429983072"><ele>295.0</ele><time>2026-04-23T12:35:09Z</time></trkpt><trkpt lat="46.00117817410207" lon="11.806248520571659"><ele>294.5</ele><time>2026-04-23T12:35:10Z</time></trkpt><trkpt lat="46.001284936123206" lon="11.806552918869881"><ele>294.0</ele><time>2026-04-23T12:35:11Z</time></trkpt><trkpt lat="46.001377624064006" lon="11.806871891461487"><ele>293.0</ele><time>2026-04-23T12:35:12Z</time></trkpt><trkpt lat="46.00145341472568" lon="11.807196577838019"><ele>292.0</ele><time>2026-04-23T12:35:13Z</time></trkpt><trkpt lat="46.00151590960766" lon="11.807532586535272"><ele>292.5</ele><time>2026-04-23T12:35:14Z</time></trkpt><trkpt lat="46.00156694109621" lon="11.807883600951598"><ele>293.0</ele><time>2026-04-23T12:35:15Z</time></trkpt><trkpt lat="46.00160560681661" lon="11.808252583496392"><ele>292.0</ele><time>2026-04-23T12:35:16Z</time></trkpt><trkpt lat="46.001636555225886" lon="11.808641419979285"><ele>291.0</ele><time>2026-04-23T12:35:17Z</time></trkpt><trkpt lat="46.00166428076322" lon="11.809057609771243"><ele>292.0</ele><time>2026-04-23T12:35:18Z</time></trkpt><trkpt lat="46.00169384134219" lon="11.809489379941482"><ele>293.0</ele><time>2026-04-23T12:35:19Z</time></trkpt><trkpt lat="46.0017249331523" lon="11.80994537910115"><ele>293.0</ele><time>2026-04-23T12:35:20Z</time></trkpt><trkpt lat="46.0017607721695" lon="11.810420876566237"><ele>293.0</ele><time>2026-04-23T12:35:21Z</time></trkpt><trkpt lat="46.0017980186469" lon="11.810911969723971"><ele>292.5</ele><time>2026-04-23T12:35:22Z</time></trkpt><trkpt lat="46.00183361791973" lon="11.811383844480885"><ele>292.0</ele><time>2026-04-23T12:35:23Z</time></trkpt><trkpt lat="46.001861206399845" lon="11.811821155148563"><ele>293.0</ele><time>2026-04-23T12:35:24Z</time></trkpt><trkpt lat="46.00188270670816" lon="11.812261298042941"><ele>294.0</ele><time>2026-04-23T12:35:25Z</time></trkpt><trkpt lat="46.00189945975449" lon="11.812702641012116"><ele>296.0</ele><time>2026-04-23T12:35:26Z</time></trkpt><trkpt lat="46.00190797878549" lon="11.81315203817125"><ele>298.0</ele><time>2026-04-23T12:35:27Z</time></trkpt><trkpt lat="46.00191466111233" lon="11.813618983764686"><ele>298.0</ele><time>2026-04-23T12:35:28Z</time></trkpt><trkpt lat="46.0019175028168" lon="11.814099751763985"><ele>298.0</ele><time>2026-04-23T12:35:29Z</time></trkpt><trkpt lat="46.001921621118676" lon="11.814592917400455"><ele>298.5</ele><time>2026-04-23T12:35:30Z</time></trkpt><trkpt lat="46.00193001233012" lon="11.815097486109458"><ele>299.0</ele><time>2026-04-23T12:35:31Z</time></trkpt><trkpt lat="46.00193869329179" lon="11.815612309437537"><ele>301.0</ele><time>2026-04-23T12:35:32Z</time></trkpt><trkpt lat="46.001949590531055" lon="11.816136723618103"><ele>303.0</ele><time>2026-04-23T12:35:33Z</time></trkpt><trkpt lat="46.00195689223538" lon="11.816667024119413"><ele>303.0</ele><time>2026-04-23T12:35:34Z</time></trkpt><trkpt lat="46.00196427915645" lon="11.817204341234747"><ele>303.0</ele><time>2026-04-23T12:35:35Z</time></trkpt><trkpt lat="46.00197032830746" lon="11.817749373614303"><ele>303.0</ele><time>2026-04-23T12:35:36Z</time></trkpt><trkpt lat="46.00197760960834" lon="11.818298421223153"><ele>303.0</ele><time>2026-04-23T12:35:37Z</time></trkpt><trkpt lat="46.00198852809007" lon="11.818854657656376"><ele>304.0</ele><time>2026-04-23T12:35:38Z</time></trkpt><trkpt lat="46.00200004301818" lon="11.819417101303424"><ele>305.0</ele><time>2026-04-23T12:35:39Z</time></trkpt><trkpt lat="46.0020120848575" lon="11.819982341820591"><ele>305.5</ele><time>2026-04-23T12:35:40Z</time></trkpt><trkpt lat="46.002022071057176" lon="11.820552569599228"><ele>306.0</ele><time>2026-04-23T12:35:41Z</time></trkpt><trkpt lat="46.002026668484476" lon="11.82110637789365"><ele>307.0</ele><time>2026-04-23T12:35:42Z</time></trkpt><trkpt lat="46.002030111577774" lon="11.821602792900794"><ele>308.0</ele><time>2026-04-23T12:35:43Z</time></trkpt><trkpt lat="46.0020354091063" lon="11.822065987625864"><ele>308.5</ele><time>2026-04-23T12:35:44Z</time></trkpt><trkpt lat="46.00204458306212" lon="11.822502984014001"><ele>309.0</ele><time>2026-04-23T12:35:45Z</time></trkpt><trkpt lat="46.00205369766124" lon="11.822918131583963"><ele>308.0</ele><time>2026-04-23T12:35:46Z</time></trkpt><trkpt lat="46.00206169155762" lon="11.823331478560425"><ele>307.0</ele><time>2026-04-23T12:35:47Z</time></trkpt><trkpt lat="46.002067757839" lon="11.823740762769285"><ele>309.0</ele><time>2026-04-23T12:35:48Z</time></trkpt><trkpt lat="46.00207233799591" lon="11.824154474450335"><ele>311.0</ele><time>2026-04-23T12:35:49Z</time></trkpt><trkpt lat="46.00207685102342" lon="11.824572253674598"><ele>312.0</ele><time>2026-04-23T12:35:50Z</time></trkpt><trkpt lat="46.0020787685156" lon="11.824990130039971"><ele>313.0</ele><time>2026-04-23T12:35:51Z</time></trkpt><trkpt lat="46.002084649175835" lon="11.825409606445877"><ele>313.5</ele><time>2026-04-23T12:35:52Z</time></trkpt><trkpt lat="46.00209195596468" lon="11.825830881288415"><ele>314.0</ele><time>2026-04-23T12:35:53Z</time></trkpt><trkpt lat="46.002100083839466" lon="11.826248901089619"><ele>314.5</ele><time>2026-04-23T12:35:54Z</time></trkpt><trkpt lat="46.002108562774424" lon="11.82668204438837"><ele>315.0</ele><time>2026-04-23T12:35:55Z</time></trkpt><trkpt lat="46.00211719952939" lon="11.827136137264446"><ele>315.0</ele><time>2026-04-23T12:35:56Z</time></trkpt><trkpt lat="46.00212283941242" lon="11.827599458366942"><ele>315.0</ele><time>2026-04-23T12:35:57Z</time></trkpt><trkpt lat="46.00212876635006" lon="11.8280699701416"><ele>314.5</ele><time>2026-04-23T12:35:58Z</time></trkpt><trkpt lat="46.002134840942546" lon="11.828518034481618"><ele>314.0</ele><time>2026-04-23T12:35:59Z</time></trkpt><trkpt lat="46.0021436063137" lon="11.828931629371615"><ele>315.0</ele><time>2026-04-23T12:36:00Z</time></trkpt><trkpt lat="46.00215072860537" lon="11.829346756756024"><ele>316.0</ele><time>2026-04-23T12:36:01Z</time></trkpt><trkpt lat="46.00215612581589" lon="11.829756509333276"><ele>317.0</ele><time>2026-04-23T12:36:02Z</time></trkpt><trkpt lat="46.00216077937607" lon="11.830160126854846"><ele>318.0</ele><time>2026-04-23T12:36:03Z</time></trkpt><trkpt lat="46.00216881679018" lon="11.830547798792848"><ele>318.0</ele><time>2026-04-23T12:36:04Z</time></trkpt><trkpt lat="46.00217567634179" lon="11.83091106551851"><ele>318.0</ele><time>2026-04-23T12:36:05Z</time></trkpt><trkpt lat="46.0021818098251" lon="11.83126439807003"><ele>318.0</ele><time>2026-04-23T12:36:06Z</time></trkpt><trkpt lat="46.002187626861904" lon="11.831618847900533"><ele>318.0</ele><time>2026-04-23T12:36:07Z</time></trkpt><trkpt lat="46.00219540800273" lon="11.831986676332056"><ele>318.0</ele><time>2026-04-23T12:36:08Z</time></trkpt><trkpt lat="46.00220537072626" lon="11.832385104970012"><ele>318.0</ele><time>2026-04-23T12:36:09Z</time></trkpt><trkpt lat="46.00220933034931" lon="11.83279679378767"><ele>318.0</ele><time>2026-04-23T12:36:10Z</time></trkpt><trkpt lat="46.00221332732702" lon="11.833171939136461"><ele>318.0</ele><time>2026-04-23T12:36:11Z</time></trkpt><trkpt lat="46.00221822946328" lon="11.833522838259864"><ele>318.0</ele><time>2026-04-23T12:36:12Z</time></trkpt><trkpt lat="46.0022229067304" lon="11.833838572990585"><ele>318.0</ele><time>2026-04-23T12:36:13Z</time></trkpt><trkpt lat="46.002226155090696" lon="11.834120698629118"><ele>318.0</ele><time>2026-04-23T12:36:14Z</time></trkpt><trkpt lat="46.00223087790682" lon="11.834379031090965"><ele>318.0</ele><time>2026-04-23T12:36:15Z</time></trkpt><trkpt lat="46.00223402376567" lon="11.834618234011785"><ele>318.0</ele><time>2026-04-23T12:36:16Z</time></trkpt><trkpt lat="46.00223214456762" lon="11.834841864103925"><ele>318.0</ele><time>2026-04-23T12:36:17Z</time></trkpt><trkpt lat="46.00222445794669" lon="11.83505158671067"><ele>318.5</ele><time>2026-04-23T12:36:18Z</time></trkpt><trkpt lat="46.00221614187321" lon="11.835258557270302"><ele>319.0</ele><time>2026-04-23T12:36:19Z</time></trkpt><trkpt lat="46.00220368342121" lon="11.835462685757415"><ele>319.5</ele><time>2026-04-23T12:36:20Z</time></trkpt><trkpt lat="46.00219230061325" lon="11.835664827274668"><ele>320.0</ele><time>2026-04-23T12:36:21Z</time></trkpt><trkpt lat="46.00218217848355" lon="11.835848741534244"><ele>319.75</ele><time>2026-04-23T12:36:22Z</time></trkpt><trkpt lat="46.00216655204055" lon="11.836024906034666"><ele>319.5</ele><time>2026-04-23T12:36:23Z</time></trkpt><trkpt lat="46.00213678747222" lon="11.83621274247833"><ele>319.25</ele><time>2026-04-23T12:36:24Z</time></trkpt><trkpt lat="46.00210315616623" lon="11.83639701917281"><ele>319.0</ele><time>2026-04-23T12:36:25Z</time></trkpt><trkpt lat="46.00209021372735" lon="11.836561905509738"><ele>319.0</ele><time>2026-04-23T12:36:26Z</time></trkpt><trkpt lat="46.002105618534486" lon="11.836705724182167"><ele>319.0</ele><time>2026-04-23T12:36:27Z</time></trkpt><trkpt lat="46.00213853560404" lon="11.836801767305756"><ele>319.0</ele><time>2026-04-23T12:36:28Z</time></trkpt><trkpt lat="46.002218582447384" lon="11.83691217953082"><ele>319.0</ele><time>2026-04-23T12:36:30Z</time></trkpt><trkpt lat="46.00230711767085" lon="11.836950069145773"><ele>319.0</ele><time>2026-04-23T12:36:32Z</time></trkpt><trkpt lat="46.00241132809422" lon="11.836950234912402"><ele>319.0</ele><time>2026-04-23T12:36:34Z</time></trkpt><trkpt lat="46.00247902963145" lon="11.836934013766314"><ele>319.0</ele><time>2026-04-23T12:36:35Z</time></trkpt><trkpt lat="46.00255414386244" lon="11.836927828999695"><ele>319.0</ele><time>2026-04-23T12:36:36Z</time></trkpt><trkpt lat="46.00267856199351" lon="11.837007144152974"><ele>319.0</ele><time>2026-04-23T12:36:38Z</time></trkpt><trkpt lat="46.0027501192107" lon="11.837100931882278"><ele>319.0</ele><time>2026-04-23T12:36:39Z</time></trkpt><trkpt lat="46.00284685602066" lon="11.837197206620168"><ele>319.0</ele><time>2026-04-23T12:36:40Z</time></trkpt><trkpt lat="46.00292502563461" lon="11.837393501083657"><ele>319.0</ele><time>2026-04-23T12:36:41Z</time></trkpt><trkpt lat="46.00301286160112" lon="11.837643551215079"><ele>319.0</ele><time>2026-04-23T12:36:42Z</time></trkpt><trkpt lat="46.003109294221325" lon="11.837884176525243"><ele>319.0</ele><time>2026-04-23T12:36:43Z</time></trkpt><trkpt lat="46.00321653514466" lon="11.838157692716857"><ele>319.0</ele><time>2026-04-23T12:36:44Z</time></trkpt><trkpt lat="46.00332233885983" lon="11.838390677842087"><ele>319.0</ele><time>2026-04-23T12:36:45Z</time></trkpt><trkpt lat="46.00339124310721" lon="11.838570097887406"><ele>319.0</ele><time>2026-04-23T12:36:46Z</time></trkpt><trkpt lat="46.0034640963348" lon="11.838738863196452"><ele>319.0</ele><time>2026-04-23T12:36:47Z</time></trkpt><trkpt lat="46.00352135763583" lon="11.8388797220411"><ele>319.0</ele><time>2026-04-23T12:36:48Z</time></trkpt><trkpt lat="46.003552925381825" lon="11.839024851775928"><ele>319.0</ele><time>2026-04-23T12:36:49Z</time></trkpt><trkpt lat="46.003582009658004" lon="11.839193878665977"><ele>319.75</ele><time>2026-04-23T12:36:50Z</time></trkpt><trkpt lat="46.003622401897" lon="11.839355695988253"><ele>320.5</ele><time>2026-04-23T12:36:51Z</time></trkpt><trkpt lat="46.00364259247916" lon="11.839501703434907"><ele>321.25</ele><time>2026-04-23T12:36:52Z</time></trkpt><trkpt lat="46.00363248356897" lon="11.839670460229193"><ele>322.0</ele><time>2026-04-23T12:36:53Z</time></trkpt><trkpt lat="46.00359687952277" lon="11.839859805796994"><ele>322.0</ele><time>2026-04-23T12:36:54Z</time></trkpt><trkpt lat="46.00351839144211" lon="11.840058869021"><ele>322.0</ele><time>2026-04-23T12:36:55Z</time></trkpt><trkpt lat="46.00345712688133" lon="11.840314469195427"><ele>322.0</ele><time>2026-04-23T12:36:56Z</time></trkpt><trkpt lat="46.003384464939664" lon="11.840544707688"><ele>321.66666666666663</ele><time>2026-04-23T12:36:57Z</time></trkpt><trkpt lat="46.00330785444233" lon="11.840801234469458"><ele>321.3333333333333</ele><time>2026-04-23T12:36:58Z</time></trkpt><trkpt lat="46.00323832084197" lon="11.84102934755164"><ele>321.0</ele><time>2026-04-23T12:36:59Z</time></trkpt><trkpt lat="46.00318976123629" lon="11.841180390544004"><ele>321.0</ele><time>2026-04-23T12:37:00Z</time></trkpt><trkpt lat="46.00315139328546" lon="11.841301732893713"><ele>321.0</ele><time>2026-04-23T12:37:01Z</time></trkpt><trkpt lat="46.00310788693222" lon="11.841435714123618"><ele>321.0</ele><time>2026-04-23T12:37:02Z</time></trkpt><trkpt lat="46.00306617643349" lon="11.841625971100175"><ele>321.0</ele><time>2026-04-23T12:37:03Z</time></trkpt><trkpt lat="46.00302290377433" lon="11.841879743678515"><ele>321.3333333333333</ele><time>2026-04-23T12:37:04Z</time></trkpt><trkpt lat="46.00298722507189" lon="11.842124098048437"><ele>321.66666666666663</ele><time>2026-04-23T12:37:05Z</time></trkpt><trkpt lat="46.00296909285992" lon="11.842374140253611"><ele>322.0</ele><time>2026-04-23T12:37:06Z</time></trkpt><trkpt lat="46.002975479247475" lon="11.842651429870529"><ele>322.0</ele><time>2026-04-23T12:37:07Z</time></trkpt><trkpt lat="46.003002535630465" lon="11.842960893035011"><ele>322.0</ele><time>2026-04-23T12:37:08Z</time></trkpt><trkpt lat="46.00302996613075" lon="11.843252045684435"><ele>322.0</ele><time>2026-04-23T12:37:09Z</time></trkpt><trkpt lat="46.00306336887657" lon="11.843548637941618"><ele>321.0</ele><time>2026-04-23T12:37:10Z</time></trkpt><trkpt lat="46.00311373312164" lon="11.843870013736266"><ele>320.0</ele><time>2026-04-23T12:37:11Z</time></trkpt><trkpt lat="46.00317855792492" lon="11.84420001900759"><ele>320.33333333333337</ele><time>2026-04-23T12:37:12Z</time></trkpt><trkpt lat="46.00325763141608" lon="11.8445073646376"><ele>320.6666666666667</ele><time>2026-04-23T12:37:13Z</time></trkpt><trkpt lat="46.00334421522401" lon="11.844791692165186"><ele>321.0</ele><time>2026-04-23T12:37:14Z</time></trkpt><trkpt lat="46.003438251488824" lon="11.845072289714262"><ele>319.3333333333333</ele><time>2026-04-23T12:37:15Z</time></trkpt><trkpt lat="46.0035360754635" lon="11.845333783223987"><ele>317.66666666666663</ele><time>2026-04-23T12:37:16Z</time></trkpt><trkpt lat="46.00363919412912" lon="11.845579749234357"><ele>316.0</ele><time>2026-04-23T12:37:17Z</time></trkpt><trkpt lat="46.00374827609565" lon="11.84580624346207"><ele>315.3333333333333</ele><time>2026-04-23T12:37:18Z</time></trkpt><trkpt lat="46.003853644544435" lon="11.846019029031767"><ele>314.6666666666667</ele><time>2026-04-23T12:37:19Z</time></trkpt><trkpt lat="46.00394864306891" lon="11.846222396519222"><ele>314.0</ele><time>2026-04-23T12:37:20Z</time></trkpt><trkpt lat="46.004051544423525" lon="11.846445686045012"><ele>314.0</ele><time>2026-04-23T12:37:21Z</time></trkpt><trkpt lat="46.00417172221995" lon="11.846690324093933"><ele>314.0</ele><time>2026-04-23T12:37:22Z</time></trkpt><trkpt lat="46.00429538590233" lon="11.846997077782397"><ele>314.0</ele><time>2026-04-23T12:37:23Z</time></trkpt><trkpt lat="46.004425915239736" lon="11.84727857008552"><ele>314.0</ele><time>2026-04-23T12:37:24Z</time></trkpt><trkpt lat="46.004554142514024" lon="11.84750886174532"><ele>314.0</ele><time>2026-04-23T12:37:25Z</time></trkpt><trkpt lat="46.00466363314171" lon="11.84772222019877"><ele>313.33333333333337</ele><time>2026-04-23T12:37:26Z</time></trkpt><trkpt lat="46.004781568513486" lon="11.847924882592897"><ele>312.6666666666667</ele><time>2026-04-23T12:37:27Z</time></trkpt><trkpt lat="46.00490615384474" lon="11.84814190660047"><ele>312.0</ele><time>2026-04-23T12:37:28Z</time></trkpt><trkpt lat="46.00501978710119" lon="11.848346627357047"><ele>311.6666666666667</ele><time>2026-04-23T12:37:29Z</time></trkpt><trkpt lat="46.00513130150527" lon="11.848548259649274"><ele>311.33333333333337</ele><time>2026-04-23T12:37:30Z</time></trkpt><trkpt lat="46.00524147386567" lon="11.848749244698025"><ele>311.0</ele><time>2026-04-23T12:37:31Z</time></trkpt><trkpt lat="46.0053420874369" lon="11.848945472950879"><ele>311.0</ele><time>2026-04-23T12:37:32Z</time></trkpt><trkpt lat="46.00543919974713" lon="11.849136196283725"><ele>311.0</ele><time>2026-04-23T12:37:33Z</time></trkpt><trkpt lat="46.00553398280853" lon="11.849339593115626"><ele>311.0</ele><time>2026-04-23T12:37:34Z</time></trkpt><trkpt lat="46.00562069447839" lon="11.849544873390483"><ele>311.0</ele><time>2026-04-23T12:37:35Z</time></trkpt><trkpt lat="46.00569697113265" lon="11.849743538644585"><ele>311.0</ele><time>2026-04-23T12:37:36Z</time></trkpt><trkpt lat="46.00576930895925" lon="11.849948643415466"><ele>311.0</ele><time>2026-04-23T12:37:37Z</time></trkpt><trkpt lat="46.00583858326318" lon="11.850148200295145"><ele>311.0</ele><time>2026-04-23T12:37:38Z</time></trkpt><trkpt lat="46.005913121324284" lon="11.850362326738463"><ele>311.0</ele><time>2026-04-23T12:37:39Z</time></trkpt><trkpt lat="46.00599227814995" lon="11.85061967963924"><ele>311.0</ele><time>2026-04-23T12:37:40Z</time></trkpt><trkpt lat="46.006089850622885" lon="11.850903483446732"><ele>310.5</ele><time>2026-04-23T12:37:41Z</time></trkpt><trkpt lat="46.006192576350664" lon="11.851202276208683"><ele>310.0</ele><time>2026-04-23T12:37:42Z</time></trkpt><trkpt lat="46.00631098157113" lon="11.851515983046301"><ele>308.5</ele><time>2026-04-23T12:37:43Z</time></trkpt><trkpt lat="46.006409386783254" lon="11.851827187972297"><ele>307.0</ele><time>2026-04-23T12:37:44Z</time></trkpt><trkpt lat="46.00650533730057" lon="11.852112315967668"><ele>307.0</ele><time>2026-04-23T12:37:45Z</time></trkpt><trkpt lat="46.00661586682069" lon="11.852434245644782"><ele>307.0</ele><time>2026-04-23T12:37:46Z</time></trkpt><trkpt lat="46.0067335878667" lon="11.852778022025474"><ele>306.5</ele><time>2026-04-23T12:37:47Z</time></trkpt><trkpt lat="46.00685781089971" lon="11.853128931330218"><ele>306.0</ele><time>2026-04-23T12:37:48Z</time></trkpt><trkpt lat="46.006976771852436" lon="11.853461368245956"><ele>306.0</ele><time>2026-04-23T12:37:49Z</time></trkpt><trkpt lat="46.00708857406625" lon="11.853766834415419"><ele>306.0</ele><time>2026-04-23T12:37:50Z</time></trkpt><trkpt lat="46.00717577942625" lon="11.8540618699555"><ele>305.0</ele><time>2026-04-23T12:37:51Z</time></trkpt><trkpt lat="46.00727528060974" lon="11.854350845147007"><ele>304.0</ele><time>2026-04-23T12:37:52Z</time></trkpt><trkpt lat="46.00738782714766" lon="11.854679437581275"><ele>304.5</ele><time>2026-04-23T12:37:53Z</time></trkpt><trkpt lat="46.00750270377153" lon="11.855014833015678"><ele>305.0</ele><time>2026-04-23T12:37:54Z</time></trkpt><trkpt lat="46.00762138620673" lon="11.855361339936174"><ele>304.0</ele><time>2026-04-23T12:37:55Z</time></trkpt><trkpt lat="46.007743567873426" lon="11.855685993299971"><ele>303.0</ele><time>2026-04-23T12:37:56Z</time></trkpt><trkpt lat="46.00784753393893" lon="11.85599257506861"><ele>302.3333333333333</ele><time>2026-04-23T12:37:57Z</time></trkpt><trkpt lat="46.007947972252026" lon="11.856277186274518"><ele>301.66666666666663</ele><time>2026-04-23T12:37:58Z</time></trkpt><trkpt lat="46.008040542686324" lon="11.856545356809946"><ele>301.0</ele><time>2026-04-23T12:37:59Z</time></trkpt><trkpt lat="46.008128625466256" lon="11.856797547997267"><ele>300.0</ele><time>2026-04-23T12:38:00Z</time></trkpt><trkpt lat="46.00823232446701" lon="11.857082233188367"><ele>299.0</ele><time>2026-04-23T12:38:01Z</time></trkpt><trkpt lat="46.00832740019821" lon="11.857409156393853"><ele>299.0</ele><time>2026-04-23T12:38:02Z</time></trkpt><trkpt lat="46.00843321134686" lon="11.857718725625181"><ele>299.0</ele><time>2026-04-23T12:38:03Z</time></trkpt><trkpt lat="46.00855615861956" lon="11.858051256888919"><ele>299.0</ele><time>2026-04-23T12:38:04Z</time></trkpt><trkpt lat="46.00868256069481" lon="11.858422893333968"><ele>299.0</ele><time>2026-04-23T12:38:05Z</time></trkpt><trkpt lat="46.00881671545818" lon="11.858819013419243"><ele>297.5</ele><time>2026-04-23T12:38:06Z</time></trkpt><trkpt lat="46.00893919160106" lon="11.85918209799646"><ele>296.0</ele><time>2026-04-23T12:38:07Z</time></trkpt><trkpt lat="46.00907488578636" lon="11.859546845728014"><ele>295.5</ele><time>2026-04-23T12:38:08Z</time></trkpt><trkpt lat="46.00920755861902" lon="11.85994456742994"><ele>295.0</ele><time>2026-04-23T12:38:09Z</time></trkpt><trkpt lat="46.00933350508596" lon="11.860303274757136"><ele>294.5</ele><time>2026-04-23T12:38:10Z</time></trkpt><trkpt lat="46.009451057933354" lon="11.860629479963244"><ele>294.0</ele><time>2026-04-23T12:38:11Z</time></trkpt><trkpt lat="46.00956043633151" lon="11.86094167954392"><ele>292.5</ele><time>2026-04-23T12:38:12Z</time></trkpt><trkpt lat="46.00966343071924" lon="11.86124041428374"><ele>291.0</ele><time>2026-04-23T12:38:13Z</time></trkpt><trkpt lat="46.009762995146296" lon="11.861545465112941"><ele>291.0</ele><time>2026-04-23T12:38:14Z</time></trkpt><trkpt lat="46.009872617828776" lon="11.861865201469334"><ele>291.0</ele><time>2026-04-23T12:38:15Z</time></trkpt><trkpt lat="46.009995984214086" lon="11.862220654950235"><ele>291.0</ele><time>2026-04-23T12:38:16Z</time></trkpt><trkpt lat="46.01012262048483" lon="11.862593257733566"><ele>291.0</ele><time>2026-04-23T12:38:17Z</time></trkpt><trkpt lat="46.01023985715339" lon="11.862928832920504"><ele>291.0</ele><time>2026-04-23T12:38:18Z</time></trkpt><trkpt lat="46.01035116284733" lon="11.86325466835547"><ele>291.0</ele><time>2026-04-23T12:38:19Z</time></trkpt><trkpt lat="46.010455417355956" lon="11.86355415829031"><ele>291.3333333333333</ele><time>2026-04-23T12:38:20Z</time></trkpt><trkpt lat="46.010553166477585" lon="11.863836225768695"><ele>291.66666666666663</ele><time>2026-04-23T12:38:21Z</time></trkpt><trkpt lat="46.01064426762387" lon="11.864102826237929"><ele>292.0</ele><time>2026-04-23T12:38:22Z</time></trkpt><trkpt lat="46.01073053414579" lon="11.864355595280058"><ele>291.0</ele><time>2026-04-23T12:38:23Z</time></trkpt><trkpt lat="46.01080350981126" lon="11.86457333802976"><ele>290.0</ele><time>2026-04-23T12:38:24Z</time></trkpt><trkpt lat="46.010869759656345" lon="11.864772375129386"><ele>289.0</ele><time>2026-04-23T12:38:25Z</time></trkpt><trkpt lat="46.010931365519205" lon="11.864946463585515"><ele>289.0</ele><time>2026-04-23T12:38:26Z</time></trkpt><trkpt lat="46.01099213839728" lon="11.865111486512513"><ele>289.0</ele><time>2026-04-23T12:38:27Z</time></trkpt><trkpt lat="46.011049331384164" lon="11.865269971534811"><ele>289.0</ele><time>2026-04-23T12:38:28Z</time></trkpt><trkpt lat="46.011105001761074" lon="11.865434065449513"><ele>289.0</ele><time>2026-04-23T12:38:29Z</time></trkpt><trkpt lat="46.011169363799084" lon="11.865623596646735"><ele>288.3333333333333</ele><time>2026-04-23T12:38:30Z</time></trkpt><trkpt lat="46.01124452406762" lon="11.86581516028521"><ele>287.6666666666667</ele><time>2026-04-23T12:38:31Z</time></trkpt><trkpt lat="46.011337552104344" lon="11.8660423396231"><ele>287.0</ele><time>2026-04-23T12:38:32Z</time></trkpt><trkpt lat="46.01143261674639" lon="11.866327794435684"><ele>286.5</ele><time>2026-04-23T12:38:33Z</time></trkpt><trkpt lat="46.01153289079214" lon="11.866633604971895"><ele>286.0</ele><time>2026-04-23T12:38:34Z</time></trkpt><trkpt lat="46.01162689552172" lon="11.866915740256578"><ele>286.0</ele><time>2026-04-23T12:38:35Z</time></trkpt><trkpt lat="46.01171080855844" lon="11.867171469734378"><ele>286.0</ele><time>2026-04-23T12:38:36Z</time></trkpt><trkpt lat="46.01179424907668" lon="11.867416959410999"><ele>286.0</ele><time>2026-04-23T12:38:37Z</time></trkpt><trkpt lat="46.01189872437098" lon="11.867709936065"><ele>286.0</ele><time>2026-04-23T12:38:38Z</time></trkpt><trkpt lat="46.01201536765899" lon="11.868035252625551"><ele>286.0</ele><time>2026-04-23T12:38:39Z</time></trkpt><trkpt lat="46.01212749998383" lon="11.868371272076388"><ele>284.5</ele><time>2026-04-23T12:38:40Z</time></trkpt><trkpt lat="46.012219696318645" lon="11.86867505328768"><ele>283.0</ele><time>2026-04-23T12:38:41Z</time></trkpt><trkpt lat="46.012319961382346" lon="11.868989968588725"><ele>283.0</ele><time>2026-04-23T12:38:42Z</time></trkpt><trkpt lat="46.01242644003628" lon="11.869278554446282"><ele>283.0</ele><time>2026-04-23T12:38:43Z</time></trkpt><trkpt lat="46.012518401959746" lon="11.869544096605638"><ele>283.0</ele><time>2026-04-23T12:38:44Z</time></trkpt><trkpt lat="46.01259846638423" lon="11.869792670313393"><ele>283.0</ele><time>2026-04-23T12:38:45Z</time></trkpt><trkpt lat="46.01267419640809" lon="11.870020691836457"><ele>283.0</ele><time>2026-04-23T12:38:46Z</time></trkpt><trkpt lat="46.01274604343633" lon="11.870232995359487"><ele>283.0</ele><time>2026-04-23T12:38:47Z</time></trkpt><trkpt lat="46.0128146766939" lon="11.87044042413574"><ele>283.0</ele><time>2026-04-23T12:38:48Z</time></trkpt><trkpt lat="46.01288815264312" lon="11.870652720022115"><ele>283.0</ele><time>2026-04-23T12:38:49Z</time></trkpt><trkpt lat="46.012965142214235" lon="11.870867779477999"><ele>283.0</ele><time>2026-04-23T12:38:50Z</time></trkpt><trkpt lat="46.01303648354232" lon="11.871068186864758"><ele>282.75</ele><time>2026-04-23T12:38:51Z</time></trkpt><trkpt lat="46.01310409736284" lon="11.871260380748634"><ele>282.5</ele><time>2026-04-23T12:38:52Z</time></trkpt><trkpt lat="46.01316716903286" lon="11.871441020008946"><ele>282.25</ele><time>2026-04-23T12:38:53Z</time></trkpt><trkpt lat="46.01322574106327" lon="11.871615687669323"><ele>282.0</ele><time>2026-04-23T12:38:54Z</time></trkpt><trkpt lat="46.01328672196749" lon="11.871796868118542"><ele>281.6666666666667</ele><time>2026-04-23T12:38:55Z</time></trkpt><trkpt lat="46.01334776714134" lon="11.871972065692242"><ele>281.33333333333337</ele><time>2026-04-23T12:38:56Z</time></trkpt><trkpt lat="46.01342198442003" lon="11.872179788164239"><ele>281.0</ele><time>2026-04-23T12:38:57Z</time></trkpt><trkpt lat="46.01351383030171" lon="11.87243244534821"><ele>281.0</ele><time>2026-04-23T12:38:58Z</time></trkpt><trkpt lat="46.01360093586666" lon="11.872730777632267"><ele>281.0</ele><time>2026-04-23T12:38:59Z</time></trkpt><trkpt lat="46.01370018660753" lon="11.873018578049956"><ele>281.0</ele><time>2026-04-23T12:39:00Z</time></trkpt><trkpt lat="46.01379662287229" lon="11.873262607101413"><ele>280.33333333333337</ele><time>2026-04-23T12:39:01Z</time></trkpt><trkpt lat="46.0138820648459" lon="11.873521303286122"><ele>279.6666666666667</ele><time>2026-04-23T12:39:02Z</time></trkpt><trkpt lat="46.013968512153426" lon="11.87375168343733"><ele>279.0</ele><time>2026-04-23T12:39:03Z</time></trkpt><trkpt lat="46.01404634077716" lon="11.87397868549052"><ele>279.0</ele><time>2026-04-23T12:39:04Z</time></trkpt><trkpt lat="46.014126063908215" lon="11.87421109313258"><ele>279.0</ele><time>2026-04-23T12:39:05Z</time></trkpt><trkpt lat="46.01420848486329" lon="11.874494785995957"><ele>279.0</ele><time>2026-04-23T12:39:06Z</time></trkpt><trkpt lat="46.014316264660536" lon="11.874808354545955"><ele>278.5</ele><time>2026-04-23T12:39:07Z</time></trkpt><trkpt lat="46.01443355707415" lon="11.875148179436"><ele>278.0</ele><time>2026-04-23T12:39:08Z</time></trkpt><trkpt lat="46.01455871432036" lon="11.8755110186195"><ele>278.0</ele><time>2026-04-23T12:39:09Z</time></trkpt><trkpt lat="46.014699004799105" lon="11.875878157388035"><ele>278.0</ele><time>2026-04-23T12:39:10Z</time></trkpt><trkpt lat="46.01480947236823" lon="11.876222871635212"><ele>277.0</ele><time>2026-04-23T12:39:11Z</time></trkpt><trkpt lat="46.01492910218282" lon="11.876572512604957"><ele>276.0</ele><time>2026-04-23T12:39:12Z</time></trkpt><trkpt lat="46.015043635026444" lon="11.87690267611253"><ele>275.5</ele><time>2026-04-23T12:39:13Z</time></trkpt><trkpt lat="46.01516287407786" lon="11.877242166049003"><ele>275.0</ele><time>2026-04-23T12:39:14Z</time></trkpt><trkpt lat="46.01528553275025" lon="11.877603426982708"><ele>275.0</ele><time>2026-04-23T12:39:15Z</time></trkpt><trkpt lat="46.01541337466793" lon="11.877983745815554"><ele>275.0</ele><time>2026-04-23T12:39:16Z</time></trkpt><trkpt lat="46.01555123466345" lon="11.878372859160228"><ele>275.5</ele><time>2026-04-23T12:39:17Z</time></trkpt><trkpt lat="46.015690754572795" lon="11.878776745508237"><ele>276.0</ele><time>2026-04-23T12:39:18Z</time></trkpt><trkpt lat="46.015829675757566" lon="11.879186892101888"><ele>275.0</ele><time>2026-04-23T12:39:19Z</time></trkpt><trkpt lat="46.015959345580164" lon="11.879571087891426"><ele>274.0</ele><time>2026-04-23T12:39:20Z</time></trkpt><trkpt lat="46.016080633303424" lon="11.87992655504171"><ele>272.5</ele><time>2026-04-23T12:39:21Z</time></trkpt><trkpt lat="46.01620163668675" lon="11.880275219483597"><ele>271.0</ele><time>2026-04-23T12:39:22Z</time></trkpt><trkpt lat="46.016327894842256" lon="11.88064280003848"><ele>270.0</ele><time>2026-04-23T12:39:23Z</time></trkpt><trkpt lat="46.0164602010287" lon="11.881026080766834"><ele>269.0</ele><time>2026-04-23T12:39:24Z</time></trkpt><trkpt lat="46.01657978229963" lon="11.881388986859646"><ele>269.5</ele><time>2026-04-23T12:39:25Z</time></trkpt><trkpt lat="46.01669640813288" lon="11.881728187212524"><ele>270.0</ele><time>2026-04-23T12:39:26Z</time></trkpt><trkpt lat="46.016819868980704" lon="11.882088186853176"><ele>270.5</ele><time>2026-04-23T12:39:27Z</time></trkpt><trkpt lat="46.016949305109236" lon="11.882466779677419"><ele>271.0</ele><time>2026-04-23T12:39:28Z</time></trkpt><trkpt lat="46.017080783093625" lon="11.882851932118509"><ele>271.0</ele><time>2026-04-23T12:39:29Z</time></trkpt><trkpt lat="46.01721396070381" lon="11.88323526085765"><ele>271.0</ele><time>2026-04-23T12:39:30Z</time></trkpt><trkpt lat="46.01734688070079" lon="11.883622026238712"><ele>271.0</ele><time>2026-04-23T12:39:31Z</time></trkpt><trkpt lat="46.01748249276589" lon="11.884018570591694"><ele>271.0</ele><time>2026-04-23T12:39:32Z</time></trkpt><trkpt lat="46.01762024640028" lon="11.884412747635512"><ele>269.0</ele><time>2026-04-23T12:39:33Z</time></trkpt><trkpt lat="46.01774231886999" lon="11.884769767921021"><ele>267.0</ele><time>2026-04-23T12:39:34Z</time></trkpt><trkpt lat="46.017854871754494" lon="11.885101704375561"><ele>266.5</ele><time>2026-04-23T12:39:35Z</time></trkpt><trkpt lat="46.01796507370235" lon="11.885412375802296"><ele>266.0</ele><time>2026-04-23T12:39:36Z</time></trkpt><trkpt lat="46.01806947851154" lon="11.885706488928166"><ele>266.33333333333337</ele><time>2026-04-23T12:39:37Z</time></trkpt><trkpt lat="46.018165406197596" lon="11.885974377049786"><ele>266.6666666666667</ele><time>2026-04-23T12:39:38Z</time></trkpt><trkpt lat="46.01824920204561" lon="11.886206750765162"><ele>267.0</ele><time>2026-04-23T12:39:39Z</time></trkpt><trkpt lat="46.01831910715107" lon="11.886411407630826"><ele>267.0</ele><time>2026-04-23T12:39:40Z</time></trkpt><trkpt lat="46.018375013776904" lon="11.886607281381773"><ele>267.0</ele><time>2026-04-23T12:39:41Z</time></trkpt><trkpt lat="46.018422254431165" lon="11.886785902303957"><ele>267.0</ele><time>2026-04-23T12:39:42Z</time></trkpt><trkpt lat="46.01845506659895" lon="11.886942446092869"><ele>267.0</ele><time>2026-04-23T12:39:43Z</time></trkpt><trkpt lat="46.018483181974375" lon="11.887075814331928"><ele>267.0</ele><time>2026-04-23T12:39:44Z</time></trkpt><trkpt lat="46.01850356575483" lon="11.887198241897256"><ele>267.0</ele><time>2026-04-23T12:39:45Z</time></trkpt><trkpt lat="46.01851370405641" lon="11.88731150183126"><ele>267.0</ele><time>2026-04-23T12:39:46Z</time></trkpt><trkpt lat="46.018508797458594" lon="11.887411155423587"><ele>267.0</ele><time>2026-04-23T12:39:47Z</time></trkpt><trkpt lat="46.018487811284636" lon="11.887538665385984"><ele>267.0</ele><time>2026-04-23T12:39:49Z</time></trkpt><trkpt lat="46.018450033525404" lon="11.887666868292863"><ele>267.0</ele><time>2026-04-23T12:39:51Z</time></trkpt><trkpt lat="46.018403271472636" lon="11.887800010419081"><ele>267.0</ele><time>2026-04-23T12:39:53Z</time></trkpt><trkpt lat="46.01835852911128" lon="11.887949122878624"><ele>267.0</ele><time>2026-04-23T12:39:55Z</time></trkpt><trkpt lat="46.01830695049483" lon="11.888077279754743"><ele>267.0</ele><time>2026-04-23T12:39:57Z</time></trkpt><trkpt lat="46.01830935535517" lon="11.888248583994871"><ele>267.0</ele><time>2026-04-23T12:39:59Z</time></trkpt><trkpt lat="46.01834582242139" lon="11.888330276139223"><ele>267.0</ele><time>2026-04-23T12:40:00Z</time></trkpt><trkpt lat="46.01840354814005" lon="11.888383501097934"><ele>267.00000000000006</ele><time>2026-04-23T12:40:01Z</time></trkpt><trkpt lat="46.01846969914438" lon="11.888409097203697"><ele>267.0</ele><time>2026-04-23T12:40:02Z</time></trkpt><trkpt lat="46.01854119322207" lon="11.888429679224346"><ele>267.0</ele><time>2026-04-23T12:40:03Z</time></trkpt><trkpt lat="46.01860655082999" lon="11.888471351468612"><ele>267.0</ele><time>2026-04-23T12:40:04Z</time></trkpt><trkpt lat="46.018656785817946" lon="11.888544129021438"><ele>267.0</ele><time>2026-04-23T12:40:05Z</time></trkpt><trkpt lat="46.01868742584305" lon="11.88864261769773"><ele>267.00000000000006</ele><time>2026-04-23T12:40:06Z</time></trkpt><trkpt lat="46.01870360195578" lon="11.888755754698147"><ele>267.0</ele><time>2026-04-23T12:40:07Z</time></trkpt><trkpt lat="46.01871313627113" lon="11.888887440400982"><ele>267.8</ele><time>2026-04-23T12:40:08Z</time></trkpt><trkpt lat="46.01872887195844" lon="11.88904451686071"><ele>268.6</ele><time>2026-04-23T12:40:09Z</time></trkpt><trkpt lat="46.01874233668855" lon="11.889181382816018"><ele>269.40000000000003</ele><time>2026-04-23T12:40:10Z</time></trkpt><trkpt lat="46.018755550304284" lon="11.889337791081909"><ele>270.2</ele><time>2026-04-23T12:40:11Z</time></trkpt><trkpt lat="46.01877715725248" lon="11.889516051285273"><ele>271.0</ele><time>2026-04-23T12:40:12Z</time></trkpt><trkpt lat="46.01879973827263" lon="11.889714062623252"><ele>271.0</ele><time>2026-04-23T12:40:13Z</time></trkpt><trkpt lat="46.01881429070036" lon="11.889895795446156"><ele>271.0</ele><time>2026-04-23T12:40:14Z</time></trkpt><trkpt lat="46.01882147153525" lon="11.890051908748555"><ele>271.0</ele><time>2026-04-23T12:40:15Z</time></trkpt><trkpt lat="46.018832813366956" lon="11.890203128554653"><ele>271.0</ele><time>2026-04-23T12:40:16Z</time></trkpt><trkpt lat="46.01884590215048" lon="11.89035447330361"><ele>271.0</ele><time>2026-04-23T12:40:17Z</time></trkpt><trkpt lat="46.01886024591118" lon="11.890504565525463"><ele>271.0</ele><time>2026-04-23T12:40:18Z</time></trkpt><trkpt lat="46.01887502490065" lon="11.890661686936305"><ele>271.0</ele><time>2026-04-23T12:40:19Z</time></trkpt><trkpt lat="46.01889239426661" lon="11.890830254790083"><ele>271.0</ele><time>2026-04-23T12:40:20Z</time></trkpt><trkpt lat="46.01891117165651" lon="11.89101179549924"><ele>271.0</ele><time>2026-04-23T12:40:21Z</time></trkpt><trkpt lat="46.01893143999882" lon="11.891206515690024"><ele>271.25</ele><time>2026-04-23T12:40:22Z</time></trkpt><trkpt lat="46.018951264048816" lon="11.891411160413236"><ele>271.5</ele><time>2026-04-23T12:40:23Z</time></trkpt><trkpt lat="46.0189699195067" lon="11.89160175479771"><ele>271.75</ele><time>2026-04-23T12:40:24Z</time></trkpt><trkpt lat="46.0189881889995" lon="11.891778348578608"><ele>272.0</ele><time>2026-04-23T12:40:25Z</time></trkpt><trkpt lat="46.01900290474708" lon="11.891950442022948"><ele>272.0</ele><time>2026-04-23T12:40:26Z</time></trkpt><trkpt lat="46.01901682929188" lon="11.892127368492792"><ele>272.0</ele><time>2026-04-23T12:40:27Z</time></trkpt><trkpt lat="46.01903209646302" lon="11.892302099248806"><ele>272.0</ele><time>2026-04-23T12:40:28Z</time></trkpt><trkpt lat="46.01905175829027" lon="11.892476930127923"><ele>272.0</ele><time>2026-04-23T12:40:29Z</time></trkpt><trkpt lat="46.01907888067534" lon="11.892650460401738"><ele>272.25</ele><time>2026-04-23T12:40:30Z</time></trkpt><trkpt lat="46.01911109553809" lon="11.892824748555517"><ele>272.5</ele><time>2026-04-23T12:40:31Z</time></trkpt><trkpt lat="46.01913837954998" lon="11.893005609138942"><ele>272.75</ele><time>2026-04-23T12:40:32Z</time></trkpt><trkpt lat="46.01916217046594" lon="11.893194595957599"><ele>273.0</ele><time>2026-04-23T12:40:33Z</time></trkpt><trkpt lat="46.019189004438964" lon="11.893393558067725"><ele>273.0</ele><time>2026-04-23T12:40:34Z</time></trkpt><trkpt lat="46.019218122721526" lon="11.89360198865818"><ele>273.0</ele><time>2026-04-23T12:40:35Z</time></trkpt><trkpt lat="46.01924661737447" lon="11.893818008520785"><ele>273.0</ele><time>2026-04-23T12:40:36Z</time></trkpt><trkpt lat="46.01927968990126" lon="11.894039680846861"><ele>273.0</ele><time>2026-04-23T12:40:37Z</time></trkpt><trkpt lat="46.019309226877496" lon="11.894229538290663"><ele>273.0</ele><time>2026-04-23T12:40:38Z</time></trkpt><trkpt lat="46.01933551369265" lon="11.89437537373777"><ele>273.0</ele><time>2026-04-23T12:40:39Z</time></trkpt><trkpt lat="46.01936230851537" lon="11.894513412925928"><ele>273.0</ele><time>2026-04-23T12:40:40Z</time></trkpt><trkpt lat="46.01938596616725" lon="11.894634521074861"><ele>273.0</ele><time>2026-04-23T12:40:41Z</time></trkpt><trkpt lat="46.019401764226174" lon="11.89474805581414"><ele>273.0</ele><time>2026-04-23T12:40:42Z</time></trkpt><trkpt lat="46.01941756687757" lon="11.894867931700821"><ele>273.0</ele><time>2026-04-23T12:40:43Z</time></trkpt><trkpt lat="46.01943352752064" lon="11.894984964657986"><ele>273.0</ele><time>2026-04-23T12:40:44Z</time></trkpt><trkpt lat="46.01943526647778" lon="11.895097715491671"><ele>273.0</ele><time>2026-04-23T12:40:45Z</time></trkpt><trkpt lat="46.01942770104759" lon="11.895204888001324"><ele>273.0</ele><time>2026-04-23T12:40:46Z</time></trkpt><trkpt lat="46.019412065854844" lon="11.895307340755098"><ele>273.0</ele><time>2026-04-23T12:40:47Z</time></trkpt><trkpt lat="46.0194029137389" lon="11.895430086967782"><ele>273.25</ele><time>2026-04-23T12:40:48Z</time></trkpt><trkpt lat="46.019412708936436" lon="11.895581299538525"><ele>273.5</ele><time>2026-04-23T12:40:49Z</time></trkpt><trkpt lat="46.01941100102606" lon="11.895767266918279"><ele>273.75</ele><time>2026-04-23T12:40:50Z</time></trkpt><trkpt lat="46.0193890984806" lon="11.895984594745059"><ele>274.0</ele><time>2026-04-23T12:40:51Z</time></trkpt><trkpt lat="46.019361989053316" lon="11.896166146674927"><ele>274.0</ele><time>2026-04-23T12:40:52Z</time></trkpt><trkpt lat="46.01934046459031" lon="11.896334826187577"><ele>274.0</ele><time>2026-04-23T12:40:53Z</time></trkpt><trkpt lat="46.01932173446088" lon="11.896491004522911"><ele>274.0</ele><time>2026-04-23T12:40:54Z</time></trkpt><trkpt lat="46.0193003388595" lon="11.89662860802887"><ele>274.0</ele><time>2026-04-23T12:40:55Z</time></trkpt><trkpt lat="46.019272474710434" lon="11.896773779804855"><ele>274.0</ele><time>2026-04-23T12:40:56Z</time></trkpt><trkpt lat="46.0192458188662" lon="11.896932429480561"><ele>274.0</ele><time>2026-04-23T12:40:57Z</time></trkpt><trkpt lat="46.01922054972838" lon="11.897112037637534"><ele>274.0</ele><time>2026-04-23T12:40:58Z</time></trkpt><trkpt lat="46.01916532377045" lon="11.897318965730673"><ele>274.0</ele><time>2026-04-23T12:40:59Z</time></trkpt><trkpt lat="46.01911850285455" lon="11.89758828369894"><ele>273.0</ele><time>2026-04-23T12:41:00Z</time></trkpt><trkpt lat="46.01904841698583" lon="11.897870462380588"><ele>272.0</ele><time>2026-04-23T12:41:01Z</time></trkpt><trkpt lat="46.01898971586659" lon="11.89812197504716"><ele>271.0</ele><time>2026-04-23T12:41:02Z</time></trkpt><trkpt lat="46.01893190564223" lon="11.898347925270185"><ele>270.66666666666663</ele><time>2026-04-23T12:41:03Z</time></trkpt><trkpt lat="46.01885547751286" lon="11.89854464759938"><ele>270.3333333333333</ele><time>2026-04-23T12:41:04Z</time></trkpt><trkpt lat="46.01875975617862" lon="11.898730004788142"><ele>270.0</ele><time>2026-04-23T12:41:05Z</time></trkpt><trkpt lat="46.01864673849563" lon="11.898910576370191"><ele>270.0</ele><time>2026-04-23T12:41:06Z</time></trkpt><trkpt lat="46.01854855685377" lon="11.899074136647126"><ele>270.0</ele><time>2026-04-23T12:41:07Z</time></trkpt><trkpt lat="46.01846045111798" lon="11.899226452778157"><ele>270.0</ele><time>2026-04-23T12:41:08Z</time></trkpt><trkpt lat="46.01836978661842" lon="11.899369986198801"><ele>270.0</ele><time>2026-04-23T12:41:09Z</time></trkpt><trkpt lat="46.018287245290665" lon="11.899500714582585"><ele>270.0</ele><time>2026-04-23T12:41:10Z</time></trkpt><trkpt lat="46.018227537057" lon="11.899606737180946"><ele>270.0</ele><time>2026-04-23T12:41:11Z</time></trkpt><trkpt lat="46.0181832335193" lon="11.899685660328931"><ele>270.0</ele><time>2026-04-23T12:41:12Z</time></trkpt><trkpt lat="46.01807885658617" lon="11.8997105050883"><ele>270.0</ele><time>2026-04-23T12:41:14Z</time></trkpt><trkpt lat="46.01802445808093" lon="11.899656667011707"><ele>270.0</ele><time>2026-04-23T12:41:15Z</time></trkpt><trkpt lat="46.01800169407885" lon="11.899554242756528"><ele>270.0</ele><time>2026-04-23T12:41:16Z</time></trkpt><trkpt lat="46.017999930762144" lon="11.899437000537606"><ele>270.0</ele><time>2026-04-23T12:41:17Z</time></trkpt><trkpt lat="46.017991440418406" lon="11.899302373385725"><ele>270.0</ele><time>2026-04-23T12:41:18Z</time></trkpt><trkpt lat="46.01796457867414" lon="11.899147085640191"><ele>270.0</ele><time>2026-04-23T12:41:19Z</time></trkpt><trkpt lat="46.017952028679865" lon="11.898951875812859"><ele>270.0</ele><time>2026-04-23T12:41:20Z</time></trkpt><trkpt lat="46.01792963016809" lon="11.898736286689017"><ele>270.0</ele><time>2026-04-23T12:41:21Z</time></trkpt><trkpt lat="46.017903832799" lon="11.898487983022662"><ele>270.0</ele><time>2026-04-23T12:41:22Z</time></trkpt><trkpt lat="46.01786784088136" lon="11.898282676240077"><ele>270.0</ele><time>2026-04-23T12:41:23Z</time></trkpt><trkpt lat="46.01786292767565" lon="11.898090470571576"><ele>270.2</ele><time>2026-04-23T12:41:24Z</time></trkpt><trkpt lat="46.01784592089283" lon="11.897920285991061"><ele>270.4</ele><time>2026-04-23T12:41:25Z</time></trkpt><trkpt lat="46.017819772112894" lon="11.89776841775773"><ele>270.6</ele><time>2026-04-23T12:41:26Z</time></trkpt><trkpt lat="46.01781205579846" lon="11.897627124893404"><ele>270.8</ele><time>2026-04-23T12:41:27Z</time></trkpt><trkpt lat="46.01780398735922" lon="11.897521330234454"><ele>271.0</ele><time>2026-04-23T12:41:28Z</time></trkpt><trkpt lat="46.01779422538695" lon="11.897422572123586"><ele>271.0</ele><time>2026-04-23T12:41:30Z</time></trkpt><trkpt lat="46.01765743166007" lon="11.8974342729391"><ele>271.0</ele><time>2026-04-23T12:41:35Z</time></trkpt><trkpt lat="46.01755955534982" lon="11.897449854185313"><ele>271.0</ele><time>2026-04-23T12:41:37Z</time></trkpt><trkpt lat="46.0174878170913" lon="11.897460736354551"><ele>271.0</ele><time>2026-04-23T12:41:38Z</time></trkpt><trkpt lat="46.01740976556435" lon="11.897482323039096"><ele>271.0</ele><time>2026-04-23T12:41:39Z</time></trkpt><trkpt lat="46.017324744586766" lon="11.897509657306102"><ele>268.0</ele><time>2026-04-23T12:41:40Z</time></trkpt><trkpt lat="46.01723931272673" lon="11.897555448520006"><ele>268.0</ele><time>2026-04-23T12:41:41Z</time></trkpt><trkpt lat="46.017168130645764" lon="11.897597349603494"><ele>268.0</ele><time>2026-04-23T12:41:42Z</time></trkpt><trkpt lat="46.017069084237" lon="11.897651379060017"><ele>268.0</ele><time>2026-04-23T12:41:44Z</time></trkpt><trkpt lat="46.01700453424725" lon="11.897681678476276"><ele>268.0</ele><time>2026-04-23T12:41:46Z</time></trkpt><trkpt lat="46.01709515491233" lon="11.897746228485506"><ele>268.0</ele><time>2026-04-23T12:41:53Z</time></trkpt></trkseg></trk></gpx>